<?xml version="1.0" encoding="UTF-8"?>
<gpx version="1.1" creator="https://www.youtrack.es" xsi:schemaLocation="http://www.topografix.com/GPX/1/1 http://www.topografix.com/GPX/1/1/gpx.xsd http://www.garmin.com/xmlschemas/GpxExtensions/v3 http://www.garmin.com/xmlschemas/GpxExtensionsv3.xsd http://www.garmin.com/xmlschemas/TrackPointExtension/v1 http://www.garmin.com/xmlschemas/TrackPointExtensionv1.xsd" xmlns:gpxtpx="http://www.garmin.com/xmlschemas/TrackPointExtension/v1" xmlns:gpxx="http://www.garmin.com/xmlschemas/GpxExtensions/v3" xmlns:xsi="http://www.w3.org/2001/XMLSchema-instance">
  <metadata>
    <link href="https://www.youtrack.es">
      <text>YouTrack.es</text>
    </link>
    <time>2026-05-07T23:11:15Z</time>
  </metadata>
  <trk>
    <src>https://www.youtrack.es</src>
    <link href="https://www.youtrack.es/ruta/26223-arta-campos-ruta-3--1-">
      <text>YouTrack.es</text>
    </link>
    <trkseg>
      <trkpt lat="39.694516" lon="3.352335">
        <ele>131.817</ele>
        <time>2021-09-01T08:45:55Z</time>
      </trkpt>
      <trkpt lat="39.694448" lon="3.352405">
        <ele>131.187</ele>
        <time>2021-09-01T08:45:57Z</time>
      </trkpt>
      <trkpt lat="39.694380" lon="3.352458">
        <ele>130.315</ele>
        <time>2021-09-01T08:45:59Z</time>
      </trkpt>
      <trkpt lat="39.694306" lon="3.352535">
        <ele>129.508</ele>
        <time>2021-09-01T08:46:01Z</time>
      </trkpt>
      <trkpt lat="39.694239" lon="3.352588">
        <ele>128.829</ele>
        <time>2021-09-01T08:46:03Z</time>
      </trkpt>
      <trkpt lat="39.694196" lon="3.352628">
        <ele>128.373</ele>
        <time>2021-09-01T08:46:05Z</time>
      </trkpt>
      <trkpt lat="39.694144" lon="3.352663">
        <ele>128.048</ele>
        <time>2021-09-01T08:46:07Z</time>
      </trkpt>
      <trkpt lat="39.694092" lon="3.352697">
        <ele>127.682</ele>
        <time>2021-09-01T08:46:09Z</time>
      </trkpt>
      <trkpt lat="39.694029" lon="3.352666">
        <ele>127.281</ele>
        <time>2021-09-01T08:46:11Z</time>
      </trkpt>
      <trkpt lat="39.693985" lon="3.352711">
        <ele>126.656</ele>
        <time>2021-09-01T08:46:27Z</time>
      </trkpt>
      <trkpt lat="39.693956" lon="3.352773">
        <ele>126.663</ele>
        <time>2021-09-01T08:46:29Z</time>
      </trkpt>
      <trkpt lat="39.693908" lon="3.352829">
        <ele>126.523</ele>
        <time>2021-09-01T08:46:31Z</time>
      </trkpt>
      <trkpt lat="39.693868" lon="3.352893">
        <ele>126.296</ele>
        <time>2021-09-01T08:46:33Z</time>
      </trkpt>
      <trkpt lat="39.693837" lon="3.352976">
        <ele>125.831</ele>
        <time>2021-09-01T08:46:35Z</time>
      </trkpt>
      <trkpt lat="39.693777" lon="3.353002">
        <ele>125.424</ele>
        <time>2021-09-01T08:46:37Z</time>
      </trkpt>
      <trkpt lat="39.693712" lon="3.353060">
        <ele>125.108</ele>
        <time>2021-09-01T08:46:39Z</time>
      </trkpt>
      <trkpt lat="39.693648" lon="3.353127">
        <ele>124.867</ele>
        <time>2021-09-01T08:46:41Z</time>
      </trkpt>
      <trkpt lat="39.693585" lon="3.353185">
        <ele>124.431</ele>
        <time>2021-09-01T08:46:43Z</time>
      </trkpt>
      <trkpt lat="39.693521" lon="3.353226">
        <ele>124.036</ele>
        <time>2021-09-01T08:46:45Z</time>
      </trkpt>
      <trkpt lat="39.693460" lon="3.353274">
        <ele>123.690</ele>
        <time>2021-09-01T08:46:47Z</time>
      </trkpt>
      <trkpt lat="39.693421" lon="3.353303">
        <ele>123.389</ele>
        <time>2021-09-01T08:46:48Z</time>
      </trkpt>
      <trkpt lat="39.693365" lon="3.353360">
        <ele>122.874</ele>
        <time>2021-09-01T08:46:50Z</time>
      </trkpt>
      <trkpt lat="39.693313" lon="3.353428">
        <ele>122.241</ele>
        <time>2021-09-01T08:46:52Z</time>
      </trkpt>
      <trkpt lat="39.693266" lon="3.353470">
        <ele>121.651</ele>
        <time>2021-09-01T08:46:54Z</time>
      </trkpt>
      <trkpt lat="39.693243" lon="3.353540">
        <ele>121.242</ele>
        <time>2021-09-01T08:46:56Z</time>
      </trkpt>
      <trkpt lat="39.693199" lon="3.353582">
        <ele>121.222</ele>
        <time>2021-09-01T08:46:57Z</time>
      </trkpt>
      <trkpt lat="39.693158" lon="3.353651">
        <ele>121.314</ele>
        <time>2021-09-01T08:46:59Z</time>
      </trkpt>
      <trkpt lat="39.693088" lon="3.353688">
        <ele>121.408</ele>
        <time>2021-09-01T08:47:01Z</time>
      </trkpt>
      <trkpt lat="39.693049" lon="3.353731">
        <ele>121.832</ele>
        <time>2021-09-01T08:47:03Z</time>
      </trkpt>
      <trkpt lat="39.693015" lon="3.353799">
        <ele>122.256</ele>
        <time>2021-09-01T08:47:05Z</time>
      </trkpt>
      <trkpt lat="39.692987" lon="3.353870">
        <ele>122.791</ele>
        <time>2021-09-01T08:47:07Z</time>
      </trkpt>
      <trkpt lat="39.692959" lon="3.353937">
        <ele>123.215</ele>
        <time>2021-09-01T08:47:09Z</time>
      </trkpt>
      <trkpt lat="39.692928" lon="3.354004">
        <ele>123.684</ele>
        <time>2021-09-01T08:47:11Z</time>
      </trkpt>
      <trkpt lat="39.692898" lon="3.354071">
        <ele>124.159</ele>
        <time>2021-09-01T08:47:13Z</time>
      </trkpt>
      <trkpt lat="39.692865" lon="3.354129">
        <ele>124.546</ele>
        <time>2021-09-01T08:47:15Z</time>
      </trkpt>
      <trkpt lat="39.692822" lon="3.354160">
        <ele>124.836</ele>
        <time>2021-09-01T08:47:17Z</time>
      </trkpt>
      <trkpt lat="39.692795" lon="3.354212">
        <ele>125.232</ele>
        <time>2021-09-01T08:47:19Z</time>
      </trkpt>
      <trkpt lat="39.692746" lon="3.354275">
        <ele>125.792</ele>
        <time>2021-09-01T08:47:22Z</time>
      </trkpt>
      <trkpt lat="39.692714" lon="3.354321">
        <ele>126.011</ele>
        <time>2021-09-01T08:47:24Z</time>
      </trkpt>
      <trkpt lat="39.692662" lon="3.354365">
        <ele>126.408</ele>
        <time>2021-09-01T08:47:26Z</time>
      </trkpt>
      <trkpt lat="39.692610" lon="3.354421">
        <ele>126.851</ele>
        <time>2021-09-01T08:47:29Z</time>
      </trkpt>
      <trkpt lat="39.692573" lon="3.354474">
        <ele>127.095</ele>
        <time>2021-09-01T08:47:31Z</time>
      </trkpt>
      <trkpt lat="39.692535" lon="3.354519">
        <ele>127.220</ele>
        <time>2021-09-01T08:47:33Z</time>
      </trkpt>
      <trkpt lat="39.692484" lon="3.354566">
        <ele>127.344</ele>
        <time>2021-09-01T08:47:36Z</time>
      </trkpt>
      <trkpt lat="39.692429" lon="3.354638">
        <ele>127.323</ele>
        <time>2021-09-01T08:47:38Z</time>
      </trkpt>
      <trkpt lat="39.692372" lon="3.354737">
        <ele>127.088</ele>
        <time>2021-09-01T08:47:40Z</time>
      </trkpt>
      <trkpt lat="39.692329" lon="3.354763">
        <ele>126.895</ele>
        <time>2021-09-01T08:47:41Z</time>
      </trkpt>
      <trkpt lat="39.692274" lon="3.354853">
        <ele>126.095</ele>
        <time>2021-09-01T08:47:43Z</time>
      </trkpt>
      <trkpt lat="39.692221" lon="3.354927">
        <ele>125.232</ele>
        <time>2021-09-01T08:47:45Z</time>
      </trkpt>
      <trkpt lat="39.692204" lon="3.354994">
        <ele>124.392</ele>
        <time>2021-09-01T08:47:47Z</time>
      </trkpt>
      <trkpt lat="39.692133" lon="3.355024">
        <ele>122.911</ele>
        <time>2021-09-01T08:47:51Z</time>
      </trkpt>
      <trkpt lat="39.692085" lon="3.354984">
        <ele>122.508</ele>
        <time>2021-09-01T08:47:53Z</time>
      </trkpt>
      <trkpt lat="39.692048" lon="3.354907">
        <ele>122.541</ele>
        <time>2021-09-01T08:47:55Z</time>
      </trkpt>
      <trkpt lat="39.692001" lon="3.354850">
        <ele>122.795</ele>
        <time>2021-09-01T08:47:57Z</time>
      </trkpt>
      <trkpt lat="39.691966" lon="3.354771">
        <ele>122.820</ele>
        <time>2021-09-01T08:47:59Z</time>
      </trkpt>
      <trkpt lat="39.691915" lon="3.354702">
        <ele>122.944</ele>
        <time>2021-09-01T08:48:01Z</time>
      </trkpt>
      <trkpt lat="39.691855" lon="3.354652">
        <ele>123.023</ele>
        <time>2021-09-01T08:48:03Z</time>
      </trkpt>
      <trkpt lat="39.691806" lon="3.354628">
        <ele>123.038</ele>
        <time>2021-09-01T08:48:05Z</time>
      </trkpt>
      <trkpt lat="39.691734" lon="3.354610">
        <ele>123.265</ele>
        <time>2021-09-01T08:48:07Z</time>
      </trkpt>
      <trkpt lat="39.691663" lon="3.354561">
        <ele>123.285</ele>
        <time>2021-09-01T08:48:09Z</time>
      </trkpt>
      <trkpt lat="39.691609" lon="3.354509">
        <ele>123.358</ele>
        <time>2021-09-01T08:48:11Z</time>
      </trkpt>
      <trkpt lat="39.691553" lon="3.354473">
        <ele>123.452</ele>
        <time>2021-09-01T08:48:13Z</time>
      </trkpt>
      <trkpt lat="39.691502" lon="3.354437">
        <ele>123.517</ele>
        <time>2021-09-01T08:48:15Z</time>
      </trkpt>
      <trkpt lat="39.691460" lon="3.354412">
        <ele>123.608</ele>
        <time>2021-09-01T08:48:17Z</time>
      </trkpt>
      <trkpt lat="39.691426" lon="3.354338">
        <ele>123.953</ele>
        <time>2021-09-01T08:48:19Z</time>
      </trkpt>
      <trkpt lat="39.691361" lon="3.354287">
        <ele>124.287</ele>
        <time>2021-09-01T08:48:21Z</time>
      </trkpt>
      <trkpt lat="39.691314" lon="3.354236">
        <ele>124.492</ele>
        <time>2021-09-01T08:48:23Z</time>
      </trkpt>
      <trkpt lat="39.691270" lon="3.354202">
        <ele>124.496</ele>
        <time>2021-09-01T08:48:25Z</time>
      </trkpt>
      <trkpt lat="39.691220" lon="3.354154">
        <ele>124.535</ele>
        <time>2021-09-01T08:48:27Z</time>
      </trkpt>
      <trkpt lat="39.691178" lon="3.354082">
        <ele>124.610</ele>
        <time>2021-09-01T08:48:29Z</time>
      </trkpt>
      <trkpt lat="39.691148" lon="3.354031">
        <ele>124.897</ele>
        <time>2021-09-01T08:48:31Z</time>
      </trkpt>
      <trkpt lat="39.691108" lon="3.353966">
        <ele>124.967</ele>
        <time>2021-09-01T08:48:33Z</time>
      </trkpt>
      <trkpt lat="39.691057" lon="3.353933">
        <ele>125.038</ele>
        <time>2021-09-01T08:48:35Z</time>
      </trkpt>
      <trkpt lat="39.691027" lon="3.353856">
        <ele>125.170</ele>
        <time>2021-09-01T08:48:37Z</time>
      </trkpt>
      <trkpt lat="39.690981" lon="3.353780">
        <ele>125.117</ele>
        <time>2021-09-01T08:48:39Z</time>
      </trkpt>
      <trkpt lat="39.690951" lon="3.353722">
        <ele>125.108</ele>
        <time>2021-09-01T08:48:41Z</time>
      </trkpt>
      <trkpt lat="39.690906" lon="3.353662">
        <ele>125.251</ele>
        <time>2021-09-01T08:48:43Z</time>
      </trkpt>
      <trkpt lat="39.690885" lon="3.353605">
        <ele>125.355</ele>
        <time>2021-09-01T08:48:45Z</time>
      </trkpt>
      <trkpt lat="39.690855" lon="3.353557">
        <ele>125.430</ele>
        <time>2021-09-01T08:48:47Z</time>
      </trkpt>
      <trkpt lat="39.690823" lon="3.353497">
        <ele>125.724</ele>
        <time>2021-09-01T08:48:51Z</time>
      </trkpt>
      <trkpt lat="39.690779" lon="3.353443">
        <ele>125.853</ele>
        <time>2021-09-01T08:48:53Z</time>
      </trkpt>
      <trkpt lat="39.690726" lon="3.353369">
        <ele>125.968</ele>
        <time>2021-09-01T08:48:55Z</time>
      </trkpt>
      <trkpt lat="39.690685" lon="3.353342">
        <ele>125.935</ele>
        <time>2021-09-01T08:48:56Z</time>
      </trkpt>
      <trkpt lat="39.690640" lon="3.353337">
        <ele>126.055</ele>
        <time>2021-09-01T08:48:57Z</time>
      </trkpt>
      <trkpt lat="39.690586" lon="3.353394">
        <ele>126.118</ele>
        <time>2021-09-01T08:48:59Z</time>
      </trkpt>
      <trkpt lat="39.690549" lon="3.353473">
        <ele>126.398</ele>
        <time>2021-09-01T08:49:01Z</time>
      </trkpt>
      <trkpt lat="39.690509" lon="3.353560">
        <ele>126.517</ele>
        <time>2021-09-01T08:49:03Z</time>
      </trkpt>
      <trkpt lat="39.690445" lon="3.353615">
        <ele>126.408</ele>
        <time>2021-09-01T08:49:05Z</time>
      </trkpt>
      <trkpt lat="39.690367" lon="3.353660">
        <ele>126.199</ele>
        <time>2021-09-01T08:49:07Z</time>
      </trkpt>
      <trkpt lat="39.690326" lon="3.353698">
        <ele>126.023</ele>
        <time>2021-09-01T08:49:08Z</time>
      </trkpt>
      <trkpt lat="39.690284" lon="3.353722">
        <ele>125.978</ele>
        <time>2021-09-01T08:49:09Z</time>
      </trkpt>
      <trkpt lat="39.690240" lon="3.353751">
        <ele>125.722</ele>
        <time>2021-09-01T08:49:10Z</time>
      </trkpt>
      <trkpt lat="39.690190" lon="3.353769">
        <ele>125.661</ele>
        <time>2021-09-01T08:49:11Z</time>
      </trkpt>
      <trkpt lat="39.690143" lon="3.353806">
        <ele>125.456</ele>
        <time>2021-09-01T08:49:12Z</time>
      </trkpt>
      <trkpt lat="39.690093" lon="3.353837">
        <ele>125.183</ele>
        <time>2021-09-01T08:49:13Z</time>
      </trkpt>
      <trkpt lat="39.690047" lon="3.353866">
        <ele>124.723</ele>
        <time>2021-09-01T08:49:14Z</time>
      </trkpt>
      <trkpt lat="39.690013" lon="3.353909">
        <ele>124.328</ele>
        <time>2021-09-01T08:49:15Z</time>
      </trkpt>
      <trkpt lat="39.689976" lon="3.353944">
        <ele>124.089</ele>
        <time>2021-09-01T08:49:16Z</time>
      </trkpt>
      <trkpt lat="39.689951" lon="3.354001">
        <ele>123.517</ele>
        <time>2021-09-01T08:49:18Z</time>
      </trkpt>
      <trkpt lat="39.689930" lon="3.354069">
        <ele>123.308</ele>
        <time>2021-09-01T08:49:22Z</time>
      </trkpt>
      <trkpt lat="39.689972" lon="3.354029">
        <ele>123.170</ele>
        <time>2021-09-01T08:49:25Z</time>
      </trkpt>
      <trkpt lat="39.690020" lon="3.353948">
        <ele>123.184</ele>
        <time>2021-09-01T08:49:27Z</time>
      </trkpt>
      <trkpt lat="39.690073" lon="3.353895">
        <ele>123.269</ele>
        <time>2021-09-01T08:49:29Z</time>
      </trkpt>
      <trkpt lat="39.690131" lon="3.353853">
        <ele>123.563</ele>
        <time>2021-09-01T08:49:31Z</time>
      </trkpt>
      <trkpt lat="39.690179" lon="3.353831">
        <ele>123.722</ele>
        <time>2021-09-01T08:49:33Z</time>
      </trkpt>
      <trkpt lat="39.690236" lon="3.353795">
        <ele>123.917</ele>
        <time>2021-09-01T08:49:35Z</time>
      </trkpt>
      <trkpt lat="39.690289" lon="3.353756">
        <ele>124.234</ele>
        <time>2021-09-01T08:49:37Z</time>
      </trkpt>
      <trkpt lat="39.690340" lon="3.353720">
        <ele>124.564</ele>
        <time>2021-09-01T08:49:39Z</time>
      </trkpt>
      <trkpt lat="39.690387" lon="3.353724">
        <ele>125.059</ele>
        <time>2021-09-01T08:49:42Z</time>
      </trkpt>
      <trkpt lat="39.690362" lon="3.353773">
        <ele>125.103</ele>
        <time>2021-09-01T08:49:48Z</time>
      </trkpt>
      <trkpt lat="39.690347" lon="3.353838">
        <ele>124.923</ele>
        <time>2021-09-01T08:49:51Z</time>
      </trkpt>
      <trkpt lat="39.690351" lon="3.353903">
        <ele>124.808</ele>
        <time>2021-09-01T08:49:53Z</time>
      </trkpt>
      <trkpt lat="39.690350" lon="3.353964">
        <ele>124.833</ele>
        <time>2021-09-01T08:49:55Z</time>
      </trkpt>
      <trkpt lat="39.690338" lon="3.354040">
        <ele>124.747</ele>
        <time>2021-09-01T08:49:57Z</time>
      </trkpt>
      <trkpt lat="39.690327" lon="3.354133">
        <ele>124.692</ele>
        <time>2021-09-01T08:49:59Z</time>
      </trkpt>
      <trkpt lat="39.690311" lon="3.354235">
        <ele>124.696</ele>
        <time>2021-09-01T08:50:01Z</time>
      </trkpt>
      <trkpt lat="39.690295" lon="3.354333">
        <ele>124.695</ele>
        <time>2021-09-01T08:50:03Z</time>
      </trkpt>
      <trkpt lat="39.690279" lon="3.354432">
        <ele>124.650</ele>
        <time>2021-09-01T08:50:05Z</time>
      </trkpt>
      <trkpt lat="39.690266" lon="3.354532">
        <ele>124.577</ele>
        <time>2021-09-01T08:50:07Z</time>
      </trkpt>
      <trkpt lat="39.690250" lon="3.354636">
        <ele>124.357</ele>
        <time>2021-09-01T08:50:09Z</time>
      </trkpt>
      <trkpt lat="39.690234" lon="3.354734">
        <ele>124.136</ele>
        <time>2021-09-01T08:50:11Z</time>
      </trkpt>
      <trkpt lat="39.690218" lon="3.354848">
        <ele>124.017</ele>
        <time>2021-09-01T08:50:13Z</time>
      </trkpt>
      <trkpt lat="39.690209" lon="3.354956">
        <ele>124.018</ele>
        <time>2021-09-01T08:50:15Z</time>
      </trkpt>
      <trkpt lat="39.690190" lon="3.355067">
        <ele>124.008</ele>
        <time>2021-09-01T08:50:17Z</time>
      </trkpt>
      <trkpt lat="39.690189" lon="3.355127">
        <ele>124.051</ele>
        <time>2021-09-01T08:50:18Z</time>
      </trkpt>
      <trkpt lat="39.690174" lon="3.355242">
        <ele>124.075</ele>
        <time>2021-09-01T08:50:20Z</time>
      </trkpt>
      <trkpt lat="39.690163" lon="3.355362">
        <ele>123.840</ele>
        <time>2021-09-01T08:50:22Z</time>
      </trkpt>
      <trkpt lat="39.690156" lon="3.355420">
        <ele>123.754</ele>
        <time>2021-09-01T08:50:23Z</time>
      </trkpt>
      <trkpt lat="39.690151" lon="3.355483">
        <ele>123.693</ele>
        <time>2021-09-01T08:50:24Z</time>
      </trkpt>
      <trkpt lat="39.690147" lon="3.355547">
        <ele>123.518</ele>
        <time>2021-09-01T08:50:25Z</time>
      </trkpt>
      <trkpt lat="39.690141" lon="3.355608">
        <ele>123.445</ele>
        <time>2021-09-01T08:50:26Z</time>
      </trkpt>
      <trkpt lat="39.690130" lon="3.355670">
        <ele>123.485</ele>
        <time>2021-09-01T08:50:27Z</time>
      </trkpt>
      <trkpt lat="39.690123" lon="3.355732">
        <ele>123.392</ele>
        <time>2021-09-01T08:50:28Z</time>
      </trkpt>
      <trkpt lat="39.690115" lon="3.355795">
        <ele>123.273</ele>
        <time>2021-09-01T08:50:29Z</time>
      </trkpt>
      <trkpt lat="39.690101" lon="3.355919">
        <ele>123.120</ele>
        <time>2021-09-01T08:50:31Z</time>
      </trkpt>
      <trkpt lat="39.690095" lon="3.355978">
        <ele>123.008</ele>
        <time>2021-09-01T08:50:32Z</time>
      </trkpt>
      <trkpt lat="39.690087" lon="3.356040">
        <ele>122.917</ele>
        <time>2021-09-01T08:50:33Z</time>
      </trkpt>
      <trkpt lat="39.690081" lon="3.356104">
        <ele>122.851</ele>
        <time>2021-09-01T08:50:34Z</time>
      </trkpt>
      <trkpt lat="39.690069" lon="3.356164">
        <ele>122.776</ele>
        <time>2021-09-01T08:50:35Z</time>
      </trkpt>
      <trkpt lat="39.690063" lon="3.356230">
        <ele>122.640</ele>
        <time>2021-09-01T08:50:36Z</time>
      </trkpt>
      <trkpt lat="39.690055" lon="3.356297">
        <ele>122.579</ele>
        <time>2021-09-01T08:50:37Z</time>
      </trkpt>
      <trkpt lat="39.690045" lon="3.356364">
        <ele>122.454</ele>
        <time>2021-09-01T08:50:38Z</time>
      </trkpt>
      <trkpt lat="39.690042" lon="3.356427">
        <ele>122.411</ele>
        <time>2021-09-01T08:50:39Z</time>
      </trkpt>
      <trkpt lat="39.690030" lon="3.356490">
        <ele>122.431</ele>
        <time>2021-09-01T08:50:40Z</time>
      </trkpt>
      <trkpt lat="39.690023" lon="3.356555">
        <ele>122.495</ele>
        <time>2021-09-01T08:50:41Z</time>
      </trkpt>
      <trkpt lat="39.690015" lon="3.356623">
        <ele>122.349</ele>
        <time>2021-09-01T08:50:42Z</time>
      </trkpt>
      <trkpt lat="39.690009" lon="3.356691">
        <ele>122.323</ele>
        <time>2021-09-01T08:50:43Z</time>
      </trkpt>
      <trkpt lat="39.690001" lon="3.356758">
        <ele>122.208</ele>
        <time>2021-09-01T08:50:44Z</time>
      </trkpt>
      <trkpt lat="39.689989" lon="3.356826">
        <ele>122.147</ele>
        <time>2021-09-01T08:50:45Z</time>
      </trkpt>
      <trkpt lat="39.689983" lon="3.356891">
        <ele>122.081</ele>
        <time>2021-09-01T08:50:46Z</time>
      </trkpt>
      <trkpt lat="39.689971" lon="3.356951">
        <ele>121.836</ele>
        <time>2021-09-01T08:50:47Z</time>
      </trkpt>
      <trkpt lat="39.689962" lon="3.357017">
        <ele>121.770</ele>
        <time>2021-09-01T08:50:48Z</time>
      </trkpt>
      <trkpt lat="39.689954" lon="3.357086">
        <ele>121.769</ele>
        <time>2021-09-01T08:50:49Z</time>
      </trkpt>
      <trkpt lat="39.689947" lon="3.357155">
        <ele>121.724</ele>
        <time>2021-09-01T08:50:50Z</time>
      </trkpt>
      <trkpt lat="39.689943" lon="3.357221">
        <ele>121.621</ele>
        <time>2021-09-01T08:50:51Z</time>
      </trkpt>
      <trkpt lat="39.689940" lon="3.357291">
        <ele>121.691</ele>
        <time>2021-09-01T08:50:52Z</time>
      </trkpt>
      <trkpt lat="39.689933" lon="3.357350">
        <ele>121.696</ele>
        <time>2021-09-01T08:50:53Z</time>
      </trkpt>
      <trkpt lat="39.689929" lon="3.357414">
        <ele>121.531</ele>
        <time>2021-09-01T08:50:54Z</time>
      </trkpt>
      <trkpt lat="39.689922" lon="3.357482">
        <ele>121.524</ele>
        <time>2021-09-01T08:50:55Z</time>
      </trkpt>
      <trkpt lat="39.689917" lon="3.357544">
        <ele>121.508</ele>
        <time>2021-09-01T08:50:56Z</time>
      </trkpt>
      <trkpt lat="39.689908" lon="3.357612">
        <ele>121.557</ele>
        <time>2021-09-01T08:50:57Z</time>
      </trkpt>
      <trkpt lat="39.689898" lon="3.357671">
        <ele>121.421</ele>
        <time>2021-09-01T08:50:58Z</time>
      </trkpt>
      <trkpt lat="39.689890" lon="3.357741">
        <ele>121.456</ele>
        <time>2021-09-01T08:50:59Z</time>
      </trkpt>
      <trkpt lat="39.689883" lon="3.357805">
        <ele>121.330</ele>
        <time>2021-09-01T08:51:00Z</time>
      </trkpt>
      <trkpt lat="39.689877" lon="3.357872">
        <ele>121.119</ele>
        <time>2021-09-01T08:51:01Z</time>
      </trkpt>
      <trkpt lat="39.689876" lon="3.357933">
        <ele>121.094</ele>
        <time>2021-09-01T08:51:02Z</time>
      </trkpt>
      <trkpt lat="39.689869" lon="3.357997">
        <ele>121.091</ele>
        <time>2021-09-01T08:51:03Z</time>
      </trkpt>
      <trkpt lat="39.689860" lon="3.358066">
        <ele>121.051</ele>
        <time>2021-09-01T08:51:04Z</time>
      </trkpt>
      <trkpt lat="39.689857" lon="3.358130">
        <ele>121.037</ele>
        <time>2021-09-01T08:51:05Z</time>
      </trkpt>
      <trkpt lat="39.689850" lon="3.358190">
        <ele>121.049</ele>
        <time>2021-09-01T08:51:06Z</time>
      </trkpt>
      <trkpt lat="39.689843" lon="3.358256">
        <ele>121.013</ele>
        <time>2021-09-01T08:51:07Z</time>
      </trkpt>
      <trkpt lat="39.689833" lon="3.358327">
        <ele>120.908</ele>
        <time>2021-09-01T08:51:08Z</time>
      </trkpt>
      <trkpt lat="39.689824" lon="3.358392">
        <ele>120.741</ele>
        <time>2021-09-01T08:51:09Z</time>
      </trkpt>
      <trkpt lat="39.689816" lon="3.358465">
        <ele>120.635</ele>
        <time>2021-09-01T08:51:10Z</time>
      </trkpt>
      <trkpt lat="39.689807" lon="3.358530">
        <ele>120.550</ele>
        <time>2021-09-01T08:51:11Z</time>
      </trkpt>
      <trkpt lat="39.689800" lon="3.358598">
        <ele>120.424</ele>
        <time>2021-09-01T08:51:12Z</time>
      </trkpt>
      <trkpt lat="39.689790" lon="3.358658">
        <ele>120.333</ele>
        <time>2021-09-01T08:51:13Z</time>
      </trkpt>
      <trkpt lat="39.689778" lon="3.358724">
        <ele>120.368</ele>
        <time>2021-09-01T08:51:14Z</time>
      </trkpt>
      <trkpt lat="39.689770" lon="3.358797">
        <ele>120.265</ele>
        <time>2021-09-01T08:51:15Z</time>
      </trkpt>
      <trkpt lat="39.689762" lon="3.358867">
        <ele>120.125</ele>
        <time>2021-09-01T08:51:16Z</time>
      </trkpt>
      <trkpt lat="39.689741" lon="3.358998">
        <ele>119.963</ele>
        <time>2021-09-01T08:51:18Z</time>
      </trkpt>
      <trkpt lat="39.689735" lon="3.359068">
        <ele>119.944</ele>
        <time>2021-09-01T08:51:19Z</time>
      </trkpt>
      <trkpt lat="39.689727" lon="3.359137">
        <ele>119.818</ele>
        <time>2021-09-01T08:51:20Z</time>
      </trkpt>
      <trkpt lat="39.689723" lon="3.359207">
        <ele>119.808</ele>
        <time>2021-09-01T08:51:21Z</time>
      </trkpt>
      <trkpt lat="39.689718" lon="3.359272">
        <ele>119.884</ele>
        <time>2021-09-01T08:51:22Z</time>
      </trkpt>
      <trkpt lat="39.689711" lon="3.359341">
        <ele>119.838</ele>
        <time>2021-09-01T08:51:23Z</time>
      </trkpt>
      <trkpt lat="39.689700" lon="3.359406">
        <ele>119.763</ele>
        <time>2021-09-01T08:51:24Z</time>
      </trkpt>
      <trkpt lat="39.689688" lon="3.359477">
        <ele>119.717</ele>
        <time>2021-09-01T08:51:25Z</time>
      </trkpt>
      <trkpt lat="39.689684" lon="3.359542">
        <ele>119.716</ele>
        <time>2021-09-01T08:51:26Z</time>
      </trkpt>
      <trkpt lat="39.689675" lon="3.359611">
        <ele>119.721</ele>
        <time>2021-09-01T08:51:27Z</time>
      </trkpt>
      <trkpt lat="39.689669" lon="3.359677">
        <ele>119.798</ele>
        <time>2021-09-01T08:51:28Z</time>
      </trkpt>
      <trkpt lat="39.689659" lon="3.359740">
        <ele>119.728</ele>
        <time>2021-09-01T08:51:29Z</time>
      </trkpt>
      <trkpt lat="39.689649" lon="3.359808">
        <ele>119.552</ele>
        <time>2021-09-01T08:51:30Z</time>
      </trkpt>
      <trkpt lat="39.689638" lon="3.359878">
        <ele>119.453</ele>
        <time>2021-09-01T08:51:31Z</time>
      </trkpt>
      <trkpt lat="39.689630" lon="3.359949">
        <ele>119.408</ele>
        <time>2021-09-01T08:51:32Z</time>
      </trkpt>
      <trkpt lat="39.689620" lon="3.360021">
        <ele>119.108</ele>
        <time>2021-09-01T08:51:33Z</time>
      </trkpt>
      <trkpt lat="39.689611" lon="3.360082">
        <ele>119.093</ele>
        <time>2021-09-01T08:51:34Z</time>
      </trkpt>
      <trkpt lat="39.689600" lon="3.360152">
        <ele>119.067</ele>
        <time>2021-09-01T08:51:35Z</time>
      </trkpt>
      <trkpt lat="39.689590" lon="3.360220">
        <ele>118.932</ele>
        <time>2021-09-01T08:51:36Z</time>
      </trkpt>
      <trkpt lat="39.689580" lon="3.360290">
        <ele>118.826</ele>
        <time>2021-09-01T08:51:37Z</time>
      </trkpt>
      <trkpt lat="39.689569" lon="3.360356">
        <ele>118.845</ele>
        <time>2021-09-01T08:51:38Z</time>
      </trkpt>
      <trkpt lat="39.689556" lon="3.360424">
        <ele>118.720</ele>
        <time>2021-09-01T08:51:39Z</time>
      </trkpt>
      <trkpt lat="39.689546" lon="3.360491">
        <ele>118.767</ele>
        <time>2021-09-01T08:51:40Z</time>
      </trkpt>
      <trkpt lat="39.689537" lon="3.360557">
        <ele>118.637</ele>
        <time>2021-09-01T08:51:41Z</time>
      </trkpt>
      <trkpt lat="39.689524" lon="3.360622">
        <ele>118.574</ele>
        <time>2021-09-01T08:51:42Z</time>
      </trkpt>
      <trkpt lat="39.689508" lon="3.360684">
        <ele>118.456</ele>
        <time>2021-09-01T08:51:43Z</time>
      </trkpt>
      <trkpt lat="39.689491" lon="3.360751">
        <ele>118.421</ele>
        <time>2021-09-01T08:51:44Z</time>
      </trkpt>
      <trkpt lat="39.689476" lon="3.360817">
        <ele>118.308</ele>
        <time>2021-09-01T08:51:45Z</time>
      </trkpt>
      <trkpt lat="39.689462" lon="3.360887">
        <ele>118.185</ele>
        <time>2021-09-01T08:51:46Z</time>
      </trkpt>
      <trkpt lat="39.689450" lon="3.360953">
        <ele>118.189</ele>
        <time>2021-09-01T08:51:47Z</time>
      </trkpt>
      <trkpt lat="39.689436" lon="3.361022">
        <ele>117.964</ele>
        <time>2021-09-01T08:51:48Z</time>
      </trkpt>
      <trkpt lat="39.689421" lon="3.361091">
        <ele>117.718</ele>
        <time>2021-09-01T08:51:49Z</time>
      </trkpt>
      <trkpt lat="39.689406" lon="3.361156">
        <ele>117.697</ele>
        <time>2021-09-01T08:51:50Z</time>
      </trkpt>
      <trkpt lat="39.689388" lon="3.361222">
        <ele>117.632</ele>
        <time>2021-09-01T08:51:51Z</time>
      </trkpt>
      <trkpt lat="39.689371" lon="3.361289">
        <ele>117.699</ele>
        <time>2021-09-01T08:51:52Z</time>
      </trkpt>
      <trkpt lat="39.689355" lon="3.361359">
        <ele>117.679</ele>
        <time>2021-09-01T08:51:53Z</time>
      </trkpt>
      <trkpt lat="39.689337" lon="3.361427">
        <ele>117.628</ele>
        <time>2021-09-01T08:51:54Z</time>
      </trkpt>
      <trkpt lat="39.689322" lon="3.361485">
        <ele>117.689</ele>
        <time>2021-09-01T08:51:55Z</time>
      </trkpt>
      <trkpt lat="39.689308" lon="3.361549">
        <ele>117.517</ele>
        <time>2021-09-01T08:51:56Z</time>
      </trkpt>
      <trkpt lat="39.689291" lon="3.361613">
        <ele>117.408</ele>
        <time>2021-09-01T08:51:57Z</time>
      </trkpt>
      <trkpt lat="39.689276" lon="3.361679">
        <ele>117.410</ele>
        <time>2021-09-01T08:51:58Z</time>
      </trkpt>
      <trkpt lat="39.689256" lon="3.361740">
        <ele>117.424</ele>
        <time>2021-09-01T08:51:59Z</time>
      </trkpt>
      <trkpt lat="39.689240" lon="3.361805">
        <ele>117.389</ele>
        <time>2021-09-01T08:52:00Z</time>
      </trkpt>
      <trkpt lat="39.689214" lon="3.361876">
        <ele>117.213</ele>
        <time>2021-09-01T08:52:01Z</time>
      </trkpt>
      <trkpt lat="39.689189" lon="3.361935">
        <ele>117.222</ele>
        <time>2021-09-01T08:52:02Z</time>
      </trkpt>
      <trkpt lat="39.689164" lon="3.361997">
        <ele>117.177</ele>
        <time>2021-09-01T08:52:03Z</time>
      </trkpt>
      <trkpt lat="39.689145" lon="3.362057">
        <ele>117.074</ele>
        <time>2021-09-01T08:52:04Z</time>
      </trkpt>
      <trkpt lat="39.689128" lon="3.362118">
        <ele>116.924</ele>
        <time>2021-09-01T08:52:05Z</time>
      </trkpt>
      <trkpt lat="39.689107" lon="3.362181">
        <ele>116.939</ele>
        <time>2021-09-01T08:52:06Z</time>
      </trkpt>
      <trkpt lat="39.689092" lon="3.362242">
        <ele>116.801</ele>
        <time>2021-09-01T08:52:07Z</time>
      </trkpt>
      <trkpt lat="39.689060" lon="3.362346">
        <ele>116.521</ele>
        <time>2021-09-01T08:52:09Z</time>
      </trkpt>
      <trkpt lat="39.689039" lon="3.362410">
        <ele>116.408</ele>
        <time>2021-09-01T08:52:10Z</time>
      </trkpt>
      <trkpt lat="39.689020" lon="3.362464">
        <ele>116.381</ele>
        <time>2021-09-01T08:52:11Z</time>
      </trkpt>
      <trkpt lat="39.688996" lon="3.362514">
        <ele>116.215</ele>
        <time>2021-09-01T08:52:12Z</time>
      </trkpt>
      <trkpt lat="39.688973" lon="3.362601">
        <ele>116.280</ele>
        <time>2021-09-01T08:52:14Z</time>
      </trkpt>
      <trkpt lat="39.688945" lon="3.362690">
        <ele>116.054</ele>
        <time>2021-09-01T08:52:16Z</time>
      </trkpt>
      <trkpt lat="39.688907" lon="3.362774">
        <ele>115.853</ele>
        <time>2021-09-01T08:52:18Z</time>
      </trkpt>
      <trkpt lat="39.688856" lon="3.362873">
        <ele>115.418</ele>
        <time>2021-09-01T08:52:20Z</time>
      </trkpt>
      <trkpt lat="39.688836" lon="3.362926">
        <ele>115.375</ele>
        <time>2021-09-01T08:52:21Z</time>
      </trkpt>
      <trkpt lat="39.688815" lon="3.362982">
        <ele>115.395</ele>
        <time>2021-09-01T08:52:22Z</time>
      </trkpt>
      <trkpt lat="39.688790" lon="3.363036">
        <ele>115.381</ele>
        <time>2021-09-01T08:52:23Z</time>
      </trkpt>
      <trkpt lat="39.688764" lon="3.363094">
        <ele>115.361</ele>
        <time>2021-09-01T08:52:24Z</time>
      </trkpt>
      <trkpt lat="39.688738" lon="3.363151">
        <ele>115.417</ele>
        <time>2021-09-01T08:52:25Z</time>
      </trkpt>
      <trkpt lat="39.688712" lon="3.363213">
        <ele>115.508</ele>
        <time>2021-09-01T08:52:26Z</time>
      </trkpt>
      <trkpt lat="39.688687" lon="3.363263">
        <ele>115.576</ele>
        <time>2021-09-01T08:52:27Z</time>
      </trkpt>
      <trkpt lat="39.688660" lon="3.363316">
        <ele>115.560</ele>
        <time>2021-09-01T08:52:28Z</time>
      </trkpt>
      <trkpt lat="39.688634" lon="3.363371">
        <ele>115.475</ele>
        <time>2021-09-01T08:52:29Z</time>
      </trkpt>
      <trkpt lat="39.688587" lon="3.363454">
        <ele>115.029</ele>
        <time>2021-09-01T08:52:31Z</time>
      </trkpt>
      <trkpt lat="39.688542" lon="3.363533">
        <ele>114.738</ele>
        <time>2021-09-01T08:52:33Z</time>
      </trkpt>
      <trkpt lat="39.688487" lon="3.363603">
        <ele>114.553</ele>
        <time>2021-09-01T08:52:35Z</time>
      </trkpt>
      <trkpt lat="39.688437" lon="3.363643">
        <ele>114.340</ele>
        <time>2021-09-01T08:52:37Z</time>
      </trkpt>
      <trkpt lat="39.688419" lon="3.363707">
        <ele>114.080</ele>
        <time>2021-09-01T08:52:39Z</time>
      </trkpt>
      <trkpt lat="39.688401" lon="3.363761">
        <ele>113.937</ele>
        <time>2021-09-01T08:52:41Z</time>
      </trkpt>
      <trkpt lat="39.688376" lon="3.363845">
        <ele>114.149</ele>
        <time>2021-09-01T08:52:44Z</time>
      </trkpt>
      <trkpt lat="39.688369" lon="3.363906">
        <ele>114.213</ele>
        <time>2021-09-01T08:52:46Z</time>
      </trkpt>
      <trkpt lat="39.688323" lon="3.363953">
        <ele>114.308</ele>
        <time>2021-09-01T08:52:48Z</time>
      </trkpt>
      <trkpt lat="39.688273" lon="3.364006">
        <ele>114.291</ele>
        <time>2021-09-01T08:52:50Z</time>
      </trkpt>
      <trkpt lat="39.688244" lon="3.364088">
        <ele>114.155</ele>
        <time>2021-09-01T08:52:52Z</time>
      </trkpt>
      <trkpt lat="39.688218" lon="3.364161">
        <ele>114.060</ele>
        <time>2021-09-01T08:52:54Z</time>
      </trkpt>
      <trkpt lat="39.688164" lon="3.364228">
        <ele>113.974</ele>
        <time>2021-09-01T08:52:56Z</time>
      </trkpt>
      <trkpt lat="39.688110" lon="3.364305">
        <ele>113.873</ele>
        <time>2021-09-01T08:52:58Z</time>
      </trkpt>
      <trkpt lat="39.688065" lon="3.364393">
        <ele>113.768</ele>
        <time>2021-09-01T08:53:00Z</time>
      </trkpt>
      <trkpt lat="39.688034" lon="3.364438">
        <ele>113.775</ele>
        <time>2021-09-01T08:53:01Z</time>
      </trkpt>
      <trkpt lat="39.687986" lon="3.364541">
        <ele>113.765</ele>
        <time>2021-09-01T08:53:03Z</time>
      </trkpt>
      <trkpt lat="39.687927" lon="3.364625">
        <ele>113.791</ele>
        <time>2021-09-01T08:53:05Z</time>
      </trkpt>
      <trkpt lat="39.687895" lon="3.364666">
        <ele>113.681</ele>
        <time>2021-09-01T08:53:06Z</time>
      </trkpt>
      <trkpt lat="39.687859" lon="3.364709">
        <ele>113.619</ele>
        <time>2021-09-01T08:53:07Z</time>
      </trkpt>
      <trkpt lat="39.687824" lon="3.364752">
        <ele>113.508</ele>
        <time>2021-09-01T08:53:08Z</time>
      </trkpt>
      <trkpt lat="39.687761" lon="3.364830">
        <ele>113.387</ele>
        <time>2021-09-01T08:53:10Z</time>
      </trkpt>
      <trkpt lat="39.687730" lon="3.364876">
        <ele>113.361</ele>
        <time>2021-09-01T08:53:11Z</time>
      </trkpt>
      <trkpt lat="39.687672" lon="3.364956">
        <ele>113.456</ele>
        <time>2021-09-01T08:53:13Z</time>
      </trkpt>
      <trkpt lat="39.687640" lon="3.365001">
        <ele>113.440</ele>
        <time>2021-09-01T08:53:14Z</time>
      </trkpt>
      <trkpt lat="39.687592" lon="3.365100">
        <ele>113.439</ele>
        <time>2021-09-01T08:53:16Z</time>
      </trkpt>
      <trkpt lat="39.687569" lon="3.365154">
        <ele>113.354</ele>
        <time>2021-09-01T08:53:17Z</time>
      </trkpt>
      <trkpt lat="39.687542" lon="3.365208">
        <ele>113.281</ele>
        <time>2021-09-01T08:53:18Z</time>
      </trkpt>
      <trkpt lat="39.687504" lon="3.365315">
        <ele>112.951</ele>
        <time>2021-09-01T08:53:20Z</time>
      </trkpt>
      <trkpt lat="39.687477" lon="3.365367">
        <ele>112.773</ele>
        <time>2021-09-01T08:53:21Z</time>
      </trkpt>
      <trkpt lat="39.687458" lon="3.365427">
        <ele>112.685</ele>
        <time>2021-09-01T08:53:22Z</time>
      </trkpt>
      <trkpt lat="39.687431" lon="3.365489">
        <ele>112.513</ele>
        <time>2021-09-01T08:53:23Z</time>
      </trkpt>
      <trkpt lat="39.687398" lon="3.365548">
        <ele>112.408</ele>
        <time>2021-09-01T08:53:24Z</time>
      </trkpt>
      <trkpt lat="39.687366" lon="3.365608">
        <ele>112.395</ele>
        <time>2021-09-01T08:53:25Z</time>
      </trkpt>
      <trkpt lat="39.687331" lon="3.365662">
        <ele>112.229</ele>
        <time>2021-09-01T08:53:26Z</time>
      </trkpt>
      <trkpt lat="39.687300" lon="3.365725">
        <ele>112.034</ele>
        <time>2021-09-01T08:53:27Z</time>
      </trkpt>
      <trkpt lat="39.687266" lon="3.365787">
        <ele>112.058</ele>
        <time>2021-09-01T08:53:28Z</time>
      </trkpt>
      <trkpt lat="39.687234" lon="3.365842">
        <ele>111.897</ele>
        <time>2021-09-01T08:53:29Z</time>
      </trkpt>
      <trkpt lat="39.687206" lon="3.365900">
        <ele>111.722</ele>
        <time>2021-09-01T08:53:30Z</time>
      </trkpt>
      <trkpt lat="39.687176" lon="3.365950">
        <ele>111.689</ele>
        <time>2021-09-01T08:53:31Z</time>
      </trkpt>
      <trkpt lat="39.687145" lon="3.366006">
        <ele>111.549</ele>
        <time>2021-09-01T08:53:32Z</time>
      </trkpt>
      <trkpt lat="39.687112" lon="3.366057">
        <ele>111.343</ele>
        <time>2021-09-01T08:53:33Z</time>
      </trkpt>
      <trkpt lat="39.687083" lon="3.366110">
        <ele>111.264</ele>
        <time>2021-09-01T08:53:34Z</time>
      </trkpt>
      <trkpt lat="39.687060" lon="3.366166">
        <ele>111.110</ele>
        <time>2021-09-01T08:53:35Z</time>
      </trkpt>
      <trkpt lat="39.687025" lon="3.366223">
        <ele>111.008</ele>
        <time>2021-09-01T08:53:36Z</time>
      </trkpt>
      <trkpt lat="39.686990" lon="3.366280">
        <ele>110.932</ele>
        <time>2021-09-01T08:53:37Z</time>
      </trkpt>
      <trkpt lat="39.686955" lon="3.366339">
        <ele>110.816</ele>
        <time>2021-09-01T08:53:38Z</time>
      </trkpt>
      <trkpt lat="39.686925" lon="3.366393">
        <ele>110.781</ele>
        <time>2021-09-01T08:53:39Z</time>
      </trkpt>
      <trkpt lat="39.686887" lon="3.366452">
        <ele>110.715</ele>
        <time>2021-09-01T08:53:40Z</time>
      </trkpt>
      <trkpt lat="39.686858" lon="3.366508">
        <ele>110.724</ele>
        <time>2021-09-01T08:53:41Z</time>
      </trkpt>
      <trkpt lat="39.686828" lon="3.366560">
        <ele>110.789</ele>
        <time>2021-09-01T08:53:42Z</time>
      </trkpt>
      <trkpt lat="39.686798" lon="3.366614">
        <ele>110.776</ele>
        <time>2021-09-01T08:53:43Z</time>
      </trkpt>
      <trkpt lat="39.686767" lon="3.366667">
        <ele>110.736</ele>
        <time>2021-09-01T08:53:44Z</time>
      </trkpt>
      <trkpt lat="39.686739" lon="3.366724">
        <ele>110.613</ele>
        <time>2021-09-01T08:53:45Z</time>
      </trkpt>
      <trkpt lat="39.686705" lon="3.366775">
        <ele>110.643</ele>
        <time>2021-09-01T08:53:46Z</time>
      </trkpt>
      <trkpt lat="39.686671" lon="3.366828">
        <ele>110.607</ele>
        <time>2021-09-01T08:53:47Z</time>
      </trkpt>
      <trkpt lat="39.686640" lon="3.366879">
        <ele>110.608</ele>
        <time>2021-09-01T08:53:48Z</time>
      </trkpt>
      <trkpt lat="39.686610" lon="3.366930">
        <ele>110.789</ele>
        <time>2021-09-01T08:53:49Z</time>
      </trkpt>
      <trkpt lat="39.686580" lon="3.366985">
        <ele>110.743</ele>
        <time>2021-09-01T08:53:50Z</time>
      </trkpt>
      <trkpt lat="39.686545" lon="3.367032">
        <ele>110.788</ele>
        <time>2021-09-01T08:53:51Z</time>
      </trkpt>
      <trkpt lat="39.686513" lon="3.367079">
        <ele>110.752</ele>
        <time>2021-09-01T08:53:52Z</time>
      </trkpt>
      <trkpt lat="39.686482" lon="3.367130">
        <ele>110.641</ele>
        <time>2021-09-01T08:53:53Z</time>
      </trkpt>
      <trkpt lat="39.686451" lon="3.367187">
        <ele>110.596</ele>
        <time>2021-09-01T08:53:54Z</time>
      </trkpt>
      <trkpt lat="39.686420" lon="3.367246">
        <ele>110.583</ele>
        <time>2021-09-01T08:53:55Z</time>
      </trkpt>
      <trkpt lat="39.686386" lon="3.367297">
        <ele>110.563</ele>
        <time>2021-09-01T08:53:56Z</time>
      </trkpt>
      <trkpt lat="39.686356" lon="3.367352">
        <ele>110.523</ele>
        <time>2021-09-01T08:53:57Z</time>
      </trkpt>
      <trkpt lat="39.686331" lon="3.367405">
        <ele>110.683</ele>
        <time>2021-09-01T08:53:58Z</time>
      </trkpt>
      <trkpt lat="39.686294" lon="3.367461">
        <ele>110.611</ele>
        <time>2021-09-01T08:53:59Z</time>
      </trkpt>
      <trkpt lat="39.686265" lon="3.367515">
        <ele>110.608</ele>
        <time>2021-09-01T08:54:00Z</time>
      </trkpt>
      <trkpt lat="39.686231" lon="3.367560">
        <ele>110.570</ele>
        <time>2021-09-01T08:54:01Z</time>
      </trkpt>
      <trkpt lat="39.686197" lon="3.367614">
        <ele>110.494</ele>
        <time>2021-09-01T08:54:02Z</time>
      </trkpt>
      <trkpt lat="39.686164" lon="3.367666">
        <ele>110.229</ele>
        <time>2021-09-01T08:54:03Z</time>
      </trkpt>
      <trkpt lat="39.686134" lon="3.367718">
        <ele>110.163</ele>
        <time>2021-09-01T08:54:04Z</time>
      </trkpt>
      <trkpt lat="39.686105" lon="3.367771">
        <ele>110.082</ele>
        <time>2021-09-01T08:54:05Z</time>
      </trkpt>
      <trkpt lat="39.686072" lon="3.367822">
        <ele>109.977</ele>
        <time>2021-09-01T08:54:06Z</time>
      </trkpt>
      <trkpt lat="39.686037" lon="3.367873">
        <ele>109.864</ele>
        <time>2021-09-01T08:54:07Z</time>
      </trkpt>
      <trkpt lat="39.686004" lon="3.367925">
        <ele>109.624</ele>
        <time>2021-09-01T08:54:08Z</time>
      </trkpt>
      <trkpt lat="39.685974" lon="3.367974">
        <ele>109.579</ele>
        <time>2021-09-01T08:54:09Z</time>
      </trkpt>
      <trkpt lat="39.685942" lon="3.368015">
        <ele>109.305</ele>
        <time>2021-09-01T08:54:10Z</time>
      </trkpt>
      <trkpt lat="39.685907" lon="3.368061">
        <ele>109.225</ele>
        <time>2021-09-01T08:54:11Z</time>
      </trkpt>
      <trkpt lat="39.685873" lon="3.368110">
        <ele>109.108</ele>
        <time>2021-09-01T08:54:12Z</time>
      </trkpt>
      <trkpt lat="39.685838" lon="3.368150">
        <ele>108.975</ele>
        <time>2021-09-01T08:54:13Z</time>
      </trkpt>
      <trkpt lat="39.685807" lon="3.368194">
        <ele>108.789</ele>
        <time>2021-09-01T08:54:14Z</time>
      </trkpt>
      <trkpt lat="39.685775" lon="3.368238">
        <ele>108.764</ele>
        <time>2021-09-01T08:54:15Z</time>
      </trkpt>
      <trkpt lat="39.685740" lon="3.368283">
        <ele>108.648</ele>
        <time>2021-09-01T08:54:16Z</time>
      </trkpt>
      <trkpt lat="39.685672" lon="3.368371">
        <ele>108.677</ele>
        <time>2021-09-01T08:54:18Z</time>
      </trkpt>
      <trkpt lat="39.685637" lon="3.368418">
        <ele>108.682</ele>
        <time>2021-09-01T08:54:19Z</time>
      </trkpt>
      <trkpt lat="39.685600" lon="3.368465">
        <ele>108.629</ele>
        <time>2021-09-01T08:54:20Z</time>
      </trkpt>
      <trkpt lat="39.685566" lon="3.368511">
        <ele>108.549</ele>
        <time>2021-09-01T08:54:21Z</time>
      </trkpt>
      <trkpt lat="39.685528" lon="3.368559">
        <ele>108.442</ele>
        <time>2021-09-01T08:54:22Z</time>
      </trkpt>
      <trkpt lat="39.685490" lon="3.368603">
        <ele>108.422</ele>
        <time>2021-09-01T08:54:23Z</time>
      </trkpt>
      <trkpt lat="39.685450" lon="3.368655">
        <ele>108.314</ele>
        <time>2021-09-01T08:54:24Z</time>
      </trkpt>
      <trkpt lat="39.685418" lon="3.368703">
        <ele>108.108</ele>
        <time>2021-09-01T08:54:25Z</time>
      </trkpt>
      <trkpt lat="39.685380" lon="3.368750">
        <ele>108.032</ele>
        <time>2021-09-01T08:54:26Z</time>
      </trkpt>
      <trkpt lat="39.685311" lon="3.368835">
        <ele>107.736</ele>
        <time>2021-09-01T08:54:28Z</time>
      </trkpt>
      <trkpt lat="39.685275" lon="3.368874">
        <ele>107.681</ele>
        <time>2021-09-01T08:54:29Z</time>
      </trkpt>
      <trkpt lat="39.685207" lon="3.368942">
        <ele>107.575</ele>
        <time>2021-09-01T08:54:31Z</time>
      </trkpt>
      <trkpt lat="39.685167" lon="3.368987">
        <ele>107.444</ele>
        <time>2021-09-01T08:54:32Z</time>
      </trkpt>
      <trkpt lat="39.685128" lon="3.369033">
        <ele>107.499</ele>
        <time>2021-09-01T08:54:33Z</time>
      </trkpt>
      <trkpt lat="39.685093" lon="3.369084">
        <ele>107.426</ele>
        <time>2021-09-01T08:54:34Z</time>
      </trkpt>
      <trkpt lat="39.685051" lon="3.369131">
        <ele>107.336</ele>
        <time>2021-09-01T08:54:35Z</time>
      </trkpt>
      <trkpt lat="39.685015" lon="3.369178">
        <ele>107.348</ele>
        <time>2021-09-01T08:54:36Z</time>
      </trkpt>
      <trkpt lat="39.684977" lon="3.369222">
        <ele>107.361</ele>
        <time>2021-09-01T08:54:37Z</time>
      </trkpt>
      <trkpt lat="39.684939" lon="3.369263">
        <ele>107.117</ele>
        <time>2021-09-01T08:54:38Z</time>
      </trkpt>
      <trkpt lat="39.684898" lon="3.369308">
        <ele>107.008</ele>
        <time>2021-09-01T08:54:39Z</time>
      </trkpt>
      <trkpt lat="39.684856" lon="3.369353">
        <ele>106.932</ele>
        <time>2021-09-01T08:54:40Z</time>
      </trkpt>
      <trkpt lat="39.684815" lon="3.369399">
        <ele>106.836</ele>
        <time>2021-09-01T08:54:41Z</time>
      </trkpt>
      <trkpt lat="39.684774" lon="3.369444">
        <ele>106.721</ele>
        <time>2021-09-01T08:54:42Z</time>
      </trkpt>
      <trkpt lat="39.684734" lon="3.369492">
        <ele>106.745</ele>
        <time>2021-09-01T08:54:43Z</time>
      </trkpt>
      <trkpt lat="39.684695" lon="3.369539">
        <ele>106.764</ele>
        <time>2021-09-01T08:54:44Z</time>
      </trkpt>
      <trkpt lat="39.684654" lon="3.369589">
        <ele>106.699</ele>
        <time>2021-09-01T08:54:45Z</time>
      </trkpt>
      <trkpt lat="39.684614" lon="3.369637">
        <ele>106.586</ele>
        <time>2021-09-01T08:54:46Z</time>
      </trkpt>
      <trkpt lat="39.684571" lon="3.369686">
        <ele>106.556</ele>
        <time>2021-09-01T08:54:47Z</time>
      </trkpt>
      <trkpt lat="39.684535" lon="3.369735">
        <ele>106.439</ele>
        <time>2021-09-01T08:54:48Z</time>
      </trkpt>
      <trkpt lat="39.684496" lon="3.369780">
        <ele>106.401</ele>
        <time>2021-09-01T08:54:49Z</time>
      </trkpt>
      <trkpt lat="39.684459" lon="3.369830">
        <ele>106.321</ele>
        <time>2021-09-01T08:54:50Z</time>
      </trkpt>
      <trkpt lat="39.684414" lon="3.369879">
        <ele>106.208</ele>
        <time>2021-09-01T08:54:51Z</time>
      </trkpt>
      <trkpt lat="39.684374" lon="3.369927">
        <ele>106.251</ele>
        <time>2021-09-01T08:54:52Z</time>
      </trkpt>
      <trkpt lat="39.684336" lon="3.369976">
        <ele>106.185</ele>
        <time>2021-09-01T08:54:53Z</time>
      </trkpt>
      <trkpt lat="39.684292" lon="3.370024">
        <ele>106.060</ele>
        <time>2021-09-01T08:54:54Z</time>
      </trkpt>
      <trkpt lat="39.684252" lon="3.370072">
        <ele>106.024</ele>
        <time>2021-09-01T08:54:55Z</time>
      </trkpt>
      <trkpt lat="39.684210" lon="3.370117">
        <ele>105.983</ele>
        <time>2021-09-01T08:54:56Z</time>
      </trkpt>
      <trkpt lat="39.684172" lon="3.370163">
        <ele>105.838</ele>
        <time>2021-09-01T08:54:57Z</time>
      </trkpt>
      <trkpt lat="39.684136" lon="3.370205">
        <ele>105.835</ele>
        <time>2021-09-01T08:54:58Z</time>
      </trkpt>
      <trkpt lat="39.684095" lon="3.370253">
        <ele>105.775</ele>
        <time>2021-09-01T08:54:59Z</time>
      </trkpt>
      <trkpt lat="39.684057" lon="3.370301">
        <ele>105.641</ele>
        <time>2021-09-01T08:55:00Z</time>
      </trkpt>
      <trkpt lat="39.684029" lon="3.370348">
        <ele>105.581</ele>
        <time>2021-09-01T08:55:01Z</time>
      </trkpt>
      <trkpt lat="39.683993" lon="3.370394">
        <ele>105.509</ele>
        <time>2021-09-01T08:55:02Z</time>
      </trkpt>
      <trkpt lat="39.683953" lon="3.370439">
        <ele>105.508</ele>
        <time>2021-09-01T08:55:03Z</time>
      </trkpt>
      <trkpt lat="39.683915" lon="3.370482">
        <ele>105.522</ele>
        <time>2021-09-01T08:55:04Z</time>
      </trkpt>
      <trkpt lat="39.683881" lon="3.370526">
        <ele>105.336</ele>
        <time>2021-09-01T08:55:05Z</time>
      </trkpt>
      <trkpt lat="39.683846" lon="3.370569">
        <ele>105.321</ele>
        <time>2021-09-01T08:55:06Z</time>
      </trkpt>
      <trkpt lat="39.683805" lon="3.370616">
        <ele>105.225</ele>
        <time>2021-09-01T08:55:07Z</time>
      </trkpt>
      <trkpt lat="39.683771" lon="3.370660">
        <ele>105.224</ele>
        <time>2021-09-01T08:55:08Z</time>
      </trkpt>
      <trkpt lat="39.683702" lon="3.370739">
        <ele>105.129</ele>
        <time>2021-09-01T08:55:10Z</time>
      </trkpt>
      <trkpt lat="39.683660" lon="3.370784">
        <ele>105.076</ele>
        <time>2021-09-01T08:55:11Z</time>
      </trkpt>
      <trkpt lat="39.683624" lon="3.370826">
        <ele>105.026</ele>
        <time>2021-09-01T08:55:12Z</time>
      </trkpt>
      <trkpt lat="39.683587" lon="3.370871">
        <ele>105.052</ele>
        <time>2021-09-01T08:55:13Z</time>
      </trkpt>
      <trkpt lat="39.683553" lon="3.370913">
        <ele>105.053</ele>
        <time>2021-09-01T08:55:14Z</time>
      </trkpt>
      <trkpt lat="39.683521" lon="3.370960">
        <ele>105.008</ele>
        <time>2021-09-01T08:55:15Z</time>
      </trkpt>
      <trkpt lat="39.683485" lon="3.371001">
        <ele>105.008</ele>
        <time>2021-09-01T08:55:16Z</time>
      </trkpt>
      <trkpt lat="39.683444" lon="3.371043">
        <ele>104.973</ele>
        <time>2021-09-01T08:55:17Z</time>
      </trkpt>
      <trkpt lat="39.683402" lon="3.371084">
        <ele>104.917</ele>
        <time>2021-09-01T08:55:18Z</time>
      </trkpt>
      <trkpt lat="39.683366" lon="3.371130">
        <ele>104.962</ele>
        <time>2021-09-01T08:55:19Z</time>
      </trkpt>
      <trkpt lat="39.683335" lon="3.371177">
        <ele>104.866</ele>
        <time>2021-09-01T08:55:20Z</time>
      </trkpt>
      <trkpt lat="39.683299" lon="3.371227">
        <ele>104.835</ele>
        <time>2021-09-01T08:55:21Z</time>
      </trkpt>
      <trkpt lat="39.683259" lon="3.371274">
        <ele>104.780</ele>
        <time>2021-09-01T08:55:22Z</time>
      </trkpt>
      <trkpt lat="39.683220" lon="3.371320">
        <ele>104.697</ele>
        <time>2021-09-01T08:55:23Z</time>
      </trkpt>
      <trkpt lat="39.683181" lon="3.371362">
        <ele>104.557</ele>
        <time>2021-09-01T08:55:24Z</time>
      </trkpt>
      <trkpt lat="39.683143" lon="3.371407">
        <ele>104.445</ele>
        <time>2021-09-01T08:55:25Z</time>
      </trkpt>
      <trkpt lat="39.683103" lon="3.371453">
        <ele>104.347</ele>
        <time>2021-09-01T08:55:26Z</time>
      </trkpt>
      <trkpt lat="39.683069" lon="3.371504">
        <ele>104.311</ele>
        <time>2021-09-01T08:55:27Z</time>
      </trkpt>
      <trkpt lat="39.683030" lon="3.371545">
        <ele>104.308</ele>
        <time>2021-09-01T08:55:28Z</time>
      </trkpt>
      <trkpt lat="39.682993" lon="3.371592">
        <ele>104.362</ele>
        <time>2021-09-01T08:55:29Z</time>
      </trkpt>
      <trkpt lat="39.682957" lon="3.371639">
        <ele>104.366</ele>
        <time>2021-09-01T08:55:30Z</time>
      </trkpt>
      <trkpt lat="39.682917" lon="3.371682">
        <ele>104.311</ele>
        <time>2021-09-01T08:55:31Z</time>
      </trkpt>
      <trkpt lat="39.682880" lon="3.371727">
        <ele>104.335</ele>
        <time>2021-09-01T08:55:32Z</time>
      </trkpt>
      <trkpt lat="39.682840" lon="3.371770">
        <ele>104.334</ele>
        <time>2021-09-01T08:55:33Z</time>
      </trkpt>
      <trkpt lat="39.682806" lon="3.371810">
        <ele>104.369</ele>
        <time>2021-09-01T08:55:34Z</time>
      </trkpt>
      <trkpt lat="39.682770" lon="3.371846">
        <ele>104.346</ele>
        <time>2021-09-01T08:55:35Z</time>
      </trkpt>
      <trkpt lat="39.682731" lon="3.371893">
        <ele>104.456</ele>
        <time>2021-09-01T08:55:36Z</time>
      </trkpt>
      <trkpt lat="39.682700" lon="3.371944">
        <ele>104.446</ele>
        <time>2021-09-01T08:55:37Z</time>
      </trkpt>
      <trkpt lat="39.682665" lon="3.371993">
        <ele>104.488</ele>
        <time>2021-09-01T08:55:38Z</time>
      </trkpt>
      <trkpt lat="39.682628" lon="3.372038">
        <ele>104.516</ele>
        <time>2021-09-01T08:55:39Z</time>
      </trkpt>
      <trkpt lat="39.682593" lon="3.372077">
        <ele>104.508</ele>
        <time>2021-09-01T08:55:40Z</time>
      </trkpt>
      <trkpt lat="39.682555" lon="3.372112">
        <ele>104.542</ele>
        <time>2021-09-01T08:55:41Z</time>
      </trkpt>
      <trkpt lat="39.682509" lon="3.372152">
        <ele>104.696</ele>
        <time>2021-09-01T08:55:42Z</time>
      </trkpt>
      <trkpt lat="39.682472" lon="3.372196">
        <ele>104.711</ele>
        <time>2021-09-01T08:55:43Z</time>
      </trkpt>
      <trkpt lat="39.682436" lon="3.372240">
        <ele>104.775</ele>
        <time>2021-09-01T08:55:44Z</time>
      </trkpt>
      <trkpt lat="39.682405" lon="3.372286">
        <ele>104.784</ele>
        <time>2021-09-01T08:55:45Z</time>
      </trkpt>
      <trkpt lat="39.682374" lon="3.372329">
        <ele>104.749</ele>
        <time>2021-09-01T08:55:46Z</time>
      </trkpt>
      <trkpt lat="39.682307" lon="3.372407">
        <ele>104.766</ele>
        <time>2021-09-01T08:55:48Z</time>
      </trkpt>
      <trkpt lat="39.682235" lon="3.372485">
        <ele>104.796</ele>
        <time>2021-09-01T08:55:50Z</time>
      </trkpt>
      <trkpt lat="39.682163" lon="3.372564">
        <ele>104.753</ele>
        <time>2021-09-01T08:55:52Z</time>
      </trkpt>
      <trkpt lat="39.682126" lon="3.372604">
        <ele>104.604</ele>
        <time>2021-09-01T08:55:53Z</time>
      </trkpt>
      <trkpt lat="39.682092" lon="3.372644">
        <ele>104.514</ele>
        <time>2021-09-01T08:55:54Z</time>
      </trkpt>
      <trkpt lat="39.682053" lon="3.372691">
        <ele>104.408</ele>
        <time>2021-09-01T08:55:55Z</time>
      </trkpt>
      <trkpt lat="39.682018" lon="3.372732">
        <ele>104.373</ele>
        <time>2021-09-01T08:55:56Z</time>
      </trkpt>
      <trkpt lat="39.681983" lon="3.372776">
        <ele>104.327</ele>
        <time>2021-09-01T08:55:57Z</time>
      </trkpt>
      <trkpt lat="39.681942" lon="3.372820">
        <ele>104.232</ele>
        <time>2021-09-01T08:55:58Z</time>
      </trkpt>
      <trkpt lat="39.681904" lon="3.372860">
        <ele>104.286</ele>
        <time>2021-09-01T08:55:59Z</time>
      </trkpt>
      <trkpt lat="39.681860" lon="3.372903">
        <ele>104.215</ele>
        <time>2021-09-01T08:56:00Z</time>
      </trkpt>
      <trkpt lat="39.681818" lon="3.372954">
        <ele>104.230</ele>
        <time>2021-09-01T08:56:01Z</time>
      </trkpt>
      <trkpt lat="39.681784" lon="3.373001">
        <ele>104.237</ele>
        <time>2021-09-01T08:56:02Z</time>
      </trkpt>
      <trkpt lat="39.681748" lon="3.373044">
        <ele>104.227</ele>
        <time>2021-09-01T08:56:03Z</time>
      </trkpt>
      <trkpt lat="39.681712" lon="3.373089">
        <ele>104.271</ele>
        <time>2021-09-01T08:56:04Z</time>
      </trkpt>
      <trkpt lat="39.681674" lon="3.373131">
        <ele>104.241</ele>
        <time>2021-09-01T08:56:05Z</time>
      </trkpt>
      <trkpt lat="39.681638" lon="3.373176">
        <ele>104.215</ele>
        <time>2021-09-01T08:56:06Z</time>
      </trkpt>
      <trkpt lat="39.681579" lon="3.373249">
        <ele>104.108</ele>
        <time>2021-09-01T08:56:08Z</time>
      </trkpt>
      <trkpt lat="39.681512" lon="3.373323">
        <ele>104.265</ele>
        <time>2021-09-01T08:56:10Z</time>
      </trkpt>
      <trkpt lat="39.681477" lon="3.373365">
        <ele>104.299</ele>
        <time>2021-09-01T08:56:11Z</time>
      </trkpt>
      <trkpt lat="39.681409" lon="3.373437">
        <ele>104.374</ele>
        <time>2021-09-01T08:56:13Z</time>
      </trkpt>
      <trkpt lat="39.681374" lon="3.373476">
        <ele>104.398</ele>
        <time>2021-09-01T08:56:14Z</time>
      </trkpt>
      <trkpt lat="39.681338" lon="3.373519">
        <ele>104.387</ele>
        <time>2021-09-01T08:56:15Z</time>
      </trkpt>
      <trkpt lat="39.681270" lon="3.373591">
        <ele>104.212</ele>
        <time>2021-09-01T08:56:17Z</time>
      </trkpt>
      <trkpt lat="39.681206" lon="3.373660">
        <ele>104.149</ele>
        <time>2021-09-01T08:56:19Z</time>
      </trkpt>
      <trkpt lat="39.681166" lon="3.373700">
        <ele>104.169</ele>
        <time>2021-09-01T08:56:20Z</time>
      </trkpt>
      <trkpt lat="39.681110" lon="3.373780">
        <ele>104.095</ele>
        <time>2021-09-01T08:56:22Z</time>
      </trkpt>
      <trkpt lat="39.681044" lon="3.373844">
        <ele>104.049</ele>
        <time>2021-09-01T08:56:24Z</time>
      </trkpt>
      <trkpt lat="39.680980" lon="3.373921">
        <ele>104.023</ele>
        <time>2021-09-01T08:56:26Z</time>
      </trkpt>
      <trkpt lat="39.680911" lon="3.373998">
        <ele>103.808</ele>
        <time>2021-09-01T08:56:28Z</time>
      </trkpt>
      <trkpt lat="39.680852" lon="3.374074">
        <ele>103.877</ele>
        <time>2021-09-01T08:56:30Z</time>
      </trkpt>
      <trkpt lat="39.680782" lon="3.374148">
        <ele>103.841</ele>
        <time>2021-09-01T08:56:32Z</time>
      </trkpt>
      <trkpt lat="39.680725" lon="3.374224">
        <ele>104.196</ele>
        <time>2021-09-01T08:56:34Z</time>
      </trkpt>
      <trkpt lat="39.680662" lon="3.374307">
        <ele>104.210</ele>
        <time>2021-09-01T08:56:36Z</time>
      </trkpt>
      <trkpt lat="39.680596" lon="3.374387">
        <ele>104.369</ele>
        <time>2021-09-01T08:56:38Z</time>
      </trkpt>
      <trkpt lat="39.680561" lon="3.374429">
        <ele>104.324</ele>
        <time>2021-09-01T08:56:39Z</time>
      </trkpt>
      <trkpt lat="39.680527" lon="3.374469">
        <ele>104.371</ele>
        <time>2021-09-01T08:56:40Z</time>
      </trkpt>
      <trkpt lat="39.680492" lon="3.374509">
        <ele>104.481</ele>
        <time>2021-09-01T08:56:41Z</time>
      </trkpt>
      <trkpt lat="39.680425" lon="3.374586">
        <ele>104.463</ele>
        <time>2021-09-01T08:56:43Z</time>
      </trkpt>
      <trkpt lat="39.680393" lon="3.374628">
        <ele>104.544</ele>
        <time>2021-09-01T08:56:44Z</time>
      </trkpt>
      <trkpt lat="39.680359" lon="3.374673">
        <ele>104.618</ele>
        <time>2021-09-01T08:56:45Z</time>
      </trkpt>
      <trkpt lat="39.680326" lon="3.374716">
        <ele>104.608</ele>
        <time>2021-09-01T08:56:46Z</time>
      </trkpt>
      <trkpt lat="39.680291" lon="3.374757">
        <ele>104.734</ele>
        <time>2021-09-01T08:56:47Z</time>
      </trkpt>
      <trkpt lat="39.680256" lon="3.374796">
        <ele>104.788</ele>
        <time>2021-09-01T08:56:48Z</time>
      </trkpt>
      <trkpt lat="39.680220" lon="3.374839">
        <ele>104.643</ele>
        <time>2021-09-01T08:56:49Z</time>
      </trkpt>
      <trkpt lat="39.680154" lon="3.374915">
        <ele>104.617</ele>
        <time>2021-09-01T08:56:51Z</time>
      </trkpt>
      <trkpt lat="39.680119" lon="3.374953">
        <ele>104.696</ele>
        <time>2021-09-01T08:56:52Z</time>
      </trkpt>
      <trkpt lat="39.680086" lon="3.375000">
        <ele>104.721</ele>
        <time>2021-09-01T08:56:53Z</time>
      </trkpt>
      <trkpt lat="39.680020" lon="3.375080">
        <ele>104.788</ele>
        <time>2021-09-01T08:56:55Z</time>
      </trkpt>
      <trkpt lat="39.679956" lon="3.375158">
        <ele>104.858</ele>
        <time>2021-09-01T08:56:57Z</time>
      </trkpt>
      <trkpt lat="39.679890" lon="3.375230">
        <ele>104.913</ele>
        <time>2021-09-01T08:56:59Z</time>
      </trkpt>
      <trkpt lat="39.679836" lon="3.375311">
        <ele>104.943</ele>
        <time>2021-09-01T08:57:01Z</time>
      </trkpt>
      <trkpt lat="39.679771" lon="3.375385">
        <ele>105.007</ele>
        <time>2021-09-01T08:57:03Z</time>
      </trkpt>
      <trkpt lat="39.679710" lon="3.375458">
        <ele>105.008</ele>
        <time>2021-09-01T08:57:05Z</time>
      </trkpt>
      <trkpt lat="39.679641" lon="3.375523">
        <ele>105.169</ele>
        <time>2021-09-01T08:57:07Z</time>
      </trkpt>
      <trkpt lat="39.679588" lon="3.375603">
        <ele>105.263</ele>
        <time>2021-09-01T08:57:09Z</time>
      </trkpt>
      <trkpt lat="39.679528" lon="3.375675">
        <ele>105.238</ele>
        <time>2021-09-01T08:57:11Z</time>
      </trkpt>
      <trkpt lat="39.679462" lon="3.375748">
        <ele>105.332</ele>
        <time>2021-09-01T08:57:13Z</time>
      </trkpt>
      <trkpt lat="39.679398" lon="3.375820">
        <ele>105.391</ele>
        <time>2021-09-01T08:57:15Z</time>
      </trkpt>
      <trkpt lat="39.679333" lon="3.375896">
        <ele>105.496</ele>
        <time>2021-09-01T08:57:17Z</time>
      </trkpt>
      <trkpt lat="39.679270" lon="3.375979">
        <ele>105.673</ele>
        <time>2021-09-01T08:57:19Z</time>
      </trkpt>
      <trkpt lat="39.679208" lon="3.376060">
        <ele>105.663</ele>
        <time>2021-09-01T08:57:21Z</time>
      </trkpt>
      <trkpt lat="39.679151" lon="3.376132">
        <ele>105.792</ele>
        <time>2021-09-01T08:57:23Z</time>
      </trkpt>
      <trkpt lat="39.679088" lon="3.376210">
        <ele>105.773</ele>
        <time>2021-09-01T08:57:25Z</time>
      </trkpt>
      <trkpt lat="39.679026" lon="3.376288">
        <ele>105.820</ele>
        <time>2021-09-01T08:57:27Z</time>
      </trkpt>
      <trkpt lat="39.678966" lon="3.376361">
        <ele>105.908</ele>
        <time>2021-09-01T08:57:29Z</time>
      </trkpt>
      <trkpt lat="39.678900" lon="3.376436">
        <ele>106.017</ele>
        <time>2021-09-01T08:57:31Z</time>
      </trkpt>
      <trkpt lat="39.678833" lon="3.376509">
        <ele>106.181</ele>
        <time>2021-09-01T08:57:33Z</time>
      </trkpt>
      <trkpt lat="39.678772" lon="3.376589">
        <ele>106.126</ele>
        <time>2021-09-01T08:57:35Z</time>
      </trkpt>
      <trkpt lat="39.678710" lon="3.376668">
        <ele>106.270</ele>
        <time>2021-09-01T08:57:37Z</time>
      </trkpt>
      <trkpt lat="39.678649" lon="3.376741">
        <ele>106.429</ele>
        <time>2021-09-01T08:57:39Z</time>
      </trkpt>
      <trkpt lat="39.678586" lon="3.376814">
        <ele>106.474</ele>
        <time>2021-09-01T08:57:41Z</time>
      </trkpt>
      <trkpt lat="39.678553" lon="3.376855">
        <ele>106.471</ele>
        <time>2021-09-01T08:57:42Z</time>
      </trkpt>
      <trkpt lat="39.678489" lon="3.376934">
        <ele>106.481</ele>
        <time>2021-09-01T08:57:44Z</time>
      </trkpt>
      <trkpt lat="39.678419" lon="3.377006">
        <ele>106.489</ele>
        <time>2021-09-01T08:57:46Z</time>
      </trkpt>
      <trkpt lat="39.678355" lon="3.377084">
        <ele>106.606</ele>
        <time>2021-09-01T08:57:48Z</time>
      </trkpt>
      <trkpt lat="39.678301" lon="3.377158">
        <ele>106.726</ele>
        <time>2021-09-01T08:57:50Z</time>
      </trkpt>
      <trkpt lat="39.678265" lon="3.377196">
        <ele>106.808</ele>
        <time>2021-09-01T08:57:51Z</time>
      </trkpt>
      <trkpt lat="39.678200" lon="3.377272">
        <ele>107.076</ele>
        <time>2021-09-01T08:57:53Z</time>
      </trkpt>
      <trkpt lat="39.678166" lon="3.377310">
        <ele>107.080</ele>
        <time>2021-09-01T08:57:54Z</time>
      </trkpt>
      <trkpt lat="39.678100" lon="3.377384">
        <ele>107.335</ele>
        <time>2021-09-01T08:57:56Z</time>
      </trkpt>
      <trkpt lat="39.678040" lon="3.377461">
        <ele>107.319</ele>
        <time>2021-09-01T08:57:58Z</time>
      </trkpt>
      <trkpt lat="39.677980" lon="3.377535">
        <ele>107.458</ele>
        <time>2021-09-01T08:58:00Z</time>
      </trkpt>
      <trkpt lat="39.677913" lon="3.377602">
        <ele>107.483</ele>
        <time>2021-09-01T08:58:02Z</time>
      </trkpt>
      <trkpt lat="39.677853" lon="3.377681">
        <ele>107.540</ele>
        <time>2021-09-01T08:58:04Z</time>
      </trkpt>
      <trkpt lat="39.677821" lon="3.377724">
        <ele>107.610</ele>
        <time>2021-09-01T08:58:05Z</time>
      </trkpt>
      <trkpt lat="39.677758" lon="3.377799">
        <ele>107.783</ele>
        <time>2021-09-01T08:58:07Z</time>
      </trkpt>
      <trkpt lat="39.677726" lon="3.377847">
        <ele>107.825</ele>
        <time>2021-09-01T08:58:08Z</time>
      </trkpt>
      <trkpt lat="39.677662" lon="3.377923">
        <ele>107.817</ele>
        <time>2021-09-01T08:58:10Z</time>
      </trkpt>
      <trkpt lat="39.677607" lon="3.378007">
        <ele>107.908</ele>
        <time>2021-09-01T08:58:12Z</time>
      </trkpt>
      <trkpt lat="39.677536" lon="3.378078">
        <ele>107.916</ele>
        <time>2021-09-01T08:58:14Z</time>
      </trkpt>
      <trkpt lat="39.677503" lon="3.378119">
        <ele>108.070</ele>
        <time>2021-09-01T08:58:15Z</time>
      </trkpt>
      <trkpt lat="39.677441" lon="3.378194">
        <ele>108.095</ele>
        <time>2021-09-01T08:58:17Z</time>
      </trkpt>
      <trkpt lat="39.677404" lon="3.378231">
        <ele>108.119</ele>
        <time>2021-09-01T08:58:18Z</time>
      </trkpt>
      <trkpt lat="39.677338" lon="3.378305">
        <ele>108.288</ele>
        <time>2021-09-01T08:58:20Z</time>
      </trkpt>
      <trkpt lat="39.677272" lon="3.378387">
        <ele>108.483</ele>
        <time>2021-09-01T08:58:22Z</time>
      </trkpt>
      <trkpt lat="39.677208" lon="3.378461">
        <ele>108.870</ele>
        <time>2021-09-01T08:58:24Z</time>
      </trkpt>
      <trkpt lat="39.677152" lon="3.378538">
        <ele>108.920</ele>
        <time>2021-09-01T08:58:26Z</time>
      </trkpt>
      <trkpt lat="39.677091" lon="3.378608">
        <ele>108.748</ele>
        <time>2021-09-01T08:58:28Z</time>
      </trkpt>
      <trkpt lat="39.677030" lon="3.378685">
        <ele>108.761</ele>
        <time>2021-09-01T08:58:30Z</time>
      </trkpt>
      <trkpt lat="39.676968" lon="3.378762">
        <ele>108.617</ele>
        <time>2021-09-01T08:58:32Z</time>
      </trkpt>
      <trkpt lat="39.676935" lon="3.378802">
        <ele>108.808</ele>
        <time>2021-09-01T08:58:33Z</time>
      </trkpt>
      <trkpt lat="39.676900" lon="3.378846">
        <ele>108.912</ele>
        <time>2021-09-01T08:58:34Z</time>
      </trkpt>
      <trkpt lat="39.676843" lon="3.378923">
        <ele>109.026</ele>
        <time>2021-09-01T08:58:36Z</time>
      </trkpt>
      <trkpt lat="39.676781" lon="3.378995">
        <ele>109.161</ele>
        <time>2021-09-01T08:58:38Z</time>
      </trkpt>
      <trkpt lat="39.676747" lon="3.379037">
        <ele>109.135</ele>
        <time>2021-09-01T08:58:39Z</time>
      </trkpt>
      <trkpt lat="39.676676" lon="3.379112">
        <ele>109.324</ele>
        <time>2021-09-01T08:58:41Z</time>
      </trkpt>
      <trkpt lat="39.676615" lon="3.379188">
        <ele>109.419</ele>
        <time>2021-09-01T08:58:43Z</time>
      </trkpt>
      <trkpt lat="39.676554" lon="3.379257">
        <ele>109.576</ele>
        <time>2021-09-01T08:58:45Z</time>
      </trkpt>
      <trkpt lat="39.676484" lon="3.379324">
        <ele>109.896</ele>
        <time>2021-09-01T08:58:47Z</time>
      </trkpt>
      <trkpt lat="39.676430" lon="3.379408">
        <ele>110.062</ele>
        <time>2021-09-01T08:58:49Z</time>
      </trkpt>
      <trkpt lat="39.676365" lon="3.379480">
        <ele>110.083</ele>
        <time>2021-09-01T08:58:51Z</time>
      </trkpt>
      <trkpt lat="39.676298" lon="3.379551">
        <ele>110.011</ele>
        <time>2021-09-01T08:58:53Z</time>
      </trkpt>
      <trkpt lat="39.676233" lon="3.379624">
        <ele>110.108</ele>
        <time>2021-09-01T08:58:55Z</time>
      </trkpt>
      <trkpt lat="39.676166" lon="3.379690">
        <ele>110.414</ele>
        <time>2021-09-01T08:58:57Z</time>
      </trkpt>
      <trkpt lat="39.676103" lon="3.379758">
        <ele>110.638</ele>
        <time>2021-09-01T08:58:59Z</time>
      </trkpt>
      <trkpt lat="39.676045" lon="3.379827">
        <ele>110.613</ele>
        <time>2021-09-01T08:59:01Z</time>
      </trkpt>
      <trkpt lat="39.675981" lon="3.379888">
        <ele>110.527</ele>
        <time>2021-09-01T08:59:03Z</time>
      </trkpt>
      <trkpt lat="39.675916" lon="3.379950">
        <ele>110.556</ele>
        <time>2021-09-01T08:59:05Z</time>
      </trkpt>
      <trkpt lat="39.675853" lon="3.380002">
        <ele>110.671</ele>
        <time>2021-09-01T08:59:07Z</time>
      </trkpt>
      <trkpt lat="39.675783" lon="3.380055">
        <ele>110.728</ele>
        <time>2021-09-01T08:59:09Z</time>
      </trkpt>
      <trkpt lat="39.675740" lon="3.380076">
        <ele>110.778</ele>
        <time>2021-09-01T08:59:10Z</time>
      </trkpt>
      <trkpt lat="39.675697" lon="3.380099">
        <ele>110.773</ele>
        <time>2021-09-01T08:59:11Z</time>
      </trkpt>
      <trkpt lat="39.675624" lon="3.380129">
        <ele>110.785</ele>
        <time>2021-09-01T08:59:13Z</time>
      </trkpt>
      <trkpt lat="39.675583" lon="3.380158">
        <ele>110.813</ele>
        <time>2021-09-01T08:59:14Z</time>
      </trkpt>
      <trkpt lat="39.675541" lon="3.380180">
        <ele>110.808</ele>
        <time>2021-09-01T08:59:15Z</time>
      </trkpt>
      <trkpt lat="39.675498" lon="3.380200">
        <ele>110.885</ele>
        <time>2021-09-01T08:59:16Z</time>
      </trkpt>
      <trkpt lat="39.675425" lon="3.380246">
        <ele>110.939</ele>
        <time>2021-09-01T08:59:18Z</time>
      </trkpt>
      <trkpt lat="39.675346" lon="3.380291">
        <ele>111.244</ele>
        <time>2021-09-01T08:59:20Z</time>
      </trkpt>
      <trkpt lat="39.675265" lon="3.380325">
        <ele>111.488</ele>
        <time>2021-09-01T08:59:22Z</time>
      </trkpt>
      <trkpt lat="39.675183" lon="3.380354">
        <ele>111.487</ele>
        <time>2021-09-01T08:59:24Z</time>
      </trkpt>
      <trkpt lat="39.675101" lon="3.380381">
        <ele>111.482</ele>
        <time>2021-09-01T08:59:26Z</time>
      </trkpt>
      <trkpt lat="39.675054" lon="3.380391">
        <ele>111.449</ele>
        <time>2021-09-01T08:59:27Z</time>
      </trkpt>
      <trkpt lat="39.674974" lon="3.380418">
        <ele>111.369</ele>
        <time>2021-09-01T08:59:29Z</time>
      </trkpt>
      <trkpt lat="39.674892" lon="3.380445">
        <ele>111.341</ele>
        <time>2021-09-01T08:59:31Z</time>
      </trkpt>
      <trkpt lat="39.674811" lon="3.380465">
        <ele>111.481</ele>
        <time>2021-09-01T08:59:33Z</time>
      </trkpt>
      <trkpt lat="39.674723" lon="3.380481">
        <ele>111.509</ele>
        <time>2021-09-01T08:59:35Z</time>
      </trkpt>
      <trkpt lat="39.674675" lon="3.380484">
        <ele>111.508</ele>
        <time>2021-09-01T08:59:36Z</time>
      </trkpt>
      <trkpt lat="39.674629" lon="3.380488">
        <ele>111.552</ele>
        <time>2021-09-01T08:59:37Z</time>
      </trkpt>
      <trkpt lat="39.674584" lon="3.380491">
        <ele>111.536</ele>
        <time>2021-09-01T08:59:38Z</time>
      </trkpt>
      <trkpt lat="39.674538" lon="3.380492">
        <ele>111.551</ele>
        <time>2021-09-01T08:59:39Z</time>
      </trkpt>
      <trkpt lat="39.674492" lon="3.380495">
        <ele>111.555</ele>
        <time>2021-09-01T08:59:40Z</time>
      </trkpt>
      <trkpt lat="39.674445" lon="3.380494">
        <ele>111.574</ele>
        <time>2021-09-01T08:59:41Z</time>
      </trkpt>
      <trkpt lat="39.674397" lon="3.380493">
        <ele>111.539</ele>
        <time>2021-09-01T08:59:42Z</time>
      </trkpt>
      <trkpt lat="39.674351" lon="3.380487">
        <ele>111.636</ele>
        <time>2021-09-01T08:59:43Z</time>
      </trkpt>
      <trkpt lat="39.674305" lon="3.380487">
        <ele>111.626</ele>
        <time>2021-09-01T08:59:44Z</time>
      </trkpt>
      <trkpt lat="39.674259" lon="3.380483">
        <ele>111.789</ele>
        <time>2021-09-01T08:59:45Z</time>
      </trkpt>
      <trkpt lat="39.674173" lon="3.380479">
        <ele>111.906</ele>
        <time>2021-09-01T08:59:47Z</time>
      </trkpt>
      <trkpt lat="39.674086" lon="3.380454">
        <ele>112.026</ele>
        <time>2021-09-01T08:59:49Z</time>
      </trkpt>
      <trkpt lat="39.674039" lon="3.380443">
        <ele>112.108</ele>
        <time>2021-09-01T08:59:50Z</time>
      </trkpt>
      <trkpt lat="39.673992" lon="3.380433">
        <ele>112.166</ele>
        <time>2021-09-01T08:59:51Z</time>
      </trkpt>
      <trkpt lat="39.673947" lon="3.380425">
        <ele>112.190</ele>
        <time>2021-09-01T08:59:52Z</time>
      </trkpt>
      <trkpt lat="39.673862" lon="3.380396">
        <ele>112.215</ele>
        <time>2021-09-01T08:59:54Z</time>
      </trkpt>
      <trkpt lat="39.673775" lon="3.380374">
        <ele>112.369</ele>
        <time>2021-09-01T08:59:56Z</time>
      </trkpt>
      <trkpt lat="39.673690" lon="3.380341">
        <ele>112.448</ele>
        <time>2021-09-01T08:59:58Z</time>
      </trkpt>
      <trkpt lat="39.673605" lon="3.380313">
        <ele>112.453</ele>
        <time>2021-09-01T09:00:00Z</time>
      </trkpt>
      <trkpt lat="39.673521" lon="3.380280">
        <ele>112.530</ele>
        <time>2021-09-01T09:00:02Z</time>
      </trkpt>
      <trkpt lat="39.673477" lon="3.380259">
        <ele>112.670</ele>
        <time>2021-09-01T09:00:03Z</time>
      </trkpt>
      <trkpt lat="39.673433" lon="3.380235">
        <ele>112.645</ele>
        <time>2021-09-01T09:00:04Z</time>
      </trkpt>
      <trkpt lat="39.673345" lon="3.380177">
        <ele>112.647</ele>
        <time>2021-09-01T09:00:06Z</time>
      </trkpt>
      <trkpt lat="39.673300" lon="3.380151">
        <ele>112.711</ele>
        <time>2021-09-01T09:00:07Z</time>
      </trkpt>
      <trkpt lat="39.673226" lon="3.380104">
        <ele>112.708</ele>
        <time>2021-09-01T09:00:09Z</time>
      </trkpt>
      <trkpt lat="39.673186" lon="3.380073">
        <ele>112.852</ele>
        <time>2021-09-01T09:00:10Z</time>
      </trkpt>
      <trkpt lat="39.673145" lon="3.380047">
        <ele>112.876</ele>
        <time>2021-09-01T09:00:11Z</time>
      </trkpt>
      <trkpt lat="39.673107" lon="3.380012">
        <ele>112.811</ele>
        <time>2021-09-01T09:00:12Z</time>
      </trkpt>
      <trkpt lat="39.673069" lon="3.379979">
        <ele>112.965</ele>
        <time>2021-09-01T09:00:13Z</time>
      </trkpt>
      <trkpt lat="39.672999" lon="3.379921">
        <ele>112.954</ele>
        <time>2021-09-01T09:00:15Z</time>
      </trkpt>
      <trkpt lat="39.672932" lon="3.379854">
        <ele>113.149</ele>
        <time>2021-09-01T09:00:17Z</time>
      </trkpt>
      <trkpt lat="39.672893" lon="3.379820">
        <ele>113.286</ele>
        <time>2021-09-01T09:00:18Z</time>
      </trkpt>
      <trkpt lat="39.672827" lon="3.379744">
        <ele>113.326</ele>
        <time>2021-09-01T09:00:20Z</time>
      </trkpt>
      <trkpt lat="39.672752" lon="3.379683">
        <ele>113.395</ele>
        <time>2021-09-01T09:00:22Z</time>
      </trkpt>
      <trkpt lat="39.672714" lon="3.379648">
        <ele>113.449</ele>
        <time>2021-09-01T09:00:23Z</time>
      </trkpt>
      <trkpt lat="39.672677" lon="3.379606">
        <ele>113.423</ele>
        <time>2021-09-01T09:00:24Z</time>
      </trkpt>
      <trkpt lat="39.672604" lon="3.379539">
        <ele>113.408</ele>
        <time>2021-09-01T09:00:26Z</time>
      </trkpt>
      <trkpt lat="39.672564" lon="3.379494">
        <ele>113.427</ele>
        <time>2021-09-01T09:00:27Z</time>
      </trkpt>
      <trkpt lat="39.672525" lon="3.379452">
        <ele>113.531</ele>
        <time>2021-09-01T09:00:28Z</time>
      </trkpt>
      <trkpt lat="39.672488" lon="3.379410">
        <ele>113.586</ele>
        <time>2021-09-01T09:00:29Z</time>
      </trkpt>
      <trkpt lat="39.672411" lon="3.379321">
        <ele>113.460</ele>
        <time>2021-09-01T09:00:31Z</time>
      </trkpt>
      <trkpt lat="39.672371" lon="3.379282">
        <ele>113.459</ele>
        <time>2021-09-01T09:00:32Z</time>
      </trkpt>
      <trkpt lat="39.672335" lon="3.379245">
        <ele>113.474</ele>
        <time>2021-09-01T09:00:33Z</time>
      </trkpt>
      <trkpt lat="39.672297" lon="3.379204">
        <ele>113.471</ele>
        <time>2021-09-01T09:00:34Z</time>
      </trkpt>
      <trkpt lat="39.672221" lon="3.379120">
        <ele>113.381</ele>
        <time>2021-09-01T09:00:36Z</time>
      </trkpt>
      <trkpt lat="39.672180" lon="3.379076">
        <ele>113.327</ele>
        <time>2021-09-01T09:00:37Z</time>
      </trkpt>
      <trkpt lat="39.672143" lon="3.379036">
        <ele>113.268</ele>
        <time>2021-09-01T09:00:38Z</time>
      </trkpt>
      <trkpt lat="39.672107" lon="3.378994">
        <ele>113.214</ele>
        <time>2021-09-01T09:00:39Z</time>
      </trkpt>
      <trkpt lat="39.672068" lon="3.378950">
        <ele>113.208</ele>
        <time>2021-09-01T09:00:40Z</time>
      </trkpt>
      <trkpt lat="39.672032" lon="3.378913">
        <ele>113.140</ele>
        <time>2021-09-01T09:00:41Z</time>
      </trkpt>
      <trkpt lat="39.671990" lon="3.378868">
        <ele>113.134</ele>
        <time>2021-09-01T09:00:42Z</time>
      </trkpt>
      <trkpt lat="39.671950" lon="3.378824">
        <ele>113.129</ele>
        <time>2021-09-01T09:00:43Z</time>
      </trkpt>
      <trkpt lat="39.671911" lon="3.378781">
        <ele>113.223</ele>
        <time>2021-09-01T09:00:44Z</time>
      </trkpt>
      <trkpt lat="39.671876" lon="3.378741">
        <ele>113.312</ele>
        <time>2021-09-01T09:00:45Z</time>
      </trkpt>
      <trkpt lat="39.671837" lon="3.378701">
        <ele>113.317</ele>
        <time>2021-09-01T09:00:46Z</time>
      </trkpt>
      <trkpt lat="39.671763" lon="3.378621">
        <ele>113.314</ele>
        <time>2021-09-01T09:00:48Z</time>
      </trkpt>
      <trkpt lat="39.671724" lon="3.378572">
        <ele>113.314</ele>
        <time>2021-09-01T09:00:49Z</time>
      </trkpt>
      <trkpt lat="39.671687" lon="3.378529">
        <ele>113.217</ele>
        <time>2021-09-01T09:00:50Z</time>
      </trkpt>
      <trkpt lat="39.671648" lon="3.378492">
        <ele>113.187</ele>
        <time>2021-09-01T09:00:51Z</time>
      </trkpt>
      <trkpt lat="39.671611" lon="3.378455">
        <ele>113.115</ele>
        <time>2021-09-01T09:00:52Z</time>
      </trkpt>
      <trkpt lat="39.671575" lon="3.378411">
        <ele>113.108</ele>
        <time>2021-09-01T09:00:53Z</time>
      </trkpt>
      <trkpt lat="39.671514" lon="3.378346">
        <ele>113.279</ele>
        <time>2021-09-01T09:00:55Z</time>
      </trkpt>
      <trkpt lat="39.671465" lon="3.378243">
        <ele>113.383</ele>
        <time>2021-09-01T09:00:57Z</time>
      </trkpt>
      <trkpt lat="39.671426" lon="3.378201">
        <ele>113.398</ele>
        <time>2021-09-01T09:00:58Z</time>
      </trkpt>
      <trkpt lat="39.671352" lon="3.378149">
        <ele>113.432</ele>
        <time>2021-09-01T09:01:00Z</time>
      </trkpt>
      <trkpt lat="39.671284" lon="3.378096">
        <ele>113.431</ele>
        <time>2021-09-01T09:01:02Z</time>
      </trkpt>
      <trkpt lat="39.671206" lon="3.378027">
        <ele>113.386</ele>
        <time>2021-09-01T09:01:04Z</time>
      </trkpt>
      <trkpt lat="39.671166" lon="3.377993">
        <ele>113.353</ele>
        <time>2021-09-01T09:01:05Z</time>
      </trkpt>
      <trkpt lat="39.671131" lon="3.377950">
        <ele>113.363</ele>
        <time>2021-09-01T09:01:06Z</time>
      </trkpt>
      <trkpt lat="39.671094" lon="3.377900">
        <ele>113.271</ele>
        <time>2021-09-01T09:01:07Z</time>
      </trkpt>
      <trkpt lat="39.671055" lon="3.377856">
        <ele>113.241</ele>
        <time>2021-09-01T09:01:08Z</time>
      </trkpt>
      <trkpt lat="39.671014" lon="3.377815">
        <ele>113.215</ele>
        <time>2021-09-01T09:01:09Z</time>
      </trkpt>
      <trkpt lat="39.670976" lon="3.377775">
        <ele>113.208</ele>
        <time>2021-09-01T09:01:10Z</time>
      </trkpt>
      <trkpt lat="39.670935" lon="3.377730">
        <ele>113.285</ele>
        <time>2021-09-01T09:01:11Z</time>
      </trkpt>
      <trkpt lat="39.670895" lon="3.377688">
        <ele>113.299</ele>
        <time>2021-09-01T09:01:12Z</time>
      </trkpt>
      <trkpt lat="39.670863" lon="3.377641">
        <ele>113.254</ele>
        <time>2021-09-01T09:01:13Z</time>
      </trkpt>
      <trkpt lat="39.670822" lon="3.377603">
        <ele>113.248</ele>
        <time>2021-09-01T09:01:14Z</time>
      </trkpt>
      <trkpt lat="39.670783" lon="3.377567">
        <ele>113.217</ele>
        <time>2021-09-01T09:01:15Z</time>
      </trkpt>
      <trkpt lat="39.670748" lon="3.377530">
        <ele>113.142</ele>
        <time>2021-09-01T09:01:16Z</time>
      </trkpt>
      <trkpt lat="39.670710" lon="3.377488">
        <ele>113.189</ele>
        <time>2021-09-01T09:01:17Z</time>
      </trkpt>
      <trkpt lat="39.670670" lon="3.377444">
        <ele>113.199</ele>
        <time>2021-09-01T09:01:18Z</time>
      </trkpt>
      <trkpt lat="39.670632" lon="3.377405">
        <ele>113.191</ele>
        <time>2021-09-01T09:01:19Z</time>
      </trkpt>
      <trkpt lat="39.670593" lon="3.377361">
        <ele>113.181</ele>
        <time>2021-09-01T09:01:20Z</time>
      </trkpt>
      <trkpt lat="39.670554" lon="3.377313">
        <ele>113.219</ele>
        <time>2021-09-01T09:01:21Z</time>
      </trkpt>
      <trkpt lat="39.670514" lon="3.377270">
        <ele>113.208</ele>
        <time>2021-09-01T09:01:22Z</time>
      </trkpt>
      <trkpt lat="39.670474" lon="3.377230">
        <ele>113.227</ele>
        <time>2021-09-01T09:01:23Z</time>
      </trkpt>
      <trkpt lat="39.670433" lon="3.377184">
        <ele>113.271</ele>
        <time>2021-09-01T09:01:24Z</time>
      </trkpt>
      <trkpt lat="39.670393" lon="3.377140">
        <ele>113.136</ele>
        <time>2021-09-01T09:01:25Z</time>
      </trkpt>
      <trkpt lat="39.670352" lon="3.377095">
        <ele>113.140</ele>
        <time>2021-09-01T09:01:26Z</time>
      </trkpt>
      <trkpt lat="39.670310" lon="3.377050">
        <ele>113.149</ele>
        <time>2021-09-01T09:01:27Z</time>
      </trkpt>
      <trkpt lat="39.670271" lon="3.377004">
        <ele>113.034</ele>
        <time>2021-09-01T09:01:28Z</time>
      </trkpt>
      <trkpt lat="39.670231" lon="3.376962">
        <ele>113.091</ele>
        <time>2021-09-01T09:01:29Z</time>
      </trkpt>
      <trkpt lat="39.670188" lon="3.376920">
        <ele>113.151</ele>
        <time>2021-09-01T09:01:30Z</time>
      </trkpt>
      <trkpt lat="39.670146" lon="3.376872">
        <ele>113.137</ele>
        <time>2021-09-01T09:01:31Z</time>
      </trkpt>
      <trkpt lat="39.670104" lon="3.376827">
        <ele>113.149</ele>
        <time>2021-09-01T09:01:32Z</time>
      </trkpt>
      <trkpt lat="39.670068" lon="3.376784">
        <ele>113.113</ele>
        <time>2021-09-01T09:01:33Z</time>
      </trkpt>
      <trkpt lat="39.670025" lon="3.376749">
        <ele>113.108</ele>
        <time>2021-09-01T09:01:34Z</time>
      </trkpt>
      <trkpt lat="39.669984" lon="3.376705">
        <ele>113.051</ele>
        <time>2021-09-01T09:01:35Z</time>
      </trkpt>
      <trkpt lat="39.669944" lon="3.376665">
        <ele>113.045</ele>
        <time>2021-09-01T09:01:36Z</time>
      </trkpt>
      <trkpt lat="39.669905" lon="3.376619">
        <ele>112.910</ele>
        <time>2021-09-01T09:01:37Z</time>
      </trkpt>
      <trkpt lat="39.669860" lon="3.376578">
        <ele>112.944</ele>
        <time>2021-09-01T09:01:38Z</time>
      </trkpt>
      <trkpt lat="39.669816" lon="3.376537">
        <ele>112.923</ele>
        <time>2021-09-01T09:01:39Z</time>
      </trkpt>
      <trkpt lat="39.669775" lon="3.376499">
        <ele>112.988</ele>
        <time>2021-09-01T09:01:40Z</time>
      </trkpt>
      <trkpt lat="39.669733" lon="3.376457">
        <ele>112.855</ele>
        <time>2021-09-01T09:01:41Z</time>
      </trkpt>
      <trkpt lat="39.669694" lon="3.376416">
        <ele>112.725</ele>
        <time>2021-09-01T09:01:42Z</time>
      </trkpt>
      <trkpt lat="39.669649" lon="3.376376">
        <ele>112.644</ele>
        <time>2021-09-01T09:01:43Z</time>
      </trkpt>
      <trkpt lat="39.669606" lon="3.376334">
        <ele>112.505</ele>
        <time>2021-09-01T09:01:44Z</time>
      </trkpt>
      <trkpt lat="39.669563" lon="3.376296">
        <ele>112.415</ele>
        <time>2021-09-01T09:01:45Z</time>
      </trkpt>
      <trkpt lat="39.669517" lon="3.376261">
        <ele>112.308</ele>
        <time>2021-09-01T09:01:46Z</time>
      </trkpt>
      <trkpt lat="39.669478" lon="3.376227">
        <ele>112.342</ele>
        <time>2021-09-01T09:01:47Z</time>
      </trkpt>
      <trkpt lat="39.669430" lon="3.376187">
        <ele>112.296</ele>
        <time>2021-09-01T09:01:48Z</time>
      </trkpt>
      <trkpt lat="39.669384" lon="3.376153">
        <ele>112.151</ele>
        <time>2021-09-01T09:01:49Z</time>
      </trkpt>
      <trkpt lat="39.669344" lon="3.376127">
        <ele>112.075</ele>
        <time>2021-09-01T09:01:50Z</time>
      </trkpt>
      <trkpt lat="39.669278" lon="3.376073">
        <ele>111.634</ele>
        <time>2021-09-01T09:01:52Z</time>
      </trkpt>
      <trkpt lat="39.669229" lon="3.376014">
        <ele>111.229</ele>
        <time>2021-09-01T09:01:54Z</time>
      </trkpt>
      <trkpt lat="39.669156" lon="3.375975">
        <ele>110.756</ele>
        <time>2021-09-01T09:01:56Z</time>
      </trkpt>
      <trkpt lat="39.669092" lon="3.375955">
        <ele>110.316</ele>
        <time>2021-09-01T09:01:58Z</time>
      </trkpt>
      <trkpt lat="39.669053" lon="3.375914">
        <ele>110.262</ele>
        <time>2021-09-01T09:01:59Z</time>
      </trkpt>
      <trkpt lat="39.669012" lon="3.375885">
        <ele>109.983</ele>
        <time>2021-09-01T09:02:00Z</time>
      </trkpt>
      <trkpt lat="39.668972" lon="3.375847">
        <ele>109.811</ele>
        <time>2021-09-01T09:02:01Z</time>
      </trkpt>
      <trkpt lat="39.668928" lon="3.375812">
        <ele>109.708</ele>
        <time>2021-09-01T09:02:02Z</time>
      </trkpt>
      <trkpt lat="39.668889" lon="3.375767">
        <ele>109.774</ele>
        <time>2021-09-01T09:02:03Z</time>
      </trkpt>
      <trkpt lat="39.668849" lon="3.375718">
        <ele>109.638</ele>
        <time>2021-09-01T09:02:04Z</time>
      </trkpt>
      <trkpt lat="39.668785" lon="3.375668">
        <ele>109.553</ele>
        <time>2021-09-01T09:02:06Z</time>
      </trkpt>
      <trkpt lat="39.668739" lon="3.375623">
        <ele>109.487</ele>
        <time>2021-09-01T09:02:07Z</time>
      </trkpt>
      <trkpt lat="39.668690" lon="3.375588">
        <ele>109.456</ele>
        <time>2021-09-01T09:02:08Z</time>
      </trkpt>
      <trkpt lat="39.668646" lon="3.375553">
        <ele>109.461</ele>
        <time>2021-09-01T09:02:09Z</time>
      </trkpt>
      <trkpt lat="39.668598" lon="3.375526">
        <ele>109.438</ele>
        <time>2021-09-01T09:02:10Z</time>
      </trkpt>
      <trkpt lat="39.668553" lon="3.375499">
        <ele>109.478</ele>
        <time>2021-09-01T09:02:11Z</time>
      </trkpt>
      <trkpt lat="39.668507" lon="3.375471">
        <ele>109.624</ele>
        <time>2021-09-01T09:02:12Z</time>
      </trkpt>
      <trkpt lat="39.668465" lon="3.375449">
        <ele>109.704</ele>
        <time>2021-09-01T09:02:13Z</time>
      </trkpt>
      <trkpt lat="39.668388" lon="3.375408">
        <ele>110.014</ele>
        <time>2021-09-01T09:02:15Z</time>
      </trkpt>
      <trkpt lat="39.668317" lon="3.375376">
        <ele>110.208</ele>
        <time>2021-09-01T09:02:17Z</time>
      </trkpt>
      <trkpt lat="39.668236" lon="3.375331">
        <ele>110.390</ele>
        <time>2021-09-01T09:02:19Z</time>
      </trkpt>
      <trkpt lat="39.668193" lon="3.375307">
        <ele>110.394</ele>
        <time>2021-09-01T09:02:20Z</time>
      </trkpt>
      <trkpt lat="39.668147" lon="3.375284">
        <ele>110.339</ele>
        <time>2021-09-01T09:02:21Z</time>
      </trkpt>
      <trkpt lat="39.668104" lon="3.375262">
        <ele>110.293</ele>
        <time>2021-09-01T09:02:22Z</time>
      </trkpt>
      <trkpt lat="39.668058" lon="3.375236">
        <ele>110.192</ele>
        <time>2021-09-01T09:02:23Z</time>
      </trkpt>
      <trkpt lat="39.668015" lon="3.375217">
        <ele>109.967</ele>
        <time>2021-09-01T09:02:24Z</time>
      </trkpt>
      <trkpt lat="39.667931" lon="3.375183">
        <ele>109.624</ele>
        <time>2021-09-01T09:02:26Z</time>
      </trkpt>
      <trkpt lat="39.667886" lon="3.375163">
        <ele>109.544</ele>
        <time>2021-09-01T09:02:27Z</time>
      </trkpt>
      <trkpt lat="39.667843" lon="3.375138">
        <ele>109.487</ele>
        <time>2021-09-01T09:02:28Z</time>
      </trkpt>
      <trkpt lat="39.667760" lon="3.375092">
        <ele>109.442</ele>
        <time>2021-09-01T09:02:30Z</time>
      </trkpt>
      <trkpt lat="39.667710" lon="3.375061">
        <ele>109.426</ele>
        <time>2021-09-01T09:02:31Z</time>
      </trkpt>
      <trkpt lat="39.667653" lon="3.375031">
        <ele>109.408</ele>
        <time>2021-09-01T09:02:32Z</time>
      </trkpt>
      <trkpt lat="39.667608" lon="3.375005">
        <ele>109.396</ele>
        <time>2021-09-01T09:02:33Z</time>
      </trkpt>
      <trkpt lat="39.667548" lon="3.374977">
        <ele>109.310</ele>
        <time>2021-09-01T09:02:34Z</time>
      </trkpt>
      <trkpt lat="39.667499" lon="3.374951">
        <ele>109.215</ele>
        <time>2021-09-01T09:02:35Z</time>
      </trkpt>
      <trkpt lat="39.667444" lon="3.374927">
        <ele>109.149</ele>
        <time>2021-09-01T09:02:36Z</time>
      </trkpt>
      <trkpt lat="39.667394" lon="3.374902">
        <ele>109.118</ele>
        <time>2021-09-01T09:02:37Z</time>
      </trkpt>
      <trkpt lat="39.667340" lon="3.374875">
        <ele>109.123</ele>
        <time>2021-09-01T09:02:38Z</time>
      </trkpt>
      <trkpt lat="39.667289" lon="3.374848">
        <ele>109.140</ele>
        <time>2021-09-01T09:02:39Z</time>
      </trkpt>
      <trkpt lat="39.667235" lon="3.374826">
        <ele>109.040</ele>
        <time>2021-09-01T09:02:40Z</time>
      </trkpt>
      <trkpt lat="39.667178" lon="3.374802">
        <ele>109.014</ele>
        <time>2021-09-01T09:02:41Z</time>
      </trkpt>
      <trkpt lat="39.667124" lon="3.374773">
        <ele>109.054</ele>
        <time>2021-09-01T09:02:42Z</time>
      </trkpt>
      <trkpt lat="39.667074" lon="3.374751">
        <ele>109.009</ele>
        <time>2021-09-01T09:02:43Z</time>
      </trkpt>
      <trkpt lat="39.667023" lon="3.374730">
        <ele>109.008</ele>
        <time>2021-09-01T09:02:44Z</time>
      </trkpt>
      <trkpt lat="39.666970" lon="3.374702">
        <ele>109.089</ele>
        <time>2021-09-01T09:02:45Z</time>
      </trkpt>
      <trkpt lat="39.666920" lon="3.374686">
        <ele>108.983</ele>
        <time>2021-09-01T09:02:46Z</time>
      </trkpt>
      <trkpt lat="39.666870" lon="3.374655">
        <ele>108.768</ele>
        <time>2021-09-01T09:02:47Z</time>
      </trkpt>
      <trkpt lat="39.666819" lon="3.374633">
        <ele>108.692</ele>
        <time>2021-09-01T09:02:48Z</time>
      </trkpt>
      <trkpt lat="39.666771" lon="3.374589">
        <ele>108.581</ele>
        <time>2021-09-01T09:02:49Z</time>
      </trkpt>
      <trkpt lat="39.666721" lon="3.374557">
        <ele>108.456</ele>
        <time>2021-09-01T09:02:50Z</time>
      </trkpt>
      <trkpt lat="39.666675" lon="3.374525">
        <ele>108.423</ele>
        <time>2021-09-01T09:02:51Z</time>
      </trkpt>
      <trkpt lat="39.666611" lon="3.374505">
        <ele>108.373</ele>
        <time>2021-09-01T09:02:52Z</time>
      </trkpt>
      <trkpt lat="39.666556" lon="3.374477">
        <ele>108.317</ele>
        <time>2021-09-01T09:02:53Z</time>
      </trkpt>
      <trkpt lat="39.666508" lon="3.374452">
        <ele>108.287</ele>
        <time>2021-09-01T09:02:54Z</time>
      </trkpt>
      <trkpt lat="39.666458" lon="3.374420">
        <ele>108.215</ele>
        <time>2021-09-01T09:02:55Z</time>
      </trkpt>
      <trkpt lat="39.666406" lon="3.374392">
        <ele>108.208</ele>
        <time>2021-09-01T09:02:56Z</time>
      </trkpt>
      <trkpt lat="39.666363" lon="3.374362">
        <ele>108.149</ele>
        <time>2021-09-01T09:02:57Z</time>
      </trkpt>
      <trkpt lat="39.666316" lon="3.374340">
        <ele>108.133</ele>
        <time>2021-09-01T09:02:58Z</time>
      </trkpt>
      <trkpt lat="39.666265" lon="3.374324">
        <ele>108.168</ele>
        <time>2021-09-01T09:02:59Z</time>
      </trkpt>
      <trkpt lat="39.666220" lon="3.374289">
        <ele>108.072</ele>
        <time>2021-09-01T09:03:00Z</time>
      </trkpt>
      <trkpt lat="39.666171" lon="3.374260">
        <ele>107.951</ele>
        <time>2021-09-01T09:03:01Z</time>
      </trkpt>
      <trkpt lat="39.666127" lon="3.374227">
        <ele>107.836</ele>
        <time>2021-09-01T09:03:02Z</time>
      </trkpt>
      <trkpt lat="39.666078" lon="3.374211">
        <ele>107.773</ele>
        <time>2021-09-01T09:03:03Z</time>
      </trkpt>
      <trkpt lat="39.666029" lon="3.374198">
        <ele>107.563</ele>
        <time>2021-09-01T09:03:04Z</time>
      </trkpt>
      <trkpt lat="39.665973" lon="3.374175">
        <ele>107.431</ele>
        <time>2021-09-01T09:03:05Z</time>
      </trkpt>
      <trkpt lat="39.665919" lon="3.374151">
        <ele>107.361</ele>
        <time>2021-09-01T09:03:06Z</time>
      </trkpt>
      <trkpt lat="39.665864" lon="3.374123">
        <ele>107.307</ele>
        <time>2021-09-01T09:03:07Z</time>
      </trkpt>
      <trkpt lat="39.665814" lon="3.374101">
        <ele>107.208</ele>
        <time>2021-09-01T09:03:08Z</time>
      </trkpt>
      <trkpt lat="39.665762" lon="3.374083">
        <ele>107.121</ele>
        <time>2021-09-01T09:03:09Z</time>
      </trkpt>
      <trkpt lat="39.665706" lon="3.374057">
        <ele>107.095</ele>
        <time>2021-09-01T09:03:10Z</time>
      </trkpt>
      <trkpt lat="39.665652" lon="3.374029">
        <ele>106.930</ele>
        <time>2021-09-01T09:03:11Z</time>
      </trkpt>
      <trkpt lat="39.665600" lon="3.374003">
        <ele>106.844</ele>
        <time>2021-09-01T09:03:12Z</time>
      </trkpt>
      <trkpt lat="39.665550" lon="3.373976">
        <ele>106.793</ele>
        <time>2021-09-01T09:03:13Z</time>
      </trkpt>
      <trkpt lat="39.665500" lon="3.373946">
        <ele>106.658</ele>
        <time>2021-09-01T09:03:14Z</time>
      </trkpt>
      <trkpt lat="39.665445" lon="3.373914">
        <ele>106.595</ele>
        <time>2021-09-01T09:03:15Z</time>
      </trkpt>
      <trkpt lat="39.665391" lon="3.373900">
        <ele>106.535</ele>
        <time>2021-09-01T09:03:16Z</time>
      </trkpt>
      <trkpt lat="39.665333" lon="3.373874">
        <ele>106.561</ele>
        <time>2021-09-01T09:03:17Z</time>
      </trkpt>
      <trkpt lat="39.665279" lon="3.373841">
        <ele>106.421</ele>
        <time>2021-09-01T09:03:18Z</time>
      </trkpt>
      <trkpt lat="39.665227" lon="3.373799">
        <ele>106.313</ele>
        <time>2021-09-01T09:03:19Z</time>
      </trkpt>
      <trkpt lat="39.665173" lon="3.373772">
        <ele>106.308</ele>
        <time>2021-09-01T09:03:20Z</time>
      </trkpt>
      <trkpt lat="39.665121" lon="3.373742">
        <ele>106.284</ele>
        <time>2021-09-01T09:03:21Z</time>
      </trkpt>
      <trkpt lat="39.665068" lon="3.373715">
        <ele>105.928</ele>
        <time>2021-09-01T09:03:22Z</time>
      </trkpt>
      <trkpt lat="39.665010" lon="3.373698">
        <ele>105.893</ele>
        <time>2021-09-01T09:03:23Z</time>
      </trkpt>
      <trkpt lat="39.664958" lon="3.373666">
        <ele>105.527</ele>
        <time>2021-09-01T09:03:24Z</time>
      </trkpt>
      <trkpt lat="39.664904" lon="3.373642">
        <ele>105.366</ele>
        <time>2021-09-01T09:03:25Z</time>
      </trkpt>
      <trkpt lat="39.664850" lon="3.373617">
        <ele>105.181</ele>
        <time>2021-09-01T09:03:26Z</time>
      </trkpt>
      <trkpt lat="39.664796" lon="3.373588">
        <ele>104.918</ele>
        <time>2021-09-01T09:03:27Z</time>
      </trkpt>
      <trkpt lat="39.664743" lon="3.373564">
        <ele>104.768</ele>
        <time>2021-09-01T09:03:28Z</time>
      </trkpt>
      <trkpt lat="39.664689" lon="3.373542">
        <ele>104.648</ele>
        <time>2021-09-01T09:03:29Z</time>
      </trkpt>
      <trkpt lat="39.664639" lon="3.373515">
        <ele>104.661</ele>
        <time>2021-09-01T09:03:30Z</time>
      </trkpt>
      <trkpt lat="39.664590" lon="3.373487">
        <ele>104.617</ele>
        <time>2021-09-01T09:03:31Z</time>
      </trkpt>
      <trkpt lat="39.664540" lon="3.373465">
        <ele>104.608</ele>
        <time>2021-09-01T09:03:32Z</time>
      </trkpt>
      <trkpt lat="39.664494" lon="3.373439">
        <ele>104.662</ele>
        <time>2021-09-01T09:03:33Z</time>
      </trkpt>
      <trkpt lat="39.664448" lon="3.373418">
        <ele>104.516</ele>
        <time>2021-09-01T09:03:34Z</time>
      </trkpt>
      <trkpt lat="39.664402" lon="3.373389">
        <ele>104.411</ele>
        <time>2021-09-01T09:03:35Z</time>
      </trkpt>
      <trkpt lat="39.664360" lon="3.373349">
        <ele>104.465</ele>
        <time>2021-09-01T09:03:36Z</time>
      </trkpt>
      <trkpt lat="39.664310" lon="3.373332">
        <ele>104.214</ele>
        <time>2021-09-01T09:03:37Z</time>
      </trkpt>
      <trkpt lat="39.664259" lon="3.373309">
        <ele>104.139</ele>
        <time>2021-09-01T09:03:38Z</time>
      </trkpt>
      <trkpt lat="39.664206" lon="3.373292">
        <ele>104.146</ele>
        <time>2021-09-01T09:03:39Z</time>
      </trkpt>
      <trkpt lat="39.664153" lon="3.373269">
        <ele>104.096</ele>
        <time>2021-09-01T09:03:40Z</time>
      </trkpt>
      <trkpt lat="39.664100" lon="3.373252">
        <ele>103.937</ele>
        <time>2021-09-01T09:03:41Z</time>
      </trkpt>
      <trkpt lat="39.664046" lon="3.373225">
        <ele>103.949</ele>
        <time>2021-09-01T09:03:42Z</time>
      </trkpt>
      <trkpt lat="39.663996" lon="3.373202">
        <ele>103.813</ele>
        <time>2021-09-01T09:03:43Z</time>
      </trkpt>
      <trkpt lat="39.663948" lon="3.373180">
        <ele>103.708</ele>
        <time>2021-09-01T09:03:44Z</time>
      </trkpt>
      <trkpt lat="39.663893" lon="3.373148">
        <ele>103.751</ele>
        <time>2021-09-01T09:03:45Z</time>
      </trkpt>
      <trkpt lat="39.663843" lon="3.373119">
        <ele>103.635</ele>
        <time>2021-09-01T09:03:46Z</time>
      </trkpt>
      <trkpt lat="39.663794" lon="3.373086">
        <ele>103.540</ele>
        <time>2021-09-01T09:03:47Z</time>
      </trkpt>
      <trkpt lat="39.663744" lon="3.373062">
        <ele>103.464</ele>
        <time>2021-09-01T09:03:48Z</time>
      </trkpt>
      <trkpt lat="39.663694" lon="3.373040">
        <ele>103.373</ele>
        <time>2021-09-01T09:03:49Z</time>
      </trkpt>
      <trkpt lat="39.663641" lon="3.373014">
        <ele>103.328</ele>
        <time>2021-09-01T09:03:50Z</time>
      </trkpt>
      <trkpt lat="39.663588" lon="3.372985">
        <ele>103.315</ele>
        <time>2021-09-01T09:03:51Z</time>
      </trkpt>
      <trkpt lat="39.663537" lon="3.372958">
        <ele>103.375</ele>
        <time>2021-09-01T09:03:52Z</time>
      </trkpt>
      <trkpt lat="39.663486" lon="3.372931">
        <ele>103.277</ele>
        <time>2021-09-01T09:03:53Z</time>
      </trkpt>
      <trkpt lat="39.663435" lon="3.372908">
        <ele>103.261</ele>
        <time>2021-09-01T09:03:54Z</time>
      </trkpt>
      <trkpt lat="39.663381" lon="3.372878">
        <ele>103.227</ele>
        <time>2021-09-01T09:03:55Z</time>
      </trkpt>
      <trkpt lat="39.663328" lon="3.372848">
        <ele>103.208</ele>
        <time>2021-09-01T09:03:56Z</time>
      </trkpt>
      <trkpt lat="39.663274" lon="3.372825">
        <ele>103.055</ele>
        <time>2021-09-01T09:03:57Z</time>
      </trkpt>
      <trkpt lat="39.663218" lon="3.372794">
        <ele>103.049</ele>
        <time>2021-09-01T09:03:58Z</time>
      </trkpt>
      <trkpt lat="39.663159" lon="3.372769">
        <ele>103.064</ele>
        <time>2021-09-01T09:03:59Z</time>
      </trkpt>
      <trkpt lat="39.663110" lon="3.372745">
        <ele>102.938</ele>
        <time>2021-09-01T09:04:00Z</time>
      </trkpt>
      <trkpt lat="39.663057" lon="3.372716">
        <ele>102.997</ele>
        <time>2021-09-01T09:04:01Z</time>
      </trkpt>
      <trkpt lat="39.663002" lon="3.372685">
        <ele>102.852</ele>
        <time>2021-09-01T09:04:02Z</time>
      </trkpt>
      <trkpt lat="39.662947" lon="3.372652">
        <ele>102.739</ele>
        <time>2021-09-01T09:04:03Z</time>
      </trkpt>
      <trkpt lat="39.662895" lon="3.372624">
        <ele>102.649</ele>
        <time>2021-09-01T09:04:04Z</time>
      </trkpt>
      <trkpt lat="39.662838" lon="3.372603">
        <ele>102.526</ele>
        <time>2021-09-01T09:04:05Z</time>
      </trkpt>
      <trkpt lat="39.662786" lon="3.372570">
        <ele>102.547</ele>
        <time>2021-09-01T09:04:06Z</time>
      </trkpt>
      <trkpt lat="39.662730" lon="3.372541">
        <ele>102.511</ele>
        <time>2021-09-01T09:04:07Z</time>
      </trkpt>
      <trkpt lat="39.662677" lon="3.372510">
        <ele>102.508</ele>
        <time>2021-09-01T09:04:08Z</time>
      </trkpt>
      <trkpt lat="39.662624" lon="3.372484">
        <ele>102.660</ele>
        <time>2021-09-01T09:04:09Z</time>
      </trkpt>
      <trkpt lat="39.662570" lon="3.372454">
        <ele>102.624</ele>
        <time>2021-09-01T09:04:10Z</time>
      </trkpt>
      <trkpt lat="39.662517" lon="3.372426">
        <ele>102.549</ele>
        <time>2021-09-01T09:04:11Z</time>
      </trkpt>
      <trkpt lat="39.662458" lon="3.372391">
        <ele>102.533</ele>
        <time>2021-09-01T09:04:12Z</time>
      </trkpt>
      <trkpt lat="39.662404" lon="3.372362">
        <ele>102.422</ele>
        <time>2021-09-01T09:04:13Z</time>
      </trkpt>
      <trkpt lat="39.662355" lon="3.372330">
        <ele>102.487</ele>
        <time>2021-09-01T09:04:14Z</time>
      </trkpt>
      <trkpt lat="39.662294" lon="3.372312">
        <ele>102.414</ele>
        <time>2021-09-01T09:04:15Z</time>
      </trkpt>
      <trkpt lat="39.662238" lon="3.372281">
        <ele>102.434</ele>
        <time>2021-09-01T09:04:16Z</time>
      </trkpt>
      <trkpt lat="39.662184" lon="3.372253">
        <ele>102.471</ele>
        <time>2021-09-01T09:04:17Z</time>
      </trkpt>
      <trkpt lat="39.662129" lon="3.372223">
        <ele>102.441</ele>
        <time>2021-09-01T09:04:18Z</time>
      </trkpt>
      <trkpt lat="39.662069" lon="3.372191">
        <ele>102.415</ele>
        <time>2021-09-01T09:04:19Z</time>
      </trkpt>
      <trkpt lat="39.662011" lon="3.372172">
        <ele>102.208</ele>
        <time>2021-09-01T09:04:20Z</time>
      </trkpt>
      <trkpt lat="39.661963" lon="3.372144">
        <ele>102.195</ele>
        <time>2021-09-01T09:04:21Z</time>
      </trkpt>
      <trkpt lat="39.661904" lon="3.372114">
        <ele>102.119</ele>
        <time>2021-09-01T09:04:22Z</time>
      </trkpt>
      <trkpt lat="39.661843" lon="3.372085">
        <ele>102.164</ele>
        <time>2021-09-01T09:04:23Z</time>
      </trkpt>
      <trkpt lat="39.661784" lon="3.372058">
        <ele>102.188</ele>
        <time>2021-09-01T09:04:24Z</time>
      </trkpt>
      <trkpt lat="39.661725" lon="3.372036">
        <ele>102.177</ele>
        <time>2021-09-01T09:04:25Z</time>
      </trkpt>
      <trkpt lat="39.661669" lon="3.372011">
        <ele>102.082</ele>
        <time>2021-09-01T09:04:26Z</time>
      </trkpt>
      <trkpt lat="39.661616" lon="3.371984">
        <ele>101.889</ele>
        <time>2021-09-01T09:04:27Z</time>
      </trkpt>
      <trkpt lat="39.661561" lon="3.371961">
        <ele>101.779</ele>
        <time>2021-09-01T09:04:28Z</time>
      </trkpt>
      <trkpt lat="39.661506" lon="3.371937">
        <ele>101.786</ele>
        <time>2021-09-01T09:04:29Z</time>
      </trkpt>
      <trkpt lat="39.661450" lon="3.371909">
        <ele>101.760</ele>
        <time>2021-09-01T09:04:30Z</time>
      </trkpt>
      <trkpt lat="39.661396" lon="3.371883">
        <ele>101.726</ele>
        <time>2021-09-01T09:04:31Z</time>
      </trkpt>
      <trkpt lat="39.661343" lon="3.371859">
        <ele>101.808</ele>
        <time>2021-09-01T09:04:32Z</time>
      </trkpt>
      <trkpt lat="39.661288" lon="3.371832">
        <ele>101.936</ele>
        <time>2021-09-01T09:04:33Z</time>
      </trkpt>
      <trkpt lat="39.661236" lon="3.371802">
        <ele>102.010</ele>
        <time>2021-09-01T09:04:34Z</time>
      </trkpt>
      <trkpt lat="39.661183" lon="3.371778">
        <ele>102.035</ele>
        <time>2021-09-01T09:04:35Z</time>
      </trkpt>
      <trkpt lat="39.661138" lon="3.371747">
        <ele>102.069</ele>
        <time>2021-09-01T09:04:36Z</time>
      </trkpt>
      <trkpt lat="39.661083" lon="3.371720">
        <ele>102.018</ele>
        <time>2021-09-01T09:04:37Z</time>
      </trkpt>
      <trkpt lat="39.661028" lon="3.371694">
        <ele>101.953</ele>
        <time>2021-09-01T09:04:38Z</time>
      </trkpt>
      <trkpt lat="39.660973" lon="3.371666">
        <ele>101.820</ele>
        <time>2021-09-01T09:04:39Z</time>
      </trkpt>
      <trkpt lat="39.660919" lon="3.371634">
        <ele>101.870</ele>
        <time>2021-09-01T09:04:40Z</time>
      </trkpt>
      <trkpt lat="39.660861" lon="3.371599">
        <ele>101.854</ele>
        <time>2021-09-01T09:04:41Z</time>
      </trkpt>
      <trkpt lat="39.660810" lon="3.371575">
        <ele>101.956</ele>
        <time>2021-09-01T09:04:42Z</time>
      </trkpt>
      <trkpt lat="39.660755" lon="3.371544">
        <ele>101.911</ele>
        <time>2021-09-01T09:04:43Z</time>
      </trkpt>
      <trkpt lat="39.660704" lon="3.371514">
        <ele>101.908</ele>
        <time>2021-09-01T09:04:44Z</time>
      </trkpt>
      <trkpt lat="39.660651" lon="3.371487">
        <ele>101.873</ele>
        <time>2021-09-01T09:04:45Z</time>
      </trkpt>
      <trkpt lat="39.660596" lon="3.371458">
        <ele>101.767</ele>
        <time>2021-09-01T09:04:46Z</time>
      </trkpt>
      <trkpt lat="39.660536" lon="3.371430">
        <ele>101.512</ele>
        <time>2021-09-01T09:04:47Z</time>
      </trkpt>
      <trkpt lat="39.660478" lon="3.371404">
        <ele>101.416</ele>
        <time>2021-09-01T09:04:48Z</time>
      </trkpt>
      <trkpt lat="39.660427" lon="3.371381">
        <ele>101.455</ele>
        <time>2021-09-01T09:04:49Z</time>
      </trkpt>
      <trkpt lat="39.660374" lon="3.371352">
        <ele>101.460</ele>
        <time>2021-09-01T09:04:50Z</time>
      </trkpt>
      <trkpt lat="39.660318" lon="3.371324">
        <ele>101.317</ele>
        <time>2021-09-01T09:04:51Z</time>
      </trkpt>
      <trkpt lat="39.660262" lon="3.371297">
        <ele>101.317</ele>
        <time>2021-09-01T09:04:52Z</time>
      </trkpt>
      <trkpt lat="39.660203" lon="3.371270">
        <ele>101.358</ele>
        <time>2021-09-01T09:04:53Z</time>
      </trkpt>
      <trkpt lat="39.660147" lon="3.371244">
        <ele>101.252</ele>
        <time>2021-09-01T09:04:54Z</time>
      </trkpt>
      <trkpt lat="39.660092" lon="3.371218">
        <ele>101.117</ele>
        <time>2021-09-01T09:04:55Z</time>
      </trkpt>
      <trkpt lat="39.660036" lon="3.371187">
        <ele>101.108</ele>
        <time>2021-09-01T09:04:56Z</time>
      </trkpt>
      <trkpt lat="39.659979" lon="3.371157">
        <ele>101.133</ele>
        <time>2021-09-01T09:04:57Z</time>
      </trkpt>
      <trkpt lat="39.659920" lon="3.371130">
        <ele>100.927</ele>
        <time>2021-09-01T09:04:58Z</time>
      </trkpt>
      <trkpt lat="39.659869" lon="3.371103">
        <ele>100.932</ele>
        <time>2021-09-01T09:04:59Z</time>
      </trkpt>
      <trkpt lat="39.659806" lon="3.371078">
        <ele>100.936</ele>
        <time>2021-09-01T09:05:00Z</time>
      </trkpt>
      <trkpt lat="39.659748" lon="3.371043">
        <ele>100.995</ele>
        <time>2021-09-01T09:05:01Z</time>
      </trkpt>
      <trkpt lat="39.659691" lon="3.371014">
        <ele>101.040</ele>
        <time>2021-09-01T09:05:02Z</time>
      </trkpt>
      <trkpt lat="39.659632" lon="3.370982">
        <ele>101.157</ele>
        <time>2021-09-01T09:05:03Z</time>
      </trkpt>
      <trkpt lat="39.659574" lon="3.370956">
        <ele>101.197</ele>
        <time>2021-09-01T09:05:04Z</time>
      </trkpt>
      <trkpt lat="39.659511" lon="3.370934">
        <ele>101.014</ele>
        <time>2021-09-01T09:05:05Z</time>
      </trkpt>
      <trkpt lat="39.659449" lon="3.370911">
        <ele>100.854</ele>
        <time>2021-09-01T09:05:06Z</time>
      </trkpt>
      <trkpt lat="39.659385" lon="3.370884">
        <ele>100.609</ele>
        <time>2021-09-01T09:05:07Z</time>
      </trkpt>
      <trkpt lat="39.659325" lon="3.370864">
        <ele>100.308</ele>
        <time>2021-09-01T09:05:08Z</time>
      </trkpt>
      <trkpt lat="39.659265" lon="3.370841">
        <ele>100.129</ele>
        <time>2021-09-01T09:05:09Z</time>
      </trkpt>
      <trkpt lat="39.659207" lon="3.370823">
        <ele>99.923</ele>
        <time>2021-09-01T09:05:10Z</time>
      </trkpt>
      <trkpt lat="39.659148" lon="3.370808">
        <ele>99.918</ele>
        <time>2021-09-01T09:05:11Z</time>
      </trkpt>
      <trkpt lat="39.659092" lon="3.370791">
        <ele>99.842</ele>
        <time>2021-09-01T09:05:12Z</time>
      </trkpt>
      <trkpt lat="39.659036" lon="3.370768">
        <ele>99.811</ele>
        <time>2021-09-01T09:05:13Z</time>
      </trkpt>
      <trkpt lat="39.658977" lon="3.370747">
        <ele>99.986</ele>
        <time>2021-09-01T09:05:14Z</time>
      </trkpt>
      <trkpt lat="39.658917" lon="3.370733">
        <ele>99.973</ele>
        <time>2021-09-01T09:05:15Z</time>
      </trkpt>
      <trkpt lat="39.658859" lon="3.370719">
        <ele>99.843</ele>
        <time>2021-09-01T09:05:16Z</time>
      </trkpt>
      <trkpt lat="39.658801" lon="3.370703">
        <ele>99.842</ele>
        <time>2021-09-01T09:05:17Z</time>
      </trkpt>
      <trkpt lat="39.658736" lon="3.370686">
        <ele>99.722</ele>
        <time>2021-09-01T09:05:18Z</time>
      </trkpt>
      <trkpt lat="39.658681" lon="3.370676">
        <ele>99.714</ele>
        <time>2021-09-01T09:05:19Z</time>
      </trkpt>
      <trkpt lat="39.658620" lon="3.370665">
        <ele>99.708</ele>
        <time>2021-09-01T09:05:20Z</time>
      </trkpt>
      <trkpt lat="39.658560" lon="3.370657">
        <ele>99.652</ele>
        <time>2021-09-01T09:05:21Z</time>
      </trkpt>
      <trkpt lat="39.658500" lon="3.370647">
        <ele>99.696</ele>
        <time>2021-09-01T09:05:22Z</time>
      </trkpt>
      <trkpt lat="39.658438" lon="3.370637">
        <ele>99.681</ele>
        <time>2021-09-01T09:05:23Z</time>
      </trkpt>
      <trkpt lat="39.658381" lon="3.370632">
        <ele>99.565</ele>
        <time>2021-09-01T09:05:24Z</time>
      </trkpt>
      <trkpt lat="39.658324" lon="3.370632">
        <ele>99.534</ele>
        <time>2021-09-01T09:05:25Z</time>
      </trkpt>
      <trkpt lat="39.658267" lon="3.370619">
        <ele>99.699</ele>
        <time>2021-09-01T09:05:26Z</time>
      </trkpt>
      <trkpt lat="39.658209" lon="3.370613">
        <ele>99.666</ele>
        <time>2021-09-01T09:05:27Z</time>
      </trkpt>
      <trkpt lat="39.658153" lon="3.370607">
        <ele>99.666</ele>
        <time>2021-09-01T09:05:28Z</time>
      </trkpt>
      <trkpt lat="39.658095" lon="3.370601">
        <ele>99.612</ele>
        <time>2021-09-01T09:05:29Z</time>
      </trkpt>
      <trkpt lat="39.658038" lon="3.370596">
        <ele>99.432</ele>
        <time>2021-09-01T09:05:30Z</time>
      </trkpt>
      <trkpt lat="39.657979" lon="3.370593">
        <ele>99.305</ele>
        <time>2021-09-01T09:05:31Z</time>
      </trkpt>
      <trkpt lat="39.657926" lon="3.370596">
        <ele>99.108</ele>
        <time>2021-09-01T09:05:32Z</time>
      </trkpt>
      <trkpt lat="39.657865" lon="3.370597">
        <ele>99.069</ele>
        <time>2021-09-01T09:05:33Z</time>
      </trkpt>
      <trkpt lat="39.657806" lon="3.370596">
        <ele>99.083</ele>
        <time>2021-09-01T09:05:34Z</time>
      </trkpt>
      <trkpt lat="39.657744" lon="3.370596">
        <ele>99.028</ele>
        <time>2021-09-01T09:05:35Z</time>
      </trkpt>
      <trkpt lat="39.657686" lon="3.370595">
        <ele>98.972</ele>
        <time>2021-09-01T09:05:36Z</time>
      </trkpt>
      <trkpt lat="39.657625" lon="3.370595">
        <ele>98.971</ele>
        <time>2021-09-01T09:05:37Z</time>
      </trkpt>
      <trkpt lat="39.657563" lon="3.370599">
        <ele>98.796</ele>
        <time>2021-09-01T09:05:38Z</time>
      </trkpt>
      <trkpt lat="39.657504" lon="3.370603">
        <ele>98.683</ele>
        <time>2021-09-01T09:05:39Z</time>
      </trkpt>
      <trkpt lat="39.657443" lon="3.370607">
        <ele>98.663</ele>
        <time>2021-09-01T09:05:40Z</time>
      </trkpt>
      <trkpt lat="39.657380" lon="3.370612">
        <ele>98.588</ele>
        <time>2021-09-01T09:05:41Z</time>
      </trkpt>
      <trkpt lat="39.657318" lon="3.370617">
        <ele>98.424</ele>
        <time>2021-09-01T09:05:42Z</time>
      </trkpt>
      <trkpt lat="39.657259" lon="3.370627">
        <ele>98.326</ele>
        <time>2021-09-01T09:05:43Z</time>
      </trkpt>
      <trkpt lat="39.657200" lon="3.370631">
        <ele>98.308</ele>
        <time>2021-09-01T09:05:44Z</time>
      </trkpt>
      <trkpt lat="39.657141" lon="3.370640">
        <ele>98.226</ele>
        <time>2021-09-01T09:05:45Z</time>
      </trkpt>
      <trkpt lat="39.657082" lon="3.370647">
        <ele>98.130</ele>
        <time>2021-09-01T09:05:46Z</time>
      </trkpt>
      <trkpt lat="39.657019" lon="3.370659">
        <ele>97.915</ele>
        <time>2021-09-01T09:05:47Z</time>
      </trkpt>
      <trkpt lat="39.656961" lon="3.370671">
        <ele>97.949</ele>
        <time>2021-09-01T09:05:48Z</time>
      </trkpt>
      <trkpt lat="39.656899" lon="3.370686">
        <ele>97.978</ele>
        <time>2021-09-01T09:05:49Z</time>
      </trkpt>
      <trkpt lat="39.656841" lon="3.370698">
        <ele>97.873</ele>
        <time>2021-09-01T09:05:50Z</time>
      </trkpt>
      <trkpt lat="39.656781" lon="3.370714">
        <ele>97.780</ele>
        <time>2021-09-01T09:05:51Z</time>
      </trkpt>
      <trkpt lat="39.656723" lon="3.370729">
        <ele>97.720</ele>
        <time>2021-09-01T09:05:52Z</time>
      </trkpt>
      <trkpt lat="39.656661" lon="3.370742">
        <ele>97.623</ele>
        <time>2021-09-01T09:05:53Z</time>
      </trkpt>
      <trkpt lat="39.656598" lon="3.370759">
        <ele>97.483</ele>
        <time>2021-09-01T09:05:54Z</time>
      </trkpt>
      <trkpt lat="39.656537" lon="3.370782">
        <ele>97.311</ele>
        <time>2021-09-01T09:05:55Z</time>
      </trkpt>
      <trkpt lat="39.656475" lon="3.370802">
        <ele>97.208</ele>
        <time>2021-09-01T09:05:56Z</time>
      </trkpt>
      <trkpt lat="39.656413" lon="3.370818">
        <ele>97.150</ele>
        <time>2021-09-01T09:05:57Z</time>
      </trkpt>
      <trkpt lat="39.656354" lon="3.370838">
        <ele>97.194</ele>
        <time>2021-09-01T09:05:58Z</time>
      </trkpt>
      <trkpt lat="39.656292" lon="3.370859">
        <ele>97.189</ele>
        <time>2021-09-01T09:05:59Z</time>
      </trkpt>
      <trkpt lat="39.656231" lon="3.370883">
        <ele>97.093</ele>
        <time>2021-09-01T09:06:00Z</time>
      </trkpt>
      <trkpt lat="39.656172" lon="3.370909">
        <ele>97.062</ele>
        <time>2021-09-01T09:06:01Z</time>
      </trkpt>
      <trkpt lat="39.656112" lon="3.370936">
        <ele>96.967</ele>
        <time>2021-09-01T09:06:02Z</time>
      </trkpt>
      <trkpt lat="39.656053" lon="3.370959">
        <ele>96.764</ele>
        <time>2021-09-01T09:06:03Z</time>
      </trkpt>
      <trkpt lat="39.655992" lon="3.370983">
        <ele>96.764</ele>
        <time>2021-09-01T09:06:04Z</time>
      </trkpt>
      <trkpt lat="39.655932" lon="3.371008">
        <ele>96.699</ele>
        <time>2021-09-01T09:06:05Z</time>
      </trkpt>
      <trkpt lat="39.655873" lon="3.371037">
        <ele>96.507</ele>
        <time>2021-09-01T09:06:06Z</time>
      </trkpt>
      <trkpt lat="39.655817" lon="3.371069">
        <ele>96.527</ele>
        <time>2021-09-01T09:06:07Z</time>
      </trkpt>
      <trkpt lat="39.655761" lon="3.371100">
        <ele>96.508</ele>
        <time>2021-09-01T09:06:08Z</time>
      </trkpt>
      <trkpt lat="39.655704" lon="3.371133">
        <ele>96.627</ele>
        <time>2021-09-01T09:06:09Z</time>
      </trkpt>
      <trkpt lat="39.655652" lon="3.371168">
        <ele>96.651</ele>
        <time>2021-09-01T09:06:10Z</time>
      </trkpt>
      <trkpt lat="39.655594" lon="3.371201">
        <ele>96.686</ele>
        <time>2021-09-01T09:06:11Z</time>
      </trkpt>
      <trkpt lat="39.655536" lon="3.371235">
        <ele>96.510</ele>
        <time>2021-09-01T09:06:12Z</time>
      </trkpt>
      <trkpt lat="39.655484" lon="3.371272">
        <ele>96.599</ele>
        <time>2021-09-01T09:06:13Z</time>
      </trkpt>
      <trkpt lat="39.655430" lon="3.371308">
        <ele>96.334</ele>
        <time>2021-09-01T09:06:14Z</time>
      </trkpt>
      <trkpt lat="39.655376" lon="3.371344">
        <ele>96.321</ele>
        <time>2021-09-01T09:06:15Z</time>
      </trkpt>
      <trkpt lat="39.655321" lon="3.371383">
        <ele>96.291</ele>
        <time>2021-09-01T09:06:16Z</time>
      </trkpt>
      <trkpt lat="39.655267" lon="3.371423">
        <ele>96.124</ele>
        <time>2021-09-01T09:06:17Z</time>
      </trkpt>
      <trkpt lat="39.655214" lon="3.371463">
        <ele>96.004</ele>
        <time>2021-09-01T09:06:18Z</time>
      </trkpt>
      <trkpt lat="39.655164" lon="3.371503">
        <ele>95.914</ele>
        <time>2021-09-01T09:06:19Z</time>
      </trkpt>
      <trkpt lat="39.655114" lon="3.371543">
        <ele>95.808</ele>
        <time>2021-09-01T09:06:20Z</time>
      </trkpt>
      <trkpt lat="39.655063" lon="3.371588">
        <ele>95.760</ele>
        <time>2021-09-01T09:06:21Z</time>
      </trkpt>
      <trkpt lat="39.655009" lon="3.371630">
        <ele>95.744</ele>
        <time>2021-09-01T09:06:22Z</time>
      </trkpt>
      <trkpt lat="39.654956" lon="3.371679">
        <ele>95.739</ele>
        <time>2021-09-01T09:06:23Z</time>
      </trkpt>
      <trkpt lat="39.654903" lon="3.371721">
        <ele>95.663</ele>
        <time>2021-09-01T09:06:24Z</time>
      </trkpt>
      <trkpt lat="39.654850" lon="3.371763">
        <ele>95.542</ele>
        <time>2021-09-01T09:06:25Z</time>
      </trkpt>
      <trkpt lat="39.654797" lon="3.371806">
        <ele>95.527</ele>
        <time>2021-09-01T09:06:26Z</time>
      </trkpt>
      <trkpt lat="39.654748" lon="3.371851">
        <ele>95.564</ele>
        <time>2021-09-01T09:06:27Z</time>
      </trkpt>
      <trkpt lat="39.654701" lon="3.371899">
        <ele>95.384</ele>
        <time>2021-09-01T09:06:28Z</time>
      </trkpt>
      <trkpt lat="39.654650" lon="3.371944">
        <ele>95.342</ele>
        <time>2021-09-01T09:06:29Z</time>
      </trkpt>
      <trkpt lat="39.654599" lon="3.371993">
        <ele>95.222</ele>
        <time>2021-09-01T09:06:30Z</time>
      </trkpt>
      <trkpt lat="39.654548" lon="3.372047">
        <ele>94.914</ele>
        <time>2021-09-01T09:06:31Z</time>
      </trkpt>
      <trkpt lat="39.654498" lon="3.372102">
        <ele>94.808</ele>
        <time>2021-09-01T09:06:32Z</time>
      </trkpt>
      <trkpt lat="39.654450" lon="3.372153">
        <ele>94.662</ele>
        <time>2021-09-01T09:06:33Z</time>
      </trkpt>
      <trkpt lat="39.654401" lon="3.372203">
        <ele>94.426</ele>
        <time>2021-09-01T09:06:34Z</time>
      </trkpt>
      <trkpt lat="39.654350" lon="3.372256">
        <ele>94.491</ele>
        <time>2021-09-01T09:06:35Z</time>
      </trkpt>
      <trkpt lat="39.654305" lon="3.372311">
        <ele>94.465</ele>
        <time>2021-09-01T09:06:36Z</time>
      </trkpt>
      <trkpt lat="39.654255" lon="3.372361">
        <ele>94.434</ele>
        <time>2021-09-01T09:06:37Z</time>
      </trkpt>
      <trkpt lat="39.654209" lon="3.372415">
        <ele>94.339</ele>
        <time>2021-09-01T09:06:38Z</time>
      </trkpt>
      <trkpt lat="39.654160" lon="3.372468">
        <ele>94.276</ele>
        <time>2021-09-01T09:06:39Z</time>
      </trkpt>
      <trkpt lat="39.654115" lon="3.372524">
        <ele>94.046</ele>
        <time>2021-09-01T09:06:40Z</time>
      </trkpt>
      <trkpt lat="39.654067" lon="3.372579">
        <ele>93.968</ele>
        <time>2021-09-01T09:06:41Z</time>
      </trkpt>
      <trkpt lat="39.654017" lon="3.372642">
        <ele>93.742</ele>
        <time>2021-09-01T09:06:42Z</time>
      </trkpt>
      <trkpt lat="39.653973" lon="3.372697">
        <ele>93.626</ele>
        <time>2021-09-01T09:06:43Z</time>
      </trkpt>
      <trkpt lat="39.653924" lon="3.372753">
        <ele>93.608</ele>
        <time>2021-09-01T09:06:44Z</time>
      </trkpt>
      <trkpt lat="39.653877" lon="3.372808">
        <ele>93.634</ele>
        <time>2021-09-01T09:06:45Z</time>
      </trkpt>
      <trkpt lat="39.653829" lon="3.372867">
        <ele>93.588</ele>
        <time>2021-09-01T09:06:46Z</time>
      </trkpt>
      <trkpt lat="39.653777" lon="3.372920">
        <ele>93.483</ele>
        <time>2021-09-01T09:06:47Z</time>
      </trkpt>
      <trkpt lat="39.653730" lon="3.372981">
        <ele>93.477</ele>
        <time>2021-09-01T09:06:48Z</time>
      </trkpt>
      <trkpt lat="39.653682" lon="3.373034">
        <ele>93.386</ele>
        <time>2021-09-01T09:06:49Z</time>
      </trkpt>
      <trkpt lat="39.653634" lon="3.373089">
        <ele>93.391</ele>
        <time>2021-09-01T09:06:50Z</time>
      </trkpt>
      <trkpt lat="39.653583" lon="3.373139">
        <ele>93.348</ele>
        <time>2021-09-01T09:06:51Z</time>
      </trkpt>
      <trkpt lat="39.653536" lon="3.373195">
        <ele>93.288</ele>
        <time>2021-09-01T09:06:52Z</time>
      </trkpt>
      <trkpt lat="39.653488" lon="3.373247">
        <ele>93.122</ele>
        <time>2021-09-01T09:06:53Z</time>
      </trkpt>
      <trkpt lat="39.653443" lon="3.373305">
        <ele>93.162</ele>
        <time>2021-09-01T09:06:54Z</time>
      </trkpt>
      <trkpt lat="39.653402" lon="3.373358">
        <ele>93.108</ele>
        <time>2021-09-01T09:06:55Z</time>
      </trkpt>
      <trkpt lat="39.653355" lon="3.373420">
        <ele>93.008</ele>
        <time>2021-09-01T09:06:56Z</time>
      </trkpt>
      <trkpt lat="39.653311" lon="3.373471">
        <ele>93.020</ele>
        <time>2021-09-01T09:06:57Z</time>
      </trkpt>
      <trkpt lat="39.653265" lon="3.373524">
        <ele>93.044</ele>
        <time>2021-09-01T09:06:58Z</time>
      </trkpt>
      <trkpt lat="39.653221" lon="3.373570">
        <ele>92.959</ele>
        <time>2021-09-01T09:06:59Z</time>
      </trkpt>
      <trkpt lat="39.653178" lon="3.373625">
        <ele>92.833</ele>
        <time>2021-09-01T09:07:00Z</time>
      </trkpt>
      <trkpt lat="39.653135" lon="3.373680">
        <ele>92.652</ele>
        <time>2021-09-01T09:07:01Z</time>
      </trkpt>
      <trkpt lat="39.653090" lon="3.373738">
        <ele>92.417</ele>
        <time>2021-09-01T09:07:02Z</time>
      </trkpt>
      <trkpt lat="39.653046" lon="3.373788">
        <ele>92.294</ele>
        <time>2021-09-01T09:07:03Z</time>
      </trkpt>
      <trkpt lat="39.653001" lon="3.373844">
        <ele>92.094</ele>
        <time>2021-09-01T09:07:04Z</time>
      </trkpt>
      <trkpt lat="39.652959" lon="3.373899">
        <ele>91.956</ele>
        <time>2021-09-01T09:07:05Z</time>
      </trkpt>
      <trkpt lat="39.652914" lon="3.373956">
        <ele>91.859</ele>
        <time>2021-09-01T09:07:06Z</time>
      </trkpt>
      <trkpt lat="39.652866" lon="3.374009">
        <ele>91.714</ele>
        <time>2021-09-01T09:07:07Z</time>
      </trkpt>
      <trkpt lat="39.652820" lon="3.374062">
        <ele>91.608</ele>
        <time>2021-09-01T09:07:08Z</time>
      </trkpt>
      <trkpt lat="39.652775" lon="3.374115">
        <ele>91.633</ele>
        <time>2021-09-01T09:07:09Z</time>
      </trkpt>
      <trkpt lat="39.652731" lon="3.374168">
        <ele>91.547</ele>
        <time>2021-09-01T09:07:10Z</time>
      </trkpt>
      <trkpt lat="39.652685" lon="3.374216">
        <ele>91.552</ele>
        <time>2021-09-01T09:07:11Z</time>
      </trkpt>
      <trkpt lat="39.652639" lon="3.374266">
        <ele>91.516</ele>
        <time>2021-09-01T09:07:12Z</time>
      </trkpt>
      <trkpt lat="39.652597" lon="3.374319">
        <ele>91.535</ele>
        <time>2021-09-01T09:07:13Z</time>
      </trkpt>
      <trkpt lat="39.652551" lon="3.374374">
        <ele>91.540</ele>
        <time>2021-09-01T09:07:14Z</time>
      </trkpt>
      <trkpt lat="39.652507" lon="3.374427">
        <ele>91.457</ele>
        <time>2021-09-01T09:07:15Z</time>
      </trkpt>
      <trkpt lat="39.652462" lon="3.374480">
        <ele>91.367</ele>
        <time>2021-09-01T09:07:16Z</time>
      </trkpt>
      <trkpt lat="39.652408" lon="3.374524">
        <ele>91.274</ele>
        <time>2021-09-01T09:07:17Z</time>
      </trkpt>
      <trkpt lat="39.652358" lon="3.374572">
        <ele>91.256</ele>
        <time>2021-09-01T09:07:18Z</time>
      </trkpt>
      <trkpt lat="39.652308" lon="3.374619">
        <ele>91.221</ele>
        <time>2021-09-01T09:07:19Z</time>
      </trkpt>
      <trkpt lat="39.652256" lon="3.374666">
        <ele>91.108</ele>
        <time>2021-09-01T09:07:20Z</time>
      </trkpt>
      <trkpt lat="39.652212" lon="3.374709">
        <ele>91.025</ele>
        <time>2021-09-01T09:07:21Z</time>
      </trkpt>
      <trkpt lat="39.652170" lon="3.374755">
        <ele>90.879</ele>
        <time>2021-09-01T09:07:22Z</time>
      </trkpt>
      <trkpt lat="39.652117" lon="3.374784">
        <ele>90.684</ele>
        <time>2021-09-01T09:07:23Z</time>
      </trkpt>
      <trkpt lat="39.652059" lon="3.374814">
        <ele>90.468</ele>
        <time>2021-09-01T09:07:24Z</time>
      </trkpt>
      <trkpt lat="39.651996" lon="3.374846">
        <ele>90.317</ele>
        <time>2021-09-01T09:07:25Z</time>
      </trkpt>
      <trkpt lat="39.651954" lon="3.374892">
        <ele>90.142</ele>
        <time>2021-09-01T09:07:26Z</time>
      </trkpt>
      <trkpt lat="39.651904" lon="3.374928">
        <ele>90.169</ele>
        <time>2021-09-01T09:07:27Z</time>
      </trkpt>
      <trkpt lat="39.651853" lon="3.374964">
        <ele>90.239</ele>
        <time>2021-09-01T09:07:28Z</time>
      </trkpt>
      <trkpt lat="39.651813" lon="3.375005">
        <ele>90.348</ele>
        <time>2021-09-01T09:07:29Z</time>
      </trkpt>
      <trkpt lat="39.651767" lon="3.375046">
        <ele>90.461</ele>
        <time>2021-09-01T09:07:30Z</time>
      </trkpt>
      <trkpt lat="39.651717" lon="3.375084">
        <ele>90.517</ele>
        <time>2021-09-01T09:07:31Z</time>
      </trkpt>
      <trkpt lat="39.651664" lon="3.375120">
        <ele>90.508</ele>
        <time>2021-09-01T09:07:32Z</time>
      </trkpt>
      <trkpt lat="39.651608" lon="3.375143">
        <ele>90.462</ele>
        <time>2021-09-01T09:07:33Z</time>
      </trkpt>
      <trkpt lat="39.651552" lon="3.375171">
        <ele>90.456</ele>
        <time>2021-09-01T09:07:34Z</time>
      </trkpt>
      <trkpt lat="39.651501" lon="3.375203">
        <ele>90.461</ele>
        <time>2021-09-01T09:07:35Z</time>
      </trkpt>
      <trkpt lat="39.651450" lon="3.375247">
        <ele>90.425</ele>
        <time>2021-09-01T09:07:36Z</time>
      </trkpt>
      <trkpt lat="39.651400" lon="3.375278">
        <ele>90.424</ele>
        <time>2021-09-01T09:07:37Z</time>
      </trkpt>
      <trkpt lat="39.651349" lon="3.375303">
        <ele>90.479</ele>
        <time>2021-09-01T09:07:38Z</time>
      </trkpt>
      <trkpt lat="39.651300" lon="3.375337">
        <ele>90.326</ele>
        <time>2021-09-01T09:07:39Z</time>
      </trkpt>
      <trkpt lat="39.651245" lon="3.375365">
        <ele>90.386</ele>
        <time>2021-09-01T09:07:40Z</time>
      </trkpt>
      <trkpt lat="39.651188" lon="3.375393">
        <ele>90.232</ele>
        <time>2021-09-01T09:07:41Z</time>
      </trkpt>
      <trkpt lat="39.651141" lon="3.375427">
        <ele>90.092</ele>
        <time>2021-09-01T09:07:42Z</time>
      </trkpt>
      <trkpt lat="39.651091" lon="3.375450">
        <ele>89.811</ele>
        <time>2021-09-01T09:07:43Z</time>
      </trkpt>
      <trkpt lat="39.651041" lon="3.375478">
        <ele>89.808</ele>
        <time>2021-09-01T09:07:44Z</time>
      </trkpt>
      <trkpt lat="39.650981" lon="3.375500">
        <ele>89.571</ele>
        <time>2021-09-01T09:07:45Z</time>
      </trkpt>
      <trkpt lat="39.650934" lon="3.375516">
        <ele>89.345</ele>
        <time>2021-09-01T09:07:46Z</time>
      </trkpt>
      <trkpt lat="39.650877" lon="3.375532">
        <ele>89.240</ele>
        <time>2021-09-01T09:07:47Z</time>
      </trkpt>
      <trkpt lat="39.650814" lon="3.375553">
        <ele>89.184</ele>
        <time>2021-09-01T09:07:48Z</time>
      </trkpt>
      <trkpt lat="39.650762" lon="3.375566">
        <ele>89.173</ele>
        <time>2021-09-01T09:07:49Z</time>
      </trkpt>
      <trkpt lat="39.650715" lon="3.375578">
        <ele>89.148</ele>
        <time>2021-09-01T09:07:50Z</time>
      </trkpt>
      <trkpt lat="39.650663" lon="3.375580">
        <ele>89.255</ele>
        <time>2021-09-01T09:07:51Z</time>
      </trkpt>
      <trkpt lat="39.650612" lon="3.375595">
        <ele>89.225</ele>
        <time>2021-09-01T09:07:52Z</time>
      </trkpt>
      <trkpt lat="39.650555" lon="3.375609">
        <ele>89.299</ele>
        <time>2021-09-01T09:07:53Z</time>
      </trkpt>
      <trkpt lat="39.650496" lon="3.375617">
        <ele>89.007</ele>
        <time>2021-09-01T09:07:54Z</time>
      </trkpt>
      <trkpt lat="39.650437" lon="3.375638">
        <ele>88.827</ele>
        <time>2021-09-01T09:07:55Z</time>
      </trkpt>
      <trkpt lat="39.650376" lon="3.375655">
        <ele>88.508</ele>
        <time>2021-09-01T09:07:56Z</time>
      </trkpt>
      <trkpt lat="39.650316" lon="3.375669">
        <ele>88.217</ele>
        <time>2021-09-01T09:07:57Z</time>
      </trkpt>
      <trkpt lat="39.650259" lon="3.375685">
        <ele>88.191</ele>
        <time>2021-09-01T09:07:58Z</time>
      </trkpt>
      <trkpt lat="39.650194" lon="3.375692">
        <ele>87.966</ele>
        <time>2021-09-01T09:07:59Z</time>
      </trkpt>
      <trkpt lat="39.650139" lon="3.375706">
        <ele>87.730</ele>
        <time>2021-09-01T09:08:00Z</time>
      </trkpt>
      <trkpt lat="39.650075" lon="3.375721">
        <ele>87.659</ele>
        <time>2021-09-01T09:08:01Z</time>
      </trkpt>
      <trkpt lat="39.650009" lon="3.375728">
        <ele>87.494</ele>
        <time>2021-09-01T09:08:02Z</time>
      </trkpt>
      <trkpt lat="39.649942" lon="3.375735">
        <ele>87.181</ele>
        <time>2021-09-01T09:08:03Z</time>
      </trkpt>
      <trkpt lat="39.649877" lon="3.375747">
        <ele>86.711</ele>
        <time>2021-09-01T09:08:04Z</time>
      </trkpt>
      <trkpt lat="39.649814" lon="3.375753">
        <ele>86.728</ele>
        <time>2021-09-01T09:08:05Z</time>
      </trkpt>
      <trkpt lat="39.649751" lon="3.375753">
        <ele>86.689</ele>
        <time>2021-09-01T09:08:06Z</time>
      </trkpt>
      <trkpt lat="39.649690" lon="3.375752">
        <ele>86.417</ele>
        <time>2021-09-01T09:08:07Z</time>
      </trkpt>
      <trkpt lat="39.649627" lon="3.375754">
        <ele>86.208</ele>
        <time>2021-09-01T09:08:08Z</time>
      </trkpt>
      <trkpt lat="39.649561" lon="3.375753">
        <ele>85.920</ele>
        <time>2021-09-01T09:08:09Z</time>
      </trkpt>
      <trkpt lat="39.649492" lon="3.375762">
        <ele>85.514</ele>
        <time>2021-09-01T09:08:10Z</time>
      </trkpt>
      <trkpt lat="39.649428" lon="3.375756">
        <ele>85.179</ele>
        <time>2021-09-01T09:08:11Z</time>
      </trkpt>
      <trkpt lat="39.649366" lon="3.375753">
        <ele>84.893</ele>
        <time>2021-09-01T09:08:12Z</time>
      </trkpt>
      <trkpt lat="39.649308" lon="3.375740">
        <ele>84.832</ele>
        <time>2021-09-01T09:08:13Z</time>
      </trkpt>
      <trkpt lat="39.649248" lon="3.375732">
        <ele>84.837</ele>
        <time>2021-09-01T09:08:14Z</time>
      </trkpt>
      <trkpt lat="39.649190" lon="3.375730">
        <ele>84.834</ele>
        <time>2021-09-01T09:08:15Z</time>
      </trkpt>
      <trkpt lat="39.649131" lon="3.375726">
        <ele>84.884</ele>
        <time>2021-09-01T09:08:16Z</time>
      </trkpt>
      <trkpt lat="39.649076" lon="3.375712">
        <ele>84.896</ele>
        <time>2021-09-01T09:08:17Z</time>
      </trkpt>
      <trkpt lat="39.649020" lon="3.375705">
        <ele>84.731</ele>
        <time>2021-09-01T09:08:18Z</time>
      </trkpt>
      <trkpt lat="39.648965" lon="3.375698">
        <ele>84.424</ele>
        <time>2021-09-01T09:08:19Z</time>
      </trkpt>
      <trkpt lat="39.648906" lon="3.375689">
        <ele>84.208</ele>
        <time>2021-09-01T09:08:20Z</time>
      </trkpt>
      <trkpt lat="39.648848" lon="3.375679">
        <ele>84.127</ele>
        <time>2021-09-01T09:08:21Z</time>
      </trkpt>
      <trkpt lat="39.648788" lon="3.375675">
        <ele>84.071</ele>
        <time>2021-09-01T09:08:22Z</time>
      </trkpt>
      <trkpt lat="39.648730" lon="3.375666">
        <ele>84.046</ele>
        <time>2021-09-01T09:08:23Z</time>
      </trkpt>
      <trkpt lat="39.648669" lon="3.375654">
        <ele>84.130</ele>
        <time>2021-09-01T09:08:24Z</time>
      </trkpt>
      <trkpt lat="39.648609" lon="3.375648">
        <ele>84.159</ele>
        <time>2021-09-01T09:08:25Z</time>
      </trkpt>
      <trkpt lat="39.648545" lon="3.375639">
        <ele>84.054</ele>
        <time>2021-09-01T09:08:26Z</time>
      </trkpt>
      <trkpt lat="39.648484" lon="3.375626">
        <ele>84.011</ele>
        <time>2021-09-01T09:08:27Z</time>
      </trkpt>
      <trkpt lat="39.648422" lon="3.375613">
        <ele>83.861</ele>
        <time>2021-09-01T09:08:28Z</time>
      </trkpt>
      <trkpt lat="39.648359" lon="3.375601">
        <ele>83.637</ele>
        <time>2021-09-01T09:08:29Z</time>
      </trkpt>
      <trkpt lat="39.648299" lon="3.375587">
        <ele>83.549</ele>
        <time>2021-09-01T09:08:30Z</time>
      </trkpt>
      <trkpt lat="39.648235" lon="3.375574">
        <ele>83.313</ele>
        <time>2021-09-01T09:08:31Z</time>
      </trkpt>
      <trkpt lat="39.648175" lon="3.375564">
        <ele>83.208</ele>
        <time>2021-09-01T09:08:32Z</time>
      </trkpt>
      <trkpt lat="39.648112" lon="3.375556">
        <ele>83.191</ele>
        <time>2021-09-01T09:08:33Z</time>
      </trkpt>
      <trkpt lat="39.648046" lon="3.375546">
        <ele>83.155</ele>
        <time>2021-09-01T09:08:34Z</time>
      </trkpt>
      <trkpt lat="39.647984" lon="3.375534">
        <ele>83.020</ele>
        <time>2021-09-01T09:08:35Z</time>
      </trkpt>
      <trkpt lat="39.647920" lon="3.375515">
        <ele>83.014</ele>
        <time>2021-09-01T09:08:36Z</time>
      </trkpt>
      <trkpt lat="39.647855" lon="3.375497">
        <ele>82.953</ele>
        <time>2021-09-01T09:08:37Z</time>
      </trkpt>
      <trkpt lat="39.647793" lon="3.375493">
        <ele>82.858</ele>
        <time>2021-09-01T09:08:38Z</time>
      </trkpt>
      <trkpt lat="39.647729" lon="3.375482">
        <ele>82.825</ele>
        <time>2021-09-01T09:08:39Z</time>
      </trkpt>
      <trkpt lat="39.647663" lon="3.375458">
        <ele>82.865</ele>
        <time>2021-09-01T09:08:40Z</time>
      </trkpt>
      <trkpt lat="39.647600" lon="3.375433">
        <ele>82.825</ele>
        <time>2021-09-01T09:08:41Z</time>
      </trkpt>
      <trkpt lat="39.647539" lon="3.375410">
        <ele>82.826</ele>
        <time>2021-09-01T09:08:42Z</time>
      </trkpt>
      <trkpt lat="39.647473" lon="3.375391">
        <ele>82.808</ele>
        <time>2021-09-01T09:08:43Z</time>
      </trkpt>
      <trkpt lat="39.647409" lon="3.375369">
        <ele>82.708</ele>
        <time>2021-09-01T09:08:44Z</time>
      </trkpt>
      <trkpt lat="39.647346" lon="3.375340">
        <ele>82.770</ele>
        <time>2021-09-01T09:08:45Z</time>
      </trkpt>
      <trkpt lat="39.647283" lon="3.375312">
        <ele>82.714</ele>
        <time>2021-09-01T09:08:46Z</time>
      </trkpt>
      <trkpt lat="39.647221" lon="3.375281">
        <ele>82.799</ele>
        <time>2021-09-01T09:08:47Z</time>
      </trkpt>
      <trkpt lat="39.647155" lon="3.375253">
        <ele>82.663</ele>
        <time>2021-09-01T09:08:48Z</time>
      </trkpt>
      <trkpt lat="39.647097" lon="3.375213">
        <ele>82.692</ele>
        <time>2021-09-01T09:08:49Z</time>
      </trkpt>
      <trkpt lat="39.647034" lon="3.375190">
        <ele>82.677</ele>
        <time>2021-09-01T09:08:50Z</time>
      </trkpt>
      <trkpt lat="39.646972" lon="3.375165">
        <ele>82.534</ele>
        <time>2021-09-01T09:08:51Z</time>
      </trkpt>
      <trkpt lat="39.646915" lon="3.375133">
        <ele>82.514</ele>
        <time>2021-09-01T09:08:52Z</time>
      </trkpt>
      <trkpt lat="39.646861" lon="3.375089">
        <ele>82.563</ele>
        <time>2021-09-01T09:08:53Z</time>
      </trkpt>
      <trkpt lat="39.646805" lon="3.375047">
        <ele>82.544</ele>
        <time>2021-09-01T09:08:54Z</time>
      </trkpt>
      <trkpt lat="39.646745" lon="3.374998">
        <ele>82.518</ele>
        <time>2021-09-01T09:08:55Z</time>
      </trkpt>
      <trkpt lat="39.646690" lon="3.374940">
        <ele>82.508</ele>
        <time>2021-09-01T09:08:56Z</time>
      </trkpt>
      <trkpt lat="39.646643" lon="3.374896">
        <ele>82.564</ele>
        <time>2021-09-01T09:08:57Z</time>
      </trkpt>
      <trkpt lat="39.646585" lon="3.374860">
        <ele>82.538</ele>
        <time>2021-09-01T09:08:58Z</time>
      </trkpt>
      <trkpt lat="39.646527" lon="3.374825">
        <ele>82.553</ele>
        <time>2021-09-01T09:08:59Z</time>
      </trkpt>
      <trkpt lat="39.646470" lon="3.374785">
        <ele>82.467</ele>
        <time>2021-09-01T09:09:00Z</time>
      </trkpt>
      <trkpt lat="39.646423" lon="3.374730">
        <ele>82.466</ele>
        <time>2021-09-01T09:09:01Z</time>
      </trkpt>
      <trkpt lat="39.646373" lon="3.374666">
        <ele>82.311</ele>
        <time>2021-09-01T09:09:02Z</time>
      </trkpt>
      <trkpt lat="39.646327" lon="3.374613">
        <ele>82.338</ele>
        <time>2021-09-01T09:09:03Z</time>
      </trkpt>
      <trkpt lat="39.646273" lon="3.374559">
        <ele>82.288</ele>
        <time>2021-09-01T09:09:04Z</time>
      </trkpt>
      <trkpt lat="39.646217" lon="3.374512">
        <ele>82.198</ele>
        <time>2021-09-01T09:09:05Z</time>
      </trkpt>
      <trkpt lat="39.646168" lon="3.374452">
        <ele>81.915</ele>
        <time>2021-09-01T09:09:06Z</time>
      </trkpt>
      <trkpt lat="39.646122" lon="3.374393">
        <ele>81.826</ele>
        <time>2021-09-01T09:09:07Z</time>
      </trkpt>
      <trkpt lat="39.646070" lon="3.374339">
        <ele>81.708</ele>
        <time>2021-09-01T09:09:08Z</time>
      </trkpt>
      <trkpt lat="39.646024" lon="3.374270">
        <ele>81.757</ele>
        <time>2021-09-01T09:09:09Z</time>
      </trkpt>
      <trkpt lat="39.645981" lon="3.374211">
        <ele>81.651</ele>
        <time>2021-09-01T09:09:10Z</time>
      </trkpt>
      <trkpt lat="39.645939" lon="3.374141">
        <ele>81.666</ele>
        <time>2021-09-01T09:09:11Z</time>
      </trkpt>
      <trkpt lat="39.645906" lon="3.374067">
        <ele>81.550</ele>
        <time>2021-09-01T09:09:12Z</time>
      </trkpt>
      <trkpt lat="39.645859" lon="3.374011">
        <ele>81.479</ele>
        <time>2021-09-01T09:09:13Z</time>
      </trkpt>
      <trkpt lat="39.645819" lon="3.373942">
        <ele>81.374</ele>
        <time>2021-09-01T09:09:14Z</time>
      </trkpt>
      <trkpt lat="39.645774" lon="3.373878">
        <ele>81.221</ele>
        <time>2021-09-01T09:09:15Z</time>
      </trkpt>
      <trkpt lat="39.645730" lon="3.373805">
        <ele>81.261</ele>
        <time>2021-09-01T09:09:16Z</time>
      </trkpt>
      <trkpt lat="39.645692" lon="3.373745">
        <ele>81.167</ele>
        <time>2021-09-01T09:09:17Z</time>
      </trkpt>
      <trkpt lat="39.645654" lon="3.373674">
        <ele>81.081</ele>
        <time>2021-09-01T09:09:18Z</time>
      </trkpt>
      <trkpt lat="39.645619" lon="3.373605">
        <ele>80.919</ele>
        <time>2021-09-01T09:09:19Z</time>
      </trkpt>
      <trkpt lat="39.645590" lon="3.373541">
        <ele>80.908</ele>
        <time>2021-09-01T09:09:20Z</time>
      </trkpt>
      <trkpt lat="39.645554" lon="3.373465">
        <ele>80.924</ele>
        <time>2021-09-01T09:09:21Z</time>
      </trkpt>
      <trkpt lat="39.645518" lon="3.373390">
        <ele>80.918</ele>
        <time>2021-09-01T09:09:22Z</time>
      </trkpt>
      <trkpt lat="39.645486" lon="3.373304">
        <ele>80.883</ele>
        <time>2021-09-01T09:09:23Z</time>
      </trkpt>
      <trkpt lat="39.645449" lon="3.373228">
        <ele>80.817</ele>
        <time>2021-09-01T09:09:24Z</time>
      </trkpt>
      <trkpt lat="39.645412" lon="3.373152">
        <ele>80.876</ele>
        <time>2021-09-01T09:09:25Z</time>
      </trkpt>
      <trkpt lat="39.645382" lon="3.373080">
        <ele>80.631</ele>
        <time>2021-09-01T09:09:26Z</time>
      </trkpt>
      <trkpt lat="39.645343" lon="3.373004">
        <ele>80.658</ele>
        <time>2021-09-01T09:09:27Z</time>
      </trkpt>
      <trkpt lat="39.645308" lon="3.372932">
        <ele>80.578</ele>
        <time>2021-09-01T09:09:28Z</time>
      </trkpt>
      <trkpt lat="39.645272" lon="3.372859">
        <ele>80.462</ele>
        <time>2021-09-01T09:09:29Z</time>
      </trkpt>
      <trkpt lat="39.645236" lon="3.372791">
        <ele>80.383</ele>
        <time>2021-09-01T09:09:30Z</time>
      </trkpt>
      <trkpt lat="39.645201" lon="3.372726">
        <ele>80.311</ele>
        <time>2021-09-01T09:09:31Z</time>
      </trkpt>
      <trkpt lat="39.645160" lon="3.372652">
        <ele>80.108</ele>
        <time>2021-09-01T09:09:32Z</time>
      </trkpt>
      <trkpt lat="39.645126" lon="3.372580">
        <ele>80.074</ele>
        <time>2021-09-01T09:09:33Z</time>
      </trkpt>
      <trkpt lat="39.645088" lon="3.372511">
        <ele>79.998</ele>
        <time>2021-09-01T09:09:34Z</time>
      </trkpt>
      <trkpt lat="39.645050" lon="3.372443">
        <ele>79.873</ele>
        <time>2021-09-01T09:09:35Z</time>
      </trkpt>
      <trkpt lat="39.645014" lon="3.372376">
        <ele>79.687</ele>
        <time>2021-09-01T09:09:36Z</time>
      </trkpt>
      <trkpt lat="39.644972" lon="3.372307">
        <ele>79.436</ele>
        <time>2021-09-01T09:09:37Z</time>
      </trkpt>
      <trkpt lat="39.644934" lon="3.372242">
        <ele>79.271</ele>
        <time>2021-09-01T09:09:38Z</time>
      </trkpt>
      <trkpt lat="39.644900" lon="3.372178">
        <ele>79.048</ele>
        <time>2021-09-01T09:09:39Z</time>
      </trkpt>
      <trkpt lat="39.644862" lon="3.372112">
        <ele>78.858</ele>
        <time>2021-09-01T09:09:40Z</time>
      </trkpt>
      <trkpt lat="39.644829" lon="3.372043">
        <ele>78.798</ele>
        <time>2021-09-01T09:09:41Z</time>
      </trkpt>
      <trkpt lat="39.644793" lon="3.371977">
        <ele>78.615</ele>
        <time>2021-09-01T09:09:42Z</time>
      </trkpt>
      <trkpt lat="39.644754" lon="3.371914">
        <ele>78.526</ele>
        <time>2021-09-01T09:09:43Z</time>
      </trkpt>
      <trkpt lat="39.644711" lon="3.371855">
        <ele>78.408</ele>
        <time>2021-09-01T09:09:44Z</time>
      </trkpt>
      <trkpt lat="39.644675" lon="3.371794">
        <ele>78.487</ele>
        <time>2021-09-01T09:09:45Z</time>
      </trkpt>
      <trkpt lat="39.644640" lon="3.371740">
        <ele>78.331</ele>
        <time>2021-09-01T09:09:46Z</time>
      </trkpt>
      <trkpt lat="39.644600" lon="3.371683">
        <ele>78.356</ele>
        <time>2021-09-01T09:09:47Z</time>
      </trkpt>
      <trkpt lat="39.644562" lon="3.371631">
        <ele>78.110</ele>
        <time>2021-09-01T09:09:48Z</time>
      </trkpt>
      <trkpt lat="39.644524" lon="3.371571">
        <ele>78.139</ele>
        <time>2021-09-01T09:09:49Z</time>
      </trkpt>
      <trkpt lat="39.644485" lon="3.371518">
        <ele>78.054</ele>
        <time>2021-09-01T09:09:50Z</time>
      </trkpt>
      <trkpt lat="39.644441" lon="3.371467">
        <ele>78.031</ele>
        <time>2021-09-01T09:09:51Z</time>
      </trkpt>
      <trkpt lat="39.644393" lon="3.371410">
        <ele>77.961</ele>
        <time>2021-09-01T09:09:52Z</time>
      </trkpt>
      <trkpt lat="39.644353" lon="3.371369">
        <ele>77.817</ele>
        <time>2021-09-01T09:09:53Z</time>
      </trkpt>
      <trkpt lat="39.644313" lon="3.371320">
        <ele>77.887</ele>
        <time>2021-09-01T09:09:54Z</time>
      </trkpt>
      <trkpt lat="39.644273" lon="3.371267">
        <ele>77.715</ele>
        <time>2021-09-01T09:09:55Z</time>
      </trkpt>
      <trkpt lat="39.644230" lon="3.371218">
        <ele>77.608</ele>
        <time>2021-09-01T09:09:56Z</time>
      </trkpt>
      <trkpt lat="39.644180" lon="3.371176">
        <ele>77.689</ele>
        <time>2021-09-01T09:09:57Z</time>
      </trkpt>
      <trkpt lat="39.644137" lon="3.371121">
        <ele>77.643</ele>
        <time>2021-09-01T09:09:58Z</time>
      </trkpt>
      <trkpt lat="39.644084" lon="3.371076">
        <ele>77.688</ele>
        <time>2021-09-01T09:09:59Z</time>
      </trkpt>
      <trkpt lat="39.644033" lon="3.371031">
        <ele>77.572</ele>
        <time>2021-09-01T09:10:00Z</time>
      </trkpt>
      <trkpt lat="39.643983" lon="3.370994">
        <ele>77.561</ele>
        <time>2021-09-01T09:10:01Z</time>
      </trkpt>
      <trkpt lat="39.643933" lon="3.370951">
        <ele>77.416</ele>
        <time>2021-09-01T09:10:02Z</time>
      </trkpt>
      <trkpt lat="39.643883" lon="3.370913">
        <ele>77.323</ele>
        <time>2021-09-01T09:10:03Z</time>
      </trkpt>
      <trkpt lat="39.643830" lon="3.370881">
        <ele>77.173</ele>
        <time>2021-09-01T09:10:04Z</time>
      </trkpt>
      <trkpt lat="39.643778" lon="3.370849">
        <ele>77.072</ele>
        <time>2021-09-01T09:10:05Z</time>
      </trkpt>
      <trkpt lat="39.643726" lon="3.370827">
        <ele>76.913</ele>
        <time>2021-09-01T09:10:06Z</time>
      </trkpt>
      <trkpt lat="39.643676" lon="3.370788">
        <ele>76.714</ele>
        <time>2021-09-01T09:10:07Z</time>
      </trkpt>
      <trkpt lat="39.643631" lon="3.370747">
        <ele>76.608</ele>
        <time>2021-09-01T09:10:08Z</time>
      </trkpt>
      <trkpt lat="39.643581" lon="3.370717">
        <ele>76.525</ele>
        <time>2021-09-01T09:10:09Z</time>
      </trkpt>
      <trkpt lat="39.643532" lon="3.370689">
        <ele>76.369</ele>
        <time>2021-09-01T09:10:10Z</time>
      </trkpt>
      <trkpt lat="39.643484" lon="3.370660">
        <ele>76.274</ele>
        <time>2021-09-01T09:10:11Z</time>
      </trkpt>
      <trkpt lat="39.643434" lon="3.370627">
        <ele>76.188</ele>
        <time>2021-09-01T09:10:12Z</time>
      </trkpt>
      <trkpt lat="39.643385" lon="3.370599">
        <ele>76.177</ele>
        <time>2021-09-01T09:10:13Z</time>
      </trkpt>
      <trkpt lat="39.643333" lon="3.370566">
        <ele>76.172</ele>
        <time>2021-09-01T09:10:14Z</time>
      </trkpt>
      <trkpt lat="39.643280" lon="3.370541">
        <ele>76.179</ele>
        <time>2021-09-01T09:10:15Z</time>
      </trkpt>
      <trkpt lat="39.643231" lon="3.370511">
        <ele>76.199</ele>
        <time>2021-09-01T09:10:16Z</time>
      </trkpt>
      <trkpt lat="39.643152" lon="3.370466">
        <ele>76.259</ele>
        <time>2021-09-01T09:10:18Z</time>
      </trkpt>
      <trkpt lat="39.643093" lon="3.370433">
        <ele>76.603</ele>
        <time>2021-09-01T09:10:20Z</time>
      </trkpt>
      <trkpt lat="39.643024" lon="3.370418">
        <ele>77.123</ele>
        <time>2021-09-01T09:10:22Z</time>
      </trkpt>
      <trkpt lat="39.642948" lon="3.370390">
        <ele>77.408</ele>
        <time>2021-09-01T09:10:24Z</time>
      </trkpt>
      <trkpt lat="39.642896" lon="3.370370">
        <ele>77.423</ele>
        <time>2021-09-01T09:10:25Z</time>
      </trkpt>
      <trkpt lat="39.642840" lon="3.370354">
        <ele>77.357</ele>
        <time>2021-09-01T09:10:26Z</time>
      </trkpt>
      <trkpt lat="39.642784" lon="3.370337">
        <ele>77.122</ele>
        <time>2021-09-01T09:10:27Z</time>
      </trkpt>
      <trkpt lat="39.642721" lon="3.370315">
        <ele>76.966</ele>
        <time>2021-09-01T09:10:28Z</time>
      </trkpt>
      <trkpt lat="39.642657" lon="3.370292">
        <ele>76.795</ele>
        <time>2021-09-01T09:10:29Z</time>
      </trkpt>
      <trkpt lat="39.642595" lon="3.370276">
        <ele>76.490</ele>
        <time>2021-09-01T09:10:30Z</time>
      </trkpt>
      <trkpt lat="39.642529" lon="3.370265">
        <ele>76.347</ele>
        <time>2021-09-01T09:10:31Z</time>
      </trkpt>
      <trkpt lat="39.642467" lon="3.370253">
        <ele>76.127</ele>
        <time>2021-09-01T09:10:32Z</time>
      </trkpt>
      <trkpt lat="39.642402" lon="3.370237">
        <ele>76.149</ele>
        <time>2021-09-01T09:10:33Z</time>
      </trkpt>
      <trkpt lat="39.642339" lon="3.370219">
        <ele>76.002</ele>
        <time>2021-09-01T09:10:34Z</time>
      </trkpt>
      <trkpt lat="39.642278" lon="3.370203">
        <ele>76.022</ele>
        <time>2021-09-01T09:10:35Z</time>
      </trkpt>
      <trkpt lat="39.642215" lon="3.370187">
        <ele>75.908</ele>
        <time>2021-09-01T09:10:36Z</time>
      </trkpt>
      <trkpt lat="39.642159" lon="3.370171">
        <ele>75.862</ele>
        <time>2021-09-01T09:10:37Z</time>
      </trkpt>
      <trkpt lat="39.642104" lon="3.370165">
        <ele>75.636</ele>
        <time>2021-09-01T09:10:38Z</time>
      </trkpt>
      <trkpt lat="39.642046" lon="3.370153">
        <ele>75.561</ele>
        <time>2021-09-01T09:10:39Z</time>
      </trkpt>
      <trkpt lat="39.641993" lon="3.370137">
        <ele>75.435</ele>
        <time>2021-09-01T09:10:40Z</time>
      </trkpt>
      <trkpt lat="39.641938" lon="3.370119">
        <ele>75.234</ele>
        <time>2021-09-01T09:10:41Z</time>
      </trkpt>
      <trkpt lat="39.641882" lon="3.370105">
        <ele>75.289</ele>
        <time>2021-09-01T09:10:42Z</time>
      </trkpt>
      <trkpt lat="39.641827" lon="3.370087">
        <ele>75.276</ele>
        <time>2021-09-01T09:10:43Z</time>
      </trkpt>
      <trkpt lat="39.641771" lon="3.370069">
        <ele>75.126</ele>
        <time>2021-09-01T09:10:44Z</time>
      </trkpt>
      <trkpt lat="39.641720" lon="3.370051">
        <ele>75.152</ele>
        <time>2021-09-01T09:10:45Z</time>
      </trkpt>
      <trkpt lat="39.641671" lon="3.370029">
        <ele>75.153</ele>
        <time>2021-09-01T09:10:46Z</time>
      </trkpt>
      <trkpt lat="39.641618" lon="3.370014">
        <ele>75.108</ele>
        <time>2021-09-01T09:10:47Z</time>
      </trkpt>
      <trkpt lat="39.641566" lon="3.370003">
        <ele>75.108</ele>
        <time>2021-09-01T09:10:48Z</time>
      </trkpt>
      <trkpt lat="39.641512" lon="3.370001">
        <ele>75.153</ele>
        <time>2021-09-01T09:10:49Z</time>
      </trkpt>
      <trkpt lat="39.641459" lon="3.369994">
        <ele>75.027</ele>
        <time>2021-09-01T09:10:50Z</time>
      </trkpt>
      <trkpt lat="39.641399" lon="3.369981">
        <ele>74.982</ele>
        <time>2021-09-01T09:10:51Z</time>
      </trkpt>
      <trkpt lat="39.641345" lon="3.369970">
        <ele>74.846</ele>
        <time>2021-09-01T09:10:52Z</time>
      </trkpt>
      <trkpt lat="39.641291" lon="3.369961">
        <ele>74.755</ele>
        <time>2021-09-01T09:10:53Z</time>
      </trkpt>
      <trkpt lat="39.641233" lon="3.369949">
        <ele>74.610</ele>
        <time>2021-09-01T09:10:54Z</time>
      </trkpt>
      <trkpt lat="39.641176" lon="3.369936">
        <ele>74.467</ele>
        <time>2021-09-01T09:10:55Z</time>
      </trkpt>
      <trkpt lat="39.641120" lon="3.369924">
        <ele>74.267</ele>
        <time>2021-09-01T09:10:56Z</time>
      </trkpt>
      <trkpt lat="39.641067" lon="3.369911">
        <ele>74.141</ele>
        <time>2021-09-01T09:10:57Z</time>
      </trkpt>
      <trkpt lat="39.641014" lon="3.369898">
        <ele>74.181</ele>
        <time>2021-09-01T09:10:58Z</time>
      </trkpt>
      <trkpt lat="39.640963" lon="3.369882">
        <ele>74.109</ele>
        <time>2021-09-01T09:10:59Z</time>
      </trkpt>
      <trkpt lat="39.640901" lon="3.369879">
        <ele>74.108</ele>
        <time>2021-09-01T09:11:00Z</time>
      </trkpt>
      <trkpt lat="39.640848" lon="3.369863">
        <ele>74.052</ele>
        <time>2021-09-01T09:11:01Z</time>
      </trkpt>
      <trkpt lat="39.640786" lon="3.369852">
        <ele>74.086</ele>
        <time>2021-09-01T09:11:02Z</time>
      </trkpt>
      <trkpt lat="39.640731" lon="3.369837">
        <ele>73.931</ele>
        <time>2021-09-01T09:11:03Z</time>
      </trkpt>
      <trkpt lat="39.640678" lon="3.369818">
        <ele>73.895</ele>
        <time>2021-09-01T09:11:04Z</time>
      </trkpt>
      <trkpt lat="39.640621" lon="3.369810">
        <ele>73.614</ele>
        <time>2021-09-01T09:11:05Z</time>
      </trkpt>
      <trkpt lat="39.640565" lon="3.369800">
        <ele>73.559</ele>
        <time>2021-09-01T09:11:06Z</time>
      </trkpt>
      <trkpt lat="39.640513" lon="3.369777">
        <ele>73.336</ele>
        <time>2021-09-01T09:11:07Z</time>
      </trkpt>
      <trkpt lat="39.640458" lon="3.369761">
        <ele>73.296</ele>
        <time>2021-09-01T09:11:08Z</time>
      </trkpt>
      <trkpt lat="39.640398" lon="3.369750">
        <ele>73.163</ele>
        <time>2021-09-01T09:11:09Z</time>
      </trkpt>
      <trkpt lat="39.640340" lon="3.369740">
        <ele>73.144</ele>
        <time>2021-09-01T09:11:10Z</time>
      </trkpt>
      <trkpt lat="39.640287" lon="3.369731">
        <ele>73.018</ele>
        <time>2021-09-01T09:11:11Z</time>
      </trkpt>
      <trkpt lat="39.640237" lon="3.369720">
        <ele>72.908</ele>
        <time>2021-09-01T09:11:12Z</time>
      </trkpt>
      <trkpt lat="39.640180" lon="3.369707">
        <ele>72.974</ele>
        <time>2021-09-01T09:11:13Z</time>
      </trkpt>
      <trkpt lat="39.640124" lon="3.369683">
        <ele>72.938</ele>
        <time>2021-09-01T09:11:14Z</time>
      </trkpt>
      <trkpt lat="39.640063" lon="3.369660">
        <ele>72.983</ele>
        <time>2021-09-01T09:11:15Z</time>
      </trkpt>
      <trkpt lat="39.640011" lon="3.369644">
        <ele>72.977</ele>
        <time>2021-09-01T09:11:16Z</time>
      </trkpt>
      <trkpt lat="39.639956" lon="3.369625">
        <ele>73.046</ele>
        <time>2021-09-01T09:11:17Z</time>
      </trkpt>
      <trkpt lat="39.639903" lon="3.369597">
        <ele>73.131</ele>
        <time>2021-09-01T09:11:18Z</time>
      </trkpt>
      <trkpt lat="39.639853" lon="3.369569">
        <ele>73.148</ele>
        <time>2021-09-01T09:11:19Z</time>
      </trkpt>
      <trkpt lat="39.639807" lon="3.369540">
        <ele>73.158</ele>
        <time>2021-09-01T09:11:20Z</time>
      </trkpt>
      <trkpt lat="39.639758" lon="3.369521">
        <ele>73.139</ele>
        <time>2021-09-01T09:11:21Z</time>
      </trkpt>
      <trkpt lat="39.639710" lon="3.369485">
        <ele>73.101</ele>
        <time>2021-09-01T09:11:22Z</time>
      </trkpt>
      <trkpt lat="39.639658" lon="3.369454">
        <ele>73.021</ele>
        <time>2021-09-01T09:11:23Z</time>
      </trkpt>
      <trkpt lat="39.639618" lon="3.369426">
        <ele>73.008</ele>
        <time>2021-09-01T09:11:24Z</time>
      </trkpt>
      <trkpt lat="39.639567" lon="3.369406">
        <ele>72.951</ele>
        <time>2021-09-01T09:11:25Z</time>
      </trkpt>
      <trkpt lat="39.639517" lon="3.369391">
        <ele>72.935</ele>
        <time>2021-09-01T09:11:26Z</time>
      </trkpt>
      <trkpt lat="39.639430" lon="3.369339">
        <ele>73.060</ele>
        <time>2021-09-01T09:11:28Z</time>
      </trkpt>
      <trkpt lat="39.639356" lon="3.369293">
        <ele>73.194</ele>
        <time>2021-09-01T09:11:30Z</time>
      </trkpt>
      <trkpt lat="39.639286" lon="3.369253">
        <ele>73.263</ele>
        <time>2021-09-01T09:11:32Z</time>
      </trkpt>
      <trkpt lat="39.639221" lon="3.369214">
        <ele>73.248</ele>
        <time>2021-09-01T09:11:34Z</time>
      </trkpt>
      <trkpt lat="39.639161" lon="3.369167">
        <ele>73.225</ele>
        <time>2021-09-01T09:11:36Z</time>
      </trkpt>
      <trkpt lat="39.639095" lon="3.369111">
        <ele>73.325</ele>
        <time>2021-09-01T09:11:38Z</time>
      </trkpt>
      <trkpt lat="39.639031" lon="3.369081">
        <ele>73.474</ele>
        <time>2021-09-01T09:11:40Z</time>
      </trkpt>
      <trkpt lat="39.638966" lon="3.369061">
        <ele>73.456</ele>
        <time>2021-09-01T09:11:42Z</time>
      </trkpt>
      <trkpt lat="39.638899" lon="3.369031">
        <ele>73.521</ele>
        <time>2021-09-01T09:11:44Z</time>
      </trkpt>
      <trkpt lat="39.638832" lon="3.369003">
        <ele>73.508</ele>
        <time>2021-09-01T09:11:46Z</time>
      </trkpt>
      <trkpt lat="39.638763" lon="3.368977">
        <ele>73.525</ele>
        <time>2021-09-01T09:11:48Z</time>
      </trkpt>
      <trkpt lat="39.638562" lon="3.368921">
        <ele>73.369</ele>
        <time>2021-09-01T09:11:54Z</time>
      </trkpt>
      <trkpt lat="39.638621" lon="3.368656">
        <ele>73.234</ele>
        <time>2021-09-01T09:11:55Z</time>
      </trkpt>
      <trkpt lat="39.638431" lon="3.368436">
        <ele>73.288</ele>
        <time>2021-09-01T09:11:56Z</time>
      </trkpt>
      <trkpt lat="39.638353" lon="3.368340">
        <ele>73.127</ele>
        <time>2021-09-01T09:11:57Z</time>
      </trkpt>
      <trkpt lat="39.638298" lon="3.368293">
        <ele>73.182</ele>
        <time>2021-09-01T09:11:58Z</time>
      </trkpt>
      <trkpt lat="39.638284" lon="3.368222">
        <ele>73.019</ele>
        <time>2021-09-01T09:12:00Z</time>
      </trkpt>
      <trkpt lat="39.638256" lon="3.368162">
        <ele>73.019</ele>
        <time>2021-09-01T09:12:01Z</time>
      </trkpt>
      <trkpt lat="39.638229" lon="3.368107">
        <ele>73.052</ele>
        <time>2021-09-01T09:12:02Z</time>
      </trkpt>
      <trkpt lat="39.638180" lon="3.368027">
        <ele>72.953</ele>
        <time>2021-09-01T09:12:04Z</time>
      </trkpt>
      <trkpt lat="39.638141" lon="3.367943">
        <ele>72.808</ele>
        <time>2021-09-01T09:12:06Z</time>
      </trkpt>
      <trkpt lat="39.638091" lon="3.367859">
        <ele>72.808</ele>
        <time>2021-09-01T09:12:08Z</time>
      </trkpt>
      <trkpt lat="39.638045" lon="3.367777">
        <ele>72.583</ele>
        <time>2021-09-01T09:12:10Z</time>
      </trkpt>
      <trkpt lat="39.638014" lon="3.367734">
        <ele>72.497</ele>
        <time>2021-09-01T09:12:11Z</time>
      </trkpt>
      <trkpt lat="39.637982" lon="3.367674">
        <ele>72.162</ele>
        <time>2021-09-01T09:12:12Z</time>
      </trkpt>
      <trkpt lat="39.637949" lon="3.367614">
        <ele>71.916</ele>
        <time>2021-09-01T09:12:13Z</time>
      </trkpt>
      <trkpt lat="39.637917" lon="3.367560">
        <ele>71.715</ele>
        <time>2021-09-01T09:12:14Z</time>
      </trkpt>
      <trkpt lat="39.637890" lon="3.367510">
        <ele>71.550</ele>
        <time>2021-09-01T09:12:15Z</time>
      </trkpt>
      <trkpt lat="39.637864" lon="3.367455">
        <ele>71.477</ele>
        <time>2021-09-01T09:12:16Z</time>
      </trkpt>
      <trkpt lat="39.637839" lon="3.367390">
        <ele>71.427</ele>
        <time>2021-09-01T09:12:17Z</time>
      </trkpt>
      <trkpt lat="39.637809" lon="3.367332">
        <ele>71.479</ele>
        <time>2021-09-01T09:12:18Z</time>
      </trkpt>
      <trkpt lat="39.637782" lon="3.367282">
        <ele>71.405</ele>
        <time>2021-09-01T09:12:19Z</time>
      </trkpt>
      <trkpt lat="39.637759" lon="3.367229">
        <ele>71.525</ele>
        <time>2021-09-01T09:12:20Z</time>
      </trkpt>
      <trkpt lat="39.637729" lon="3.367183">
        <ele>71.608</ele>
        <time>2021-09-01T09:12:21Z</time>
      </trkpt>
      <trkpt lat="39.637683" lon="3.367088">
        <ele>71.895</ele>
        <time>2021-09-01T09:12:23Z</time>
      </trkpt>
      <trkpt lat="39.637657" lon="3.367038">
        <ele>71.869</ele>
        <time>2021-09-01T09:12:24Z</time>
      </trkpt>
      <trkpt lat="39.637627" lon="3.366993">
        <ele>71.794</ele>
        <time>2021-09-01T09:12:25Z</time>
      </trkpt>
      <trkpt lat="39.637598" lon="3.366946">
        <ele>71.748</ele>
        <time>2021-09-01T09:12:26Z</time>
      </trkpt>
      <trkpt lat="39.637570" lon="3.366897">
        <ele>71.777</ele>
        <time>2021-09-01T09:12:27Z</time>
      </trkpt>
      <trkpt lat="39.637538" lon="3.366846">
        <ele>71.752</ele>
        <time>2021-09-01T09:12:28Z</time>
      </trkpt>
      <trkpt lat="39.637504" lon="3.366799">
        <ele>71.729</ele>
        <time>2021-09-01T09:12:29Z</time>
      </trkpt>
      <trkpt lat="39.637472" lon="3.366744">
        <ele>71.619</ele>
        <time>2021-09-01T09:12:30Z</time>
      </trkpt>
      <trkpt lat="39.637440" lon="3.366690">
        <ele>71.662</ele>
        <time>2021-09-01T09:12:31Z</time>
      </trkpt>
      <trkpt lat="39.637406" lon="3.366639">
        <ele>71.483</ele>
        <time>2021-09-01T09:12:32Z</time>
      </trkpt>
      <trkpt lat="39.637368" lon="3.366591">
        <ele>71.111</ele>
        <time>2021-09-01T09:12:33Z</time>
      </trkpt>
      <trkpt lat="39.637333" lon="3.366542">
        <ele>71.008</ele>
        <time>2021-09-01T09:12:34Z</time>
      </trkpt>
      <trkpt lat="39.637301" lon="3.366492">
        <ele>71.054</ele>
        <time>2021-09-01T09:12:35Z</time>
      </trkpt>
      <trkpt lat="39.637261" lon="3.366434">
        <ele>70.788</ele>
        <time>2021-09-01T09:12:36Z</time>
      </trkpt>
      <trkpt lat="39.637225" lon="3.366380">
        <ele>70.673</ele>
        <time>2021-09-01T09:12:37Z</time>
      </trkpt>
      <trkpt lat="39.637186" lon="3.366325">
        <ele>70.477</ele>
        <time>2021-09-01T09:12:38Z</time>
      </trkpt>
      <trkpt lat="39.637146" lon="3.366273">
        <ele>70.116</ele>
        <time>2021-09-01T09:12:39Z</time>
      </trkpt>
      <trkpt lat="39.637107" lon="3.366221">
        <ele>69.981</ele>
        <time>2021-09-01T09:12:40Z</time>
      </trkpt>
      <trkpt lat="39.637061" lon="3.366173">
        <ele>69.838</ele>
        <time>2021-09-01T09:12:41Z</time>
      </trkpt>
      <trkpt lat="39.637015" lon="3.366126">
        <ele>69.758</ele>
        <time>2021-09-01T09:12:42Z</time>
      </trkpt>
      <trkpt lat="39.636972" lon="3.366082">
        <ele>69.779</ele>
        <time>2021-09-01T09:12:43Z</time>
      </trkpt>
      <trkpt lat="39.636933" lon="3.366037">
        <ele>69.805</ele>
        <time>2021-09-01T09:12:44Z</time>
      </trkpt>
      <trkpt lat="39.636890" lon="3.365995">
        <ele>69.825</ele>
        <time>2021-09-01T09:12:45Z</time>
      </trkpt>
      <trkpt lat="39.636847" lon="3.365952">
        <ele>69.808</ele>
        <time>2021-09-01T09:12:46Z</time>
      </trkpt>
      <trkpt lat="39.636805" lon="3.365904">
        <ele>69.835</ele>
        <time>2021-09-01T09:12:47Z</time>
      </trkpt>
      <trkpt lat="39.636768" lon="3.365865">
        <ele>69.869</ele>
        <time>2021-09-01T09:12:48Z</time>
      </trkpt>
      <trkpt lat="39.636725" lon="3.365825">
        <ele>69.744</ele>
        <time>2021-09-01T09:12:49Z</time>
      </trkpt>
      <trkpt lat="39.636684" lon="3.365786">
        <ele>69.738</ele>
        <time>2021-09-01T09:12:50Z</time>
      </trkpt>
      <trkpt lat="39.636643" lon="3.365748">
        <ele>69.837</ele>
        <time>2021-09-01T09:12:51Z</time>
      </trkpt>
      <trkpt lat="39.636600" lon="3.365708">
        <ele>69.842</ele>
        <time>2021-09-01T09:12:52Z</time>
      </trkpt>
      <trkpt lat="39.636549" lon="3.365675">
        <ele>69.949</ele>
        <time>2021-09-01T09:12:53Z</time>
      </trkpt>
      <trkpt lat="39.636505" lon="3.365638">
        <ele>69.939</ele>
        <time>2021-09-01T09:12:54Z</time>
      </trkpt>
      <trkpt lat="39.636455" lon="3.365607">
        <ele>69.962</ele>
        <time>2021-09-01T09:12:55Z</time>
      </trkpt>
      <trkpt lat="39.636409" lon="3.365572">
        <ele>69.983</ele>
        <time>2021-09-01T09:12:56Z</time>
      </trkpt>
      <trkpt lat="39.636362" lon="3.365530">
        <ele>69.911</ele>
        <time>2021-09-01T09:12:57Z</time>
      </trkpt>
      <trkpt lat="39.636311" lon="3.365489">
        <ele>69.808</ele>
        <time>2021-09-01T09:12:58Z</time>
      </trkpt>
      <trkpt lat="39.636257" lon="3.365463">
        <ele>69.694</ele>
        <time>2021-09-01T09:12:59Z</time>
      </trkpt>
      <trkpt lat="39.636205" lon="3.365437">
        <ele>69.488</ele>
        <time>2021-09-01T09:13:00Z</time>
      </trkpt>
      <trkpt lat="39.636149" lon="3.365405">
        <ele>69.113</ele>
        <time>2021-09-01T09:13:01Z</time>
      </trkpt>
      <trkpt lat="39.636100" lon="3.365386">
        <ele>68.947</ele>
        <time>2021-09-01T09:13:02Z</time>
      </trkpt>
      <trkpt lat="39.636053" lon="3.365360">
        <ele>68.716</ele>
        <time>2021-09-01T09:13:03Z</time>
      </trkpt>
      <trkpt lat="39.636012" lon="3.365337">
        <ele>68.711</ele>
        <time>2021-09-01T09:13:04Z</time>
      </trkpt>
      <trkpt lat="39.635949" lon="3.365303">
        <ele>68.778</ele>
        <time>2021-09-01T09:13:06Z</time>
      </trkpt>
      <trkpt lat="39.635906" lon="3.365336">
        <ele>68.968</ele>
        <time>2021-09-01T09:13:09Z</time>
      </trkpt>
      <trkpt lat="39.635844" lon="3.365290">
        <ele>69.011</ele>
        <time>2021-09-01T09:13:12Z</time>
      </trkpt>
      <trkpt lat="39.635786" lon="3.365250">
        <ele>68.921</ele>
        <time>2021-09-01T09:13:14Z</time>
      </trkpt>
      <trkpt lat="39.635711" lon="3.365207">
        <ele>68.803</ele>
        <time>2021-09-01T09:13:16Z</time>
      </trkpt>
      <trkpt lat="39.635662" lon="3.365186">
        <ele>68.908</ele>
        <time>2021-09-01T09:13:17Z</time>
      </trkpt>
      <trkpt lat="39.635614" lon="3.365158">
        <ele>68.959</ele>
        <time>2021-09-01T09:13:18Z</time>
      </trkpt>
      <trkpt lat="39.635563" lon="3.365136">
        <ele>68.963</ele>
        <time>2021-09-01T09:13:19Z</time>
      </trkpt>
      <trkpt lat="39.635511" lon="3.365131">
        <ele>68.938</ele>
        <time>2021-09-01T09:13:20Z</time>
      </trkpt>
      <trkpt lat="39.635447" lon="3.365123">
        <ele>68.832</ele>
        <time>2021-09-01T09:13:21Z</time>
      </trkpt>
      <trkpt lat="39.635383" lon="3.365106">
        <ele>68.791</ele>
        <time>2021-09-01T09:13:22Z</time>
      </trkpt>
      <trkpt lat="39.635322" lon="3.365092">
        <ele>68.486</ele>
        <time>2021-09-01T09:13:23Z</time>
      </trkpt>
      <trkpt lat="39.635263" lon="3.365082">
        <ele>68.353</ele>
        <time>2021-09-01T09:13:24Z</time>
      </trkpt>
      <trkpt lat="39.635197" lon="3.365073">
        <ele>68.273</ele>
        <time>2021-09-01T09:13:25Z</time>
      </trkpt>
      <trkpt lat="39.635133" lon="3.365064">
        <ele>68.188</ele>
        <time>2021-09-01T09:13:26Z</time>
      </trkpt>
      <trkpt lat="39.635071" lon="3.365051">
        <ele>67.924</ele>
        <time>2021-09-01T09:13:27Z</time>
      </trkpt>
      <trkpt lat="39.635008" lon="3.365036">
        <ele>67.826</ele>
        <time>2021-09-01T09:13:28Z</time>
      </trkpt>
      <trkpt lat="39.634942" lon="3.365028">
        <ele>67.708</ele>
        <time>2021-09-01T09:13:29Z</time>
      </trkpt>
      <trkpt lat="39.634877" lon="3.365021">
        <ele>67.516</ele>
        <time>2021-09-01T09:13:30Z</time>
      </trkpt>
      <trkpt lat="39.634816" lon="3.365017">
        <ele>67.460</ele>
        <time>2021-09-01T09:13:31Z</time>
      </trkpt>
      <trkpt lat="39.634757" lon="3.365018">
        <ele>67.245</ele>
        <time>2021-09-01T09:13:32Z</time>
      </trkpt>
      <trkpt lat="39.634700" lon="3.365016">
        <ele>67.229</ele>
        <time>2021-09-01T09:13:33Z</time>
      </trkpt>
      <trkpt lat="39.634640" lon="3.365019">
        <ele>67.298</ele>
        <time>2021-09-01T09:13:34Z</time>
      </trkpt>
      <trkpt lat="39.634582" lon="3.365014">
        <ele>67.123</ele>
        <time>2021-09-01T09:13:35Z</time>
      </trkpt>
      <trkpt lat="39.634525" lon="3.365008">
        <ele>67.170</ele>
        <time>2021-09-01T09:13:36Z</time>
      </trkpt>
      <trkpt lat="39.634460" lon="3.364997">
        <ele>67.180</ele>
        <time>2021-09-01T09:13:37Z</time>
      </trkpt>
      <trkpt lat="39.634400" lon="3.365001">
        <ele>67.172</ele>
        <time>2021-09-01T09:13:38Z</time>
      </trkpt>
      <trkpt lat="39.634341" lon="3.365011">
        <ele>67.113</ele>
        <time>2021-09-01T09:13:39Z</time>
      </trkpt>
      <trkpt lat="39.634292" lon="3.365030">
        <ele>67.114</ele>
        <time>2021-09-01T09:13:40Z</time>
      </trkpt>
      <trkpt lat="39.634230" lon="3.365032">
        <ele>67.108</ele>
        <time>2021-09-01T09:13:41Z</time>
      </trkpt>
      <trkpt lat="39.634171" lon="3.365038">
        <ele>66.965</ele>
        <time>2021-09-01T09:13:42Z</time>
      </trkpt>
      <trkpt lat="39.634108" lon="3.365044">
        <ele>66.819</ele>
        <time>2021-09-01T09:13:43Z</time>
      </trkpt>
      <trkpt lat="39.634048" lon="3.365059">
        <ele>66.754</ele>
        <time>2021-09-01T09:13:44Z</time>
      </trkpt>
      <trkpt lat="39.633985" lon="3.365070">
        <ele>66.758</ele>
        <time>2021-09-01T09:13:45Z</time>
      </trkpt>
      <trkpt lat="39.633926" lon="3.365083">
        <ele>66.677</ele>
        <time>2021-09-01T09:13:46Z</time>
      </trkpt>
      <trkpt lat="39.633869" lon="3.365096">
        <ele>66.692</ele>
        <time>2021-09-01T09:13:47Z</time>
      </trkpt>
      <trkpt lat="39.633816" lon="3.365113">
        <ele>66.729</ele>
        <time>2021-09-01T09:13:48Z</time>
      </trkpt>
      <trkpt lat="39.633762" lon="3.365137">
        <ele>66.789</ele>
        <time>2021-09-01T09:13:49Z</time>
      </trkpt>
      <trkpt lat="39.633707" lon="3.365155">
        <ele>66.764</ele>
        <time>2021-09-01T09:13:50Z</time>
      </trkpt>
      <trkpt lat="39.633647" lon="3.365162">
        <ele>66.706</ele>
        <time>2021-09-01T09:13:51Z</time>
      </trkpt>
      <trkpt lat="39.633589" lon="3.365162">
        <ele>66.616</ele>
        <time>2021-09-01T09:13:52Z</time>
      </trkpt>
      <trkpt lat="39.633528" lon="3.365192">
        <ele>66.508</ele>
        <time>2021-09-01T09:13:53Z</time>
      </trkpt>
      <trkpt lat="39.633468" lon="3.365211">
        <ele>66.414</ele>
        <time>2021-09-01T09:13:54Z</time>
      </trkpt>
      <trkpt lat="39.633409" lon="3.365224">
        <ele>66.298</ele>
        <time>2021-09-01T09:13:55Z</time>
      </trkpt>
      <trkpt lat="39.633352" lon="3.365234">
        <ele>66.263</ele>
        <time>2021-09-01T09:13:56Z</time>
      </trkpt>
      <trkpt lat="39.633292" lon="3.365246">
        <ele>66.217</ele>
        <time>2021-09-01T09:13:57Z</time>
      </trkpt>
      <trkpt lat="39.633237" lon="3.365263">
        <ele>66.246</ele>
        <time>2021-09-01T09:13:58Z</time>
      </trkpt>
      <trkpt lat="39.633178" lon="3.365273">
        <ele>66.291</ele>
        <time>2021-09-01T09:13:59Z</time>
      </trkpt>
      <trkpt lat="39.633121" lon="3.365282">
        <ele>66.018</ele>
        <time>2021-09-01T09:14:00Z</time>
      </trkpt>
      <trkpt lat="39.633066" lon="3.365295">
        <ele>65.918</ele>
        <time>2021-09-01T09:14:01Z</time>
      </trkpt>
      <trkpt lat="39.633010" lon="3.365309">
        <ele>65.745</ele>
        <time>2021-09-01T09:14:02Z</time>
      </trkpt>
      <trkpt lat="39.632961" lon="3.365320">
        <ele>65.547</ele>
        <time>2021-09-01T09:14:03Z</time>
      </trkpt>
      <trkpt lat="39.632899" lon="3.365335">
        <ele>65.311</ele>
        <time>2021-09-01T09:14:04Z</time>
      </trkpt>
      <trkpt lat="39.632845" lon="3.365352">
        <ele>65.208</ele>
        <time>2021-09-01T09:14:05Z</time>
      </trkpt>
      <trkpt lat="39.632792" lon="3.365367">
        <ele>65.262</ele>
        <time>2021-09-01T09:14:06Z</time>
      </trkpt>
      <trkpt lat="39.632737" lon="3.365380">
        <ele>65.186</ele>
        <time>2021-09-01T09:14:07Z</time>
      </trkpt>
      <trkpt lat="39.632685" lon="3.365399">
        <ele>65.141</ele>
        <time>2021-09-01T09:14:08Z</time>
      </trkpt>
      <trkpt lat="39.632632" lon="3.365402">
        <ele>65.085</ele>
        <time>2021-09-01T09:14:09Z</time>
      </trkpt>
      <trkpt lat="39.632579" lon="3.365406">
        <ele>64.944</ele>
        <time>2021-09-01T09:14:10Z</time>
      </trkpt>
      <trkpt lat="39.632528" lon="3.365413">
        <ele>64.899</ele>
        <time>2021-09-01T09:14:11Z</time>
      </trkpt>
      <trkpt lat="39.632477" lon="3.365410">
        <ele>64.716</ele>
        <time>2021-09-01T09:14:12Z</time>
      </trkpt>
      <trkpt lat="39.632429" lon="3.365419">
        <ele>64.676</ele>
        <time>2021-09-01T09:14:13Z</time>
      </trkpt>
      <trkpt lat="39.632370" lon="3.365403">
        <ele>64.621</ele>
        <time>2021-09-01T09:14:14Z</time>
      </trkpt>
      <trkpt lat="39.632314" lon="3.365395">
        <ele>64.541</ele>
        <time>2021-09-01T09:14:15Z</time>
      </trkpt>
      <trkpt lat="39.632256" lon="3.365393">
        <ele>64.505</ele>
        <time>2021-09-01T09:14:16Z</time>
      </trkpt>
      <trkpt lat="39.632194" lon="3.365396">
        <ele>64.408</ele>
        <time>2021-09-01T09:14:17Z</time>
      </trkpt>
      <trkpt lat="39.632123" lon="3.365387">
        <ele>64.250</ele>
        <time>2021-09-01T09:14:18Z</time>
      </trkpt>
      <trkpt lat="39.632054" lon="3.365386">
        <ele>64.074</ele>
        <time>2021-09-01T09:14:19Z</time>
      </trkpt>
      <trkpt lat="39.631981" lon="3.365381">
        <ele>63.869</ele>
        <time>2021-09-01T09:14:20Z</time>
      </trkpt>
      <trkpt lat="39.631909" lon="3.365376">
        <ele>63.473</ele>
        <time>2021-09-01T09:14:21Z</time>
      </trkpt>
      <trkpt lat="39.631842" lon="3.365360">
        <ele>63.212</ele>
        <time>2021-09-01T09:14:22Z</time>
      </trkpt>
      <trkpt lat="39.631778" lon="3.365339">
        <ele>63.017</ele>
        <time>2021-09-01T09:14:23Z</time>
      </trkpt>
      <trkpt lat="39.631711" lon="3.365324">
        <ele>62.724</ele>
        <time>2021-09-01T09:14:24Z</time>
      </trkpt>
      <trkpt lat="39.631643" lon="3.365310">
        <ele>62.514</ele>
        <time>2021-09-01T09:14:25Z</time>
      </trkpt>
      <trkpt lat="39.631575" lon="3.365283">
        <ele>62.294</ele>
        <time>2021-09-01T09:14:26Z</time>
      </trkpt>
      <trkpt lat="39.631508" lon="3.365262">
        <ele>61.957</ele>
        <time>2021-09-01T09:14:27Z</time>
      </trkpt>
      <trkpt lat="39.631441" lon="3.365238">
        <ele>61.622</ele>
        <time>2021-09-01T09:14:28Z</time>
      </trkpt>
      <trkpt lat="39.631379" lon="3.365218">
        <ele>61.408</ele>
        <time>2021-09-01T09:14:29Z</time>
      </trkpt>
      <trkpt lat="39.631309" lon="3.365193">
        <ele>61.347</ele>
        <time>2021-09-01T09:14:30Z</time>
      </trkpt>
      <trkpt lat="39.631250" lon="3.365168">
        <ele>61.351</ele>
        <time>2021-09-01T09:14:31Z</time>
      </trkpt>
      <trkpt lat="39.631183" lon="3.365137">
        <ele>61.396</ele>
        <time>2021-09-01T09:14:32Z</time>
      </trkpt>
      <trkpt lat="39.631123" lon="3.365109">
        <ele>61.390</ele>
        <time>2021-09-01T09:14:33Z</time>
      </trkpt>
      <trkpt lat="39.631067" lon="3.365080">
        <ele>61.359</ele>
        <time>2021-09-01T09:14:34Z</time>
      </trkpt>
      <trkpt lat="39.631015" lon="3.365058">
        <ele>61.394</ele>
        <time>2021-09-01T09:14:35Z</time>
      </trkpt>
      <trkpt lat="39.630968" lon="3.365033">
        <ele>61.321</ele>
        <time>2021-09-01T09:14:36Z</time>
      </trkpt>
      <trkpt lat="39.630914" lon="3.365001">
        <ele>61.331</ele>
        <time>2021-09-01T09:14:37Z</time>
      </trkpt>
      <trkpt lat="39.630866" lon="3.364971">
        <ele>61.481</ele>
        <time>2021-09-01T09:14:38Z</time>
      </trkpt>
      <trkpt lat="39.630817" lon="3.364944">
        <ele>61.461</ele>
        <time>2021-09-01T09:14:39Z</time>
      </trkpt>
      <trkpt lat="39.630765" lon="3.364912">
        <ele>61.417</ele>
        <time>2021-09-01T09:14:40Z</time>
      </trkpt>
      <trkpt lat="39.630712" lon="3.364878">
        <ele>61.508</ele>
        <time>2021-09-01T09:14:41Z</time>
      </trkpt>
      <trkpt lat="39.630664" lon="3.364838">
        <ele>61.586</ele>
        <time>2021-09-01T09:14:42Z</time>
      </trkpt>
      <trkpt lat="39.630614" lon="3.364796">
        <ele>61.560</ele>
        <time>2021-09-01T09:14:43Z</time>
      </trkpt>
      <trkpt lat="39.630564" lon="3.364760">
        <ele>61.635</ele>
        <time>2021-09-01T09:14:44Z</time>
      </trkpt>
      <trkpt lat="39.630520" lon="3.364723">
        <ele>61.789</ele>
        <time>2021-09-01T09:14:45Z</time>
      </trkpt>
      <trkpt lat="39.630469" lon="3.364685">
        <ele>61.768</ele>
        <time>2021-09-01T09:14:46Z</time>
      </trkpt>
      <trkpt lat="39.630423" lon="3.364641">
        <ele>61.743</ele>
        <time>2021-09-01T09:14:47Z</time>
      </trkpt>
      <trkpt lat="39.630373" lon="3.364604">
        <ele>61.750</ele>
        <time>2021-09-01T09:14:48Z</time>
      </trkpt>
      <trkpt lat="39.630335" lon="3.364553">
        <ele>61.720</ele>
        <time>2021-09-01T09:14:49Z</time>
      </trkpt>
      <trkpt lat="39.630283" lon="3.364520">
        <ele>61.718</ele>
        <time>2021-09-01T09:14:50Z</time>
      </trkpt>
      <trkpt lat="39.630242" lon="3.364472">
        <ele>61.798</ele>
        <time>2021-09-01T09:14:51Z</time>
      </trkpt>
      <trkpt lat="39.630202" lon="3.364426">
        <ele>61.717</ele>
        <time>2021-09-01T09:14:52Z</time>
      </trkpt>
      <trkpt lat="39.630160" lon="3.364382">
        <ele>61.708</ele>
        <time>2021-09-01T09:14:53Z</time>
      </trkpt>
      <trkpt lat="39.630121" lon="3.364340">
        <ele>61.789</ele>
        <time>2021-09-01T09:14:54Z</time>
      </trkpt>
      <trkpt lat="39.630084" lon="3.364293">
        <ele>61.763</ele>
        <time>2021-09-01T09:14:55Z</time>
      </trkpt>
      <trkpt lat="39.630045" lon="3.364245">
        <ele>61.898</ele>
        <time>2021-09-01T09:14:56Z</time>
      </trkpt>
      <trkpt lat="39.630004" lon="3.364202">
        <ele>61.882</ele>
        <time>2021-09-01T09:14:57Z</time>
      </trkpt>
      <trkpt lat="39.629963" lon="3.364164">
        <ele>61.931</ele>
        <time>2021-09-01T09:14:58Z</time>
      </trkpt>
      <trkpt lat="39.629927" lon="3.364119">
        <ele>62.086</ele>
        <time>2021-09-01T09:14:59Z</time>
      </trkpt>
      <trkpt lat="39.629894" lon="3.364070">
        <ele>62.223</ele>
        <time>2021-09-01T09:15:00Z</time>
      </trkpt>
      <trkpt lat="39.629856" lon="3.364034">
        <ele>62.243</ele>
        <time>2021-09-01T09:15:01Z</time>
      </trkpt>
      <trkpt lat="39.629817" lon="3.363988">
        <ele>62.312</ele>
        <time>2021-09-01T09:15:02Z</time>
      </trkpt>
      <trkpt lat="39.629780" lon="3.363942">
        <ele>62.432</ele>
        <time>2021-09-01T09:15:03Z</time>
      </trkpt>
      <trkpt lat="39.629746" lon="3.363892">
        <ele>62.405</ele>
        <time>2021-09-01T09:15:04Z</time>
      </trkpt>
      <trkpt lat="39.629703" lon="3.363845">
        <ele>62.408</ele>
        <time>2021-09-01T09:15:05Z</time>
      </trkpt>
      <trkpt lat="39.629667" lon="3.363798">
        <ele>62.419</ele>
        <time>2021-09-01T09:15:06Z</time>
      </trkpt>
      <trkpt lat="39.629628" lon="3.363751">
        <ele>62.423</ele>
        <time>2021-09-01T09:15:07Z</time>
      </trkpt>
      <trkpt lat="39.629593" lon="3.363705">
        <ele>62.458</ele>
        <time>2021-09-01T09:15:08Z</time>
      </trkpt>
      <trkpt lat="39.629555" lon="3.363655">
        <ele>62.442</ele>
        <time>2021-09-01T09:15:09Z</time>
      </trkpt>
      <trkpt lat="39.629515" lon="3.363617">
        <ele>62.531</ele>
        <time>2021-09-01T09:15:10Z</time>
      </trkpt>
      <trkpt lat="39.629482" lon="3.363571">
        <ele>62.626</ele>
        <time>2021-09-01T09:15:11Z</time>
      </trkpt>
      <trkpt lat="39.629450" lon="3.363523">
        <ele>62.743</ele>
        <time>2021-09-01T09:15:12Z</time>
      </trkpt>
      <trkpt lat="39.629385" lon="3.363450">
        <ele>63.013</ele>
        <time>2021-09-01T09:15:14Z</time>
      </trkpt>
      <trkpt lat="39.629353" lon="3.363400">
        <ele>63.232</ele>
        <time>2021-09-01T09:15:15Z</time>
      </trkpt>
      <trkpt lat="39.629319" lon="3.363358">
        <ele>63.392</ele>
        <time>2021-09-01T09:15:16Z</time>
      </trkpt>
      <trkpt lat="39.629248" lon="3.363285">
        <ele>63.411</ele>
        <time>2021-09-01T09:15:18Z</time>
      </trkpt>
      <trkpt lat="39.629218" lon="3.363241">
        <ele>63.508</ele>
        <time>2021-09-01T09:15:19Z</time>
      </trkpt>
      <trkpt lat="39.629155" lon="3.363165">
        <ele>63.711</ele>
        <time>2021-09-01T09:15:21Z</time>
      </trkpt>
      <trkpt lat="39.629093" lon="3.363092">
        <ele>64.025</ele>
        <time>2021-09-01T09:15:23Z</time>
      </trkpt>
      <trkpt lat="39.629032" lon="3.363018">
        <ele>64.280</ele>
        <time>2021-09-01T09:15:25Z</time>
      </trkpt>
      <trkpt lat="39.628969" lon="3.362941">
        <ele>64.394</ele>
        <time>2021-09-01T09:15:27Z</time>
      </trkpt>
      <trkpt lat="39.628906" lon="3.362854">
        <ele>64.453</ele>
        <time>2021-09-01T09:15:29Z</time>
      </trkpt>
      <trkpt lat="39.628876" lon="3.362811">
        <ele>64.558</ele>
        <time>2021-09-01T09:15:30Z</time>
      </trkpt>
      <trkpt lat="39.628812" lon="3.362731">
        <ele>64.645</ele>
        <time>2021-09-01T09:15:32Z</time>
      </trkpt>
      <trkpt lat="39.628750" lon="3.362654">
        <ele>64.885</ele>
        <time>2021-09-01T09:15:34Z</time>
      </trkpt>
      <trkpt lat="39.628694" lon="3.362579">
        <ele>65.048</ele>
        <time>2021-09-01T09:15:36Z</time>
      </trkpt>
      <trkpt lat="39.628635" lon="3.362493">
        <ele>65.361</ele>
        <time>2021-09-01T09:15:38Z</time>
      </trkpt>
      <trkpt lat="39.628601" lon="3.362447">
        <ele>65.317</ele>
        <time>2021-09-01T09:15:39Z</time>
      </trkpt>
      <trkpt lat="39.628568" lon="3.362395">
        <ele>65.308</ele>
        <time>2021-09-01T09:15:40Z</time>
      </trkpt>
      <trkpt lat="39.628531" lon="3.362348">
        <ele>65.392</ele>
        <time>2021-09-01T09:15:41Z</time>
      </trkpt>
      <trkpt lat="39.628492" lon="3.362302">
        <ele>65.126</ele>
        <time>2021-09-01T09:15:42Z</time>
      </trkpt>
      <trkpt lat="39.628448" lon="3.362250">
        <ele>65.091</ele>
        <time>2021-09-01T09:15:43Z</time>
      </trkpt>
      <trkpt lat="39.628408" lon="3.362202">
        <ele>64.925</ele>
        <time>2021-09-01T09:15:44Z</time>
      </trkpt>
      <trkpt lat="39.628369" lon="3.362154">
        <ele>64.834</ele>
        <time>2021-09-01T09:15:45Z</time>
      </trkpt>
      <trkpt lat="39.628329" lon="3.362111">
        <ele>64.739</ele>
        <time>2021-09-01T09:15:46Z</time>
      </trkpt>
      <trkpt lat="39.628290" lon="3.362063">
        <ele>64.666</ele>
        <time>2021-09-01T09:15:47Z</time>
      </trkpt>
      <trkpt lat="39.628250" lon="3.362017">
        <ele>64.626</ele>
        <time>2021-09-01T09:15:48Z</time>
      </trkpt>
      <trkpt lat="39.628211" lon="3.361968">
        <ele>64.689</ele>
        <time>2021-09-01T09:15:49Z</time>
      </trkpt>
      <trkpt lat="39.628174" lon="3.361923">
        <ele>64.606</ele>
        <time>2021-09-01T09:15:50Z</time>
      </trkpt>
      <trkpt lat="39.628136" lon="3.361877">
        <ele>64.626</ele>
        <time>2021-09-01T09:15:51Z</time>
      </trkpt>
      <trkpt lat="39.628099" lon="3.361837">
        <ele>64.708</ele>
        <time>2021-09-01T09:15:52Z</time>
      </trkpt>
      <trkpt lat="39.628068" lon="3.361792">
        <ele>64.756</ele>
        <time>2021-09-01T09:15:53Z</time>
      </trkpt>
      <trkpt lat="39.628032" lon="3.361751">
        <ele>64.810</ele>
        <time>2021-09-01T09:15:54Z</time>
      </trkpt>
      <trkpt lat="39.627999" lon="3.361705">
        <ele>64.925</ele>
        <time>2021-09-01T09:15:55Z</time>
      </trkpt>
      <trkpt lat="39.627960" lon="3.361668">
        <ele>65.019</ele>
        <time>2021-09-01T09:15:56Z</time>
      </trkpt>
      <trkpt lat="39.627903" lon="3.361594">
        <ele>65.358</ele>
        <time>2021-09-01T09:15:58Z</time>
      </trkpt>
      <trkpt lat="39.627848" lon="3.361534">
        <ele>65.613</ele>
        <time>2021-09-01T09:16:00Z</time>
      </trkpt>
      <trkpt lat="39.627797" lon="3.361473">
        <ele>66.080</ele>
        <time>2021-09-01T09:16:02Z</time>
      </trkpt>
      <trkpt lat="39.627751" lon="3.361422">
        <ele>66.580</ele>
        <time>2021-09-01T09:16:04Z</time>
      </trkpt>
      <trkpt lat="39.627703" lon="3.361366">
        <ele>67.029</ele>
        <time>2021-09-01T09:16:06Z</time>
      </trkpt>
      <trkpt lat="39.627659" lon="3.361304">
        <ele>67.300</ele>
        <time>2021-09-01T09:16:08Z</time>
      </trkpt>
      <trkpt lat="39.627607" lon="3.361230">
        <ele>67.620</ele>
        <time>2021-09-01T09:16:10Z</time>
      </trkpt>
      <trkpt lat="39.627561" lon="3.361161">
        <ele>67.708</ele>
        <time>2021-09-01T09:16:12Z</time>
      </trkpt>
      <trkpt lat="39.627503" lon="3.361096">
        <ele>67.770</ele>
        <time>2021-09-01T09:16:14Z</time>
      </trkpt>
      <trkpt lat="39.627443" lon="3.361032">
        <ele>67.724</ele>
        <time>2021-09-01T09:16:16Z</time>
      </trkpt>
      <trkpt lat="39.627388" lon="3.360966">
        <ele>67.779</ele>
        <time>2021-09-01T09:16:18Z</time>
      </trkpt>
      <trkpt lat="39.627324" lon="3.360899">
        <ele>67.693</ele>
        <time>2021-09-01T09:16:20Z</time>
      </trkpt>
      <trkpt lat="39.627263" lon="3.360830">
        <ele>67.492</ele>
        <time>2021-09-01T09:16:22Z</time>
      </trkpt>
      <trkpt lat="39.627195" lon="3.360767">
        <ele>67.367</ele>
        <time>2021-09-01T09:16:24Z</time>
      </trkpt>
      <trkpt lat="39.627160" lon="3.360729">
        <ele>67.214</ele>
        <time>2021-09-01T09:16:25Z</time>
      </trkpt>
      <trkpt lat="39.627121" lon="3.360697">
        <ele>67.194</ele>
        <time>2021-09-01T09:16:26Z</time>
      </trkpt>
      <trkpt lat="39.627047" lon="3.360634">
        <ele>67.159</ele>
        <time>2021-09-01T09:16:28Z</time>
      </trkpt>
      <trkpt lat="39.627008" lon="3.360604">
        <ele>67.103</ele>
        <time>2021-09-01T09:16:29Z</time>
      </trkpt>
      <trkpt lat="39.626932" lon="3.360542">
        <ele>67.023</ele>
        <time>2021-09-01T09:16:31Z</time>
      </trkpt>
      <trkpt lat="39.626894" lon="3.360508">
        <ele>67.108</ele>
        <time>2021-09-01T09:16:32Z</time>
      </trkpt>
      <trkpt lat="39.626854" lon="3.360478">
        <ele>67.183</ele>
        <time>2021-09-01T09:16:33Z</time>
      </trkpt>
      <trkpt lat="39.626814" lon="3.360451">
        <ele>67.257</ele>
        <time>2021-09-01T09:16:34Z</time>
      </trkpt>
      <trkpt lat="39.626773" lon="3.360425">
        <ele>67.342</ele>
        <time>2021-09-01T09:16:35Z</time>
      </trkpt>
      <trkpt lat="39.626730" lon="3.360398">
        <ele>67.536</ele>
        <time>2021-09-01T09:16:36Z</time>
      </trkpt>
      <trkpt lat="39.626678" lon="3.360373">
        <ele>67.595</ele>
        <time>2021-09-01T09:16:37Z</time>
      </trkpt>
      <trkpt lat="39.626588" lon="3.360333">
        <ele>67.550</ele>
        <time>2021-09-01T09:16:39Z</time>
      </trkpt>
      <trkpt lat="39.626543" lon="3.360320">
        <ele>67.537</ele>
        <time>2021-09-01T09:16:40Z</time>
      </trkpt>
      <trkpt lat="39.626499" lon="3.360307">
        <ele>67.467</ele>
        <time>2021-09-01T09:16:41Z</time>
      </trkpt>
      <trkpt lat="39.626453" lon="3.360284">
        <ele>67.476</ele>
        <time>2021-09-01T09:16:42Z</time>
      </trkpt>
      <trkpt lat="39.626409" lon="3.360264">
        <ele>67.590</ele>
        <time>2021-09-01T09:16:43Z</time>
      </trkpt>
      <trkpt lat="39.626364" lon="3.360251">
        <ele>67.619</ele>
        <time>2021-09-01T09:16:44Z</time>
      </trkpt>
      <trkpt lat="39.626280" lon="3.360216">
        <ele>67.808</ele>
        <time>2021-09-01T09:16:46Z</time>
      </trkpt>
      <trkpt lat="39.626195" lon="3.360184">
        <ele>68.085</ele>
        <time>2021-09-01T09:16:48Z</time>
      </trkpt>
      <trkpt lat="39.626107" lon="3.360163">
        <ele>67.989</ele>
        <time>2021-09-01T09:16:50Z</time>
      </trkpt>
      <trkpt lat="39.626024" lon="3.360134">
        <ele>67.794</ele>
        <time>2021-09-01T09:16:52Z</time>
      </trkpt>
      <trkpt lat="39.625944" lon="3.360120">
        <ele>67.788</ele>
        <time>2021-09-01T09:16:54Z</time>
      </trkpt>
      <trkpt lat="39.625866" lon="3.360106">
        <ele>67.967</ele>
        <time>2021-09-01T09:16:56Z</time>
      </trkpt>
      <trkpt lat="39.625789" lon="3.360095">
        <ele>68.072</ele>
        <time>2021-09-01T09:16:58Z</time>
      </trkpt>
      <trkpt lat="39.625719" lon="3.360098">
        <ele>68.179</ele>
        <time>2021-09-01T09:17:00Z</time>
      </trkpt>
      <trkpt lat="39.625651" lon="3.360114">
        <ele>68.269</ele>
        <time>2021-09-01T09:17:02Z</time>
      </trkpt>
      <trkpt lat="39.625589" lon="3.360130">
        <ele>68.483</ele>
        <time>2021-09-01T09:17:04Z</time>
      </trkpt>
      <trkpt lat="39.625518" lon="3.360121">
        <ele>68.625</ele>
        <time>2021-09-01T09:17:06Z</time>
      </trkpt>
      <trkpt lat="39.625454" lon="3.360101">
        <ele>68.717</ele>
        <time>2021-09-01T09:17:08Z</time>
      </trkpt>
      <trkpt lat="39.625376" lon="3.360097">
        <ele>68.708</ele>
        <time>2021-09-01T09:17:10Z</time>
      </trkpt>
      <trkpt lat="39.625299" lon="3.360107">
        <ele>68.926</ele>
        <time>2021-09-01T09:17:12Z</time>
      </trkpt>
      <trkpt lat="39.625217" lon="3.360135">
        <ele>69.040</ele>
        <time>2021-09-01T09:17:14Z</time>
      </trkpt>
      <trkpt lat="39.625172" lon="3.360145">
        <ele>68.995</ele>
        <time>2021-09-01T09:17:15Z</time>
      </trkpt>
      <trkpt lat="39.625087" lon="3.360164">
        <ele>68.929</ele>
        <time>2021-09-01T09:17:17Z</time>
      </trkpt>
      <trkpt lat="39.625002" lon="3.360190">
        <ele>68.848</ele>
        <time>2021-09-01T09:17:19Z</time>
      </trkpt>
      <trkpt lat="39.624916" lon="3.360209">
        <ele>68.993</ele>
        <time>2021-09-01T09:17:21Z</time>
      </trkpt>
      <trkpt lat="39.624832" lon="3.360242">
        <ele>69.070</ele>
        <time>2021-09-01T09:17:23Z</time>
      </trkpt>
      <trkpt lat="39.624750" lon="3.360270">
        <ele>69.080</ele>
        <time>2021-09-01T09:17:25Z</time>
      </trkpt>
      <trkpt lat="39.624676" lon="3.360320">
        <ele>69.098</ele>
        <time>2021-09-01T09:17:27Z</time>
      </trkpt>
      <trkpt lat="39.624599" lon="3.360358">
        <ele>69.315</ele>
        <time>2021-09-01T09:17:29Z</time>
      </trkpt>
      <trkpt lat="39.624527" lon="3.360403">
        <ele>69.426</ele>
        <time>2021-09-01T09:17:31Z</time>
      </trkpt>
      <trkpt lat="39.624451" lon="3.360444">
        <ele>69.608</ele>
        <time>2021-09-01T09:17:33Z</time>
      </trkpt>
      <trkpt lat="39.624379" lon="3.360499">
        <ele>69.827</ele>
        <time>2021-09-01T09:17:35Z</time>
      </trkpt>
      <trkpt lat="39.624300" lon="3.360550">
        <ele>69.991</ele>
        <time>2021-09-01T09:17:37Z</time>
      </trkpt>
      <trkpt lat="39.624258" lon="3.360580">
        <ele>69.926</ele>
        <time>2021-09-01T09:17:38Z</time>
      </trkpt>
      <trkpt lat="39.624186" lon="3.360636">
        <ele>69.960</ele>
        <time>2021-09-01T09:17:40Z</time>
      </trkpt>
      <trkpt lat="39.624110" lon="3.360695">
        <ele>69.989</ele>
        <time>2021-09-01T09:17:42Z</time>
      </trkpt>
      <trkpt lat="39.624032" lon="3.360745">
        <ele>70.074</ele>
        <time>2021-09-01T09:17:44Z</time>
      </trkpt>
      <trkpt lat="39.623992" lon="3.360776">
        <ele>70.041</ele>
        <time>2021-09-01T09:17:45Z</time>
      </trkpt>
      <trkpt lat="39.623916" lon="3.360828">
        <ele>69.981</ele>
        <time>2021-09-01T09:17:47Z</time>
      </trkpt>
      <trkpt lat="39.623841" lon="3.360895">
        <ele>69.794</ele>
        <time>2021-09-01T09:17:49Z</time>
      </trkpt>
      <trkpt lat="39.623799" lon="3.360922">
        <ele>69.757</ele>
        <time>2021-09-01T09:17:50Z</time>
      </trkpt>
      <trkpt lat="39.623713" lon="3.360965">
        <ele>69.622</ele>
        <time>2021-09-01T09:17:52Z</time>
      </trkpt>
      <trkpt lat="39.623672" lon="3.360997">
        <ele>69.508</ele>
        <time>2021-09-01T09:17:53Z</time>
      </trkpt>
      <trkpt lat="39.623632" lon="3.361031">
        <ele>69.427</ele>
        <time>2021-09-01T09:17:54Z</time>
      </trkpt>
      <trkpt lat="39.623585" lon="3.361070">
        <ele>69.221</ele>
        <time>2021-09-01T09:17:55Z</time>
      </trkpt>
      <trkpt lat="39.623546" lon="3.361106">
        <ele>69.116</ele>
        <time>2021-09-01T09:17:56Z</time>
      </trkpt>
      <trkpt lat="39.623508" lon="3.361144">
        <ele>69.180</ele>
        <time>2021-09-01T09:17:57Z</time>
      </trkpt>
      <trkpt lat="39.623425" lon="3.361192">
        <ele>69.389</ele>
        <time>2021-09-01T09:17:59Z</time>
      </trkpt>
      <trkpt lat="39.623376" lon="3.361223">
        <ele>69.344</ele>
        <time>2021-09-01T09:18:00Z</time>
      </trkpt>
      <trkpt lat="39.623333" lon="3.361249">
        <ele>69.411</ele>
        <time>2021-09-01T09:18:01Z</time>
      </trkpt>
      <trkpt lat="39.623293" lon="3.361288">
        <ele>69.481</ele>
        <time>2021-09-01T09:18:02Z</time>
      </trkpt>
      <trkpt lat="39.623254" lon="3.361323">
        <ele>69.465</ele>
        <time>2021-09-01T09:18:03Z</time>
      </trkpt>
      <trkpt lat="39.623209" lon="3.361347">
        <ele>69.468</ele>
        <time>2021-09-01T09:18:04Z</time>
      </trkpt>
      <trkpt lat="39.623164" lon="3.361378">
        <ele>69.414</ele>
        <time>2021-09-01T09:18:05Z</time>
      </trkpt>
      <trkpt lat="39.623082" lon="3.361441">
        <ele>69.408</ele>
        <time>2021-09-01T09:18:07Z</time>
      </trkpt>
      <trkpt lat="39.622998" lon="3.361487">
        <ele>69.354</ele>
        <time>2021-09-01T09:18:09Z</time>
      </trkpt>
      <trkpt lat="39.622954" lon="3.361518">
        <ele>69.488</ele>
        <time>2021-09-01T09:18:10Z</time>
      </trkpt>
      <trkpt lat="39.622912" lon="3.361552">
        <ele>69.463</ele>
        <time>2021-09-01T09:18:11Z</time>
      </trkpt>
      <trkpt lat="39.622833" lon="3.361616">
        <ele>69.637</ele>
        <time>2021-09-01T09:18:13Z</time>
      </trkpt>
      <trkpt lat="39.622791" lon="3.361639">
        <ele>69.726</ele>
        <time>2021-09-01T09:18:14Z</time>
      </trkpt>
      <trkpt lat="39.622750" lon="3.361672">
        <ele>69.811</ele>
        <time>2021-09-01T09:18:15Z</time>
      </trkpt>
      <trkpt lat="39.622708" lon="3.361696">
        <ele>69.998</ele>
        <time>2021-09-01T09:18:16Z</time>
      </trkpt>
      <trkpt lat="39.622628" lon="3.361750">
        <ele>69.948</ele>
        <time>2021-09-01T09:18:18Z</time>
      </trkpt>
      <trkpt lat="39.622592" lon="3.361786">
        <ele>69.811</ele>
        <time>2021-09-01T09:18:19Z</time>
      </trkpt>
      <trkpt lat="39.622519" lon="3.361849">
        <ele>69.721</ele>
        <time>2021-09-01T09:18:21Z</time>
      </trkpt>
      <trkpt lat="39.622442" lon="3.361891">
        <ele>69.703</ele>
        <time>2021-09-01T09:18:23Z</time>
      </trkpt>
      <trkpt lat="39.622371" lon="3.361931">
        <ele>69.808</ele>
        <time>2021-09-01T09:18:25Z</time>
      </trkpt>
      <trkpt lat="39.622302" lon="3.361984">
        <ele>69.799</ele>
        <time>2021-09-01T09:18:27Z</time>
      </trkpt>
      <trkpt lat="39.622220" lon="3.362044">
        <ele>69.613</ele>
        <time>2021-09-01T09:18:29Z</time>
      </trkpt>
      <trkpt lat="39.622134" lon="3.362093">
        <ele>69.598</ele>
        <time>2021-09-01T09:18:31Z</time>
      </trkpt>
      <trkpt lat="39.622065" lon="3.362143">
        <ele>69.382</ele>
        <time>2021-09-01T09:18:33Z</time>
      </trkpt>
      <trkpt lat="39.622020" lon="3.362177">
        <ele>69.251</ele>
        <time>2021-09-01T09:18:34Z</time>
      </trkpt>
      <trkpt lat="39.621940" lon="3.362228">
        <ele>69.146</ele>
        <time>2021-09-01T09:18:36Z</time>
      </trkpt>
      <trkpt lat="39.621891" lon="3.362259">
        <ele>69.113</ele>
        <time>2021-09-01T09:18:37Z</time>
      </trkpt>
      <trkpt lat="39.621846" lon="3.362300">
        <ele>69.023</ele>
        <time>2021-09-01T09:18:38Z</time>
      </trkpt>
      <trkpt lat="39.621809" lon="3.362335">
        <ele>69.095</ele>
        <time>2021-09-01T09:18:39Z</time>
      </trkpt>
      <trkpt lat="39.621767" lon="3.362365">
        <ele>69.049</ele>
        <time>2021-09-01T09:18:40Z</time>
      </trkpt>
      <trkpt lat="39.621681" lon="3.362421">
        <ele>69.023</ele>
        <time>2021-09-01T09:18:42Z</time>
      </trkpt>
      <trkpt lat="39.621638" lon="3.362451">
        <ele>69.008</ele>
        <time>2021-09-01T09:18:43Z</time>
      </trkpt>
      <trkpt lat="39.621599" lon="3.362486">
        <ele>69.027</ele>
        <time>2021-09-01T09:18:44Z</time>
      </trkpt>
      <trkpt lat="39.621559" lon="3.362519">
        <ele>69.041</ele>
        <time>2021-09-01T09:18:45Z</time>
      </trkpt>
      <trkpt lat="39.621512" lon="3.362549">
        <ele>68.996</ele>
        <time>2021-09-01T09:18:46Z</time>
      </trkpt>
      <trkpt lat="39.621427" lon="3.362601">
        <ele>68.960</ele>
        <time>2021-09-01T09:18:48Z</time>
      </trkpt>
      <trkpt lat="39.621388" lon="3.362636">
        <ele>68.959</ele>
        <time>2021-09-01T09:18:49Z</time>
      </trkpt>
      <trkpt lat="39.621342" lon="3.362665">
        <ele>68.964</ele>
        <time>2021-09-01T09:18:50Z</time>
      </trkpt>
      <trkpt lat="39.621304" lon="3.362700">
        <ele>68.871</ele>
        <time>2021-09-01T09:18:51Z</time>
      </trkpt>
      <trkpt lat="39.621259" lon="3.362729">
        <ele>68.861</ele>
        <time>2021-09-01T09:18:52Z</time>
      </trkpt>
      <trkpt lat="39.621218" lon="3.362764">
        <ele>68.887</ele>
        <time>2021-09-01T09:18:53Z</time>
      </trkpt>
      <trkpt lat="39.621180" lon="3.362799">
        <ele>68.742</ele>
        <time>2021-09-01T09:18:54Z</time>
      </trkpt>
      <trkpt lat="39.621137" lon="3.362831">
        <ele>68.726</ele>
        <time>2021-09-01T09:18:55Z</time>
      </trkpt>
      <trkpt lat="39.621095" lon="3.362864">
        <ele>68.708</ele>
        <time>2021-09-01T09:18:56Z</time>
      </trkpt>
      <trkpt lat="39.621057" lon="3.362897">
        <ele>68.716</ele>
        <time>2021-09-01T09:18:57Z</time>
      </trkpt>
      <trkpt lat="39.621010" lon="3.362926">
        <ele>68.750</ele>
        <time>2021-09-01T09:18:58Z</time>
      </trkpt>
      <trkpt lat="39.620929" lon="3.362983">
        <ele>68.855</ele>
        <time>2021-09-01T09:19:00Z</time>
      </trkpt>
      <trkpt lat="39.620885" lon="3.363011">
        <ele>68.869</ele>
        <time>2021-09-01T09:19:01Z</time>
      </trkpt>
      <trkpt lat="39.620843" lon="3.363041">
        <ele>68.888</ele>
        <time>2021-09-01T09:19:02Z</time>
      </trkpt>
      <trkpt lat="39.620802" lon="3.363073">
        <ele>68.873</ele>
        <time>2021-09-01T09:19:03Z</time>
      </trkpt>
      <trkpt lat="39.620759" lon="3.363100">
        <ele>68.850</ele>
        <time>2021-09-01T09:19:04Z</time>
      </trkpt>
      <trkpt lat="39.620717" lon="3.363136">
        <ele>68.930</ele>
        <time>2021-09-01T09:19:05Z</time>
      </trkpt>
      <trkpt lat="39.620639" lon="3.363186">
        <ele>68.936</ele>
        <time>2021-09-01T09:19:07Z</time>
      </trkpt>
      <trkpt lat="39.620597" lon="3.363218">
        <ele>68.917</ele>
        <time>2021-09-01T09:19:08Z</time>
      </trkpt>
      <trkpt lat="39.620557" lon="3.363247">
        <ele>68.818</ele>
        <time>2021-09-01T09:19:09Z</time>
      </trkpt>
      <trkpt lat="39.620515" lon="3.363271">
        <ele>68.608</ele>
        <time>2021-09-01T09:19:10Z</time>
      </trkpt>
      <trkpt lat="39.620476" lon="3.363301">
        <ele>68.511</ele>
        <time>2021-09-01T09:19:11Z</time>
      </trkpt>
      <trkpt lat="39.620433" lon="3.363328">
        <ele>68.415</ele>
        <time>2021-09-01T09:19:12Z</time>
      </trkpt>
      <trkpt lat="39.620354" lon="3.363389">
        <ele>68.340</ele>
        <time>2021-09-01T09:19:14Z</time>
      </trkpt>
      <trkpt lat="39.620275" lon="3.363442">
        <ele>68.234</ele>
        <time>2021-09-01T09:19:16Z</time>
      </trkpt>
      <trkpt lat="39.620207" lon="3.363501">
        <ele>68.383</ele>
        <time>2021-09-01T09:19:18Z</time>
      </trkpt>
      <trkpt lat="39.620147" lon="3.363559">
        <ele>68.388</ele>
        <time>2021-09-01T09:19:20Z</time>
      </trkpt>
      <trkpt lat="39.620097" lon="3.363586">
        <ele>68.355</ele>
        <time>2021-09-01T09:19:22Z</time>
      </trkpt>
      <trkpt lat="39.620042" lon="3.363628">
        <ele>68.595</ele>
        <time>2021-09-01T09:19:24Z</time>
      </trkpt>
      <trkpt lat="39.619991" lon="3.363674">
        <ele>68.613</ele>
        <time>2021-09-01T09:19:26Z</time>
      </trkpt>
      <trkpt lat="39.619949" lon="3.363707">
        <ele>68.743</ele>
        <time>2021-09-01T09:19:28Z</time>
      </trkpt>
      <trkpt lat="39.619895" lon="3.363726">
        <ele>68.507</ele>
        <time>2021-09-01T09:19:30Z</time>
      </trkpt>
      <trkpt lat="39.619827" lon="3.363766">
        <ele>68.408</ele>
        <time>2021-09-01T09:19:32Z</time>
      </trkpt>
      <trkpt lat="39.619749" lon="3.363812">
        <ele>68.319</ele>
        <time>2021-09-01T09:19:34Z</time>
      </trkpt>
      <trkpt lat="39.619673" lon="3.363867">
        <ele>68.313</ele>
        <time>2021-09-01T09:19:36Z</time>
      </trkpt>
      <trkpt lat="39.619587" lon="3.363922">
        <ele>68.488</ele>
        <time>2021-09-01T09:19:38Z</time>
      </trkpt>
      <trkpt lat="39.619544" lon="3.363948">
        <ele>68.562</ele>
        <time>2021-09-01T09:19:39Z</time>
      </trkpt>
      <trkpt lat="39.619475" lon="3.364011">
        <ele>68.611</ele>
        <time>2021-09-01T09:19:41Z</time>
      </trkpt>
      <trkpt lat="39.619432" lon="3.364037">
        <ele>68.696</ele>
        <time>2021-09-01T09:19:42Z</time>
      </trkpt>
      <trkpt lat="39.619387" lon="3.364061">
        <ele>68.583</ele>
        <time>2021-09-01T09:19:43Z</time>
      </trkpt>
      <trkpt lat="39.619317" lon="3.364113">
        <ele>68.583</ele>
        <time>2021-09-01T09:19:45Z</time>
      </trkpt>
      <trkpt lat="39.619274" lon="3.364142">
        <ele>68.569</ele>
        <time>2021-09-01T09:19:46Z</time>
      </trkpt>
      <trkpt lat="39.619233" lon="3.364178">
        <ele>68.404</ele>
        <time>2021-09-01T09:19:47Z</time>
      </trkpt>
      <trkpt lat="39.619192" lon="3.364208">
        <ele>68.424</ele>
        <time>2021-09-01T09:19:48Z</time>
      </trkpt>
      <trkpt lat="39.619151" lon="3.364239">
        <ele>68.408</ele>
        <time>2021-09-01T09:19:49Z</time>
      </trkpt>
      <trkpt lat="39.619109" lon="3.364269">
        <ele>68.484</ele>
        <time>2021-09-01T09:19:50Z</time>
      </trkpt>
      <trkpt lat="39.619035" lon="3.364330">
        <ele>68.468</ele>
        <time>2021-09-01T09:19:52Z</time>
      </trkpt>
      <trkpt lat="39.618980" lon="3.364360">
        <ele>68.453</ele>
        <time>2021-09-01T09:19:53Z</time>
      </trkpt>
      <trkpt lat="39.618940" lon="3.364396">
        <ele>68.497</ele>
        <time>2021-09-01T09:19:54Z</time>
      </trkpt>
      <trkpt lat="39.618898" lon="3.364430">
        <ele>68.576</ele>
        <time>2021-09-01T09:19:55Z</time>
      </trkpt>
      <trkpt lat="39.618862" lon="3.364465">
        <ele>68.591</ele>
        <time>2021-09-01T09:19:56Z</time>
      </trkpt>
      <trkpt lat="39.618823" lon="3.364493">
        <ele>68.668</ele>
        <time>2021-09-01T09:19:57Z</time>
      </trkpt>
      <trkpt lat="39.618778" lon="3.364522">
        <ele>68.728</ele>
        <time>2021-09-01T09:19:58Z</time>
      </trkpt>
      <trkpt lat="39.618735" lon="3.364550">
        <ele>68.828</ele>
        <time>2021-09-01T09:19:59Z</time>
      </trkpt>
      <trkpt lat="39.618693" lon="3.364580">
        <ele>68.989</ele>
        <time>2021-09-01T09:20:00Z</time>
      </trkpt>
      <trkpt lat="39.618615" lon="3.364634">
        <ele>68.917</ele>
        <time>2021-09-01T09:20:02Z</time>
      </trkpt>
      <trkpt lat="39.618543" lon="3.364700">
        <ele>69.108</ele>
        <time>2021-09-01T09:20:04Z</time>
      </trkpt>
      <trkpt lat="39.618502" lon="3.364727">
        <ele>69.170</ele>
        <time>2021-09-01T09:20:05Z</time>
      </trkpt>
      <trkpt lat="39.618428" lon="3.364785">
        <ele>69.094</ele>
        <time>2021-09-01T09:20:07Z</time>
      </trkpt>
      <trkpt lat="39.618387" lon="3.364815">
        <ele>68.859</ele>
        <time>2021-09-01T09:20:08Z</time>
      </trkpt>
      <trkpt lat="39.618322" lon="3.364874">
        <ele>68.733</ele>
        <time>2021-09-01T09:20:10Z</time>
      </trkpt>
      <trkpt lat="39.618248" lon="3.364931">
        <ele>68.732</ele>
        <time>2021-09-01T09:20:12Z</time>
      </trkpt>
      <trkpt lat="39.618208" lon="3.364961">
        <ele>68.777</ele>
        <time>2021-09-01T09:20:13Z</time>
      </trkpt>
      <trkpt lat="39.618129" lon="3.365019">
        <ele>68.614</ele>
        <time>2021-09-01T09:20:15Z</time>
      </trkpt>
      <trkpt lat="39.618088" lon="3.365047">
        <ele>68.644</ele>
        <time>2021-09-01T09:20:16Z</time>
      </trkpt>
      <trkpt lat="39.618029" lon="3.365100">
        <ele>68.612</ele>
        <time>2021-09-01T09:20:18Z</time>
      </trkpt>
      <trkpt lat="39.617961" lon="3.365091">
        <ele>68.632</ele>
        <time>2021-09-01T09:20:20Z</time>
      </trkpt>
      <trkpt lat="39.617901" lon="3.365133">
        <ele>68.805</ele>
        <time>2021-09-01T09:20:23Z</time>
      </trkpt>
      <trkpt lat="39.617867" lon="3.365207">
        <ele>68.908</ele>
        <time>2021-09-01T09:20:25Z</time>
      </trkpt>
      <trkpt lat="39.617807" lon="3.365259">
        <ele>69.069</ele>
        <time>2021-09-01T09:20:27Z</time>
      </trkpt>
      <trkpt lat="39.617750" lon="3.365299">
        <ele>69.023</ele>
        <time>2021-09-01T09:20:29Z</time>
      </trkpt>
      <trkpt lat="39.617680" lon="3.365337">
        <ele>69.158</ele>
        <time>2021-09-01T09:20:31Z</time>
      </trkpt>
      <trkpt lat="39.617620" lon="3.365361">
        <ele>69.262</ele>
        <time>2021-09-01T09:20:33Z</time>
      </trkpt>
      <trkpt lat="39.617553" lon="3.365398">
        <ele>69.331</ele>
        <time>2021-09-01T09:20:35Z</time>
      </trkpt>
      <trkpt lat="39.617500" lon="3.365373">
        <ele>69.366</ele>
        <time>2021-09-01T09:20:37Z</time>
      </trkpt>
      <trkpt lat="39.617508" lon="3.365314">
        <ele>69.163</ele>
        <time>2021-09-01T09:20:40Z</time>
      </trkpt>
      <trkpt lat="39.617496" lon="3.365222">
        <ele>68.933</ele>
        <time>2021-09-01T09:20:43Z</time>
      </trkpt>
      <trkpt lat="39.617484" lon="3.365136">
        <ele>68.934</ele>
        <time>2021-09-01T09:20:45Z</time>
      </trkpt>
      <trkpt lat="39.617478" lon="3.365046">
        <ele>68.955</ele>
        <time>2021-09-01T09:20:47Z</time>
      </trkpt>
      <trkpt lat="39.617476" lon="3.364951">
        <ele>68.910</ele>
        <time>2021-09-01T09:20:49Z</time>
      </trkpt>
      <trkpt lat="39.617493" lon="3.364888">
        <ele>69.208</ele>
        <time>2021-09-01T09:20:52Z</time>
      </trkpt>
      <trkpt lat="39.617482" lon="3.364798">
        <ele>69.611</ele>
        <time>2021-09-01T09:20:54Z</time>
      </trkpt>
      <trkpt lat="39.617443" lon="3.364732">
        <ele>69.645</ele>
        <time>2021-09-01T09:20:56Z</time>
      </trkpt>
      <trkpt lat="39.617361" lon="3.364721">
        <ele>69.740</ele>
        <time>2021-09-01T09:20:58Z</time>
      </trkpt>
      <trkpt lat="39.617292" lon="3.364757">
        <ele>69.744</ele>
        <time>2021-09-01T09:21:00Z</time>
      </trkpt>
      <trkpt lat="39.617246" lon="3.364823">
        <ele>69.983</ele>
        <time>2021-09-01T09:21:02Z</time>
      </trkpt>
      <trkpt lat="39.617209" lon="3.364874">
        <ele>70.398</ele>
        <time>2021-09-01T09:21:10Z</time>
      </trkpt>
      <trkpt lat="39.617176" lon="3.364952">
        <ele>70.245</ele>
        <time>2021-09-01T09:21:13Z</time>
      </trkpt>
      <trkpt lat="39.617156" lon="3.365018">
        <ele>70.215</ele>
        <time>2021-09-01T09:21:16Z</time>
      </trkpt>
      <trkpt lat="39.617116" lon="3.365087">
        <ele>70.281</ele>
        <time>2021-09-01T09:21:18Z</time>
      </trkpt>
      <trkpt lat="39.617102" lon="3.365156">
        <ele>70.161</ele>
        <time>2021-09-01T09:21:20Z</time>
      </trkpt>
      <trkpt lat="39.617082" lon="3.365234">
        <ele>70.017</ele>
        <time>2021-09-01T09:21:22Z</time>
      </trkpt>
      <trkpt lat="39.617053" lon="3.365317">
        <ele>69.908</ele>
        <time>2021-09-01T09:21:24Z</time>
      </trkpt>
      <trkpt lat="39.617010" lon="3.365391">
        <ele>69.966</ele>
        <time>2021-09-01T09:21:26Z</time>
      </trkpt>
      <trkpt lat="39.616966" lon="3.365467">
        <ele>70.090</ele>
        <time>2021-09-01T09:21:28Z</time>
      </trkpt>
      <trkpt lat="39.616915" lon="3.365528">
        <ele>70.095</ele>
        <time>2021-09-01T09:21:30Z</time>
      </trkpt>
      <trkpt lat="39.616858" lon="3.365609">
        <ele>69.789</ele>
        <time>2021-09-01T09:21:32Z</time>
      </trkpt>
      <trkpt lat="39.616824" lon="3.365700">
        <ele>69.558</ele>
        <time>2021-09-01T09:21:34Z</time>
      </trkpt>
      <trkpt lat="39.616793" lon="3.365751">
        <ele>69.433</ele>
        <time>2021-09-01T09:21:35Z</time>
      </trkpt>
      <trkpt lat="39.616763" lon="3.365796">
        <ele>69.470</ele>
        <time>2021-09-01T09:21:36Z</time>
      </trkpt>
      <trkpt lat="39.616732" lon="3.365893">
        <ele>69.450</ele>
        <time>2021-09-01T09:21:38Z</time>
      </trkpt>
      <trkpt lat="39.616685" lon="3.365988">
        <ele>69.284</ele>
        <time>2021-09-01T09:21:40Z</time>
      </trkpt>
      <trkpt lat="39.616639" lon="3.366077">
        <ele>69.107</ele>
        <time>2021-09-01T09:21:42Z</time>
      </trkpt>
      <trkpt lat="39.616604" lon="3.366115">
        <ele>69.017</ele>
        <time>2021-09-01T09:21:43Z</time>
      </trkpt>
      <trkpt lat="39.616548" lon="3.366142">
        <ele>69.008</ele>
        <time>2021-09-01T09:21:44Z</time>
      </trkpt>
      <trkpt lat="39.616497" lon="3.366164">
        <ele>68.916</ele>
        <time>2021-09-01T09:21:45Z</time>
      </trkpt>
      <trkpt lat="39.616419" lon="3.366225">
        <ele>68.770</ele>
        <time>2021-09-01T09:21:47Z</time>
      </trkpt>
      <trkpt lat="39.616347" lon="3.366279">
        <ele>68.695</ele>
        <time>2021-09-01T09:21:49Z</time>
      </trkpt>
      <trkpt lat="39.616296" lon="3.366312">
        <ele>68.699</ele>
        <time>2021-09-01T09:21:50Z</time>
      </trkpt>
      <trkpt lat="39.616254" lon="3.366347">
        <ele>68.568</ele>
        <time>2021-09-01T09:21:51Z</time>
      </trkpt>
      <trkpt lat="39.616212" lon="3.366384">
        <ele>68.493</ele>
        <time>2021-09-01T09:21:52Z</time>
      </trkpt>
      <trkpt lat="39.616130" lon="3.366430">
        <ele>68.170</ele>
        <time>2021-09-01T09:21:54Z</time>
      </trkpt>
      <trkpt lat="39.616089" lon="3.366475">
        <ele>68.080</ele>
        <time>2021-09-01T09:21:55Z</time>
      </trkpt>
      <trkpt lat="39.616045" lon="3.366509">
        <ele>68.048</ele>
        <time>2021-09-01T09:21:56Z</time>
      </trkpt>
      <trkpt lat="39.615967" lon="3.366577">
        <ele>68.061</ele>
        <time>2021-09-01T09:21:58Z</time>
      </trkpt>
      <trkpt lat="39.615921" lon="3.366605">
        <ele>68.017</ele>
        <time>2021-09-01T09:21:59Z</time>
      </trkpt>
      <trkpt lat="39.615878" lon="3.366629">
        <ele>68.108</ele>
        <time>2021-09-01T09:22:00Z</time>
      </trkpt>
      <trkpt lat="39.615837" lon="3.366660">
        <ele>68.122</ele>
        <time>2021-09-01T09:22:01Z</time>
      </trkpt>
      <trkpt lat="39.615794" lon="3.366700">
        <ele>68.186</ele>
        <time>2021-09-01T09:22:02Z</time>
      </trkpt>
      <trkpt lat="39.615753" lon="3.366728">
        <ele>68.111</ele>
        <time>2021-09-01T09:22:03Z</time>
      </trkpt>
      <trkpt lat="39.615712" lon="3.366755">
        <ele>68.065</ele>
        <time>2021-09-01T09:22:04Z</time>
      </trkpt>
      <trkpt lat="39.615672" lon="3.366784">
        <ele>67.954</ele>
        <time>2021-09-01T09:22:05Z</time>
      </trkpt>
      <trkpt lat="39.615629" lon="3.366811">
        <ele>67.869</ele>
        <time>2021-09-01T09:22:06Z</time>
      </trkpt>
      <trkpt lat="39.615553" lon="3.366861">
        <ele>67.876</ele>
        <time>2021-09-01T09:22:08Z</time>
      </trkpt>
      <trkpt lat="39.615512" lon="3.366886">
        <ele>67.976</ele>
        <time>2021-09-01T09:22:09Z</time>
      </trkpt>
      <trkpt lat="39.615433" lon="3.366934">
        <ele>68.146</ele>
        <time>2021-09-01T09:22:11Z</time>
      </trkpt>
      <trkpt lat="39.615389" lon="3.366959">
        <ele>68.288</ele>
        <time>2021-09-01T09:22:12Z</time>
      </trkpt>
      <trkpt lat="39.615305" lon="3.367006">
        <ele>68.316</ele>
        <time>2021-09-01T09:22:14Z</time>
      </trkpt>
      <trkpt lat="39.615230" lon="3.367053">
        <ele>68.208</ele>
        <time>2021-09-01T09:22:16Z</time>
      </trkpt>
      <trkpt lat="39.615180" lon="3.367064">
        <ele>68.242</ele>
        <time>2021-09-01T09:22:17Z</time>
      </trkpt>
      <trkpt lat="39.615101" lon="3.367104">
        <ele>68.126</ele>
        <time>2021-09-01T09:22:19Z</time>
      </trkpt>
      <trkpt lat="39.615015" lon="3.367145">
        <ele>68.161</ele>
        <time>2021-09-01T09:22:21Z</time>
      </trkpt>
      <trkpt lat="39.614935" lon="3.367185">
        <ele>68.475</ele>
        <time>2021-09-01T09:22:23Z</time>
      </trkpt>
      <trkpt lat="39.614845" lon="3.367209">
        <ele>68.964</ele>
        <time>2021-09-01T09:22:25Z</time>
      </trkpt>
      <trkpt lat="39.614802" lon="3.367234">
        <ele>69.019</ele>
        <time>2021-09-01T09:22:26Z</time>
      </trkpt>
      <trkpt lat="39.614715" lon="3.367267">
        <ele>68.846</ele>
        <time>2021-09-01T09:22:28Z</time>
      </trkpt>
      <trkpt lat="39.614629" lon="3.367287">
        <ele>68.556</ele>
        <time>2021-09-01T09:22:30Z</time>
      </trkpt>
      <trkpt lat="39.614583" lon="3.367299">
        <ele>68.482</ele>
        <time>2021-09-01T09:22:31Z</time>
      </trkpt>
      <trkpt lat="39.614537" lon="3.367321">
        <ele>68.343</ele>
        <time>2021-09-01T09:22:32Z</time>
      </trkpt>
      <trkpt lat="39.614494" lon="3.367341">
        <ele>68.317</ele>
        <time>2021-09-01T09:22:33Z</time>
      </trkpt>
      <trkpt lat="39.614443" lon="3.367356">
        <ele>68.308</ele>
        <time>2021-09-01T09:22:34Z</time>
      </trkpt>
      <trkpt lat="39.614398" lon="3.367360">
        <ele>68.356</ele>
        <time>2021-09-01T09:22:35Z</time>
      </trkpt>
      <trkpt lat="39.614349" lon="3.367369">
        <ele>68.440</ele>
        <time>2021-09-01T09:22:36Z</time>
      </trkpt>
      <trkpt lat="39.614299" lon="3.367369">
        <ele>68.475</ele>
        <time>2021-09-01T09:22:37Z</time>
      </trkpt>
      <trkpt lat="39.614252" lon="3.367382">
        <ele>68.519</ele>
        <time>2021-09-01T09:22:38Z</time>
      </trkpt>
      <trkpt lat="39.614199" lon="3.367394">
        <ele>68.468</ele>
        <time>2021-09-01T09:22:39Z</time>
      </trkpt>
      <trkpt lat="39.614154" lon="3.367395">
        <ele>68.493</ele>
        <time>2021-09-01T09:22:40Z</time>
      </trkpt>
      <trkpt lat="39.614072" lon="3.367420">
        <ele>68.420</ele>
        <time>2021-09-01T09:22:42Z</time>
      </trkpt>
      <trkpt lat="39.614020" lon="3.367427">
        <ele>68.320</ele>
        <time>2021-09-01T09:22:43Z</time>
      </trkpt>
      <trkpt lat="39.613924" lon="3.367432">
        <ele>68.096</ele>
        <time>2021-09-01T09:22:45Z</time>
      </trkpt>
      <trkpt lat="39.613829" lon="3.367449">
        <ele>68.031</ele>
        <time>2021-09-01T09:22:47Z</time>
      </trkpt>
      <trkpt lat="39.613783" lon="3.367454">
        <ele>68.024</ele>
        <time>2021-09-01T09:22:48Z</time>
      </trkpt>
      <trkpt lat="39.613731" lon="3.367462">
        <ele>68.008</ele>
        <time>2021-09-01T09:22:49Z</time>
      </trkpt>
      <trkpt lat="39.613684" lon="3.367468">
        <ele>68.027</ele>
        <time>2021-09-01T09:22:50Z</time>
      </trkpt>
      <trkpt lat="39.613632" lon="3.367466">
        <ele>67.961</ele>
        <time>2021-09-01T09:22:51Z</time>
      </trkpt>
      <trkpt lat="39.613581" lon="3.367477">
        <ele>67.846</ele>
        <time>2021-09-01T09:22:52Z</time>
      </trkpt>
      <trkpt lat="39.613533" lon="3.367480">
        <ele>67.650</ele>
        <time>2021-09-01T09:22:53Z</time>
      </trkpt>
      <trkpt lat="39.613438" lon="3.367482">
        <ele>67.279</ele>
        <time>2021-09-01T09:22:55Z</time>
      </trkpt>
      <trkpt lat="39.613390" lon="3.367488">
        <ele>67.254</ele>
        <time>2021-09-01T09:22:56Z</time>
      </trkpt>
      <trkpt lat="39.613333" lon="3.367496">
        <ele>67.091</ele>
        <time>2021-09-01T09:22:57Z</time>
      </trkpt>
      <trkpt lat="39.613255" lon="3.367503">
        <ele>66.741</ele>
        <time>2021-09-01T09:22:59Z</time>
      </trkpt>
      <trkpt lat="39.613191" lon="3.367538">
        <ele>66.124</ele>
        <time>2021-09-01T09:23:01Z</time>
      </trkpt>
      <trkpt lat="39.613123" lon="3.367576">
        <ele>65.404</ele>
        <time>2021-09-01T09:23:03Z</time>
      </trkpt>
      <trkpt lat="39.613028" lon="3.367556">
        <ele>64.814</ele>
        <time>2021-09-01T09:23:05Z</time>
      </trkpt>
      <trkpt lat="39.612971" lon="3.367544">
        <ele>64.508</ele>
        <time>2021-09-01T09:23:06Z</time>
      </trkpt>
      <trkpt lat="39.612918" lon="3.367539">
        <ele>64.240</ele>
        <time>2021-09-01T09:23:07Z</time>
      </trkpt>
      <trkpt lat="39.612853" lon="3.367519">
        <ele>63.554</ele>
        <time>2021-09-01T09:23:09Z</time>
      </trkpt>
      <trkpt lat="39.612804" lon="3.367516">
        <ele>63.229</ele>
        <time>2021-09-01T09:23:10Z</time>
      </trkpt>
      <trkpt lat="39.612719" lon="3.367503">
        <ele>62.923</ele>
        <time>2021-09-01T09:23:12Z</time>
      </trkpt>
      <trkpt lat="39.612652" lon="3.367516">
        <ele>62.912</ele>
        <time>2021-09-01T09:23:14Z</time>
      </trkpt>
      <trkpt lat="39.612590" lon="3.367516">
        <ele>63.197</ele>
        <time>2021-09-01T09:23:16Z</time>
      </trkpt>
      <trkpt lat="39.612529" lon="3.367510">
        <ele>63.494</ele>
        <time>2021-09-01T09:23:18Z</time>
      </trkpt>
      <trkpt lat="39.612466" lon="3.367506">
        <ele>63.964</ele>
        <time>2021-09-01T09:23:20Z</time>
      </trkpt>
      <trkpt lat="39.612414" lon="3.367507">
        <ele>64.427</ele>
        <time>2021-09-01T09:23:22Z</time>
      </trkpt>
      <trkpt lat="39.612358" lon="3.367511">
        <ele>64.968</ele>
        <time>2021-09-01T09:23:24Z</time>
      </trkpt>
      <trkpt lat="39.612305" lon="3.367521">
        <ele>65.314</ele>
        <time>2021-09-01T09:23:26Z</time>
      </trkpt>
      <trkpt lat="39.612237" lon="3.367516">
        <ele>65.808</ele>
        <time>2021-09-01T09:23:28Z</time>
      </trkpt>
      <trkpt lat="39.612174" lon="3.367522">
        <ele>66.320</ele>
        <time>2021-09-01T09:23:30Z</time>
      </trkpt>
      <trkpt lat="39.612108" lon="3.367521">
        <ele>66.864</ele>
        <time>2021-09-01T09:23:32Z</time>
      </trkpt>
      <trkpt lat="39.612039" lon="3.367524">
        <ele>67.039</ele>
        <time>2021-09-01T09:23:34Z</time>
      </trkpt>
      <trkpt lat="39.611972" lon="3.367526">
        <ele>67.343</ele>
        <time>2021-09-01T09:23:36Z</time>
      </trkpt>
      <trkpt lat="39.611910" lon="3.367523">
        <ele>67.622</ele>
        <time>2021-09-01T09:23:38Z</time>
      </trkpt>
      <trkpt lat="39.611849" lon="3.367516">
        <ele>67.937</ele>
        <time>2021-09-01T09:23:40Z</time>
      </trkpt>
      <trkpt lat="39.611788" lon="3.367520">
        <ele>68.224</ele>
        <time>2021-09-01T09:23:42Z</time>
      </trkpt>
      <trkpt lat="39.611718" lon="3.367524">
        <ele>68.494</ele>
        <time>2021-09-01T09:23:44Z</time>
      </trkpt>
      <trkpt lat="39.611640" lon="3.367528">
        <ele>68.517</ele>
        <time>2021-09-01T09:23:46Z</time>
      </trkpt>
      <trkpt lat="39.611555" lon="3.367529">
        <ele>68.787</ele>
        <time>2021-09-01T09:23:48Z</time>
      </trkpt>
      <trkpt lat="39.611473" lon="3.367529">
        <ele>68.915</ele>
        <time>2021-09-01T09:23:50Z</time>
      </trkpt>
      <trkpt lat="39.611386" lon="3.367534">
        <ele>69.008</ele>
        <time>2021-09-01T09:23:52Z</time>
      </trkpt>
      <trkpt lat="39.611302" lon="3.367532">
        <ele>68.969</ele>
        <time>2021-09-01T09:23:54Z</time>
      </trkpt>
      <trkpt lat="39.611220" lon="3.367536">
        <ele>68.953</ele>
        <time>2021-09-01T09:23:56Z</time>
      </trkpt>
      <trkpt lat="39.611172" lon="3.367544">
        <ele>69.188</ele>
        <time>2021-09-01T09:23:57Z</time>
      </trkpt>
      <trkpt lat="39.611090" lon="3.367547">
        <ele>69.262</ele>
        <time>2021-09-01T09:23:59Z</time>
      </trkpt>
      <trkpt lat="39.611006" lon="3.367548">
        <ele>69.381</ele>
        <time>2021-09-01T09:24:01Z</time>
      </trkpt>
      <trkpt lat="39.610920" lon="3.367556">
        <ele>69.376</ele>
        <time>2021-09-01T09:24:03Z</time>
      </trkpt>
      <trkpt lat="39.610874" lon="3.367557">
        <ele>69.333</ele>
        <time>2021-09-01T09:24:04Z</time>
      </trkpt>
      <trkpt lat="39.610785" lon="3.367561">
        <ele>69.553</ele>
        <time>2021-09-01T09:24:06Z</time>
      </trkpt>
      <trkpt lat="39.610702" lon="3.367564">
        <ele>69.677</ele>
        <time>2021-09-01T09:24:08Z</time>
      </trkpt>
      <trkpt lat="39.610615" lon="3.367566">
        <ele>69.761</ele>
        <time>2021-09-01T09:24:10Z</time>
      </trkpt>
      <trkpt lat="39.610526" lon="3.367569">
        <ele>69.827</ele>
        <time>2021-09-01T09:24:12Z</time>
      </trkpt>
      <trkpt lat="39.610439" lon="3.367574">
        <ele>69.908</ele>
        <time>2021-09-01T09:24:14Z</time>
      </trkpt>
      <trkpt lat="39.610355" lon="3.367584">
        <ele>70.025</ele>
        <time>2021-09-01T09:24:16Z</time>
      </trkpt>
      <trkpt lat="39.610311" lon="3.367595">
        <ele>70.169</ele>
        <time>2021-09-01T09:24:17Z</time>
      </trkpt>
      <trkpt lat="39.610264" lon="3.367594">
        <ele>70.294</ele>
        <time>2021-09-01T09:24:18Z</time>
      </trkpt>
      <trkpt lat="39.610215" lon="3.367589">
        <ele>70.298</ele>
        <time>2021-09-01T09:24:19Z</time>
      </trkpt>
      <trkpt lat="39.610133" lon="3.367594">
        <ele>70.267</ele>
        <time>2021-09-01T09:24:21Z</time>
      </trkpt>
      <trkpt lat="39.610087" lon="3.367594">
        <ele>70.052</ele>
        <time>2021-09-01T09:24:22Z</time>
      </trkpt>
      <trkpt lat="39.609997" lon="3.367596">
        <ele>70.049</ele>
        <time>2021-09-01T09:24:24Z</time>
      </trkpt>
      <trkpt lat="39.609904" lon="3.367601">
        <ele>70.099</ele>
        <time>2021-09-01T09:24:26Z</time>
      </trkpt>
      <trkpt lat="39.609857" lon="3.367601">
        <ele>70.039</ele>
        <time>2021-09-01T09:24:27Z</time>
      </trkpt>
      <trkpt lat="39.609772" lon="3.367601">
        <ele>69.901</ele>
        <time>2021-09-01T09:24:29Z</time>
      </trkpt>
      <trkpt lat="39.609725" lon="3.367603">
        <ele>69.921</ele>
        <time>2021-09-01T09:24:30Z</time>
      </trkpt>
      <trkpt lat="39.609676" lon="3.367610">
        <ele>70.008</ele>
        <time>2021-09-01T09:24:31Z</time>
      </trkpt>
      <trkpt lat="39.609630" lon="3.367605">
        <ele>70.051</ele>
        <time>2021-09-01T09:24:32Z</time>
      </trkpt>
      <trkpt lat="39.609585" lon="3.367603">
        <ele>70.235</ele>
        <time>2021-09-01T09:24:33Z</time>
      </trkpt>
      <trkpt lat="39.609538" lon="3.367604">
        <ele>70.230</ele>
        <time>2021-09-01T09:24:34Z</time>
      </trkpt>
      <trkpt lat="39.609490" lon="3.367603">
        <ele>70.334</ele>
        <time>2021-09-01T09:24:35Z</time>
      </trkpt>
      <trkpt lat="39.609444" lon="3.367605">
        <ele>70.393</ele>
        <time>2021-09-01T09:24:36Z</time>
      </trkpt>
      <trkpt lat="39.609354" lon="3.367607">
        <ele>70.378</ele>
        <time>2021-09-01T09:24:38Z</time>
      </trkpt>
      <trkpt lat="39.609264" lon="3.367612">
        <ele>70.385</ele>
        <time>2021-09-01T09:24:40Z</time>
      </trkpt>
      <trkpt lat="39.609217" lon="3.367616">
        <ele>70.465</ele>
        <time>2021-09-01T09:24:41Z</time>
      </trkpt>
      <trkpt lat="39.609128" lon="3.367617">
        <ele>70.592</ele>
        <time>2021-09-01T09:24:43Z</time>
      </trkpt>
      <trkpt lat="39.609040" lon="3.367617">
        <ele>70.773</ele>
        <time>2021-09-01T09:24:45Z</time>
      </trkpt>
      <trkpt lat="39.608952" lon="3.367616">
        <ele>70.820</ele>
        <time>2021-09-01T09:24:47Z</time>
      </trkpt>
      <trkpt lat="39.608863" lon="3.367626">
        <ele>71.008</ele>
        <time>2021-09-01T09:24:49Z</time>
      </trkpt>
      <trkpt lat="39.608818" lon="3.367627">
        <ele>71.037</ele>
        <time>2021-09-01T09:24:50Z</time>
      </trkpt>
      <trkpt lat="39.608772" lon="3.367628">
        <ele>71.121</ele>
        <time>2021-09-01T09:24:51Z</time>
      </trkpt>
      <trkpt lat="39.608727" lon="3.367629">
        <ele>71.266</ele>
        <time>2021-09-01T09:24:52Z</time>
      </trkpt>
      <trkpt lat="39.608681" lon="3.367634">
        <ele>71.260</ele>
        <time>2021-09-01T09:24:53Z</time>
      </trkpt>
      <trkpt lat="39.608633" lon="3.367636">
        <ele>71.369</ele>
        <time>2021-09-01T09:24:54Z</time>
      </trkpt>
      <trkpt lat="39.608546" lon="3.367637">
        <ele>71.544</ele>
        <time>2021-09-01T09:24:56Z</time>
      </trkpt>
      <trkpt lat="39.608457" lon="3.367637">
        <ele>71.551</ele>
        <time>2021-09-01T09:24:58Z</time>
      </trkpt>
      <trkpt lat="39.608411" lon="3.367640">
        <ele>71.541</ele>
        <time>2021-09-01T09:24:59Z</time>
      </trkpt>
      <trkpt lat="39.608325" lon="3.367646">
        <ele>71.469</ele>
        <time>2021-09-01T09:25:01Z</time>
      </trkpt>
      <trkpt lat="39.608241" lon="3.367647">
        <ele>71.404</ele>
        <time>2021-09-01T09:25:03Z</time>
      </trkpt>
      <trkpt lat="39.608154" lon="3.367659">
        <ele>71.624</ele>
        <time>2021-09-01T09:25:05Z</time>
      </trkpt>
      <trkpt lat="39.608065" lon="3.367657">
        <ele>71.708</ele>
        <time>2021-09-01T09:25:07Z</time>
      </trkpt>
      <trkpt lat="39.607977" lon="3.367660">
        <ele>71.874</ele>
        <time>2021-09-01T09:25:09Z</time>
      </trkpt>
      <trkpt lat="39.607890" lon="3.367668">
        <ele>71.868</ele>
        <time>2021-09-01T09:25:11Z</time>
      </trkpt>
      <trkpt lat="39.607804" lon="3.367663">
        <ele>71.743</ele>
        <time>2021-09-01T09:25:13Z</time>
      </trkpt>
      <trkpt lat="39.607714" lon="3.367664">
        <ele>71.817</ele>
        <time>2021-09-01T09:25:15Z</time>
      </trkpt>
      <trkpt lat="39.607621" lon="3.367671">
        <ele>71.816</ele>
        <time>2021-09-01T09:25:17Z</time>
      </trkpt>
      <trkpt lat="39.607570" lon="3.367667">
        <ele>71.861</ele>
        <time>2021-09-01T09:25:18Z</time>
      </trkpt>
      <trkpt lat="39.607523" lon="3.367672">
        <ele>71.938</ele>
        <time>2021-09-01T09:25:19Z</time>
      </trkpt>
      <trkpt lat="39.607433" lon="3.367689">
        <ele>72.078</ele>
        <time>2021-09-01T09:25:21Z</time>
      </trkpt>
      <trkpt lat="39.607386" lon="3.367688">
        <ele>72.113</ele>
        <time>2021-09-01T09:25:22Z</time>
      </trkpt>
      <trkpt lat="39.607338" lon="3.367687">
        <ele>72.343</ele>
        <time>2021-09-01T09:25:23Z</time>
      </trkpt>
      <trkpt lat="39.607291" lon="3.367685">
        <ele>72.507</ele>
        <time>2021-09-01T09:25:24Z</time>
      </trkpt>
      <trkpt lat="39.607246" lon="3.367683">
        <ele>72.708</ele>
        <time>2021-09-01T09:25:25Z</time>
      </trkpt>
      <trkpt lat="39.607199" lon="3.367682">
        <ele>72.749</ele>
        <time>2021-09-01T09:25:26Z</time>
      </trkpt>
      <trkpt lat="39.607110" lon="3.367693">
        <ele>72.593</ele>
        <time>2021-09-01T09:25:28Z</time>
      </trkpt>
      <trkpt lat="39.607060" lon="3.367692">
        <ele>72.478</ele>
        <time>2021-09-01T09:25:29Z</time>
      </trkpt>
      <trkpt lat="39.606977" lon="3.367695">
        <ele>72.392</ele>
        <time>2021-09-01T09:25:31Z</time>
      </trkpt>
      <trkpt lat="39.606888" lon="3.367694">
        <ele>72.461</ele>
        <time>2021-09-01T09:25:33Z</time>
      </trkpt>
      <trkpt lat="39.606837" lon="3.367703">
        <ele>72.446</ele>
        <time>2021-09-01T09:25:34Z</time>
      </trkpt>
      <trkpt lat="39.606744" lon="3.367697">
        <ele>72.313</ele>
        <time>2021-09-01T09:25:36Z</time>
      </trkpt>
      <trkpt lat="39.606697" lon="3.367704">
        <ele>72.373</ele>
        <time>2021-09-01T09:25:37Z</time>
      </trkpt>
      <trkpt lat="39.606602" lon="3.367724">
        <ele>72.498</ele>
        <time>2021-09-01T09:25:39Z</time>
      </trkpt>
      <trkpt lat="39.606514" lon="3.367734">
        <ele>72.415</ele>
        <time>2021-09-01T09:25:41Z</time>
      </trkpt>
      <trkpt lat="39.606422" lon="3.367740">
        <ele>72.426</ele>
        <time>2021-09-01T09:25:43Z</time>
      </trkpt>
      <trkpt lat="39.606334" lon="3.367742">
        <ele>72.608</ele>
        <time>2021-09-01T09:25:45Z</time>
      </trkpt>
      <trkpt lat="39.606246" lon="3.367753">
        <ele>72.797</ele>
        <time>2021-09-01T09:25:47Z</time>
      </trkpt>
      <trkpt lat="39.606196" lon="3.367756">
        <ele>72.781</ele>
        <time>2021-09-01T09:25:48Z</time>
      </trkpt>
      <trkpt lat="39.606148" lon="3.367763">
        <ele>72.796</ele>
        <time>2021-09-01T09:25:49Z</time>
      </trkpt>
      <trkpt lat="39.606058" lon="3.367762">
        <ele>72.550</ele>
        <time>2021-09-01T09:25:51Z</time>
      </trkpt>
      <trkpt lat="39.606009" lon="3.367765">
        <ele>72.429</ele>
        <time>2021-09-01T09:25:52Z</time>
      </trkpt>
      <trkpt lat="39.605963" lon="3.367767">
        <ele>72.224</ele>
        <time>2021-09-01T09:25:53Z</time>
      </trkpt>
      <trkpt lat="39.605915" lon="3.367767">
        <ele>72.221</ele>
        <time>2021-09-01T09:25:54Z</time>
      </trkpt>
      <trkpt lat="39.605828" lon="3.367773">
        <ele>72.281</ele>
        <time>2021-09-01T09:25:56Z</time>
      </trkpt>
      <trkpt lat="39.605771" lon="3.367767">
        <ele>72.226</ele>
        <time>2021-09-01T09:25:57Z</time>
      </trkpt>
      <trkpt lat="39.605678" lon="3.367768">
        <ele>72.347</ele>
        <time>2021-09-01T09:25:59Z</time>
      </trkpt>
      <trkpt lat="39.605625" lon="3.367767">
        <ele>72.311</ele>
        <time>2021-09-01T09:26:00Z</time>
      </trkpt>
      <trkpt lat="39.605573" lon="3.367770">
        <ele>72.208</ele>
        <time>2021-09-01T09:26:01Z</time>
      </trkpt>
      <trkpt lat="39.605527" lon="3.367773">
        <ele>72.270</ele>
        <time>2021-09-01T09:26:02Z</time>
      </trkpt>
      <trkpt lat="39.605477" lon="3.367774">
        <ele>72.174</ele>
        <time>2021-09-01T09:26:03Z</time>
      </trkpt>
      <trkpt lat="39.605424" lon="3.367777">
        <ele>72.029</ele>
        <time>2021-09-01T09:26:04Z</time>
      </trkpt>
      <trkpt lat="39.605375" lon="3.367775">
        <ele>72.033</ele>
        <time>2021-09-01T09:26:05Z</time>
      </trkpt>
      <trkpt lat="39.605322" lon="3.367770">
        <ele>72.052</ele>
        <time>2021-09-01T09:26:06Z</time>
      </trkpt>
      <trkpt lat="39.605274" lon="3.367773">
        <ele>71.997</ele>
        <time>2021-09-01T09:26:07Z</time>
      </trkpt>
      <trkpt lat="39.605222" lon="3.367780">
        <ele>71.984</ele>
        <time>2021-09-01T09:26:08Z</time>
      </trkpt>
      <trkpt lat="39.605164" lon="3.367775">
        <ele>71.914</ele>
        <time>2021-09-01T09:26:09Z</time>
      </trkpt>
      <trkpt lat="39.605119" lon="3.367785">
        <ele>71.969</ele>
        <time>2021-09-01T09:26:10Z</time>
      </trkpt>
      <trkpt lat="39.605066" lon="3.367786">
        <ele>71.904</ele>
        <time>2021-09-01T09:26:11Z</time>
      </trkpt>
      <trkpt lat="39.605010" lon="3.367780">
        <ele>71.924</ele>
        <time>2021-09-01T09:26:12Z</time>
      </trkpt>
      <trkpt lat="39.604961" lon="3.367783">
        <ele>71.908</ele>
        <time>2021-09-01T09:26:13Z</time>
      </trkpt>
      <trkpt lat="39.604910" lon="3.367791">
        <ele>71.884</ele>
        <time>2021-09-01T09:26:14Z</time>
      </trkpt>
      <trkpt lat="39.604858" lon="3.367793">
        <ele>71.738</ele>
        <time>2021-09-01T09:26:15Z</time>
      </trkpt>
      <trkpt lat="39.604806" lon="3.367794">
        <ele>71.683</ele>
        <time>2021-09-01T09:26:16Z</time>
      </trkpt>
      <trkpt lat="39.604751" lon="3.367794">
        <ele>71.427</ele>
        <time>2021-09-01T09:26:17Z</time>
      </trkpt>
      <trkpt lat="39.604697" lon="3.367794">
        <ele>71.456</ele>
        <time>2021-09-01T09:26:18Z</time>
      </trkpt>
      <trkpt lat="39.604642" lon="3.367792">
        <ele>71.381</ele>
        <time>2021-09-01T09:26:19Z</time>
      </trkpt>
      <trkpt lat="39.604590" lon="3.367795">
        <ele>71.368</ele>
        <time>2021-09-01T09:26:20Z</time>
      </trkpt>
      <trkpt lat="39.604534" lon="3.367794">
        <ele>71.348</ele>
        <time>2021-09-01T09:26:21Z</time>
      </trkpt>
      <trkpt lat="39.604477" lon="3.367795">
        <ele>71.289</ele>
        <time>2021-09-01T09:26:22Z</time>
      </trkpt>
      <trkpt lat="39.604425" lon="3.367787">
        <ele>71.106</ele>
        <time>2021-09-01T09:26:23Z</time>
      </trkpt>
      <trkpt lat="39.604371" lon="3.367780">
        <ele>71.026</ele>
        <time>2021-09-01T09:26:24Z</time>
      </trkpt>
      <trkpt lat="39.604317" lon="3.367776">
        <ele>70.908</ele>
        <time>2021-09-01T09:26:25Z</time>
      </trkpt>
      <trkpt lat="39.604269" lon="3.367767">
        <ele>70.826</ele>
        <time>2021-09-01T09:26:26Z</time>
      </trkpt>
      <trkpt lat="39.604219" lon="3.367756">
        <ele>70.890</ele>
        <time>2021-09-01T09:26:27Z</time>
      </trkpt>
      <trkpt lat="39.604167" lon="3.367747">
        <ele>70.895</ele>
        <time>2021-09-01T09:26:28Z</time>
      </trkpt>
      <trkpt lat="39.604112" lon="3.367742">
        <ele>70.779</ele>
        <time>2021-09-01T09:26:29Z</time>
      </trkpt>
      <trkpt lat="39.604054" lon="3.367732">
        <ele>70.588</ele>
        <time>2021-09-01T09:26:30Z</time>
      </trkpt>
      <trkpt lat="39.603994" lon="3.367710">
        <ele>70.333</ele>
        <time>2021-09-01T09:26:31Z</time>
      </trkpt>
      <trkpt lat="39.603923" lon="3.367702">
        <ele>70.010</ele>
        <time>2021-09-01T09:26:32Z</time>
      </trkpt>
      <trkpt lat="39.603844" lon="3.367690">
        <ele>69.670</ele>
        <time>2021-09-01T09:26:33Z</time>
      </trkpt>
      <trkpt lat="39.603761" lon="3.367671">
        <ele>69.244</ele>
        <time>2021-09-01T09:26:34Z</time>
      </trkpt>
      <trkpt lat="39.603685" lon="3.367661">
        <ele>68.805</ele>
        <time>2021-09-01T09:26:35Z</time>
      </trkpt>
      <trkpt lat="39.603613" lon="3.367648">
        <ele>68.415</ele>
        <time>2021-09-01T09:26:36Z</time>
      </trkpt>
      <trkpt lat="39.603549" lon="3.367631">
        <ele>68.108</ele>
        <time>2021-09-01T09:26:37Z</time>
      </trkpt>
      <trkpt lat="39.603495" lon="3.367615">
        <ele>67.932</ele>
        <time>2021-09-01T09:26:38Z</time>
      </trkpt>
      <trkpt lat="39.603450" lon="3.367602">
        <ele>67.936</ele>
        <time>2021-09-01T09:26:39Z</time>
      </trkpt>
      <trkpt lat="39.603404" lon="3.367586">
        <ele>67.991</ele>
        <time>2021-09-01T09:26:40Z</time>
      </trkpt>
      <trkpt lat="39.603315" lon="3.367549">
        <ele>68.575</ele>
        <time>2021-09-01T09:26:42Z</time>
      </trkpt>
      <trkpt lat="39.603268" lon="3.367530">
        <ele>68.844</ele>
        <time>2021-09-01T09:26:43Z</time>
      </trkpt>
      <trkpt lat="39.603217" lon="3.367513">
        <ele>69.039</ele>
        <time>2021-09-01T09:26:44Z</time>
      </trkpt>
      <trkpt lat="39.603172" lon="3.367509">
        <ele>69.156</ele>
        <time>2021-09-01T09:26:45Z</time>
      </trkpt>
      <trkpt lat="39.603121" lon="3.367484">
        <ele>69.176</ele>
        <time>2021-09-01T09:26:46Z</time>
      </trkpt>
      <trkpt lat="39.603075" lon="3.367466">
        <ele>69.119</ele>
        <time>2021-09-01T09:26:47Z</time>
      </trkpt>
      <trkpt lat="39.603029" lon="3.367448">
        <ele>69.109</ele>
        <time>2021-09-01T09:26:48Z</time>
      </trkpt>
      <trkpt lat="39.602985" lon="3.367425">
        <ele>69.119</ele>
        <time>2021-09-01T09:26:49Z</time>
      </trkpt>
      <trkpt lat="39.602942" lon="3.367394">
        <ele>69.108</ele>
        <time>2021-09-01T09:26:50Z</time>
      </trkpt>
      <trkpt lat="39.602900" lon="3.367367">
        <ele>69.199</ele>
        <time>2021-09-01T09:26:51Z</time>
      </trkpt>
      <trkpt lat="39.602858" lon="3.367343">
        <ele>69.163</ele>
        <time>2021-09-01T09:26:52Z</time>
      </trkpt>
      <trkpt lat="39.602815" lon="3.367318">
        <ele>69.178</ele>
        <time>2021-09-01T09:26:53Z</time>
      </trkpt>
      <trkpt lat="39.602772" lon="3.367289">
        <ele>69.162</ele>
        <time>2021-09-01T09:26:54Z</time>
      </trkpt>
      <trkpt lat="39.602719" lon="3.367269">
        <ele>69.131</ele>
        <time>2021-09-01T09:26:55Z</time>
      </trkpt>
      <trkpt lat="39.602661" lon="3.367242">
        <ele>69.186</ele>
        <time>2021-09-01T09:26:56Z</time>
      </trkpt>
      <trkpt lat="39.602610" lon="3.367216">
        <ele>69.293</ele>
        <time>2021-09-01T09:26:57Z</time>
      </trkpt>
      <trkpt lat="39.602556" lon="3.367186">
        <ele>69.273</ele>
        <time>2021-09-01T09:26:58Z</time>
      </trkpt>
      <trkpt lat="39.602506" lon="3.367150">
        <ele>69.259</ele>
        <time>2021-09-01T09:26:59Z</time>
      </trkpt>
      <trkpt lat="39.602453" lon="3.367110">
        <ele>69.103</ele>
        <time>2021-09-01T09:27:00Z</time>
      </trkpt>
      <trkpt lat="39.602389" lon="3.367091">
        <ele>69.123</ele>
        <time>2021-09-01T09:27:01Z</time>
      </trkpt>
      <trkpt lat="39.602330" lon="3.367047">
        <ele>69.108</ele>
        <time>2021-09-01T09:27:02Z</time>
      </trkpt>
      <trkpt lat="39.602275" lon="3.367009">
        <ele>69.133</ele>
        <time>2021-09-01T09:27:03Z</time>
      </trkpt>
      <trkpt lat="39.602223" lon="3.366974">
        <ele>69.257</ele>
        <time>2021-09-01T09:27:04Z</time>
      </trkpt>
      <trkpt lat="39.602167" lon="3.366939">
        <ele>69.212</ele>
        <time>2021-09-01T09:27:05Z</time>
      </trkpt>
      <trkpt lat="39.602109" lon="3.366899">
        <ele>69.246</ele>
        <time>2021-09-01T09:27:06Z</time>
      </trkpt>
      <trkpt lat="39.602054" lon="3.366859">
        <ele>69.185</ele>
        <time>2021-09-01T09:27:07Z</time>
      </trkpt>
      <trkpt lat="39.602000" lon="3.366818">
        <ele>68.930</ele>
        <time>2021-09-01T09:27:08Z</time>
      </trkpt>
      <trkpt lat="39.601952" lon="3.366776">
        <ele>68.897</ele>
        <time>2021-09-01T09:27:09Z</time>
      </trkpt>
      <trkpt lat="39.601900" lon="3.366733">
        <ele>68.757</ele>
        <time>2021-09-01T09:27:10Z</time>
      </trkpt>
      <trkpt lat="39.601855" lon="3.366689">
        <ele>68.763</ele>
        <time>2021-09-01T09:27:11Z</time>
      </trkpt>
      <trkpt lat="39.601809" lon="3.366649">
        <ele>68.544</ele>
        <time>2021-09-01T09:27:12Z</time>
      </trkpt>
      <trkpt lat="39.601765" lon="3.366605">
        <ele>68.518</ele>
        <time>2021-09-01T09:27:13Z</time>
      </trkpt>
      <trkpt lat="39.601717" lon="3.366563">
        <ele>68.408</ele>
        <time>2021-09-01T09:27:14Z</time>
      </trkpt>
      <trkpt lat="39.601670" lon="3.366518">
        <ele>68.274</ele>
        <time>2021-09-01T09:27:15Z</time>
      </trkpt>
      <trkpt lat="39.601622" lon="3.366472">
        <ele>68.018</ele>
        <time>2021-09-01T09:27:16Z</time>
      </trkpt>
      <trkpt lat="39.601577" lon="3.366421">
        <ele>67.983</ele>
        <time>2021-09-01T09:27:17Z</time>
      </trkpt>
      <trkpt lat="39.601523" lon="3.366375">
        <ele>67.897</ele>
        <time>2021-09-01T09:27:18Z</time>
      </trkpt>
      <trkpt lat="39.601476" lon="3.366324">
        <ele>67.736</ele>
        <time>2021-09-01T09:27:19Z</time>
      </trkpt>
      <trkpt lat="39.601425" lon="3.366276">
        <ele>67.641</ele>
        <time>2021-09-01T09:27:20Z</time>
      </trkpt>
      <trkpt lat="39.601377" lon="3.366227">
        <ele>67.538</ele>
        <time>2021-09-01T09:27:21Z</time>
      </trkpt>
      <trkpt lat="39.601329" lon="3.366171">
        <ele>67.568</ele>
        <time>2021-09-01T09:27:22Z</time>
      </trkpt>
      <trkpt lat="39.601281" lon="3.366114">
        <ele>67.561</ele>
        <time>2021-09-01T09:27:23Z</time>
      </trkpt>
      <trkpt lat="39.601232" lon="3.366059">
        <ele>67.421</ele>
        <time>2021-09-01T09:27:24Z</time>
      </trkpt>
      <trkpt lat="39.601186" lon="3.366015">
        <ele>67.313</ele>
        <time>2021-09-01T09:27:25Z</time>
      </trkpt>
      <trkpt lat="39.601141" lon="3.365965">
        <ele>67.208</ele>
        <time>2021-09-01T09:27:26Z</time>
      </trkpt>
      <trkpt lat="39.601092" lon="3.365921">
        <ele>67.144</ele>
        <time>2021-09-01T09:27:27Z</time>
      </trkpt>
      <trkpt lat="39.601045" lon="3.365831">
        <ele>67.048</ele>
        <time>2021-09-01T09:27:28Z</time>
      </trkpt>
      <trkpt lat="39.600999" lon="3.365770">
        <ele>67.053</ele>
        <time>2021-09-01T09:27:29Z</time>
      </trkpt>
      <trkpt lat="39.600954" lon="3.365718">
        <ele>67.087</ele>
        <time>2021-09-01T09:27:30Z</time>
      </trkpt>
      <trkpt lat="39.600903" lon="3.365659">
        <ele>67.076</ele>
        <time>2021-09-01T09:27:31Z</time>
      </trkpt>
      <trkpt lat="39.600859" lon="3.365606">
        <ele>67.091</ele>
        <time>2021-09-01T09:27:32Z</time>
      </trkpt>
      <trkpt lat="39.600815" lon="3.365556">
        <ele>67.028</ele>
        <time>2021-09-01T09:27:33Z</time>
      </trkpt>
      <trkpt lat="39.600774" lon="3.365493">
        <ele>66.958</ele>
        <time>2021-09-01T09:27:34Z</time>
      </trkpt>
      <trkpt lat="39.600734" lon="3.365425">
        <ele>66.979</ele>
        <time>2021-09-01T09:27:35Z</time>
      </trkpt>
      <trkpt lat="39.600696" lon="3.365360">
        <ele>66.905</ele>
        <time>2021-09-01T09:27:36Z</time>
      </trkpt>
      <trkpt lat="39.600655" lon="3.365299">
        <ele>66.925</ele>
        <time>2021-09-01T09:27:37Z</time>
      </trkpt>
      <trkpt lat="39.600609" lon="3.365236">
        <ele>66.908</ele>
        <time>2021-09-01T09:27:38Z</time>
      </trkpt>
      <trkpt lat="39.600569" lon="3.365172">
        <ele>66.935</ele>
        <time>2021-09-01T09:27:39Z</time>
      </trkpt>
      <trkpt lat="39.600530" lon="3.365104">
        <ele>66.989</ele>
        <time>2021-09-01T09:27:40Z</time>
      </trkpt>
      <trkpt lat="39.600491" lon="3.365035">
        <ele>66.894</ele>
        <time>2021-09-01T09:27:41Z</time>
      </trkpt>
      <trkpt lat="39.600448" lon="3.364975">
        <ele>66.818</ele>
        <time>2021-09-01T09:27:42Z</time>
      </trkpt>
      <trkpt lat="39.600418" lon="3.364904">
        <ele>66.737</ele>
        <time>2021-09-01T09:27:43Z</time>
      </trkpt>
      <trkpt lat="39.600380" lon="3.364837">
        <ele>66.642</ele>
        <time>2021-09-01T09:27:44Z</time>
      </trkpt>
      <trkpt lat="39.600348" lon="3.364770">
        <ele>66.599</ele>
        <time>2021-09-01T09:27:45Z</time>
      </trkpt>
      <trkpt lat="39.600316" lon="3.364705">
        <ele>66.359</ele>
        <time>2021-09-01T09:27:46Z</time>
      </trkpt>
      <trkpt lat="39.600283" lon="3.364643">
        <ele>66.232</ele>
        <time>2021-09-01T09:27:47Z</time>
      </trkpt>
      <trkpt lat="39.600235" lon="3.364565">
        <ele>66.092</ele>
        <time>2021-09-01T09:27:48Z</time>
      </trkpt>
      <trkpt lat="39.600203" lon="3.364492">
        <ele>65.811</ele>
        <time>2021-09-01T09:27:49Z</time>
      </trkpt>
      <trkpt lat="39.600165" lon="3.364411">
        <ele>65.608</ele>
        <time>2021-09-01T09:27:50Z</time>
      </trkpt>
      <trkpt lat="39.600127" lon="3.364331">
        <ele>65.581</ele>
        <time>2021-09-01T09:27:51Z</time>
      </trkpt>
      <trkpt lat="39.600088" lon="3.364253">
        <ele>65.375</ele>
        <time>2021-09-01T09:27:52Z</time>
      </trkpt>
      <trkpt lat="39.600052" lon="3.364172">
        <ele>65.270</ele>
        <time>2021-09-01T09:27:53Z</time>
      </trkpt>
      <trkpt lat="39.600015" lon="3.364096">
        <ele>65.094</ele>
        <time>2021-09-01T09:27:54Z</time>
      </trkpt>
      <trkpt lat="39.599982" lon="3.364018">
        <ele>64.943</ele>
        <time>2021-09-01T09:27:55Z</time>
      </trkpt>
      <trkpt lat="39.599951" lon="3.363935">
        <ele>64.728</ele>
        <time>2021-09-01T09:27:56Z</time>
      </trkpt>
      <trkpt lat="39.599916" lon="3.363854">
        <ele>64.475</ele>
        <time>2021-09-01T09:27:57Z</time>
      </trkpt>
      <trkpt lat="39.599885" lon="3.363758">
        <ele>64.035</ele>
        <time>2021-09-01T09:27:58Z</time>
      </trkpt>
      <trkpt lat="39.599854" lon="3.363668">
        <ele>63.736</ele>
        <time>2021-09-01T09:27:59Z</time>
      </trkpt>
      <trkpt lat="39.599821" lon="3.363580">
        <ele>63.317</ele>
        <time>2021-09-01T09:28:00Z</time>
      </trkpt>
      <trkpt lat="39.599788" lon="3.363496">
        <ele>63.018</ele>
        <time>2021-09-01T09:28:01Z</time>
      </trkpt>
      <trkpt lat="39.599753" lon="3.363401">
        <ele>62.708</ele>
        <time>2021-09-01T09:28:02Z</time>
      </trkpt>
      <trkpt lat="39.599723" lon="3.363310">
        <ele>62.221</ele>
        <time>2021-09-01T09:28:03Z</time>
      </trkpt>
      <trkpt lat="39.599698" lon="3.363224">
        <ele>61.995</ele>
        <time>2021-09-01T09:28:04Z</time>
      </trkpt>
      <trkpt lat="39.599668" lon="3.363144">
        <ele>61.550</ele>
        <time>2021-09-01T09:28:05Z</time>
      </trkpt>
      <trkpt lat="39.599645" lon="3.363073">
        <ele>61.374</ele>
        <time>2021-09-01T09:28:06Z</time>
      </trkpt>
      <trkpt lat="39.599625" lon="3.363013">
        <ele>61.333</ele>
        <time>2021-09-01T09:28:07Z</time>
      </trkpt>
      <trkpt lat="39.599608" lon="3.362942">
        <ele>61.318</ele>
        <time>2021-09-01T09:28:08Z</time>
      </trkpt>
      <trkpt lat="39.599590" lon="3.362877">
        <ele>61.525</ele>
        <time>2021-09-01T09:28:09Z</time>
      </trkpt>
      <trkpt lat="39.599575" lon="3.362821">
        <ele>61.725</ele>
        <time>2021-09-01T09:28:10Z</time>
      </trkpt>
      <trkpt lat="39.599561" lon="3.362765">
        <ele>61.983</ele>
        <time>2021-09-01T09:28:11Z</time>
      </trkpt>
      <trkpt lat="39.599527" lon="3.362659">
        <ele>62.425</ele>
        <time>2021-09-01T09:28:13Z</time>
      </trkpt>
      <trkpt lat="39.599498" lon="3.362554">
        <ele>62.817</ele>
        <time>2021-09-01T09:28:15Z</time>
      </trkpt>
      <trkpt lat="39.599478" lon="3.362499">
        <ele>63.108</ele>
        <time>2021-09-01T09:28:16Z</time>
      </trkpt>
      <trkpt lat="39.599447" lon="3.362390">
        <ele>63.476</ele>
        <time>2021-09-01T09:28:18Z</time>
      </trkpt>
      <trkpt lat="39.599431" lon="3.362333">
        <ele>63.570</ele>
        <time>2021-09-01T09:28:19Z</time>
      </trkpt>
      <trkpt lat="39.599410" lon="3.362281">
        <ele>63.615</ele>
        <time>2021-09-01T09:28:20Z</time>
      </trkpt>
      <trkpt lat="39.599367" lon="3.362183">
        <ele>63.869</ele>
        <time>2021-09-01T09:28:22Z</time>
      </trkpt>
      <trkpt lat="39.599340" lon="3.362136">
        <ele>63.998</ele>
        <time>2021-09-01T09:28:23Z</time>
      </trkpt>
      <trkpt lat="39.599293" lon="3.362035">
        <ele>64.053</ele>
        <time>2021-09-01T09:28:25Z</time>
      </trkpt>
      <trkpt lat="39.599273" lon="3.361972">
        <ele>64.090</ele>
        <time>2021-09-01T09:28:26Z</time>
      </trkpt>
      <trkpt lat="39.599252" lon="3.361916">
        <ele>64.060</ele>
        <time>2021-09-01T09:28:27Z</time>
      </trkpt>
      <trkpt lat="39.599230" lon="3.361858">
        <ele>63.943</ele>
        <time>2021-09-01T09:28:28Z</time>
      </trkpt>
      <trkpt lat="39.599208" lon="3.361792">
        <ele>63.964</ele>
        <time>2021-09-01T09:28:29Z</time>
      </trkpt>
      <trkpt lat="39.599184" lon="3.361729">
        <ele>63.810</ele>
        <time>2021-09-01T09:28:30Z</time>
      </trkpt>
      <trkpt lat="39.599164" lon="3.361663">
        <ele>63.708</ele>
        <time>2021-09-01T09:28:31Z</time>
      </trkpt>
      <trkpt lat="39.599144" lon="3.361594">
        <ele>63.652</ele>
        <time>2021-09-01T09:28:32Z</time>
      </trkpt>
      <trkpt lat="39.599118" lon="3.361522">
        <ele>63.516</ele>
        <time>2021-09-01T09:28:33Z</time>
      </trkpt>
      <trkpt lat="39.599094" lon="3.361450">
        <ele>63.411</ele>
        <time>2021-09-01T09:28:34Z</time>
      </trkpt>
      <trkpt lat="39.599069" lon="3.361380">
        <ele>63.355</ele>
        <time>2021-09-01T09:28:35Z</time>
      </trkpt>
      <trkpt lat="39.599043" lon="3.361306">
        <ele>63.254</ele>
        <time>2021-09-01T09:28:36Z</time>
      </trkpt>
      <trkpt lat="39.599023" lon="3.361236">
        <ele>63.219</ele>
        <time>2021-09-01T09:28:37Z</time>
      </trkpt>
      <trkpt lat="39.599002" lon="3.361167">
        <ele>63.226</ele>
        <time>2021-09-01T09:28:38Z</time>
      </trkpt>
      <trkpt lat="39.598980" lon="3.361103">
        <ele>63.266</ele>
        <time>2021-09-01T09:28:39Z</time>
      </trkpt>
      <trkpt lat="39.598959" lon="3.361033">
        <ele>63.251</ele>
        <time>2021-09-01T09:28:40Z</time>
      </trkpt>
      <trkpt lat="39.598935" lon="3.360967">
        <ele>63.101</ele>
        <time>2021-09-01T09:28:41Z</time>
      </trkpt>
      <trkpt lat="39.598912" lon="3.360902">
        <ele>63.111</ele>
        <time>2021-09-01T09:28:42Z</time>
      </trkpt>
      <trkpt lat="39.598886" lon="3.360835">
        <ele>63.008</ele>
        <time>2021-09-01T09:28:43Z</time>
      </trkpt>
      <trkpt lat="39.598865" lon="3.360755">
        <ele>62.943</ele>
        <time>2021-09-01T09:28:44Z</time>
      </trkpt>
      <trkpt lat="39.598843" lon="3.360682">
        <ele>62.887</ele>
        <time>2021-09-01T09:28:45Z</time>
      </trkpt>
      <trkpt lat="39.598818" lon="3.360606">
        <ele>62.892</ele>
        <time>2021-09-01T09:28:46Z</time>
      </trkpt>
      <trkpt lat="39.598798" lon="3.360537">
        <ele>62.796</ele>
        <time>2021-09-01T09:28:47Z</time>
      </trkpt>
      <trkpt lat="39.598775" lon="3.360465">
        <ele>62.785</ele>
        <time>2021-09-01T09:28:48Z</time>
      </trkpt>
      <trkpt lat="39.598753" lon="3.360398">
        <ele>62.790</ele>
        <time>2021-09-01T09:28:49Z</time>
      </trkpt>
      <trkpt lat="39.598728" lon="3.360327">
        <ele>62.657</ele>
        <time>2021-09-01T09:28:50Z</time>
      </trkpt>
      <trkpt lat="39.598707" lon="3.360255">
        <ele>62.537</ele>
        <time>2021-09-01T09:28:51Z</time>
      </trkpt>
      <trkpt lat="39.598685" lon="3.360182">
        <ele>62.575</ele>
        <time>2021-09-01T09:28:52Z</time>
      </trkpt>
      <trkpt lat="39.598664" lon="3.360110">
        <ele>62.528</ele>
        <time>2021-09-01T09:28:53Z</time>
      </trkpt>
      <trkpt lat="39.598643" lon="3.360038">
        <ele>62.420</ele>
        <time>2021-09-01T09:28:54Z</time>
      </trkpt>
      <trkpt lat="39.598622" lon="3.359967">
        <ele>62.408</ele>
        <time>2021-09-01T09:28:55Z</time>
      </trkpt>
      <trkpt lat="39.598600" lon="3.359897">
        <ele>62.425</ele>
        <time>2021-09-01T09:28:56Z</time>
      </trkpt>
      <trkpt lat="39.598577" lon="3.359823">
        <ele>62.499</ele>
        <time>2021-09-01T09:28:57Z</time>
      </trkpt>
      <trkpt lat="39.598553" lon="3.359753">
        <ele>62.444</ele>
        <time>2021-09-01T09:28:58Z</time>
      </trkpt>
      <trkpt lat="39.598530" lon="3.359683">
        <ele>62.348</ele>
        <time>2021-09-01T09:28:59Z</time>
      </trkpt>
      <trkpt lat="39.598502" lon="3.359613">
        <ele>62.327</ele>
        <time>2021-09-01T09:29:00Z</time>
      </trkpt>
      <trkpt lat="39.598479" lon="3.359543">
        <ele>62.282</ele>
        <time>2021-09-01T09:29:01Z</time>
      </trkpt>
      <trkpt lat="39.598456" lon="3.359472">
        <ele>62.239</ele>
        <time>2021-09-01T09:29:02Z</time>
      </trkpt>
      <trkpt lat="39.598431" lon="3.359399">
        <ele>62.199</ele>
        <time>2021-09-01T09:29:03Z</time>
      </trkpt>
      <trkpt lat="39.598407" lon="3.359327">
        <ele>62.118</ele>
        <time>2021-09-01T09:29:04Z</time>
      </trkpt>
      <trkpt lat="39.598382" lon="3.359255">
        <ele>62.198</ele>
        <time>2021-09-01T09:29:05Z</time>
      </trkpt>
      <trkpt lat="39.598359" lon="3.359186">
        <ele>62.017</ele>
        <time>2021-09-01T09:29:06Z</time>
      </trkpt>
      <trkpt lat="39.598333" lon="3.359113">
        <ele>62.008</ele>
        <time>2021-09-01T09:29:07Z</time>
      </trkpt>
      <trkpt lat="39.598310" lon="3.359042">
        <ele>62.089</ele>
        <time>2021-09-01T09:29:08Z</time>
      </trkpt>
      <trkpt lat="39.598288" lon="3.358970">
        <ele>62.023</ele>
        <time>2021-09-01T09:29:09Z</time>
      </trkpt>
      <trkpt lat="39.598260" lon="3.358904">
        <ele>62.098</ele>
        <time>2021-09-01T09:29:10Z</time>
      </trkpt>
      <trkpt lat="39.598231" lon="3.358836">
        <ele>62.082</ele>
        <time>2021-09-01T09:29:11Z</time>
      </trkpt>
      <trkpt lat="39.598204" lon="3.358766">
        <ele>62.041</ele>
        <time>2021-09-01T09:29:12Z</time>
      </trkpt>
      <trkpt lat="39.598180" lon="3.358695">
        <ele>62.036</ele>
        <time>2021-09-01T09:29:13Z</time>
      </trkpt>
      <trkpt lat="39.598152" lon="3.358623">
        <ele>61.993</ele>
        <time>2021-09-01T09:29:14Z</time>
      </trkpt>
      <trkpt lat="39.598124" lon="3.358555">
        <ele>61.883</ele>
        <time>2021-09-01T09:29:15Z</time>
      </trkpt>
      <trkpt lat="39.598097" lon="3.358488">
        <ele>61.823</ele>
        <time>2021-09-01T09:29:16Z</time>
      </trkpt>
      <trkpt lat="39.598074" lon="3.358424">
        <ele>61.883</ele>
        <time>2021-09-01T09:29:17Z</time>
      </trkpt>
      <trkpt lat="39.598046" lon="3.358353">
        <ele>61.811</ele>
        <time>2021-09-01T09:29:18Z</time>
      </trkpt>
      <trkpt lat="39.598019" lon="3.358283">
        <ele>61.808</ele>
        <time>2021-09-01T09:29:19Z</time>
      </trkpt>
      <trkpt lat="39.597993" lon="3.358214">
        <ele>61.740</ele>
        <time>2021-09-01T09:29:20Z</time>
      </trkpt>
      <trkpt lat="39.597968" lon="3.358144">
        <ele>61.654</ele>
        <time>2021-09-01T09:29:21Z</time>
      </trkpt>
      <trkpt lat="39.597945" lon="3.358073">
        <ele>61.519</ele>
        <time>2021-09-01T09:29:22Z</time>
      </trkpt>
      <trkpt lat="39.597920" lon="3.357999">
        <ele>61.453</ele>
        <time>2021-09-01T09:29:23Z</time>
      </trkpt>
      <trkpt lat="39.597899" lon="3.357931">
        <ele>61.452</ele>
        <time>2021-09-01T09:29:24Z</time>
      </trkpt>
      <trkpt lat="39.597872" lon="3.357852">
        <ele>61.337</ele>
        <time>2021-09-01T09:29:25Z</time>
      </trkpt>
      <trkpt lat="39.597850" lon="3.357784">
        <ele>61.384</ele>
        <time>2021-09-01T09:29:26Z</time>
      </trkpt>
      <trkpt lat="39.597823" lon="3.357718">
        <ele>61.464</ele>
        <time>2021-09-01T09:29:27Z</time>
      </trkpt>
      <trkpt lat="39.597795" lon="3.357650">
        <ele>61.465</ele>
        <time>2021-09-01T09:29:28Z</time>
      </trkpt>
      <trkpt lat="39.597769" lon="3.357583">
        <ele>61.568</ele>
        <time>2021-09-01T09:29:29Z</time>
      </trkpt>
      <trkpt lat="39.597750" lon="3.357515">
        <ele>61.714</ele>
        <time>2021-09-01T09:29:30Z</time>
      </trkpt>
      <trkpt lat="39.597726" lon="3.357451">
        <ele>61.808</ele>
        <time>2021-09-01T09:29:31Z</time>
      </trkpt>
      <trkpt lat="39.597703" lon="3.357385">
        <ele>61.944</ele>
        <time>2021-09-01T09:29:32Z</time>
      </trkpt>
      <trkpt lat="39.597683" lon="3.357323">
        <ele>61.988</ele>
        <time>2021-09-01T09:29:33Z</time>
      </trkpt>
      <trkpt lat="39.597661" lon="3.357262">
        <ele>61.923</ele>
        <time>2021-09-01T09:29:34Z</time>
      </trkpt>
      <trkpt lat="39.597642" lon="3.357203">
        <ele>61.957</ele>
        <time>2021-09-01T09:29:35Z</time>
      </trkpt>
      <trkpt lat="39.597625" lon="3.357143">
        <ele>61.856</ele>
        <time>2021-09-01T09:29:36Z</time>
      </trkpt>
      <trkpt lat="39.597604" lon="3.357079">
        <ele>61.721</ele>
        <time>2021-09-01T09:29:37Z</time>
      </trkpt>
      <trkpt lat="39.597586" lon="3.357016">
        <ele>61.638</ele>
        <time>2021-09-01T09:29:38Z</time>
      </trkpt>
      <trkpt lat="39.597562" lon="3.356951">
        <ele>61.548</ele>
        <time>2021-09-01T09:29:39Z</time>
      </trkpt>
      <trkpt lat="39.597542" lon="3.356890">
        <ele>61.496</ele>
        <time>2021-09-01T09:29:40Z</time>
      </trkpt>
      <trkpt lat="39.597521" lon="3.356828">
        <ele>61.331</ele>
        <time>2021-09-01T09:29:41Z</time>
      </trkpt>
      <trkpt lat="39.597498" lon="3.356769">
        <ele>61.224</ele>
        <time>2021-09-01T09:29:42Z</time>
      </trkpt>
      <trkpt lat="39.597476" lon="3.356709">
        <ele>61.208</ele>
        <time>2021-09-01T09:29:43Z</time>
      </trkpt>
      <trkpt lat="39.597455" lon="3.356646">
        <ele>61.277</ele>
        <time>2021-09-01T09:29:44Z</time>
      </trkpt>
      <trkpt lat="39.597436" lon="3.356585">
        <ele>61.291</ele>
        <time>2021-09-01T09:29:45Z</time>
      </trkpt>
      <trkpt lat="39.597415" lon="3.356526">
        <ele>61.296</ele>
        <time>2021-09-01T09:29:46Z</time>
      </trkpt>
      <trkpt lat="39.597371" lon="3.356410">
        <ele>61.230</ele>
        <time>2021-09-01T09:29:48Z</time>
      </trkpt>
      <trkpt lat="39.597355" lon="3.356349">
        <ele>61.239</ele>
        <time>2021-09-01T09:29:49Z</time>
      </trkpt>
      <trkpt lat="39.597336" lon="3.356291">
        <ele>61.314</ele>
        <time>2021-09-01T09:29:50Z</time>
      </trkpt>
      <trkpt lat="39.597313" lon="3.356232">
        <ele>61.421</ele>
        <time>2021-09-01T09:29:51Z</time>
      </trkpt>
      <trkpt lat="39.597288" lon="3.356174">
        <ele>61.541</ele>
        <time>2021-09-01T09:29:52Z</time>
      </trkpt>
      <trkpt lat="39.597268" lon="3.356113">
        <ele>61.511</ele>
        <time>2021-09-01T09:29:53Z</time>
      </trkpt>
      <trkpt lat="39.597250" lon="3.356056">
        <ele>61.621</ele>
        <time>2021-09-01T09:29:54Z</time>
      </trkpt>
      <trkpt lat="39.597228" lon="3.355994">
        <ele>61.703</ele>
        <time>2021-09-01T09:29:55Z</time>
      </trkpt>
      <trkpt lat="39.597210" lon="3.355939">
        <ele>61.708</ele>
        <time>2021-09-01T09:29:56Z</time>
      </trkpt>
      <trkpt lat="39.597188" lon="3.355882">
        <ele>61.729</ele>
        <time>2021-09-01T09:29:57Z</time>
      </trkpt>
      <trkpt lat="39.597170" lon="3.355825">
        <ele>61.793</ele>
        <time>2021-09-01T09:29:58Z</time>
      </trkpt>
      <trkpt lat="39.597150" lon="3.355773">
        <ele>61.868</ele>
        <time>2021-09-01T09:29:59Z</time>
      </trkpt>
      <trkpt lat="39.597126" lon="3.355721">
        <ele>61.842</ele>
        <time>2021-09-01T09:30:00Z</time>
      </trkpt>
      <trkpt lat="39.597109" lon="3.355665">
        <ele>61.881</ele>
        <time>2021-09-01T09:30:01Z</time>
      </trkpt>
      <trkpt lat="39.597094" lon="3.355607">
        <ele>61.836</ele>
        <time>2021-09-01T09:30:02Z</time>
      </trkpt>
      <trkpt lat="39.597076" lon="3.355550">
        <ele>61.993</ele>
        <time>2021-09-01T09:30:03Z</time>
      </trkpt>
      <trkpt lat="39.597062" lon="3.355495">
        <ele>62.033</ele>
        <time>2021-09-01T09:30:04Z</time>
      </trkpt>
      <trkpt lat="39.597024" lon="3.355382">
        <ele>62.161</ele>
        <time>2021-09-01T09:30:06Z</time>
      </trkpt>
      <trkpt lat="39.596987" lon="3.355272">
        <ele>62.221</ele>
        <time>2021-09-01T09:30:08Z</time>
      </trkpt>
      <trkpt lat="39.596966" lon="3.355219">
        <ele>62.313</ele>
        <time>2021-09-01T09:30:09Z</time>
      </trkpt>
      <trkpt lat="39.596922" lon="3.355117">
        <ele>62.408</ele>
        <time>2021-09-01T09:30:11Z</time>
      </trkpt>
      <trkpt lat="39.596905" lon="3.355060">
        <ele>62.464</ele>
        <time>2021-09-01T09:30:12Z</time>
      </trkpt>
      <trkpt lat="39.596887" lon="3.355004">
        <ele>62.688</ele>
        <time>2021-09-01T09:30:13Z</time>
      </trkpt>
      <trkpt lat="39.596849" lon="3.354907">
        <ele>62.823</ele>
        <time>2021-09-01T09:30:15Z</time>
      </trkpt>
      <trkpt lat="39.596813" lon="3.354799">
        <ele>62.997</ele>
        <time>2021-09-01T09:30:17Z</time>
      </trkpt>
      <trkpt lat="39.596778" lon="3.354701">
        <ele>63.086</ele>
        <time>2021-09-01T09:30:19Z</time>
      </trkpt>
      <trkpt lat="39.596747" lon="3.354587">
        <ele>63.021</ele>
        <time>2021-09-01T09:30:21Z</time>
      </trkpt>
      <trkpt lat="39.596725" lon="3.354535">
        <ele>63.188</ele>
        <time>2021-09-01T09:30:22Z</time>
      </trkpt>
      <trkpt lat="39.596702" lon="3.354485">
        <ele>63.138</ele>
        <time>2021-09-01T09:30:23Z</time>
      </trkpt>
      <trkpt lat="39.596666" lon="3.354383">
        <ele>63.433</ele>
        <time>2021-09-01T09:30:25Z</time>
      </trkpt>
      <trkpt lat="39.596646" lon="3.354279">
        <ele>63.523</ele>
        <time>2021-09-01T09:30:27Z</time>
      </trkpt>
      <trkpt lat="39.596615" lon="3.354186">
        <ele>63.515</ele>
        <time>2021-09-01T09:30:29Z</time>
      </trkpt>
      <trkpt lat="39.596593" lon="3.354086">
        <ele>63.508</ele>
        <time>2021-09-01T09:30:31Z</time>
      </trkpt>
      <trkpt lat="39.596560" lon="3.353991">
        <ele>63.571</ele>
        <time>2021-09-01T09:30:33Z</time>
      </trkpt>
      <trkpt lat="39.596509" lon="3.353908">
        <ele>63.895</ele>
        <time>2021-09-01T09:30:35Z</time>
      </trkpt>
      <trkpt lat="39.596477" lon="3.353824">
        <ele>64.170</ele>
        <time>2021-09-01T09:30:37Z</time>
      </trkpt>
      <trkpt lat="39.596444" lon="3.353727">
        <ele>64.494</ele>
        <time>2021-09-01T09:30:39Z</time>
      </trkpt>
      <trkpt lat="39.596408" lon="3.353632">
        <ele>64.453</ele>
        <time>2021-09-01T09:30:41Z</time>
      </trkpt>
      <trkpt lat="39.596373" lon="3.353526">
        <ele>64.548</ele>
        <time>2021-09-01T09:30:43Z</time>
      </trkpt>
      <trkpt lat="39.596354" lon="3.353469">
        <ele>64.695</ele>
        <time>2021-09-01T09:30:44Z</time>
      </trkpt>
      <trkpt lat="39.596336" lon="3.353414">
        <ele>64.735</ele>
        <time>2021-09-01T09:30:45Z</time>
      </trkpt>
      <trkpt lat="39.596302" lon="3.353307">
        <ele>64.861</ele>
        <time>2021-09-01T09:30:47Z</time>
      </trkpt>
      <trkpt lat="39.596278" lon="3.353253">
        <ele>64.921</ele>
        <time>2021-09-01T09:30:48Z</time>
      </trkpt>
      <trkpt lat="39.596259" lon="3.353200">
        <ele>64.913</ele>
        <time>2021-09-01T09:30:49Z</time>
      </trkpt>
      <trkpt lat="39.596238" lon="3.353147">
        <ele>64.908</ele>
        <time>2021-09-01T09:30:50Z</time>
      </trkpt>
      <trkpt lat="39.596220" lon="3.353092">
        <ele>64.954</ele>
        <time>2021-09-01T09:30:51Z</time>
      </trkpt>
      <trkpt lat="39.596196" lon="3.353034">
        <ele>64.928</ele>
        <time>2021-09-01T09:30:52Z</time>
      </trkpt>
      <trkpt lat="39.596162" lon="3.352932">
        <ele>65.033</ele>
        <time>2021-09-01T09:30:54Z</time>
      </trkpt>
      <trkpt lat="39.596123" lon="3.352828">
        <ele>65.177</ele>
        <time>2021-09-01T09:30:56Z</time>
      </trkpt>
      <trkpt lat="39.596106" lon="3.352773">
        <ele>65.346</ele>
        <time>2021-09-01T09:30:57Z</time>
      </trkpt>
      <trkpt lat="39.596087" lon="3.352718">
        <ele>65.421</ele>
        <time>2021-09-01T09:30:58Z</time>
      </trkpt>
      <trkpt lat="39.596044" lon="3.352616">
        <ele>65.498</ele>
        <time>2021-09-01T09:31:00Z</time>
      </trkpt>
      <trkpt lat="39.596029" lon="3.352558">
        <ele>65.458</ele>
        <time>2021-09-01T09:31:01Z</time>
      </trkpt>
      <trkpt lat="39.596017" lon="3.352498">
        <ele>65.421</ele>
        <time>2021-09-01T09:31:02Z</time>
      </trkpt>
      <trkpt lat="39.595983" lon="3.352394">
        <ele>65.541</ele>
        <time>2021-09-01T09:31:04Z</time>
      </trkpt>
      <trkpt lat="39.595959" lon="3.352341">
        <ele>65.505</ele>
        <time>2021-09-01T09:31:05Z</time>
      </trkpt>
      <trkpt lat="39.595924" lon="3.352234">
        <ele>65.708</ele>
        <time>2021-09-01T09:31:07Z</time>
      </trkpt>
      <trkpt lat="39.595905" lon="3.352179">
        <ele>65.990</ele>
        <time>2021-09-01T09:31:08Z</time>
      </trkpt>
      <trkpt lat="39.595871" lon="3.352071">
        <ele>66.184</ele>
        <time>2021-09-01T09:31:10Z</time>
      </trkpt>
      <trkpt lat="39.595844" lon="3.351963">
        <ele>66.239</ele>
        <time>2021-09-01T09:31:12Z</time>
      </trkpt>
      <trkpt lat="39.595824" lon="3.351909">
        <ele>66.243</ele>
        <time>2021-09-01T09:31:13Z</time>
      </trkpt>
      <trkpt lat="39.595806" lon="3.351847">
        <ele>66.322</ele>
        <time>2021-09-01T09:31:14Z</time>
      </trkpt>
      <trkpt lat="39.595790" lon="3.351791">
        <ele>66.367</ele>
        <time>2021-09-01T09:31:15Z</time>
      </trkpt>
      <trkpt lat="39.595772" lon="3.351692">
        <ele>66.374</ele>
        <time>2021-09-01T09:31:17Z</time>
      </trkpt>
      <trkpt lat="39.595757" lon="3.351631">
        <ele>66.354</ele>
        <time>2021-09-01T09:31:18Z</time>
      </trkpt>
      <trkpt lat="39.595744" lon="3.351570">
        <ele>66.379</ele>
        <time>2021-09-01T09:31:19Z</time>
      </trkpt>
      <trkpt lat="39.595731" lon="3.351510">
        <ele>66.305</ele>
        <time>2021-09-01T09:31:20Z</time>
      </trkpt>
      <trkpt lat="39.595721" lon="3.351448">
        <ele>66.425</ele>
        <time>2021-09-01T09:31:21Z</time>
      </trkpt>
      <trkpt lat="39.595711" lon="3.351385">
        <ele>66.408</ele>
        <time>2021-09-01T09:31:22Z</time>
      </trkpt>
      <trkpt lat="39.595705" lon="3.351322">
        <ele>66.525</ele>
        <time>2021-09-01T09:31:23Z</time>
      </trkpt>
      <trkpt lat="39.595696" lon="3.351263">
        <ele>66.629</ele>
        <time>2021-09-01T09:31:24Z</time>
      </trkpt>
      <trkpt lat="39.595689" lon="3.351204">
        <ele>66.844</ele>
        <time>2021-09-01T09:31:25Z</time>
      </trkpt>
      <trkpt lat="39.595679" lon="3.351143">
        <ele>66.978</ele>
        <time>2021-09-01T09:31:26Z</time>
      </trkpt>
      <trkpt lat="39.595675" lon="3.351080">
        <ele>67.057</ele>
        <time>2021-09-01T09:31:27Z</time>
      </trkpt>
      <trkpt lat="39.595671" lon="3.351018">
        <ele>67.012</ele>
        <time>2021-09-01T09:31:28Z</time>
      </trkpt>
      <trkpt lat="39.595664" lon="3.350955">
        <ele>67.039</ele>
        <time>2021-09-01T09:31:29Z</time>
      </trkpt>
      <trkpt lat="39.595661" lon="3.350892">
        <ele>67.049</ele>
        <time>2021-09-01T09:31:30Z</time>
      </trkpt>
      <trkpt lat="39.595659" lon="3.350830">
        <ele>67.054</ele>
        <time>2021-09-01T09:31:31Z</time>
      </trkpt>
      <trkpt lat="39.595654" lon="3.350770">
        <ele>67.156</ele>
        <time>2021-09-01T09:31:32Z</time>
      </trkpt>
      <trkpt lat="39.595648" lon="3.350711">
        <ele>67.211</ele>
        <time>2021-09-01T09:31:33Z</time>
      </trkpt>
      <trkpt lat="39.595649" lon="3.350649">
        <ele>67.208</ele>
        <time>2021-09-01T09:31:34Z</time>
      </trkpt>
      <trkpt lat="39.595644" lon="3.350579">
        <ele>67.333</ele>
        <time>2021-09-01T09:31:35Z</time>
      </trkpt>
      <trkpt lat="39.595646" lon="3.350518">
        <ele>67.387</ele>
        <time>2021-09-01T09:31:36Z</time>
      </trkpt>
      <trkpt lat="39.595647" lon="3.350450">
        <ele>67.482</ele>
        <time>2021-09-01T09:31:37Z</time>
      </trkpt>
      <trkpt lat="39.595648" lon="3.350389">
        <ele>67.526</ele>
        <time>2021-09-01T09:31:38Z</time>
      </trkpt>
      <trkpt lat="39.595647" lon="3.350324">
        <ele>67.695</ele>
        <time>2021-09-01T09:31:39Z</time>
      </trkpt>
      <trkpt lat="39.595649" lon="3.350263">
        <ele>67.720</ele>
        <time>2021-09-01T09:31:40Z</time>
      </trkpt>
      <trkpt lat="39.595653" lon="3.350199">
        <ele>67.887</ele>
        <time>2021-09-01T09:31:41Z</time>
      </trkpt>
      <trkpt lat="39.595654" lon="3.350139">
        <ele>67.847</ele>
        <time>2021-09-01T09:31:42Z</time>
      </trkpt>
      <trkpt lat="39.595659" lon="3.350077">
        <ele>67.897</ele>
        <time>2021-09-01T09:31:43Z</time>
      </trkpt>
      <trkpt lat="39.595662" lon="3.350019">
        <ele>67.923</ele>
        <time>2021-09-01T09:31:44Z</time>
      </trkpt>
      <trkpt lat="39.595663" lon="3.349960">
        <ele>67.925</ele>
        <time>2021-09-01T09:31:45Z</time>
      </trkpt>
      <trkpt lat="39.595667" lon="3.349896">
        <ele>67.908</ele>
        <time>2021-09-01T09:31:46Z</time>
      </trkpt>
      <trkpt lat="39.595673" lon="3.349837">
        <ele>67.997</ele>
        <time>2021-09-01T09:31:47Z</time>
      </trkpt>
      <trkpt lat="39.595686" lon="3.349713">
        <ele>68.261</ele>
        <time>2021-09-01T09:31:49Z</time>
      </trkpt>
      <trkpt lat="39.595691" lon="3.349644">
        <ele>68.526</ele>
        <time>2021-09-01T09:31:50Z</time>
      </trkpt>
      <trkpt lat="39.595700" lon="3.349562">
        <ele>68.740</ele>
        <time>2021-09-01T09:31:51Z</time>
      </trkpt>
      <trkpt lat="39.595696" lon="3.349485">
        <ele>69.039</ele>
        <time>2021-09-01T09:31:52Z</time>
      </trkpt>
      <trkpt lat="39.595713" lon="3.349352">
        <ele>69.134</ele>
        <time>2021-09-01T09:31:54Z</time>
      </trkpt>
      <trkpt lat="39.595740" lon="3.349244">
        <ele>69.071</ele>
        <time>2021-09-01T09:31:56Z</time>
      </trkpt>
      <trkpt lat="39.595761" lon="3.349178">
        <ele>69.061</ele>
        <time>2021-09-01T09:31:57Z</time>
      </trkpt>
      <trkpt lat="39.595778" lon="3.349104">
        <ele>68.963</ele>
        <time>2021-09-01T09:31:58Z</time>
      </trkpt>
      <trkpt lat="39.595791" lon="3.349041">
        <ele>68.944</ele>
        <time>2021-09-01T09:31:59Z</time>
      </trkpt>
      <trkpt lat="39.595805" lon="3.348974">
        <ele>68.918</ele>
        <time>2021-09-01T09:32:00Z</time>
      </trkpt>
      <trkpt lat="39.595823" lon="3.348916">
        <ele>68.908</ele>
        <time>2021-09-01T09:32:01Z</time>
      </trkpt>
      <trkpt lat="39.595843" lon="3.348855">
        <ele>68.824</ele>
        <time>2021-09-01T09:32:02Z</time>
      </trkpt>
      <trkpt lat="39.595866" lon="3.348796">
        <ele>68.828</ele>
        <time>2021-09-01T09:32:03Z</time>
      </trkpt>
      <trkpt lat="39.595881" lon="3.348730">
        <ele>68.753</ele>
        <time>2021-09-01T09:32:04Z</time>
      </trkpt>
      <trkpt lat="39.595899" lon="3.348665">
        <ele>68.727</ele>
        <time>2021-09-01T09:32:05Z</time>
      </trkpt>
      <trkpt lat="39.595923" lon="3.348601">
        <ele>68.686</ele>
        <time>2021-09-01T09:32:06Z</time>
      </trkpt>
      <trkpt lat="39.595946" lon="3.348539">
        <ele>68.631</ele>
        <time>2021-09-01T09:32:07Z</time>
      </trkpt>
      <trkpt lat="39.595968" lon="3.348473">
        <ele>68.638</ele>
        <time>2021-09-01T09:32:08Z</time>
      </trkpt>
      <trkpt lat="39.595991" lon="3.348406">
        <ele>68.618</ele>
        <time>2021-09-01T09:32:09Z</time>
      </trkpt>
      <trkpt lat="39.596010" lon="3.348340">
        <ele>68.655</ele>
        <time>2021-09-01T09:32:10Z</time>
      </trkpt>
      <trkpt lat="39.596030" lon="3.348276">
        <ele>68.707</ele>
        <time>2021-09-01T09:32:11Z</time>
      </trkpt>
      <trkpt lat="39.596053" lon="3.348212">
        <ele>68.817</ele>
        <time>2021-09-01T09:32:12Z</time>
      </trkpt>
      <trkpt lat="39.596065" lon="3.348154">
        <ele>68.908</ele>
        <time>2021-09-01T09:32:13Z</time>
      </trkpt>
      <trkpt lat="39.596086" lon="3.348091">
        <ele>69.053</ele>
        <time>2021-09-01T09:32:14Z</time>
      </trkpt>
      <trkpt lat="39.596108" lon="3.348022">
        <ele>69.297</ele>
        <time>2021-09-01T09:32:15Z</time>
      </trkpt>
      <trkpt lat="39.596131" lon="3.347957">
        <ele>69.252</ele>
        <time>2021-09-01T09:32:16Z</time>
      </trkpt>
      <trkpt lat="39.596153" lon="3.347891">
        <ele>69.256</ele>
        <time>2021-09-01T09:32:17Z</time>
      </trkpt>
      <trkpt lat="39.596175" lon="3.347828">
        <ele>69.285</ele>
        <time>2021-09-01T09:32:18Z</time>
      </trkpt>
      <trkpt lat="39.596194" lon="3.347766">
        <ele>69.120</ele>
        <time>2021-09-01T09:32:19Z</time>
      </trkpt>
      <trkpt lat="39.596217" lon="3.347703">
        <ele>69.077</ele>
        <time>2021-09-01T09:32:20Z</time>
      </trkpt>
      <trkpt lat="39.596235" lon="3.347636">
        <ele>68.987</ele>
        <time>2021-09-01T09:32:21Z</time>
      </trkpt>
      <trkpt lat="39.596257" lon="3.347575">
        <ele>68.795</ele>
        <time>2021-09-01T09:32:22Z</time>
      </trkpt>
      <trkpt lat="39.596278" lon="3.347514">
        <ele>68.549</ele>
        <time>2021-09-01T09:32:23Z</time>
      </trkpt>
      <trkpt lat="39.596296" lon="3.347453">
        <ele>68.523</ele>
        <time>2021-09-01T09:32:24Z</time>
      </trkpt>
      <trkpt lat="39.596318" lon="3.347384">
        <ele>68.508</ele>
        <time>2021-09-01T09:32:25Z</time>
      </trkpt>
      <trkpt lat="39.596341" lon="3.347320">
        <ele>68.547</ele>
        <time>2021-09-01T09:32:26Z</time>
      </trkpt>
      <trkpt lat="39.596363" lon="3.347255">
        <ele>68.511</ele>
        <time>2021-09-01T09:32:27Z</time>
      </trkpt>
      <trkpt lat="39.596380" lon="3.347190">
        <ele>68.566</ele>
        <time>2021-09-01T09:32:28Z</time>
      </trkpt>
      <trkpt lat="39.596400" lon="3.347126">
        <ele>68.530</ele>
        <time>2021-09-01T09:32:29Z</time>
      </trkpt>
      <trkpt lat="39.596421" lon="3.347062">
        <ele>68.429</ele>
        <time>2021-09-01T09:32:30Z</time>
      </trkpt>
      <trkpt lat="39.596439" lon="3.346998">
        <ele>68.354</ele>
        <time>2021-09-01T09:32:31Z</time>
      </trkpt>
      <trkpt lat="39.596465" lon="3.346933">
        <ele>68.161</ele>
        <time>2021-09-01T09:32:32Z</time>
      </trkpt>
      <trkpt lat="39.596489" lon="3.346869">
        <ele>67.981</ele>
        <time>2021-09-01T09:32:33Z</time>
      </trkpt>
      <trkpt lat="39.596507" lon="3.346801">
        <ele>67.759</ele>
        <time>2021-09-01T09:32:34Z</time>
      </trkpt>
      <trkpt lat="39.596531" lon="3.346723">
        <ele>67.603</ele>
        <time>2021-09-01T09:32:35Z</time>
      </trkpt>
      <trkpt lat="39.596544" lon="3.346655">
        <ele>67.623</ele>
        <time>2021-09-01T09:32:36Z</time>
      </trkpt>
      <trkpt lat="39.596562" lon="3.346585">
        <ele>67.608</ele>
        <time>2021-09-01T09:32:37Z</time>
      </trkpt>
      <trkpt lat="39.596580" lon="3.346518">
        <ele>67.573</ele>
        <time>2021-09-01T09:32:38Z</time>
      </trkpt>
      <trkpt lat="39.596597" lon="3.346452">
        <ele>67.527</ele>
        <time>2021-09-01T09:32:39Z</time>
      </trkpt>
      <trkpt lat="39.596611" lon="3.346386">
        <ele>67.442</ele>
        <time>2021-09-01T09:32:40Z</time>
      </trkpt>
      <trkpt lat="39.596627" lon="3.346321">
        <ele>67.496</ele>
        <time>2021-09-01T09:32:41Z</time>
      </trkpt>
      <trkpt lat="39.596641" lon="3.346255">
        <ele>67.235</ele>
        <time>2021-09-01T09:32:42Z</time>
      </trkpt>
      <trkpt lat="39.596656" lon="3.346186">
        <ele>67.230</ele>
        <time>2021-09-01T09:32:43Z</time>
      </trkpt>
      <trkpt lat="39.596669" lon="3.346118">
        <ele>67.187</ele>
        <time>2021-09-01T09:32:44Z</time>
      </trkpt>
      <trkpt lat="39.596677" lon="3.346052">
        <ele>67.057</ele>
        <time>2021-09-01T09:32:45Z</time>
      </trkpt>
      <trkpt lat="39.596687" lon="3.345985">
        <ele>66.969</ele>
        <time>2021-09-01T09:32:46Z</time>
      </trkpt>
      <trkpt lat="39.596699" lon="3.345915">
        <ele>66.904</ele>
        <time>2021-09-01T09:32:47Z</time>
      </trkpt>
      <trkpt lat="39.596706" lon="3.345847">
        <ele>66.924</ele>
        <time>2021-09-01T09:32:48Z</time>
      </trkpt>
      <trkpt lat="39.596716" lon="3.345779">
        <ele>66.908</ele>
        <time>2021-09-01T09:32:49Z</time>
      </trkpt>
      <trkpt lat="39.596725" lon="3.345715">
        <ele>66.914</ele>
        <time>2021-09-01T09:32:50Z</time>
      </trkpt>
      <trkpt lat="39.596732" lon="3.345649">
        <ele>66.848</ele>
        <time>2021-09-01T09:32:51Z</time>
      </trkpt>
      <trkpt lat="39.596738" lon="3.345584">
        <ele>66.633</ele>
        <time>2021-09-01T09:32:52Z</time>
      </trkpt>
      <trkpt lat="39.596746" lon="3.345522">
        <ele>66.537</ele>
        <time>2021-09-01T09:32:53Z</time>
      </trkpt>
      <trkpt lat="39.596753" lon="3.345454">
        <ele>66.476</ele>
        <time>2021-09-01T09:32:54Z</time>
      </trkpt>
      <trkpt lat="39.596759" lon="3.345382">
        <ele>66.111</ele>
        <time>2021-09-01T09:32:55Z</time>
      </trkpt>
      <trkpt lat="39.596766" lon="3.345310">
        <ele>66.018</ele>
        <time>2021-09-01T09:32:56Z</time>
      </trkpt>
      <trkpt lat="39.596770" lon="3.345241">
        <ele>65.918</ele>
        <time>2021-09-01T09:32:57Z</time>
      </trkpt>
      <trkpt lat="39.596777" lon="3.345173">
        <ele>65.971</ele>
        <time>2021-09-01T09:32:58Z</time>
      </trkpt>
      <trkpt lat="39.596778" lon="3.345112">
        <ele>65.941</ele>
        <time>2021-09-01T09:32:59Z</time>
      </trkpt>
      <trkpt lat="39.596778" lon="3.345051">
        <ele>65.915</ele>
        <time>2021-09-01T09:33:00Z</time>
      </trkpt>
      <trkpt lat="39.596776" lon="3.344987">
        <ele>65.908</ele>
        <time>2021-09-01T09:33:01Z</time>
      </trkpt>
      <trkpt lat="39.596772" lon="3.344925">
        <ele>65.945</ele>
        <time>2021-09-01T09:33:02Z</time>
      </trkpt>
      <trkpt lat="39.596763" lon="3.344859">
        <ele>65.969</ele>
        <time>2021-09-01T09:33:03Z</time>
      </trkpt>
      <trkpt lat="39.596763" lon="3.344790">
        <ele>65.834</ele>
        <time>2021-09-01T09:33:04Z</time>
      </trkpt>
      <trkpt lat="39.596756" lon="3.344719">
        <ele>65.898</ele>
        <time>2021-09-01T09:33:05Z</time>
      </trkpt>
      <trkpt lat="39.596757" lon="3.344656">
        <ele>65.837</ele>
        <time>2021-09-01T09:33:06Z</time>
      </trkpt>
      <trkpt lat="39.596752" lon="3.344584">
        <ele>65.752</ele>
        <time>2021-09-01T09:33:07Z</time>
      </trkpt>
      <trkpt lat="39.596747" lon="3.344512">
        <ele>65.549</ele>
        <time>2021-09-01T09:33:08Z</time>
      </trkpt>
      <trkpt lat="39.596744" lon="3.344437">
        <ele>65.419</ele>
        <time>2021-09-01T09:33:09Z</time>
      </trkpt>
      <trkpt lat="39.596742" lon="3.344361">
        <ele>65.416</ele>
        <time>2021-09-01T09:33:10Z</time>
      </trkpt>
      <trkpt lat="39.596739" lon="3.344284">
        <ele>65.376</ele>
        <time>2021-09-01T09:33:11Z</time>
      </trkpt>
      <trkpt lat="39.596736" lon="3.344206">
        <ele>65.313</ele>
        <time>2021-09-01T09:33:12Z</time>
      </trkpt>
      <trkpt lat="39.596733" lon="3.344133">
        <ele>65.308</ele>
        <time>2021-09-01T09:33:13Z</time>
      </trkpt>
      <trkpt lat="39.596728" lon="3.344060">
        <ele>65.249</ele>
        <time>2021-09-01T09:33:14Z</time>
      </trkpt>
      <trkpt lat="39.596723" lon="3.343987">
        <ele>65.233</ele>
        <time>2021-09-01T09:33:15Z</time>
      </trkpt>
      <trkpt lat="39.596714" lon="3.343910">
        <ele>65.258</ele>
        <time>2021-09-01T09:33:16Z</time>
      </trkpt>
      <trkpt lat="39.596708" lon="3.343834">
        <ele>65.362</ele>
        <time>2021-09-01T09:33:17Z</time>
      </trkpt>
      <trkpt lat="39.596698" lon="3.343757">
        <ele>65.351</ele>
        <time>2021-09-01T09:33:18Z</time>
      </trkpt>
      <trkpt lat="39.596684" lon="3.343683">
        <ele>65.446</ele>
        <time>2021-09-01T09:33:19Z</time>
      </trkpt>
      <trkpt lat="39.596674" lon="3.343604">
        <ele>65.433</ele>
        <time>2021-09-01T09:33:20Z</time>
      </trkpt>
      <trkpt lat="39.596662" lon="3.343527">
        <ele>65.443</ele>
        <time>2021-09-01T09:33:21Z</time>
      </trkpt>
      <trkpt lat="39.596649" lon="3.343452">
        <ele>65.329</ele>
        <time>2021-09-01T09:33:22Z</time>
      </trkpt>
      <trkpt lat="39.596636" lon="3.343380">
        <ele>65.100</ele>
        <time>2021-09-01T09:33:23Z</time>
      </trkpt>
      <trkpt lat="39.596620" lon="3.343307">
        <ele>64.920</ele>
        <time>2021-09-01T09:33:24Z</time>
      </trkpt>
      <trkpt lat="39.596603" lon="3.343235">
        <ele>64.808</ele>
        <time>2021-09-01T09:33:25Z</time>
      </trkpt>
      <trkpt lat="39.596583" lon="3.343154">
        <ele>64.770</ele>
        <time>2021-09-01T09:33:26Z</time>
      </trkpt>
      <trkpt lat="39.596563" lon="3.343074">
        <ele>64.744</ele>
        <time>2021-09-01T09:33:27Z</time>
      </trkpt>
      <trkpt lat="39.596541" lon="3.342996">
        <ele>64.719</ele>
        <time>2021-09-01T09:33:28Z</time>
      </trkpt>
      <trkpt lat="39.596524" lon="3.342921">
        <ele>64.793</ele>
        <time>2021-09-01T09:33:29Z</time>
      </trkpt>
      <trkpt lat="39.596502" lon="3.342847">
        <ele>64.772</ele>
        <time>2021-09-01T09:33:30Z</time>
      </trkpt>
      <trkpt lat="39.596471" lon="3.342782">
        <ele>64.877</ele>
        <time>2021-09-01T09:33:31Z</time>
      </trkpt>
      <trkpt lat="39.596446" lon="3.342711">
        <ele>64.884</ele>
        <time>2021-09-01T09:33:32Z</time>
      </trkpt>
      <trkpt lat="39.596423" lon="3.342638">
        <ele>64.814</ele>
        <time>2021-09-01T09:33:33Z</time>
      </trkpt>
      <trkpt lat="39.596396" lon="3.342566">
        <ele>64.856</ele>
        <time>2021-09-01T09:33:34Z</time>
      </trkpt>
      <trkpt lat="39.596371" lon="3.342496">
        <ele>64.659</ele>
        <time>2021-09-01T09:33:35Z</time>
      </trkpt>
      <trkpt lat="39.596349" lon="3.342418">
        <ele>64.514</ele>
        <time>2021-09-01T09:33:36Z</time>
      </trkpt>
      <trkpt lat="39.596324" lon="3.342346">
        <ele>64.408</ele>
        <time>2021-09-01T09:33:37Z</time>
      </trkpt>
      <trkpt lat="39.596300" lon="3.342278">
        <ele>64.393</ele>
        <time>2021-09-01T09:33:38Z</time>
      </trkpt>
      <trkpt lat="39.596273" lon="3.342203">
        <ele>64.387</ele>
        <time>2021-09-01T09:33:39Z</time>
      </trkpt>
      <trkpt lat="39.596246" lon="3.342134">
        <ele>64.332</ele>
        <time>2021-09-01T09:33:40Z</time>
      </trkpt>
      <trkpt lat="39.596221" lon="3.342058">
        <ele>64.296</ele>
        <time>2021-09-01T09:33:41Z</time>
      </trkpt>
      <trkpt lat="39.596196" lon="3.341993">
        <ele>64.155</ele>
        <time>2021-09-01T09:33:42Z</time>
      </trkpt>
      <trkpt lat="39.596165" lon="3.341926">
        <ele>64.130</ele>
        <time>2021-09-01T09:33:43Z</time>
      </trkpt>
      <trkpt lat="39.596133" lon="3.341861">
        <ele>64.097</ele>
        <time>2021-09-01T09:33:44Z</time>
      </trkpt>
      <trkpt lat="39.596106" lon="3.341790">
        <ele>64.077</ele>
        <time>2021-09-01T09:33:45Z</time>
      </trkpt>
      <trkpt lat="39.596075" lon="3.341718">
        <ele>64.066</ele>
        <time>2021-09-01T09:33:46Z</time>
      </trkpt>
      <trkpt lat="39.596043" lon="3.341656">
        <ele>64.029</ele>
        <time>2021-09-01T09:33:47Z</time>
      </trkpt>
      <trkpt lat="39.596012" lon="3.341587">
        <ele>64.021</ele>
        <time>2021-09-01T09:33:48Z</time>
      </trkpt>
      <trkpt lat="39.595978" lon="3.341519">
        <ele>64.008</ele>
        <time>2021-09-01T09:33:49Z</time>
      </trkpt>
      <trkpt lat="39.595942" lon="3.341450">
        <ele>64.164</ele>
        <time>2021-09-01T09:33:50Z</time>
      </trkpt>
      <trkpt lat="39.595907" lon="3.341384">
        <ele>64.178</ele>
        <time>2021-09-01T09:33:51Z</time>
      </trkpt>
      <trkpt lat="39.595873" lon="3.341321">
        <ele>64.153</ele>
        <time>2021-09-01T09:33:52Z</time>
      </trkpt>
      <trkpt lat="39.595840" lon="3.341257">
        <ele>64.177</ele>
        <time>2021-09-01T09:33:53Z</time>
      </trkpt>
      <trkpt lat="39.595803" lon="3.341199">
        <ele>64.146</ele>
        <time>2021-09-01T09:33:54Z</time>
      </trkpt>
      <trkpt lat="39.595773" lon="3.341136">
        <ele>64.171</ele>
        <time>2021-09-01T09:33:55Z</time>
      </trkpt>
      <trkpt lat="39.595739" lon="3.341075">
        <ele>64.128</ele>
        <time>2021-09-01T09:33:56Z</time>
      </trkpt>
      <trkpt lat="39.595700" lon="3.341018">
        <ele>64.278</ele>
        <time>2021-09-01T09:33:57Z</time>
      </trkpt>
      <trkpt lat="39.595657" lon="3.340957">
        <ele>64.388</ele>
        <time>2021-09-01T09:33:58Z</time>
      </trkpt>
      <trkpt lat="39.595619" lon="3.340903">
        <ele>64.324</ele>
        <time>2021-09-01T09:33:59Z</time>
      </trkpt>
      <trkpt lat="39.595581" lon="3.340847">
        <ele>64.326</ele>
        <time>2021-09-01T09:34:00Z</time>
      </trkpt>
      <trkpt lat="39.595542" lon="3.340790">
        <ele>64.308</ele>
        <time>2021-09-01T09:34:01Z</time>
      </trkpt>
      <trkpt lat="39.595501" lon="3.340736">
        <ele>64.266</ele>
        <time>2021-09-01T09:34:02Z</time>
      </trkpt>
      <trkpt lat="39.595461" lon="3.340684">
        <ele>64.290</ele>
        <time>2021-09-01T09:34:03Z</time>
      </trkpt>
      <trkpt lat="39.595420" lon="3.340632">
        <ele>64.235</ele>
        <time>2021-09-01T09:34:04Z</time>
      </trkpt>
      <trkpt lat="39.595379" lon="3.340579">
        <ele>64.289</ele>
        <time>2021-09-01T09:34:05Z</time>
      </trkpt>
      <trkpt lat="39.595338" lon="3.340531">
        <ele>64.398</ele>
        <time>2021-09-01T09:34:06Z</time>
      </trkpt>
      <trkpt lat="39.595295" lon="3.340481">
        <ele>64.353</ele>
        <time>2021-09-01T09:34:07Z</time>
      </trkpt>
      <trkpt lat="39.595251" lon="3.340434">
        <ele>64.340</ele>
        <time>2021-09-01T09:34:08Z</time>
      </trkpt>
      <trkpt lat="39.595208" lon="3.340388">
        <ele>64.390</ele>
        <time>2021-09-01T09:34:09Z</time>
      </trkpt>
      <trkpt lat="39.595163" lon="3.340343">
        <ele>64.434</ele>
        <time>2021-09-01T09:34:10Z</time>
      </trkpt>
      <trkpt lat="39.595121" lon="3.340297">
        <ele>64.455</ele>
        <time>2021-09-01T09:34:11Z</time>
      </trkpt>
      <trkpt lat="39.595080" lon="3.340251">
        <ele>64.410</ele>
        <time>2021-09-01T09:34:12Z</time>
      </trkpt>
      <trkpt lat="39.595037" lon="3.340208">
        <ele>64.408</ele>
        <time>2021-09-01T09:34:13Z</time>
      </trkpt>
      <trkpt lat="39.594993" lon="3.340169">
        <ele>64.541</ele>
        <time>2021-09-01T09:34:14Z</time>
      </trkpt>
      <trkpt lat="39.594945" lon="3.340127">
        <ele>64.585</ele>
        <time>2021-09-01T09:34:15Z</time>
      </trkpt>
      <trkpt lat="39.594900" lon="3.340092">
        <ele>64.580</ele>
        <time>2021-09-01T09:34:16Z</time>
      </trkpt>
      <trkpt lat="39.594858" lon="3.340054">
        <ele>64.524</ele>
        <time>2021-09-01T09:34:17Z</time>
      </trkpt>
      <trkpt lat="39.594815" lon="3.340016">
        <ele>64.593</ele>
        <time>2021-09-01T09:34:18Z</time>
      </trkpt>
      <trkpt lat="39.594770" lon="3.339980">
        <ele>64.568</ele>
        <time>2021-09-01T09:34:19Z</time>
      </trkpt>
      <trkpt lat="39.594723" lon="3.339947">
        <ele>64.515</ele>
        <time>2021-09-01T09:34:20Z</time>
      </trkpt>
      <trkpt lat="39.594678" lon="3.339911">
        <ele>64.585</ele>
        <time>2021-09-01T09:34:21Z</time>
      </trkpt>
      <trkpt lat="39.594634" lon="3.339877">
        <ele>64.578</ele>
        <time>2021-09-01T09:34:22Z</time>
      </trkpt>
      <trkpt lat="39.594591" lon="3.339839">
        <ele>64.433</ele>
        <time>2021-09-01T09:34:23Z</time>
      </trkpt>
      <trkpt lat="39.594547" lon="3.339803">
        <ele>64.426</ele>
        <time>2021-09-01T09:34:24Z</time>
      </trkpt>
      <trkpt lat="39.594503" lon="3.339773">
        <ele>64.408</ele>
        <time>2021-09-01T09:34:25Z</time>
      </trkpt>
      <trkpt lat="39.594459" lon="3.339740">
        <ele>64.345</ele>
        <time>2021-09-01T09:34:26Z</time>
      </trkpt>
      <trkpt lat="39.594416" lon="3.339707">
        <ele>64.329</ele>
        <time>2021-09-01T09:34:27Z</time>
      </trkpt>
      <trkpt lat="39.594370" lon="3.339680">
        <ele>64.354</ele>
        <time>2021-09-01T09:34:28Z</time>
      </trkpt>
      <trkpt lat="39.594327" lon="3.339653">
        <ele>64.398</ele>
        <time>2021-09-01T09:34:29Z</time>
      </trkpt>
      <trkpt lat="39.594284" lon="3.339625">
        <ele>64.417</ele>
        <time>2021-09-01T09:34:30Z</time>
      </trkpt>
      <trkpt lat="39.594242" lon="3.339596">
        <ele>64.542</ele>
        <time>2021-09-01T09:34:31Z</time>
      </trkpt>
      <trkpt lat="39.594202" lon="3.339566">
        <ele>64.679</ele>
        <time>2021-09-01T09:34:32Z</time>
      </trkpt>
      <trkpt lat="39.594160" lon="3.339537">
        <ele>64.649</ele>
        <time>2021-09-01T09:34:33Z</time>
      </trkpt>
      <trkpt lat="39.594113" lon="3.339513">
        <ele>64.729</ele>
        <time>2021-09-01T09:34:34Z</time>
      </trkpt>
      <trkpt lat="39.594070" lon="3.339492">
        <ele>64.800</ele>
        <time>2021-09-01T09:34:35Z</time>
      </trkpt>
      <trkpt lat="39.594029" lon="3.339468">
        <ele>65.020</ele>
        <time>2021-09-01T09:34:36Z</time>
      </trkpt>
      <trkpt lat="39.593985" lon="3.339441">
        <ele>65.208</ele>
        <time>2021-09-01T09:34:37Z</time>
      </trkpt>
      <trkpt lat="39.593941" lon="3.339417">
        <ele>65.380</ele>
        <time>2021-09-01T09:34:38Z</time>
      </trkpt>
      <trkpt lat="39.593898" lon="3.339395">
        <ele>65.574</ele>
        <time>2021-09-01T09:34:39Z</time>
      </trkpt>
      <trkpt lat="39.593853" lon="3.339374">
        <ele>65.539</ele>
        <time>2021-09-01T09:34:40Z</time>
      </trkpt>
      <trkpt lat="39.593809" lon="3.339357">
        <ele>65.643</ele>
        <time>2021-09-01T09:34:41Z</time>
      </trkpt>
      <trkpt lat="39.593722" lon="3.339321">
        <ele>65.632</ele>
        <time>2021-09-01T09:34:43Z</time>
      </trkpt>
      <trkpt lat="39.593641" lon="3.339283">
        <ele>65.627</ele>
        <time>2021-09-01T09:34:45Z</time>
      </trkpt>
      <trkpt lat="39.593565" lon="3.339245">
        <ele>65.874</ele>
        <time>2021-09-01T09:34:47Z</time>
      </trkpt>
      <trkpt lat="39.593486" lon="3.339208">
        <ele>65.984</ele>
        <time>2021-09-01T09:34:49Z</time>
      </trkpt>
      <trkpt lat="39.593405" lon="3.339180">
        <ele>66.199</ele>
        <time>2021-09-01T09:34:51Z</time>
      </trkpt>
      <trkpt lat="39.593330" lon="3.339151">
        <ele>66.107</ele>
        <time>2021-09-01T09:34:53Z</time>
      </trkpt>
      <trkpt lat="39.593257" lon="3.339117">
        <ele>66.227</ele>
        <time>2021-09-01T09:34:55Z</time>
      </trkpt>
      <trkpt lat="39.593177" lon="3.339099">
        <ele>66.208</ele>
        <time>2021-09-01T09:34:57Z</time>
      </trkpt>
      <trkpt lat="39.593097" lon="3.339071">
        <ele>66.227</ele>
        <time>2021-09-01T09:34:59Z</time>
      </trkpt>
      <trkpt lat="39.593023" lon="3.339039">
        <ele>66.471</ele>
        <time>2021-09-01T09:35:01Z</time>
      </trkpt>
      <trkpt lat="39.592949" lon="3.339003">
        <ele>66.766</ele>
        <time>2021-09-01T09:35:03Z</time>
      </trkpt>
      <trkpt lat="39.592867" lon="3.338970">
        <ele>66.850</ele>
        <time>2021-09-01T09:35:05Z</time>
      </trkpt>
      <trkpt lat="39.592787" lon="3.338948">
        <ele>66.959</ele>
        <time>2021-09-01T09:35:07Z</time>
      </trkpt>
      <trkpt lat="39.592713" lon="3.338915">
        <ele>66.974</ele>
        <time>2021-09-01T09:35:09Z</time>
      </trkpt>
      <trkpt lat="39.592629" lon="3.338878">
        <ele>66.961</ele>
        <time>2021-09-01T09:35:11Z</time>
      </trkpt>
      <trkpt lat="39.592540" lon="3.338845">
        <ele>67.081</ele>
        <time>2021-09-01T09:35:13Z</time>
      </trkpt>
      <trkpt lat="39.592496" lon="3.338827">
        <ele>67.187</ele>
        <time>2021-09-01T09:35:14Z</time>
      </trkpt>
      <trkpt lat="39.592450" lon="3.338804">
        <ele>67.142</ele>
        <time>2021-09-01T09:35:15Z</time>
      </trkpt>
      <trkpt lat="39.592405" lon="3.338787">
        <ele>67.226</ele>
        <time>2021-09-01T09:35:16Z</time>
      </trkpt>
      <trkpt lat="39.592360" lon="3.338767">
        <ele>67.208</ele>
        <time>2021-09-01T09:35:17Z</time>
      </trkpt>
      <trkpt lat="39.592313" lon="3.338746">
        <ele>67.276</ele>
        <time>2021-09-01T09:35:18Z</time>
      </trkpt>
      <trkpt lat="39.592265" lon="3.338728">
        <ele>67.280</ele>
        <time>2021-09-01T09:35:19Z</time>
      </trkpt>
      <trkpt lat="39.592218" lon="3.338707">
        <ele>67.385</ele>
        <time>2021-09-01T09:35:20Z</time>
      </trkpt>
      <trkpt lat="39.592170" lon="3.338693">
        <ele>67.339</ele>
        <time>2021-09-01T09:35:21Z</time>
      </trkpt>
      <trkpt lat="39.592123" lon="3.338674">
        <ele>67.468</ele>
        <time>2021-09-01T09:35:22Z</time>
      </trkpt>
      <trkpt lat="39.592076" lon="3.338657">
        <ele>67.553</ele>
        <time>2021-09-01T09:35:23Z</time>
      </trkpt>
      <trkpt lat="39.592029" lon="3.338639">
        <ele>67.680</ele>
        <time>2021-09-01T09:35:24Z</time>
      </trkpt>
      <trkpt lat="39.591982" lon="3.338627">
        <ele>67.730</ele>
        <time>2021-09-01T09:35:25Z</time>
      </trkpt>
      <trkpt lat="39.591934" lon="3.338610">
        <ele>67.822</ele>
        <time>2021-09-01T09:35:26Z</time>
      </trkpt>
      <trkpt lat="39.591884" lon="3.338591">
        <ele>67.962</ele>
        <time>2021-09-01T09:35:27Z</time>
      </trkpt>
      <trkpt lat="39.591836" lon="3.338574">
        <ele>68.108</ele>
        <time>2021-09-01T09:35:28Z</time>
      </trkpt>
      <trkpt lat="39.591787" lon="3.338553">
        <ele>68.208</ele>
        <time>2021-09-01T09:35:29Z</time>
      </trkpt>
      <trkpt lat="39.591738" lon="3.338534">
        <ele>68.390</ele>
        <time>2021-09-01T09:35:30Z</time>
      </trkpt>
      <trkpt lat="39.591688" lon="3.338513">
        <ele>68.334</ele>
        <time>2021-09-01T09:35:31Z</time>
      </trkpt>
      <trkpt lat="39.591638" lon="3.338493">
        <ele>68.449</ele>
        <time>2021-09-01T09:35:32Z</time>
      </trkpt>
      <trkpt lat="39.591590" lon="3.338476">
        <ele>68.453</ele>
        <time>2021-09-01T09:35:33Z</time>
      </trkpt>
      <trkpt lat="39.591543" lon="3.338458">
        <ele>68.492</ele>
        <time>2021-09-01T09:35:34Z</time>
      </trkpt>
      <trkpt lat="39.591492" lon="3.338436">
        <ele>68.547</ele>
        <time>2021-09-01T09:35:35Z</time>
      </trkpt>
      <trkpt lat="39.591439" lon="3.338416">
        <ele>68.624</ele>
        <time>2021-09-01T09:35:36Z</time>
      </trkpt>
      <trkpt lat="39.591387" lon="3.338395">
        <ele>68.634</ele>
        <time>2021-09-01T09:35:37Z</time>
      </trkpt>
      <trkpt lat="39.591337" lon="3.338375">
        <ele>68.759</ele>
        <time>2021-09-01T09:35:38Z</time>
      </trkpt>
      <trkpt lat="39.591285" lon="3.338357">
        <ele>68.703</ele>
        <time>2021-09-01T09:35:39Z</time>
      </trkpt>
      <trkpt lat="39.591240" lon="3.338336">
        <ele>68.723</ele>
        <time>2021-09-01T09:35:40Z</time>
      </trkpt>
      <trkpt lat="39.591191" lon="3.338316">
        <ele>68.808</ele>
        <time>2021-09-01T09:35:41Z</time>
      </trkpt>
      <trkpt lat="39.591140" lon="3.338296">
        <ele>68.893</ele>
        <time>2021-09-01T09:35:42Z</time>
      </trkpt>
      <trkpt lat="39.591090" lon="3.338280">
        <ele>68.847</ele>
        <time>2021-09-01T09:35:43Z</time>
      </trkpt>
      <trkpt lat="39.591036" lon="3.338262">
        <ele>68.982</ele>
        <time>2021-09-01T09:35:44Z</time>
      </trkpt>
      <trkpt lat="39.590989" lon="3.338242">
        <ele>68.996</ele>
        <time>2021-09-01T09:35:45Z</time>
      </trkpt>
      <trkpt lat="39.590942" lon="3.338222">
        <ele>68.955</ele>
        <time>2021-09-01T09:35:46Z</time>
      </trkpt>
      <trkpt lat="39.590894" lon="3.338210">
        <ele>68.980</ele>
        <time>2021-09-01T09:35:47Z</time>
      </trkpt>
      <trkpt lat="39.590846" lon="3.338194">
        <ele>68.867</ele>
        <time>2021-09-01T09:35:48Z</time>
      </trkpt>
      <trkpt lat="39.590802" lon="3.338179">
        <ele>68.837</ele>
        <time>2021-09-01T09:35:49Z</time>
      </trkpt>
      <trkpt lat="39.590754" lon="3.338157">
        <ele>68.731</ele>
        <time>2021-09-01T09:35:50Z</time>
      </trkpt>
      <trkpt lat="39.590706" lon="3.338137">
        <ele>68.761</ele>
        <time>2021-09-01T09:35:51Z</time>
      </trkpt>
      <trkpt lat="39.590656" lon="3.338118">
        <ele>68.707</ele>
        <time>2021-09-01T09:35:52Z</time>
      </trkpt>
      <trkpt lat="39.590610" lon="3.338102">
        <ele>68.808</ele>
        <time>2021-09-01T09:35:53Z</time>
      </trkpt>
      <trkpt lat="39.590522" lon="3.338076">
        <ele>68.821</ele>
        <time>2021-09-01T09:35:55Z</time>
      </trkpt>
      <trkpt lat="39.590450" lon="3.338070">
        <ele>68.625</ele>
        <time>2021-09-01T09:35:57Z</time>
      </trkpt>
      <trkpt lat="39.590384" lon="3.338038">
        <ele>68.060</ele>
        <time>2021-09-01T09:36:01Z</time>
      </trkpt>
      <trkpt lat="39.590322" lon="3.338027">
        <ele>68.034</ele>
        <time>2021-09-01T09:36:04Z</time>
      </trkpt>
      <trkpt lat="39.590267" lon="3.338025">
        <ele>68.143</ele>
        <time>2021-09-01T09:36:06Z</time>
      </trkpt>
      <trkpt lat="39.590207" lon="3.337971">
        <ele>68.118</ele>
        <time>2021-09-01T09:36:09Z</time>
      </trkpt>
      <trkpt lat="39.590123" lon="3.337934">
        <ele>68.015</ele>
        <time>2021-09-01T09:36:11Z</time>
      </trkpt>
      <trkpt lat="39.590077" lon="3.337918">
        <ele>68.045</ele>
        <time>2021-09-01T09:36:12Z</time>
      </trkpt>
      <trkpt lat="39.590032" lon="3.337897">
        <ele>68.013</ele>
        <time>2021-09-01T09:36:13Z</time>
      </trkpt>
      <trkpt lat="39.589982" lon="3.337867">
        <ele>68.043</ele>
        <time>2021-09-01T09:36:14Z</time>
      </trkpt>
      <trkpt lat="39.589935" lon="3.337842">
        <ele>68.107</ele>
        <time>2021-09-01T09:36:15Z</time>
      </trkpt>
      <trkpt lat="39.589882" lon="3.337819">
        <ele>68.108</ele>
        <time>2021-09-01T09:36:16Z</time>
      </trkpt>
      <trkpt lat="39.589832" lon="3.337796">
        <ele>68.299</ele>
        <time>2021-09-01T09:36:17Z</time>
      </trkpt>
      <trkpt lat="39.589779" lon="3.337769">
        <ele>68.223</ele>
        <time>2021-09-01T09:36:18Z</time>
      </trkpt>
      <trkpt lat="39.589727" lon="3.337746">
        <ele>68.258</ele>
        <time>2021-09-01T09:36:19Z</time>
      </trkpt>
      <trkpt lat="39.589678" lon="3.337717">
        <ele>68.222</ele>
        <time>2021-09-01T09:36:20Z</time>
      </trkpt>
      <trkpt lat="39.589628" lon="3.337689">
        <ele>68.391</ele>
        <time>2021-09-01T09:36:21Z</time>
      </trkpt>
      <trkpt lat="39.589574" lon="3.337665">
        <ele>68.446</ele>
        <time>2021-09-01T09:36:22Z</time>
      </trkpt>
      <trkpt lat="39.589522" lon="3.337640">
        <ele>68.493</ele>
        <time>2021-09-01T09:36:23Z</time>
      </trkpt>
      <trkpt lat="39.589468" lon="3.337610">
        <ele>68.453</ele>
        <time>2021-09-01T09:36:24Z</time>
      </trkpt>
      <trkpt lat="39.589416" lon="3.337579">
        <ele>68.445</ele>
        <time>2021-09-01T09:36:25Z</time>
      </trkpt>
      <trkpt lat="39.589364" lon="3.337544">
        <ele>68.347</ele>
        <time>2021-09-01T09:36:26Z</time>
      </trkpt>
      <trkpt lat="39.589311" lon="3.337508">
        <ele>68.211</ele>
        <time>2021-09-01T09:36:27Z</time>
      </trkpt>
      <trkpt lat="39.589260" lon="3.337479">
        <ele>68.108</ele>
        <time>2021-09-01T09:36:28Z</time>
      </trkpt>
      <trkpt lat="39.589211" lon="3.337450">
        <ele>68.022</ele>
        <time>2021-09-01T09:36:29Z</time>
      </trkpt>
      <trkpt lat="39.589166" lon="3.337423">
        <ele>68.036</ele>
        <time>2021-09-01T09:36:30Z</time>
      </trkpt>
      <trkpt lat="39.589120" lon="3.337394">
        <ele>68.081</ele>
        <time>2021-09-01T09:36:31Z</time>
      </trkpt>
      <trkpt lat="39.589073" lon="3.337364">
        <ele>68.035</ele>
        <time>2021-09-01T09:36:32Z</time>
      </trkpt>
      <trkpt lat="39.589027" lon="3.337327">
        <ele>68.064</ele>
        <time>2021-09-01T09:36:33Z</time>
      </trkpt>
      <trkpt lat="39.588983" lon="3.337290">
        <ele>68.039</ele>
        <time>2021-09-01T09:36:34Z</time>
      </trkpt>
      <trkpt lat="39.588939" lon="3.337249">
        <ele>68.066</ele>
        <time>2021-09-01T09:36:35Z</time>
      </trkpt>
      <trkpt lat="39.588889" lon="3.337211">
        <ele>67.946</ele>
        <time>2021-09-01T09:36:36Z</time>
      </trkpt>
      <trkpt lat="39.588842" lon="3.337173">
        <ele>67.942</ele>
        <time>2021-09-01T09:36:37Z</time>
      </trkpt>
      <trkpt lat="39.588797" lon="3.337140">
        <ele>67.822</ele>
        <time>2021-09-01T09:36:38Z</time>
      </trkpt>
      <trkpt lat="39.588751" lon="3.337097">
        <ele>67.614</ele>
        <time>2021-09-01T09:36:39Z</time>
      </trkpt>
      <trkpt lat="39.588703" lon="3.337061">
        <ele>67.508</ele>
        <time>2021-09-01T09:36:40Z</time>
      </trkpt>
      <trkpt lat="39.588657" lon="3.337019">
        <ele>67.332</ele>
        <time>2021-09-01T09:36:41Z</time>
      </trkpt>
      <trkpt lat="39.588615" lon="3.336980">
        <ele>67.066</ele>
        <time>2021-09-01T09:36:42Z</time>
      </trkpt>
      <trkpt lat="39.588572" lon="3.336935">
        <ele>66.821</ele>
        <time>2021-09-01T09:36:43Z</time>
      </trkpt>
      <trkpt lat="39.588531" lon="3.336895">
        <ele>66.715</ele>
        <time>2021-09-01T09:36:44Z</time>
      </trkpt>
      <trkpt lat="39.588494" lon="3.336849">
        <ele>66.664</ele>
        <time>2021-09-01T09:36:45Z</time>
      </trkpt>
      <trkpt lat="39.588454" lon="3.336810">
        <ele>66.629</ele>
        <time>2021-09-01T09:36:46Z</time>
      </trkpt>
      <trkpt lat="39.588418" lon="3.336771">
        <ele>66.676</ele>
        <time>2021-09-01T09:36:47Z</time>
      </trkpt>
      <trkpt lat="39.588378" lon="3.336728">
        <ele>66.656</ele>
        <time>2021-09-01T09:36:48Z</time>
      </trkpt>
      <trkpt lat="39.588339" lon="3.336687">
        <ele>66.618</ele>
        <time>2021-09-01T09:36:49Z</time>
      </trkpt>
      <trkpt lat="39.588302" lon="3.336642">
        <ele>66.698</ele>
        <time>2021-09-01T09:36:50Z</time>
      </trkpt>
      <trkpt lat="39.588264" lon="3.336595">
        <ele>66.617</ele>
        <time>2021-09-01T09:36:51Z</time>
      </trkpt>
      <trkpt lat="39.588230" lon="3.336550">
        <ele>66.408</ele>
        <time>2021-09-01T09:36:52Z</time>
      </trkpt>
      <trkpt lat="39.588191" lon="3.336504">
        <ele>66.239</ele>
        <time>2021-09-01T09:36:53Z</time>
      </trkpt>
      <trkpt lat="39.588155" lon="3.336458">
        <ele>66.023</ele>
        <time>2021-09-01T09:36:54Z</time>
      </trkpt>
      <trkpt lat="39.588118" lon="3.336406">
        <ele>65.928</ele>
        <time>2021-09-01T09:36:55Z</time>
      </trkpt>
      <trkpt lat="39.588079" lon="3.336353">
        <ele>65.742</ele>
        <time>2021-09-01T09:36:56Z</time>
      </trkpt>
      <trkpt lat="39.588037" lon="3.336299">
        <ele>65.751</ele>
        <time>2021-09-01T09:36:57Z</time>
      </trkpt>
      <trkpt lat="39.587998" lon="3.336241">
        <ele>65.626</ele>
        <time>2021-09-01T09:36:58Z</time>
      </trkpt>
      <trkpt lat="39.587959" lon="3.336186">
        <ele>65.553</ele>
        <time>2021-09-01T09:36:59Z</time>
      </trkpt>
      <trkpt lat="39.587918" lon="3.336132">
        <ele>65.443</ele>
        <time>2021-09-01T09:37:00Z</time>
      </trkpt>
      <trkpt lat="39.587881" lon="3.336080">
        <ele>65.221</ele>
        <time>2021-09-01T09:37:01Z</time>
      </trkpt>
      <trkpt lat="39.587845" lon="3.336026">
        <ele>65.241</ele>
        <time>2021-09-01T09:37:02Z</time>
      </trkpt>
      <trkpt lat="39.587808" lon="3.335972">
        <ele>65.105</ele>
        <time>2021-09-01T09:37:03Z</time>
      </trkpt>
      <trkpt lat="39.587772" lon="3.335920">
        <ele>65.008</ele>
        <time>2021-09-01T09:37:04Z</time>
      </trkpt>
      <trkpt lat="39.587738" lon="3.335867">
        <ele>65.080</ele>
        <time>2021-09-01T09:37:05Z</time>
      </trkpt>
      <trkpt lat="39.587705" lon="3.335813">
        <ele>64.934</ele>
        <time>2021-09-01T09:37:06Z</time>
      </trkpt>
      <trkpt lat="39.587674" lon="3.335756">
        <ele>64.859</ele>
        <time>2021-09-01T09:37:07Z</time>
      </trkpt>
      <trkpt lat="39.587643" lon="3.335702">
        <ele>64.773</ele>
        <time>2021-09-01T09:37:08Z</time>
      </trkpt>
      <trkpt lat="39.587614" lon="3.335646">
        <ele>64.772</ele>
        <time>2021-09-01T09:37:09Z</time>
      </trkpt>
      <trkpt lat="39.587585" lon="3.335592">
        <ele>64.777</ele>
        <time>2021-09-01T09:37:10Z</time>
      </trkpt>
      <trkpt lat="39.587553" lon="3.335536">
        <ele>64.744</ele>
        <time>2021-09-01T09:37:11Z</time>
      </trkpt>
      <trkpt lat="39.587521" lon="3.335480">
        <ele>64.784</ele>
        <time>2021-09-01T09:37:12Z</time>
      </trkpt>
      <trkpt lat="39.587493" lon="3.335421">
        <ele>64.672</ele>
        <time>2021-09-01T09:37:13Z</time>
      </trkpt>
      <trkpt lat="39.587466" lon="3.335363">
        <ele>64.613</ele>
        <time>2021-09-01T09:37:14Z</time>
      </trkpt>
      <trkpt lat="39.587439" lon="3.335310">
        <ele>64.514</ele>
        <time>2021-09-01T09:37:15Z</time>
      </trkpt>
      <trkpt lat="39.587412" lon="3.335256">
        <ele>64.508</ele>
        <time>2021-09-01T09:37:16Z</time>
      </trkpt>
      <trkpt lat="39.587389" lon="3.335198">
        <ele>64.535</ele>
        <time>2021-09-01T09:37:17Z</time>
      </trkpt>
      <trkpt lat="39.587364" lon="3.335146">
        <ele>64.339</ele>
        <time>2021-09-01T09:37:18Z</time>
      </trkpt>
      <trkpt lat="39.587340" lon="3.335091">
        <ele>64.374</ele>
        <time>2021-09-01T09:37:19Z</time>
      </trkpt>
      <trkpt lat="39.587316" lon="3.335030">
        <ele>64.298</ele>
        <time>2021-09-01T09:37:20Z</time>
      </trkpt>
      <trkpt lat="39.587295" lon="3.334970">
        <ele>64.197</ele>
        <time>2021-09-01T09:37:21Z</time>
      </trkpt>
      <trkpt lat="39.587273" lon="3.334899">
        <ele>64.182</ele>
        <time>2021-09-01T09:37:22Z</time>
      </trkpt>
      <trkpt lat="39.587246" lon="3.334829">
        <ele>64.059</ele>
        <time>2021-09-01T09:37:23Z</time>
      </trkpt>
      <trkpt lat="39.587227" lon="3.334769">
        <ele>64.079</ele>
        <time>2021-09-01T09:37:24Z</time>
      </trkpt>
      <trkpt lat="39.587204" lon="3.334699">
        <ele>64.073</ele>
        <time>2021-09-01T09:37:25Z</time>
      </trkpt>
      <trkpt lat="39.587180" lon="3.334627">
        <ele>63.985</ele>
        <time>2021-09-01T09:37:26Z</time>
      </trkpt>
      <trkpt lat="39.587157" lon="3.334557">
        <ele>63.913</ele>
        <time>2021-09-01T09:37:27Z</time>
      </trkpt>
      <trkpt lat="39.587131" lon="3.334485">
        <ele>63.808</ele>
        <time>2021-09-01T09:37:28Z</time>
      </trkpt>
      <trkpt lat="39.587115" lon="3.334415">
        <ele>63.865</ele>
        <time>2021-09-01T09:37:29Z</time>
      </trkpt>
      <trkpt lat="39.587094" lon="3.334342">
        <ele>63.759</ele>
        <time>2021-09-01T09:37:30Z</time>
      </trkpt>
      <trkpt lat="39.587076" lon="3.334273">
        <ele>63.684</ele>
        <time>2021-09-01T09:37:31Z</time>
      </trkpt>
      <trkpt lat="39.587061" lon="3.334201">
        <ele>63.578</ele>
        <time>2021-09-01T09:37:32Z</time>
      </trkpt>
      <trkpt lat="39.587041" lon="3.334125">
        <ele>63.567</ele>
        <time>2021-09-01T09:37:33Z</time>
      </trkpt>
      <trkpt lat="39.587023" lon="3.334049">
        <ele>63.412</ele>
        <time>2021-09-01T09:37:34Z</time>
      </trkpt>
      <trkpt lat="39.587001" lon="3.333973">
        <ele>63.389</ele>
        <time>2021-09-01T09:37:35Z</time>
      </trkpt>
      <trkpt lat="39.586983" lon="3.333892">
        <ele>63.379</ele>
        <time>2021-09-01T09:37:36Z</time>
      </trkpt>
      <trkpt lat="39.586964" lon="3.333806">
        <ele>63.339</ele>
        <time>2021-09-01T09:37:37Z</time>
      </trkpt>
      <trkpt lat="39.586944" lon="3.333717">
        <ele>63.301</ele>
        <time>2021-09-01T09:37:38Z</time>
      </trkpt>
      <trkpt lat="39.586931" lon="3.333628">
        <ele>63.221</ele>
        <time>2021-09-01T09:37:39Z</time>
      </trkpt>
      <trkpt lat="39.586911" lon="3.333539">
        <ele>63.008</ele>
        <time>2021-09-01T09:37:40Z</time>
      </trkpt>
      <trkpt lat="39.586890" lon="3.333448">
        <ele>62.851</ele>
        <time>2021-09-01T09:37:41Z</time>
      </trkpt>
      <trkpt lat="39.586871" lon="3.333358">
        <ele>62.545</ele>
        <time>2021-09-01T09:37:42Z</time>
      </trkpt>
      <trkpt lat="39.586849" lon="3.333273">
        <ele>62.230</ele>
        <time>2021-09-01T09:37:43Z</time>
      </trkpt>
      <trkpt lat="39.586830" lon="3.333189">
        <ele>61.954</ele>
        <time>2021-09-01T09:37:44Z</time>
      </trkpt>
      <trkpt lat="39.586810" lon="3.333109">
        <ele>61.833</ele>
        <time>2021-09-01T09:37:45Z</time>
      </trkpt>
      <trkpt lat="39.586786" lon="3.333022">
        <ele>61.848</ele>
        <time>2021-09-01T09:37:46Z</time>
      </trkpt>
      <trkpt lat="39.586766" lon="3.332951">
        <ele>61.775</ele>
        <time>2021-09-01T09:37:47Z</time>
      </trkpt>
      <trkpt lat="39.586756" lon="3.332876">
        <ele>61.715</ele>
        <time>2021-09-01T09:37:48Z</time>
      </trkpt>
      <trkpt lat="39.586742" lon="3.332799">
        <ele>61.762</ele>
        <time>2021-09-01T09:37:49Z</time>
      </trkpt>
      <trkpt lat="39.586732" lon="3.332722">
        <ele>61.683</ele>
        <time>2021-09-01T09:37:50Z</time>
      </trkpt>
      <trkpt lat="39.586717" lon="3.332640">
        <ele>61.611</ele>
        <time>2021-09-01T09:37:51Z</time>
      </trkpt>
      <trkpt lat="39.586701" lon="3.332559">
        <ele>61.508</ele>
        <time>2021-09-01T09:37:52Z</time>
      </trkpt>
      <trkpt lat="39.586686" lon="3.332479">
        <ele>61.494</ele>
        <time>2021-09-01T09:37:53Z</time>
      </trkpt>
      <trkpt lat="39.586671" lon="3.332401">
        <ele>61.388</ele>
        <time>2021-09-01T09:37:54Z</time>
      </trkpt>
      <trkpt lat="39.586656" lon="3.332322">
        <ele>61.123</ele>
        <time>2021-09-01T09:37:55Z</time>
      </trkpt>
      <trkpt lat="39.586639" lon="3.332237">
        <ele>61.017</ele>
        <time>2021-09-01T09:37:56Z</time>
      </trkpt>
      <trkpt lat="39.586627" lon="3.332156">
        <ele>60.956</ele>
        <time>2021-09-01T09:37:57Z</time>
      </trkpt>
      <trkpt lat="39.586619" lon="3.332072">
        <ele>60.981</ele>
        <time>2021-09-01T09:37:58Z</time>
      </trkpt>
      <trkpt lat="39.586608" lon="3.331992">
        <ele>60.948</ele>
        <time>2021-09-01T09:37:59Z</time>
      </trkpt>
      <trkpt lat="39.586591" lon="3.331923">
        <ele>60.988</ele>
        <time>2021-09-01T09:38:00Z</time>
      </trkpt>
      <trkpt lat="39.586576" lon="3.331855">
        <ele>60.959</ele>
        <time>2021-09-01T09:38:01Z</time>
      </trkpt>
      <trkpt lat="39.586563" lon="3.331785">
        <ele>60.903</ele>
        <time>2021-09-01T09:38:02Z</time>
      </trkpt>
      <trkpt lat="39.586552" lon="3.331713">
        <ele>60.823</ele>
        <time>2021-09-01T09:38:03Z</time>
      </trkpt>
      <trkpt lat="39.586540" lon="3.331642">
        <ele>60.708</ele>
        <time>2021-09-01T09:38:04Z</time>
      </trkpt>
      <trkpt lat="39.586530" lon="3.331573">
        <ele>60.683</ele>
        <time>2021-09-01T09:38:05Z</time>
      </trkpt>
      <trkpt lat="39.586524" lon="3.331502">
        <ele>60.477</ele>
        <time>2021-09-01T09:38:06Z</time>
      </trkpt>
      <trkpt lat="39.586517" lon="3.331430">
        <ele>60.352</ele>
        <time>2021-09-01T09:38:07Z</time>
      </trkpt>
      <trkpt lat="39.586510" lon="3.331362">
        <ele>60.226</ele>
        <time>2021-09-01T09:38:08Z</time>
      </trkpt>
      <trkpt lat="39.586503" lon="3.331293">
        <ele>60.165</ele>
        <time>2021-09-01T09:38:09Z</time>
      </trkpt>
      <trkpt lat="39.586494" lon="3.331225">
        <ele>60.030</ele>
        <time>2021-09-01T09:38:10Z</time>
      </trkpt>
      <trkpt lat="39.586484" lon="3.331157">
        <ele>60.097</ele>
        <time>2021-09-01T09:38:11Z</time>
      </trkpt>
      <trkpt lat="39.586477" lon="3.331090">
        <ele>59.947</ele>
        <time>2021-09-01T09:38:12Z</time>
      </trkpt>
      <trkpt lat="39.586469" lon="3.331023">
        <ele>59.962</ele>
        <time>2021-09-01T09:38:13Z</time>
      </trkpt>
      <trkpt lat="39.586462" lon="3.330952">
        <ele>59.883</ele>
        <time>2021-09-01T09:38:14Z</time>
      </trkpt>
      <trkpt lat="39.586453" lon="3.330879">
        <ele>59.811</ele>
        <time>2021-09-01T09:38:15Z</time>
      </trkpt>
      <trkpt lat="39.586446" lon="3.330808">
        <ele>59.708</ele>
        <time>2021-09-01T09:38:16Z</time>
      </trkpt>
      <trkpt lat="39.586438" lon="3.330734">
        <ele>59.784</ele>
        <time>2021-09-01T09:38:17Z</time>
      </trkpt>
      <trkpt lat="39.586428" lon="3.330662">
        <ele>59.578</ele>
        <time>2021-09-01T09:38:18Z</time>
      </trkpt>
      <trkpt lat="39.586421" lon="3.330590">
        <ele>59.453</ele>
        <time>2021-09-01T09:38:19Z</time>
      </trkpt>
      <trkpt lat="39.586412" lon="3.330515">
        <ele>59.287</ele>
        <time>2021-09-01T09:38:20Z</time>
      </trkpt>
      <trkpt lat="39.586408" lon="3.330445">
        <ele>59.186</ele>
        <time>2021-09-01T09:38:21Z</time>
      </trkpt>
      <trkpt lat="39.586407" lon="3.330373">
        <ele>59.051</ele>
        <time>2021-09-01T09:38:22Z</time>
      </trkpt>
      <trkpt lat="39.586407" lon="3.330298">
        <ele>59.068</ele>
        <time>2021-09-01T09:38:23Z</time>
      </trkpt>
      <trkpt lat="39.586404" lon="3.330220">
        <ele>59.018</ele>
        <time>2021-09-01T09:38:24Z</time>
      </trkpt>
      <trkpt lat="39.586399" lon="3.330148">
        <ele>58.873</ele>
        <time>2021-09-01T09:38:25Z</time>
      </trkpt>
      <trkpt lat="39.586396" lon="3.330070">
        <ele>58.785</ele>
        <time>2021-09-01T09:38:26Z</time>
      </trkpt>
      <trkpt lat="39.586395" lon="3.329994">
        <ele>58.613</ele>
        <time>2021-09-01T09:38:27Z</time>
      </trkpt>
      <trkpt lat="39.586394" lon="3.329919">
        <ele>58.408</ele>
        <time>2021-09-01T09:38:28Z</time>
      </trkpt>
      <trkpt lat="39.586392" lon="3.329842">
        <ele>58.355</ele>
        <time>2021-09-01T09:38:29Z</time>
      </trkpt>
      <trkpt lat="39.586393" lon="3.329768">
        <ele>58.299</ele>
        <time>2021-09-01T09:38:30Z</time>
      </trkpt>
      <trkpt lat="39.586395" lon="3.329693">
        <ele>58.274</ele>
        <time>2021-09-01T09:38:31Z</time>
      </trkpt>
      <trkpt lat="39.586396" lon="3.329617">
        <ele>58.078</ele>
        <time>2021-09-01T09:38:32Z</time>
      </trkpt>
      <trkpt lat="39.586397" lon="3.329539">
        <ele>57.927</ele>
        <time>2021-09-01T09:38:33Z</time>
      </trkpt>
      <trkpt lat="39.586401" lon="3.329465">
        <ele>57.832</ele>
        <time>2021-09-01T09:38:34Z</time>
      </trkpt>
      <trkpt lat="39.586405" lon="3.329389">
        <ele>57.659</ele>
        <time>2021-09-01T09:38:35Z</time>
      </trkpt>
      <trkpt lat="39.586405" lon="3.329315">
        <ele>57.479</ele>
        <time>2021-09-01T09:38:36Z</time>
      </trkpt>
      <trkpt lat="39.586407" lon="3.329242">
        <ele>57.476</ele>
        <time>2021-09-01T09:38:37Z</time>
      </trkpt>
      <trkpt lat="39.586409" lon="3.329167">
        <ele>57.390</ele>
        <time>2021-09-01T09:38:38Z</time>
      </trkpt>
      <trkpt lat="39.586410" lon="3.329095">
        <ele>57.319</ele>
        <time>2021-09-01T09:38:39Z</time>
      </trkpt>
      <trkpt lat="39.586413" lon="3.329018">
        <ele>57.308</ele>
        <time>2021-09-01T09:38:40Z</time>
      </trkpt>
      <trkpt lat="39.586421" lon="3.328937">
        <ele>57.345</ele>
        <time>2021-09-01T09:38:41Z</time>
      </trkpt>
      <trkpt lat="39.586424" lon="3.328855">
        <ele>57.339</ele>
        <time>2021-09-01T09:38:42Z</time>
      </trkpt>
      <trkpt lat="39.586428" lon="3.328775">
        <ele>57.324</ele>
        <time>2021-09-01T09:38:43Z</time>
      </trkpt>
      <trkpt lat="39.586434" lon="3.328692">
        <ele>57.288</ele>
        <time>2021-09-01T09:38:44Z</time>
      </trkpt>
      <trkpt lat="39.586437" lon="3.328607">
        <ele>57.157</ele>
        <time>2021-09-01T09:38:45Z</time>
      </trkpt>
      <trkpt lat="39.586442" lon="3.328523">
        <ele>56.942</ele>
        <time>2021-09-01T09:38:46Z</time>
      </trkpt>
      <trkpt lat="39.586446" lon="3.328438">
        <ele>56.899</ele>
        <time>2021-09-01T09:38:47Z</time>
      </trkpt>
      <trkpt lat="39.586449" lon="3.328357">
        <ele>56.789</ele>
        <time>2021-09-01T09:38:48Z</time>
      </trkpt>
      <trkpt lat="39.586456" lon="3.328277">
        <ele>56.724</ele>
        <time>2021-09-01T09:38:49Z</time>
      </trkpt>
      <trkpt lat="39.586466" lon="3.328198">
        <ele>56.604</ele>
        <time>2021-09-01T09:38:50Z</time>
      </trkpt>
      <trkpt lat="39.586475" lon="3.328119">
        <ele>56.514</ele>
        <time>2021-09-01T09:38:51Z</time>
      </trkpt>
      <trkpt lat="39.586484" lon="3.328042">
        <ele>56.508</ele>
        <time>2021-09-01T09:38:52Z</time>
      </trkpt>
      <trkpt lat="39.586493" lon="3.327965">
        <ele>56.420</ele>
        <time>2021-09-01T09:38:53Z</time>
      </trkpt>
      <trkpt lat="39.586499" lon="3.327889">
        <ele>56.334</ele>
        <time>2021-09-01T09:38:54Z</time>
      </trkpt>
      <trkpt lat="39.586509" lon="3.327816">
        <ele>56.199</ele>
        <time>2021-09-01T09:38:55Z</time>
      </trkpt>
      <trkpt lat="39.586524" lon="3.327745">
        <ele>56.143</ele>
        <time>2021-09-01T09:38:56Z</time>
      </trkpt>
      <trkpt lat="39.586538" lon="3.327671">
        <ele>56.062</ele>
        <time>2021-09-01T09:38:57Z</time>
      </trkpt>
      <trkpt lat="39.586551" lon="3.327600">
        <ele>55.857</ele>
        <time>2021-09-01T09:38:58Z</time>
      </trkpt>
      <trkpt lat="39.586564" lon="3.327525">
        <ele>55.754</ele>
        <time>2021-09-01T09:38:59Z</time>
      </trkpt>
      <trkpt lat="39.586579" lon="3.327452">
        <ele>55.614</ele>
        <time>2021-09-01T09:39:00Z</time>
      </trkpt>
      <trkpt lat="39.586590" lon="3.327378">
        <ele>55.421</ele>
        <time>2021-09-01T09:39:01Z</time>
      </trkpt>
      <trkpt lat="39.586597" lon="3.327308">
        <ele>55.341</ele>
        <time>2021-09-01T09:39:02Z</time>
      </trkpt>
      <trkpt lat="39.586605" lon="3.327240">
        <ele>55.305</ele>
        <time>2021-09-01T09:39:03Z</time>
      </trkpt>
      <trkpt lat="39.586610" lon="3.327167">
        <ele>55.308</ele>
        <time>2021-09-01T09:39:04Z</time>
      </trkpt>
      <trkpt lat="39.586620" lon="3.327095">
        <ele>55.320</ele>
        <time>2021-09-01T09:39:05Z</time>
      </trkpt>
      <trkpt lat="39.586633" lon="3.327025">
        <ele>55.254</ele>
        <time>2021-09-01T09:39:06Z</time>
      </trkpt>
      <trkpt lat="39.586645" lon="3.326950">
        <ele>55.299</ele>
        <time>2021-09-01T09:39:07Z</time>
      </trkpt>
      <trkpt lat="39.586659" lon="3.326873">
        <ele>55.073</ele>
        <time>2021-09-01T09:39:08Z</time>
      </trkpt>
      <trkpt lat="39.586677" lon="3.326799">
        <ele>55.032</ele>
        <time>2021-09-01T09:39:09Z</time>
      </trkpt>
      <trkpt lat="39.586694" lon="3.326723">
        <ele>54.957</ele>
        <time>2021-09-01T09:39:10Z</time>
      </trkpt>
      <trkpt lat="39.586707" lon="3.326649">
        <ele>54.884</ele>
        <time>2021-09-01T09:39:11Z</time>
      </trkpt>
      <trkpt lat="39.586717" lon="3.326580">
        <ele>54.874</ele>
        <time>2021-09-01T09:39:12Z</time>
      </trkpt>
      <trkpt lat="39.586731" lon="3.326511">
        <ele>54.894</ele>
        <time>2021-09-01T09:39:13Z</time>
      </trkpt>
      <trkpt lat="39.586746" lon="3.326445">
        <ele>54.657</ele>
        <time>2021-09-01T09:39:14Z</time>
      </trkpt>
      <trkpt lat="39.586759" lon="3.326380">
        <ele>54.522</ele>
        <time>2021-09-01T09:39:15Z</time>
      </trkpt>
      <trkpt lat="39.586774" lon="3.326314">
        <ele>54.408</ele>
        <time>2021-09-01T09:39:16Z</time>
      </trkpt>
      <trkpt lat="39.586789" lon="3.326250">
        <ele>54.347</ele>
        <time>2021-09-01T09:39:17Z</time>
      </trkpt>
      <trkpt lat="39.586803" lon="3.326182">
        <ele>54.331</ele>
        <time>2021-09-01T09:39:18Z</time>
      </trkpt>
      <trkpt lat="39.586820" lon="3.326116">
        <ele>54.226</ele>
        <time>2021-09-01T09:39:19Z</time>
      </trkpt>
      <trkpt lat="39.586836" lon="3.326048">
        <ele>54.290</ele>
        <time>2021-09-01T09:39:20Z</time>
      </trkpt>
      <trkpt lat="39.586855" lon="3.325982">
        <ele>54.129</ele>
        <time>2021-09-01T09:39:21Z</time>
      </trkpt>
      <trkpt lat="39.586875" lon="3.325912">
        <ele>54.034</ele>
        <time>2021-09-01T09:39:22Z</time>
      </trkpt>
      <trkpt lat="39.586892" lon="3.325841">
        <ele>53.951</ele>
        <time>2021-09-01T09:39:23Z</time>
      </trkpt>
      <trkpt lat="39.586911" lon="3.325769">
        <ele>53.951</ele>
        <time>2021-09-01T09:39:24Z</time>
      </trkpt>
      <trkpt lat="39.586932" lon="3.325698">
        <ele>53.877</ele>
        <time>2021-09-01T09:39:25Z</time>
      </trkpt>
      <trkpt lat="39.586958" lon="3.325629">
        <ele>53.861</ele>
        <time>2021-09-01T09:39:26Z</time>
      </trkpt>
      <trkpt lat="39.586982" lon="3.325555">
        <ele>53.727</ele>
        <time>2021-09-01T09:39:27Z</time>
      </trkpt>
      <trkpt lat="39.586999" lon="3.325483">
        <ele>53.708</ele>
        <time>2021-09-01T09:39:28Z</time>
      </trkpt>
      <trkpt lat="39.587025" lon="3.325415">
        <ele>53.625</ele>
        <time>2021-09-01T09:39:29Z</time>
      </trkpt>
      <trkpt lat="39.587046" lon="3.325345">
        <ele>53.549</ele>
        <time>2021-09-01T09:39:30Z</time>
      </trkpt>
      <trkpt lat="39.587065" lon="3.325275">
        <ele>53.514</ele>
        <time>2021-09-01T09:39:31Z</time>
      </trkpt>
      <trkpt lat="39.587088" lon="3.325209">
        <ele>53.598</ele>
        <time>2021-09-01T09:39:32Z</time>
      </trkpt>
      <trkpt lat="39.587113" lon="3.325140">
        <ele>53.597</ele>
        <time>2021-09-01T09:39:33Z</time>
      </trkpt>
      <trkpt lat="39.587135" lon="3.325070">
        <ele>53.522</ele>
        <time>2021-09-01T09:39:34Z</time>
      </trkpt>
      <trkpt lat="39.587159" lon="3.325003">
        <ele>53.689</ele>
        <time>2021-09-01T09:39:35Z</time>
      </trkpt>
      <trkpt lat="39.587181" lon="3.324933">
        <ele>53.729</ele>
        <time>2021-09-01T09:39:36Z</time>
      </trkpt>
      <trkpt lat="39.587202" lon="3.324872">
        <ele>53.727</ele>
        <time>2021-09-01T09:39:37Z</time>
      </trkpt>
      <trkpt lat="39.587225" lon="3.324814">
        <ele>53.768</ele>
        <time>2021-09-01T09:39:38Z</time>
      </trkpt>
      <trkpt lat="39.587244" lon="3.324758">
        <ele>53.814</ele>
        <time>2021-09-01T09:39:39Z</time>
      </trkpt>
      <trkpt lat="39.587261" lon="3.324700">
        <ele>53.808</ele>
        <time>2021-09-01T09:39:40Z</time>
      </trkpt>
      <trkpt lat="39.587280" lon="3.324645">
        <ele>53.760</ele>
        <time>2021-09-01T09:39:41Z</time>
      </trkpt>
      <trkpt lat="39.587318" lon="3.324539">
        <ele>53.714</ele>
        <time>2021-09-01T09:39:43Z</time>
      </trkpt>
      <trkpt lat="39.587340" lon="3.324482">
        <ele>53.689</ele>
        <time>2021-09-01T09:39:44Z</time>
      </trkpt>
      <trkpt lat="39.587362" lon="3.324420">
        <ele>53.623</ele>
        <time>2021-09-01T09:39:45Z</time>
      </trkpt>
      <trkpt lat="39.587380" lon="3.324362">
        <ele>53.692</ele>
        <time>2021-09-01T09:39:46Z</time>
      </trkpt>
      <trkpt lat="39.587399" lon="3.324305">
        <ele>53.687</ele>
        <time>2021-09-01T09:39:47Z</time>
      </trkpt>
      <trkpt lat="39.587422" lon="3.324248">
        <ele>53.594</ele>
        <time>2021-09-01T09:39:48Z</time>
      </trkpt>
      <trkpt lat="39.587445" lon="3.324192">
        <ele>53.554</ele>
        <time>2021-09-01T09:39:49Z</time>
      </trkpt>
      <trkpt lat="39.587468" lon="3.324131">
        <ele>53.512</ele>
        <time>2021-09-01T09:39:50Z</time>
      </trkpt>
      <trkpt lat="39.587491" lon="3.324075">
        <ele>53.432</ele>
        <time>2021-09-01T09:39:51Z</time>
      </trkpt>
      <trkpt lat="39.587515" lon="3.324016">
        <ele>53.405</ele>
        <time>2021-09-01T09:39:52Z</time>
      </trkpt>
      <trkpt lat="39.587543" lon="3.323957">
        <ele>53.408</ele>
        <time>2021-09-01T09:39:53Z</time>
      </trkpt>
      <trkpt lat="39.587571" lon="3.323899">
        <ele>53.489</ele>
        <time>2021-09-01T09:39:54Z</time>
      </trkpt>
      <trkpt lat="39.587598" lon="3.323839">
        <ele>53.383</ele>
        <time>2021-09-01T09:39:55Z</time>
      </trkpt>
      <trkpt lat="39.587621" lon="3.323782">
        <ele>53.258</ele>
        <time>2021-09-01T09:39:56Z</time>
      </trkpt>
      <trkpt lat="39.587647" lon="3.323723">
        <ele>53.172</ele>
        <time>2021-09-01T09:39:57Z</time>
      </trkpt>
      <trkpt lat="39.587676" lon="3.323666">
        <ele>53.031</ele>
        <time>2021-09-01T09:39:58Z</time>
      </trkpt>
      <trkpt lat="39.587704" lon="3.323606">
        <ele>53.036</ele>
        <time>2021-09-01T09:39:59Z</time>
      </trkpt>
      <trkpt lat="39.587728" lon="3.323546">
        <ele>53.133</ele>
        <time>2021-09-01T09:40:00Z</time>
      </trkpt>
      <trkpt lat="39.587755" lon="3.323488">
        <ele>53.293</ele>
        <time>2021-09-01T09:40:01Z</time>
      </trkpt>
      <trkpt lat="39.587783" lon="3.323430">
        <ele>53.397</ele>
        <time>2021-09-01T09:40:02Z</time>
      </trkpt>
      <trkpt lat="39.587808" lon="3.323369">
        <ele>53.423</ele>
        <time>2021-09-01T09:40:03Z</time>
      </trkpt>
      <trkpt lat="39.587835" lon="3.323314">
        <ele>53.425</ele>
        <time>2021-09-01T09:40:04Z</time>
      </trkpt>
      <trkpt lat="39.587865" lon="3.323259">
        <ele>53.508</ele>
        <time>2021-09-01T09:40:05Z</time>
      </trkpt>
      <trkpt lat="39.587893" lon="3.323204">
        <ele>53.647</ele>
        <time>2021-09-01T09:40:06Z</time>
      </trkpt>
      <trkpt lat="39.587921" lon="3.323149">
        <ele>53.671</ele>
        <time>2021-09-01T09:40:07Z</time>
      </trkpt>
      <trkpt lat="39.587949" lon="3.323100">
        <ele>53.876</ele>
        <time>2021-09-01T09:40:08Z</time>
      </trkpt>
      <trkpt lat="39.587976" lon="3.323050">
        <ele>53.870</ele>
        <time>2021-09-01T09:40:09Z</time>
      </trkpt>
      <trkpt lat="39.588001" lon="3.323001">
        <ele>53.829</ele>
        <time>2021-09-01T09:40:10Z</time>
      </trkpt>
      <trkpt lat="39.588029" lon="3.322954">
        <ele>53.884</ele>
        <time>2021-09-01T09:40:11Z</time>
      </trkpt>
      <trkpt lat="39.588060" lon="3.322910">
        <ele>53.831</ele>
        <time>2021-09-01T09:40:12Z</time>
      </trkpt>
      <trkpt lat="39.588091" lon="3.322863">
        <ele>53.881</ele>
        <time>2021-09-01T09:40:13Z</time>
      </trkpt>
      <trkpt lat="39.588116" lon="3.322812">
        <ele>53.888</ele>
        <time>2021-09-01T09:40:14Z</time>
      </trkpt>
      <trkpt lat="39.588159" lon="3.322719">
        <ele>54.024</ele>
        <time>2021-09-01T09:40:16Z</time>
      </trkpt>
      <trkpt lat="39.588211" lon="3.322635">
        <ele>54.226</ele>
        <time>2021-09-01T09:40:18Z</time>
      </trkpt>
      <trkpt lat="39.588263" lon="3.322550">
        <ele>54.408</ele>
        <time>2021-09-01T09:40:20Z</time>
      </trkpt>
      <trkpt lat="39.588314" lon="3.322463">
        <ele>54.536</ele>
        <time>2021-09-01T09:40:22Z</time>
      </trkpt>
      <trkpt lat="39.588370" lon="3.322377">
        <ele>54.410</ele>
        <time>2021-09-01T09:40:24Z</time>
      </trkpt>
      <trkpt lat="39.588424" lon="3.322292">
        <ele>54.425</ele>
        <time>2021-09-01T09:40:26Z</time>
      </trkpt>
      <trkpt lat="39.588475" lon="3.322213">
        <ele>54.589</ele>
        <time>2021-09-01T09:40:28Z</time>
      </trkpt>
      <trkpt lat="39.588527" lon="3.322122">
        <ele>54.618</ele>
        <time>2021-09-01T09:40:30Z</time>
      </trkpt>
      <trkpt lat="39.588579" lon="3.322034">
        <ele>54.853</ele>
        <time>2021-09-01T09:40:32Z</time>
      </trkpt>
      <trkpt lat="39.588629" lon="3.321938">
        <ele>54.970</ele>
        <time>2021-09-01T09:40:34Z</time>
      </trkpt>
      <trkpt lat="39.588684" lon="3.321849">
        <ele>54.950</ele>
        <time>2021-09-01T09:40:36Z</time>
      </trkpt>
      <trkpt lat="39.588741" lon="3.321761">
        <ele>54.828</ele>
        <time>2021-09-01T09:40:38Z</time>
      </trkpt>
      <trkpt lat="39.588796" lon="3.321664">
        <ele>54.989</ele>
        <time>2021-09-01T09:40:40Z</time>
      </trkpt>
      <trkpt lat="39.588824" lon="3.321618">
        <ele>55.017</ele>
        <time>2021-09-01T09:40:41Z</time>
      </trkpt>
      <trkpt lat="39.588852" lon="3.321570">
        <ele>55.008</ele>
        <time>2021-09-01T09:40:42Z</time>
      </trkpt>
      <trkpt lat="39.588880" lon="3.321524">
        <ele>55.150</ele>
        <time>2021-09-01T09:40:43Z</time>
      </trkpt>
      <trkpt lat="39.588908" lon="3.321477">
        <ele>55.344</ele>
        <time>2021-09-01T09:40:44Z</time>
      </trkpt>
      <trkpt lat="39.588939" lon="3.321430">
        <ele>55.449</ele>
        <time>2021-09-01T09:40:45Z</time>
      </trkpt>
      <trkpt lat="39.588968" lon="3.321380">
        <ele>55.533</ele>
        <time>2021-09-01T09:40:46Z</time>
      </trkpt>
      <trkpt lat="39.588996" lon="3.321331">
        <ele>55.572</ele>
        <time>2021-09-01T09:40:47Z</time>
      </trkpt>
      <trkpt lat="39.589026" lon="3.321283">
        <ele>55.627</ele>
        <time>2021-09-01T09:40:48Z</time>
      </trkpt>
      <trkpt lat="39.589055" lon="3.321233">
        <ele>55.764</ele>
        <time>2021-09-01T09:40:49Z</time>
      </trkpt>
      <trkpt lat="39.589085" lon="3.321186">
        <ele>56.054</ele>
        <time>2021-09-01T09:40:50Z</time>
      </trkpt>
      <trkpt lat="39.589116" lon="3.321137">
        <ele>56.117</ele>
        <time>2021-09-01T09:40:51Z</time>
      </trkpt>
      <trkpt lat="39.589145" lon="3.321088">
        <ele>56.287</ele>
        <time>2021-09-01T09:40:52Z</time>
      </trkpt>
      <trkpt lat="39.589171" lon="3.321041">
        <ele>56.215</ele>
        <time>2021-09-01T09:40:53Z</time>
      </trkpt>
      <trkpt lat="39.589200" lon="3.320995">
        <ele>56.208</ele>
        <time>2021-09-01T09:40:54Z</time>
      </trkpt>
      <trkpt lat="39.589253" lon="3.320902">
        <ele>56.229</ele>
        <time>2021-09-01T09:40:56Z</time>
      </trkpt>
      <trkpt lat="39.589307" lon="3.320808">
        <ele>56.423</ele>
        <time>2021-09-01T09:40:58Z</time>
      </trkpt>
      <trkpt lat="39.589333" lon="3.320760">
        <ele>56.528</ele>
        <time>2021-09-01T09:40:59Z</time>
      </trkpt>
      <trkpt lat="39.589360" lon="3.320712">
        <ele>56.642</ele>
        <time>2021-09-01T09:41:00Z</time>
      </trkpt>
      <trkpt lat="39.589389" lon="3.320665">
        <ele>56.681</ele>
        <time>2021-09-01T09:41:01Z</time>
      </trkpt>
      <trkpt lat="39.589417" lon="3.320618">
        <ele>56.656</ele>
        <time>2021-09-01T09:41:02Z</time>
      </trkpt>
      <trkpt lat="39.589447" lon="3.320570">
        <ele>56.523</ele>
        <time>2021-09-01T09:41:03Z</time>
      </trkpt>
      <trkpt lat="39.589476" lon="3.320524">
        <ele>56.343</ele>
        <time>2021-09-01T09:41:04Z</time>
      </trkpt>
      <trkpt lat="39.589534" lon="3.320435">
        <ele>56.217</ele>
        <time>2021-09-01T09:41:06Z</time>
      </trkpt>
      <trkpt lat="39.589573" lon="3.320370">
        <ele>56.187</ele>
        <time>2021-09-01T09:41:08Z</time>
      </trkpt>
      <trkpt lat="39.589606" lon="3.320310">
        <ele>56.315</ele>
        <time>2021-09-01T09:41:10Z</time>
      </trkpt>
      <trkpt lat="39.589643" lon="3.320253">
        <ele>56.708</ele>
        <time>2021-09-01T09:41:12Z</time>
      </trkpt>
      <trkpt lat="39.589680" lon="3.320216">
        <ele>57.119</ele>
        <time>2021-09-01T09:41:15Z</time>
      </trkpt>
      <trkpt lat="39.589723" lon="3.320146">
        <ele>57.093</ele>
        <time>2021-09-01T09:41:17Z</time>
      </trkpt>
      <trkpt lat="39.589770" lon="3.320063">
        <ele>56.828</ele>
        <time>2021-09-01T09:41:19Z</time>
      </trkpt>
      <trkpt lat="39.589797" lon="3.320014">
        <ele>56.622</ele>
        <time>2021-09-01T09:41:20Z</time>
      </trkpt>
      <trkpt lat="39.589824" lon="3.319967">
        <ele>56.491</ele>
        <time>2021-09-01T09:41:21Z</time>
      </trkpt>
      <trkpt lat="39.589853" lon="3.319920">
        <ele>56.376</ele>
        <time>2021-09-01T09:41:22Z</time>
      </trkpt>
      <trkpt lat="39.589885" lon="3.319870">
        <ele>56.333</ele>
        <time>2021-09-01T09:41:23Z</time>
      </trkpt>
      <trkpt lat="39.589914" lon="3.319824">
        <ele>56.323</ele>
        <time>2021-09-01T09:41:24Z</time>
      </trkpt>
      <trkpt lat="39.589943" lon="3.319777">
        <ele>56.438</ele>
        <time>2021-09-01T09:41:25Z</time>
      </trkpt>
      <trkpt lat="39.589972" lon="3.319728">
        <ele>56.470</ele>
        <time>2021-09-01T09:41:26Z</time>
      </trkpt>
      <trkpt lat="39.590002" lon="3.319683">
        <ele>56.417</ele>
        <time>2021-09-01T09:41:27Z</time>
      </trkpt>
      <trkpt lat="39.590033" lon="3.319636">
        <ele>56.408</ele>
        <time>2021-09-01T09:41:28Z</time>
      </trkpt>
      <trkpt lat="39.590087" lon="3.319545">
        <ele>56.321</ele>
        <time>2021-09-01T09:41:30Z</time>
      </trkpt>
      <trkpt lat="39.590114" lon="3.319497">
        <ele>56.275</ele>
        <time>2021-09-01T09:41:31Z</time>
      </trkpt>
      <trkpt lat="39.590144" lon="3.319450">
        <ele>56.210</ele>
        <time>2021-09-01T09:41:32Z</time>
      </trkpt>
      <trkpt lat="39.590173" lon="3.319404">
        <ele>56.194</ele>
        <time>2021-09-01T09:41:33Z</time>
      </trkpt>
      <trkpt lat="39.590202" lon="3.319357">
        <ele>56.143</ele>
        <time>2021-09-01T09:41:34Z</time>
      </trkpt>
      <trkpt lat="39.590233" lon="3.319308">
        <ele>56.188</ele>
        <time>2021-09-01T09:41:35Z</time>
      </trkpt>
      <trkpt lat="39.590261" lon="3.319261">
        <ele>56.285</ele>
        <time>2021-09-01T09:41:36Z</time>
      </trkpt>
      <trkpt lat="39.590291" lon="3.319214">
        <ele>56.285</ele>
        <time>2021-09-01T09:41:37Z</time>
      </trkpt>
      <trkpt lat="39.590323" lon="3.319167">
        <ele>56.281</ele>
        <time>2021-09-01T09:41:38Z</time>
      </trkpt>
      <trkpt lat="39.590355" lon="3.319119">
        <ele>56.361</ele>
        <time>2021-09-01T09:41:39Z</time>
      </trkpt>
      <trkpt lat="39.590382" lon="3.319065">
        <ele>56.417</ele>
        <time>2021-09-01T09:41:40Z</time>
      </trkpt>
      <trkpt lat="39.590406" lon="3.319010">
        <ele>56.508</ele>
        <time>2021-09-01T09:41:41Z</time>
      </trkpt>
      <trkpt lat="39.590439" lon="3.318967">
        <ele>56.576</ele>
        <time>2021-09-01T09:41:42Z</time>
      </trkpt>
      <trkpt lat="39.590472" lon="3.318914">
        <ele>56.580</ele>
        <time>2021-09-01T09:41:43Z</time>
      </trkpt>
      <trkpt lat="39.590497" lon="3.318860">
        <ele>56.455</ele>
        <time>2021-09-01T09:41:44Z</time>
      </trkpt>
      <trkpt lat="39.590525" lon="3.318804">
        <ele>56.319</ele>
        <time>2021-09-01T09:41:45Z</time>
      </trkpt>
      <trkpt lat="39.590553" lon="3.318753">
        <ele>56.268</ele>
        <time>2021-09-01T09:41:46Z</time>
      </trkpt>
      <trkpt lat="39.590585" lon="3.318707">
        <ele>56.233</ele>
        <time>2021-09-01T09:41:47Z</time>
      </trkpt>
      <trkpt lat="39.590617" lon="3.318650">
        <ele>56.280</ele>
        <time>2021-09-01T09:41:48Z</time>
      </trkpt>
      <trkpt lat="39.590642" lon="3.318595">
        <ele>56.270</ele>
        <time>2021-09-01T09:41:49Z</time>
      </trkpt>
      <trkpt lat="39.590672" lon="3.318542">
        <ele>56.334</ele>
        <time>2021-09-01T09:41:50Z</time>
      </trkpt>
      <trkpt lat="39.590700" lon="3.318488">
        <ele>56.455</ele>
        <time>2021-09-01T09:41:51Z</time>
      </trkpt>
      <trkpt lat="39.590729" lon="3.318432">
        <ele>56.510</ele>
        <time>2021-09-01T09:41:52Z</time>
      </trkpt>
      <trkpt lat="39.590751" lon="3.318378">
        <ele>56.708</ele>
        <time>2021-09-01T09:41:53Z</time>
      </trkpt>
      <trkpt lat="39.590783" lon="3.318323">
        <ele>56.821</ele>
        <time>2021-09-01T09:41:54Z</time>
      </trkpt>
      <trkpt lat="39.590812" lon="3.318269">
        <ele>56.895</ele>
        <time>2021-09-01T09:41:55Z</time>
      </trkpt>
      <trkpt lat="39.590842" lon="3.318211">
        <ele>56.890</ele>
        <time>2021-09-01T09:41:56Z</time>
      </trkpt>
      <trkpt lat="39.590870" lon="3.318160">
        <ele>56.814</ele>
        <time>2021-09-01T09:41:57Z</time>
      </trkpt>
      <trkpt lat="39.590902" lon="3.318107">
        <ele>56.853</ele>
        <time>2021-09-01T09:41:58Z</time>
      </trkpt>
      <trkpt lat="39.590932" lon="3.318059">
        <ele>56.848</ele>
        <time>2021-09-01T09:41:59Z</time>
      </trkpt>
      <trkpt lat="39.590967" lon="3.318009">
        <ele>56.735</ele>
        <time>2021-09-01T09:42:00Z</time>
      </trkpt>
      <trkpt lat="39.591026" lon="3.317915">
        <ele>56.665</ele>
        <time>2021-09-01T09:42:02Z</time>
      </trkpt>
      <trkpt lat="39.591059" lon="3.317864">
        <ele>56.636</ele>
        <time>2021-09-01T09:42:03Z</time>
      </trkpt>
      <trkpt lat="39.591090" lon="3.317811">
        <ele>56.517</ele>
        <time>2021-09-01T09:42:04Z</time>
      </trkpt>
      <trkpt lat="39.591125" lon="3.317764">
        <ele>56.518</ele>
        <time>2021-09-01T09:42:05Z</time>
      </trkpt>
      <trkpt lat="39.591158" lon="3.317717">
        <ele>56.608</ele>
        <time>2021-09-01T09:42:06Z</time>
      </trkpt>
      <trkpt lat="39.591189" lon="3.317667">
        <ele>56.621</ele>
        <time>2021-09-01T09:42:07Z</time>
      </trkpt>
      <trkpt lat="39.591221" lon="3.317619">
        <ele>56.615</ele>
        <time>2021-09-01T09:42:08Z</time>
      </trkpt>
      <trkpt lat="39.591253" lon="3.317566">
        <ele>56.670</ele>
        <time>2021-09-01T09:42:09Z</time>
      </trkpt>
      <trkpt lat="39.591288" lon="3.317514">
        <ele>56.614</ele>
        <time>2021-09-01T09:42:10Z</time>
      </trkpt>
      <trkpt lat="39.591320" lon="3.317466">
        <ele>56.613</ele>
        <time>2021-09-01T09:42:11Z</time>
      </trkpt>
      <trkpt lat="39.591347" lon="3.317409">
        <ele>56.618</ele>
        <time>2021-09-01T09:42:12Z</time>
      </trkpt>
      <trkpt lat="39.591383" lon="3.317360">
        <ele>56.735</ele>
        <time>2021-09-01T09:42:13Z</time>
      </trkpt>
      <trkpt lat="39.591413" lon="3.317307">
        <ele>56.735</ele>
        <time>2021-09-01T09:42:14Z</time>
      </trkpt>
      <trkpt lat="39.591445" lon="3.317254">
        <ele>56.722</ele>
        <time>2021-09-01T09:42:15Z</time>
      </trkpt>
      <trkpt lat="39.591473" lon="3.317204">
        <ele>56.762</ele>
        <time>2021-09-01T09:42:16Z</time>
      </trkpt>
      <trkpt lat="39.591503" lon="3.317157">
        <ele>56.708</ele>
        <time>2021-09-01T09:42:17Z</time>
      </trkpt>
      <trkpt lat="39.591559" lon="3.317068">
        <ele>56.908</ele>
        <time>2021-09-01T09:42:19Z</time>
      </trkpt>
      <trkpt lat="39.591609" lon="3.316987">
        <ele>57.080</ele>
        <time>2021-09-01T09:42:21Z</time>
      </trkpt>
      <trkpt lat="39.591644" lon="3.316911">
        <ele>57.184</ele>
        <time>2021-09-01T09:42:23Z</time>
      </trkpt>
      <trkpt lat="39.591692" lon="3.316848">
        <ele>57.279</ele>
        <time>2021-09-01T09:42:25Z</time>
      </trkpt>
      <trkpt lat="39.591753" lon="3.316767">
        <ele>57.363</ele>
        <time>2021-09-01T09:42:27Z</time>
      </trkpt>
      <trkpt lat="39.591782" lon="3.316722">
        <ele>57.262</ele>
        <time>2021-09-01T09:42:28Z</time>
      </trkpt>
      <trkpt lat="39.591810" lon="3.316673">
        <ele>57.297</ele>
        <time>2021-09-01T09:42:29Z</time>
      </trkpt>
      <trkpt lat="39.591841" lon="3.316625">
        <ele>57.214</ele>
        <time>2021-09-01T09:42:30Z</time>
      </trkpt>
      <trkpt lat="39.591871" lon="3.316576">
        <ele>57.214</ele>
        <time>2021-09-01T09:42:31Z</time>
      </trkpt>
      <trkpt lat="39.591898" lon="3.316521">
        <ele>57.275</ele>
        <time>2021-09-01T09:42:32Z</time>
      </trkpt>
      <trkpt lat="39.591928" lon="3.316467">
        <ele>57.228</ele>
        <time>2021-09-01T09:42:33Z</time>
      </trkpt>
      <trkpt lat="39.591955" lon="3.316417">
        <ele>57.320</ele>
        <time>2021-09-01T09:42:34Z</time>
      </trkpt>
      <trkpt lat="39.591985" lon="3.316368">
        <ele>57.308</ele>
        <time>2021-09-01T09:42:35Z</time>
      </trkpt>
      <trkpt lat="39.592014" lon="3.316316">
        <ele>57.265</ele>
        <time>2021-09-01T09:42:36Z</time>
      </trkpt>
      <trkpt lat="39.592044" lon="3.316268">
        <ele>57.259</ele>
        <time>2021-09-01T09:42:37Z</time>
      </trkpt>
      <trkpt lat="39.592073" lon="3.316221">
        <ele>57.254</ele>
        <time>2021-09-01T09:42:38Z</time>
      </trkpt>
      <trkpt lat="39.592099" lon="3.316171">
        <ele>57.268</ele>
        <time>2021-09-01T09:42:39Z</time>
      </trkpt>
      <trkpt lat="39.592155" lon="3.316079">
        <ele>57.347</ele>
        <time>2021-09-01T09:42:41Z</time>
      </trkpt>
      <trkpt lat="39.592185" lon="3.316033">
        <ele>57.472</ele>
        <time>2021-09-01T09:42:42Z</time>
      </trkpt>
      <trkpt lat="39.592212" lon="3.315983">
        <ele>57.489</ele>
        <time>2021-09-01T09:42:43Z</time>
      </trkpt>
      <trkpt lat="39.592240" lon="3.315935">
        <ele>57.439</ele>
        <time>2021-09-01T09:42:44Z</time>
      </trkpt>
      <trkpt lat="39.592267" lon="3.315886">
        <ele>57.446</ele>
        <time>2021-09-01T09:42:45Z</time>
      </trkpt>
      <trkpt lat="39.592299" lon="3.315835">
        <ele>57.488</ele>
        <time>2021-09-01T09:42:46Z</time>
      </trkpt>
      <trkpt lat="39.592327" lon="3.315785">
        <ele>57.416</ele>
        <time>2021-09-01T09:42:47Z</time>
      </trkpt>
      <trkpt lat="39.592354" lon="3.315731">
        <ele>57.408</ele>
        <time>2021-09-01T09:42:48Z</time>
      </trkpt>
      <trkpt lat="39.592386" lon="3.315682">
        <ele>57.452</ele>
        <time>2021-09-01T09:42:49Z</time>
      </trkpt>
      <trkpt lat="39.592415" lon="3.315632">
        <ele>57.436</ele>
        <time>2021-09-01T09:42:50Z</time>
      </trkpt>
      <trkpt lat="39.592445" lon="3.315583">
        <ele>57.411</ele>
        <time>2021-09-01T09:42:51Z</time>
      </trkpt>
      <trkpt lat="39.592475" lon="3.315534">
        <ele>57.435</ele>
        <time>2021-09-01T09:42:52Z</time>
      </trkpt>
      <trkpt lat="39.592503" lon="3.315480">
        <ele>57.534</ele>
        <time>2021-09-01T09:42:53Z</time>
      </trkpt>
      <trkpt lat="39.592531" lon="3.315427">
        <ele>57.559</ele>
        <time>2021-09-01T09:42:54Z</time>
      </trkpt>
      <trkpt lat="39.592561" lon="3.315375">
        <ele>57.626</ele>
        <time>2021-09-01T09:42:55Z</time>
      </trkpt>
      <trkpt lat="39.592589" lon="3.315325">
        <ele>57.666</ele>
        <time>2021-09-01T09:42:56Z</time>
      </trkpt>
      <trkpt lat="39.592632" lon="3.315233">
        <ele>57.911</ele>
        <time>2021-09-01T09:42:58Z</time>
      </trkpt>
      <trkpt lat="39.592687" lon="3.315156">
        <ele>58.121</ele>
        <time>2021-09-01T09:43:00Z</time>
      </trkpt>
      <trkpt lat="39.592740" lon="3.315068">
        <ele>58.303</ele>
        <time>2021-09-01T09:43:02Z</time>
      </trkpt>
      <trkpt lat="39.592806" lon="3.314983">
        <ele>58.408</ele>
        <time>2021-09-01T09:43:04Z</time>
      </trkpt>
      <trkpt lat="39.592840" lon="3.314935">
        <ele>58.399</ele>
        <time>2021-09-01T09:43:05Z</time>
      </trkpt>
      <trkpt lat="39.592870" lon="3.314884">
        <ele>58.293</ele>
        <time>2021-09-01T09:43:06Z</time>
      </trkpt>
      <trkpt lat="39.592901" lon="3.314831">
        <ele>58.018</ele>
        <time>2021-09-01T09:43:07Z</time>
      </trkpt>
      <trkpt lat="39.592933" lon="3.314781">
        <ele>57.972</ele>
        <time>2021-09-01T09:43:08Z</time>
      </trkpt>
      <trkpt lat="39.592966" lon="3.314731">
        <ele>57.881</ele>
        <time>2021-09-01T09:43:09Z</time>
      </trkpt>
      <trkpt lat="39.593000" lon="3.314680">
        <ele>57.886</ele>
        <time>2021-09-01T09:43:10Z</time>
      </trkpt>
      <trkpt lat="39.593026" lon="3.314626">
        <ele>57.863</ele>
        <time>2021-09-01T09:43:11Z</time>
      </trkpt>
      <trkpt lat="39.593054" lon="3.314575">
        <ele>57.943</ele>
        <time>2021-09-01T09:43:12Z</time>
      </trkpt>
      <trkpt lat="39.593085" lon="3.314524">
        <ele>57.964</ele>
        <time>2021-09-01T09:43:13Z</time>
      </trkpt>
      <trkpt lat="39.593117" lon="3.314472">
        <ele>57.906</ele>
        <time>2021-09-01T09:43:14Z</time>
      </trkpt>
      <trkpt lat="39.593151" lon="3.314422">
        <ele>57.916</ele>
        <time>2021-09-01T09:43:15Z</time>
      </trkpt>
      <trkpt lat="39.593181" lon="3.314369">
        <ele>57.908</ele>
        <time>2021-09-01T09:43:16Z</time>
      </trkpt>
      <trkpt lat="39.593214" lon="3.314320">
        <ele>57.984</ele>
        <time>2021-09-01T09:43:17Z</time>
      </trkpt>
      <trkpt lat="39.593244" lon="3.314267">
        <ele>57.968</ele>
        <time>2021-09-01T09:43:18Z</time>
      </trkpt>
      <trkpt lat="39.593274" lon="3.314215">
        <ele>58.023</ele>
        <time>2021-09-01T09:43:19Z</time>
      </trkpt>
      <trkpt lat="39.593306" lon="3.314166">
        <ele>58.137</ele>
        <time>2021-09-01T09:43:20Z</time>
      </trkpt>
      <trkpt lat="39.593336" lon="3.314114">
        <ele>58.176</ele>
        <time>2021-09-01T09:43:21Z</time>
      </trkpt>
      <trkpt lat="39.593366" lon="3.314061">
        <ele>58.241</ele>
        <time>2021-09-01T09:43:22Z</time>
      </trkpt>
      <trkpt lat="39.593399" lon="3.314011">
        <ele>58.278</ele>
        <time>2021-09-01T09:43:23Z</time>
      </trkpt>
      <trkpt lat="39.593430" lon="3.313961">
        <ele>58.388</ele>
        <time>2021-09-01T09:43:24Z</time>
      </trkpt>
      <trkpt lat="39.593461" lon="3.313910">
        <ele>58.494</ele>
        <time>2021-09-01T09:43:25Z</time>
      </trkpt>
      <trkpt lat="39.593492" lon="3.313857">
        <ele>58.457</ele>
        <time>2021-09-01T09:43:26Z</time>
      </trkpt>
      <trkpt lat="39.593523" lon="3.313807">
        <ele>58.422</ele>
        <time>2021-09-01T09:43:27Z</time>
      </trkpt>
      <trkpt lat="39.593554" lon="3.313754">
        <ele>58.408</ele>
        <time>2021-09-01T09:43:28Z</time>
      </trkpt>
      <trkpt lat="39.593586" lon="3.313701">
        <ele>58.437</ele>
        <time>2021-09-01T09:43:29Z</time>
      </trkpt>
      <trkpt lat="39.593618" lon="3.313649">
        <ele>58.441</ele>
        <time>2021-09-01T09:43:30Z</time>
      </trkpt>
      <trkpt lat="39.593647" lon="3.313597">
        <ele>58.446</ele>
        <time>2021-09-01T09:43:31Z</time>
      </trkpt>
      <trkpt lat="39.593677" lon="3.313542">
        <ele>58.470</ele>
        <time>2021-09-01T09:43:32Z</time>
      </trkpt>
      <trkpt lat="39.593707" lon="3.313490">
        <ele>58.379</ele>
        <time>2021-09-01T09:43:33Z</time>
      </trkpt>
      <trkpt lat="39.593740" lon="3.313437">
        <ele>58.384</ele>
        <time>2021-09-01T09:43:34Z</time>
      </trkpt>
      <trkpt lat="39.593774" lon="3.313386">
        <ele>58.211</ele>
        <time>2021-09-01T09:43:35Z</time>
      </trkpt>
      <trkpt lat="39.593807" lon="3.313336">
        <ele>58.291</ele>
        <time>2021-09-01T09:43:36Z</time>
      </trkpt>
      <trkpt lat="39.593839" lon="3.313284">
        <ele>58.274</ele>
        <time>2021-09-01T09:43:37Z</time>
      </trkpt>
      <trkpt lat="39.593871" lon="3.313233">
        <ele>58.256</ele>
        <time>2021-09-01T09:43:38Z</time>
      </trkpt>
      <trkpt lat="39.593900" lon="3.313180">
        <ele>58.221</ele>
        <time>2021-09-01T09:43:39Z</time>
      </trkpt>
      <trkpt lat="39.593931" lon="3.313126">
        <ele>58.208</ele>
        <time>2021-09-01T09:43:40Z</time>
      </trkpt>
      <trkpt lat="39.593963" lon="3.313078">
        <ele>58.115</ele>
        <time>2021-09-01T09:43:41Z</time>
      </trkpt>
      <trkpt lat="39.593997" lon="3.313026">
        <ele>58.119</ele>
        <time>2021-09-01T09:43:42Z</time>
      </trkpt>
      <trkpt lat="39.594029" lon="3.312973">
        <ele>58.134</ele>
        <time>2021-09-01T09:43:43Z</time>
      </trkpt>
      <trkpt lat="39.594061" lon="3.312918">
        <ele>58.148</ele>
        <time>2021-09-01T09:43:44Z</time>
      </trkpt>
      <trkpt lat="39.594091" lon="3.312867">
        <ele>58.297</ele>
        <time>2021-09-01T09:43:45Z</time>
      </trkpt>
      <trkpt lat="39.594126" lon="3.312814">
        <ele>58.332</ele>
        <time>2021-09-01T09:43:46Z</time>
      </trkpt>
      <trkpt lat="39.594158" lon="3.312761">
        <ele>58.429</ele>
        <time>2021-09-01T09:43:47Z</time>
      </trkpt>
      <trkpt lat="39.594191" lon="3.312707">
        <ele>58.589</ele>
        <time>2021-09-01T09:43:48Z</time>
      </trkpt>
      <trkpt lat="39.594224" lon="3.312654">
        <ele>58.517</ele>
        <time>2021-09-01T09:43:49Z</time>
      </trkpt>
      <trkpt lat="39.594255" lon="3.312600">
        <ele>58.687</ele>
        <time>2021-09-01T09:43:50Z</time>
      </trkpt>
      <trkpt lat="39.594284" lon="3.312546">
        <ele>58.715</ele>
        <time>2021-09-01T09:43:51Z</time>
      </trkpt>
      <trkpt lat="39.594316" lon="3.312496">
        <ele>58.808</ele>
        <time>2021-09-01T09:43:52Z</time>
      </trkpt>
      <trkpt lat="39.594347" lon="3.312445">
        <ele>58.929</ele>
        <time>2021-09-01T09:43:53Z</time>
      </trkpt>
      <trkpt lat="39.594379" lon="3.312394">
        <ele>59.073</ele>
        <time>2021-09-01T09:43:54Z</time>
      </trkpt>
      <trkpt lat="39.594412" lon="3.312342">
        <ele>59.188</ele>
        <time>2021-09-01T09:43:55Z</time>
      </trkpt>
      <trkpt lat="39.594443" lon="3.312287">
        <ele>59.152</ele>
        <time>2021-09-01T09:43:56Z</time>
      </trkpt>
      <trkpt lat="39.594473" lon="3.312231">
        <ele>59.151</ele>
        <time>2021-09-01T09:43:57Z</time>
      </trkpt>
      <trkpt lat="39.594500" lon="3.312174">
        <ele>59.146</ele>
        <time>2021-09-01T09:43:58Z</time>
      </trkpt>
      <trkpt lat="39.594530" lon="3.312122">
        <ele>59.193</ele>
        <time>2021-09-01T09:43:59Z</time>
      </trkpt>
      <trkpt lat="39.594561" lon="3.312066">
        <ele>59.063</ele>
        <time>2021-09-01T09:44:00Z</time>
      </trkpt>
      <trkpt lat="39.594595" lon="3.312014">
        <ele>58.957</ele>
        <time>2021-09-01T09:44:01Z</time>
      </trkpt>
      <trkpt lat="39.594630" lon="3.311959">
        <ele>58.900</ele>
        <time>2021-09-01T09:44:02Z</time>
      </trkpt>
      <trkpt lat="39.594662" lon="3.311902">
        <ele>59.020</ele>
        <time>2021-09-01T09:44:03Z</time>
      </trkpt>
      <trkpt lat="39.594692" lon="3.311846">
        <ele>59.108</ele>
        <time>2021-09-01T09:44:04Z</time>
      </trkpt>
      <trkpt lat="39.594724" lon="3.311792">
        <ele>59.273</ele>
        <time>2021-09-01T09:44:05Z</time>
      </trkpt>
      <trkpt lat="39.594758" lon="3.311737">
        <ele>59.347</ele>
        <time>2021-09-01T09:44:06Z</time>
      </trkpt>
      <trkpt lat="39.594791" lon="3.311685">
        <ele>59.472</ele>
        <time>2021-09-01T09:44:07Z</time>
      </trkpt>
      <trkpt lat="39.594824" lon="3.311634">
        <ele>59.526</ele>
        <time>2021-09-01T09:44:08Z</time>
      </trkpt>
      <trkpt lat="39.594857" lon="3.311583">
        <ele>59.555</ele>
        <time>2021-09-01T09:44:09Z</time>
      </trkpt>
      <trkpt lat="39.594890" lon="3.311533">
        <ele>59.570</ele>
        <time>2021-09-01T09:44:10Z</time>
      </trkpt>
      <trkpt lat="39.594922" lon="3.311481">
        <ele>59.557</ele>
        <time>2021-09-01T09:44:11Z</time>
      </trkpt>
      <trkpt lat="39.594952" lon="3.311430">
        <ele>59.537</ele>
        <time>2021-09-01T09:44:12Z</time>
      </trkpt>
      <trkpt lat="39.594984" lon="3.311380">
        <ele>59.482</ele>
        <time>2021-09-01T09:44:13Z</time>
      </trkpt>
      <trkpt lat="39.595016" lon="3.311329">
        <ele>59.343</ele>
        <time>2021-09-01T09:44:14Z</time>
      </trkpt>
      <trkpt lat="39.595047" lon="3.311278">
        <ele>59.317</ele>
        <time>2021-09-01T09:44:15Z</time>
      </trkpt>
      <trkpt lat="39.595079" lon="3.311225">
        <ele>59.308</ele>
        <time>2021-09-01T09:44:16Z</time>
      </trkpt>
      <trkpt lat="39.595115" lon="3.311175">
        <ele>59.426</ele>
        <time>2021-09-01T09:44:17Z</time>
      </trkpt>
      <trkpt lat="39.595149" lon="3.311123">
        <ele>59.560</ele>
        <time>2021-09-01T09:44:18Z</time>
      </trkpt>
      <trkpt lat="39.595180" lon="3.311071">
        <ele>59.635</ele>
        <time>2021-09-01T09:44:19Z</time>
      </trkpt>
      <trkpt lat="39.595210" lon="3.311017">
        <ele>59.759</ele>
        <time>2021-09-01T09:44:20Z</time>
      </trkpt>
      <trkpt lat="39.595239" lon="3.310963">
        <ele>59.888</ele>
        <time>2021-09-01T09:44:21Z</time>
      </trkpt>
      <trkpt lat="39.595267" lon="3.310908">
        <ele>59.863</ele>
        <time>2021-09-01T09:44:22Z</time>
      </trkpt>
      <trkpt lat="39.595300" lon="3.310858">
        <ele>59.750</ele>
        <time>2021-09-01T09:44:23Z</time>
      </trkpt>
      <trkpt lat="39.595333" lon="3.310807">
        <ele>59.630</ele>
        <time>2021-09-01T09:44:24Z</time>
      </trkpt>
      <trkpt lat="39.595363" lon="3.310752">
        <ele>59.585</ele>
        <time>2021-09-01T09:44:25Z</time>
      </trkpt>
      <trkpt lat="39.595392" lon="3.310696">
        <ele>59.589</ele>
        <time>2021-09-01T09:44:26Z</time>
      </trkpt>
      <trkpt lat="39.595424" lon="3.310646">
        <ele>59.517</ele>
        <time>2021-09-01T09:44:27Z</time>
      </trkpt>
      <trkpt lat="39.595456" lon="3.310593">
        <ele>59.408</ele>
        <time>2021-09-01T09:44:28Z</time>
      </trkpt>
      <trkpt lat="39.595488" lon="3.310542">
        <ele>59.476</ele>
        <time>2021-09-01T09:44:29Z</time>
      </trkpt>
      <trkpt lat="39.595516" lon="3.310494">
        <ele>59.510</ele>
        <time>2021-09-01T09:44:30Z</time>
      </trkpt>
      <trkpt lat="39.595546" lon="3.310439">
        <ele>59.615</ele>
        <time>2021-09-01T09:44:31Z</time>
      </trkpt>
      <trkpt lat="39.595577" lon="3.310387">
        <ele>59.749</ele>
        <time>2021-09-01T09:44:32Z</time>
      </trkpt>
      <trkpt lat="39.595610" lon="3.310334">
        <ele>59.898</ele>
        <time>2021-09-01T09:44:33Z</time>
      </trkpt>
      <trkpt lat="39.595641" lon="3.310284">
        <ele>59.883</ele>
        <time>2021-09-01T09:44:34Z</time>
      </trkpt>
      <trkpt lat="39.595668" lon="3.310228">
        <ele>59.830</ele>
        <time>2021-09-01T09:44:35Z</time>
      </trkpt>
      <trkpt lat="39.595699" lon="3.310178">
        <ele>59.830</ele>
        <time>2021-09-01T09:44:36Z</time>
      </trkpt>
      <trkpt lat="39.595734" lon="3.310126">
        <ele>59.888</ele>
        <time>2021-09-01T09:44:37Z</time>
      </trkpt>
      <trkpt lat="39.595766" lon="3.310070">
        <ele>59.924</ele>
        <time>2021-09-01T09:44:38Z</time>
      </trkpt>
      <trkpt lat="39.595797" lon="3.310012">
        <ele>59.926</ele>
        <time>2021-09-01T09:44:39Z</time>
      </trkpt>
      <trkpt lat="39.595828" lon="3.309956">
        <ele>59.908</ele>
        <time>2021-09-01T09:44:40Z</time>
      </trkpt>
      <trkpt lat="39.595859" lon="3.309904">
        <ele>59.986</ele>
        <time>2021-09-01T09:44:41Z</time>
      </trkpt>
      <trkpt lat="39.595891" lon="3.309851">
        <ele>59.910</ele>
        <time>2021-09-01T09:44:42Z</time>
      </trkpt>
      <trkpt lat="39.595921" lon="3.309796">
        <ele>60.045</ele>
        <time>2021-09-01T09:44:43Z</time>
      </trkpt>
      <trkpt lat="39.595949" lon="3.309745">
        <ele>60.079</ele>
        <time>2021-09-01T09:44:44Z</time>
      </trkpt>
      <trkpt lat="39.595985" lon="3.309694">
        <ele>60.118</ele>
        <time>2021-09-01T09:44:45Z</time>
      </trkpt>
      <trkpt lat="39.596017" lon="3.309638">
        <ele>60.113</ele>
        <time>2021-09-01T09:44:46Z</time>
      </trkpt>
      <trkpt lat="39.596045" lon="3.309582">
        <ele>60.180</ele>
        <time>2021-09-01T09:44:47Z</time>
      </trkpt>
      <trkpt lat="39.596078" lon="3.309516">
        <ele>60.110</ele>
        <time>2021-09-01T09:44:48Z</time>
      </trkpt>
      <trkpt lat="39.596112" lon="3.309465">
        <ele>60.126</ele>
        <time>2021-09-01T09:44:49Z</time>
      </trkpt>
      <trkpt lat="39.596144" lon="3.309412">
        <ele>60.147</ele>
        <time>2021-09-01T09:44:50Z</time>
      </trkpt>
      <trkpt lat="39.596181" lon="3.309355">
        <ele>60.111</ele>
        <time>2021-09-01T09:44:51Z</time>
      </trkpt>
      <trkpt lat="39.596213" lon="3.309299">
        <ele>60.108</ele>
        <time>2021-09-01T09:44:52Z</time>
      </trkpt>
      <trkpt lat="39.596242" lon="3.309244">
        <ele>60.280</ele>
        <time>2021-09-01T09:44:53Z</time>
      </trkpt>
      <trkpt lat="39.596276" lon="3.309190">
        <ele>60.294</ele>
        <time>2021-09-01T09:44:54Z</time>
      </trkpt>
      <trkpt lat="39.596309" lon="3.309134">
        <ele>60.349</ele>
        <time>2021-09-01T09:44:55Z</time>
      </trkpt>
      <trkpt lat="39.596344" lon="3.309078">
        <ele>60.473</ele>
        <time>2021-09-01T09:44:56Z</time>
      </trkpt>
      <trkpt lat="39.596375" lon="3.309017">
        <ele>60.472</ele>
        <time>2021-09-01T09:44:57Z</time>
      </trkpt>
      <trkpt lat="39.596410" lon="3.308959">
        <ele>60.597</ele>
        <time>2021-09-01T09:44:58Z</time>
      </trkpt>
      <trkpt lat="39.596442" lon="3.308901">
        <ele>60.534</ele>
        <time>2021-09-01T09:44:59Z</time>
      </trkpt>
      <trkpt lat="39.596481" lon="3.308846">
        <ele>60.654</ele>
        <time>2021-09-01T09:45:00Z</time>
      </trkpt>
      <trkpt lat="39.596510" lon="3.308797">
        <ele>60.735</ele>
        <time>2021-09-01T09:45:01Z</time>
      </trkpt>
      <trkpt lat="39.596544" lon="3.308744">
        <ele>60.786</ele>
        <time>2021-09-01T09:45:02Z</time>
      </trkpt>
      <trkpt lat="39.596572" lon="3.308686">
        <ele>60.814</ele>
        <time>2021-09-01T09:45:03Z</time>
      </trkpt>
      <trkpt lat="39.596605" lon="3.308638">
        <ele>60.808</ele>
        <time>2021-09-01T09:45:04Z</time>
      </trkpt>
      <trkpt lat="39.596640" lon="3.308592">
        <ele>60.851</ele>
        <time>2021-09-01T09:45:05Z</time>
      </trkpt>
      <trkpt lat="39.596674" lon="3.308547">
        <ele>60.875</ele>
        <time>2021-09-01T09:45:06Z</time>
      </trkpt>
      <trkpt lat="39.596705" lon="3.308495">
        <ele>60.970</ele>
        <time>2021-09-01T09:45:07Z</time>
      </trkpt>
      <trkpt lat="39.596735" lon="3.308443">
        <ele>61.094</ele>
        <time>2021-09-01T09:45:08Z</time>
      </trkpt>
      <trkpt lat="39.596770" lon="3.308392">
        <ele>61.083</ele>
        <time>2021-09-01T09:45:09Z</time>
      </trkpt>
      <trkpt lat="39.596807" lon="3.308334">
        <ele>61.028</ele>
        <time>2021-09-01T09:45:10Z</time>
      </trkpt>
      <trkpt lat="39.596837" lon="3.308278">
        <ele>61.095</ele>
        <time>2021-09-01T09:45:11Z</time>
      </trkpt>
      <trkpt lat="39.596865" lon="3.308222">
        <ele>60.975</ele>
        <time>2021-09-01T09:45:12Z</time>
      </trkpt>
      <trkpt lat="39.596896" lon="3.308167">
        <ele>60.842</ele>
        <time>2021-09-01T09:45:13Z</time>
      </trkpt>
      <trkpt lat="39.596926" lon="3.308103">
        <ele>60.722</ele>
        <time>2021-09-01T09:45:14Z</time>
      </trkpt>
      <trkpt lat="39.596963" lon="3.308053">
        <ele>60.714</ele>
        <time>2021-09-01T09:45:15Z</time>
      </trkpt>
      <trkpt lat="39.596994" lon="3.308003">
        <ele>60.708</ele>
        <time>2021-09-01T09:45:16Z</time>
      </trkpt>
      <trkpt lat="39.597025" lon="3.307955">
        <ele>60.832</ele>
        <time>2021-09-01T09:45:17Z</time>
      </trkpt>
      <trkpt lat="39.597056" lon="3.307901">
        <ele>60.826</ele>
        <time>2021-09-01T09:45:18Z</time>
      </trkpt>
      <trkpt lat="39.597090" lon="3.307853">
        <ele>60.991</ele>
        <time>2021-09-01T09:45:19Z</time>
      </trkpt>
      <trkpt lat="39.597119" lon="3.307799">
        <ele>61.085</ele>
        <time>2021-09-01T09:45:20Z</time>
      </trkpt>
      <trkpt lat="39.597147" lon="3.307744">
        <ele>61.034</ele>
        <time>2021-09-01T09:45:21Z</time>
      </trkpt>
      <trkpt lat="39.597176" lon="3.307694">
        <ele>61.069</ele>
        <time>2021-09-01T09:45:22Z</time>
      </trkpt>
      <trkpt lat="39.597209" lon="3.307644">
        <ele>61.046</ele>
        <time>2021-09-01T09:45:23Z</time>
      </trkpt>
      <trkpt lat="39.597239" lon="3.307587">
        <ele>61.096</ele>
        <time>2021-09-01T09:45:24Z</time>
      </trkpt>
      <trkpt lat="39.597268" lon="3.307531">
        <ele>60.977</ele>
        <time>2021-09-01T09:45:25Z</time>
      </trkpt>
      <trkpt lat="39.597298" lon="3.307478">
        <ele>60.961</ele>
        <time>2021-09-01T09:45:26Z</time>
      </trkpt>
      <trkpt lat="39.597326" lon="3.307432">
        <ele>61.027</ele>
        <time>2021-09-01T09:45:27Z</time>
      </trkpt>
      <trkpt lat="39.597353" lon="3.307385">
        <ele>61.008</ele>
        <time>2021-09-01T09:45:28Z</time>
      </trkpt>
      <trkpt lat="39.597383" lon="3.307333">
        <ele>61.255</ele>
        <time>2021-09-01T09:45:29Z</time>
      </trkpt>
      <trkpt lat="39.597417" lon="3.307278">
        <ele>61.299</ele>
        <time>2021-09-01T09:45:30Z</time>
      </trkpt>
      <trkpt lat="39.597447" lon="3.307229">
        <ele>61.324</ele>
        <time>2021-09-01T09:45:31Z</time>
      </trkpt>
      <trkpt lat="39.597478" lon="3.307179">
        <ele>61.398</ele>
        <time>2021-09-01T09:45:32Z</time>
      </trkpt>
      <trkpt lat="39.597508" lon="3.307127">
        <ele>61.367</ele>
        <time>2021-09-01T09:45:33Z</time>
      </trkpt>
      <trkpt lat="39.597541" lon="3.307076">
        <ele>61.332</ele>
        <time>2021-09-01T09:45:34Z</time>
      </trkpt>
      <trkpt lat="39.597574" lon="3.307025">
        <ele>61.469</ele>
        <time>2021-09-01T09:45:35Z</time>
      </trkpt>
      <trkpt lat="39.597604" lon="3.306979">
        <ele>61.539</ele>
        <time>2021-09-01T09:45:36Z</time>
      </trkpt>
      <trkpt lat="39.597638" lon="3.306924">
        <ele>61.576</ele>
        <time>2021-09-01T09:45:37Z</time>
      </trkpt>
      <trkpt lat="39.597671" lon="3.306869">
        <ele>61.590</ele>
        <time>2021-09-01T09:45:38Z</time>
      </trkpt>
      <trkpt lat="39.597704" lon="3.306814">
        <ele>61.419</ele>
        <time>2021-09-01T09:45:39Z</time>
      </trkpt>
      <trkpt lat="39.597743" lon="3.306760">
        <ele>61.408</ele>
        <time>2021-09-01T09:45:40Z</time>
      </trkpt>
      <trkpt lat="39.597775" lon="3.306710">
        <ele>61.395</ele>
        <time>2021-09-01T09:45:41Z</time>
      </trkpt>
      <trkpt lat="39.597807" lon="3.306656">
        <ele>61.399</ele>
        <time>2021-09-01T09:45:42Z</time>
      </trkpt>
      <trkpt lat="39.597839" lon="3.306607">
        <ele>61.394</ele>
        <time>2021-09-01T09:45:43Z</time>
      </trkpt>
      <trkpt lat="39.597876" lon="3.306560">
        <ele>61.368</ele>
        <time>2021-09-01T09:45:44Z</time>
      </trkpt>
      <trkpt lat="39.597909" lon="3.306504">
        <ele>61.427</ele>
        <time>2021-09-01T09:45:45Z</time>
      </trkpt>
      <trkpt lat="39.597943" lon="3.306457">
        <ele>61.462</ele>
        <time>2021-09-01T09:45:46Z</time>
      </trkpt>
      <trkpt lat="39.597970" lon="3.306403">
        <ele>61.419</ele>
        <time>2021-09-01T09:45:47Z</time>
      </trkpt>
      <trkpt lat="39.597998" lon="3.306349">
        <ele>61.429</ele>
        <time>2021-09-01T09:45:48Z</time>
      </trkpt>
      <trkpt lat="39.598054" lon="3.306251">
        <ele>61.514</ele>
        <time>2021-09-01T09:45:50Z</time>
      </trkpt>
      <trkpt lat="39.598088" lon="3.306199">
        <ele>61.654</ele>
        <time>2021-09-01T09:45:51Z</time>
      </trkpt>
      <trkpt lat="39.598118" lon="3.306151">
        <ele>61.709</ele>
        <time>2021-09-01T09:45:52Z</time>
      </trkpt>
      <trkpt lat="39.598146" lon="3.306105">
        <ele>61.708</ele>
        <time>2021-09-01T09:45:53Z</time>
      </trkpt>
      <trkpt lat="39.598176" lon="3.306051">
        <ele>61.839</ele>
        <time>2021-09-01T09:45:54Z</time>
      </trkpt>
      <trkpt lat="39.598207" lon="3.306001">
        <ele>61.883</ele>
        <time>2021-09-01T09:45:55Z</time>
      </trkpt>
      <trkpt lat="39.598238" lon="3.305952">
        <ele>61.748</ele>
        <time>2021-09-01T09:45:56Z</time>
      </trkpt>
      <trkpt lat="39.598268" lon="3.305899">
        <ele>61.772</ele>
        <time>2021-09-01T09:45:57Z</time>
      </trkpt>
      <trkpt lat="39.598294" lon="3.305842">
        <ele>61.761</ele>
        <time>2021-09-01T09:45:58Z</time>
      </trkpt>
      <trkpt lat="39.598322" lon="3.305788">
        <ele>61.786</ele>
        <time>2021-09-01T09:45:59Z</time>
      </trkpt>
      <trkpt lat="39.598351" lon="3.305735">
        <ele>61.823</ele>
        <time>2021-09-01T09:46:00Z</time>
      </trkpt>
      <trkpt lat="39.598375" lon="3.305679">
        <ele>61.943</ele>
        <time>2021-09-01T09:46:01Z</time>
      </trkpt>
      <trkpt lat="39.598393" lon="3.305624">
        <ele>61.974</ele>
        <time>2021-09-01T09:46:02Z</time>
      </trkpt>
      <trkpt lat="39.598421" lon="3.305578">
        <ele>61.856</ele>
        <time>2021-09-01T09:46:03Z</time>
      </trkpt>
      <trkpt lat="39.598452" lon="3.305525">
        <ele>61.821</ele>
        <time>2021-09-01T09:46:04Z</time>
      </trkpt>
      <trkpt lat="39.598482" lon="3.305475">
        <ele>61.608</ele>
        <time>2021-09-01T09:46:05Z</time>
      </trkpt>
      <trkpt lat="39.598505" lon="3.305420">
        <ele>61.685</ele>
        <time>2021-09-01T09:46:06Z</time>
      </trkpt>
      <trkpt lat="39.598527" lon="3.305364">
        <ele>61.569</ele>
        <time>2021-09-01T09:46:07Z</time>
      </trkpt>
      <trkpt lat="39.598550" lon="3.305310">
        <ele>61.524</ele>
        <time>2021-09-01T09:46:08Z</time>
      </trkpt>
      <trkpt lat="39.598573" lon="3.305255">
        <ele>61.558</ele>
        <time>2021-09-01T09:46:09Z</time>
      </trkpt>
      <trkpt lat="39.598595" lon="3.305200">
        <ele>61.697</ele>
        <time>2021-09-01T09:46:10Z</time>
      </trkpt>
      <trkpt lat="39.598620" lon="3.305145">
        <ele>61.622</ele>
        <time>2021-09-01T09:46:11Z</time>
      </trkpt>
      <trkpt lat="39.598642" lon="3.305092">
        <ele>61.749</ele>
        <time>2021-09-01T09:46:12Z</time>
      </trkpt>
      <trkpt lat="39.598660" lon="3.305033">
        <ele>61.839</ele>
        <time>2021-09-01T09:46:13Z</time>
      </trkpt>
      <trkpt lat="39.598680" lon="3.304976">
        <ele>61.887</ele>
        <time>2021-09-01T09:46:14Z</time>
      </trkpt>
      <trkpt lat="39.598700" lon="3.304921">
        <ele>61.942</ele>
        <time>2021-09-01T09:46:15Z</time>
      </trkpt>
      <trkpt lat="39.598739" lon="3.304811">
        <ele>61.926</ele>
        <time>2021-09-01T09:46:17Z</time>
      </trkpt>
      <trkpt lat="39.598758" lon="3.304754">
        <ele>62.108</ele>
        <time>2021-09-01T09:46:18Z</time>
      </trkpt>
      <trkpt lat="39.598776" lon="3.304688">
        <ele>62.296</ele>
        <time>2021-09-01T09:46:19Z</time>
      </trkpt>
      <trkpt lat="39.598795" lon="3.304635">
        <ele>62.370</ele>
        <time>2021-09-01T09:46:20Z</time>
      </trkpt>
      <trkpt lat="39.598813" lon="3.304576">
        <ele>62.395</ele>
        <time>2021-09-01T09:46:21Z</time>
      </trkpt>
      <trkpt lat="39.598832" lon="3.304516">
        <ele>62.469</ele>
        <time>2021-09-01T09:46:22Z</time>
      </trkpt>
      <trkpt lat="39.598850" lon="3.304460">
        <ele>62.428</ele>
        <time>2021-09-01T09:46:23Z</time>
      </trkpt>
      <trkpt lat="39.598865" lon="3.304401">
        <ele>62.513</ele>
        <time>2021-09-01T09:46:24Z</time>
      </trkpt>
      <trkpt lat="39.598880" lon="3.304340">
        <ele>62.530</ele>
        <time>2021-09-01T09:46:25Z</time>
      </trkpt>
      <trkpt lat="39.598893" lon="3.304279">
        <ele>62.650</ele>
        <time>2021-09-01T09:46:26Z</time>
      </trkpt>
      <trkpt lat="39.598907" lon="3.304220">
        <ele>62.771</ele>
        <time>2021-09-01T09:46:27Z</time>
      </trkpt>
      <trkpt lat="39.598923" lon="3.304160">
        <ele>62.741</ele>
        <time>2021-09-01T09:46:28Z</time>
      </trkpt>
      <trkpt lat="39.598937" lon="3.304100">
        <ele>62.815</ele>
        <time>2021-09-01T09:46:29Z</time>
      </trkpt>
      <trkpt lat="39.598950" lon="3.304042">
        <ele>62.908</ele>
        <time>2021-09-01T09:46:30Z</time>
      </trkpt>
      <trkpt lat="39.598964" lon="3.303985">
        <ele>62.915</ele>
        <time>2021-09-01T09:46:31Z</time>
      </trkpt>
      <trkpt lat="39.598976" lon="3.303927">
        <ele>63.019</ele>
        <time>2021-09-01T09:46:32Z</time>
      </trkpt>
      <trkpt lat="39.598983" lon="3.303868">
        <ele>63.174</ele>
        <time>2021-09-01T09:46:33Z</time>
      </trkpt>
      <trkpt lat="39.598990" lon="3.303809">
        <ele>63.148</ele>
        <time>2021-09-01T09:46:34Z</time>
      </trkpt>
      <trkpt lat="39.599003" lon="3.303694">
        <ele>63.497</ele>
        <time>2021-09-01T09:46:36Z</time>
      </trkpt>
      <trkpt lat="39.599011" lon="3.303633">
        <ele>63.652</ele>
        <time>2021-09-01T09:46:37Z</time>
      </trkpt>
      <trkpt lat="39.599015" lon="3.303572">
        <ele>63.969</ele>
        <time>2021-09-01T09:46:38Z</time>
      </trkpt>
      <trkpt lat="39.599013" lon="3.303456">
        <ele>64.049</ele>
        <time>2021-09-01T09:46:40Z</time>
      </trkpt>
      <trkpt lat="39.599011" lon="3.303391">
        <ele>64.077</ele>
        <time>2021-09-01T09:46:41Z</time>
      </trkpt>
      <trkpt lat="39.599015" lon="3.303330">
        <ele>63.961</ele>
        <time>2021-09-01T09:46:42Z</time>
      </trkpt>
      <trkpt lat="39.599026" lon="3.303256">
        <ele>63.727</ele>
        <time>2021-09-01T09:46:43Z</time>
      </trkpt>
      <trkpt lat="39.599024" lon="3.303195">
        <ele>63.708</ele>
        <time>2021-09-01T09:46:44Z</time>
      </trkpt>
      <trkpt lat="39.599028" lon="3.303130">
        <ele>63.775</ele>
        <time>2021-09-01T09:46:45Z</time>
      </trkpt>
      <trkpt lat="39.599030" lon="3.303065">
        <ele>63.739</ele>
        <time>2021-09-01T09:46:46Z</time>
      </trkpt>
      <trkpt lat="39.599030" lon="3.302999">
        <ele>63.764</ele>
        <time>2021-09-01T09:46:47Z</time>
      </trkpt>
      <trkpt lat="39.599029" lon="3.302933">
        <ele>63.798</ele>
        <time>2021-09-01T09:46:48Z</time>
      </trkpt>
      <trkpt lat="39.599028" lon="3.302866">
        <ele>63.737</ele>
        <time>2021-09-01T09:46:49Z</time>
      </trkpt>
      <trkpt lat="39.599025" lon="3.302797">
        <ele>63.622</ele>
        <time>2021-09-01T09:46:50Z</time>
      </trkpt>
      <trkpt lat="39.599024" lon="3.302730">
        <ele>63.659</ele>
        <time>2021-09-01T09:46:51Z</time>
      </trkpt>
      <trkpt lat="39.599022" lon="3.302662">
        <ele>63.649</ele>
        <time>2021-09-01T09:46:52Z</time>
      </trkpt>
      <trkpt lat="39.599018" lon="3.302598">
        <ele>63.669</ele>
        <time>2021-09-01T09:46:53Z</time>
      </trkpt>
      <trkpt lat="39.599012" lon="3.302531">
        <ele>63.704</ele>
        <time>2021-09-01T09:46:54Z</time>
      </trkpt>
      <trkpt lat="39.599008" lon="3.302461">
        <ele>63.824</ele>
        <time>2021-09-01T09:46:55Z</time>
      </trkpt>
      <trkpt lat="39.599005" lon="3.302394">
        <ele>63.908</ele>
        <time>2021-09-01T09:46:56Z</time>
      </trkpt>
      <trkpt lat="39.599001" lon="3.302331">
        <ele>63.974</ele>
        <time>2021-09-01T09:46:57Z</time>
      </trkpt>
      <trkpt lat="39.598991" lon="3.302268">
        <ele>63.988</ele>
        <time>2021-09-01T09:46:58Z</time>
      </trkpt>
      <trkpt lat="39.598985" lon="3.302203">
        <ele>64.013</ele>
        <time>2021-09-01T09:46:59Z</time>
      </trkpt>
      <trkpt lat="39.598978" lon="3.302141">
        <ele>64.127</ele>
        <time>2021-09-01T09:47:00Z</time>
      </trkpt>
      <trkpt lat="39.598969" lon="3.302075">
        <ele>64.236</ele>
        <time>2021-09-01T09:47:01Z</time>
      </trkpt>
      <trkpt lat="39.598961" lon="3.302014">
        <ele>64.461</ele>
        <time>2021-09-01T09:47:02Z</time>
      </trkpt>
      <trkpt lat="39.598956" lon="3.301956">
        <ele>64.468</ele>
        <time>2021-09-01T09:47:03Z</time>
      </trkpt>
      <trkpt lat="39.598946" lon="3.301899">
        <ele>64.488</ele>
        <time>2021-09-01T09:47:04Z</time>
      </trkpt>
      <trkpt lat="39.598932" lon="3.301785">
        <ele>64.538</ele>
        <time>2021-09-01T09:47:06Z</time>
      </trkpt>
      <trkpt lat="39.598924" lon="3.301723">
        <ele>64.570</ele>
        <time>2021-09-01T09:47:07Z</time>
      </trkpt>
      <trkpt lat="39.598916" lon="3.301660">
        <ele>64.617</ele>
        <time>2021-09-01T09:47:08Z</time>
      </trkpt>
      <trkpt lat="39.598905" lon="3.301599">
        <ele>64.708</ele>
        <time>2021-09-01T09:47:09Z</time>
      </trkpt>
      <trkpt lat="39.598892" lon="3.301539">
        <ele>64.871</ele>
        <time>2021-09-01T09:47:10Z</time>
      </trkpt>
      <trkpt lat="39.598881" lon="3.301478">
        <ele>64.985</ele>
        <time>2021-09-01T09:47:11Z</time>
      </trkpt>
      <trkpt lat="39.598872" lon="3.301415">
        <ele>65.010</ele>
        <time>2021-09-01T09:47:12Z</time>
      </trkpt>
      <trkpt lat="39.598857" lon="3.301299">
        <ele>65.194</ele>
        <time>2021-09-01T09:47:14Z</time>
      </trkpt>
      <trkpt lat="39.598843" lon="3.301187">
        <ele>65.143</ele>
        <time>2021-09-01T09:47:16Z</time>
      </trkpt>
      <trkpt lat="39.598836" lon="3.301075">
        <ele>65.238</ele>
        <time>2021-09-01T09:47:18Z</time>
      </trkpt>
      <trkpt lat="39.598825" lon="3.300966">
        <ele>65.325</ele>
        <time>2021-09-01T09:47:20Z</time>
      </trkpt>
      <trkpt lat="39.598810" lon="3.300850">
        <ele>65.565</ele>
        <time>2021-09-01T09:47:22Z</time>
      </trkpt>
      <trkpt lat="39.598804" lon="3.300789">
        <ele>65.552</ele>
        <time>2021-09-01T09:47:23Z</time>
      </trkpt>
      <trkpt lat="39.598809" lon="3.300672">
        <ele>65.553</ele>
        <time>2021-09-01T09:47:25Z</time>
      </trkpt>
      <trkpt lat="39.598802" lon="3.300571">
        <ele>65.308</ele>
        <time>2021-09-01T09:47:27Z</time>
      </trkpt>
      <trkpt lat="39.598804" lon="3.300462">
        <ele>65.308</ele>
        <time>2021-09-01T09:47:29Z</time>
      </trkpt>
      <trkpt lat="39.598799" lon="3.300364">
        <ele>65.513</ele>
        <time>2021-09-01T09:47:31Z</time>
      </trkpt>
      <trkpt lat="39.598794" lon="3.300257">
        <ele>65.777</ele>
        <time>2021-09-01T09:47:33Z</time>
      </trkpt>
      <trkpt lat="39.598793" lon="3.300198">
        <ele>65.892</ele>
        <time>2021-09-01T09:47:34Z</time>
      </trkpt>
      <trkpt lat="39.598800" lon="3.300135">
        <ele>65.876</ele>
        <time>2021-09-01T09:47:35Z</time>
      </trkpt>
      <trkpt lat="39.598805" lon="3.300011">
        <ele>66.075</ele>
        <time>2021-09-01T09:47:37Z</time>
      </trkpt>
      <trkpt lat="39.598814" lon="3.299946">
        <ele>66.020</ele>
        <time>2021-09-01T09:47:38Z</time>
      </trkpt>
      <trkpt lat="39.598816" lon="3.299885">
        <ele>66.297</ele>
        <time>2021-09-01T09:47:39Z</time>
      </trkpt>
      <trkpt lat="39.598819" lon="3.299821">
        <ele>66.347</ele>
        <time>2021-09-01T09:47:40Z</time>
      </trkpt>
      <trkpt lat="39.598824" lon="3.299761">
        <ele>66.452</ele>
        <time>2021-09-01T09:47:41Z</time>
      </trkpt>
      <trkpt lat="39.598829" lon="3.299702">
        <ele>66.553</ele>
        <time>2021-09-01T09:47:42Z</time>
      </trkpt>
      <trkpt lat="39.598839" lon="3.299595">
        <ele>66.708</ele>
        <time>2021-09-01T09:47:44Z</time>
      </trkpt>
      <trkpt lat="39.598853" lon="3.299486">
        <ele>66.808</ele>
        <time>2021-09-01T09:47:46Z</time>
      </trkpt>
      <trkpt lat="39.598861" lon="3.299428">
        <ele>66.943</ele>
        <time>2021-09-01T09:47:47Z</time>
      </trkpt>
      <trkpt lat="39.598878" lon="3.299316">
        <ele>67.137</ele>
        <time>2021-09-01T09:47:49Z</time>
      </trkpt>
      <trkpt lat="39.598887" lon="3.299258">
        <ele>67.172</ele>
        <time>2021-09-01T09:47:50Z</time>
      </trkpt>
      <trkpt lat="39.598908" lon="3.299143">
        <ele>67.276</ele>
        <time>2021-09-01T09:47:52Z</time>
      </trkpt>
      <trkpt lat="39.598921" lon="3.299084">
        <ele>67.295</ele>
        <time>2021-09-01T09:47:53Z</time>
      </trkpt>
      <trkpt lat="39.598931" lon="3.299024">
        <ele>67.240</ele>
        <time>2021-09-01T09:47:54Z</time>
      </trkpt>
      <trkpt lat="39.598953" lon="3.298916">
        <ele>67.247</ele>
        <time>2021-09-01T09:47:56Z</time>
      </trkpt>
      <trkpt lat="39.598965" lon="3.298856">
        <ele>67.247</ele>
        <time>2021-09-01T09:47:57Z</time>
      </trkpt>
      <trkpt lat="39.598987" lon="3.298750">
        <ele>67.344</ele>
        <time>2021-09-01T09:47:59Z</time>
      </trkpt>
      <trkpt lat="39.599019" lon="3.298653">
        <ele>67.405</ele>
        <time>2021-09-01T09:48:01Z</time>
      </trkpt>
      <trkpt lat="39.599029" lon="3.298592">
        <ele>67.515</ele>
        <time>2021-09-01T09:48:02Z</time>
      </trkpt>
      <trkpt lat="39.599048" lon="3.298537">
        <ele>67.508</ele>
        <time>2021-09-01T09:48:03Z</time>
      </trkpt>
      <trkpt lat="39.599064" lon="3.298481">
        <ele>67.682</ele>
        <time>2021-09-01T09:48:04Z</time>
      </trkpt>
      <trkpt lat="39.599079" lon="3.298424">
        <ele>67.666</ele>
        <time>2021-09-01T09:48:05Z</time>
      </trkpt>
      <trkpt lat="39.599117" lon="3.298320">
        <ele>67.611</ele>
        <time>2021-09-01T09:48:07Z</time>
      </trkpt>
      <trkpt lat="39.599156" lon="3.298210">
        <ele>67.645</ele>
        <time>2021-09-01T09:48:09Z</time>
      </trkpt>
      <trkpt lat="39.599187" lon="3.298103">
        <ele>67.794</ele>
        <time>2021-09-01T09:48:11Z</time>
      </trkpt>
      <trkpt lat="39.599212" lon="3.298046">
        <ele>67.739</ele>
        <time>2021-09-01T09:48:12Z</time>
      </trkpt>
      <trkpt lat="39.599256" lon="3.297939">
        <ele>67.786</ele>
        <time>2021-09-01T09:48:14Z</time>
      </trkpt>
      <trkpt lat="39.599290" lon="3.297841">
        <ele>67.736</ele>
        <time>2021-09-01T09:48:16Z</time>
      </trkpt>
      <trkpt lat="39.599327" lon="3.297759">
        <ele>67.853</ele>
        <time>2021-09-01T09:48:18Z</time>
      </trkpt>
      <trkpt lat="39.599353" lon="3.297712">
        <ele>67.804</ele>
        <time>2021-09-01T09:48:19Z</time>
      </trkpt>
      <trkpt lat="39.599376" lon="3.297661">
        <ele>67.914</ele>
        <time>2021-09-01T09:48:20Z</time>
      </trkpt>
      <trkpt lat="39.599400" lon="3.297610">
        <ele>68.008</ele>
        <time>2021-09-01T09:48:21Z</time>
      </trkpt>
      <trkpt lat="39.599425" lon="3.297560">
        <ele>68.073</ele>
        <time>2021-09-01T09:48:22Z</time>
      </trkpt>
      <trkpt lat="39.599453" lon="3.297510">
        <ele>68.037</ele>
        <time>2021-09-01T09:48:23Z</time>
      </trkpt>
      <trkpt lat="39.599509" lon="3.297418">
        <ele>68.042</ele>
        <time>2021-09-01T09:48:25Z</time>
      </trkpt>
      <trkpt lat="39.599538" lon="3.297369">
        <ele>68.086</ele>
        <time>2021-09-01T09:48:26Z</time>
      </trkpt>
      <trkpt lat="39.599565" lon="3.297317">
        <ele>68.065</ele>
        <time>2021-09-01T09:48:27Z</time>
      </trkpt>
      <trkpt lat="39.599600" lon="3.297272">
        <ele>68.190</ele>
        <time>2021-09-01T09:48:28Z</time>
      </trkpt>
      <trkpt lat="39.599627" lon="3.297223">
        <ele>68.387</ele>
        <time>2021-09-01T09:48:29Z</time>
      </trkpt>
      <trkpt lat="39.599661" lon="3.297180">
        <ele>68.337</ele>
        <time>2021-09-01T09:48:30Z</time>
      </trkpt>
      <trkpt lat="39.599691" lon="3.297130">
        <ele>68.338</ele>
        <time>2021-09-01T09:48:31Z</time>
      </trkpt>
      <trkpt lat="39.599721" lon="3.297082">
        <ele>68.370</ele>
        <time>2021-09-01T09:48:32Z</time>
      </trkpt>
      <trkpt lat="39.599752" lon="3.297035">
        <ele>68.317</ele>
        <time>2021-09-01T09:48:33Z</time>
      </trkpt>
      <trkpt lat="39.599789" lon="3.296989">
        <ele>68.308</ele>
        <time>2021-09-01T09:48:34Z</time>
      </trkpt>
      <trkpt lat="39.599825" lon="3.296948">
        <ele>68.451</ele>
        <time>2021-09-01T09:48:35Z</time>
      </trkpt>
      <trkpt lat="39.599888" lon="3.296860">
        <ele>68.615</ele>
        <time>2021-09-01T09:48:37Z</time>
      </trkpt>
      <trkpt lat="39.599950" lon="3.296788">
        <ele>68.790</ele>
        <time>2021-09-01T09:48:39Z</time>
      </trkpt>
      <trkpt lat="39.600018" lon="3.296713">
        <ele>68.844</ele>
        <time>2021-09-01T09:48:41Z</time>
      </trkpt>
      <trkpt lat="39.600057" lon="3.296673">
        <ele>68.983</ele>
        <time>2021-09-01T09:48:42Z</time>
      </trkpt>
      <trkpt lat="39.600127" lon="3.296596">
        <ele>68.968</ele>
        <time>2021-09-01T09:48:44Z</time>
      </trkpt>
      <trkpt lat="39.600190" lon="3.296527">
        <ele>69.095</ele>
        <time>2021-09-01T09:48:46Z</time>
      </trkpt>
      <trkpt lat="39.600231" lon="3.296496">
        <ele>69.135</ele>
        <time>2021-09-01T09:48:47Z</time>
      </trkpt>
      <trkpt lat="39.600268" lon="3.296454">
        <ele>69.183</ele>
        <time>2021-09-01T09:48:48Z</time>
      </trkpt>
      <trkpt lat="39.600307" lon="3.296416">
        <ele>69.325</ele>
        <time>2021-09-01T09:48:49Z</time>
      </trkpt>
      <trkpt lat="39.600344" lon="3.296377">
        <ele>69.417</ele>
        <time>2021-09-01T09:48:50Z</time>
      </trkpt>
      <trkpt lat="39.600421" lon="3.296302">
        <ele>69.408</ele>
        <time>2021-09-01T09:48:52Z</time>
      </trkpt>
      <trkpt lat="39.600493" lon="3.296235">
        <ele>69.516</ele>
        <time>2021-09-01T09:48:54Z</time>
      </trkpt>
      <trkpt lat="39.600533" lon="3.296209">
        <ele>69.570</ele>
        <time>2021-09-01T09:48:55Z</time>
      </trkpt>
      <trkpt lat="39.600569" lon="3.296173">
        <ele>69.685</ele>
        <time>2021-09-01T09:48:56Z</time>
      </trkpt>
      <trkpt lat="39.600609" lon="3.296138">
        <ele>69.669</ele>
        <time>2021-09-01T09:48:57Z</time>
      </trkpt>
      <trkpt lat="39.600646" lon="3.296102">
        <ele>69.798</ele>
        <time>2021-09-01T09:48:58Z</time>
      </trkpt>
      <trkpt lat="39.600685" lon="3.296070">
        <ele>69.793</ele>
        <time>2021-09-01T09:48:59Z</time>
      </trkpt>
      <trkpt lat="39.600725" lon="3.296036">
        <ele>69.960</ele>
        <time>2021-09-01T09:49:00Z</time>
      </trkpt>
      <trkpt lat="39.600796" lon="3.295965">
        <ele>70.170</ele>
        <time>2021-09-01T09:49:02Z</time>
      </trkpt>
      <trkpt lat="39.600869" lon="3.295896">
        <ele>70.231</ele>
        <time>2021-09-01T09:49:04Z</time>
      </trkpt>
      <trkpt lat="39.600903" lon="3.295854">
        <ele>70.261</ele>
        <time>2021-09-01T09:49:05Z</time>
      </trkpt>
      <trkpt lat="39.600939" lon="3.295819">
        <ele>70.207</ele>
        <time>2021-09-01T09:49:06Z</time>
      </trkpt>
      <trkpt lat="39.600981" lon="3.295789">
        <ele>70.308</ele>
        <time>2021-09-01T09:49:07Z</time>
      </trkpt>
      <trkpt lat="39.601054" lon="3.295721">
        <ele>70.431</ele>
        <time>2021-09-01T09:49:09Z</time>
      </trkpt>
      <trkpt lat="39.601095" lon="3.295683">
        <ele>70.515</ele>
        <time>2021-09-01T09:49:10Z</time>
      </trkpt>
      <trkpt lat="39.601134" lon="3.295653">
        <ele>70.530</ele>
        <time>2021-09-01T09:49:11Z</time>
      </trkpt>
      <trkpt lat="39.601176" lon="3.295604">
        <ele>70.564</ele>
        <time>2021-09-01T09:49:12Z</time>
      </trkpt>
      <trkpt lat="39.601247" lon="3.295534">
        <ele>70.873</ele>
        <time>2021-09-01T09:49:14Z</time>
      </trkpt>
      <trkpt lat="39.601289" lon="3.295508">
        <ele>70.998</ele>
        <time>2021-09-01T09:49:15Z</time>
      </trkpt>
      <trkpt lat="39.601328" lon="3.295475">
        <ele>71.125</ele>
        <time>2021-09-01T09:49:16Z</time>
      </trkpt>
      <trkpt lat="39.601370" lon="3.295435">
        <ele>71.295</ele>
        <time>2021-09-01T09:49:17Z</time>
      </trkpt>
      <trkpt lat="39.601407" lon="3.295389">
        <ele>71.363</ele>
        <time>2021-09-01T09:49:18Z</time>
      </trkpt>
      <trkpt lat="39.601447" lon="3.295358">
        <ele>71.444</ele>
        <time>2021-09-01T09:49:19Z</time>
      </trkpt>
      <trkpt lat="39.601484" lon="3.295322">
        <ele>71.418</ele>
        <time>2021-09-01T09:49:20Z</time>
      </trkpt>
      <trkpt lat="39.601559" lon="3.295255">
        <ele>71.508</ele>
        <time>2021-09-01T09:49:22Z</time>
      </trkpt>
      <trkpt lat="39.601601" lon="3.295223">
        <ele>71.544</ele>
        <time>2021-09-01T09:49:23Z</time>
      </trkpt>
      <trkpt lat="39.601638" lon="3.295186">
        <ele>71.558</ele>
        <time>2021-09-01T09:49:24Z</time>
      </trkpt>
      <trkpt lat="39.601678" lon="3.295150">
        <ele>71.623</ele>
        <time>2021-09-01T09:49:25Z</time>
      </trkpt>
      <trkpt lat="39.601749" lon="3.295087">
        <ele>71.857</ele>
        <time>2021-09-01T09:49:27Z</time>
      </trkpt>
      <trkpt lat="39.601790" lon="3.295054">
        <ele>72.086</ele>
        <time>2021-09-01T09:49:28Z</time>
      </trkpt>
      <trkpt lat="39.601827" lon="3.295017">
        <ele>72.191</ele>
        <time>2021-09-01T09:49:29Z</time>
      </trkpt>
      <trkpt lat="39.601869" lon="3.294982">
        <ele>72.258</ele>
        <time>2021-09-01T09:49:30Z</time>
      </trkpt>
      <trkpt lat="39.601913" lon="3.294955">
        <ele>72.358</ele>
        <time>2021-09-01T09:49:31Z</time>
      </trkpt>
      <trkpt lat="39.601954" lon="3.294919">
        <ele>72.422</ele>
        <time>2021-09-01T09:49:32Z</time>
      </trkpt>
      <trkpt lat="39.601995" lon="3.294882">
        <ele>72.562</ele>
        <time>2021-09-01T09:49:33Z</time>
      </trkpt>
      <trkpt lat="39.602065" lon="3.294813">
        <ele>72.608</ele>
        <time>2021-09-01T09:49:35Z</time>
      </trkpt>
      <trkpt lat="39.602138" lon="3.294750">
        <ele>72.708</ele>
        <time>2021-09-01T09:49:37Z</time>
      </trkpt>
      <trkpt lat="39.602178" lon="3.294717">
        <ele>72.750</ele>
        <time>2021-09-01T09:49:38Z</time>
      </trkpt>
      <trkpt lat="39.602218" lon="3.294687">
        <ele>72.874</ele>
        <time>2021-09-01T09:49:39Z</time>
      </trkpt>
      <trkpt lat="39.602292" lon="3.294628">
        <ele>72.879</ele>
        <time>2021-09-01T09:49:41Z</time>
      </trkpt>
      <trkpt lat="39.602361" lon="3.294564">
        <ele>72.923</ele>
        <time>2021-09-01T09:49:43Z</time>
      </trkpt>
      <trkpt lat="39.602397" lon="3.294525">
        <ele>73.052</ele>
        <time>2021-09-01T09:49:44Z</time>
      </trkpt>
      <trkpt lat="39.602441" lon="3.294498">
        <ele>73.117</ele>
        <time>2021-09-01T09:49:45Z</time>
      </trkpt>
      <trkpt lat="39.602477" lon="3.294458">
        <ele>73.114</ele>
        <time>2021-09-01T09:49:46Z</time>
      </trkpt>
      <trkpt lat="39.602522" lon="3.294436">
        <ele>73.284</ele>
        <time>2021-09-01T09:49:47Z</time>
      </trkpt>
      <trkpt lat="39.602559" lon="3.294402">
        <ele>73.321</ele>
        <time>2021-09-01T09:49:48Z</time>
      </trkpt>
      <trkpt lat="39.602592" lon="3.294357">
        <ele>73.341</ele>
        <time>2021-09-01T09:49:49Z</time>
      </trkpt>
      <trkpt lat="39.602665" lon="3.294285">
        <ele>73.405</ele>
        <time>2021-09-01T09:49:51Z</time>
      </trkpt>
      <trkpt lat="39.602735" lon="3.294222">
        <ele>73.708</ele>
        <time>2021-09-01T09:49:53Z</time>
      </trkpt>
      <trkpt lat="39.602776" lon="3.294188">
        <ele>73.760</ele>
        <time>2021-09-01T09:49:54Z</time>
      </trkpt>
      <trkpt lat="39.602813" lon="3.294151">
        <ele>73.834</ele>
        <time>2021-09-01T09:49:55Z</time>
      </trkpt>
      <trkpt lat="39.602882" lon="3.294086">
        <ele>74.039</ele>
        <time>2021-09-01T09:49:57Z</time>
      </trkpt>
      <trkpt lat="39.602918" lon="3.294051">
        <ele>74.023</ele>
        <time>2021-09-01T09:49:58Z</time>
      </trkpt>
      <trkpt lat="39.602955" lon="3.294016">
        <ele>74.082</ele>
        <time>2021-09-01T09:49:59Z</time>
      </trkpt>
      <trkpt lat="39.602995" lon="3.293982">
        <ele>74.077</ele>
        <time>2021-09-01T09:50:00Z</time>
      </trkpt>
      <trkpt lat="39.603072" lon="3.293907">
        <ele>74.134</ele>
        <time>2021-09-01T09:50:02Z</time>
      </trkpt>
      <trkpt lat="39.603143" lon="3.293843">
        <ele>74.354</ele>
        <time>2021-09-01T09:50:04Z</time>
      </trkpt>
      <trkpt lat="39.603183" lon="3.293811">
        <ele>74.421</ele>
        <time>2021-09-01T09:50:05Z</time>
      </trkpt>
      <trkpt lat="39.603225" lon="3.293776">
        <ele>74.441</ele>
        <time>2021-09-01T09:50:06Z</time>
      </trkpt>
      <trkpt lat="39.603265" lon="3.293738">
        <ele>74.505</ele>
        <time>2021-09-01T09:50:07Z</time>
      </trkpt>
      <trkpt lat="39.603306" lon="3.293708">
        <ele>74.508</ele>
        <time>2021-09-01T09:50:08Z</time>
      </trkpt>
      <trkpt lat="39.603346" lon="3.293673">
        <ele>74.550</ele>
        <time>2021-09-01T09:50:09Z</time>
      </trkpt>
      <trkpt lat="39.603385" lon="3.293638">
        <ele>74.764</ele>
        <time>2021-09-01T09:50:10Z</time>
      </trkpt>
      <trkpt lat="39.603424" lon="3.293603">
        <ele>74.879</ele>
        <time>2021-09-01T09:50:11Z</time>
      </trkpt>
      <trkpt lat="39.603468" lon="3.293568">
        <ele>75.053</ele>
        <time>2021-09-01T09:50:12Z</time>
      </trkpt>
      <trkpt lat="39.603511" lon="3.293534">
        <ele>75.192</ele>
        <time>2021-09-01T09:50:13Z</time>
      </trkpt>
      <trkpt lat="39.603554" lon="3.293498">
        <ele>75.337</ele>
        <time>2021-09-01T09:50:14Z</time>
      </trkpt>
      <trkpt lat="39.603589" lon="3.293457">
        <ele>75.474</ele>
        <time>2021-09-01T09:50:15Z</time>
      </trkpt>
      <trkpt lat="39.603661" lon="3.293393">
        <ele>75.654</ele>
        <time>2021-09-01T09:50:17Z</time>
      </trkpt>
      <trkpt lat="39.603703" lon="3.293360">
        <ele>75.784</ele>
        <time>2021-09-01T09:50:18Z</time>
      </trkpt>
      <trkpt lat="39.603748" lon="3.293327">
        <ele>75.707</ele>
        <time>2021-09-01T09:50:19Z</time>
      </trkpt>
      <trkpt lat="39.603787" lon="3.293287">
        <ele>75.717</ele>
        <time>2021-09-01T09:50:20Z</time>
      </trkpt>
      <trkpt lat="39.603821" lon="3.293246">
        <ele>75.708</ele>
        <time>2021-09-01T09:50:21Z</time>
      </trkpt>
      <trkpt lat="39.603858" lon="3.293212">
        <ele>75.826</ele>
        <time>2021-09-01T09:50:22Z</time>
      </trkpt>
      <trkpt lat="39.603902" lon="3.293178">
        <ele>75.840</ele>
        <time>2021-09-01T09:50:23Z</time>
      </trkpt>
      <trkpt lat="39.603943" lon="3.293137">
        <ele>75.975</ele>
        <time>2021-09-01T09:50:24Z</time>
      </trkpt>
      <trkpt lat="39.603983" lon="3.293103">
        <ele>76.039</ele>
        <time>2021-09-01T09:50:25Z</time>
      </trkpt>
      <trkpt lat="39.604022" lon="3.293070">
        <ele>76.198</ele>
        <time>2021-09-01T09:50:26Z</time>
      </trkpt>
      <trkpt lat="39.604062" lon="3.293037">
        <ele>76.283</ele>
        <time>2021-09-01T09:50:27Z</time>
      </trkpt>
      <trkpt lat="39.604129" lon="3.292971">
        <ele>76.640</ele>
        <time>2021-09-01T09:50:29Z</time>
      </trkpt>
      <trkpt lat="39.604198" lon="3.292915">
        <ele>76.950</ele>
        <time>2021-09-01T09:50:31Z</time>
      </trkpt>
      <trkpt lat="39.604266" lon="3.292849">
        <ele>77.012</ele>
        <time>2021-09-01T09:50:33Z</time>
      </trkpt>
      <trkpt lat="39.604338" lon="3.292787">
        <ele>77.032</ele>
        <time>2021-09-01T09:50:35Z</time>
      </trkpt>
      <trkpt lat="39.604381" lon="3.292753">
        <ele>77.005</ele>
        <time>2021-09-01T09:50:36Z</time>
      </trkpt>
      <trkpt lat="39.604417" lon="3.292711">
        <ele>77.008</ele>
        <time>2021-09-01T09:50:37Z</time>
      </trkpt>
      <trkpt lat="39.604457" lon="3.292673">
        <ele>77.059</ele>
        <time>2021-09-01T09:50:38Z</time>
      </trkpt>
      <trkpt lat="39.604498" lon="3.292633">
        <ele>77.173</ele>
        <time>2021-09-01T09:50:39Z</time>
      </trkpt>
      <trkpt lat="39.604537" lon="3.292593">
        <ele>77.178</ele>
        <time>2021-09-01T09:50:40Z</time>
      </trkpt>
      <trkpt lat="39.604576" lon="3.292556">
        <ele>77.132</ele>
        <time>2021-09-01T09:50:41Z</time>
      </trkpt>
      <trkpt lat="39.604615" lon="3.292516">
        <ele>77.131</ele>
        <time>2021-09-01T09:50:42Z</time>
      </trkpt>
      <trkpt lat="39.604651" lon="3.292479">
        <ele>77.136</ele>
        <time>2021-09-01T09:50:43Z</time>
      </trkpt>
      <trkpt lat="39.604690" lon="3.292436">
        <ele>77.213</ele>
        <time>2021-09-01T09:50:44Z</time>
      </trkpt>
      <trkpt lat="39.604731" lon="3.292394">
        <ele>77.343</ele>
        <time>2021-09-01T09:50:45Z</time>
      </trkpt>
      <trkpt lat="39.604771" lon="3.292350">
        <ele>77.477</ele>
        <time>2021-09-01T09:50:46Z</time>
      </trkpt>
      <trkpt lat="39.604808" lon="3.292306">
        <ele>77.461</ele>
        <time>2021-09-01T09:50:47Z</time>
      </trkpt>
      <trkpt lat="39.604847" lon="3.292262">
        <ele>77.527</ele>
        <time>2021-09-01T09:50:48Z</time>
      </trkpt>
      <trkpt lat="39.604884" lon="3.292219">
        <ele>77.508</ele>
        <time>2021-09-01T09:50:49Z</time>
      </trkpt>
      <trkpt lat="39.604921" lon="3.292175">
        <ele>77.545</ele>
        <time>2021-09-01T09:50:50Z</time>
      </trkpt>
      <trkpt lat="39.604958" lon="3.292131">
        <ele>77.459</ele>
        <time>2021-09-01T09:50:51Z</time>
      </trkpt>
      <trkpt lat="39.604996" lon="3.292088">
        <ele>77.484</ele>
        <time>2021-09-01T09:50:52Z</time>
      </trkpt>
      <trkpt lat="39.605032" lon="3.292043">
        <ele>77.538</ele>
        <time>2021-09-01T09:50:53Z</time>
      </trkpt>
      <trkpt lat="39.605071" lon="3.291998">
        <ele>77.647</ele>
        <time>2021-09-01T09:50:54Z</time>
      </trkpt>
      <trkpt lat="39.605106" lon="3.291952">
        <ele>77.732</ele>
        <time>2021-09-01T09:50:55Z</time>
      </trkpt>
      <trkpt lat="39.605140" lon="3.291906">
        <ele>77.789</ele>
        <time>2021-09-01T09:50:56Z</time>
      </trkpt>
      <trkpt lat="39.605171" lon="3.291861">
        <ele>77.749</ele>
        <time>2021-09-01T09:50:57Z</time>
      </trkpt>
      <trkpt lat="39.605232" lon="3.291767">
        <ele>77.772</ele>
        <time>2021-09-01T09:50:59Z</time>
      </trkpt>
      <trkpt lat="39.605267" lon="3.291718">
        <ele>77.713</ele>
        <time>2021-09-01T09:51:00Z</time>
      </trkpt>
      <trkpt lat="39.605301" lon="3.291666">
        <ele>77.814</ele>
        <time>2021-09-01T09:51:01Z</time>
      </trkpt>
      <trkpt lat="39.605335" lon="3.291615">
        <ele>77.908</ele>
        <time>2021-09-01T09:51:02Z</time>
      </trkpt>
      <trkpt lat="39.605371" lon="3.291568">
        <ele>78.045</ele>
        <time>2021-09-01T09:51:03Z</time>
      </trkpt>
      <trkpt lat="39.605402" lon="3.291515">
        <ele>78.129</ele>
        <time>2021-09-01T09:51:04Z</time>
      </trkpt>
      <trkpt lat="39.605436" lon="3.291464">
        <ele>78.164</ele>
        <time>2021-09-01T09:51:05Z</time>
      </trkpt>
      <trkpt lat="39.605471" lon="3.291411">
        <ele>78.288</ele>
        <time>2021-09-01T09:51:06Z</time>
      </trkpt>
      <trkpt lat="39.605501" lon="3.291360">
        <ele>78.227</ele>
        <time>2021-09-01T09:51:07Z</time>
      </trkpt>
      <trkpt lat="39.605535" lon="3.291310">
        <ele>78.292</ele>
        <time>2021-09-01T09:51:08Z</time>
      </trkpt>
      <trkpt lat="39.605568" lon="3.291254">
        <ele>78.399</ele>
        <time>2021-09-01T09:51:09Z</time>
      </trkpt>
      <trkpt lat="39.605601" lon="3.291201">
        <ele>78.489</ele>
        <time>2021-09-01T09:51:10Z</time>
      </trkpt>
      <trkpt lat="39.605633" lon="3.291148">
        <ele>78.467</ele>
        <time>2021-09-01T09:51:11Z</time>
      </trkpt>
      <trkpt lat="39.605663" lon="3.291094">
        <ele>78.581</ele>
        <time>2021-09-01T09:51:12Z</time>
      </trkpt>
      <trkpt lat="39.605691" lon="3.291038">
        <ele>78.619</ele>
        <time>2021-09-01T09:51:13Z</time>
      </trkpt>
      <trkpt lat="39.605722" lon="3.290980">
        <ele>78.708</ele>
        <time>2021-09-01T09:51:14Z</time>
      </trkpt>
      <trkpt lat="39.605752" lon="3.290921">
        <ele>78.884</ele>
        <time>2021-09-01T09:51:15Z</time>
      </trkpt>
      <trkpt lat="39.605786" lon="3.290864">
        <ele>78.958</ele>
        <time>2021-09-01T09:51:16Z</time>
      </trkpt>
      <trkpt lat="39.605819" lon="3.290812">
        <ele>78.923</ele>
        <time>2021-09-01T09:51:17Z</time>
      </trkpt>
      <trkpt lat="39.605847" lon="3.290754">
        <ele>79.067</ele>
        <time>2021-09-01T09:51:18Z</time>
      </trkpt>
      <trkpt lat="39.605873" lon="3.290694">
        <ele>79.136</ele>
        <time>2021-09-01T09:51:19Z</time>
      </trkpt>
      <trkpt lat="39.605900" lon="3.290638">
        <ele>79.181</ele>
        <time>2021-09-01T09:51:20Z</time>
      </trkpt>
      <trkpt lat="39.605926" lon="3.290580">
        <ele>79.248</ele>
        <time>2021-09-01T09:51:21Z</time>
      </trkpt>
      <trkpt lat="39.605953" lon="3.290522">
        <ele>79.318</ele>
        <time>2021-09-01T09:51:22Z</time>
      </trkpt>
      <trkpt lat="39.605980" lon="3.290465">
        <ele>79.468</ele>
        <time>2021-09-01T09:51:23Z</time>
      </trkpt>
      <trkpt lat="39.606006" lon="3.290404">
        <ele>79.442</ele>
        <time>2021-09-01T09:51:24Z</time>
      </trkpt>
      <trkpt lat="39.606028" lon="3.290342">
        <ele>79.426</ele>
        <time>2021-09-01T09:51:25Z</time>
      </trkpt>
      <trkpt lat="39.606053" lon="3.290279">
        <ele>79.508</ele>
        <time>2021-09-01T09:51:26Z</time>
      </trkpt>
      <trkpt lat="39.606077" lon="3.290219">
        <ele>79.574</ele>
        <time>2021-09-01T09:51:27Z</time>
      </trkpt>
      <trkpt lat="39.606104" lon="3.290155">
        <ele>79.568</ele>
        <time>2021-09-01T09:51:28Z</time>
      </trkpt>
      <trkpt lat="39.606127" lon="3.290093">
        <ele>79.513</ele>
        <time>2021-09-01T09:51:29Z</time>
      </trkpt>
      <trkpt lat="39.606149" lon="3.290028">
        <ele>79.647</ele>
        <time>2021-09-01T09:51:30Z</time>
      </trkpt>
      <trkpt lat="39.606171" lon="3.289961">
        <ele>79.626</ele>
        <time>2021-09-01T09:51:31Z</time>
      </trkpt>
      <trkpt lat="39.606195" lon="3.289897">
        <ele>79.721</ele>
        <time>2021-09-01T09:51:32Z</time>
      </trkpt>
      <trkpt lat="39.606215" lon="3.289836">
        <ele>79.858</ele>
        <time>2021-09-01T09:51:33Z</time>
      </trkpt>
      <trkpt lat="39.606238" lon="3.289773">
        <ele>79.948</ele>
        <time>2021-09-01T09:51:34Z</time>
      </trkpt>
      <trkpt lat="39.606262" lon="3.289709">
        <ele>80.071</ele>
        <time>2021-09-01T09:51:35Z</time>
      </trkpt>
      <trkpt lat="39.606283" lon="3.289646">
        <ele>80.141</ele>
        <time>2021-09-01T09:51:36Z</time>
      </trkpt>
      <trkpt lat="39.606306" lon="3.289582">
        <ele>80.215</ele>
        <time>2021-09-01T09:51:37Z</time>
      </trkpt>
      <trkpt lat="39.606328" lon="3.289521">
        <ele>80.308</ele>
        <time>2021-09-01T09:51:38Z</time>
      </trkpt>
      <trkpt lat="39.606347" lon="3.289459">
        <ele>80.425</ele>
        <time>2021-09-01T09:51:39Z</time>
      </trkpt>
      <trkpt lat="39.606370" lon="3.289397">
        <ele>80.529</ele>
        <time>2021-09-01T09:51:40Z</time>
      </trkpt>
      <trkpt lat="39.606387" lon="3.289339">
        <ele>80.564</ele>
        <time>2021-09-01T09:51:41Z</time>
      </trkpt>
      <trkpt lat="39.606405" lon="3.289279">
        <ele>80.698</ele>
        <time>2021-09-01T09:51:42Z</time>
      </trkpt>
      <trkpt lat="39.606422" lon="3.289218">
        <ele>80.787</ele>
        <time>2021-09-01T09:51:43Z</time>
      </trkpt>
      <trkpt lat="39.606451" lon="3.289111">
        <ele>80.822</ele>
        <time>2021-09-01T09:51:45Z</time>
      </trkpt>
      <trkpt lat="39.606471" lon="3.288997">
        <ele>81.039</ele>
        <time>2021-09-01T09:51:47Z</time>
      </trkpt>
      <trkpt lat="39.606480" lon="3.288936">
        <ele>81.149</ele>
        <time>2021-09-01T09:51:48Z</time>
      </trkpt>
      <trkpt lat="39.606484" lon="3.288876">
        <ele>81.189</ele>
        <time>2021-09-01T09:51:49Z</time>
      </trkpt>
      <trkpt lat="39.606496" lon="3.288812">
        <ele>81.106</ele>
        <time>2021-09-01T09:51:50Z</time>
      </trkpt>
      <trkpt lat="39.606511" lon="3.288745">
        <ele>81.126</ele>
        <time>2021-09-01T09:51:51Z</time>
      </trkpt>
      <trkpt lat="39.606521" lon="3.288676">
        <ele>81.108</ele>
        <time>2021-09-01T09:51:52Z</time>
      </trkpt>
      <trkpt lat="39.606535" lon="3.288610">
        <ele>81.136</ele>
        <time>2021-09-01T09:51:53Z</time>
      </trkpt>
      <trkpt lat="39.606560" lon="3.288502">
        <ele>81.170</ele>
        <time>2021-09-01T09:51:55Z</time>
      </trkpt>
      <trkpt lat="39.606574" lon="3.288388">
        <ele>81.155</ele>
        <time>2021-09-01T09:51:57Z</time>
      </trkpt>
      <trkpt lat="39.606581" lon="3.288330">
        <ele>81.259</ele>
        <time>2021-09-01T09:51:58Z</time>
      </trkpt>
      <trkpt lat="39.606588" lon="3.288269">
        <ele>81.358</ele>
        <time>2021-09-01T09:51:59Z</time>
      </trkpt>
      <trkpt lat="39.606601" lon="3.288167">
        <ele>81.463</ele>
        <time>2021-09-01T09:52:01Z</time>
      </trkpt>
      <trkpt lat="39.606608" lon="3.288067">
        <ele>81.540</ele>
        <time>2021-09-01T09:52:03Z</time>
      </trkpt>
      <trkpt lat="39.606619" lon="3.287963">
        <ele>81.610</ele>
        <time>2021-09-01T09:52:05Z</time>
      </trkpt>
      <trkpt lat="39.606631" lon="3.287853">
        <ele>81.736</ele>
        <time>2021-09-01T09:52:07Z</time>
      </trkpt>
      <trkpt lat="39.606643" lon="3.287753">
        <ele>81.717</ele>
        <time>2021-09-01T09:52:09Z</time>
      </trkpt>
      <trkpt lat="39.606653" lon="3.287654">
        <ele>81.918</ele>
        <time>2021-09-01T09:52:11Z</time>
      </trkpt>
      <trkpt lat="39.606657" lon="3.287554">
        <ele>82.008</ele>
        <time>2021-09-01T09:52:13Z</time>
      </trkpt>
      <trkpt lat="39.606653" lon="3.287438">
        <ele>82.111</ele>
        <time>2021-09-01T09:52:15Z</time>
      </trkpt>
      <trkpt lat="39.606654" lon="3.287317">
        <ele>82.195</ele>
        <time>2021-09-01T09:52:17Z</time>
      </trkpt>
      <trkpt lat="39.606659" lon="3.287255">
        <ele>82.220</ele>
        <time>2021-09-01T09:52:18Z</time>
      </trkpt>
      <trkpt lat="39.606660" lon="3.287194">
        <ele>82.384</ele>
        <time>2021-09-01T09:52:19Z</time>
      </trkpt>
      <trkpt lat="39.606671" lon="3.287132">
        <ele>82.383</ele>
        <time>2021-09-01T09:52:20Z</time>
      </trkpt>
      <trkpt lat="39.606681" lon="3.287070">
        <ele>82.378</ele>
        <time>2021-09-01T09:52:21Z</time>
      </trkpt>
      <trkpt lat="39.606686" lon="3.286961">
        <ele>82.335</ele>
        <time>2021-09-01T09:52:23Z</time>
      </trkpt>
      <trkpt lat="39.606695" lon="3.286839">
        <ele>82.015</ele>
        <time>2021-09-01T09:52:25Z</time>
      </trkpt>
      <trkpt lat="39.606698" lon="3.286776">
        <ele>82.072</ele>
        <time>2021-09-01T09:52:26Z</time>
      </trkpt>
      <trkpt lat="39.606705" lon="3.286710">
        <ele>81.913</ele>
        <time>2021-09-01T09:52:27Z</time>
      </trkpt>
      <trkpt lat="39.606709" lon="3.286646">
        <ele>81.914</ele>
        <time>2021-09-01T09:52:28Z</time>
      </trkpt>
      <trkpt lat="39.606721" lon="3.286584">
        <ele>81.908</ele>
        <time>2021-09-01T09:52:29Z</time>
      </trkpt>
      <trkpt lat="39.606731" lon="3.286524">
        <ele>81.965</ele>
        <time>2021-09-01T09:52:30Z</time>
      </trkpt>
      <trkpt lat="39.606737" lon="3.286463">
        <ele>81.989</ele>
        <time>2021-09-01T09:52:31Z</time>
      </trkpt>
      <trkpt lat="39.606747" lon="3.286404">
        <ele>82.064</ele>
        <time>2021-09-01T09:52:32Z</time>
      </trkpt>
      <trkpt lat="39.606749" lon="3.286339">
        <ele>82.078</ele>
        <time>2021-09-01T09:52:33Z</time>
      </trkpt>
      <trkpt lat="39.606756" lon="3.286268">
        <ele>82.097</ele>
        <time>2021-09-01T09:52:34Z</time>
      </trkpt>
      <trkpt lat="39.606764" lon="3.286192">
        <ele>81.972</ele>
        <time>2021-09-01T09:52:35Z</time>
      </trkpt>
      <trkpt lat="39.606773" lon="3.286114">
        <ele>81.889</ele>
        <time>2021-09-01T09:52:36Z</time>
      </trkpt>
      <trkpt lat="39.606781" lon="3.286042">
        <ele>81.619</ele>
        <time>2021-09-01T09:52:37Z</time>
      </trkpt>
      <trkpt lat="39.606786" lon="3.285965">
        <ele>81.541</ele>
        <time>2021-09-01T09:52:38Z</time>
      </trkpt>
      <trkpt lat="39.606792" lon="3.285888">
        <ele>81.381</ele>
        <time>2021-09-01T09:52:39Z</time>
      </trkpt>
      <trkpt lat="39.606804" lon="3.285813">
        <ele>81.309</ele>
        <time>2021-09-01T09:52:40Z</time>
      </trkpt>
      <trkpt lat="39.606817" lon="3.285738">
        <ele>81.308</ele>
        <time>2021-09-01T09:52:41Z</time>
      </trkpt>
      <trkpt lat="39.606829" lon="3.285659">
        <ele>81.322</ele>
        <time>2021-09-01T09:52:42Z</time>
      </trkpt>
      <trkpt lat="39.606832" lon="3.285585">
        <ele>81.326</ele>
        <time>2021-09-01T09:52:43Z</time>
      </trkpt>
      <trkpt lat="39.606835" lon="3.285511">
        <ele>81.451</ele>
        <time>2021-09-01T09:52:44Z</time>
      </trkpt>
      <trkpt lat="39.606841" lon="3.285442">
        <ele>81.455</ele>
        <time>2021-09-01T09:52:45Z</time>
      </trkpt>
      <trkpt lat="39.606847" lon="3.285372">
        <ele>81.574</ele>
        <time>2021-09-01T09:52:46Z</time>
      </trkpt>
      <trkpt lat="39.606852" lon="3.285303">
        <ele>81.569</ele>
        <time>2021-09-01T09:52:47Z</time>
      </trkpt>
      <trkpt lat="39.606857" lon="3.285231">
        <ele>81.546</ele>
        <time>2021-09-01T09:52:48Z</time>
      </trkpt>
      <trkpt lat="39.606867" lon="3.285156">
        <ele>81.516</ele>
        <time>2021-09-01T09:52:49Z</time>
      </trkpt>
      <trkpt lat="39.606876" lon="3.285083">
        <ele>81.588</ele>
        <time>2021-09-01T09:52:50Z</time>
      </trkpt>
      <trkpt lat="39.606882" lon="3.285011">
        <ele>81.524</ele>
        <time>2021-09-01T09:52:51Z</time>
      </trkpt>
      <trkpt lat="39.606891" lon="3.284939">
        <ele>81.626</ele>
        <time>2021-09-01T09:52:52Z</time>
      </trkpt>
      <trkpt lat="39.606895" lon="3.284805">
        <ele>81.708</ele>
        <time>2021-09-01T09:52:54Z</time>
      </trkpt>
      <trkpt lat="39.606898" lon="3.284734">
        <ele>81.896</ele>
        <time>2021-09-01T09:52:55Z</time>
      </trkpt>
      <trkpt lat="39.606906" lon="3.284657">
        <ele>81.860</ele>
        <time>2021-09-01T09:52:56Z</time>
      </trkpt>
      <trkpt lat="39.606913" lon="3.284588">
        <ele>81.695</ele>
        <time>2021-09-01T09:52:57Z</time>
      </trkpt>
      <trkpt lat="39.606925" lon="3.284511">
        <ele>81.619</ele>
        <time>2021-09-01T09:52:58Z</time>
      </trkpt>
      <trkpt lat="39.606934" lon="3.284432">
        <ele>81.418</ele>
        <time>2021-09-01T09:52:59Z</time>
      </trkpt>
      <trkpt lat="39.606939" lon="3.284358">
        <ele>81.423</ele>
        <time>2021-09-01T09:53:00Z</time>
      </trkpt>
      <trkpt lat="39.606940" lon="3.284292">
        <ele>81.370</ele>
        <time>2021-09-01T09:53:01Z</time>
      </trkpt>
      <trkpt lat="39.606937" lon="3.284232">
        <ele>81.360</ele>
        <time>2021-09-01T09:53:02Z</time>
      </trkpt>
      <trkpt lat="39.606935" lon="3.284168">
        <ele>81.495</ele>
        <time>2021-09-01T09:53:03Z</time>
      </trkpt>
      <trkpt lat="39.606934" lon="3.284108">
        <ele>81.449</ele>
        <time>2021-09-01T09:53:04Z</time>
      </trkpt>
      <trkpt lat="39.606938" lon="3.284049">
        <ele>81.423</ele>
        <time>2021-09-01T09:53:05Z</time>
      </trkpt>
      <trkpt lat="39.606946" lon="3.283984">
        <ele>81.408</ele>
        <time>2021-09-01T09:53:06Z</time>
      </trkpt>
      <trkpt lat="39.606958" lon="3.283916">
        <ele>81.437</ele>
        <time>2021-09-01T09:53:07Z</time>
      </trkpt>
      <trkpt lat="39.606968" lon="3.283851">
        <ele>81.451</ele>
        <time>2021-09-01T09:53:08Z</time>
      </trkpt>
      <trkpt lat="39.606970" lon="3.283740">
        <ele>81.466</ele>
        <time>2021-09-01T09:53:10Z</time>
      </trkpt>
      <trkpt lat="39.606985" lon="3.283623">
        <ele>81.680</ele>
        <time>2021-09-01T09:53:12Z</time>
      </trkpt>
      <trkpt lat="39.606995" lon="3.283562">
        <ele>81.859</ele>
        <time>2021-09-01T09:53:13Z</time>
      </trkpt>
      <trkpt lat="39.607018" lon="3.283496">
        <ele>81.974</ele>
        <time>2021-09-01T09:53:14Z</time>
      </trkpt>
      <trkpt lat="39.607012" lon="3.283419">
        <ele>82.381</ele>
        <time>2021-09-01T09:53:16Z</time>
      </trkpt>
      <trkpt lat="39.607025" lon="3.283325">
        <ele>82.641</ele>
        <time>2021-09-01T09:53:18Z</time>
      </trkpt>
      <trkpt lat="39.607030" lon="3.283246">
        <ele>82.759</ele>
        <time>2021-09-01T09:53:20Z</time>
      </trkpt>
      <trkpt lat="39.607038" lon="3.283183">
        <ele>82.803</ele>
        <time>2021-09-01T09:53:22Z</time>
      </trkpt>
      <trkpt lat="39.606944" lon="3.283161">
        <ele>82.323</ele>
        <time>2021-09-01T09:54:47Z</time>
      </trkpt>
      <trkpt lat="39.606922" lon="3.283090">
        <ele>82.708</ele>
        <time>2021-09-01T09:54:50Z</time>
      </trkpt>
      <trkpt lat="39.606892" lon="3.283040">
        <ele>82.913</ele>
        <time>2021-09-01T09:54:52Z</time>
      </trkpt>
      <trkpt lat="39.606852" lon="3.282986">
        <ele>82.927</ele>
        <time>2021-09-01T09:54:54Z</time>
      </trkpt>
      <trkpt lat="39.606820" lon="3.282923">
        <ele>82.862</ele>
        <time>2021-09-01T09:54:56Z</time>
      </trkpt>
      <trkpt lat="39.606782" lon="3.282860">
        <ele>82.536</ele>
        <time>2021-09-01T09:54:58Z</time>
      </trkpt>
      <trkpt lat="39.606740" lon="3.282787">
        <ele>82.445</ele>
        <time>2021-09-01T09:55:00Z</time>
      </trkpt>
      <trkpt lat="39.606702" lon="3.282716">
        <ele>82.760</ele>
        <time>2021-09-01T09:55:02Z</time>
      </trkpt>
      <trkpt lat="39.606659" lon="3.282646">
        <ele>83.167</ele>
        <time>2021-09-01T09:55:04Z</time>
      </trkpt>
      <trkpt lat="39.606633" lon="3.282554">
        <ele>83.427</ele>
        <time>2021-09-01T09:55:06Z</time>
      </trkpt>
      <trkpt lat="39.606644" lon="3.282495">
        <ele>83.431</ele>
        <time>2021-09-01T09:55:07Z</time>
      </trkpt>
      <trkpt lat="39.606705" lon="3.282417">
        <ele>83.561</ele>
        <time>2021-09-01T09:55:08Z</time>
      </trkpt>
      <trkpt lat="39.606768" lon="3.282304">
        <ele>83.507</ele>
        <time>2021-09-01T09:55:09Z</time>
      </trkpt>
      <trkpt lat="39.606811" lon="3.282199">
        <ele>83.408</ele>
        <time>2021-09-01T09:55:10Z</time>
      </trkpt>
      <trkpt lat="39.606861" lon="3.282144">
        <ele>83.311</ele>
        <time>2021-09-01T09:55:11Z</time>
      </trkpt>
      <trkpt lat="39.606857" lon="3.282061">
        <ele>83.155</ele>
        <time>2021-09-01T09:55:13Z</time>
      </trkpt>
      <trkpt lat="39.606854" lon="3.281989">
        <ele>82.920</ele>
        <time>2021-09-01T09:55:15Z</time>
      </trkpt>
      <trkpt lat="39.606861" lon="3.281930">
        <ele>82.964</ele>
        <time>2021-09-01T09:55:17Z</time>
      </trkpt>
      <trkpt lat="39.606853" lon="3.281853">
        <ele>82.873</ele>
        <time>2021-09-01T09:55:19Z</time>
      </trkpt>
      <trkpt lat="39.606841" lon="3.281762">
        <ele>82.838</ele>
        <time>2021-09-01T09:55:21Z</time>
      </trkpt>
      <trkpt lat="39.606830" lon="3.281670">
        <ele>82.865</ele>
        <time>2021-09-01T09:55:23Z</time>
      </trkpt>
      <trkpt lat="39.606815" lon="3.281589">
        <ele>82.995</ele>
        <time>2021-09-01T09:55:25Z</time>
      </trkpt>
      <trkpt lat="39.606796" lon="3.281512">
        <ele>82.943</ele>
        <time>2021-09-01T09:55:27Z</time>
      </trkpt>
      <trkpt lat="39.606780" lon="3.281445">
        <ele>83.064</ele>
        <time>2021-09-01T09:55:29Z</time>
      </trkpt>
      <trkpt lat="39.606759" lon="3.281374">
        <ele>82.910</ele>
        <time>2021-09-01T09:55:31Z</time>
      </trkpt>
      <trkpt lat="39.606746" lon="3.281285">
        <ele>82.908</ele>
        <time>2021-09-01T09:55:33Z</time>
      </trkpt>
      <trkpt lat="39.606728" lon="3.281188">
        <ele>83.072</ele>
        <time>2021-09-01T09:55:35Z</time>
      </trkpt>
      <trkpt lat="39.606712" lon="3.281088">
        <ele>83.236</ele>
        <time>2021-09-01T09:55:37Z</time>
      </trkpt>
      <trkpt lat="39.606688" lon="3.280983">
        <ele>83.461</ele>
        <time>2021-09-01T09:55:39Z</time>
      </trkpt>
      <trkpt lat="39.606674" lon="3.280927">
        <ele>83.535</ele>
        <time>2021-09-01T09:55:40Z</time>
      </trkpt>
      <trkpt lat="39.606652" lon="3.280815">
        <ele>83.664</ele>
        <time>2021-09-01T09:55:42Z</time>
      </trkpt>
      <trkpt lat="39.606630" lon="3.280704">
        <ele>83.879</ele>
        <time>2021-09-01T09:55:44Z</time>
      </trkpt>
      <trkpt lat="39.606616" lon="3.280645">
        <ele>83.966</ele>
        <time>2021-09-01T09:55:45Z</time>
      </trkpt>
      <trkpt lat="39.606582" lon="3.280532">
        <ele>84.056</ele>
        <time>2021-09-01T09:55:47Z</time>
      </trkpt>
      <trkpt lat="39.606565" lon="3.280471">
        <ele>84.075</ele>
        <time>2021-09-01T09:55:48Z</time>
      </trkpt>
      <trkpt lat="39.606550" lon="3.280411">
        <ele>84.028</ele>
        <time>2021-09-01T09:55:49Z</time>
      </trkpt>
      <trkpt lat="39.606530" lon="3.280351">
        <ele>84.020</ele>
        <time>2021-09-01T09:55:50Z</time>
      </trkpt>
      <trkpt lat="39.606512" lon="3.280291">
        <ele>84.108</ele>
        <time>2021-09-01T09:55:51Z</time>
      </trkpt>
      <trkpt lat="39.606495" lon="3.280232">
        <ele>84.125</ele>
        <time>2021-09-01T09:55:52Z</time>
      </trkpt>
      <trkpt lat="39.606478" lon="3.280172">
        <ele>84.269</ele>
        <time>2021-09-01T09:55:53Z</time>
      </trkpt>
      <trkpt lat="39.606459" lon="3.280113">
        <ele>84.224</ele>
        <time>2021-09-01T09:55:54Z</time>
      </trkpt>
      <trkpt lat="39.606440" lon="3.280052">
        <ele>84.328</ele>
        <time>2021-09-01T09:55:55Z</time>
      </trkpt>
      <trkpt lat="39.606423" lon="3.279989">
        <ele>84.397</ele>
        <time>2021-09-01T09:55:56Z</time>
      </trkpt>
      <trkpt lat="39.606406" lon="3.279928">
        <ele>84.442</ele>
        <time>2021-09-01T09:55:57Z</time>
      </trkpt>
      <trkpt lat="39.606388" lon="3.279864">
        <ele>84.539</ele>
        <time>2021-09-01T09:55:58Z</time>
      </trkpt>
      <trkpt lat="39.606363" lon="3.279799">
        <ele>84.639</ele>
        <time>2021-09-01T09:55:59Z</time>
      </trkpt>
      <trkpt lat="39.606347" lon="3.279735">
        <ele>84.722</ele>
        <time>2021-09-01T09:56:00Z</time>
      </trkpt>
      <trkpt lat="39.606330" lon="3.279676">
        <ele>84.962</ele>
        <time>2021-09-01T09:56:01Z</time>
      </trkpt>
      <trkpt lat="39.606308" lon="3.279618">
        <ele>85.008</ele>
        <time>2021-09-01T09:56:02Z</time>
      </trkpt>
      <trkpt lat="39.606289" lon="3.279556">
        <ele>85.208</ele>
        <time>2021-09-01T09:56:03Z</time>
      </trkpt>
      <trkpt lat="39.606271" lon="3.279494">
        <ele>85.320</ele>
        <time>2021-09-01T09:56:04Z</time>
      </trkpt>
      <trkpt lat="39.606249" lon="3.279435">
        <ele>85.344</ele>
        <time>2021-09-01T09:56:05Z</time>
      </trkpt>
      <trkpt lat="39.606227" lon="3.279376">
        <ele>85.439</ele>
        <time>2021-09-01T09:56:06Z</time>
      </trkpt>
      <trkpt lat="39.606206" lon="3.279319">
        <ele>85.573</ele>
        <time>2021-09-01T09:56:07Z</time>
      </trkpt>
      <trkpt lat="39.606184" lon="3.279261">
        <ele>85.552</ele>
        <time>2021-09-01T09:56:08Z</time>
      </trkpt>
      <trkpt lat="39.606162" lon="3.279198">
        <ele>85.617</ele>
        <time>2021-09-01T09:56:09Z</time>
      </trkpt>
      <trkpt lat="39.606134" lon="3.279141">
        <ele>85.624</ele>
        <time>2021-09-01T09:56:10Z</time>
      </trkpt>
      <trkpt lat="39.606111" lon="3.279084">
        <ele>85.734</ele>
        <time>2021-09-01T09:56:11Z</time>
      </trkpt>
      <trkpt lat="39.606086" lon="3.279024">
        <ele>85.764</ele>
        <time>2021-09-01T09:56:12Z</time>
      </trkpt>
      <trkpt lat="39.606061" lon="3.278969">
        <ele>85.806</ele>
        <time>2021-09-01T09:56:13Z</time>
      </trkpt>
      <trkpt lat="39.606038" lon="3.278916">
        <ele>86.016</ele>
        <time>2021-09-01T09:56:14Z</time>
      </trkpt>
      <trkpt lat="39.606015" lon="3.278862">
        <ele>86.108</ele>
        <time>2021-09-01T09:56:15Z</time>
      </trkpt>
      <trkpt lat="39.605992" lon="3.278807">
        <ele>86.374</ele>
        <time>2021-09-01T09:56:16Z</time>
      </trkpt>
      <trkpt lat="39.605944" lon="3.278708">
        <ele>86.558</ele>
        <time>2021-09-01T09:56:18Z</time>
      </trkpt>
      <trkpt lat="39.605920" lon="3.278652">
        <ele>86.583</ele>
        <time>2021-09-01T09:56:19Z</time>
      </trkpt>
      <trkpt lat="39.605890" lon="3.278598">
        <ele>86.497</ele>
        <time>2021-09-01T09:56:20Z</time>
      </trkpt>
      <trkpt lat="39.605844" lon="3.278494">
        <ele>86.466</ele>
        <time>2021-09-01T09:56:22Z</time>
      </trkpt>
      <trkpt lat="39.605819" lon="3.278444">
        <ele>86.471</ele>
        <time>2021-09-01T09:56:23Z</time>
      </trkpt>
      <trkpt lat="39.605794" lon="3.278390">
        <ele>86.528</ele>
        <time>2021-09-01T09:56:24Z</time>
      </trkpt>
      <trkpt lat="39.605771" lon="3.278334">
        <ele>86.688</ele>
        <time>2021-09-01T09:56:25Z</time>
      </trkpt>
      <trkpt lat="39.605748" lon="3.278282">
        <ele>86.641</ele>
        <time>2021-09-01T09:56:26Z</time>
      </trkpt>
      <trkpt lat="39.605725" lon="3.278230">
        <ele>86.781</ele>
        <time>2021-09-01T09:56:27Z</time>
      </trkpt>
      <trkpt lat="39.605682" lon="3.278137">
        <ele>86.809</ele>
        <time>2021-09-01T09:56:29Z</time>
      </trkpt>
      <trkpt lat="39.605637" lon="3.278041">
        <ele>87.008</ele>
        <time>2021-09-01T09:56:31Z</time>
      </trkpt>
      <trkpt lat="39.605583" lon="3.277951">
        <ele>87.242</ele>
        <time>2021-09-01T09:56:33Z</time>
      </trkpt>
      <trkpt lat="39.605528" lon="3.277862">
        <ele>87.466</ele>
        <time>2021-09-01T09:56:35Z</time>
      </trkpt>
      <trkpt lat="39.605500" lon="3.277811">
        <ele>87.581</ele>
        <time>2021-09-01T09:56:36Z</time>
      </trkpt>
      <trkpt lat="39.605446" lon="3.277722">
        <ele>87.735</ele>
        <time>2021-09-01T09:56:38Z</time>
      </trkpt>
      <trkpt lat="39.605392" lon="3.277641">
        <ele>88.044</ele>
        <time>2021-09-01T09:56:40Z</time>
      </trkpt>
      <trkpt lat="39.605339" lon="3.277559">
        <ele>88.199</ele>
        <time>2021-09-01T09:56:42Z</time>
      </trkpt>
      <trkpt lat="39.605294" lon="3.277485">
        <ele>88.146</ele>
        <time>2021-09-01T09:56:44Z</time>
      </trkpt>
      <trkpt lat="39.605245" lon="3.277402">
        <ele>88.116</ele>
        <time>2021-09-01T09:56:46Z</time>
      </trkpt>
      <trkpt lat="39.605200" lon="3.277321">
        <ele>88.482</ele>
        <time>2021-09-01T09:56:48Z</time>
      </trkpt>
      <trkpt lat="39.605169" lon="3.277262">
        <ele>88.743</ele>
        <time>2021-09-01T09:56:50Z</time>
      </trkpt>
      <trkpt lat="39.605139" lon="3.277214">
        <ele>89.117</ele>
        <time>2021-09-01T09:56:52Z</time>
      </trkpt>
      <trkpt lat="39.605107" lon="3.277141">
        <ele>89.508</ele>
        <time>2021-09-01T09:56:55Z</time>
      </trkpt>
      <trkpt lat="39.605067" lon="3.277088">
        <ele>89.546</ele>
        <time>2021-09-01T09:56:57Z</time>
      </trkpt>
      <trkpt lat="39.605014" lon="3.277018">
        <ele>89.590</ele>
        <time>2021-09-01T09:56:59Z</time>
      </trkpt>
      <trkpt lat="39.604957" lon="3.276943">
        <ele>89.495</ele>
        <time>2021-09-01T09:57:01Z</time>
      </trkpt>
      <trkpt lat="39.604897" lon="3.276872">
        <ele>89.459</ele>
        <time>2021-09-01T09:57:03Z</time>
      </trkpt>
      <trkpt lat="39.604828" lon="3.276812">
        <ele>89.478</ele>
        <time>2021-09-01T09:57:05Z</time>
      </trkpt>
      <trkpt lat="39.604770" lon="3.276734">
        <ele>89.523</ele>
        <time>2021-09-01T09:57:07Z</time>
      </trkpt>
      <trkpt lat="39.604713" lon="3.276665">
        <ele>89.670</ele>
        <time>2021-09-01T09:57:09Z</time>
      </trkpt>
      <trkpt lat="39.604651" lon="3.276589">
        <ele>89.780</ele>
        <time>2021-09-01T09:57:11Z</time>
      </trkpt>
      <trkpt lat="39.604592" lon="3.276514">
        <ele>89.896</ele>
        <time>2021-09-01T09:57:13Z</time>
      </trkpt>
      <trkpt lat="39.604531" lon="3.276436">
        <ele>90.031</ele>
        <time>2021-09-01T09:57:15Z</time>
      </trkpt>
      <trkpt lat="39.604469" lon="3.276356">
        <ele>90.124</ele>
        <time>2021-09-01T09:57:17Z</time>
      </trkpt>
      <trkpt lat="39.604435" lon="3.276314">
        <ele>90.108</ele>
        <time>2021-09-01T09:57:18Z</time>
      </trkpt>
      <trkpt lat="39.604373" lon="3.276240">
        <ele>90.127</ele>
        <time>2021-09-01T09:57:20Z</time>
      </trkpt>
      <trkpt lat="39.604311" lon="3.276159">
        <ele>90.291</ele>
        <time>2021-09-01T09:57:22Z</time>
      </trkpt>
      <trkpt lat="39.604245" lon="3.276084">
        <ele>90.336</ele>
        <time>2021-09-01T09:57:24Z</time>
      </trkpt>
      <trkpt lat="39.604212" lon="3.276041">
        <ele>90.320</ele>
        <time>2021-09-01T09:57:25Z</time>
      </trkpt>
      <trkpt lat="39.604180" lon="3.275999">
        <ele>90.469</ele>
        <time>2021-09-01T09:57:26Z</time>
      </trkpt>
      <trkpt lat="39.604146" lon="3.275958">
        <ele>90.544</ele>
        <time>2021-09-01T09:57:27Z</time>
      </trkpt>
      <trkpt lat="39.604086" lon="3.275877">
        <ele>90.541</ele>
        <time>2021-09-01T09:57:29Z</time>
      </trkpt>
      <trkpt lat="39.604054" lon="3.275836">
        <ele>90.531</ele>
        <time>2021-09-01T09:57:30Z</time>
      </trkpt>
      <trkpt lat="39.604019" lon="3.275797">
        <ele>90.467</ele>
        <time>2021-09-01T09:57:31Z</time>
      </trkpt>
      <trkpt lat="39.603954" lon="3.275722">
        <ele>90.481</ele>
        <time>2021-09-01T09:57:33Z</time>
      </trkpt>
      <trkpt lat="39.603894" lon="3.275641">
        <ele>90.519</ele>
        <time>2021-09-01T09:57:35Z</time>
      </trkpt>
      <trkpt lat="39.603840" lon="3.275565">
        <ele>90.608</ele>
        <time>2021-09-01T09:57:37Z</time>
      </trkpt>
      <trkpt lat="39.603782" lon="3.275500">
        <ele>90.824</ele>
        <time>2021-09-01T09:57:39Z</time>
      </trkpt>
      <trkpt lat="39.603725" lon="3.275429">
        <ele>91.268</ele>
        <time>2021-09-01T09:57:41Z</time>
      </trkpt>
      <trkpt lat="39.603684" lon="3.275375">
        <ele>91.663</ele>
        <time>2021-09-01T09:57:43Z</time>
      </trkpt>
      <trkpt lat="39.603635" lon="3.275325">
        <ele>91.977</ele>
        <time>2021-09-01T09:57:45Z</time>
      </trkpt>
      <trkpt lat="39.603586" lon="3.275256">
        <ele>92.286</ele>
        <time>2021-09-01T09:57:47Z</time>
      </trkpt>
      <trkpt lat="39.603537" lon="3.275189">
        <ele>92.271</ele>
        <time>2021-09-01T09:57:49Z</time>
      </trkpt>
      <trkpt lat="39.603484" lon="3.275109">
        <ele>92.448</ele>
        <time>2021-09-01T09:57:51Z</time>
      </trkpt>
      <trkpt lat="39.603448" lon="3.275073">
        <ele>92.488</ele>
        <time>2021-09-01T09:57:52Z</time>
      </trkpt>
      <trkpt lat="39.603409" lon="3.275035">
        <ele>92.413</ele>
        <time>2021-09-01T09:57:53Z</time>
      </trkpt>
      <trkpt lat="39.603381" lon="3.274989">
        <ele>92.543</ele>
        <time>2021-09-01T09:57:54Z</time>
      </trkpt>
      <trkpt lat="39.603344" lon="3.274939">
        <ele>92.507</ele>
        <time>2021-09-01T09:57:55Z</time>
      </trkpt>
      <trkpt lat="39.603311" lon="3.274892">
        <ele>92.608</ele>
        <time>2021-09-01T09:57:56Z</time>
      </trkpt>
      <trkpt lat="39.603283" lon="3.274842">
        <ele>92.799</ele>
        <time>2021-09-01T09:57:57Z</time>
      </trkpt>
      <trkpt lat="39.603218" lon="3.274766">
        <ele>92.873</ele>
        <time>2021-09-01T09:57:59Z</time>
      </trkpt>
      <trkpt lat="39.603184" lon="3.274726">
        <ele>93.058</ele>
        <time>2021-09-01T09:58:00Z</time>
      </trkpt>
      <trkpt lat="39.603148" lon="3.274689">
        <ele>93.022</ele>
        <time>2021-09-01T09:58:01Z</time>
      </trkpt>
      <trkpt lat="39.603113" lon="3.274649">
        <ele>93.061</ele>
        <time>2021-09-01T09:58:02Z</time>
      </trkpt>
      <trkpt lat="39.603058" lon="3.274576">
        <ele>93.166</ele>
        <time>2021-09-01T09:58:04Z</time>
      </trkpt>
      <trkpt lat="39.603010" lon="3.274512">
        <ele>93.263</ele>
        <time>2021-09-01T09:58:06Z</time>
      </trkpt>
      <trkpt lat="39.602951" lon="3.274447">
        <ele>93.233</ele>
        <time>2021-09-01T09:58:08Z</time>
      </trkpt>
      <trkpt lat="39.602917" lon="3.274407">
        <ele>93.349</ele>
        <time>2021-09-01T09:58:09Z</time>
      </trkpt>
      <trkpt lat="39.602857" lon="3.274331">
        <ele>93.402</ele>
        <time>2021-09-01T09:58:11Z</time>
      </trkpt>
      <trkpt lat="39.602831" lon="3.274282">
        <ele>93.522</ele>
        <time>2021-09-01T09:58:12Z</time>
      </trkpt>
      <trkpt lat="39.602796" lon="3.274238">
        <ele>93.608</ele>
        <time>2021-09-01T09:58:13Z</time>
      </trkpt>
      <trkpt lat="39.602728" lon="3.274162">
        <ele>93.632</ele>
        <time>2021-09-01T09:58:15Z</time>
      </trkpt>
      <trkpt lat="39.602694" lon="3.274121">
        <ele>93.616</ele>
        <time>2021-09-01T09:58:16Z</time>
      </trkpt>
      <trkpt lat="39.602640" lon="3.274047">
        <ele>93.731</ele>
        <time>2021-09-01T09:58:18Z</time>
      </trkpt>
      <trkpt lat="39.602590" lon="3.273975">
        <ele>93.815</ele>
        <time>2021-09-01T09:58:20Z</time>
      </trkpt>
      <trkpt lat="39.602554" lon="3.273936">
        <ele>93.854</ele>
        <time>2021-09-01T09:58:21Z</time>
      </trkpt>
      <trkpt lat="39.602499" lon="3.273859">
        <ele>93.919</ele>
        <time>2021-09-01T09:58:23Z</time>
      </trkpt>
      <trkpt lat="39.602436" lon="3.273778">
        <ele>94.026</ele>
        <time>2021-09-01T09:58:25Z</time>
      </trkpt>
      <trkpt lat="39.602379" lon="3.273711">
        <ele>94.196</ele>
        <time>2021-09-01T09:58:27Z</time>
      </trkpt>
      <trkpt lat="39.602320" lon="3.273644">
        <ele>94.274</ele>
        <time>2021-09-01T09:58:29Z</time>
      </trkpt>
      <trkpt lat="39.602269" lon="3.273572">
        <ele>94.456</ele>
        <time>2021-09-01T09:58:31Z</time>
      </trkpt>
      <trkpt lat="39.602215" lon="3.273515">
        <ele>94.621</ele>
        <time>2021-09-01T09:58:33Z</time>
      </trkpt>
      <trkpt lat="39.602168" lon="3.273450">
        <ele>94.808</ele>
        <time>2021-09-01T09:58:35Z</time>
      </trkpt>
      <trkpt lat="39.602114" lon="3.273382">
        <ele>95.095</ele>
        <time>2021-09-01T09:58:37Z</time>
      </trkpt>
      <trkpt lat="39.602075" lon="3.273351">
        <ele>95.189</ele>
        <time>2021-09-01T09:58:38Z</time>
      </trkpt>
      <trkpt lat="39.602029" lon="3.273319">
        <ele>95.284</ele>
        <time>2021-09-01T09:58:39Z</time>
      </trkpt>
      <trkpt lat="39.601957" lon="3.273255">
        <ele>95.368</ele>
        <time>2021-09-01T09:58:41Z</time>
      </trkpt>
      <trkpt lat="39.601922" lon="3.273218">
        <ele>95.417</ele>
        <time>2021-09-01T09:58:42Z</time>
      </trkpt>
      <trkpt lat="39.601863" lon="3.273129">
        <ele>95.472</ele>
        <time>2021-09-01T09:58:44Z</time>
      </trkpt>
      <trkpt lat="39.601801" lon="3.273044">
        <ele>95.719</ele>
        <time>2021-09-01T09:58:46Z</time>
      </trkpt>
      <trkpt lat="39.601764" lon="3.272992">
        <ele>95.769</ele>
        <time>2021-09-01T09:58:47Z</time>
      </trkpt>
      <trkpt lat="39.601734" lon="3.272917">
        <ele>95.816</ele>
        <time>2021-09-01T09:58:48Z</time>
      </trkpt>
      <trkpt lat="39.601679" lon="3.272878">
        <ele>96.076</ele>
        <time>2021-09-01T09:58:50Z</time>
      </trkpt>
      <trkpt lat="39.601657" lon="3.272813">
        <ele>95.713</ele>
        <time>2021-09-01T09:58:53Z</time>
      </trkpt>
      <trkpt lat="39.601614" lon="3.272780">
        <ele>95.508</ele>
        <time>2021-09-01T09:58:54Z</time>
      </trkpt>
      <trkpt lat="39.601568" lon="3.272761">
        <ele>95.539</ele>
        <time>2021-09-01T09:58:55Z</time>
      </trkpt>
      <trkpt lat="39.601512" lon="3.272691">
        <ele>95.623</ele>
        <time>2021-09-01T09:58:57Z</time>
      </trkpt>
      <trkpt lat="39.601449" lon="3.272598">
        <ele>95.868</ele>
        <time>2021-09-01T09:58:59Z</time>
      </trkpt>
      <trkpt lat="39.601416" lon="3.272556">
        <ele>95.942</ele>
        <time>2021-09-01T09:59:00Z</time>
      </trkpt>
      <trkpt lat="39.601387" lon="3.272511">
        <ele>96.091</ele>
        <time>2021-09-01T09:59:01Z</time>
      </trkpt>
      <trkpt lat="39.601342" lon="3.272486">
        <ele>96.166</ele>
        <time>2021-09-01T09:59:02Z</time>
      </trkpt>
      <trkpt lat="39.601281" lon="3.272403">
        <ele>96.213</ele>
        <time>2021-09-01T09:59:04Z</time>
      </trkpt>
      <trkpt lat="39.601248" lon="3.272357">
        <ele>96.213</ele>
        <time>2021-09-01T09:59:05Z</time>
      </trkpt>
      <trkpt lat="39.601219" lon="3.272311">
        <ele>96.245</ele>
        <time>2021-09-01T09:59:06Z</time>
      </trkpt>
      <trkpt lat="39.601189" lon="3.272263">
        <ele>96.247</ele>
        <time>2021-09-01T09:59:07Z</time>
      </trkpt>
      <trkpt lat="39.601159" lon="3.272217">
        <ele>96.211</ele>
        <time>2021-09-01T09:59:08Z</time>
      </trkpt>
      <trkpt lat="39.601091" lon="3.272130">
        <ele>96.208</ele>
        <time>2021-09-01T09:59:10Z</time>
      </trkpt>
      <trkpt lat="39.601054" lon="3.272092">
        <ele>96.222</ele>
        <time>2021-09-01T09:59:11Z</time>
      </trkpt>
      <trkpt lat="39.601016" lon="3.272042">
        <ele>96.366</ele>
        <time>2021-09-01T09:59:12Z</time>
      </trkpt>
      <trkpt lat="39.600983" lon="3.271996">
        <ele>96.431</ele>
        <time>2021-09-01T09:59:13Z</time>
      </trkpt>
      <trkpt lat="39.600947" lon="3.271947">
        <ele>96.445</ele>
        <time>2021-09-01T09:59:14Z</time>
      </trkpt>
      <trkpt lat="39.600909" lon="3.271904">
        <ele>96.584</ele>
        <time>2021-09-01T09:59:15Z</time>
      </trkpt>
      <trkpt lat="39.600868" lon="3.271859">
        <ele>96.619</ele>
        <time>2021-09-01T09:59:16Z</time>
      </trkpt>
      <trkpt lat="39.600832" lon="3.271811">
        <ele>96.746</ele>
        <time>2021-09-01T09:59:17Z</time>
      </trkpt>
      <trkpt lat="39.600786" lon="3.271769">
        <ele>96.736</ele>
        <time>2021-09-01T09:59:18Z</time>
      </trkpt>
      <trkpt lat="39.600742" lon="3.271724">
        <ele>96.862</ele>
        <time>2021-09-01T09:59:19Z</time>
      </trkpt>
      <trkpt lat="39.600702" lon="3.271677">
        <ele>96.883</ele>
        <time>2021-09-01T09:59:20Z</time>
      </trkpt>
      <trkpt lat="39.600667" lon="3.271627">
        <ele>96.811</ele>
        <time>2021-09-01T09:59:21Z</time>
      </trkpt>
      <trkpt lat="39.600627" lon="3.271579">
        <ele>96.908</ele>
        <time>2021-09-01T09:59:22Z</time>
      </trkpt>
      <trkpt lat="39.600592" lon="3.271535">
        <ele>97.074</ele>
        <time>2021-09-01T09:59:23Z</time>
      </trkpt>
      <trkpt lat="39.600550" lon="3.271483">
        <ele>97.178</ele>
        <time>2021-09-01T09:59:24Z</time>
      </trkpt>
      <trkpt lat="39.600510" lon="3.271434">
        <ele>97.233</ele>
        <time>2021-09-01T09:59:25Z</time>
      </trkpt>
      <trkpt lat="39.600468" lon="3.271387">
        <ele>97.377</ele>
        <time>2021-09-01T09:59:26Z</time>
      </trkpt>
      <trkpt lat="39.600423" lon="3.271335">
        <ele>97.556</ele>
        <time>2021-09-01T09:59:27Z</time>
      </trkpt>
      <trkpt lat="39.600385" lon="3.271287">
        <ele>97.531</ele>
        <time>2021-09-01T09:59:28Z</time>
      </trkpt>
      <trkpt lat="39.600342" lon="3.271239">
        <ele>97.658</ele>
        <time>2021-09-01T09:59:29Z</time>
      </trkpt>
      <trkpt lat="39.600299" lon="3.271195">
        <ele>97.668</ele>
        <time>2021-09-01T09:59:30Z</time>
      </trkpt>
      <trkpt lat="39.600253" lon="3.271147">
        <ele>97.764</ele>
        <time>2021-09-01T09:59:31Z</time>
      </trkpt>
      <trkpt lat="39.600211" lon="3.271110">
        <ele>97.706</ele>
        <time>2021-09-01T09:59:32Z</time>
      </trkpt>
      <trkpt lat="39.600170" lon="3.271061">
        <ele>97.916</ele>
        <time>2021-09-01T09:59:33Z</time>
      </trkpt>
      <trkpt lat="39.600133" lon="3.271016">
        <ele>98.008</ele>
        <time>2021-09-01T09:59:34Z</time>
      </trkpt>
      <trkpt lat="39.600095" lon="3.270970">
        <ele>98.174</ele>
        <time>2021-09-01T09:59:35Z</time>
      </trkpt>
      <trkpt lat="39.600057" lon="3.270925">
        <ele>98.178</ele>
        <time>2021-09-01T09:59:36Z</time>
      </trkpt>
      <trkpt lat="39.600017" lon="3.270872">
        <ele>98.263</ele>
        <time>2021-09-01T09:59:37Z</time>
      </trkpt>
      <trkpt lat="39.599966" lon="3.270833">
        <ele>98.397</ele>
        <time>2021-09-01T09:59:38Z</time>
      </trkpt>
      <trkpt lat="39.599924" lon="3.270807">
        <ele>98.456</ele>
        <time>2021-09-01T09:59:39Z</time>
      </trkpt>
      <trkpt lat="39.599874" lon="3.270769">
        <ele>98.421</ele>
        <time>2021-09-01T09:59:40Z</time>
      </trkpt>
      <trkpt lat="39.599827" lon="3.270717">
        <ele>98.438</ele>
        <time>2021-09-01T09:59:41Z</time>
      </trkpt>
      <trkpt lat="39.599782" lon="3.270677">
        <ele>98.498</ele>
        <time>2021-09-01T09:59:42Z</time>
      </trkpt>
      <trkpt lat="39.599737" lon="3.270642">
        <ele>98.438</ele>
        <time>2021-09-01T09:59:43Z</time>
      </trkpt>
      <trkpt lat="39.599697" lon="3.270599">
        <ele>98.470</ele>
        <time>2021-09-01T09:59:44Z</time>
      </trkpt>
      <trkpt lat="39.599656" lon="3.270567">
        <ele>98.417</ele>
        <time>2021-09-01T09:59:45Z</time>
      </trkpt>
      <trkpt lat="39.599618" lon="3.270533">
        <ele>98.408</ele>
        <time>2021-09-01T09:59:46Z</time>
      </trkpt>
      <trkpt lat="39.599580" lon="3.270501">
        <ele>98.471</ele>
        <time>2021-09-01T09:59:47Z</time>
      </trkpt>
      <trkpt lat="39.599506" lon="3.270445">
        <ele>98.555</ele>
        <time>2021-09-01T09:59:49Z</time>
      </trkpt>
      <trkpt lat="39.599437" lon="3.270392">
        <ele>98.640</ele>
        <time>2021-09-01T09:59:51Z</time>
      </trkpt>
      <trkpt lat="39.599366" lon="3.270335">
        <ele>98.844</ele>
        <time>2021-09-01T09:59:53Z</time>
      </trkpt>
      <trkpt lat="39.599289" lon="3.270278">
        <ele>99.033</ele>
        <time>2021-09-01T09:59:55Z</time>
      </trkpt>
      <trkpt lat="39.599217" lon="3.270216">
        <ele>99.248</ele>
        <time>2021-09-01T09:59:57Z</time>
      </trkpt>
      <trkpt lat="39.599178" lon="3.270186">
        <ele>99.215</ele>
        <time>2021-09-01T09:59:58Z</time>
      </trkpt>
      <trkpt lat="39.599103" lon="3.270133">
        <ele>99.315</ele>
        <time>2021-09-01T10:00:00Z</time>
      </trkpt>
      <trkpt lat="39.599061" lon="3.270102">
        <ele>99.482</ele>
        <time>2021-09-01T10:00:01Z</time>
      </trkpt>
      <trkpt lat="39.599022" lon="3.270073">
        <ele>99.543</ele>
        <time>2021-09-01T10:00:02Z</time>
      </trkpt>
      <trkpt lat="39.598983" lon="3.270041">
        <ele>99.617</ele>
        <time>2021-09-01T10:00:03Z</time>
      </trkpt>
      <trkpt lat="39.598909" lon="3.269983">
        <ele>99.808</ele>
        <time>2021-09-01T10:00:05Z</time>
      </trkpt>
      <trkpt lat="39.598866" lon="3.269955">
        <ele>99.876</ele>
        <time>2021-09-01T10:00:06Z</time>
      </trkpt>
      <trkpt lat="39.598789" lon="3.269902">
        <ele>99.910</ele>
        <time>2021-09-01T10:00:08Z</time>
      </trkpt>
      <trkpt lat="39.598745" lon="3.269873">
        <ele>99.945</ele>
        <time>2021-09-01T10:00:09Z</time>
      </trkpt>
      <trkpt lat="39.598702" lon="3.269848">
        <ele>100.019</ele>
        <time>2021-09-01T10:00:10Z</time>
      </trkpt>
      <trkpt lat="39.598660" lon="3.269819">
        <ele>100.178</ele>
        <time>2021-09-01T10:00:11Z</time>
      </trkpt>
      <trkpt lat="39.598618" lon="3.269787">
        <ele>100.273</ele>
        <time>2021-09-01T10:00:12Z</time>
      </trkpt>
      <trkpt lat="39.598575" lon="3.269765">
        <ele>100.380</ele>
        <time>2021-09-01T10:00:13Z</time>
      </trkpt>
      <trkpt lat="39.598495" lon="3.269713">
        <ele>100.440</ele>
        <time>2021-09-01T10:00:15Z</time>
      </trkpt>
      <trkpt lat="39.598447" lon="3.269689">
        <ele>100.536</ele>
        <time>2021-09-01T10:00:16Z</time>
      </trkpt>
      <trkpt lat="39.598360" lon="3.269638">
        <ele>100.617</ele>
        <time>2021-09-01T10:00:18Z</time>
      </trkpt>
      <trkpt lat="39.598277" lon="3.269590">
        <ele>100.718</ele>
        <time>2021-09-01T10:00:20Z</time>
      </trkpt>
      <trkpt lat="39.598196" lon="3.269533">
        <ele>100.908</ele>
        <time>2021-09-01T10:00:22Z</time>
      </trkpt>
      <trkpt lat="39.598115" lon="3.269490">
        <ele>101.041</ele>
        <time>2021-09-01T10:00:24Z</time>
      </trkpt>
      <trkpt lat="39.598038" lon="3.269443">
        <ele>101.195</ele>
        <time>2021-09-01T10:00:26Z</time>
      </trkpt>
      <trkpt lat="39.597956" lon="3.269401">
        <ele>101.530</ele>
        <time>2021-09-01T10:00:28Z</time>
      </trkpt>
      <trkpt lat="39.597881" lon="3.269347">
        <ele>101.724</ele>
        <time>2021-09-01T10:00:30Z</time>
      </trkpt>
      <trkpt lat="39.597804" lon="3.269310">
        <ele>101.823</ele>
        <time>2021-09-01T10:00:32Z</time>
      </trkpt>
      <trkpt lat="39.597725" lon="3.269264">
        <ele>101.848</ele>
        <time>2021-09-01T10:00:34Z</time>
      </trkpt>
      <trkpt lat="39.597651" lon="3.269212">
        <ele>101.895</ele>
        <time>2021-09-01T10:00:36Z</time>
      </trkpt>
      <trkpt lat="39.597579" lon="3.269152">
        <ele>101.935</ele>
        <time>2021-09-01T10:00:38Z</time>
      </trkpt>
      <trkpt lat="39.597506" lon="3.269101">
        <ele>101.964</ele>
        <time>2021-09-01T10:00:40Z</time>
      </trkpt>
      <trkpt lat="39.597429" lon="3.269053">
        <ele>102.106</ele>
        <time>2021-09-01T10:00:42Z</time>
      </trkpt>
      <trkpt lat="39.597353" lon="3.269003">
        <ele>102.116</ele>
        <time>2021-09-01T10:00:44Z</time>
      </trkpt>
      <trkpt lat="39.597276" lon="3.268956">
        <ele>102.208</ele>
        <time>2021-09-01T10:00:46Z</time>
      </trkpt>
      <trkpt lat="39.597197" lon="3.268908">
        <ele>102.284</ele>
        <time>2021-09-01T10:00:48Z</time>
      </trkpt>
      <trkpt lat="39.597119" lon="3.268849">
        <ele>102.318</ele>
        <time>2021-09-01T10:00:50Z</time>
      </trkpt>
      <trkpt lat="39.597042" lon="3.268795">
        <ele>102.443</ele>
        <time>2021-09-01T10:00:52Z</time>
      </trkpt>
      <trkpt lat="39.596965" lon="3.268741">
        <ele>102.667</ele>
        <time>2021-09-01T10:00:54Z</time>
      </trkpt>
      <trkpt lat="39.596892" lon="3.268683">
        <ele>102.766</ele>
        <time>2021-09-01T10:00:56Z</time>
      </trkpt>
      <trkpt lat="39.596853" lon="3.268654">
        <ele>102.751</ele>
        <time>2021-09-01T10:00:57Z</time>
      </trkpt>
      <trkpt lat="39.596778" lon="3.268593">
        <ele>102.788</ele>
        <time>2021-09-01T10:00:59Z</time>
      </trkpt>
      <trkpt lat="39.596703" lon="3.268533">
        <ele>102.638</ele>
        <time>2021-09-01T10:01:01Z</time>
      </trkpt>
      <trkpt lat="39.596665" lon="3.268500">
        <ele>102.662</ele>
        <time>2021-09-01T10:01:02Z</time>
      </trkpt>
      <trkpt lat="39.596590" lon="3.268434">
        <ele>102.683</ele>
        <time>2021-09-01T10:01:04Z</time>
      </trkpt>
      <trkpt lat="39.596516" lon="3.268375">
        <ele>102.811</ele>
        <time>2021-09-01T10:01:06Z</time>
      </trkpt>
      <trkpt lat="39.596449" lon="3.268308">
        <ele>103.008</ele>
        <time>2021-09-01T10:01:08Z</time>
      </trkpt>
      <trkpt lat="39.596412" lon="3.268270">
        <ele>103.184</ele>
        <time>2021-09-01T10:01:09Z</time>
      </trkpt>
      <trkpt lat="39.596345" lon="3.268203">
        <ele>103.148</ele>
        <time>2021-09-01T10:01:11Z</time>
      </trkpt>
      <trkpt lat="39.596284" lon="3.268129">
        <ele>103.153</ele>
        <time>2021-09-01T10:01:13Z</time>
      </trkpt>
      <trkpt lat="39.596249" lon="3.268090">
        <ele>103.257</ele>
        <time>2021-09-01T10:01:14Z</time>
      </trkpt>
      <trkpt lat="39.596182" lon="3.268021">
        <ele>103.456</ele>
        <time>2021-09-01T10:01:16Z</time>
      </trkpt>
      <trkpt lat="39.596122" lon="3.267949">
        <ele>103.521</ele>
        <time>2021-09-01T10:01:18Z</time>
      </trkpt>
      <trkpt lat="39.596066" lon="3.267874">
        <ele>103.648</ele>
        <time>2021-09-01T10:01:20Z</time>
      </trkpt>
      <trkpt lat="39.596003" lon="3.267798">
        <ele>103.688</ele>
        <time>2021-09-01T10:01:22Z</time>
      </trkpt>
      <trkpt lat="39.595943" lon="3.267717">
        <ele>103.646</ele>
        <time>2021-09-01T10:01:24Z</time>
      </trkpt>
      <trkpt lat="39.595884" lon="3.267637">
        <ele>103.688</ele>
        <time>2021-09-01T10:01:26Z</time>
      </trkpt>
      <trkpt lat="39.595827" lon="3.267549">
        <ele>103.516</ele>
        <time>2021-09-01T10:01:28Z</time>
      </trkpt>
      <trkpt lat="39.595795" lon="3.267504">
        <ele>103.508</ele>
        <time>2021-09-01T10:01:29Z</time>
      </trkpt>
      <trkpt lat="39.595766" lon="3.267458">
        <ele>103.432</ele>
        <time>2021-09-01T10:01:30Z</time>
      </trkpt>
      <trkpt lat="39.595710" lon="3.267370">
        <ele>103.536</ele>
        <time>2021-09-01T10:01:32Z</time>
      </trkpt>
      <trkpt lat="39.595656" lon="3.267281">
        <ele>103.741</ele>
        <time>2021-09-01T10:01:34Z</time>
      </trkpt>
      <trkpt lat="39.595601" lon="3.267197">
        <ele>103.715</ele>
        <time>2021-09-01T10:01:36Z</time>
      </trkpt>
      <trkpt lat="39.595573" lon="3.267150">
        <ele>103.734</ele>
        <time>2021-09-01T10:01:37Z</time>
      </trkpt>
      <trkpt lat="39.595528" lon="3.267056">
        <ele>103.869</ele>
        <time>2021-09-01T10:01:39Z</time>
      </trkpt>
      <trkpt lat="39.595500" lon="3.267010">
        <ele>103.946</ele>
        <time>2021-09-01T10:01:40Z</time>
      </trkpt>
      <trkpt lat="39.595447" lon="3.266920">
        <ele>104.056</ele>
        <time>2021-09-01T10:01:42Z</time>
      </trkpt>
      <trkpt lat="39.595395" lon="3.266824">
        <ele>104.047</ele>
        <time>2021-09-01T10:01:44Z</time>
      </trkpt>
      <trkpt lat="39.595349" lon="3.266734">
        <ele>104.229</ele>
        <time>2021-09-01T10:01:46Z</time>
      </trkpt>
      <trkpt lat="39.595299" lon="3.266643">
        <ele>104.521</ele>
        <time>2021-09-01T10:01:48Z</time>
      </trkpt>
      <trkpt lat="39.595272" lon="3.266587">
        <ele>104.508</ele>
        <time>2021-09-01T10:01:49Z</time>
      </trkpt>
      <trkpt lat="39.595242" lon="3.266534">
        <ele>104.612</ele>
        <time>2021-09-01T10:01:50Z</time>
      </trkpt>
      <trkpt lat="39.595188" lon="3.266448">
        <ele>104.736</ele>
        <time>2021-09-01T10:01:52Z</time>
      </trkpt>
      <trkpt lat="39.595136" lon="3.266349">
        <ele>104.841</ele>
        <time>2021-09-01T10:01:54Z</time>
      </trkpt>
      <trkpt lat="39.595086" lon="3.266254">
        <ele>104.945</ele>
        <time>2021-09-01T10:01:56Z</time>
      </trkpt>
      <trkpt lat="39.595056" lon="3.266206">
        <ele>104.974</ele>
        <time>2021-09-01T10:01:57Z</time>
      </trkpt>
      <trkpt lat="39.595026" lon="3.266151">
        <ele>104.989</ele>
        <time>2021-09-01T10:01:58Z</time>
      </trkpt>
      <trkpt lat="39.595000" lon="3.266100">
        <ele>105.056</ele>
        <time>2021-09-01T10:01:59Z</time>
      </trkpt>
      <trkpt lat="39.594971" lon="3.266049">
        <ele>105.116</ele>
        <time>2021-09-01T10:02:00Z</time>
      </trkpt>
      <trkpt lat="39.594942" lon="3.266000">
        <ele>105.191</ele>
        <time>2021-09-01T10:02:01Z</time>
      </trkpt>
      <trkpt lat="39.594889" lon="3.265902">
        <ele>105.181</ele>
        <time>2021-09-01T10:02:03Z</time>
      </trkpt>
      <trkpt lat="39.594863" lon="3.265850">
        <ele>105.119</ele>
        <time>2021-09-01T10:02:04Z</time>
      </trkpt>
      <trkpt lat="39.594835" lon="3.265796">
        <ele>105.108</ele>
        <time>2021-09-01T10:02:05Z</time>
      </trkpt>
      <trkpt lat="39.594808" lon="3.265743">
        <ele>105.137</ele>
        <time>2021-09-01T10:02:06Z</time>
      </trkpt>
      <trkpt lat="39.594776" lon="3.265686">
        <ele>105.261</ele>
        <time>2021-09-01T10:02:07Z</time>
      </trkpt>
      <trkpt lat="39.594747" lon="3.265627">
        <ele>105.296</ele>
        <time>2021-09-01T10:02:08Z</time>
      </trkpt>
      <trkpt lat="39.594718" lon="3.265575">
        <ele>105.370</ele>
        <time>2021-09-01T10:02:09Z</time>
      </trkpt>
      <trkpt lat="39.594690" lon="3.265527">
        <ele>105.429</ele>
        <time>2021-09-01T10:02:10Z</time>
      </trkpt>
      <trkpt lat="39.594663" lon="3.265475">
        <ele>105.444</ele>
        <time>2021-09-01T10:02:11Z</time>
      </trkpt>
      <trkpt lat="39.594633" lon="3.265418">
        <ele>105.581</ele>
        <time>2021-09-01T10:02:12Z</time>
      </trkpt>
      <trkpt lat="39.594600" lon="3.265366">
        <ele>105.541</ele>
        <time>2021-09-01T10:02:13Z</time>
      </trkpt>
      <trkpt lat="39.594574" lon="3.265308">
        <ele>105.619</ele>
        <time>2021-09-01T10:02:14Z</time>
      </trkpt>
      <trkpt lat="39.594545" lon="3.265250">
        <ele>105.609</ele>
        <time>2021-09-01T10:02:15Z</time>
      </trkpt>
      <trkpt lat="39.594515" lon="3.265195">
        <ele>105.619</ele>
        <time>2021-09-01T10:02:16Z</time>
      </trkpt>
      <trkpt lat="39.594488" lon="3.265140">
        <ele>105.608</ele>
        <time>2021-09-01T10:02:17Z</time>
      </trkpt>
      <trkpt lat="39.594452" lon="3.265079">
        <ele>105.639</ele>
        <time>2021-09-01T10:02:18Z</time>
      </trkpt>
      <trkpt lat="39.594421" lon="3.265019">
        <ele>105.643</ele>
        <time>2021-09-01T10:02:19Z</time>
      </trkpt>
      <trkpt lat="39.594388" lon="3.264962">
        <ele>105.638</ele>
        <time>2021-09-01T10:02:20Z</time>
      </trkpt>
      <trkpt lat="39.594358" lon="3.264906">
        <ele>105.672</ele>
        <time>2021-09-01T10:02:21Z</time>
      </trkpt>
      <trkpt lat="39.594326" lon="3.264849">
        <ele>105.611</ele>
        <time>2021-09-01T10:02:22Z</time>
      </trkpt>
      <trkpt lat="39.594294" lon="3.264786">
        <ele>105.676</ele>
        <time>2021-09-01T10:02:23Z</time>
      </trkpt>
      <trkpt lat="39.594257" lon="3.264725">
        <ele>105.653</ele>
        <time>2021-09-01T10:02:24Z</time>
      </trkpt>
      <trkpt lat="39.594223" lon="3.264666">
        <ele>105.653</ele>
        <time>2021-09-01T10:02:25Z</time>
      </trkpt>
      <trkpt lat="39.594190" lon="3.264604">
        <ele>105.654</ele>
        <time>2021-09-01T10:02:26Z</time>
      </trkpt>
      <trkpt lat="39.594157" lon="3.264539">
        <ele>105.756</ele>
        <time>2021-09-01T10:02:27Z</time>
      </trkpt>
      <trkpt lat="39.594122" lon="3.264478">
        <ele>105.711</ele>
        <time>2021-09-01T10:02:28Z</time>
      </trkpt>
      <trkpt lat="39.594088" lon="3.264415">
        <ele>105.608</ele>
        <time>2021-09-01T10:02:29Z</time>
      </trkpt>
      <trkpt lat="39.594056" lon="3.264354">
        <ele>105.513</ele>
        <time>2021-09-01T10:02:30Z</time>
      </trkpt>
      <trkpt lat="39.594018" lon="3.264286">
        <ele>105.347</ele>
        <time>2021-09-01T10:02:31Z</time>
      </trkpt>
      <trkpt lat="39.593981" lon="3.264220">
        <ele>105.072</ele>
        <time>2021-09-01T10:02:32Z</time>
      </trkpt>
      <trkpt lat="39.593943" lon="3.264157">
        <ele>104.826</ele>
        <time>2021-09-01T10:02:33Z</time>
      </trkpt>
      <trkpt lat="39.593906" lon="3.264091">
        <ele>104.715</ele>
        <time>2021-09-01T10:02:34Z</time>
      </trkpt>
      <trkpt lat="39.593871" lon="3.264018">
        <ele>104.640</ele>
        <time>2021-09-01T10:02:35Z</time>
      </trkpt>
      <trkpt lat="39.593832" lon="3.263946">
        <ele>104.547</ele>
        <time>2021-09-01T10:02:36Z</time>
      </trkpt>
      <trkpt lat="39.593796" lon="3.263882">
        <ele>104.427</ele>
        <time>2021-09-01T10:02:37Z</time>
      </trkpt>
      <trkpt lat="39.593755" lon="3.263811">
        <ele>104.415</ele>
        <time>2021-09-01T10:02:38Z</time>
      </trkpt>
      <trkpt lat="39.593709" lon="3.263747">
        <ele>104.465</ele>
        <time>2021-09-01T10:02:39Z</time>
      </trkpt>
      <trkpt lat="39.593668" lon="3.263675">
        <ele>104.311</ele>
        <time>2021-09-01T10:02:40Z</time>
      </trkpt>
      <trkpt lat="39.593629" lon="3.263610">
        <ele>104.308</ele>
        <time>2021-09-01T10:02:41Z</time>
      </trkpt>
      <trkpt lat="39.593591" lon="3.263542">
        <ele>104.339</ele>
        <time>2021-09-01T10:02:42Z</time>
      </trkpt>
      <trkpt lat="39.593554" lon="3.263474">
        <ele>104.243</ele>
        <time>2021-09-01T10:02:43Z</time>
      </trkpt>
      <trkpt lat="39.593520" lon="3.263421">
        <ele>104.288</ele>
        <time>2021-09-01T10:02:44Z</time>
      </trkpt>
      <trkpt lat="39.593496" lon="3.263369">
        <ele>104.142</ele>
        <time>2021-09-01T10:02:45Z</time>
      </trkpt>
      <trkpt lat="39.593471" lon="3.263319">
        <ele>104.161</ele>
        <time>2021-09-01T10:02:46Z</time>
      </trkpt>
      <trkpt lat="39.593433" lon="3.263200">
        <ele>104.166</ele>
        <time>2021-09-01T10:02:48Z</time>
      </trkpt>
      <trkpt lat="39.593387" lon="3.263148">
        <ele>104.113</ele>
        <time>2021-09-01T10:02:50Z</time>
      </trkpt>
      <trkpt lat="39.593340" lon="3.263112">
        <ele>104.153</ele>
        <time>2021-09-01T10:02:52Z</time>
      </trkpt>
      <trkpt lat="39.593338" lon="3.263053">
        <ele>104.198</ele>
        <time>2021-09-01T10:02:54Z</time>
      </trkpt>
      <trkpt lat="39.593290" lon="3.262991">
        <ele>104.115</ele>
        <time>2021-09-01T10:02:56Z</time>
      </trkpt>
      <trkpt lat="39.593234" lon="3.262923">
        <ele>104.026</ele>
        <time>2021-09-01T10:02:58Z</time>
      </trkpt>
      <trkpt lat="39.593205" lon="3.262871">
        <ele>104.008</ele>
        <time>2021-09-01T10:02:59Z</time>
      </trkpt>
      <trkpt lat="39.593171" lon="3.262818">
        <ele>103.937</ele>
        <time>2021-09-01T10:03:00Z</time>
      </trkpt>
      <trkpt lat="39.593136" lon="3.262758">
        <ele>103.761</ele>
        <time>2021-09-01T10:03:01Z</time>
      </trkpt>
      <trkpt lat="39.593108" lon="3.262693">
        <ele>103.556</ele>
        <time>2021-09-01T10:03:02Z</time>
      </trkpt>
      <trkpt lat="39.593070" lon="3.262633">
        <ele>103.250</ele>
        <time>2021-09-01T10:03:03Z</time>
      </trkpt>
      <trkpt lat="39.593034" lon="3.262575">
        <ele>103.039</ele>
        <time>2021-09-01T10:03:04Z</time>
      </trkpt>
      <trkpt lat="39.592998" lon="3.262509">
        <ele>102.724</ele>
        <time>2021-09-01T10:03:05Z</time>
      </trkpt>
      <trkpt lat="39.592968" lon="3.262443">
        <ele>102.651</ele>
        <time>2021-09-01T10:03:06Z</time>
      </trkpt>
      <trkpt lat="39.592933" lon="3.262378">
        <ele>102.561</ele>
        <time>2021-09-01T10:03:07Z</time>
      </trkpt>
      <trkpt lat="39.592897" lon="3.262315">
        <ele>102.321</ele>
        <time>2021-09-01T10:03:08Z</time>
      </trkpt>
      <trkpt lat="39.592862" lon="3.262254">
        <ele>102.241</ele>
        <time>2021-09-01T10:03:09Z</time>
      </trkpt>
      <trkpt lat="39.592830" lon="3.262194">
        <ele>102.105</ele>
        <time>2021-09-01T10:03:10Z</time>
      </trkpt>
      <trkpt lat="39.592794" lon="3.262122">
        <ele>101.908</ele>
        <time>2021-09-01T10:03:11Z</time>
      </trkpt>
      <trkpt lat="39.592755" lon="3.262053">
        <ele>101.770</ele>
        <time>2021-09-01T10:03:12Z</time>
      </trkpt>
      <trkpt lat="39.592717" lon="3.261987">
        <ele>101.674</ele>
        <time>2021-09-01T10:03:13Z</time>
      </trkpt>
      <trkpt lat="39.592682" lon="3.261917">
        <ele>101.599</ele>
        <time>2021-09-01T10:03:14Z</time>
      </trkpt>
      <trkpt lat="39.592643" lon="3.261850">
        <ele>101.493</ele>
        <time>2021-09-01T10:03:15Z</time>
      </trkpt>
      <trkpt lat="39.592603" lon="3.261779">
        <ele>101.362</ele>
        <time>2021-09-01T10:03:16Z</time>
      </trkpt>
      <trkpt lat="39.592562" lon="3.261703">
        <ele>101.277</ele>
        <time>2021-09-01T10:03:17Z</time>
      </trkpt>
      <trkpt lat="39.592523" lon="3.261630">
        <ele>101.194</ele>
        <time>2021-09-01T10:03:18Z</time>
      </trkpt>
      <trkpt lat="39.592482" lon="3.261556">
        <ele>101.124</ele>
        <time>2021-09-01T10:03:19Z</time>
      </trkpt>
      <trkpt lat="39.592440" lon="3.261486">
        <ele>101.073</ele>
        <time>2021-09-01T10:03:20Z</time>
      </trkpt>
      <trkpt lat="39.592400" lon="3.261417">
        <ele>101.085</ele>
        <time>2021-09-01T10:03:21Z</time>
      </trkpt>
      <trkpt lat="39.592361" lon="3.261348">
        <ele>100.913</ele>
        <time>2021-09-01T10:03:22Z</time>
      </trkpt>
      <trkpt lat="39.592320" lon="3.261278">
        <ele>100.608</ele>
        <time>2021-09-01T10:03:23Z</time>
      </trkpt>
      <trkpt lat="39.592276" lon="3.261205">
        <ele>100.415</ele>
        <time>2021-09-01T10:03:24Z</time>
      </trkpt>
      <trkpt lat="39.592235" lon="3.261132">
        <ele>100.289</ele>
        <time>2021-09-01T10:03:25Z</time>
      </trkpt>
      <trkpt lat="39.592194" lon="3.261059">
        <ele>99.924</ele>
        <time>2021-09-01T10:03:26Z</time>
      </trkpt>
      <trkpt lat="39.592155" lon="3.260983">
        <ele>99.878</ele>
        <time>2021-09-01T10:03:27Z</time>
      </trkpt>
      <trkpt lat="39.592119" lon="3.260910">
        <ele>99.887</ele>
        <time>2021-09-01T10:03:28Z</time>
      </trkpt>
      <trkpt lat="39.592074" lon="3.260845">
        <ele>99.812</ele>
        <time>2021-09-01T10:03:29Z</time>
      </trkpt>
      <trkpt lat="39.592039" lon="3.260770">
        <ele>99.849</ele>
        <time>2021-09-01T10:03:30Z</time>
      </trkpt>
      <trkpt lat="39.591999" lon="3.260699">
        <ele>99.799</ele>
        <time>2021-09-01T10:03:31Z</time>
      </trkpt>
      <trkpt lat="39.591962" lon="3.260625">
        <ele>99.757</ele>
        <time>2021-09-01T10:03:32Z</time>
      </trkpt>
      <trkpt lat="39.591929" lon="3.260556">
        <ele>99.700</ele>
        <time>2021-09-01T10:03:33Z</time>
      </trkpt>
      <trkpt lat="39.591892" lon="3.260489">
        <ele>99.620</ele>
        <time>2021-09-01T10:03:34Z</time>
      </trkpt>
      <trkpt lat="39.591855" lon="3.260420">
        <ele>99.508</ele>
        <time>2021-09-01T10:03:35Z</time>
      </trkpt>
      <trkpt lat="39.591818" lon="3.260355">
        <ele>99.453</ele>
        <time>2021-09-01T10:03:36Z</time>
      </trkpt>
      <trkpt lat="39.591783" lon="3.260291">
        <ele>99.367</ele>
        <time>2021-09-01T10:03:37Z</time>
      </trkpt>
      <trkpt lat="39.591748" lon="3.260225">
        <ele>99.372</ele>
        <time>2021-09-01T10:03:38Z</time>
      </trkpt>
      <trkpt lat="39.591713" lon="3.260157">
        <ele>99.226</ele>
        <time>2021-09-01T10:03:39Z</time>
      </trkpt>
      <trkpt lat="39.591679" lon="3.260089">
        <ele>99.265</ele>
        <time>2021-09-01T10:03:40Z</time>
      </trkpt>
      <trkpt lat="39.591650" lon="3.260023">
        <ele>99.270</ele>
        <time>2021-09-01T10:03:41Z</time>
      </trkpt>
      <trkpt lat="39.591616" lon="3.259959">
        <ele>99.157</ele>
        <time>2021-09-01T10:03:42Z</time>
      </trkpt>
      <trkpt lat="39.591584" lon="3.259900">
        <ele>99.097</ele>
        <time>2021-09-01T10:03:43Z</time>
      </trkpt>
      <trkpt lat="39.591552" lon="3.259844">
        <ele>98.993</ele>
        <time>2021-09-01T10:03:44Z</time>
      </trkpt>
      <trkpt lat="39.591522" lon="3.259789">
        <ele>98.965</ele>
        <time>2021-09-01T10:03:45Z</time>
      </trkpt>
      <trkpt lat="39.591491" lon="3.259732">
        <ele>98.821</ele>
        <time>2021-09-01T10:03:46Z</time>
      </trkpt>
      <trkpt lat="39.591462" lon="3.259685">
        <ele>98.808</ele>
        <time>2021-09-01T10:03:47Z</time>
      </trkpt>
      <trkpt lat="39.591436" lon="3.259636">
        <ele>98.827</ele>
        <time>2021-09-01T10:03:48Z</time>
      </trkpt>
      <trkpt lat="39.591403" lon="3.259554">
        <ele>98.611</ele>
        <time>2021-09-01T10:03:50Z</time>
      </trkpt>
      <trkpt lat="39.591355" lon="3.259490">
        <ele>98.596</ele>
        <time>2021-09-01T10:03:52Z</time>
      </trkpt>
      <trkpt lat="39.591347" lon="3.259426">
        <ele>98.510</ele>
        <time>2021-09-01T10:03:54Z</time>
      </trkpt>
      <trkpt lat="39.591300" lon="3.259363">
        <ele>98.679</ele>
        <time>2021-09-01T10:03:56Z</time>
      </trkpt>
      <trkpt lat="39.591246" lon="3.259277">
        <ele>98.634</ele>
        <time>2021-09-01T10:03:58Z</time>
      </trkpt>
      <trkpt lat="39.591218" lon="3.259224">
        <ele>98.571</ele>
        <time>2021-09-01T10:03:59Z</time>
      </trkpt>
      <trkpt lat="39.591190" lon="3.259164">
        <ele>98.571</ele>
        <time>2021-09-01T10:04:00Z</time>
      </trkpt>
      <trkpt lat="39.591156" lon="3.259111">
        <ele>98.459</ele>
        <time>2021-09-01T10:04:01Z</time>
      </trkpt>
      <trkpt lat="39.591121" lon="3.259055">
        <ele>98.303</ele>
        <time>2021-09-01T10:04:02Z</time>
      </trkpt>
      <trkpt lat="39.591086" lon="3.258999">
        <ele>98.223</ele>
        <time>2021-09-01T10:04:03Z</time>
      </trkpt>
      <trkpt lat="39.591048" lon="3.258946">
        <ele>98.208</ele>
        <time>2021-09-01T10:04:04Z</time>
      </trkpt>
      <trkpt lat="39.591012" lon="3.258881">
        <ele>98.153</ele>
        <time>2021-09-01T10:04:05Z</time>
      </trkpt>
      <trkpt lat="39.590979" lon="3.258825">
        <ele>98.157</ele>
        <time>2021-09-01T10:04:06Z</time>
      </trkpt>
      <trkpt lat="39.590944" lon="3.258765">
        <ele>98.072</ele>
        <time>2021-09-01T10:04:07Z</time>
      </trkpt>
      <trkpt lat="39.590908" lon="3.258707">
        <ele>97.916</ele>
        <time>2021-09-01T10:04:08Z</time>
      </trkpt>
      <trkpt lat="39.590876" lon="3.258646">
        <ele>97.835</ele>
        <time>2021-09-01T10:04:09Z</time>
      </trkpt>
      <trkpt lat="39.590843" lon="3.258586">
        <ele>97.850</ele>
        <time>2021-09-01T10:04:10Z</time>
      </trkpt>
      <trkpt lat="39.590808" lon="3.258528">
        <ele>97.827</ele>
        <time>2021-09-01T10:04:11Z</time>
      </trkpt>
      <trkpt lat="39.590774" lon="3.258467">
        <ele>97.847</ele>
        <time>2021-09-01T10:04:12Z</time>
      </trkpt>
      <trkpt lat="39.590739" lon="3.258405">
        <ele>97.851</ele>
        <time>2021-09-01T10:04:13Z</time>
      </trkpt>
      <trkpt lat="39.590704" lon="3.258341">
        <ele>97.801</ele>
        <time>2021-09-01T10:04:14Z</time>
      </trkpt>
      <trkpt lat="39.590670" lon="3.258277">
        <ele>97.811</ele>
        <time>2021-09-01T10:04:15Z</time>
      </trkpt>
      <trkpt lat="39.590632" lon="3.258216">
        <ele>97.808</ele>
        <time>2021-09-01T10:04:16Z</time>
      </trkpt>
      <trkpt lat="39.590597" lon="3.258150">
        <ele>97.763</ele>
        <time>2021-09-01T10:04:17Z</time>
      </trkpt>
      <trkpt lat="39.590562" lon="3.258088">
        <ele>97.767</ele>
        <time>2021-09-01T10:04:18Z</time>
      </trkpt>
      <trkpt lat="39.590526" lon="3.258020">
        <ele>97.662</ele>
        <time>2021-09-01T10:04:19Z</time>
      </trkpt>
      <trkpt lat="39.590493" lon="3.257951">
        <ele>97.676</ele>
        <time>2021-09-01T10:04:20Z</time>
      </trkpt>
      <trkpt lat="39.590458" lon="3.257890">
        <ele>97.655</ele>
        <time>2021-09-01T10:04:21Z</time>
      </trkpt>
      <trkpt lat="39.590420" lon="3.257834">
        <ele>97.520</ele>
        <time>2021-09-01T10:04:22Z</time>
      </trkpt>
      <trkpt lat="39.590380" lon="3.257770">
        <ele>97.597</ele>
        <time>2021-09-01T10:04:23Z</time>
      </trkpt>
      <trkpt lat="39.590345" lon="3.257701">
        <ele>97.577</ele>
        <time>2021-09-01T10:04:24Z</time>
      </trkpt>
      <trkpt lat="39.590309" lon="3.257636">
        <ele>97.567</ele>
        <time>2021-09-01T10:04:25Z</time>
      </trkpt>
      <trkpt lat="39.590271" lon="3.257570">
        <ele>97.481</ele>
        <time>2021-09-01T10:04:26Z</time>
      </trkpt>
      <trkpt lat="39.590235" lon="3.257506">
        <ele>97.419</ele>
        <time>2021-09-01T10:04:27Z</time>
      </trkpt>
      <trkpt lat="39.590202" lon="3.257443">
        <ele>97.308</ele>
        <time>2021-09-01T10:04:28Z</time>
      </trkpt>
      <trkpt lat="39.590167" lon="3.257375">
        <ele>97.164</ele>
        <time>2021-09-01T10:04:29Z</time>
      </trkpt>
      <trkpt lat="39.590134" lon="3.257313">
        <ele>96.988</ele>
        <time>2021-09-01T10:04:30Z</time>
      </trkpt>
      <trkpt lat="39.590103" lon="3.257253">
        <ele>96.873</ele>
        <time>2021-09-01T10:04:31Z</time>
      </trkpt>
      <trkpt lat="39.590070" lon="3.257191">
        <ele>96.737</ele>
        <time>2021-09-01T10:04:32Z</time>
      </trkpt>
      <trkpt lat="39.590037" lon="3.257137">
        <ele>96.776</ele>
        <time>2021-09-01T10:04:33Z</time>
      </trkpt>
      <trkpt lat="39.590004" lon="3.257078">
        <ele>96.731</ele>
        <time>2021-09-01T10:04:34Z</time>
      </trkpt>
      <trkpt lat="39.589968" lon="3.257015">
        <ele>96.818</ele>
        <time>2021-09-01T10:04:35Z</time>
      </trkpt>
      <trkpt lat="39.589933" lon="3.256954">
        <ele>96.848</ele>
        <time>2021-09-01T10:04:36Z</time>
      </trkpt>
      <trkpt lat="39.589898" lon="3.256887">
        <ele>96.844</ele>
        <time>2021-09-01T10:04:37Z</time>
      </trkpt>
      <trkpt lat="39.589862" lon="3.256823">
        <ele>96.805</ele>
        <time>2021-09-01T10:04:38Z</time>
      </trkpt>
      <trkpt lat="39.589827" lon="3.256756">
        <ele>96.815</ele>
        <time>2021-09-01T10:04:39Z</time>
      </trkpt>
      <trkpt lat="39.589793" lon="3.256689">
        <ele>96.708</ele>
        <time>2021-09-01T10:04:40Z</time>
      </trkpt>
      <trkpt lat="39.589757" lon="3.256622">
        <ele>96.752</ele>
        <time>2021-09-01T10:04:41Z</time>
      </trkpt>
      <trkpt lat="39.589722" lon="3.256557">
        <ele>96.636</ele>
        <time>2021-09-01T10:04:42Z</time>
      </trkpt>
      <trkpt lat="39.589684" lon="3.256492">
        <ele>96.591</ele>
        <time>2021-09-01T10:04:43Z</time>
      </trkpt>
      <trkpt lat="39.589648" lon="3.256426">
        <ele>96.465</ele>
        <time>2021-09-01T10:04:44Z</time>
      </trkpt>
      <trkpt lat="39.589614" lon="3.256362">
        <ele>96.414</ele>
        <time>2021-09-01T10:04:45Z</time>
      </trkpt>
      <trkpt lat="39.589577" lon="3.256293">
        <ele>96.499</ele>
        <time>2021-09-01T10:04:46Z</time>
      </trkpt>
      <trkpt lat="39.589542" lon="3.256231">
        <ele>96.416</ele>
        <time>2021-09-01T10:04:47Z</time>
      </trkpt>
      <trkpt lat="39.589505" lon="3.256167">
        <ele>96.496</ele>
        <time>2021-09-01T10:04:48Z</time>
      </trkpt>
      <trkpt lat="39.589469" lon="3.256104">
        <ele>96.393</ele>
        <time>2021-09-01T10:04:49Z</time>
      </trkpt>
      <trkpt lat="39.589433" lon="3.256037">
        <ele>96.365</ele>
        <time>2021-09-01T10:04:50Z</time>
      </trkpt>
      <trkpt lat="39.589397" lon="3.255973">
        <ele>96.221</ele>
        <time>2021-09-01T10:04:51Z</time>
      </trkpt>
      <trkpt lat="39.589361" lon="3.255910">
        <ele>96.308</ele>
        <time>2021-09-01T10:04:52Z</time>
      </trkpt>
      <trkpt lat="39.589322" lon="3.255843">
        <ele>96.367</ele>
        <time>2021-09-01T10:04:53Z</time>
      </trkpt>
      <trkpt lat="39.589287" lon="3.255778">
        <ele>96.381</ele>
        <time>2021-09-01T10:04:54Z</time>
      </trkpt>
      <trkpt lat="39.589250" lon="3.255711">
        <ele>96.356</ele>
        <time>2021-09-01T10:04:55Z</time>
      </trkpt>
      <trkpt lat="39.589216" lon="3.255650">
        <ele>96.210</ele>
        <time>2021-09-01T10:04:56Z</time>
      </trkpt>
      <trkpt lat="39.589178" lon="3.255584">
        <ele>96.259</ele>
        <time>2021-09-01T10:04:57Z</time>
      </trkpt>
      <trkpt lat="39.589146" lon="3.255517">
        <ele>96.314</ele>
        <time>2021-09-01T10:04:58Z</time>
      </trkpt>
      <trkpt lat="39.589112" lon="3.255457">
        <ele>96.351</ele>
        <time>2021-09-01T10:04:59Z</time>
      </trkpt>
      <trkpt lat="39.589075" lon="3.255395">
        <ele>96.421</ele>
        <time>2021-09-01T10:05:00Z</time>
      </trkpt>
      <trkpt lat="39.589046" lon="3.255338">
        <ele>96.419</ele>
        <time>2021-09-01T10:05:01Z</time>
      </trkpt>
      <trkpt lat="39.589009" lon="3.255276">
        <ele>96.509</ele>
        <time>2021-09-01T10:05:02Z</time>
      </trkpt>
      <trkpt lat="39.588981" lon="3.255220">
        <ele>96.519</ele>
        <time>2021-09-01T10:05:03Z</time>
      </trkpt>
      <trkpt lat="39.588950" lon="3.255162">
        <ele>96.508</ele>
        <time>2021-09-01T10:05:04Z</time>
      </trkpt>
      <trkpt lat="39.588917" lon="3.255108">
        <ele>96.779</ele>
        <time>2021-09-01T10:05:05Z</time>
      </trkpt>
      <trkpt lat="39.588889" lon="3.255057">
        <ele>96.793</ele>
        <time>2021-09-01T10:05:06Z</time>
      </trkpt>
      <trkpt lat="39.588855" lon="3.255002">
        <ele>96.848</ele>
        <time>2021-09-01T10:05:07Z</time>
      </trkpt>
      <trkpt lat="39.588828" lon="3.254953">
        <ele>96.832</ele>
        <time>2021-09-01T10:05:08Z</time>
      </trkpt>
      <trkpt lat="39.588797" lon="3.254896">
        <ele>96.841</ele>
        <time>2021-09-01T10:05:09Z</time>
      </trkpt>
      <trkpt lat="39.588770" lon="3.254843">
        <ele>96.826</ele>
        <time>2021-09-01T10:05:10Z</time>
      </trkpt>
      <trkpt lat="39.588742" lon="3.254794">
        <ele>96.733</ele>
        <time>2021-09-01T10:05:11Z</time>
      </trkpt>
      <trkpt lat="39.588712" lon="3.254739">
        <ele>96.783</ele>
        <time>2021-09-01T10:05:12Z</time>
      </trkpt>
      <trkpt lat="39.588683" lon="3.254691">
        <ele>96.714</ele>
        <time>2021-09-01T10:05:13Z</time>
      </trkpt>
      <trkpt lat="39.588658" lon="3.254642">
        <ele>96.754</ele>
        <time>2021-09-01T10:05:14Z</time>
      </trkpt>
      <trkpt lat="39.588627" lon="3.254591">
        <ele>96.709</ele>
        <time>2021-09-01T10:05:15Z</time>
      </trkpt>
      <trkpt lat="39.588601" lon="3.254542">
        <ele>96.708</ele>
        <time>2021-09-01T10:05:16Z</time>
      </trkpt>
      <trkpt lat="39.588572" lon="3.254490">
        <ele>96.819</ele>
        <time>2021-09-01T10:05:17Z</time>
      </trkpt>
      <trkpt lat="39.588542" lon="3.254442">
        <ele>96.933</ele>
        <time>2021-09-01T10:05:18Z</time>
      </trkpt>
      <trkpt lat="39.588492" lon="3.254349">
        <ele>97.118</ele>
        <time>2021-09-01T10:05:20Z</time>
      </trkpt>
      <trkpt lat="39.588444" lon="3.254261">
        <ele>97.272</ele>
        <time>2021-09-01T10:05:22Z</time>
      </trkpt>
      <trkpt lat="39.588419" lon="3.254209">
        <ele>97.261</ele>
        <time>2021-09-01T10:05:23Z</time>
      </trkpt>
      <trkpt lat="39.588366" lon="3.254119">
        <ele>97.396</ele>
        <time>2021-09-01T10:05:25Z</time>
      </trkpt>
      <trkpt lat="39.588313" lon="3.254025">
        <ele>97.523</ele>
        <time>2021-09-01T10:05:27Z</time>
      </trkpt>
      <trkpt lat="39.588286" lon="3.253974">
        <ele>97.623</ele>
        <time>2021-09-01T10:05:28Z</time>
      </trkpt>
      <trkpt lat="39.588235" lon="3.253875">
        <ele>97.876</ele>
        <time>2021-09-01T10:05:30Z</time>
      </trkpt>
      <trkpt lat="39.588181" lon="3.253779">
        <ele>97.990</ele>
        <time>2021-09-01T10:05:32Z</time>
      </trkpt>
      <trkpt lat="39.588151" lon="3.253730">
        <ele>97.919</ele>
        <time>2021-09-01T10:05:33Z</time>
      </trkpt>
      <trkpt lat="39.588124" lon="3.253680">
        <ele>97.908</ele>
        <time>2021-09-01T10:05:34Z</time>
      </trkpt>
      <trkpt lat="39.588096" lon="3.253629">
        <ele>98.095</ele>
        <time>2021-09-01T10:05:35Z</time>
      </trkpt>
      <trkpt lat="39.588068" lon="3.253580">
        <ele>98.139</ele>
        <time>2021-09-01T10:05:36Z</time>
      </trkpt>
      <trkpt lat="39.588042" lon="3.253529">
        <ele>98.284</ele>
        <time>2021-09-01T10:05:37Z</time>
      </trkpt>
      <trkpt lat="39.588014" lon="3.253480">
        <ele>98.348</ele>
        <time>2021-09-01T10:05:38Z</time>
      </trkpt>
      <trkpt lat="39.587986" lon="3.253431">
        <ele>98.347</ele>
        <time>2021-09-01T10:05:39Z</time>
      </trkpt>
      <trkpt lat="39.587957" lon="3.253383">
        <ele>98.372</ele>
        <time>2021-09-01T10:05:40Z</time>
      </trkpt>
      <trkpt lat="39.587929" lon="3.253333">
        <ele>98.349</ele>
        <time>2021-09-01T10:05:41Z</time>
      </trkpt>
      <trkpt lat="39.587903" lon="3.253281">
        <ele>98.459</ele>
        <time>2021-09-01T10:05:42Z</time>
      </trkpt>
      <trkpt lat="39.587875" lon="3.253232">
        <ele>98.565</ele>
        <time>2021-09-01T10:05:43Z</time>
      </trkpt>
      <trkpt lat="39.587825" lon="3.253141">
        <ele>98.868</ele>
        <time>2021-09-01T10:05:45Z</time>
      </trkpt>
      <trkpt lat="39.587799" lon="3.253092">
        <ele>98.814</ele>
        <time>2021-09-01T10:05:46Z</time>
      </trkpt>
      <trkpt lat="39.587774" lon="3.253043">
        <ele>98.908</ele>
        <time>2021-09-01T10:05:47Z</time>
      </trkpt>
      <trkpt lat="39.587744" lon="3.252996">
        <ele>98.964</ele>
        <time>2021-09-01T10:05:48Z</time>
      </trkpt>
      <trkpt lat="39.587715" lon="3.252947">
        <ele>98.918</ele>
        <time>2021-09-01T10:05:49Z</time>
      </trkpt>
      <trkpt lat="39.587669" lon="3.252852">
        <ele>99.033</ele>
        <time>2021-09-01T10:05:51Z</time>
      </trkpt>
      <trkpt lat="39.587644" lon="3.252803">
        <ele>99.167</ele>
        <time>2021-09-01T10:05:52Z</time>
      </trkpt>
      <trkpt lat="39.587598" lon="3.252717">
        <ele>99.326</ele>
        <time>2021-09-01T10:05:54Z</time>
      </trkpt>
      <trkpt lat="39.587554" lon="3.252632">
        <ele>99.341</ele>
        <time>2021-09-01T10:05:56Z</time>
      </trkpt>
      <trkpt lat="39.587507" lon="3.252547">
        <ele>99.358</ele>
        <time>2021-09-01T10:05:58Z</time>
      </trkpt>
      <trkpt lat="39.587463" lon="3.252468">
        <ele>99.298</ele>
        <time>2021-09-01T10:06:00Z</time>
      </trkpt>
      <trkpt lat="39.587407" lon="3.252396">
        <ele>99.335</ele>
        <time>2021-09-01T10:06:02Z</time>
      </trkpt>
      <trkpt lat="39.587361" lon="3.252298">
        <ele>99.486</ele>
        <time>2021-09-01T10:06:04Z</time>
      </trkpt>
      <trkpt lat="39.587338" lon="3.252243">
        <ele>99.514</ele>
        <time>2021-09-01T10:06:05Z</time>
      </trkpt>
      <trkpt lat="39.587311" lon="3.252190">
        <ele>99.708</ele>
        <time>2021-09-01T10:06:06Z</time>
      </trkpt>
      <trkpt lat="39.587284" lon="3.252140">
        <ele>99.871</ele>
        <time>2021-09-01T10:06:07Z</time>
      </trkpt>
      <trkpt lat="39.587251" lon="3.252093">
        <ele>99.875</ele>
        <time>2021-09-01T10:06:08Z</time>
      </trkpt>
      <trkpt lat="39.587220" lon="3.252046">
        <ele>99.960</ele>
        <time>2021-09-01T10:06:09Z</time>
      </trkpt>
      <trkpt lat="39.587193" lon="3.251997">
        <ele>99.924</ele>
        <time>2021-09-01T10:06:10Z</time>
      </trkpt>
      <trkpt lat="39.587164" lon="3.251947">
        <ele>99.973</ele>
        <time>2021-09-01T10:06:11Z</time>
      </trkpt>
      <trkpt lat="39.587135" lon="3.251898">
        <ele>99.968</ele>
        <time>2021-09-01T10:06:12Z</time>
      </trkpt>
      <trkpt lat="39.587109" lon="3.251849">
        <ele>99.925</ele>
        <time>2021-09-01T10:06:13Z</time>
      </trkpt>
      <trkpt lat="39.587084" lon="3.251799">
        <ele>100.035</ele>
        <time>2021-09-01T10:06:14Z</time>
      </trkpt>
      <trkpt lat="39.587056" lon="3.251749">
        <ele>100.235</ele>
        <time>2021-09-01T10:06:15Z</time>
      </trkpt>
      <trkpt lat="39.587030" lon="3.251697">
        <ele>100.486</ele>
        <time>2021-09-01T10:06:16Z</time>
      </trkpt>
      <trkpt lat="39.586975" lon="3.251605">
        <ele>100.814</ele>
        <time>2021-09-01T10:06:18Z</time>
      </trkpt>
      <trkpt lat="39.586947" lon="3.251555">
        <ele>101.008</ele>
        <time>2021-09-01T10:06:19Z</time>
      </trkpt>
      <trkpt lat="39.586894" lon="3.251459">
        <ele>101.191</ele>
        <time>2021-09-01T10:06:21Z</time>
      </trkpt>
      <trkpt lat="39.586868" lon="3.251411">
        <ele>101.185</ele>
        <time>2021-09-01T10:06:22Z</time>
      </trkpt>
      <trkpt lat="39.586841" lon="3.251362">
        <ele>101.010</ele>
        <time>2021-09-01T10:06:23Z</time>
      </trkpt>
      <trkpt lat="39.586813" lon="3.251314">
        <ele>101.034</ele>
        <time>2021-09-01T10:06:24Z</time>
      </trkpt>
      <trkpt lat="39.586785" lon="3.251264">
        <ele>100.953</ele>
        <time>2021-09-01T10:06:25Z</time>
      </trkpt>
      <trkpt lat="39.586757" lon="3.251216">
        <ele>100.838</ele>
        <time>2021-09-01T10:06:26Z</time>
      </trkpt>
      <trkpt lat="39.586730" lon="3.251167">
        <ele>100.865</ele>
        <time>2021-09-01T10:06:27Z</time>
      </trkpt>
      <trkpt lat="39.586671" lon="3.251081">
        <ele>100.835</ele>
        <time>2021-09-01T10:06:29Z</time>
      </trkpt>
      <trkpt lat="39.586621" lon="3.250988">
        <ele>100.913</ele>
        <time>2021-09-01T10:06:31Z</time>
      </trkpt>
      <trkpt lat="39.586579" lon="3.250889">
        <ele>101.043</ele>
        <time>2021-09-01T10:06:33Z</time>
      </trkpt>
      <trkpt lat="39.586532" lon="3.250797">
        <ele>101.107</ele>
        <time>2021-09-01T10:06:35Z</time>
      </trkpt>
      <trkpt lat="39.586483" lon="3.250714">
        <ele>101.308</ele>
        <time>2021-09-01T10:06:37Z</time>
      </trkpt>
      <trkpt lat="39.586434" lon="3.250627">
        <ele>101.459</ele>
        <time>2021-09-01T10:06:39Z</time>
      </trkpt>
      <trkpt lat="39.586386" lon="3.250536">
        <ele>101.593</ele>
        <time>2021-09-01T10:06:41Z</time>
      </trkpt>
      <trkpt lat="39.586340" lon="3.250441">
        <ele>101.678</ele>
        <time>2021-09-01T10:06:43Z</time>
      </trkpt>
      <trkpt lat="39.586290" lon="3.250352">
        <ele>101.642</ele>
        <time>2021-09-01T10:06:45Z</time>
      </trkpt>
      <trkpt lat="39.586240" lon="3.250263">
        <ele>101.851</ele>
        <time>2021-09-01T10:06:47Z</time>
      </trkpt>
      <trkpt lat="39.586211" lon="3.250213">
        <ele>101.986</ele>
        <time>2021-09-01T10:06:48Z</time>
      </trkpt>
      <trkpt lat="39.586155" lon="3.250123">
        <ele>102.133</ele>
        <time>2021-09-01T10:06:50Z</time>
      </trkpt>
      <trkpt lat="39.586129" lon="3.250076">
        <ele>102.243</ele>
        <time>2021-09-01T10:06:51Z</time>
      </trkpt>
      <trkpt lat="39.586103" lon="3.250027">
        <ele>102.423</ele>
        <time>2021-09-01T10:06:52Z</time>
      </trkpt>
      <trkpt lat="39.586055" lon="3.249930">
        <ele>102.683</ele>
        <time>2021-09-01T10:06:54Z</time>
      </trkpt>
      <trkpt lat="39.586002" lon="3.249844">
        <ele>102.711</ele>
        <time>2021-09-01T10:06:56Z</time>
      </trkpt>
      <trkpt lat="39.585972" lon="3.249797">
        <ele>102.708</ele>
        <time>2021-09-01T10:06:57Z</time>
      </trkpt>
      <trkpt lat="39.585943" lon="3.249746">
        <ele>102.870</ele>
        <time>2021-09-01T10:06:58Z</time>
      </trkpt>
      <trkpt lat="39.585893" lon="3.249649">
        <ele>102.934</ele>
        <time>2021-09-01T10:07:00Z</time>
      </trkpt>
      <trkpt lat="39.585866" lon="3.249600">
        <ele>103.029</ele>
        <time>2021-09-01T10:07:01Z</time>
      </trkpt>
      <trkpt lat="39.585840" lon="3.249553">
        <ele>103.163</ele>
        <time>2021-09-01T10:07:02Z</time>
      </trkpt>
      <trkpt lat="39.585815" lon="3.249500">
        <ele>103.172</ele>
        <time>2021-09-01T10:07:03Z</time>
      </trkpt>
      <trkpt lat="39.585763" lon="3.249407">
        <ele>103.217</ele>
        <time>2021-09-01T10:07:05Z</time>
      </trkpt>
      <trkpt lat="39.585715" lon="3.249318">
        <ele>103.394</ele>
        <time>2021-09-01T10:07:07Z</time>
      </trkpt>
      <trkpt lat="39.585674" lon="3.249229">
        <ele>103.334</ele>
        <time>2021-09-01T10:07:09Z</time>
      </trkpt>
      <trkpt lat="39.585645" lon="3.249137">
        <ele>103.316</ele>
        <time>2021-09-01T10:07:11Z</time>
      </trkpt>
      <trkpt lat="39.585588" lon="3.249081">
        <ele>103.276</ele>
        <time>2021-09-01T10:07:13Z</time>
      </trkpt>
      <trkpt lat="39.585554" lon="3.249041">
        <ele>103.313</ele>
        <time>2021-09-01T10:07:14Z</time>
      </trkpt>
      <trkpt lat="39.585507" lon="3.248950">
        <ele>103.408</ele>
        <time>2021-09-01T10:07:16Z</time>
      </trkpt>
      <trkpt lat="39.585467" lon="3.248854">
        <ele>103.479</ele>
        <time>2021-09-01T10:07:18Z</time>
      </trkpt>
      <trkpt lat="39.585418" lon="3.248775">
        <ele>103.363</ele>
        <time>2021-09-01T10:07:20Z</time>
      </trkpt>
      <trkpt lat="39.585365" lon="3.248684">
        <ele>103.428</ele>
        <time>2021-09-01T10:07:22Z</time>
      </trkpt>
      <trkpt lat="39.585319" lon="3.248595">
        <ele>103.652</ele>
        <time>2021-09-01T10:07:24Z</time>
      </trkpt>
      <trkpt lat="39.585267" lon="3.248501">
        <ele>103.891</ele>
        <time>2021-09-01T10:07:26Z</time>
      </trkpt>
      <trkpt lat="39.585218" lon="3.248411">
        <ele>103.866</ele>
        <time>2021-09-01T10:07:28Z</time>
      </trkpt>
      <trkpt lat="39.585164" lon="3.248321">
        <ele>103.973</ele>
        <time>2021-09-01T10:07:30Z</time>
      </trkpt>
      <trkpt lat="39.585120" lon="3.248234">
        <ele>104.073</ele>
        <time>2021-09-01T10:07:32Z</time>
      </trkpt>
      <trkpt lat="39.585077" lon="3.248145">
        <ele>104.237</ele>
        <time>2021-09-01T10:07:34Z</time>
      </trkpt>
      <trkpt lat="39.585032" lon="3.248059">
        <ele>104.349</ele>
        <time>2021-09-01T10:07:36Z</time>
      </trkpt>
      <trkpt lat="39.584986" lon="3.247970">
        <ele>104.513</ele>
        <time>2021-09-01T10:07:38Z</time>
      </trkpt>
      <trkpt lat="39.584934" lon="3.247883">
        <ele>104.608</ele>
        <time>2021-09-01T10:07:40Z</time>
      </trkpt>
      <trkpt lat="39.584885" lon="3.247792">
        <ele>104.871</ele>
        <time>2021-09-01T10:07:42Z</time>
      </trkpt>
      <trkpt lat="39.584837" lon="3.247703">
        <ele>105.125</ele>
        <time>2021-09-01T10:07:44Z</time>
      </trkpt>
      <trkpt lat="39.584792" lon="3.247610">
        <ele>105.420</ele>
        <time>2021-09-01T10:07:46Z</time>
      </trkpt>
      <trkpt lat="39.584737" lon="3.247524">
        <ele>105.744</ele>
        <time>2021-09-01T10:07:48Z</time>
      </trkpt>
      <trkpt lat="39.584685" lon="3.247438">
        <ele>106.073</ele>
        <time>2021-09-01T10:07:50Z</time>
      </trkpt>
      <trkpt lat="39.584632" lon="3.247355">
        <ele>106.068</ele>
        <time>2021-09-01T10:07:52Z</time>
      </trkpt>
      <trkpt lat="39.584576" lon="3.247265">
        <ele>106.055</ele>
        <time>2021-09-01T10:07:54Z</time>
      </trkpt>
      <trkpt lat="39.584520" lon="3.247179">
        <ele>106.085</ele>
        <time>2021-09-01T10:07:56Z</time>
      </trkpt>
      <trkpt lat="39.584464" lon="3.247098">
        <ele>106.281</ele>
        <time>2021-09-01T10:07:58Z</time>
      </trkpt>
      <trkpt lat="39.584413" lon="3.247018">
        <ele>106.461</ele>
        <time>2021-09-01T10:08:00Z</time>
      </trkpt>
      <trkpt lat="39.584360" lon="3.246949">
        <ele>106.617</ele>
        <time>2021-09-01T10:08:02Z</time>
      </trkpt>
      <trkpt lat="39.584329" lon="3.246906">
        <ele>106.608</ele>
        <time>2021-09-01T10:08:03Z</time>
      </trkpt>
      <trkpt lat="39.584279" lon="3.246832">
        <ele>106.626</ele>
        <time>2021-09-01T10:08:05Z</time>
      </trkpt>
      <trkpt lat="39.584228" lon="3.246754">
        <ele>106.780</ele>
        <time>2021-09-01T10:08:07Z</time>
      </trkpt>
      <trkpt lat="39.584195" lon="3.246713">
        <ele>106.715</ele>
        <time>2021-09-01T10:08:08Z</time>
      </trkpt>
      <trkpt lat="39.584136" lon="3.246638">
        <ele>106.699</ele>
        <time>2021-09-01T10:08:10Z</time>
      </trkpt>
      <trkpt lat="39.584082" lon="3.246564">
        <ele>106.528</ele>
        <time>2021-09-01T10:08:12Z</time>
      </trkpt>
      <trkpt lat="39.584022" lon="3.246487">
        <ele>106.443</ele>
        <time>2021-09-01T10:08:14Z</time>
      </trkpt>
      <trkpt lat="39.583966" lon="3.246410">
        <ele>106.590</ele>
        <time>2021-09-01T10:08:16Z</time>
      </trkpt>
      <trkpt lat="39.583912" lon="3.246330">
        <ele>106.640</ele>
        <time>2021-09-01T10:08:18Z</time>
      </trkpt>
      <trkpt lat="39.583860" lon="3.246249">
        <ele>106.859</ele>
        <time>2021-09-01T10:08:20Z</time>
      </trkpt>
      <trkpt lat="39.583806" lon="3.246167">
        <ele>107.203</ele>
        <time>2021-09-01T10:08:22Z</time>
      </trkpt>
      <trkpt lat="39.583744" lon="3.246099">
        <ele>107.623</ele>
        <time>2021-09-01T10:08:24Z</time>
      </trkpt>
      <trkpt lat="39.583687" lon="3.246018">
        <ele>107.608</ele>
        <time>2021-09-01T10:08:26Z</time>
      </trkpt>
      <trkpt lat="39.583631" lon="3.245939">
        <ele>107.523</ele>
        <time>2021-09-01T10:08:28Z</time>
      </trkpt>
      <trkpt lat="39.583577" lon="3.245868">
        <ele>107.457</ele>
        <time>2021-09-01T10:08:30Z</time>
      </trkpt>
      <trkpt lat="39.583518" lon="3.245803">
        <ele>107.512</ele>
        <time>2021-09-01T10:08:32Z</time>
      </trkpt>
      <trkpt lat="39.583457" lon="3.245741">
        <ele>107.616</ele>
        <time>2021-09-01T10:08:34Z</time>
      </trkpt>
      <trkpt lat="39.583393" lon="3.245682">
        <ele>107.895</ele>
        <time>2021-09-01T10:08:36Z</time>
      </trkpt>
      <trkpt lat="39.583330" lon="3.245613">
        <ele>108.020</ele>
        <time>2021-09-01T10:08:38Z</time>
      </trkpt>
      <trkpt lat="39.583268" lon="3.245546">
        <ele>108.147</ele>
        <time>2021-09-01T10:08:40Z</time>
      </trkpt>
      <trkpt lat="39.583198" lon="3.245471">
        <ele>108.227</ele>
        <time>2021-09-01T10:08:42Z</time>
      </trkpt>
      <trkpt lat="39.583163" lon="3.245434">
        <ele>108.351</ele>
        <time>2021-09-01T10:08:43Z</time>
      </trkpt>
      <trkpt lat="39.583123" lon="3.245392">
        <ele>108.301</ele>
        <time>2021-09-01T10:08:44Z</time>
      </trkpt>
      <trkpt lat="39.583084" lon="3.245353">
        <ele>108.411</ele>
        <time>2021-09-01T10:08:45Z</time>
      </trkpt>
      <trkpt lat="39.583044" lon="3.245313">
        <ele>108.408</ele>
        <time>2021-09-01T10:08:46Z</time>
      </trkpt>
      <trkpt lat="39.583003" lon="3.245280">
        <ele>108.533</ele>
        <time>2021-09-01T10:08:47Z</time>
      </trkpt>
      <trkpt lat="39.582960" lon="3.245241">
        <ele>108.557</ele>
        <time>2021-09-01T10:08:48Z</time>
      </trkpt>
      <trkpt lat="39.582922" lon="3.245204">
        <ele>108.572</ele>
        <time>2021-09-01T10:08:49Z</time>
      </trkpt>
      <trkpt lat="39.582883" lon="3.245162">
        <ele>108.646</ele>
        <time>2021-09-01T10:08:50Z</time>
      </trkpt>
      <trkpt lat="39.582841" lon="3.245121">
        <ele>108.675</ele>
        <time>2021-09-01T10:08:51Z</time>
      </trkpt>
      <trkpt lat="39.582800" lon="3.245082">
        <ele>108.730</ele>
        <time>2021-09-01T10:08:52Z</time>
      </trkpt>
      <trkpt lat="39.582760" lon="3.245036">
        <ele>108.797</ele>
        <time>2021-09-01T10:08:53Z</time>
      </trkpt>
      <trkpt lat="39.582717" lon="3.244995">
        <ele>108.837</ele>
        <time>2021-09-01T10:08:54Z</time>
      </trkpt>
      <trkpt lat="39.582675" lon="3.244953">
        <ele>108.981</ele>
        <time>2021-09-01T10:08:55Z</time>
      </trkpt>
      <trkpt lat="39.582636" lon="3.244911">
        <ele>109.061</ele>
        <time>2021-09-01T10:08:56Z</time>
      </trkpt>
      <trkpt lat="39.582595" lon="3.244871">
        <ele>109.117</ele>
        <time>2021-09-01T10:08:57Z</time>
      </trkpt>
      <trkpt lat="39.582554" lon="3.244827">
        <ele>109.308</ele>
        <time>2021-09-01T10:08:58Z</time>
      </trkpt>
      <trkpt lat="39.582515" lon="3.244788">
        <ele>109.516</ele>
        <time>2021-09-01T10:08:59Z</time>
      </trkpt>
      <trkpt lat="39.582475" lon="3.244752">
        <ele>109.530</ele>
        <time>2021-09-01T10:09:00Z</time>
      </trkpt>
      <trkpt lat="39.582402" lon="3.244694">
        <ele>109.215</ele>
        <time>2021-09-01T10:09:02Z</time>
      </trkpt>
      <trkpt lat="39.582360" lon="3.244667">
        <ele>109.289</ele>
        <time>2021-09-01T10:09:03Z</time>
      </trkpt>
      <trkpt lat="39.582281" lon="3.244621">
        <ele>109.058</ele>
        <time>2021-09-01T10:09:05Z</time>
      </trkpt>
      <trkpt lat="39.582244" lon="3.244587">
        <ele>109.163</ele>
        <time>2021-09-01T10:09:06Z</time>
      </trkpt>
      <trkpt lat="39.582164" lon="3.244527">
        <ele>109.460</ele>
        <time>2021-09-01T10:09:08Z</time>
      </trkpt>
      <trkpt lat="39.582120" lon="3.244496">
        <ele>109.540</ele>
        <time>2021-09-01T10:09:09Z</time>
      </trkpt>
      <trkpt lat="39.582079" lon="3.244462">
        <ele>109.679</ele>
        <time>2021-09-01T10:09:10Z</time>
      </trkpt>
      <trkpt lat="39.582034" lon="3.244432">
        <ele>109.805</ele>
        <time>2021-09-01T10:09:11Z</time>
      </trkpt>
      <trkpt lat="39.581990" lon="3.244399">
        <ele>109.825</ele>
        <time>2021-09-01T10:09:12Z</time>
      </trkpt>
      <trkpt lat="39.581946" lon="3.244366">
        <ele>109.808</ele>
        <time>2021-09-01T10:09:13Z</time>
      </trkpt>
      <trkpt lat="39.581901" lon="3.244330">
        <ele>109.815</ele>
        <time>2021-09-01T10:09:14Z</time>
      </trkpt>
      <trkpt lat="39.581856" lon="3.244299">
        <ele>109.789</ele>
        <time>2021-09-01T10:09:15Z</time>
      </trkpt>
      <trkpt lat="39.581808" lon="3.244265">
        <ele>109.654</ele>
        <time>2021-09-01T10:09:16Z</time>
      </trkpt>
      <trkpt lat="39.581763" lon="3.244231">
        <ele>109.558</ele>
        <time>2021-09-01T10:09:17Z</time>
      </trkpt>
      <trkpt lat="39.581714" lon="3.244198">
        <ele>109.427</ele>
        <time>2021-09-01T10:09:18Z</time>
      </trkpt>
      <trkpt lat="39.581666" lon="3.244165">
        <ele>109.462</ele>
        <time>2021-09-01T10:09:19Z</time>
      </trkpt>
      <trkpt lat="39.581618" lon="3.244127">
        <ele>109.489</ele>
        <time>2021-09-01T10:09:20Z</time>
      </trkpt>
      <trkpt lat="39.581571" lon="3.244092">
        <ele>109.449</ele>
        <time>2021-09-01T10:09:21Z</time>
      </trkpt>
      <trkpt lat="39.581525" lon="3.244059">
        <ele>109.482</ele>
        <time>2021-09-01T10:09:22Z</time>
      </trkpt>
      <trkpt lat="39.581477" lon="3.244025">
        <ele>109.543</ele>
        <time>2021-09-01T10:09:23Z</time>
      </trkpt>
      <trkpt lat="39.581433" lon="3.243990">
        <ele>109.517</ele>
        <time>2021-09-01T10:09:24Z</time>
      </trkpt>
      <trkpt lat="39.581386" lon="3.243961">
        <ele>109.608</ele>
        <time>2021-09-01T10:09:25Z</time>
      </trkpt>
      <trkpt lat="39.581341" lon="3.243923">
        <ele>109.716</ele>
        <time>2021-09-01T10:09:26Z</time>
      </trkpt>
      <trkpt lat="39.581294" lon="3.243888">
        <ele>109.860</ele>
        <time>2021-09-01T10:09:27Z</time>
      </trkpt>
      <trkpt lat="39.581246" lon="3.243851">
        <ele>109.835</ele>
        <time>2021-09-01T10:09:28Z</time>
      </trkpt>
      <trkpt lat="39.581196" lon="3.243816">
        <ele>109.819</ele>
        <time>2021-09-01T10:09:29Z</time>
      </trkpt>
      <trkpt lat="39.581150" lon="3.243777">
        <ele>109.838</ele>
        <time>2021-09-01T10:09:30Z</time>
      </trkpt>
      <trkpt lat="39.581102" lon="3.243736">
        <ele>109.863</ele>
        <time>2021-09-01T10:09:31Z</time>
      </trkpt>
      <trkpt lat="39.581057" lon="3.243696">
        <ele>109.720</ele>
        <time>2021-09-01T10:09:32Z</time>
      </trkpt>
      <trkpt lat="39.581009" lon="3.243660">
        <ele>109.720</ele>
        <time>2021-09-01T10:09:33Z</time>
      </trkpt>
      <trkpt lat="39.580962" lon="3.243618">
        <ele>109.679</ele>
        <time>2021-09-01T10:09:34Z</time>
      </trkpt>
      <trkpt lat="39.580914" lon="3.243580">
        <ele>109.605</ele>
        <time>2021-09-01T10:09:35Z</time>
      </trkpt>
      <trkpt lat="39.580865" lon="3.243542">
        <ele>109.625</ele>
        <time>2021-09-01T10:09:36Z</time>
      </trkpt>
      <trkpt lat="39.580813" lon="3.243501">
        <ele>109.608</ele>
        <time>2021-09-01T10:09:37Z</time>
      </trkpt>
      <trkpt lat="39.580763" lon="3.243462">
        <ele>109.525</ele>
        <time>2021-09-01T10:09:38Z</time>
      </trkpt>
      <trkpt lat="39.580712" lon="3.243427">
        <ele>109.519</ele>
        <time>2021-09-01T10:09:39Z</time>
      </trkpt>
      <trkpt lat="39.580666" lon="3.243385">
        <ele>109.474</ele>
        <time>2021-09-01T10:09:40Z</time>
      </trkpt>
      <trkpt lat="39.580616" lon="3.243348">
        <ele>109.498</ele>
        <time>2021-09-01T10:09:41Z</time>
      </trkpt>
      <trkpt lat="39.580567" lon="3.243306">
        <ele>109.357</ele>
        <time>2021-09-01T10:09:42Z</time>
      </trkpt>
      <trkpt lat="39.580518" lon="3.243271">
        <ele>109.372</ele>
        <time>2021-09-01T10:09:43Z</time>
      </trkpt>
      <trkpt lat="39.580465" lon="3.243231">
        <ele>109.299</ele>
        <time>2021-09-01T10:09:44Z</time>
      </trkpt>
      <trkpt lat="39.580414" lon="3.243191">
        <ele>109.129</ele>
        <time>2021-09-01T10:09:45Z</time>
      </trkpt>
      <trkpt lat="39.580364" lon="3.243150">
        <ele>109.113</ele>
        <time>2021-09-01T10:09:46Z</time>
      </trkpt>
      <trkpt lat="39.580312" lon="3.243119">
        <ele>109.043</ele>
        <time>2021-09-01T10:09:47Z</time>
      </trkpt>
      <trkpt lat="39.580258" lon="3.243081">
        <ele>108.807</ele>
        <time>2021-09-01T10:09:48Z</time>
      </trkpt>
      <trkpt lat="39.580204" lon="3.243035">
        <ele>108.708</ele>
        <time>2021-09-01T10:09:49Z</time>
      </trkpt>
      <trkpt lat="39.580150" lon="3.242997">
        <ele>108.669</ele>
        <time>2021-09-01T10:09:50Z</time>
      </trkpt>
      <trkpt lat="39.580098" lon="3.242959">
        <ele>108.583</ele>
        <time>2021-09-01T10:09:51Z</time>
      </trkpt>
      <trkpt lat="39.580048" lon="3.242918">
        <ele>108.498</ele>
        <time>2021-09-01T10:09:52Z</time>
      </trkpt>
      <trkpt lat="39.579998" lon="3.242884">
        <ele>108.392</ele>
        <time>2021-09-01T10:09:53Z</time>
      </trkpt>
      <trkpt lat="39.579944" lon="3.242849">
        <ele>108.331</ele>
        <time>2021-09-01T10:09:54Z</time>
      </trkpt>
      <trkpt lat="39.579896" lon="3.242803">
        <ele>108.456</ele>
        <time>2021-09-01T10:09:55Z</time>
      </trkpt>
      <trkpt lat="39.579848" lon="3.242760">
        <ele>108.483</ele>
        <time>2021-09-01T10:09:56Z</time>
      </trkpt>
      <trkpt lat="39.579798" lon="3.242712">
        <ele>108.423</ele>
        <time>2021-09-01T10:09:57Z</time>
      </trkpt>
      <trkpt lat="39.579749" lon="3.242670">
        <ele>108.492</ele>
        <time>2021-09-01T10:09:58Z</time>
      </trkpt>
      <trkpt lat="39.579697" lon="3.242636">
        <ele>108.473</ele>
        <time>2021-09-01T10:09:59Z</time>
      </trkpt>
      <trkpt lat="39.579646" lon="3.242601">
        <ele>108.420</ele>
        <time>2021-09-01T10:10:00Z</time>
      </trkpt>
      <trkpt lat="39.579589" lon="3.242559">
        <ele>108.408</ele>
        <time>2021-09-01T10:10:01Z</time>
      </trkpt>
      <trkpt lat="39.579536" lon="3.242516">
        <ele>108.437</ele>
        <time>2021-09-01T10:10:02Z</time>
      </trkpt>
      <trkpt lat="39.579487" lon="3.242473">
        <ele>108.431</ele>
        <time>2021-09-01T10:10:03Z</time>
      </trkpt>
      <trkpt lat="39.579436" lon="3.242431">
        <ele>108.486</ele>
        <time>2021-09-01T10:10:04Z</time>
      </trkpt>
      <trkpt lat="39.579385" lon="3.242392">
        <ele>108.480</ele>
        <time>2021-09-01T10:10:05Z</time>
      </trkpt>
      <trkpt lat="39.579334" lon="3.242354">
        <ele>108.449</ele>
        <time>2021-09-01T10:10:06Z</time>
      </trkpt>
      <trkpt lat="39.579287" lon="3.242317">
        <ele>108.494</ele>
        <time>2021-09-01T10:10:07Z</time>
      </trkpt>
      <trkpt lat="39.579237" lon="3.242285">
        <ele>108.371</ele>
        <time>2021-09-01T10:10:08Z</time>
      </trkpt>
      <trkpt lat="39.579179" lon="3.242236">
        <ele>108.321</ele>
        <time>2021-09-01T10:10:09Z</time>
      </trkpt>
      <trkpt lat="39.579127" lon="3.242196">
        <ele>108.367</ele>
        <time>2021-09-01T10:10:10Z</time>
      </trkpt>
      <trkpt lat="39.579073" lon="3.242158">
        <ele>108.281</ele>
        <time>2021-09-01T10:10:11Z</time>
      </trkpt>
      <trkpt lat="39.579019" lon="3.242116">
        <ele>108.119</ele>
        <time>2021-09-01T10:10:12Z</time>
      </trkpt>
      <trkpt lat="39.578969" lon="3.242076">
        <ele>108.008</ele>
        <time>2021-09-01T10:10:13Z</time>
      </trkpt>
      <trkpt lat="39.578917" lon="3.242038">
        <ele>107.844</ele>
        <time>2021-09-01T10:10:14Z</time>
      </trkpt>
      <trkpt lat="39.578867" lon="3.242001">
        <ele>107.638</ele>
        <time>2021-09-01T10:10:15Z</time>
      </trkpt>
      <trkpt lat="39.578817" lon="3.241965">
        <ele>107.593</ele>
        <time>2021-09-01T10:10:16Z</time>
      </trkpt>
      <trkpt lat="39.578768" lon="3.241935">
        <ele>107.447</ele>
        <time>2021-09-01T10:10:17Z</time>
      </trkpt>
      <trkpt lat="39.578713" lon="3.241901">
        <ele>107.496</ele>
        <time>2021-09-01T10:10:18Z</time>
      </trkpt>
      <trkpt lat="39.578661" lon="3.241864">
        <ele>107.481</ele>
        <time>2021-09-01T10:10:19Z</time>
      </trkpt>
      <trkpt lat="39.578611" lon="3.241827">
        <ele>107.348</ele>
        <time>2021-09-01T10:10:20Z</time>
      </trkpt>
      <trkpt lat="39.578556" lon="3.241789">
        <ele>107.388</ele>
        <time>2021-09-01T10:10:21Z</time>
      </trkpt>
      <trkpt lat="39.578501" lon="3.241744">
        <ele>107.537</ele>
        <time>2021-09-01T10:10:22Z</time>
      </trkpt>
      <trkpt lat="39.578452" lon="3.241705">
        <ele>107.649</ele>
        <time>2021-09-01T10:10:23Z</time>
      </trkpt>
      <trkpt lat="39.578401" lon="3.241667">
        <ele>107.613</ele>
        <time>2021-09-01T10:10:24Z</time>
      </trkpt>
      <trkpt lat="39.578350" lon="3.241631">
        <ele>107.508</ele>
        <time>2021-09-01T10:10:25Z</time>
      </trkpt>
      <trkpt lat="39.578299" lon="3.241595">
        <ele>107.461</ele>
        <time>2021-09-01T10:10:26Z</time>
      </trkpt>
      <trkpt lat="39.578248" lon="3.241560">
        <ele>107.395</ele>
        <time>2021-09-01T10:10:27Z</time>
      </trkpt>
      <trkpt lat="39.578194" lon="3.241527">
        <ele>107.040</ele>
        <time>2021-09-01T10:10:28Z</time>
      </trkpt>
      <trkpt lat="39.578139" lon="3.241493">
        <ele>106.974</ele>
        <time>2021-09-01T10:10:29Z</time>
      </trkpt>
      <trkpt lat="39.578083" lon="3.241454">
        <ele>106.863</ele>
        <time>2021-09-01T10:10:30Z</time>
      </trkpt>
      <trkpt lat="39.578025" lon="3.241411">
        <ele>106.788</ele>
        <time>2021-09-01T10:10:31Z</time>
      </trkpt>
      <trkpt lat="39.577969" lon="3.241365">
        <ele>106.645</ele>
        <time>2021-09-01T10:10:32Z</time>
      </trkpt>
      <trkpt lat="39.577914" lon="3.241323">
        <ele>106.585</ele>
        <time>2021-09-01T10:10:33Z</time>
      </trkpt>
      <trkpt lat="39.577857" lon="3.241284">
        <ele>106.313</ele>
        <time>2021-09-01T10:10:34Z</time>
      </trkpt>
      <trkpt lat="39.577799" lon="3.241243">
        <ele>106.343</ele>
        <time>2021-09-01T10:10:35Z</time>
      </trkpt>
      <trkpt lat="39.577744" lon="3.241198">
        <ele>106.307</ele>
        <time>2021-09-01T10:10:36Z</time>
      </trkpt>
      <trkpt lat="39.577688" lon="3.241152">
        <ele>106.308</ele>
        <time>2021-09-01T10:10:37Z</time>
      </trkpt>
      <trkpt lat="39.577635" lon="3.241109">
        <ele>106.259</ele>
        <time>2021-09-01T10:10:38Z</time>
      </trkpt>
      <trkpt lat="39.577581" lon="3.241066">
        <ele>106.293</ele>
        <time>2021-09-01T10:10:39Z</time>
      </trkpt>
      <trkpt lat="39.577521" lon="3.241029">
        <ele>106.288</ele>
        <time>2021-09-01T10:10:40Z</time>
      </trkpt>
      <trkpt lat="39.577460" lon="3.240987">
        <ele>106.112</ele>
        <time>2021-09-01T10:10:41Z</time>
      </trkpt>
      <trkpt lat="39.577398" lon="3.240941">
        <ele>105.971</ele>
        <time>2021-09-01T10:10:42Z</time>
      </trkpt>
      <trkpt lat="39.577338" lon="3.240896">
        <ele>105.866</ele>
        <time>2021-09-01T10:10:43Z</time>
      </trkpt>
      <trkpt lat="39.577279" lon="3.240854">
        <ele>105.693</ele>
        <time>2021-09-01T10:10:44Z</time>
      </trkpt>
      <trkpt lat="39.577219" lon="3.240810">
        <ele>105.443</ele>
        <time>2021-09-01T10:10:45Z</time>
      </trkpt>
      <trkpt lat="39.577160" lon="3.240765">
        <ele>105.283</ele>
        <time>2021-09-01T10:10:46Z</time>
      </trkpt>
      <trkpt lat="39.577102" lon="3.240720">
        <ele>105.125</ele>
        <time>2021-09-01T10:10:47Z</time>
      </trkpt>
      <trkpt lat="39.577042" lon="3.240676">
        <ele>105.017</ele>
        <time>2021-09-01T10:10:48Z</time>
      </trkpt>
      <trkpt lat="39.576982" lon="3.240633">
        <ele>105.008</ele>
        <time>2021-09-01T10:10:49Z</time>
      </trkpt>
      <trkpt lat="39.576920" lon="3.240589">
        <ele>105.046</ele>
        <time>2021-09-01T10:10:50Z</time>
      </trkpt>
      <trkpt lat="39.576862" lon="3.240543">
        <ele>105.030</ele>
        <time>2021-09-01T10:10:51Z</time>
      </trkpt>
      <trkpt lat="39.576803" lon="3.240498">
        <ele>105.085</ele>
        <time>2021-09-01T10:10:52Z</time>
      </trkpt>
      <trkpt lat="39.576747" lon="3.240452">
        <ele>104.989</ele>
        <time>2021-09-01T10:10:53Z</time>
      </trkpt>
      <trkpt lat="39.576690" lon="3.240411">
        <ele>104.878</ele>
        <time>2021-09-01T10:10:54Z</time>
      </trkpt>
      <trkpt lat="39.576631" lon="3.240366">
        <ele>104.773</ele>
        <time>2021-09-01T10:10:55Z</time>
      </trkpt>
      <trkpt lat="39.576573" lon="3.240319">
        <ele>104.630</ele>
        <time>2021-09-01T10:10:56Z</time>
      </trkpt>
      <trkpt lat="39.576511" lon="3.240273">
        <ele>104.520</ele>
        <time>2021-09-01T10:10:57Z</time>
      </trkpt>
      <trkpt lat="39.576446" lon="3.240231">
        <ele>104.473</ele>
        <time>2021-09-01T10:10:58Z</time>
      </trkpt>
      <trkpt lat="39.576382" lon="3.240183">
        <ele>104.485</ele>
        <time>2021-09-01T10:10:59Z</time>
      </trkpt>
      <trkpt lat="39.576317" lon="3.240136">
        <ele>104.413</ele>
        <time>2021-09-01T10:11:00Z</time>
      </trkpt>
      <trkpt lat="39.576256" lon="3.240086">
        <ele>104.408</ele>
        <time>2021-09-01T10:11:01Z</time>
      </trkpt>
      <trkpt lat="39.576194" lon="3.240040">
        <ele>104.395</ele>
        <time>2021-09-01T10:11:02Z</time>
      </trkpt>
      <trkpt lat="39.576135" lon="3.239992">
        <ele>104.269</ele>
        <time>2021-09-01T10:11:03Z</time>
      </trkpt>
      <trkpt lat="39.576074" lon="3.239946">
        <ele>104.014</ele>
        <time>2021-09-01T10:11:04Z</time>
      </trkpt>
      <trkpt lat="39.576014" lon="3.239900">
        <ele>103.988</ele>
        <time>2021-09-01T10:11:05Z</time>
      </trkpt>
      <trkpt lat="39.575957" lon="3.239852">
        <ele>103.727</ele>
        <time>2021-09-01T10:11:06Z</time>
      </trkpt>
      <trkpt lat="39.575898" lon="3.239805">
        <ele>103.762</ele>
        <time>2021-09-01T10:11:07Z</time>
      </trkpt>
      <trkpt lat="39.575839" lon="3.239762">
        <ele>103.699</ele>
        <time>2021-09-01T10:11:08Z</time>
      </trkpt>
      <trkpt lat="39.575786" lon="3.239721">
        <ele>103.669</ele>
        <time>2021-09-01T10:11:09Z</time>
      </trkpt>
      <trkpt lat="39.575731" lon="3.239685">
        <ele>103.661</ele>
        <time>2021-09-01T10:11:10Z</time>
      </trkpt>
      <trkpt lat="39.575671" lon="3.239641">
        <ele>103.521</ele>
        <time>2021-09-01T10:11:11Z</time>
      </trkpt>
      <trkpt lat="39.575620" lon="3.239592">
        <ele>103.513</ele>
        <time>2021-09-01T10:11:12Z</time>
      </trkpt>
      <trkpt lat="39.575565" lon="3.239553">
        <ele>103.408</ele>
        <time>2021-09-01T10:11:13Z</time>
      </trkpt>
      <trkpt lat="39.575510" lon="3.239511">
        <ele>103.384</ele>
        <time>2021-09-01T10:11:14Z</time>
      </trkpt>
      <trkpt lat="39.575453" lon="3.239465">
        <ele>103.158</ele>
        <time>2021-09-01T10:11:15Z</time>
      </trkpt>
      <trkpt lat="39.575399" lon="3.239425">
        <ele>103.033</ele>
        <time>2021-09-01T10:11:16Z</time>
      </trkpt>
      <trkpt lat="39.575345" lon="3.239385">
        <ele>102.937</ele>
        <time>2021-09-01T10:11:17Z</time>
      </trkpt>
      <trkpt lat="39.575283" lon="3.239345">
        <ele>102.976</ele>
        <time>2021-09-01T10:11:18Z</time>
      </trkpt>
      <trkpt lat="39.575234" lon="3.239307">
        <ele>102.851</ele>
        <time>2021-09-01T10:11:19Z</time>
      </trkpt>
      <trkpt lat="39.575183" lon="3.239267">
        <ele>102.848</ele>
        <time>2021-09-01T10:11:20Z</time>
      </trkpt>
      <trkpt lat="39.575130" lon="3.239220">
        <ele>102.798</ele>
        <time>2021-09-01T10:11:21Z</time>
      </trkpt>
      <trkpt lat="39.575075" lon="3.239178">
        <ele>102.598</ele>
        <time>2021-09-01T10:11:22Z</time>
      </trkpt>
      <trkpt lat="39.575017" lon="3.239134">
        <ele>102.315</ele>
        <time>2021-09-01T10:11:23Z</time>
      </trkpt>
      <trkpt lat="39.574964" lon="3.239094">
        <ele>102.026</ele>
        <time>2021-09-01T10:11:24Z</time>
      </trkpt>
      <trkpt lat="39.574905" lon="3.239051">
        <ele>101.708</ele>
        <time>2021-09-01T10:11:25Z</time>
      </trkpt>
      <trkpt lat="39.574854" lon="3.239007">
        <ele>101.557</ele>
        <time>2021-09-01T10:11:26Z</time>
      </trkpt>
      <trkpt lat="39.574803" lon="3.238968">
        <ele>101.261</ele>
        <time>2021-09-01T10:11:27Z</time>
      </trkpt>
      <trkpt lat="39.574747" lon="3.238931">
        <ele>101.266</ele>
        <time>2021-09-01T10:11:28Z</time>
      </trkpt>
      <trkpt lat="39.574693" lon="3.238884">
        <ele>101.250</ele>
        <time>2021-09-01T10:11:29Z</time>
      </trkpt>
      <trkpt lat="39.574643" lon="3.238844">
        <ele>101.399</ele>
        <time>2021-09-01T10:11:30Z</time>
      </trkpt>
      <trkpt lat="39.574589" lon="3.238803">
        <ele>101.354</ele>
        <time>2021-09-01T10:11:31Z</time>
      </trkpt>
      <trkpt lat="39.574542" lon="3.238765">
        <ele>101.471</ele>
        <time>2021-09-01T10:11:32Z</time>
      </trkpt>
      <trkpt lat="39.574491" lon="3.238729">
        <ele>101.471</ele>
        <time>2021-09-01T10:11:33Z</time>
      </trkpt>
      <trkpt lat="39.574441" lon="3.238693">
        <ele>101.435</ele>
        <time>2021-09-01T10:11:34Z</time>
      </trkpt>
      <trkpt lat="39.574389" lon="3.238655">
        <ele>101.486</ele>
        <time>2021-09-01T10:11:35Z</time>
      </trkpt>
      <trkpt lat="39.574338" lon="3.238614">
        <ele>101.314</ele>
        <time>2021-09-01T10:11:36Z</time>
      </trkpt>
      <trkpt lat="39.574286" lon="3.238576">
        <ele>101.208</ele>
        <time>2021-09-01T10:11:37Z</time>
      </trkpt>
      <trkpt lat="39.574234" lon="3.238542">
        <ele>101.141</ele>
        <time>2021-09-01T10:11:38Z</time>
      </trkpt>
      <trkpt lat="39.574178" lon="3.238503">
        <ele>101.135</ele>
        <time>2021-09-01T10:11:39Z</time>
      </trkpt>
      <trkpt lat="39.574127" lon="3.238464">
        <ele>101.150</ele>
        <time>2021-09-01T10:11:40Z</time>
      </trkpt>
      <trkpt lat="39.574075" lon="3.238427">
        <ele>101.174</ele>
        <time>2021-09-01T10:11:41Z</time>
      </trkpt>
      <trkpt lat="39.574027" lon="3.238390">
        <ele>101.193</ele>
        <time>2021-09-01T10:11:42Z</time>
      </trkpt>
      <trkpt lat="39.573980" lon="3.238352">
        <ele>101.048</ele>
        <time>2021-09-01T10:11:43Z</time>
      </trkpt>
      <trkpt lat="39.573933" lon="3.238313">
        <ele>100.975</ele>
        <time>2021-09-01T10:11:44Z</time>
      </trkpt>
      <trkpt lat="39.573883" lon="3.238276">
        <ele>100.845</ele>
        <time>2021-09-01T10:11:45Z</time>
      </trkpt>
      <trkpt lat="39.573832" lon="3.238236">
        <ele>100.771</ele>
        <time>2021-09-01T10:11:46Z</time>
      </trkpt>
      <trkpt lat="39.573775" lon="3.238194">
        <ele>100.641</ele>
        <time>2021-09-01T10:11:47Z</time>
      </trkpt>
      <trkpt lat="39.573723" lon="3.238150">
        <ele>100.515</ele>
        <time>2021-09-01T10:11:48Z</time>
      </trkpt>
      <trkpt lat="39.573673" lon="3.238108">
        <ele>100.408</ele>
        <time>2021-09-01T10:11:49Z</time>
      </trkpt>
      <trkpt lat="39.573620" lon="3.238067">
        <ele>100.395</ele>
        <time>2021-09-01T10:11:50Z</time>
      </trkpt>
      <trkpt lat="39.573565" lon="3.238023">
        <ele>100.199</ele>
        <time>2021-09-01T10:11:51Z</time>
      </trkpt>
      <trkpt lat="39.573511" lon="3.237979">
        <ele>100.184</ele>
        <time>2021-09-01T10:11:52Z</time>
      </trkpt>
      <trkpt lat="39.573459" lon="3.237936">
        <ele>100.028</ele>
        <time>2021-09-01T10:11:53Z</time>
      </trkpt>
      <trkpt lat="39.573408" lon="3.237891">
        <ele>99.937</ele>
        <time>2021-09-01T10:11:54Z</time>
      </trkpt>
      <trkpt lat="39.573357" lon="3.237846">
        <ele>99.982</ele>
        <time>2021-09-01T10:11:55Z</time>
      </trkpt>
      <trkpt lat="39.573304" lon="3.237801">
        <ele>99.939</ele>
        <time>2021-09-01T10:11:56Z</time>
      </trkpt>
      <trkpt lat="39.573252" lon="3.237756">
        <ele>99.849</ele>
        <time>2021-09-01T10:11:57Z</time>
      </trkpt>
      <trkpt lat="39.573200" lon="3.237703">
        <ele>99.745</ele>
        <time>2021-09-01T10:11:58Z</time>
      </trkpt>
      <trkpt lat="39.573152" lon="3.237655">
        <ele>99.647</ele>
        <time>2021-09-01T10:11:59Z</time>
      </trkpt>
      <trkpt lat="39.573103" lon="3.237604">
        <ele>99.611</ele>
        <time>2021-09-01T10:12:00Z</time>
      </trkpt>
      <trkpt lat="39.573057" lon="3.237555">
        <ele>99.408</ele>
        <time>2021-09-01T10:12:01Z</time>
      </trkpt>
      <trkpt lat="39.573012" lon="3.237505">
        <ele>99.382</ele>
        <time>2021-09-01T10:12:02Z</time>
      </trkpt>
      <trkpt lat="39.572968" lon="3.237455">
        <ele>99.326</ele>
        <time>2021-09-01T10:12:03Z</time>
      </trkpt>
      <trkpt lat="39.572927" lon="3.237406">
        <ele>99.281</ele>
        <time>2021-09-01T10:12:04Z</time>
      </trkpt>
      <trkpt lat="39.572879" lon="3.237355">
        <ele>99.235</ele>
        <time>2021-09-01T10:12:05Z</time>
      </trkpt>
      <trkpt lat="39.572829" lon="3.237300">
        <ele>99.364</ele>
        <time>2021-09-01T10:12:06Z</time>
      </trkpt>
      <trkpt lat="39.572781" lon="3.237244">
        <ele>99.379</ele>
        <time>2021-09-01T10:12:07Z</time>
      </trkpt>
      <trkpt lat="39.572738" lon="3.237188">
        <ele>99.326</ele>
        <time>2021-09-01T10:12:08Z</time>
      </trkpt>
      <trkpt lat="39.572698" lon="3.237128">
        <ele>99.376</ele>
        <time>2021-09-01T10:12:09Z</time>
      </trkpt>
      <trkpt lat="39.572657" lon="3.237075">
        <ele>99.349</ele>
        <time>2021-09-01T10:12:10Z</time>
      </trkpt>
      <trkpt lat="39.572619" lon="3.237020">
        <ele>99.202</ele>
        <time>2021-09-01T10:12:11Z</time>
      </trkpt>
      <trkpt lat="39.572581" lon="3.236964">
        <ele>99.022</ele>
        <time>2021-09-01T10:12:12Z</time>
      </trkpt>
      <trkpt lat="39.572538" lon="3.236912">
        <ele>98.908</ele>
        <time>2021-09-01T10:12:13Z</time>
      </trkpt>
      <trkpt lat="39.572492" lon="3.236856">
        <ele>98.882</ele>
        <time>2021-09-01T10:12:14Z</time>
      </trkpt>
      <trkpt lat="39.572449" lon="3.236806">
        <ele>98.866</ele>
        <time>2021-09-01T10:12:15Z</time>
      </trkpt>
      <trkpt lat="39.572410" lon="3.236754">
        <ele>98.851</ele>
        <time>2021-09-01T10:12:16Z</time>
      </trkpt>
      <trkpt lat="39.572367" lon="3.236691">
        <ele>98.995</ele>
        <time>2021-09-01T10:12:17Z</time>
      </trkpt>
      <trkpt lat="39.572328" lon="3.236637">
        <ele>98.964</ele>
        <time>2021-09-01T10:12:18Z</time>
      </trkpt>
      <trkpt lat="39.572291" lon="3.236578">
        <ele>99.199</ele>
        <time>2021-09-01T10:12:19Z</time>
      </trkpt>
      <trkpt lat="39.572256" lon="3.236519">
        <ele>99.296</ele>
        <time>2021-09-01T10:12:20Z</time>
      </trkpt>
      <trkpt lat="39.572216" lon="3.236460">
        <ele>99.436</ele>
        <time>2021-09-01T10:12:21Z</time>
      </trkpt>
      <trkpt lat="39.572178" lon="3.236394">
        <ele>99.579</ele>
        <time>2021-09-01T10:12:22Z</time>
      </trkpt>
      <trkpt lat="39.572143" lon="3.236326">
        <ele>99.505</ele>
        <time>2021-09-01T10:12:23Z</time>
      </trkpt>
      <trkpt lat="39.572108" lon="3.236265">
        <ele>99.325</ele>
        <time>2021-09-01T10:12:24Z</time>
      </trkpt>
      <trkpt lat="39.572068" lon="3.236199">
        <ele>99.008</ele>
        <time>2021-09-01T10:12:25Z</time>
      </trkpt>
      <trkpt lat="39.572034" lon="3.236137">
        <ele>98.795</ele>
        <time>2021-09-01T10:12:26Z</time>
      </trkpt>
      <trkpt lat="39.572002" lon="3.236078">
        <ele>98.449</ele>
        <time>2021-09-01T10:12:27Z</time>
      </trkpt>
      <trkpt lat="39.571966" lon="3.236019">
        <ele>98.214</ele>
        <time>2021-09-01T10:12:28Z</time>
      </trkpt>
      <trkpt lat="39.571933" lon="3.235960">
        <ele>98.158</ele>
        <time>2021-09-01T10:12:29Z</time>
      </trkpt>
      <trkpt lat="39.571895" lon="3.235901">
        <ele>97.937</ele>
        <time>2021-09-01T10:12:30Z</time>
      </trkpt>
      <trkpt lat="39.571863" lon="3.235839">
        <ele>97.762</ele>
        <time>2021-09-01T10:12:31Z</time>
      </trkpt>
      <trkpt lat="39.571834" lon="3.235776">
        <ele>97.669</ele>
        <time>2021-09-01T10:12:32Z</time>
      </trkpt>
      <trkpt lat="39.571807" lon="3.235711">
        <ele>97.449</ele>
        <time>2021-09-01T10:12:33Z</time>
      </trkpt>
      <trkpt lat="39.571779" lon="3.235645">
        <ele>97.226</ele>
        <time>2021-09-01T10:12:34Z</time>
      </trkpt>
      <trkpt lat="39.571751" lon="3.235577">
        <ele>97.147</ele>
        <time>2021-09-01T10:12:35Z</time>
      </trkpt>
      <trkpt lat="39.571720" lon="3.235508">
        <ele>97.011</ele>
        <time>2021-09-01T10:12:36Z</time>
      </trkpt>
      <trkpt lat="39.571690" lon="3.235433">
        <ele>96.908</ele>
        <time>2021-09-01T10:12:37Z</time>
      </trkpt>
      <trkpt lat="39.571659" lon="3.235357">
        <ele>96.830</ele>
        <time>2021-09-01T10:12:38Z</time>
      </trkpt>
      <trkpt lat="39.571628" lon="3.235282">
        <ele>96.734</ele>
        <time>2021-09-01T10:12:39Z</time>
      </trkpt>
      <trkpt lat="39.571598" lon="3.235204">
        <ele>96.669</ele>
        <time>2021-09-01T10:12:40Z</time>
      </trkpt>
      <trkpt lat="39.571567" lon="3.235126">
        <ele>96.643</ele>
        <time>2021-09-01T10:12:41Z</time>
      </trkpt>
      <trkpt lat="39.571542" lon="3.235045">
        <ele>96.652</ele>
        <time>2021-09-01T10:12:42Z</time>
      </trkpt>
      <trkpt lat="39.571517" lon="3.234964">
        <ele>96.657</ele>
        <time>2021-09-01T10:12:43Z</time>
      </trkpt>
      <trkpt lat="39.571491" lon="3.234885">
        <ele>96.664</ele>
        <time>2021-09-01T10:12:44Z</time>
      </trkpt>
      <trkpt lat="39.571466" lon="3.234803">
        <ele>96.694</ele>
        <time>2021-09-01T10:12:45Z</time>
      </trkpt>
      <trkpt lat="39.571438" lon="3.234718">
        <ele>96.522</ele>
        <time>2021-09-01T10:12:46Z</time>
      </trkpt>
      <trkpt lat="39.571414" lon="3.234632">
        <ele>96.362</ele>
        <time>2021-09-01T10:12:47Z</time>
      </trkpt>
      <trkpt lat="39.571390" lon="3.234547">
        <ele>96.208</ele>
        <time>2021-09-01T10:12:48Z</time>
      </trkpt>
      <trkpt lat="39.571364" lon="3.234461">
        <ele>96.108</ele>
        <time>2021-09-01T10:12:49Z</time>
      </trkpt>
      <trkpt lat="39.571337" lon="3.234368">
        <ele>95.910</ele>
        <time>2021-09-01T10:12:50Z</time>
      </trkpt>
      <trkpt lat="39.571317" lon="3.234280">
        <ele>95.874</ele>
        <time>2021-09-01T10:12:51Z</time>
      </trkpt>
      <trkpt lat="39.571291" lon="3.234189">
        <ele>95.719</ele>
        <time>2021-09-01T10:12:52Z</time>
      </trkpt>
      <trkpt lat="39.571270" lon="3.234100">
        <ele>95.663</ele>
        <time>2021-09-01T10:12:53Z</time>
      </trkpt>
      <trkpt lat="39.571252" lon="3.234009">
        <ele>95.472</ele>
        <time>2021-09-01T10:12:54Z</time>
      </trkpt>
      <trkpt lat="39.571237" lon="3.233921">
        <ele>95.457</ele>
        <time>2021-09-01T10:12:55Z</time>
      </trkpt>
      <trkpt lat="39.571220" lon="3.233831">
        <ele>95.364</ele>
        <time>2021-09-01T10:12:56Z</time>
      </trkpt>
      <trkpt lat="39.571210" lon="3.233742">
        <ele>95.214</ele>
        <time>2021-09-01T10:12:57Z</time>
      </trkpt>
      <trkpt lat="39.571196" lon="3.233653">
        <ele>95.275</ele>
        <time>2021-09-01T10:12:58Z</time>
      </trkpt>
      <trkpt lat="39.571180" lon="3.233570">
        <ele>95.128</ele>
        <time>2021-09-01T10:12:59Z</time>
      </trkpt>
      <trkpt lat="39.571168" lon="3.233486">
        <ele>95.020</ele>
        <time>2021-09-01T10:13:00Z</time>
      </trkpt>
      <trkpt lat="39.571159" lon="3.233404">
        <ele>94.808</ele>
        <time>2021-09-01T10:13:01Z</time>
      </trkpt>
      <trkpt lat="39.571146" lon="3.233326">
        <ele>94.695</ele>
        <time>2021-09-01T10:13:02Z</time>
      </trkpt>
      <trkpt lat="39.571130" lon="3.233242">
        <ele>94.459</ele>
        <time>2021-09-01T10:13:03Z</time>
      </trkpt>
      <trkpt lat="39.571114" lon="3.233157">
        <ele>94.254</ele>
        <time>2021-09-01T10:13:04Z</time>
      </trkpt>
      <trkpt lat="39.571094" lon="3.233069">
        <ele>94.018</ele>
        <time>2021-09-01T10:13:05Z</time>
      </trkpt>
      <trkpt lat="39.571084" lon="3.232977">
        <ele>93.927</ele>
        <time>2021-09-01T10:13:06Z</time>
      </trkpt>
      <trkpt lat="39.571079" lon="3.232884">
        <ele>93.992</ele>
        <time>2021-09-01T10:13:07Z</time>
      </trkpt>
      <trkpt lat="39.571073" lon="3.232790">
        <ele>93.839</ele>
        <time>2021-09-01T10:13:08Z</time>
      </trkpt>
      <trkpt lat="39.571067" lon="3.232698">
        <ele>93.729</ele>
        <time>2021-09-01T10:13:09Z</time>
      </trkpt>
      <trkpt lat="39.571061" lon="3.232611">
        <ele>93.642</ele>
        <time>2021-09-01T10:13:10Z</time>
      </trkpt>
      <trkpt lat="39.571060" lon="3.232524">
        <ele>93.522</ele>
        <time>2021-09-01T10:13:11Z</time>
      </trkpt>
      <trkpt lat="39.571061" lon="3.232432">
        <ele>93.314</ele>
        <time>2021-09-01T10:13:12Z</time>
      </trkpt>
      <trkpt lat="39.571060" lon="3.232344">
        <ele>93.208</ele>
        <time>2021-09-01T10:13:13Z</time>
      </trkpt>
      <trkpt lat="39.571060" lon="3.232257">
        <ele>93.162</ele>
        <time>2021-09-01T10:13:14Z</time>
      </trkpt>
      <trkpt lat="39.571062" lon="3.232172">
        <ele>92.926</ele>
        <time>2021-09-01T10:13:15Z</time>
      </trkpt>
      <trkpt lat="39.571064" lon="3.232090">
        <ele>92.891</ele>
        <time>2021-09-01T10:13:16Z</time>
      </trkpt>
      <trkpt lat="39.571071" lon="3.232005">
        <ele>92.785</ele>
        <time>2021-09-01T10:13:17Z</time>
      </trkpt>
      <trkpt lat="39.571072" lon="3.231917">
        <ele>92.664</ele>
        <time>2021-09-01T10:13:18Z</time>
      </trkpt>
      <trkpt lat="39.571078" lon="3.231829">
        <ele>92.629</ele>
        <time>2021-09-01T10:13:19Z</time>
      </trkpt>
      <trkpt lat="39.571077" lon="3.231741">
        <ele>92.556</ele>
        <time>2021-09-01T10:13:20Z</time>
      </trkpt>
      <trkpt lat="39.571078" lon="3.231649">
        <ele>92.596</ele>
        <time>2021-09-01T10:13:21Z</time>
      </trkpt>
      <trkpt lat="39.571081" lon="3.231564">
        <ele>92.434</ele>
        <time>2021-09-01T10:13:22Z</time>
      </trkpt>
      <trkpt lat="39.571088" lon="3.231467">
        <ele>92.455</ele>
        <time>2021-09-01T10:13:23Z</time>
      </trkpt>
      <trkpt lat="39.571089" lon="3.231380">
        <ele>92.310</ele>
        <time>2021-09-01T10:13:24Z</time>
      </trkpt>
      <trkpt lat="39.571092" lon="3.231296">
        <ele>92.208</ele>
        <time>2021-09-01T10:13:25Z</time>
      </trkpt>
      <trkpt lat="39.571101" lon="3.231225">
        <ele>92.241</ele>
        <time>2021-09-01T10:13:26Z</time>
      </trkpt>
      <trkpt lat="39.571112" lon="3.231166">
        <ele>92.125</ele>
        <time>2021-09-01T10:13:27Z</time>
      </trkpt>
      <trkpt lat="39.571128" lon="3.231058">
        <ele>91.940</ele>
        <time>2021-09-01T10:13:29Z</time>
      </trkpt>
      <trkpt lat="39.571137" lon="3.230976">
        <ele>91.774</ele>
        <time>2021-09-01T10:13:31Z</time>
      </trkpt>
      <trkpt lat="39.571122" lon="3.230893">
        <ele>91.663</ele>
        <time>2021-09-01T10:13:33Z</time>
      </trkpt>
      <trkpt lat="39.571126" lon="3.230807">
        <ele>91.558</ele>
        <time>2021-09-01T10:13:35Z</time>
      </trkpt>
      <trkpt lat="39.571175" lon="3.230732">
        <ele>91.495</ele>
        <time>2021-09-01T10:13:37Z</time>
      </trkpt>
      <trkpt lat="39.571197" lon="3.230676">
        <ele>91.355</ele>
        <time>2021-09-01T10:13:38Z</time>
      </trkpt>
      <trkpt lat="39.571198" lon="3.230617">
        <ele>91.278</ele>
        <time>2021-09-01T10:13:39Z</time>
      </trkpt>
      <trkpt lat="39.571206" lon="3.230557">
        <ele>91.233</ele>
        <time>2021-09-01T10:13:40Z</time>
      </trkpt>
      <trkpt lat="39.571224" lon="3.230489">
        <ele>91.226</ele>
        <time>2021-09-01T10:13:41Z</time>
      </trkpt>
      <trkpt lat="39.571238" lon="3.230421">
        <ele>91.208</ele>
        <time>2021-09-01T10:13:42Z</time>
      </trkpt>
      <trkpt lat="39.571251" lon="3.230349">
        <ele>91.135</ele>
        <time>2021-09-01T10:13:43Z</time>
      </trkpt>
      <trkpt lat="39.571263" lon="3.230277">
        <ele>91.129</ele>
        <time>2021-09-01T10:13:44Z</time>
      </trkpt>
      <trkpt lat="39.571278" lon="3.230201">
        <ele>91.174</ele>
        <time>2021-09-01T10:13:45Z</time>
      </trkpt>
      <trkpt lat="39.571294" lon="3.230121">
        <ele>91.028</ele>
        <time>2021-09-01T10:13:45Z</time>
      </trkpt>
      <trkpt lat="39.571304" lon="3.230042">
        <ele>91.077</ele>
        <time>2021-09-01T10:13:47Z</time>
      </trkpt>
      <trkpt lat="39.571322" lon="3.229958">
        <ele>90.972</ele>
        <time>2021-09-01T10:13:48Z</time>
      </trkpt>
      <trkpt lat="39.571332" lon="3.229879">
        <ele>90.759</ele>
        <time>2021-09-01T10:13:49Z</time>
      </trkpt>
      <trkpt lat="39.571345" lon="3.229806">
        <ele>90.759</ele>
        <time>2021-09-01T10:13:50Z</time>
      </trkpt>
      <trkpt lat="39.571362" lon="3.229723">
        <ele>90.584</ele>
        <time>2021-09-01T10:13:51Z</time>
      </trkpt>
      <trkpt lat="39.571377" lon="3.229648">
        <ele>90.407</ele>
        <time>2021-09-01T10:13:52Z</time>
      </trkpt>
      <trkpt lat="39.571392" lon="3.229576">
        <ele>90.317</ele>
        <time>2021-09-01T10:13:53Z</time>
      </trkpt>
      <trkpt lat="39.571407" lon="3.229502">
        <ele>90.208</ele>
        <time>2021-09-01T10:13:54Z</time>
      </trkpt>
      <trkpt lat="39.571418" lon="3.229430">
        <ele>90.126</ele>
        <time>2021-09-01T10:13:55Z</time>
      </trkpt>
      <trkpt lat="39.571428" lon="3.229353">
        <ele>90.130</ele>
        <time>2021-09-01T10:13:56Z</time>
      </trkpt>
      <trkpt lat="39.571444" lon="3.229281">
        <ele>90.135</ele>
        <time>2021-09-01T10:13:57Z</time>
      </trkpt>
      <trkpt lat="39.571458" lon="3.229207">
        <ele>90.039</ele>
        <time>2021-09-01T10:13:58Z</time>
      </trkpt>
      <trkpt lat="39.571475" lon="3.229131">
        <ele>89.958</ele>
        <time>2021-09-01T10:13:59Z</time>
      </trkpt>
      <trkpt lat="39.571491" lon="3.229057">
        <ele>89.773</ele>
        <time>2021-09-01T10:14:00Z</time>
      </trkpt>
      <trkpt lat="39.571503" lon="3.228977">
        <ele>89.670</ele>
        <time>2021-09-01T10:14:01Z</time>
      </trkpt>
      <trkpt lat="39.571517" lon="3.228901">
        <ele>89.410</ele>
        <time>2021-09-01T10:14:02Z</time>
      </trkpt>
      <trkpt lat="39.571530" lon="3.228818">
        <ele>89.332</ele>
        <time>2021-09-01T10:14:03Z</time>
      </trkpt>
      <trkpt lat="39.571548" lon="3.228739">
        <ele>89.292</ele>
        <time>2021-09-01T10:14:04Z</time>
      </trkpt>
      <trkpt lat="39.571561" lon="3.228658">
        <ele>89.211</ele>
        <time>2021-09-01T10:14:05Z</time>
      </trkpt>
      <trkpt lat="39.571575" lon="3.228574">
        <ele>89.208</ele>
        <time>2021-09-01T10:14:06Z</time>
      </trkpt>
      <trkpt lat="39.571586" lon="3.228489">
        <ele>89.351</ele>
        <time>2021-09-01T10:14:07Z</time>
      </trkpt>
      <trkpt lat="39.571601" lon="3.228402">
        <ele>89.345</ele>
        <time>2021-09-01T10:14:08Z</time>
      </trkpt>
      <trkpt lat="39.571616" lon="3.228320">
        <ele>89.550</ele>
        <time>2021-09-01T10:14:09Z</time>
      </trkpt>
      <trkpt lat="39.571628" lon="3.228236">
        <ele>89.514</ele>
        <time>2021-09-01T10:14:10Z</time>
      </trkpt>
      <trkpt lat="39.571644" lon="3.228153">
        <ele>89.623</ele>
        <time>2021-09-01T10:14:11Z</time>
      </trkpt>
      <trkpt lat="39.571659" lon="3.228070">
        <ele>89.738</ele>
        <time>2021-09-01T10:14:12Z</time>
      </trkpt>
      <trkpt lat="39.571674" lon="3.227990">
        <ele>89.725</ele>
        <time>2021-09-01T10:14:13Z</time>
      </trkpt>
      <trkpt lat="39.571694" lon="3.227906">
        <ele>89.795</ele>
        <time>2021-09-01T10:14:14Z</time>
      </trkpt>
      <trkpt lat="39.571713" lon="3.227825">
        <ele>89.727</ele>
        <time>2021-09-01T10:14:15Z</time>
      </trkpt>
      <trkpt lat="39.571728" lon="3.227748">
        <ele>89.768</ele>
        <time>2021-09-01T10:14:16Z</time>
      </trkpt>
      <trkpt lat="39.571747" lon="3.227667">
        <ele>89.514</ele>
        <time>2021-09-01T10:14:17Z</time>
      </trkpt>
      <trkpt lat="39.571766" lon="3.227585">
        <ele>89.408</ele>
        <time>2021-09-01T10:14:18Z</time>
      </trkpt>
      <trkpt lat="39.571779" lon="3.227504">
        <ele>89.230</ele>
        <time>2021-09-01T10:14:19Z</time>
      </trkpt>
      <trkpt lat="39.571796" lon="3.227422">
        <ele>89.024</ele>
        <time>2021-09-01T10:14:20Z</time>
      </trkpt>
      <trkpt lat="39.571808" lon="3.227343">
        <ele>88.899</ele>
        <time>2021-09-01T10:14:21Z</time>
      </trkpt>
      <trkpt lat="39.571828" lon="3.227262">
        <ele>88.743</ele>
        <time>2021-09-01T10:14:22Z</time>
      </trkpt>
      <trkpt lat="39.571841" lon="3.227181">
        <ele>88.682</ele>
        <time>2021-09-01T10:14:23Z</time>
      </trkpt>
      <trkpt lat="39.571859" lon="3.227102">
        <ele>88.527</ele>
        <time>2021-09-01T10:14:24Z</time>
      </trkpt>
      <trkpt lat="39.571875" lon="3.227026">
        <ele>88.414</ele>
        <time>2021-09-01T10:14:25Z</time>
      </trkpt>
      <trkpt lat="39.571886" lon="3.226965">
        <ele>88.314</ele>
        <time>2021-09-01T10:14:26Z</time>
      </trkpt>
      <trkpt lat="39.571900" lon="3.226904">
        <ele>88.261</ele>
        <time>2021-09-01T10:14:27Z</time>
      </trkpt>
      <trkpt lat="39.571905" lon="3.226832">
        <ele>88.121</ele>
        <time>2021-09-01T10:14:28Z</time>
      </trkpt>
      <trkpt lat="39.571920" lon="3.226755">
        <ele>88.013</ele>
        <time>2021-09-01T10:14:29Z</time>
      </trkpt>
      <trkpt lat="39.571932" lon="3.226682">
        <ele>88.008</ele>
        <time>2021-09-01T10:14:30Z</time>
      </trkpt>
      <trkpt lat="39.571941" lon="3.226606">
        <ele>88.074</ele>
        <time>2021-09-01T10:14:31Z</time>
      </trkpt>
      <trkpt lat="39.571951" lon="3.226533">
        <ele>88.058</ele>
        <time>2021-09-01T10:14:32Z</time>
      </trkpt>
      <trkpt lat="39.571968" lon="3.226447">
        <ele>88.093</ele>
        <time>2021-09-01T10:14:33Z</time>
      </trkpt>
      <trkpt lat="39.571981" lon="3.226364">
        <ele>87.917</ele>
        <time>2021-09-01T10:14:34Z</time>
      </trkpt>
      <trkpt lat="39.571990" lon="3.226283">
        <ele>87.826</ele>
        <time>2021-09-01T10:14:35Z</time>
      </trkpt>
      <trkpt lat="39.572001" lon="3.226188">
        <ele>87.451</ele>
        <time>2021-09-01T10:14:37Z</time>
      </trkpt>
      <trkpt lat="39.572045" lon="3.226143">
        <ele>86.948</ele>
        <time>2021-09-01T10:14:40Z</time>
      </trkpt>
      <trkpt lat="39.572048" lon="3.226078">
        <ele>86.888</ele>
        <time>2021-09-01T10:14:42Z</time>
      </trkpt>
      <trkpt lat="39.572036" lon="3.225993">
        <ele>86.772</ele>
        <time>2021-09-01T10:14:44Z</time>
      </trkpt>
      <trkpt lat="39.572075" lon="3.225923">
        <ele>86.613</ele>
        <time>2021-09-01T10:14:47Z</time>
      </trkpt>
      <trkpt lat="39.572088" lon="3.225839">
        <ele>86.514</ele>
        <time>2021-09-01T10:14:49Z</time>
      </trkpt>
      <trkpt lat="39.572091" lon="3.225736">
        <ele>86.308</ele>
        <time>2021-09-01T10:14:51Z</time>
      </trkpt>
      <trkpt lat="39.572104" lon="3.225675">
        <ele>86.335</ele>
        <time>2021-09-01T10:14:52Z</time>
      </trkpt>
      <trkpt lat="39.572117" lon="3.225606">
        <ele>86.379</ele>
        <time>2021-09-01T10:14:53Z</time>
      </trkpt>
      <trkpt lat="39.572127" lon="3.225533">
        <ele>86.434</ele>
        <time>2021-09-01T10:14:54Z</time>
      </trkpt>
      <trkpt lat="39.572143" lon="3.225450">
        <ele>86.498</ele>
        <time>2021-09-01T10:14:55Z</time>
      </trkpt>
      <trkpt lat="39.572154" lon="3.225382">
        <ele>86.467</ele>
        <time>2021-09-01T10:14:56Z</time>
      </trkpt>
      <trkpt lat="39.572171" lon="3.225300">
        <ele>86.392</ele>
        <time>2021-09-01T10:14:57Z</time>
      </trkpt>
      <trkpt lat="39.572180" lon="3.225229">
        <ele>86.289</ele>
        <time>2021-09-01T10:14:58Z</time>
      </trkpt>
      <trkpt lat="39.572190" lon="3.225150">
        <ele>86.079</ele>
        <time>2021-09-01T10:14:59Z</time>
      </trkpt>
      <trkpt lat="39.572211" lon="3.225074">
        <ele>85.964</ele>
        <time>2021-09-01T10:15:00Z</time>
      </trkpt>
      <trkpt lat="39.572228" lon="3.224992">
        <ele>85.606</ele>
        <time>2021-09-01T10:15:01Z</time>
      </trkpt>
      <trkpt lat="39.572242" lon="3.224910">
        <ele>85.516</ele>
        <time>2021-09-01T10:15:02Z</time>
      </trkpt>
      <trkpt lat="39.572261" lon="3.224824">
        <ele>85.508</ele>
        <time>2021-09-01T10:15:03Z</time>
      </trkpt>
      <trkpt lat="39.572275" lon="3.224744">
        <ele>85.454</ele>
        <time>2021-09-01T10:15:04Z</time>
      </trkpt>
      <trkpt lat="39.572294" lon="3.224657">
        <ele>85.398</ele>
        <time>2021-09-01T10:15:05Z</time>
      </trkpt>
      <trkpt lat="39.572312" lon="3.224574">
        <ele>85.243</ele>
        <time>2021-09-01T10:15:06Z</time>
      </trkpt>
      <trkpt lat="39.572330" lon="3.224492">
        <ele>85.157</ele>
        <time>2021-09-01T10:15:07Z</time>
      </trkpt>
      <trkpt lat="39.572347" lon="3.224409">
        <ele>85.096</ele>
        <time>2021-09-01T10:15:08Z</time>
      </trkpt>
      <trkpt lat="39.572361" lon="3.224328">
        <ele>84.951</ele>
        <time>2021-09-01T10:15:09Z</time>
      </trkpt>
      <trkpt lat="39.572372" lon="3.224247">
        <ele>84.998</ele>
        <time>2021-09-01T10:15:10Z</time>
      </trkpt>
      <trkpt lat="39.572389" lon="3.224168">
        <ele>84.968</ele>
        <time>2021-09-01T10:15:11Z</time>
      </trkpt>
      <trkpt lat="39.572404" lon="3.224088">
        <ele>84.933</ele>
        <time>2021-09-01T10:15:12Z</time>
      </trkpt>
      <trkpt lat="39.572417" lon="3.224010">
        <ele>84.823</ele>
        <time>2021-09-01T10:15:13Z</time>
      </trkpt>
      <trkpt lat="39.572430" lon="3.223932">
        <ele>84.715</ele>
        <time>2021-09-01T10:15:14Z</time>
      </trkpt>
      <trkpt lat="39.572442" lon="3.223856">
        <ele>84.508</ele>
        <time>2021-09-01T10:15:15Z</time>
      </trkpt>
      <trkpt lat="39.572456" lon="3.223779">
        <ele>84.421</ele>
        <time>2021-09-01T10:15:16Z</time>
      </trkpt>
      <trkpt lat="39.572471" lon="3.223706">
        <ele>84.365</ele>
        <time>2021-09-01T10:15:17Z</time>
      </trkpt>
      <trkpt lat="39.572483" lon="3.223633">
        <ele>84.160</ele>
        <time>2021-09-01T10:15:18Z</time>
      </trkpt>
      <trkpt lat="39.572493" lon="3.223564">
        <ele>84.064</ele>
        <time>2021-09-01T10:15:19Z</time>
      </trkpt>
      <trkpt lat="39.572507" lon="3.223497">
        <ele>83.813</ele>
        <time>2021-09-01T10:15:20Z</time>
      </trkpt>
      <trkpt lat="39.572522" lon="3.223424">
        <ele>83.778</ele>
        <time>2021-09-01T10:15:21Z</time>
      </trkpt>
      <trkpt lat="39.572531" lon="3.223353">
        <ele>83.525</ele>
        <time>2021-09-01T10:15:22Z</time>
      </trkpt>
      <trkpt lat="39.572542" lon="3.223285">
        <ele>83.415</ele>
        <time>2021-09-01T10:15:23Z</time>
      </trkpt>
      <trkpt lat="39.572555" lon="3.223216">
        <ele>83.274</ele>
        <time>2021-09-01T10:15:24Z</time>
      </trkpt>
      <trkpt lat="39.572568" lon="3.223145">
        <ele>83.156</ele>
        <time>2021-09-01T10:15:25Z</time>
      </trkpt>
      <trkpt lat="39.572588" lon="3.223074">
        <ele>82.921</ele>
        <time>2021-09-01T10:15:26Z</time>
      </trkpt>
      <trkpt lat="39.572611" lon="3.222993">
        <ele>82.708</ele>
        <time>2021-09-01T10:15:27Z</time>
      </trkpt>
      <trkpt lat="39.572644" lon="3.222912">
        <ele>82.565</ele>
        <time>2021-09-01T10:15:28Z</time>
      </trkpt>
      <trkpt lat="39.572676" lon="3.222836">
        <ele>82.249</ele>
        <time>2021-09-01T10:15:29Z</time>
      </trkpt>
      <trkpt lat="39.572702" lon="3.222777">
        <ele>82.054</ele>
        <time>2021-09-01T10:15:30Z</time>
      </trkpt>
      <trkpt lat="39.572731" lon="3.222682">
        <ele>81.588</ele>
        <time>2021-09-01T10:15:32Z</time>
      </trkpt>
      <trkpt lat="39.572686" lon="3.222611">
        <ele>81.217</ele>
        <time>2021-09-01T10:15:34Z</time>
      </trkpt>
      <trkpt lat="39.572631" lon="3.222566">
        <ele>81.092</ele>
        <time>2021-09-01T10:15:36Z</time>
      </trkpt>
      <trkpt lat="39.572644" lon="3.222487">
        <ele>81.099</ele>
        <time>2021-09-01T10:15:38Z</time>
      </trkpt>
      <trkpt lat="39.572688" lon="3.222426">
        <ele>81.219</ele>
        <time>2021-09-01T10:15:40Z</time>
      </trkpt>
      <trkpt lat="39.572716" lon="3.222352">
        <ele>81.352</ele>
        <time>2021-09-01T10:15:42Z</time>
      </trkpt>
      <trkpt lat="39.572727" lon="3.222281">
        <ele>81.453</ele>
        <time>2021-09-01T10:15:44Z</time>
      </trkpt>
      <trkpt lat="39.572750" lon="3.222198">
        <ele>81.508</ele>
        <time>2021-09-01T10:15:46Z</time>
      </trkpt>
      <trkpt lat="39.572762" lon="3.222095">
        <ele>81.408</ele>
        <time>2021-09-01T10:15:48Z</time>
      </trkpt>
      <trkpt lat="39.572777" lon="3.221983">
        <ele>81.253</ele>
        <time>2021-09-01T10:15:50Z</time>
      </trkpt>
      <trkpt lat="39.572799" lon="3.221870">
        <ele>81.057</ele>
        <time>2021-09-01T10:15:52Z</time>
      </trkpt>
      <trkpt lat="39.572825" lon="3.221760">
        <ele>80.952</ele>
        <time>2021-09-01T10:15:54Z</time>
      </trkpt>
      <trkpt lat="39.572849" lon="3.221649">
        <ele>80.976</ele>
        <time>2021-09-01T10:15:56Z</time>
      </trkpt>
      <trkpt lat="39.572860" lon="3.221537">
        <ele>80.775</ele>
        <time>2021-09-01T10:15:58Z</time>
      </trkpt>
      <trkpt lat="39.572869" lon="3.221473">
        <ele>80.650</ele>
        <time>2021-09-01T10:15:59Z</time>
      </trkpt>
      <trkpt lat="39.572884" lon="3.221412">
        <ele>80.537</ele>
        <time>2021-09-01T10:16:00Z</time>
      </trkpt>
      <trkpt lat="39.572897" lon="3.221348">
        <ele>80.557</ele>
        <time>2021-09-01T10:16:01Z</time>
      </trkpt>
      <trkpt lat="39.572910" lon="3.221280">
        <ele>80.451</ele>
        <time>2021-09-01T10:16:02Z</time>
      </trkpt>
      <trkpt lat="39.572916" lon="3.221210">
        <ele>80.301</ele>
        <time>2021-09-01T10:16:03Z</time>
      </trkpt>
      <trkpt lat="39.572925" lon="3.221142">
        <ele>80.211</ele>
        <time>2021-09-01T10:16:04Z</time>
      </trkpt>
      <trkpt lat="39.572936" lon="3.221074">
        <ele>80.008</ele>
        <time>2021-09-01T10:16:05Z</time>
      </trkpt>
      <trkpt lat="39.572949" lon="3.221006">
        <ele>79.863</ele>
        <time>2021-09-01T10:16:06Z</time>
      </trkpt>
      <trkpt lat="39.572963" lon="3.220940">
        <ele>79.777</ele>
        <time>2021-09-01T10:16:07Z</time>
      </trkpt>
      <trkpt lat="39.572973" lon="3.220871">
        <ele>79.592</ele>
        <time>2021-09-01T10:16:08Z</time>
      </trkpt>
      <trkpt lat="39.572989" lon="3.220805">
        <ele>79.476</ele>
        <time>2021-09-01T10:16:09Z</time>
      </trkpt>
      <trkpt lat="39.573006" lon="3.220739">
        <ele>79.465</ele>
        <time>2021-09-01T10:16:10Z</time>
      </trkpt>
      <trkpt lat="39.573019" lon="3.220673">
        <ele>79.370</ele>
        <time>2021-09-01T10:16:11Z</time>
      </trkpt>
      <trkpt lat="39.573029" lon="3.220611">
        <ele>79.327</ele>
        <time>2021-09-01T10:16:12Z</time>
      </trkpt>
      <trkpt lat="39.573051" lon="3.220500">
        <ele>79.257</ele>
        <time>2021-09-01T10:16:14Z</time>
      </trkpt>
      <trkpt lat="39.573064" lon="3.220444">
        <ele>79.031</ele>
        <time>2021-09-01T10:16:15Z</time>
      </trkpt>
      <trkpt lat="39.573077" lon="3.220387">
        <ele>78.961</ele>
        <time>2021-09-01T10:16:16Z</time>
      </trkpt>
      <trkpt lat="39.573092" lon="3.220281">
        <ele>78.607</ele>
        <time>2021-09-01T10:16:18Z</time>
      </trkpt>
      <trkpt lat="39.573110" lon="3.220181">
        <ele>78.508</ele>
        <time>2021-09-01T10:16:20Z</time>
      </trkpt>
      <trkpt lat="39.573129" lon="3.220078">
        <ele>78.591</ele>
        <time>2021-09-01T10:16:22Z</time>
      </trkpt>
      <trkpt lat="39.573132" lon="3.219979">
        <ele>78.645</ele>
        <time>2021-09-01T10:16:24Z</time>
      </trkpt>
      <trkpt lat="39.573117" lon="3.219892">
        <ele>78.720</ele>
        <time>2021-09-01T10:16:26Z</time>
      </trkpt>
      <trkpt lat="39.573130" lon="3.219815">
        <ele>78.864</ele>
        <time>2021-09-01T10:16:28Z</time>
      </trkpt>
      <trkpt lat="39.573149" lon="3.219739">
        <ele>78.953</ele>
        <time>2021-09-01T10:16:31Z</time>
      </trkpt>
      <trkpt lat="39.573182" lon="3.219692">
        <ele>78.978</ele>
        <time>2021-09-01T10:16:34Z</time>
      </trkpt>
      <trkpt lat="39.573186" lon="3.219619">
        <ele>79.045</ele>
        <time>2021-09-01T10:16:36Z</time>
      </trkpt>
      <trkpt lat="39.573216" lon="3.219553">
        <ele>79.085</ele>
        <time>2021-09-01T10:16:39Z</time>
      </trkpt>
      <trkpt lat="39.573237" lon="3.219489">
        <ele>78.878</ele>
        <time>2021-09-01T10:16:41Z</time>
      </trkpt>
      <trkpt lat="39.573242" lon="3.219385">
        <ele>78.633</ele>
        <time>2021-09-01T10:16:43Z</time>
      </trkpt>
      <trkpt lat="39.573252" lon="3.219328">
        <ele>78.426</ele>
        <time>2021-09-01T10:16:44Z</time>
      </trkpt>
      <trkpt lat="39.573264" lon="3.219268">
        <ele>78.308</ele>
        <time>2021-09-01T10:16:45Z</time>
      </trkpt>
      <trkpt lat="39.573273" lon="3.219206">
        <ele>78.285</ele>
        <time>2021-09-01T10:16:46Z</time>
      </trkpt>
      <trkpt lat="39.573280" lon="3.219140">
        <ele>78.259</ele>
        <time>2021-09-01T10:16:47Z</time>
      </trkpt>
      <trkpt lat="39.573288" lon="3.219073">
        <ele>78.254</ele>
        <time>2021-09-01T10:16:48Z</time>
      </trkpt>
      <trkpt lat="39.573305" lon="3.219006">
        <ele>78.238</ele>
        <time>2021-09-01T10:16:49Z</time>
      </trkpt>
      <trkpt lat="39.573322" lon="3.218939">
        <ele>78.387</ele>
        <time>2021-09-01T10:16:50Z</time>
      </trkpt>
      <trkpt lat="39.573338" lon="3.218872">
        <ele>78.332</ele>
        <time>2021-09-01T10:16:51Z</time>
      </trkpt>
      <trkpt lat="39.573349" lon="3.218808">
        <ele>78.339</ele>
        <time>2021-09-01T10:16:52Z</time>
      </trkpt>
      <trkpt lat="39.573362" lon="3.218746">
        <ele>78.399</ele>
        <time>2021-09-01T10:16:53Z</time>
      </trkpt>
      <trkpt lat="39.573373" lon="3.218683">
        <ele>78.229</ele>
        <time>2021-09-01T10:16:54Z</time>
      </trkpt>
      <trkpt lat="39.573389" lon="3.218623">
        <ele>78.200</ele>
        <time>2021-09-01T10:16:55Z</time>
      </trkpt>
      <trkpt lat="39.573403" lon="3.218565">
        <ele>78.220</ele>
        <time>2021-09-01T10:16:56Z</time>
      </trkpt>
      <trkpt lat="39.573419" lon="3.218505">
        <ele>78.208</ele>
        <time>2021-09-01T10:16:57Z</time>
      </trkpt>
      <trkpt lat="39.573432" lon="3.218448">
        <ele>78.150</ele>
        <time>2021-09-01T10:16:58Z</time>
      </trkpt>
      <trkpt lat="39.573448" lon="3.218338">
        <ele>78.034</ele>
        <time>2021-09-01T10:17:00Z</time>
      </trkpt>
      <trkpt lat="39.573471" lon="3.218232">
        <ele>77.829</ele>
        <time>2021-09-01T10:17:02Z</time>
      </trkpt>
      <trkpt lat="39.573496" lon="3.218124">
        <ele>77.753</ele>
        <time>2021-09-01T10:17:04Z</time>
      </trkpt>
      <trkpt lat="39.573511" lon="3.218023">
        <ele>77.622</ele>
        <time>2021-09-01T10:17:06Z</time>
      </trkpt>
      <trkpt lat="39.573524" lon="3.217965">
        <ele>77.697</ele>
        <time>2021-09-01T10:17:07Z</time>
      </trkpt>
      <trkpt lat="39.573543" lon="3.217868">
        <ele>77.614</ele>
        <time>2021-09-01T10:17:09Z</time>
      </trkpt>
      <trkpt lat="39.573563" lon="3.217772">
        <ele>77.564</ele>
        <time>2021-09-01T10:17:11Z</time>
      </trkpt>
      <trkpt lat="39.573583" lon="3.217669">
        <ele>77.385</ele>
        <time>2021-09-01T10:17:13Z</time>
      </trkpt>
      <trkpt lat="39.573599" lon="3.217570">
        <ele>77.389</ele>
        <time>2021-09-01T10:17:15Z</time>
      </trkpt>
      <trkpt lat="39.573613" lon="3.217505">
        <ele>77.217</ele>
        <time>2021-09-01T10:17:17Z</time>
      </trkpt>
      <trkpt lat="39.573615" lon="3.217433">
        <ele>77.008</ele>
        <time>2021-09-01T10:17:20Z</time>
      </trkpt>
      <trkpt lat="39.573462" lon="3.217455">
        <ele>77.346</ele>
        <time>2021-09-01T10:18:00Z</time>
      </trkpt>
      <trkpt lat="39.573403" lon="3.217506">
        <ele>77.370</ele>
        <time>2021-09-01T10:18:02Z</time>
      </trkpt>
      <trkpt lat="39.573343" lon="3.217544">
        <ele>77.315</ele>
        <time>2021-09-01T10:18:04Z</time>
      </trkpt>
      <trkpt lat="39.573265" lon="3.217576">
        <ele>77.699</ele>
        <time>2021-09-01T10:18:06Z</time>
      </trkpt>
      <trkpt lat="39.573199" lon="3.217614">
        <ele>77.858</ele>
        <time>2021-09-01T10:18:08Z</time>
      </trkpt>
      <trkpt lat="39.573136" lon="3.217651">
        <ele>77.853</ele>
        <time>2021-09-01T10:18:10Z</time>
      </trkpt>
      <trkpt lat="39.573064" lon="3.217685">
        <ele>77.840</ele>
        <time>2021-09-01T10:18:12Z</time>
      </trkpt>
      <trkpt lat="39.572998" lon="3.217719">
        <ele>77.840</ele>
        <time>2021-09-01T10:18:14Z</time>
      </trkpt>
      <trkpt lat="39.572939" lon="3.217757">
        <ele>77.895</ele>
        <time>2021-09-01T10:18:16Z</time>
      </trkpt>
      <trkpt lat="39.572882" lon="3.217786">
        <ele>77.949</ele>
        <time>2021-09-01T10:18:18Z</time>
      </trkpt>
      <trkpt lat="39.572828" lon="3.217811">
        <ele>78.023</ele>
        <time>2021-09-01T10:18:20Z</time>
      </trkpt>
      <trkpt lat="39.572749" lon="3.217728">
        <ele>77.308</ele>
        <time>2021-09-01T10:18:45Z</time>
      </trkpt>
      <trkpt lat="39.572715" lon="3.217672">
        <ele>77.297</ele>
        <time>2021-09-01T10:18:47Z</time>
      </trkpt>
      <trkpt lat="39.572683" lon="3.217599">
        <ele>77.321</ele>
        <time>2021-09-01T10:18:50Z</time>
      </trkpt>
      <trkpt lat="39.572643" lon="3.217536">
        <ele>77.426</ele>
        <time>2021-09-01T10:18:52Z</time>
      </trkpt>
      <trkpt lat="39.572592" lon="3.217497">
        <ele>77.540</ele>
        <time>2021-09-01T10:18:54Z</time>
      </trkpt>
      <trkpt lat="39.572529" lon="3.217507">
        <ele>77.589</ele>
        <time>2021-09-01T10:18:56Z</time>
      </trkpt>
      <trkpt lat="39.572470" lon="3.217467">
        <ele>77.494</ele>
        <time>2021-09-01T10:18:58Z</time>
      </trkpt>
      <trkpt lat="39.572418" lon="3.217409">
        <ele>77.581</ele>
        <time>2021-09-01T10:19:00Z</time>
      </trkpt>
      <trkpt lat="39.572392" lon="3.217330">
        <ele>77.511</ele>
        <time>2021-09-01T10:19:02Z</time>
      </trkpt>
      <trkpt lat="39.572373" lon="3.217236">
        <ele>77.516</ele>
        <time>2021-09-01T10:19:04Z</time>
      </trkpt>
      <trkpt lat="39.572337" lon="3.217133">
        <ele>77.576</ele>
        <time>2021-09-01T10:19:06Z</time>
      </trkpt>
      <trkpt lat="39.572297" lon="3.217035">
        <ele>77.713</ele>
        <time>2021-09-01T10:19:08Z</time>
      </trkpt>
      <trkpt lat="39.572264" lon="3.216905">
        <ele>77.808</ele>
        <time>2021-09-01T10:19:10Z</time>
      </trkpt>
      <trkpt lat="39.572241" lon="3.216838">
        <ele>77.859</ele>
        <time>2021-09-01T10:19:11Z</time>
      </trkpt>
      <trkpt lat="39.572221" lon="3.216778">
        <ele>77.783</ele>
        <time>2021-09-01T10:19:12Z</time>
      </trkpt>
      <trkpt lat="39.572202" lon="3.216719">
        <ele>77.788</ele>
        <time>2021-09-01T10:19:13Z</time>
      </trkpt>
      <trkpt lat="39.572180" lon="3.216663">
        <ele>77.622</ele>
        <time>2021-09-01T10:19:14Z</time>
      </trkpt>
      <trkpt lat="39.572164" lon="3.216602">
        <ele>77.691</ele>
        <time>2021-09-01T10:19:15Z</time>
      </trkpt>
      <trkpt lat="39.572154" lon="3.216534">
        <ele>77.686</ele>
        <time>2021-09-01T10:19:16Z</time>
      </trkpt>
      <trkpt lat="39.572146" lon="3.216476">
        <ele>77.633</ele>
        <time>2021-09-01T10:19:17Z</time>
      </trkpt>
      <trkpt lat="39.572112" lon="3.216355">
        <ele>77.783</ele>
        <time>2021-09-01T10:19:19Z</time>
      </trkpt>
      <trkpt lat="39.572087" lon="3.216292">
        <ele>77.793</ele>
        <time>2021-09-01T10:19:20Z</time>
      </trkpt>
      <trkpt lat="39.572067" lon="3.216239">
        <ele>77.765</ele>
        <time>2021-09-01T10:19:21Z</time>
      </trkpt>
      <trkpt lat="39.572042" lon="3.216176">
        <ele>77.621</ele>
        <time>2021-09-01T10:19:22Z</time>
      </trkpt>
      <trkpt lat="39.572009" lon="3.216115">
        <ele>77.608</ele>
        <time>2021-09-01T10:19:23Z</time>
      </trkpt>
      <trkpt lat="39.571998" lon="3.216052">
        <ele>77.537</ele>
        <time>2021-09-01T10:19:24Z</time>
      </trkpt>
      <trkpt lat="39.571984" lon="3.215989">
        <ele>77.561</ele>
        <time>2021-09-01T10:19:25Z</time>
      </trkpt>
      <trkpt lat="39.571971" lon="3.215919">
        <ele>77.476</ele>
        <time>2021-09-01T10:19:26Z</time>
      </trkpt>
      <trkpt lat="39.571965" lon="3.215861">
        <ele>77.440</ele>
        <time>2021-09-01T10:19:27Z</time>
      </trkpt>
      <trkpt lat="39.571945" lon="3.215746">
        <ele>77.519</ele>
        <time>2021-09-01T10:19:29Z</time>
      </trkpt>
      <trkpt lat="39.571920" lon="3.215695">
        <ele>77.534</ele>
        <time>2021-09-01T10:19:30Z</time>
      </trkpt>
      <trkpt lat="39.571891" lon="3.215638">
        <ele>77.471</ele>
        <time>2021-09-01T10:19:32Z</time>
      </trkpt>
      <trkpt lat="39.571856" lon="3.215589">
        <ele>77.381</ele>
        <time>2021-09-01T10:19:34Z</time>
      </trkpt>
      <trkpt lat="39.571826" lon="3.215529">
        <ele>77.396</ele>
        <time>2021-09-01T10:19:36Z</time>
      </trkpt>
      <trkpt lat="39.571811" lon="3.215458">
        <ele>77.331</ele>
        <time>2021-09-01T10:19:38Z</time>
      </trkpt>
      <trkpt lat="39.571790" lon="3.215362">
        <ele>77.124</ele>
        <time>2021-09-01T10:19:40Z</time>
      </trkpt>
      <trkpt lat="39.571787" lon="3.215279">
        <ele>77.008</ele>
        <time>2021-09-01T10:19:42Z</time>
      </trkpt>
      <trkpt lat="39.571771" lon="3.215195">
        <ele>77.017</ele>
        <time>2021-09-01T10:19:44Z</time>
      </trkpt>
      <trkpt lat="39.571746" lon="3.215104">
        <ele>77.161</ele>
        <time>2021-09-01T10:19:46Z</time>
      </trkpt>
      <trkpt lat="39.571721" lon="3.215050">
        <ele>77.196</ele>
        <time>2021-09-01T10:19:47Z</time>
      </trkpt>
      <trkpt lat="39.571697" lon="3.214994">
        <ele>77.260</ele>
        <time>2021-09-01T10:19:48Z</time>
      </trkpt>
      <trkpt lat="39.571676" lon="3.214938">
        <ele>77.399</ele>
        <time>2021-09-01T10:19:49Z</time>
      </trkpt>
      <trkpt lat="39.571651" lon="3.214885">
        <ele>77.434</ele>
        <time>2021-09-01T10:19:50Z</time>
      </trkpt>
      <trkpt lat="39.571608" lon="3.214768">
        <ele>77.681</ele>
        <time>2021-09-01T10:19:52Z</time>
      </trkpt>
      <trkpt lat="39.571587" lon="3.214714">
        <ele>77.771</ele>
        <time>2021-09-01T10:19:53Z</time>
      </trkpt>
      <trkpt lat="39.571575" lon="3.214651">
        <ele>77.894</ele>
        <time>2021-09-01T10:19:54Z</time>
      </trkpt>
      <trkpt lat="39.571561" lon="3.214585">
        <ele>77.857</ele>
        <time>2021-09-01T10:19:55Z</time>
      </trkpt>
      <trkpt lat="39.571544" lon="3.214526">
        <ele>77.922</ele>
        <time>2021-09-01T10:19:56Z</time>
      </trkpt>
      <trkpt lat="39.571519" lon="3.214420">
        <ele>78.008</ele>
        <time>2021-09-01T10:19:58Z</time>
      </trkpt>
      <trkpt lat="39.571509" lon="3.214360">
        <ele>78.067</ele>
        <time>2021-09-01T10:19:59Z</time>
      </trkpt>
      <trkpt lat="39.571492" lon="3.214299">
        <ele>78.151</ele>
        <time>2021-09-01T10:20:00Z</time>
      </trkpt>
      <trkpt lat="39.571461" lon="3.214234">
        <ele>78.286</ele>
        <time>2021-09-01T10:20:01Z</time>
      </trkpt>
      <trkpt lat="39.571436" lon="3.214175">
        <ele>78.340</ele>
        <time>2021-09-01T10:20:02Z</time>
      </trkpt>
      <trkpt lat="39.571415" lon="3.214117">
        <ele>78.489</ele>
        <time>2021-09-01T10:20:03Z</time>
      </trkpt>
      <trkpt lat="39.571383" lon="3.214002">
        <ele>78.464</ele>
        <time>2021-09-01T10:20:05Z</time>
      </trkpt>
      <trkpt lat="39.571345" lon="3.213897">
        <ele>78.471</ele>
        <time>2021-09-01T10:20:07Z</time>
      </trkpt>
      <trkpt lat="39.571335" lon="3.213830">
        <ele>78.561</ele>
        <time>2021-09-01T10:20:08Z</time>
      </trkpt>
      <trkpt lat="39.571318" lon="3.213760">
        <ele>78.568</ele>
        <time>2021-09-01T10:20:09Z</time>
      </trkpt>
      <trkpt lat="39.571300" lon="3.213706">
        <ele>78.642</ele>
        <time>2021-09-01T10:20:10Z</time>
      </trkpt>
      <trkpt lat="39.571277" lon="3.213654">
        <ele>78.726</ele>
        <time>2021-09-01T10:20:11Z</time>
      </trkpt>
      <trkpt lat="39.571246" lon="3.213589">
        <ele>78.808</ele>
        <time>2021-09-01T10:20:12Z</time>
      </trkpt>
      <trkpt lat="39.571231" lon="3.213530">
        <ele>78.984</ele>
        <time>2021-09-01T10:20:13Z</time>
      </trkpt>
      <trkpt lat="39.571198" lon="3.213415">
        <ele>79.258</ele>
        <time>2021-09-01T10:20:15Z</time>
      </trkpt>
      <trkpt lat="39.571183" lon="3.213358">
        <ele>79.233</ele>
        <time>2021-09-01T10:20:16Z</time>
      </trkpt>
      <trkpt lat="39.571166" lon="3.213290">
        <ele>79.397</ele>
        <time>2021-09-01T10:20:17Z</time>
      </trkpt>
      <trkpt lat="39.571127" lon="3.213221">
        <ele>79.326</ele>
        <time>2021-09-01T10:20:18Z</time>
      </trkpt>
      <trkpt lat="39.571088" lon="3.213162">
        <ele>79.381</ele>
        <time>2021-09-01T10:20:19Z</time>
      </trkpt>
      <trkpt lat="39.571061" lon="3.213097">
        <ele>79.328</ele>
        <time>2021-09-01T10:20:20Z</time>
      </trkpt>
      <trkpt lat="39.571043" lon="3.213012">
        <ele>79.378</ele>
        <time>2021-09-01T10:20:21Z</time>
      </trkpt>
      <trkpt lat="39.571023" lon="3.212950">
        <ele>79.395</ele>
        <time>2021-09-01T10:20:22Z</time>
      </trkpt>
      <trkpt lat="39.570999" lon="3.212886">
        <ele>79.349</ele>
        <time>2021-09-01T10:20:23Z</time>
      </trkpt>
      <trkpt lat="39.570980" lon="3.212824">
        <ele>79.423</ele>
        <time>2021-09-01T10:20:24Z</time>
      </trkpt>
      <trkpt lat="39.570957" lon="3.212760">
        <ele>79.508</ele>
        <time>2021-09-01T10:20:25Z</time>
      </trkpt>
      <trkpt lat="39.570929" lon="3.212701">
        <ele>79.697</ele>
        <time>2021-09-01T10:20:26Z</time>
      </trkpt>
      <trkpt lat="39.570904" lon="3.212635">
        <ele>79.761</ele>
        <time>2021-09-01T10:20:27Z</time>
      </trkpt>
      <trkpt lat="39.570883" lon="3.212561">
        <ele>79.756</ele>
        <time>2021-09-01T10:20:28Z</time>
      </trkpt>
      <trkpt lat="39.570863" lon="3.212505">
        <ele>79.850</ele>
        <time>2021-09-01T10:20:29Z</time>
      </trkpt>
      <trkpt lat="39.570838" lon="3.212443">
        <ele>79.869</ele>
        <time>2021-09-01T10:20:30Z</time>
      </trkpt>
      <trkpt lat="39.570821" lon="3.212381">
        <ele>79.744</ele>
        <time>2021-09-01T10:20:31Z</time>
      </trkpt>
      <trkpt lat="39.570796" lon="3.212275">
        <ele>79.721</ele>
        <time>2021-09-01T10:20:33Z</time>
      </trkpt>
      <trkpt lat="39.570770" lon="3.212189">
        <ele>79.841</ele>
        <time>2021-09-01T10:20:35Z</time>
      </trkpt>
      <trkpt lat="39.570742" lon="3.212110">
        <ele>79.911</ele>
        <time>2021-09-01T10:20:37Z</time>
      </trkpt>
      <trkpt lat="39.570717" lon="3.212031">
        <ele>80.021</ele>
        <time>2021-09-01T10:20:39Z</time>
      </trkpt>
      <trkpt lat="39.570696" lon="3.211939">
        <ele>80.103</ele>
        <time>2021-09-01T10:20:41Z</time>
      </trkpt>
      <trkpt lat="39.570682" lon="3.211853">
        <ele>80.308</ele>
        <time>2021-09-01T10:20:43Z</time>
      </trkpt>
      <trkpt lat="39.570669" lon="3.211777">
        <ele>80.439</ele>
        <time>2021-09-01T10:20:45Z</time>
      </trkpt>
      <trkpt lat="39.570660" lon="3.211714">
        <ele>80.673</ele>
        <time>2021-09-01T10:20:47Z</time>
      </trkpt>
      <trkpt lat="39.570541" lon="3.211487">
        <ele>81.388</ele>
        <time>2021-09-01T10:21:00Z</time>
      </trkpt>
      <trkpt lat="39.570527" lon="3.211431">
        <ele>81.582</ele>
        <time>2021-09-01T10:21:02Z</time>
      </trkpt>
      <trkpt lat="39.570499" lon="3.211363">
        <ele>81.821</ele>
        <time>2021-09-01T10:21:04Z</time>
      </trkpt>
      <trkpt lat="39.570479" lon="3.211297">
        <ele>82.066</ele>
        <time>2021-09-01T10:21:06Z</time>
      </trkpt>
      <trkpt lat="39.570449" lon="3.211232">
        <ele>82.223</ele>
        <time>2021-09-01T10:21:08Z</time>
      </trkpt>
      <trkpt lat="39.570409" lon="3.211178">
        <ele>82.493</ele>
        <time>2021-09-01T10:21:10Z</time>
      </trkpt>
      <trkpt lat="39.570381" lon="3.211129">
        <ele>82.772</ele>
        <time>2021-09-01T10:21:12Z</time>
      </trkpt>
      <trkpt lat="39.570340" lon="3.211091">
        <ele>82.913</ele>
        <time>2021-09-01T10:21:14Z</time>
      </trkpt>
      <trkpt lat="39.570298" lon="3.211054">
        <ele>83.114</ele>
        <time>2021-09-01T10:21:16Z</time>
      </trkpt>
      <trkpt lat="39.570233" lon="3.211038">
        <ele>83.408</ele>
        <time>2021-09-01T10:21:18Z</time>
      </trkpt>
      <trkpt lat="39.570182" lon="3.211025">
        <ele>83.825</ele>
        <time>2021-09-01T10:21:21Z</time>
      </trkpt>
      <trkpt lat="39.570121" lon="3.211013">
        <ele>83.949</ele>
        <time>2021-09-01T10:21:24Z</time>
      </trkpt>
      <trkpt lat="39.570061" lon="3.211004">
        <ele>83.944</ele>
        <time>2021-09-01T10:21:26Z</time>
      </trkpt>
      <trkpt lat="39.569992" lon="3.211000">
        <ele>83.918</ele>
        <time>2021-09-01T10:21:28Z</time>
      </trkpt>
      <trkpt lat="39.569916" lon="3.211001">
        <ele>84.037</ele>
        <time>2021-09-01T10:21:30Z</time>
      </trkpt>
      <trkpt lat="39.569850" lon="3.210989">
        <ele>84.242</ele>
        <time>2021-09-01T10:21:32Z</time>
      </trkpt>
      <trkpt lat="39.568758" lon="3.214945">
        <ele>75.189</ele>
        <time>2021-09-01T10:38:20Z</time>
      </trkpt>
      <trkpt lat="39.568768" lon="3.215014">
        <ele>75.179</ele>
        <time>2021-09-01T10:38:21Z</time>
      </trkpt>
      <trkpt lat="39.568798" lon="3.215077">
        <ele>75.274</ele>
        <time>2021-09-01T10:38:22Z</time>
      </trkpt>
      <trkpt lat="39.568825" lon="3.215134">
        <ele>75.256</ele>
        <time>2021-09-01T10:38:23Z</time>
      </trkpt>
      <trkpt lat="39.568847" lon="3.215230">
        <ele>75.021</ele>
        <time>2021-09-01T10:38:25Z</time>
      </trkpt>
      <trkpt lat="39.568870" lon="3.215292">
        <ele>75.008</ele>
        <time>2021-09-01T10:38:26Z</time>
      </trkpt>
      <trkpt lat="39.568885" lon="3.215398">
        <ele>75.095</ele>
        <time>2021-09-01T10:38:28Z</time>
      </trkpt>
      <trkpt lat="39.568907" lon="3.215454">
        <ele>75.049</ele>
        <time>2021-09-01T10:38:29Z</time>
      </trkpt>
      <trkpt lat="39.568923" lon="3.215510">
        <ele>75.154</ele>
        <time>2021-09-01T10:38:30Z</time>
      </trkpt>
      <trkpt lat="39.568944" lon="3.215572">
        <ele>75.258</ele>
        <time>2021-09-01T10:38:31Z</time>
      </trkpt>
      <trkpt lat="39.568951" lon="3.215633">
        <ele>75.317</ele>
        <time>2021-09-01T10:38:32Z</time>
      </trkpt>
      <trkpt lat="39.568972" lon="3.215691">
        <ele>75.462</ele>
        <time>2021-09-01T10:38:33Z</time>
      </trkpt>
      <trkpt lat="39.568991" lon="3.215749">
        <ele>75.579</ele>
        <time>2021-09-01T10:38:34Z</time>
      </trkpt>
      <trkpt lat="39.569008" lon="3.215809">
        <ele>75.529</ele>
        <time>2021-09-01T10:38:35Z</time>
      </trkpt>
      <trkpt lat="39.569022" lon="3.215866">
        <ele>75.547</ele>
        <time>2021-09-01T10:38:36Z</time>
      </trkpt>
      <trkpt lat="39.569057" lon="3.215959">
        <ele>75.429</ele>
        <time>2021-09-01T10:38:38Z</time>
      </trkpt>
      <trkpt lat="39.569089" lon="3.216001">
        <ele>75.421</ele>
        <time>2021-09-01T10:38:39Z</time>
      </trkpt>
      <trkpt lat="39.569107" lon="3.216058">
        <ele>75.508</ele>
        <time>2021-09-01T10:38:40Z</time>
      </trkpt>
      <trkpt lat="39.569119" lon="3.216130">
        <ele>75.572</ele>
        <time>2021-09-01T10:38:41Z</time>
      </trkpt>
      <trkpt lat="39.569148" lon="3.216231">
        <ele>75.636</ele>
        <time>2021-09-01T10:38:43Z</time>
      </trkpt>
      <trkpt lat="39.569174" lon="3.216290">
        <ele>75.621</ele>
        <time>2021-09-01T10:38:44Z</time>
      </trkpt>
      <trkpt lat="39.569182" lon="3.216362">
        <ele>75.725</ele>
        <time>2021-09-01T10:38:45Z</time>
      </trkpt>
      <trkpt lat="39.569126" lon="3.216461">
        <ele>75.794</ele>
        <time>2021-09-01T10:38:46Z</time>
      </trkpt>
      <trkpt lat="39.569159" lon="3.216586">
        <ele>75.949</ele>
        <time>2021-09-01T10:38:48Z</time>
      </trkpt>
      <trkpt lat="39.569176" lon="3.216654">
        <ele>76.166</ele>
        <time>2021-09-01T10:38:49Z</time>
      </trkpt>
      <trkpt lat="39.569192" lon="3.216709">
        <ele>76.276</ele>
        <time>2021-09-01T10:38:50Z</time>
      </trkpt>
      <trkpt lat="39.569209" lon="3.216768">
        <ele>76.448</ele>
        <time>2021-09-01T10:38:51Z</time>
      </trkpt>
      <trkpt lat="39.569227" lon="3.216828">
        <ele>76.561</ele>
        <time>2021-09-01T10:38:52Z</time>
      </trkpt>
      <trkpt lat="39.569243" lon="3.216887">
        <ele>76.617</ele>
        <time>2021-09-01T10:38:53Z</time>
      </trkpt>
      <trkpt lat="39.569261" lon="3.216950">
        <ele>76.608</ele>
        <time>2021-09-01T10:38:54Z</time>
      </trkpt>
      <trkpt lat="39.569281" lon="3.217018">
        <ele>76.672</ele>
        <time>2021-09-01T10:38:55Z</time>
      </trkpt>
      <trkpt lat="39.569310" lon="3.217122">
        <ele>76.536</ele>
        <time>2021-09-01T10:38:57Z</time>
      </trkpt>
      <trkpt lat="39.569328" lon="3.217183">
        <ele>76.461</ele>
        <time>2021-09-01T10:38:58Z</time>
      </trkpt>
      <trkpt lat="39.569345" lon="3.217237">
        <ele>76.315</ele>
        <time>2021-09-01T10:38:59Z</time>
      </trkpt>
      <trkpt lat="39.569362" lon="3.217299">
        <ele>76.364</ele>
        <time>2021-09-01T10:39:00Z</time>
      </trkpt>
      <trkpt lat="39.569376" lon="3.217365">
        <ele>76.379</ele>
        <time>2021-09-01T10:39:01Z</time>
      </trkpt>
      <trkpt lat="39.569424" lon="3.217467">
        <ele>76.276</ele>
        <time>2021-09-01T10:39:03Z</time>
      </trkpt>
      <trkpt lat="39.569448" lon="3.217533">
        <ele>76.136</ele>
        <time>2021-09-01T10:39:04Z</time>
      </trkpt>
      <trkpt lat="39.569479" lon="3.217590">
        <ele>76.132</ele>
        <time>2021-09-01T10:39:05Z</time>
      </trkpt>
      <trkpt lat="39.569472" lon="3.217662">
        <ele>76.192</ele>
        <time>2021-09-01T10:39:06Z</time>
      </trkpt>
      <trkpt lat="39.569487" lon="3.217719">
        <ele>76.111</ele>
        <time>2021-09-01T10:39:07Z</time>
      </trkpt>
      <trkpt lat="39.569507" lon="3.217788">
        <ele>76.208</ele>
        <time>2021-09-01T10:39:08Z</time>
      </trkpt>
      <trkpt lat="39.569525" lon="3.217853">
        <ele>76.381</ele>
        <time>2021-09-01T10:39:09Z</time>
      </trkpt>
      <trkpt lat="39.569558" lon="3.217962">
        <ele>76.485</ele>
        <time>2021-09-01T10:39:11Z</time>
      </trkpt>
      <trkpt lat="39.569602" lon="3.218062">
        <ele>76.410</ele>
        <time>2021-09-01T10:39:13Z</time>
      </trkpt>
      <trkpt lat="39.569618" lon="3.218126">
        <ele>76.554</ele>
        <time>2021-09-01T10:39:14Z</time>
      </trkpt>
      <trkpt lat="39.569653" lon="3.218231">
        <ele>76.543</ele>
        <time>2021-09-01T10:39:16Z</time>
      </trkpt>
      <trkpt lat="39.569685" lon="3.218346">
        <ele>76.658</ele>
        <time>2021-09-01T10:39:18Z</time>
      </trkpt>
      <trkpt lat="39.569688" lon="3.218420">
        <ele>76.695</ele>
        <time>2021-09-01T10:39:19Z</time>
      </trkpt>
      <trkpt lat="39.569714" lon="3.218519">
        <ele>76.695</ele>
        <time>2021-09-01T10:39:21Z</time>
      </trkpt>
      <trkpt lat="39.569742" lon="3.218616">
        <ele>76.689</ele>
        <time>2021-09-01T10:39:23Z</time>
      </trkpt>
      <trkpt lat="39.569761" lon="3.218673">
        <ele>76.406</ele>
        <time>2021-09-01T10:39:25Z</time>
      </trkpt>
      <trkpt lat="39.569793" lon="3.218716">
        <ele>76.326</ele>
        <time>2021-09-01T10:39:28Z</time>
      </trkpt>
      <trkpt lat="39.569829" lon="3.218762">
        <ele>76.308</ele>
        <time>2021-09-01T10:39:30Z</time>
      </trkpt>
      <trkpt lat="39.569882" lon="3.218764">
        <ele>76.486</ele>
        <time>2021-09-01T10:39:33Z</time>
      </trkpt>
      <trkpt lat="39.569954" lon="3.218751">
        <ele>76.530</ele>
        <time>2021-09-01T10:39:35Z</time>
      </trkpt>
      <trkpt lat="39.570015" lon="3.218773">
        <ele>76.635</ele>
        <time>2021-09-01T10:39:37Z</time>
      </trkpt>
      <trkpt lat="39.570076" lon="3.218819">
        <ele>76.529</ele>
        <time>2021-09-01T10:39:39Z</time>
      </trkpt>
      <trkpt lat="39.570127" lon="3.218825">
        <ele>76.128</ele>
        <time>2021-09-01T10:39:41Z</time>
      </trkpt>
      <trkpt lat="39.570166" lon="3.218792">
        <ele>75.823</ele>
        <time>2021-09-01T10:39:42Z</time>
      </trkpt>
      <trkpt lat="39.570228" lon="3.218770">
        <ele>75.580</ele>
        <time>2021-09-01T10:39:44Z</time>
      </trkpt>
      <trkpt lat="39.570273" lon="3.218770">
        <ele>75.410</ele>
        <time>2021-09-01T10:39:45Z</time>
      </trkpt>
      <trkpt lat="39.570340" lon="3.218765">
        <ele>75.394</ele>
        <time>2021-09-01T10:39:47Z</time>
      </trkpt>
      <trkpt lat="39.570392" lon="3.218750">
        <ele>75.357</ele>
        <time>2021-09-01T10:39:49Z</time>
      </trkpt>
      <trkpt lat="39.570437" lon="3.218701">
        <ele>75.322</ele>
        <time>2021-09-01T10:39:51Z</time>
      </trkpt>
      <trkpt lat="39.570508" lon="3.218659">
        <ele>75.408</ele>
        <time>2021-09-01T10:39:53Z</time>
      </trkpt>
      <trkpt lat="39.570575" lon="3.218622">
        <ele>75.447</ele>
        <time>2021-09-01T10:39:55Z</time>
      </trkpt>
      <trkpt lat="39.570644" lon="3.218579">
        <ele>75.481</ele>
        <time>2021-09-01T10:39:57Z</time>
      </trkpt>
      <trkpt lat="39.570709" lon="3.218552">
        <ele>75.376</ele>
        <time>2021-09-01T10:39:59Z</time>
      </trkpt>
      <trkpt lat="39.570770" lon="3.218530">
        <ele>75.280</ele>
        <time>2021-09-01T10:40:01Z</time>
      </trkpt>
      <trkpt lat="39.570835" lon="3.218506">
        <ele>75.149</ele>
        <time>2021-09-01T10:40:03Z</time>
      </trkpt>
      <trkpt lat="39.570898" lon="3.218478">
        <ele>75.294</ele>
        <time>2021-09-01T10:40:05Z</time>
      </trkpt>
      <trkpt lat="39.570967" lon="3.218426">
        <ele>75.291</ele>
        <time>2021-09-01T10:40:07Z</time>
      </trkpt>
      <trkpt lat="39.571033" lon="3.218384">
        <ele>75.211</ele>
        <time>2021-09-01T10:40:09Z</time>
      </trkpt>
      <trkpt lat="39.571102" lon="3.218370">
        <ele>75.259</ele>
        <time>2021-09-01T10:40:11Z</time>
      </trkpt>
      <trkpt lat="39.571155" lon="3.218334">
        <ele>75.203</ele>
        <time>2021-09-01T10:40:13Z</time>
      </trkpt>
      <trkpt lat="39.571204" lon="3.218305">
        <ele>75.123</ele>
        <time>2021-09-01T10:40:15Z</time>
      </trkpt>
      <trkpt lat="39.571262" lon="3.218265">
        <ele>75.108</ele>
        <time>2021-09-01T10:40:17Z</time>
      </trkpt>
      <trkpt lat="39.571320" lon="3.218228">
        <ele>75.283</ele>
        <time>2021-09-01T10:40:19Z</time>
      </trkpt>
      <trkpt lat="39.571388" lon="3.218199">
        <ele>75.317</ele>
        <time>2021-09-01T10:40:21Z</time>
      </trkpt>
      <trkpt lat="39.571460" lon="3.218169">
        <ele>75.252</ele>
        <time>2021-09-01T10:40:23Z</time>
      </trkpt>
      <trkpt lat="39.571525" lon="3.218136">
        <ele>74.886</ele>
        <time>2021-09-01T10:40:25Z</time>
      </trkpt>
      <trkpt lat="39.571597" lon="3.218107">
        <ele>74.415</ele>
        <time>2021-09-01T10:40:27Z</time>
      </trkpt>
      <trkpt lat="39.571667" lon="3.218073">
        <ele>74.250</ele>
        <time>2021-09-01T10:40:29Z</time>
      </trkpt>
      <trkpt lat="39.571738" lon="3.218033">
        <ele>74.287</ele>
        <time>2021-09-01T10:40:31Z</time>
      </trkpt>
      <trkpt lat="39.571793" lon="3.218163">
        <ele>74.327</ele>
        <time>2021-09-01T10:40:32Z</time>
      </trkpt>
      <trkpt lat="39.571844" lon="3.218144">
        <ele>74.339</ele>
        <time>2021-09-01T10:40:33Z</time>
      </trkpt>
      <trkpt lat="39.571918" lon="3.218109">
        <ele>74.401</ele>
        <time>2021-09-01T10:40:35Z</time>
      </trkpt>
      <trkpt lat="39.571979" lon="3.218074">
        <ele>74.521</ele>
        <time>2021-09-01T10:40:37Z</time>
      </trkpt>
      <trkpt lat="39.572021" lon="3.218051">
        <ele>74.508</ele>
        <time>2021-09-01T10:40:38Z</time>
      </trkpt>
      <trkpt lat="39.572070" lon="3.218097">
        <ele>74.431</ele>
        <time>2021-09-01T10:40:40Z</time>
      </trkpt>
      <trkpt lat="39.572117" lon="3.218114">
        <ele>74.465</ele>
        <time>2021-09-01T10:40:44Z</time>
      </trkpt>
      <trkpt lat="39.572152" lon="3.218169">
        <ele>74.710</ele>
        <time>2021-09-01T10:40:47Z</time>
      </trkpt>
      <trkpt lat="39.572208" lon="3.218189">
        <ele>74.724</ele>
        <time>2021-09-01T10:40:49Z</time>
      </trkpt>
      <trkpt lat="39.572275" lon="3.218126">
        <ele>74.643</ele>
        <time>2021-09-01T10:40:51Z</time>
      </trkpt>
      <trkpt lat="39.572367" lon="3.218154">
        <ele>74.698</ele>
        <time>2021-09-01T10:40:53Z</time>
      </trkpt>
      <trkpt lat="39.572442" lon="3.218190">
        <ele>74.775</ele>
        <time>2021-09-01T10:40:55Z</time>
      </trkpt>
      <trkpt lat="39.572509" lon="3.218186">
        <ele>74.845</ele>
        <time>2021-09-01T10:40:57Z</time>
      </trkpt>
      <trkpt lat="39.572577" lon="3.218125">
        <ele>74.784</ele>
        <time>2021-09-01T10:40:59Z</time>
      </trkpt>
      <trkpt lat="39.572611" lon="3.218074">
        <ele>74.507</ele>
        <time>2021-09-01T10:41:00Z</time>
      </trkpt>
      <trkpt lat="39.572644" lon="3.218021">
        <ele>74.417</ele>
        <time>2021-09-01T10:41:01Z</time>
      </trkpt>
      <trkpt lat="39.572663" lon="3.217959">
        <ele>74.208</ele>
        <time>2021-09-01T10:41:02Z</time>
      </trkpt>
      <trkpt lat="39.572677" lon="3.217900">
        <ele>74.176</ele>
        <time>2021-09-01T10:41:03Z</time>
      </trkpt>
      <trkpt lat="39.572714" lon="3.217831">
        <ele>74.060</ele>
        <time>2021-09-01T10:41:04Z</time>
      </trkpt>
      <trkpt lat="39.572770" lon="3.217793">
        <ele>74.095</ele>
        <time>2021-09-01T10:41:05Z</time>
      </trkpt>
      <trkpt lat="39.572827" lon="3.217769">
        <ele>73.999</ele>
        <time>2021-09-01T10:41:06Z</time>
      </trkpt>
      <trkpt lat="39.572876" lon="3.217749">
        <ele>73.968</ele>
        <time>2021-09-01T10:41:07Z</time>
      </trkpt>
      <trkpt lat="39.572920" lon="3.217722">
        <ele>73.973</ele>
        <time>2021-09-01T10:41:08Z</time>
      </trkpt>
      <trkpt lat="39.572972" lon="3.217693">
        <ele>73.980</ele>
        <time>2021-09-01T10:41:09Z</time>
      </trkpt>
      <trkpt lat="39.573019" lon="3.217629">
        <ele>73.950</ele>
        <time>2021-09-01T10:41:10Z</time>
      </trkpt>
      <trkpt lat="39.573074" lon="3.217593">
        <ele>73.926</ele>
        <time>2021-09-01T10:41:11Z</time>
      </trkpt>
      <trkpt lat="39.573126" lon="3.217560">
        <ele>74.047</ele>
        <time>2021-09-01T10:41:12Z</time>
      </trkpt>
      <trkpt lat="39.573181" lon="3.217530">
        <ele>74.111</ele>
        <time>2021-09-01T10:41:13Z</time>
      </trkpt>
      <trkpt lat="39.573240" lon="3.217496">
        <ele>74.108</ele>
        <time>2021-09-01T10:41:14Z</time>
      </trkpt>
      <trkpt lat="39.573301" lon="3.217462">
        <ele>74.250</ele>
        <time>2021-09-01T10:41:15Z</time>
      </trkpt>
      <trkpt lat="39.573359" lon="3.217430">
        <ele>74.324</ele>
        <time>2021-09-01T10:41:16Z</time>
      </trkpt>
      <trkpt lat="39.573419" lon="3.217397">
        <ele>74.339</ele>
        <time>2021-09-01T10:41:17Z</time>
      </trkpt>
      <trkpt lat="39.573471" lon="3.217362">
        <ele>74.343</ele>
        <time>2021-09-01T10:41:18Z</time>
      </trkpt>
      <trkpt lat="39.573519" lon="3.217316">
        <ele>74.362</ele>
        <time>2021-09-01T10:41:19Z</time>
      </trkpt>
      <trkpt lat="39.573565" lon="3.217263">
        <ele>74.197</ele>
        <time>2021-09-01T10:41:20Z</time>
      </trkpt>
      <trkpt lat="39.573614" lon="3.217208">
        <ele>73.984</ele>
        <time>2021-09-01T10:41:21Z</time>
      </trkpt>
      <trkpt lat="39.573655" lon="3.217149">
        <ele>73.784</ele>
        <time>2021-09-01T10:41:22Z</time>
      </trkpt>
      <trkpt lat="39.573692" lon="3.217079">
        <ele>73.563</ele>
        <time>2021-09-01T10:41:23Z</time>
      </trkpt>
      <trkpt lat="39.573731" lon="3.217005">
        <ele>73.444</ele>
        <time>2021-09-01T10:41:24Z</time>
      </trkpt>
      <trkpt lat="39.573760" lon="3.216929">
        <ele>73.418</ele>
        <time>2021-09-01T10:41:25Z</time>
      </trkpt>
      <trkpt lat="39.573786" lon="3.216846">
        <ele>73.408</ele>
        <time>2021-09-01T10:41:26Z</time>
      </trkpt>
      <trkpt lat="39.573808" lon="3.216761">
        <ele>73.484</ele>
        <time>2021-09-01T10:41:27Z</time>
      </trkpt>
      <trkpt lat="39.573828" lon="3.216675">
        <ele>73.418</ele>
        <time>2021-09-01T10:41:28Z</time>
      </trkpt>
      <trkpt lat="39.573842" lon="3.216586">
        <ele>73.493</ele>
        <time>2021-09-01T10:41:29Z</time>
      </trkpt>
      <trkpt lat="39.573856" lon="3.216495">
        <ele>73.377</ele>
        <time>2021-09-01T10:41:30Z</time>
      </trkpt>
      <trkpt lat="39.573870" lon="3.216408">
        <ele>73.126</ele>
        <time>2021-09-01T10:41:31Z</time>
      </trkpt>
      <trkpt lat="39.573884" lon="3.216319">
        <ele>73.171</ele>
        <time>2021-09-01T10:41:32Z</time>
      </trkpt>
      <trkpt lat="39.573899" lon="3.216234">
        <ele>73.158</ele>
        <time>2021-09-01T10:41:33Z</time>
      </trkpt>
      <trkpt lat="39.573915" lon="3.216154">
        <ele>73.188</ele>
        <time>2021-09-01T10:41:34Z</time>
      </trkpt>
      <trkpt lat="39.573929" lon="3.216069">
        <ele>73.298</ele>
        <time>2021-09-01T10:41:35Z</time>
      </trkpt>
      <trkpt lat="39.573943" lon="3.215986">
        <ele>73.315</ele>
        <time>2021-09-01T10:41:36Z</time>
      </trkpt>
      <trkpt lat="39.573958" lon="3.215901">
        <ele>73.326</ele>
        <time>2021-09-01T10:41:37Z</time>
      </trkpt>
      <trkpt lat="39.573972" lon="3.215813">
        <ele>73.308</ele>
        <time>2021-09-01T10:41:38Z</time>
      </trkpt>
      <trkpt lat="39.573987" lon="3.215728">
        <ele>73.347</ele>
        <time>2021-09-01T10:41:39Z</time>
      </trkpt>
      <trkpt lat="39.574000" lon="3.215646">
        <ele>73.281</ele>
        <time>2021-09-01T10:41:40Z</time>
      </trkpt>
      <trkpt lat="39.574018" lon="3.215565">
        <ele>73.196</ele>
        <time>2021-09-01T10:41:41Z</time>
      </trkpt>
      <trkpt lat="39.574036" lon="3.215480">
        <ele>73.190</ele>
        <time>2021-09-01T10:41:42Z</time>
      </trkpt>
      <trkpt lat="39.574055" lon="3.215391">
        <ele>73.099</ele>
        <time>2021-09-01T10:41:43Z</time>
      </trkpt>
      <trkpt lat="39.574070" lon="3.215304">
        <ele>73.074</ele>
        <time>2021-09-01T10:41:44Z</time>
      </trkpt>
      <trkpt lat="39.574086" lon="3.215222">
        <ele>73.091</ele>
        <time>2021-09-01T10:41:45Z</time>
      </trkpt>
      <trkpt lat="39.574101" lon="3.215143">
        <ele>72.961</ele>
        <time>2021-09-01T10:41:46Z</time>
      </trkpt>
      <trkpt lat="39.574115" lon="3.215060">
        <ele>72.987</ele>
        <time>2021-09-01T10:41:47Z</time>
      </trkpt>
      <trkpt lat="39.574130" lon="3.214984">
        <ele>72.942</ele>
        <time>2021-09-01T10:41:48Z</time>
      </trkpt>
      <trkpt lat="39.574144" lon="3.214916">
        <ele>72.926</ele>
        <time>2021-09-01T10:41:49Z</time>
      </trkpt>
      <trkpt lat="39.574156" lon="3.214847">
        <ele>72.908</ele>
        <time>2021-09-01T10:41:50Z</time>
      </trkpt>
      <trkpt lat="39.574167" lon="3.214777">
        <ele>72.996</ele>
        <time>2021-09-01T10:41:51Z</time>
      </trkpt>
      <trkpt lat="39.574183" lon="3.214713">
        <ele>72.970</ele>
        <time>2021-09-01T10:41:52Z</time>
      </trkpt>
      <trkpt lat="39.574208" lon="3.214619">
        <ele>72.775</ele>
        <time>2021-09-01T10:41:54Z</time>
      </trkpt>
      <trkpt lat="39.574226" lon="3.214545">
        <ele>72.739</ele>
        <time>2021-09-01T10:41:56Z</time>
      </trkpt>
      <trkpt lat="39.574303" lon="3.214529">
        <ele>73.868</ele>
        <time>2021-09-01T10:45:14Z</time>
      </trkpt>
      <trkpt lat="39.574257" lon="3.214627">
        <ele>74.163</ele>
        <time>2021-09-01T10:46:05Z</time>
      </trkpt>
      <trkpt lat="39.574311" lon="3.214510">
        <ele>75.680</ele>
        <time>2021-09-01T10:47:53Z</time>
      </trkpt>
      <trkpt lat="39.574289" lon="3.214443">
        <ele>76.970</ele>
        <time>2021-09-01T10:50:24Z</time>
      </trkpt>
      <trkpt lat="39.574290" lon="3.214506">
        <ele>77.733</ele>
        <time>2021-09-01T10:52:04Z</time>
      </trkpt>
      <trkpt lat="39.574256" lon="3.214573">
        <ele>77.923</ele>
        <time>2021-09-01T10:52:06Z</time>
      </trkpt>
      <trkpt lat="39.574233" lon="3.214648">
        <ele>77.815</ele>
        <time>2021-09-01T10:52:08Z</time>
      </trkpt>
      <trkpt lat="39.574197" lon="3.214744">
        <ele>77.808</ele>
        <time>2021-09-01T10:52:10Z</time>
      </trkpt>
      <trkpt lat="39.574177" lon="3.214842">
        <ele>77.811</ele>
        <time>2021-09-01T10:52:12Z</time>
      </trkpt>
      <trkpt lat="39.574146" lon="3.214955">
        <ele>77.965</ele>
        <time>2021-09-01T10:52:14Z</time>
      </trkpt>
      <trkpt lat="39.574128" lon="3.215061">
        <ele>78.090</ele>
        <time>2021-09-01T10:52:16Z</time>
      </trkpt>
      <trkpt lat="39.574112" lon="3.215121">
        <ele>78.064</ele>
        <time>2021-09-01T10:52:17Z</time>
      </trkpt>
      <trkpt lat="39.574081" lon="3.215207">
        <ele>78.133</ele>
        <time>2021-09-01T10:52:19Z</time>
      </trkpt>
      <trkpt lat="39.574061" lon="3.215266">
        <ele>78.268</ele>
        <time>2021-09-01T10:52:20Z</time>
      </trkpt>
      <trkpt lat="39.574045" lon="3.215335">
        <ele>78.245</ele>
        <time>2021-09-01T10:52:21Z</time>
      </trkpt>
      <trkpt lat="39.574021" lon="3.215393">
        <ele>78.345</ele>
        <time>2021-09-01T10:52:22Z</time>
      </trkpt>
      <trkpt lat="39.573983" lon="3.215496">
        <ele>78.328</ele>
        <time>2021-09-01T10:52:24Z</time>
      </trkpt>
      <trkpt lat="39.573975" lon="3.215557">
        <ele>78.489</ele>
        <time>2021-09-01T10:52:25Z</time>
      </trkpt>
      <trkpt lat="39.573962" lon="3.215623">
        <ele>78.617</ele>
        <time>2021-09-01T10:52:26Z</time>
      </trkpt>
      <trkpt lat="39.573942" lon="3.215727">
        <ele>79.008</ele>
        <time>2021-09-01T10:52:28Z</time>
      </trkpt>
      <trkpt lat="39.573916" lon="3.215806">
        <ele>79.140</ele>
        <time>2021-09-01T10:52:29Z</time>
      </trkpt>
      <trkpt lat="39.573906" lon="3.215871">
        <ele>79.364</ele>
        <time>2021-09-01T10:52:30Z</time>
      </trkpt>
      <trkpt lat="39.573874" lon="3.215939">
        <ele>79.479</ele>
        <time>2021-09-01T10:52:31Z</time>
      </trkpt>
      <trkpt lat="39.573839" lon="3.216063">
        <ele>79.463</ele>
        <time>2021-09-01T10:52:33Z</time>
      </trkpt>
      <trkpt lat="39.573837" lon="3.216130">
        <ele>79.432</ele>
        <time>2021-09-01T10:52:34Z</time>
      </trkpt>
      <trkpt lat="39.573826" lon="3.216189">
        <ele>79.367</ele>
        <time>2021-09-01T10:52:35Z</time>
      </trkpt>
      <trkpt lat="39.573813" lon="3.216259">
        <ele>79.184</ele>
        <time>2021-09-01T10:52:36Z</time>
      </trkpt>
      <trkpt lat="39.573800" lon="3.216326">
        <ele>79.174</ele>
        <time>2021-09-01T10:52:37Z</time>
      </trkpt>
      <trkpt lat="39.573784" lon="3.216395">
        <ele>79.174</ele>
        <time>2021-09-01T10:52:38Z</time>
      </trkpt>
      <trkpt lat="39.573765" lon="3.216457">
        <ele>79.256</ele>
        <time>2021-09-01T10:52:39Z</time>
      </trkpt>
      <trkpt lat="39.573760" lon="3.216524">
        <ele>79.221</ele>
        <time>2021-09-01T10:52:40Z</time>
      </trkpt>
      <trkpt lat="39.573739" lon="3.216579">
        <ele>79.208</ele>
        <time>2021-09-01T10:52:41Z</time>
      </trkpt>
      <trkpt lat="39.573724" lon="3.216645">
        <ele>79.255</ele>
        <time>2021-09-01T10:52:42Z</time>
      </trkpt>
      <trkpt lat="39.573694" lon="3.216701">
        <ele>79.219</ele>
        <time>2021-09-01T10:52:43Z</time>
      </trkpt>
      <trkpt lat="39.573634" lon="3.216780">
        <ele>79.264</ele>
        <time>2021-09-01T10:52:45Z</time>
      </trkpt>
      <trkpt lat="39.573584" lon="3.216799">
        <ele>79.268</ele>
        <time>2021-09-01T10:52:46Z</time>
      </trkpt>
      <trkpt lat="39.573534" lon="3.216810">
        <ele>79.067</ele>
        <time>2021-09-01T10:52:47Z</time>
      </trkpt>
      <trkpt lat="39.573491" lon="3.216862">
        <ele>78.972</ele>
        <time>2021-09-01T10:52:48Z</time>
      </trkpt>
      <trkpt lat="39.573417" lon="3.216924">
        <ele>78.759</ele>
        <time>2021-09-01T10:52:50Z</time>
      </trkpt>
      <trkpt lat="39.573370" lon="3.216944">
        <ele>78.549</ele>
        <time>2021-09-01T10:52:51Z</time>
      </trkpt>
      <trkpt lat="39.573319" lon="3.216962">
        <ele>78.497</ele>
        <time>2021-09-01T10:52:52Z</time>
      </trkpt>
      <trkpt lat="39.573232" lon="3.217021">
        <ele>78.423</ele>
        <time>2021-09-01T10:52:54Z</time>
      </trkpt>
      <trkpt lat="39.573172" lon="3.217040">
        <ele>78.425</ele>
        <time>2021-09-01T10:52:55Z</time>
      </trkpt>
      <trkpt lat="39.573116" lon="3.217067">
        <ele>78.508</ele>
        <time>2021-09-01T10:52:56Z</time>
      </trkpt>
      <trkpt lat="39.573077" lon="3.217100">
        <ele>78.897</ele>
        <time>2021-09-01T10:52:57Z</time>
      </trkpt>
      <trkpt lat="39.573027" lon="3.217131">
        <ele>79.331</ele>
        <time>2021-09-01T10:52:58Z</time>
      </trkpt>
      <trkpt lat="39.572983" lon="3.217160">
        <ele>79.726</ele>
        <time>2021-09-01T10:52:59Z</time>
      </trkpt>
      <trkpt lat="39.572934" lon="3.217190">
        <ele>80.140</ele>
        <time>2021-09-01T10:53:00Z</time>
      </trkpt>
      <trkpt lat="39.572894" lon="3.217224">
        <ele>80.349</ele>
        <time>2021-09-01T10:53:01Z</time>
      </trkpt>
      <trkpt lat="39.572848" lon="3.217259">
        <ele>80.314</ele>
        <time>2021-09-01T10:53:02Z</time>
      </trkpt>
      <trkpt lat="39.572804" lon="3.217302">
        <ele>80.231</ele>
        <time>2021-09-01T10:53:03Z</time>
      </trkpt>
      <trkpt lat="39.572760" lon="3.217344">
        <ele>80.181</ele>
        <time>2021-09-01T10:53:04Z</time>
      </trkpt>
      <trkpt lat="39.572728" lon="3.217386">
        <ele>79.972</ele>
        <time>2021-09-01T10:53:05Z</time>
      </trkpt>
      <trkpt lat="39.572694" lon="3.217427">
        <ele>79.913</ele>
        <time>2021-09-01T10:53:06Z</time>
      </trkpt>
      <trkpt lat="39.572662" lon="3.217471">
        <ele>79.914</ele>
        <time>2021-09-01T10:53:07Z</time>
      </trkpt>
      <trkpt lat="39.572613" lon="3.217513">
        <ele>79.908</ele>
        <time>2021-09-01T10:53:08Z</time>
      </trkpt>
      <trkpt lat="39.572559" lon="3.217524">
        <ele>80.075</ele>
        <time>2021-09-01T10:53:09Z</time>
      </trkpt>
      <trkpt lat="39.572471" lon="3.217501">
        <ele>80.089</ele>
        <time>2021-09-01T10:53:11Z</time>
      </trkpt>
      <trkpt lat="39.572412" lon="3.217498">
        <ele>79.914</ele>
        <time>2021-09-01T10:53:12Z</time>
      </trkpt>
      <trkpt lat="39.572362" lon="3.217513">
        <ele>79.928</ele>
        <time>2021-09-01T10:53:13Z</time>
      </trkpt>
      <trkpt lat="39.572312" lon="3.217541">
        <ele>79.967</ele>
        <time>2021-09-01T10:53:14Z</time>
      </trkpt>
      <trkpt lat="39.572276" lon="3.217595">
        <ele>80.022</ele>
        <time>2021-09-01T10:53:15Z</time>
      </trkpt>
      <trkpt lat="39.572241" lon="3.217647">
        <ele>80.269</ele>
        <time>2021-09-01T10:53:16Z</time>
      </trkpt>
      <trkpt lat="39.572203" lon="3.217719">
        <ele>80.319</ele>
        <time>2021-09-01T10:53:17Z</time>
      </trkpt>
      <trkpt lat="39.572176" lon="3.217784">
        <ele>80.562</ele>
        <time>2021-09-01T10:53:18Z</time>
      </trkpt>
      <trkpt lat="39.572123" lon="3.217862">
        <ele>81.183</ele>
        <time>2021-09-01T10:53:20Z</time>
      </trkpt>
      <trkpt lat="39.572081" lon="3.217890">
        <ele>81.311</ele>
        <time>2021-09-01T10:53:21Z</time>
      </trkpt>
      <trkpt lat="39.572023" lon="3.217920">
        <ele>81.608</ele>
        <time>2021-09-01T10:53:22Z</time>
      </trkpt>
      <trkpt lat="39.571971" lon="3.217947">
        <ele>81.694</ele>
        <time>2021-09-01T10:53:23Z</time>
      </trkpt>
      <trkpt lat="39.571926" lon="3.217960">
        <ele>81.518</ele>
        <time>2021-09-01T10:53:24Z</time>
      </trkpt>
      <trkpt lat="39.571836" lon="3.217979">
        <ele>80.833</ele>
        <time>2021-09-01T10:53:26Z</time>
      </trkpt>
      <trkpt lat="39.571791" lon="3.218006">
        <ele>80.637</ele>
        <time>2021-09-01T10:53:27Z</time>
      </trkpt>
      <trkpt lat="39.571741" lon="3.218038">
        <ele>80.346</ele>
        <time>2021-09-01T10:53:28Z</time>
      </trkpt>
      <trkpt lat="39.571682" lon="3.218064">
        <ele>80.371</ele>
        <time>2021-09-01T10:53:29Z</time>
      </trkpt>
      <trkpt lat="39.571629" lon="3.218089">
        <ele>80.428</ele>
        <time>2021-09-01T10:53:30Z</time>
      </trkpt>
      <trkpt lat="39.571580" lon="3.218127">
        <ele>80.558</ele>
        <time>2021-09-01T10:53:31Z</time>
      </trkpt>
      <trkpt lat="39.571470" lon="3.218184">
        <ele>80.647</ele>
        <time>2021-09-01T10:53:33Z</time>
      </trkpt>
      <trkpt lat="39.571422" lon="3.218206">
        <ele>80.629</ele>
        <time>2021-09-01T10:53:34Z</time>
      </trkpt>
      <trkpt lat="39.571369" lon="3.218237">
        <ele>80.621</ele>
        <time>2021-09-01T10:53:35Z</time>
      </trkpt>
      <trkpt lat="39.571307" lon="3.218273">
        <ele>80.708</ele>
        <time>2021-09-01T10:53:36Z</time>
      </trkpt>
      <trkpt lat="39.571254" lon="3.218302">
        <ele>80.842</ele>
        <time>2021-09-01T10:53:37Z</time>
      </trkpt>
      <trkpt lat="39.571202" lon="3.218332">
        <ele>80.946</ele>
        <time>2021-09-01T10:53:38Z</time>
      </trkpt>
      <trkpt lat="39.571153" lon="3.218375">
        <ele>81.161</ele>
        <time>2021-09-01T10:53:39Z</time>
      </trkpt>
      <trkpt lat="39.571057" lon="3.218428">
        <ele>81.465</ele>
        <time>2021-09-01T10:53:41Z</time>
      </trkpt>
      <trkpt lat="39.571004" lon="3.218462">
        <ele>81.784</ele>
        <time>2021-09-01T10:53:42Z</time>
      </trkpt>
      <trkpt lat="39.570949" lon="3.218494">
        <ele>81.969</ele>
        <time>2021-09-01T10:53:43Z</time>
      </trkpt>
      <trkpt lat="39.570893" lon="3.218512">
        <ele>82.016</ele>
        <time>2021-09-01T10:53:44Z</time>
      </trkpt>
      <trkpt lat="39.570840" lon="3.218545">
        <ele>82.056</ele>
        <time>2021-09-01T10:53:45Z</time>
      </trkpt>
      <trkpt lat="39.570790" lon="3.218569">
        <ele>82.016</ele>
        <time>2021-09-01T10:53:46Z</time>
      </trkpt>
      <trkpt lat="39.570743" lon="3.218594">
        <ele>81.976</ele>
        <time>2021-09-01T10:53:47Z</time>
      </trkpt>
      <trkpt lat="39.570685" lon="3.218620">
        <ele>81.913</ele>
        <time>2021-09-01T10:53:48Z</time>
      </trkpt>
      <trkpt lat="39.570633" lon="3.218648">
        <ele>81.908</ele>
        <time>2021-09-01T10:53:49Z</time>
      </trkpt>
      <trkpt lat="39.570587" lon="3.218679">
        <ele>81.949</ele>
        <time>2021-09-01T10:53:50Z</time>
      </trkpt>
      <trkpt lat="39.570542" lon="3.218708">
        <ele>82.023</ele>
        <time>2021-09-01T10:53:51Z</time>
      </trkpt>
      <trkpt lat="39.570512" lon="3.218752">
        <ele>82.058</ele>
        <time>2021-09-01T10:53:52Z</time>
      </trkpt>
      <trkpt lat="39.570427" lon="3.218815">
        <ele>82.252</ele>
        <time>2021-09-01T10:53:54Z</time>
      </trkpt>
      <trkpt lat="39.570359" lon="3.218840">
        <ele>82.411</ele>
        <time>2021-09-01T10:53:55Z</time>
      </trkpt>
      <trkpt lat="39.570298" lon="3.218880">
        <ele>82.696</ele>
        <time>2021-09-01T10:53:56Z</time>
      </trkpt>
      <trkpt lat="39.570252" lon="3.218888">
        <ele>82.843</ele>
        <time>2021-09-01T10:53:57Z</time>
      </trkpt>
      <trkpt lat="39.570203" lon="3.218912">
        <ele>82.873</ele>
        <time>2021-09-01T10:53:58Z</time>
      </trkpt>
      <trkpt lat="39.570161" lon="3.218932">
        <ele>82.753</ele>
        <time>2021-09-01T10:53:59Z</time>
      </trkpt>
      <trkpt lat="39.570092" lon="3.218948">
        <ele>82.504</ele>
        <time>2021-09-01T10:54:01Z</time>
      </trkpt>
      <trkpt lat="39.570028" lon="3.218912">
        <ele>82.414</ele>
        <time>2021-09-01T10:54:02Z</time>
      </trkpt>
      <trkpt lat="39.569975" lon="3.218885">
        <ele>82.408</ele>
        <time>2021-09-01T10:54:03Z</time>
      </trkpt>
      <trkpt lat="39.569926" lon="3.218876">
        <ele>82.453</ele>
        <time>2021-09-01T10:54:04Z</time>
      </trkpt>
      <trkpt lat="39.569875" lon="3.218899">
        <ele>82.427</ele>
        <time>2021-09-01T10:54:05Z</time>
      </trkpt>
      <trkpt lat="39.569823" lon="3.218925">
        <ele>82.512</ele>
        <time>2021-09-01T10:54:06Z</time>
      </trkpt>
      <trkpt lat="39.569778" lon="3.218973">
        <ele>82.746</ele>
        <time>2021-09-01T10:54:07Z</time>
      </trkpt>
      <trkpt lat="39.569741" lon="3.219027">
        <ele>82.895</ele>
        <time>2021-09-01T10:54:08Z</time>
      </trkpt>
      <trkpt lat="39.569706" lon="3.219093">
        <ele>82.960</ele>
        <time>2021-09-01T10:54:09Z</time>
      </trkpt>
      <trkpt lat="39.569702" lon="3.219154">
        <ele>83.047</ele>
        <time>2021-09-01T10:54:10Z</time>
      </trkpt>
      <trkpt lat="39.569636" lon="3.219197">
        <ele>83.357</ele>
        <time>2021-09-01T10:54:12Z</time>
      </trkpt>
      <trkpt lat="39.569574" lon="3.219237">
        <ele>83.635</ele>
        <time>2021-09-01T10:54:13Z</time>
      </trkpt>
      <trkpt lat="39.569523" lon="3.219260">
        <ele>83.986</ele>
        <time>2021-09-01T10:54:14Z</time>
      </trkpt>
      <trkpt lat="39.569475" lon="3.219287">
        <ele>84.114</ele>
        <time>2021-09-01T10:54:15Z</time>
      </trkpt>
      <trkpt lat="39.569425" lon="3.219314">
        <ele>84.208</ele>
        <time>2021-09-01T10:54:16Z</time>
      </trkpt>
      <trkpt lat="39.569373" lon="3.219335">
        <ele>84.291</ele>
        <time>2021-09-01T10:54:17Z</time>
      </trkpt>
      <trkpt lat="39.569328" lon="3.219362">
        <ele>84.295</ele>
        <time>2021-09-01T10:54:18Z</time>
      </trkpt>
      <trkpt lat="39.569280" lon="3.219394">
        <ele>84.270</ele>
        <time>2021-09-01T10:54:19Z</time>
      </trkpt>
      <trkpt lat="39.569234" lon="3.219436">
        <ele>84.344</ele>
        <time>2021-09-01T10:54:20Z</time>
      </trkpt>
      <trkpt lat="39.569183" lon="3.219466">
        <ele>84.573</ele>
        <time>2021-09-01T10:54:21Z</time>
      </trkpt>
      <trkpt lat="39.569131" lon="3.219506">
        <ele>84.648</ele>
        <time>2021-09-01T10:54:22Z</time>
      </trkpt>
      <trkpt lat="39.569084" lon="3.219531">
        <ele>84.855</ele>
        <time>2021-09-01T10:54:23Z</time>
      </trkpt>
      <trkpt lat="39.569035" lon="3.219544">
        <ele>85.225</ele>
        <time>2021-09-01T10:54:24Z</time>
      </trkpt>
      <trkpt lat="39.568983" lon="3.219574">
        <ele>85.329</ele>
        <time>2021-09-01T10:54:25Z</time>
      </trkpt>
      <trkpt lat="39.568934" lon="3.219597">
        <ele>85.400</ele>
        <time>2021-09-01T10:54:26Z</time>
      </trkpt>
      <trkpt lat="39.568887" lon="3.219620">
        <ele>85.520</ele>
        <time>2021-09-01T10:54:27Z</time>
      </trkpt>
      <trkpt lat="39.568831" lon="3.219653">
        <ele>85.508</ele>
        <time>2021-09-01T10:54:28Z</time>
      </trkpt>
      <trkpt lat="39.568777" lon="3.219672">
        <ele>85.280</ele>
        <time>2021-09-01T10:54:29Z</time>
      </trkpt>
      <trkpt lat="39.568727" lon="3.219689">
        <ele>85.044</ele>
        <time>2021-09-01T10:54:30Z</time>
      </trkpt>
      <trkpt lat="39.568683" lon="3.219714">
        <ele>84.819</ele>
        <time>2021-09-01T10:54:31Z</time>
      </trkpt>
      <trkpt lat="39.568631" lon="3.219740">
        <ele>84.573</ele>
        <time>2021-09-01T10:54:32Z</time>
      </trkpt>
      <trkpt lat="39.568583" lon="3.219770">
        <ele>84.452</ele>
        <time>2021-09-01T10:54:33Z</time>
      </trkpt>
      <trkpt lat="39.568536" lon="3.219791">
        <ele>84.487</ele>
        <time>2021-09-01T10:54:34Z</time>
      </trkpt>
      <trkpt lat="39.568473" lon="3.219824">
        <ele>84.534</ele>
        <time>2021-09-01T10:54:35Z</time>
      </trkpt>
      <trkpt lat="39.568428" lon="3.219850">
        <ele>84.794</ele>
        <time>2021-09-01T10:54:36Z</time>
      </trkpt>
      <trkpt lat="39.568379" lon="3.219870">
        <ele>85.071</ele>
        <time>2021-09-01T10:54:37Z</time>
      </trkpt>
      <trkpt lat="39.568336" lon="3.219899">
        <ele>85.241</ele>
        <time>2021-09-01T10:54:38Z</time>
      </trkpt>
      <trkpt lat="39.568289" lon="3.219926">
        <ele>85.415</ele>
        <time>2021-09-01T10:54:39Z</time>
      </trkpt>
      <trkpt lat="39.568246" lon="3.219953">
        <ele>85.408</ele>
        <time>2021-09-01T10:54:40Z</time>
      </trkpt>
      <trkpt lat="39.568195" lon="3.219982">
        <ele>85.525</ele>
        <time>2021-09-01T10:54:41Z</time>
      </trkpt>
      <trkpt lat="39.568150" lon="3.219994">
        <ele>85.599</ele>
        <time>2021-09-01T10:54:42Z</time>
      </trkpt>
      <trkpt lat="39.568096" lon="3.220020">
        <ele>85.344</ele>
        <time>2021-09-01T10:54:43Z</time>
      </trkpt>
      <trkpt lat="39.568001" lon="3.220066">
        <ele>85.388</ele>
        <time>2021-09-01T10:54:45Z</time>
      </trkpt>
      <trkpt lat="39.567953" lon="3.220096">
        <ele>85.467</ele>
        <time>2021-09-01T10:54:46Z</time>
      </trkpt>
      <trkpt lat="39.567895" lon="3.220124">
        <ele>85.842</ele>
        <time>2021-09-01T10:54:47Z</time>
      </trkpt>
      <trkpt lat="39.567811" lon="3.220158">
        <ele>86.249</ele>
        <time>2021-09-01T10:54:49Z</time>
      </trkpt>
      <trkpt lat="39.567761" lon="3.220180">
        <ele>86.499</ele>
        <time>2021-09-01T10:54:50Z</time>
      </trkpt>
      <trkpt lat="39.567706" lon="3.220219">
        <ele>86.562</ele>
        <time>2021-09-01T10:54:51Z</time>
      </trkpt>
      <trkpt lat="39.567656" lon="3.220237">
        <ele>86.683</ele>
        <time>2021-09-01T10:54:52Z</time>
      </trkpt>
      <trkpt lat="39.567601" lon="3.220265">
        <ele>86.611</ele>
        <time>2021-09-01T10:54:53Z</time>
      </trkpt>
      <trkpt lat="39.567550" lon="3.220286">
        <ele>86.608</ele>
        <time>2021-09-01T10:54:54Z</time>
      </trkpt>
      <trkpt lat="39.567499" lon="3.220323">
        <ele>86.464</ele>
        <time>2021-09-01T10:54:55Z</time>
      </trkpt>
      <trkpt lat="39.567447" lon="3.220376">
        <ele>86.158</ele>
        <time>2021-09-01T10:54:56Z</time>
      </trkpt>
      <trkpt lat="39.567390" lon="3.220397">
        <ele>85.813</ele>
        <time>2021-09-01T10:54:57Z</time>
      </trkpt>
      <trkpt lat="39.567336" lon="3.220419">
        <ele>85.727</ele>
        <time>2021-09-01T10:54:58Z</time>
      </trkpt>
      <trkpt lat="39.567285" lon="3.220445">
        <ele>85.736</ele>
        <time>2021-09-01T10:54:59Z</time>
      </trkpt>
      <trkpt lat="39.567236" lon="3.220485">
        <ele>85.961</ele>
        <time>2021-09-01T10:55:00Z</time>
      </trkpt>
      <trkpt lat="39.567181" lon="3.220512">
        <ele>86.048</ele>
        <time>2021-09-01T10:55:01Z</time>
      </trkpt>
      <trkpt lat="39.567123" lon="3.220531">
        <ele>86.248</ele>
        <time>2021-09-01T10:55:02Z</time>
      </trkpt>
      <trkpt lat="39.567073" lon="3.220565">
        <ele>86.443</ele>
        <time>2021-09-01T10:55:03Z</time>
      </trkpt>
      <trkpt lat="39.567022" lon="3.220600">
        <ele>86.564</ele>
        <time>2021-09-01T10:55:04Z</time>
      </trkpt>
      <trkpt lat="39.566966" lon="3.220636">
        <ele>86.510</ele>
        <time>2021-09-01T10:55:05Z</time>
      </trkpt>
      <trkpt lat="39.566915" lon="3.220653">
        <ele>86.508</ele>
        <time>2021-09-01T10:55:06Z</time>
      </trkpt>
      <trkpt lat="39.566858" lon="3.220680">
        <ele>86.562</ele>
        <time>2021-09-01T10:55:07Z</time>
      </trkpt>
      <trkpt lat="39.566807" lon="3.220712">
        <ele>86.546</ele>
        <time>2021-09-01T10:55:08Z</time>
      </trkpt>
      <trkpt lat="39.566761" lon="3.220745">
        <ele>86.411</ele>
        <time>2021-09-01T10:55:09Z</time>
      </trkpt>
      <trkpt lat="39.566707" lon="3.220779">
        <ele>86.335</ele>
        <time>2021-09-01T10:55:10Z</time>
      </trkpt>
      <trkpt lat="39.566654" lon="3.220801">
        <ele>86.144</ele>
        <time>2021-09-01T10:55:11Z</time>
      </trkpt>
      <trkpt lat="39.566607" lon="3.220809">
        <ele>86.189</ele>
        <time>2021-09-01T10:55:12Z</time>
      </trkpt>
      <trkpt lat="39.566558" lon="3.220838">
        <ele>86.096</ele>
        <time>2021-09-01T10:55:13Z</time>
      </trkpt>
      <trkpt lat="39.566487" lon="3.220887">
        <ele>86.076</ele>
        <time>2021-09-01T10:55:15Z</time>
      </trkpt>
      <trkpt lat="39.566418" lon="3.220930">
        <ele>85.955</ele>
        <time>2021-09-01T10:55:17Z</time>
      </trkpt>
      <trkpt lat="39.566367" lon="3.220954">
        <ele>85.907</ele>
        <time>2021-09-01T10:55:18Z</time>
      </trkpt>
      <trkpt lat="39.566292" lon="3.220993">
        <ele>85.717</ele>
        <time>2021-09-01T10:55:20Z</time>
      </trkpt>
      <trkpt lat="39.566248" lon="3.221022">
        <ele>85.608</ele>
        <time>2021-09-01T10:55:21Z</time>
      </trkpt>
      <trkpt lat="39.566191" lon="3.221060">
        <ele>85.673</ele>
        <time>2021-09-01T10:55:22Z</time>
      </trkpt>
      <trkpt lat="39.566132" lon="3.221093">
        <ele>85.797</ele>
        <time>2021-09-01T10:55:23Z</time>
      </trkpt>
      <trkpt lat="39.566072" lon="3.221118">
        <ele>85.822</ele>
        <time>2021-09-01T10:55:24Z</time>
      </trkpt>
      <trkpt lat="39.566027" lon="3.221155">
        <ele>85.816</ele>
        <time>2021-09-01T10:55:25Z</time>
      </trkpt>
      <trkpt lat="39.565979" lon="3.221182">
        <ele>85.985</ele>
        <time>2021-09-01T10:55:26Z</time>
      </trkpt>
      <trkpt lat="39.565920" lon="3.221212">
        <ele>85.990</ele>
        <time>2021-09-01T10:55:27Z</time>
      </trkpt>
      <trkpt lat="39.565865" lon="3.221232">
        <ele>86.077</ele>
        <time>2021-09-01T10:55:28Z</time>
      </trkpt>
      <trkpt lat="39.565812" lon="3.221224">
        <ele>86.137</ele>
        <time>2021-09-01T10:55:29Z</time>
      </trkpt>
      <trkpt lat="39.565755" lon="3.221203">
        <ele>86.336</ele>
        <time>2021-09-01T10:55:30Z</time>
      </trkpt>
      <trkpt lat="39.565716" lon="3.221142">
        <ele>86.417</ele>
        <time>2021-09-01T10:55:31Z</time>
      </trkpt>
      <trkpt lat="39.565691" lon="3.221072">
        <ele>86.618</ele>
        <time>2021-09-01T10:55:32Z</time>
      </trkpt>
      <trkpt lat="39.565668" lon="3.221016">
        <ele>86.808</ele>
        <time>2021-09-01T10:55:33Z</time>
      </trkpt>
      <trkpt lat="39.565653" lon="3.220951">
        <ele>86.991</ele>
        <time>2021-09-01T10:55:34Z</time>
      </trkpt>
      <trkpt lat="39.565633" lon="3.220882">
        <ele>86.915</ele>
        <time>2021-09-01T10:55:35Z</time>
      </trkpt>
      <trkpt lat="39.565619" lon="3.220812">
        <ele>86.850</ele>
        <time>2021-09-01T10:55:36Z</time>
      </trkpt>
      <trkpt lat="39.565597" lon="3.220744">
        <ele>86.774</ele>
        <time>2021-09-01T10:55:37Z</time>
      </trkpt>
      <trkpt lat="39.565576" lon="3.220670">
        <ele>86.633</ele>
        <time>2021-09-01T10:55:38Z</time>
      </trkpt>
      <trkpt lat="39.565551" lon="3.220603">
        <ele>86.488</ele>
        <time>2021-09-01T10:55:39Z</time>
      </trkpt>
      <trkpt lat="39.565527" lon="3.220532">
        <ele>86.435</ele>
        <time>2021-09-01T10:55:40Z</time>
      </trkpt>
      <trkpt lat="39.565507" lon="3.220460">
        <ele>86.475</ele>
        <time>2021-09-01T10:55:41Z</time>
      </trkpt>
      <trkpt lat="39.565477" lon="3.220395">
        <ele>86.324</ele>
        <time>2021-09-01T10:55:42Z</time>
      </trkpt>
      <trkpt lat="39.565455" lon="3.220331">
        <ele>86.304</ele>
        <time>2021-09-01T10:55:43Z</time>
      </trkpt>
      <trkpt lat="39.565422" lon="3.220248">
        <ele>86.314</ele>
        <time>2021-09-01T10:55:44Z</time>
      </trkpt>
      <trkpt lat="39.565397" lon="3.220175">
        <ele>86.208</ele>
        <time>2021-09-01T10:55:45Z</time>
      </trkpt>
      <trkpt lat="39.565368" lon="3.220098">
        <ele>86.220</ele>
        <time>2021-09-01T10:55:46Z</time>
      </trkpt>
      <trkpt lat="39.565344" lon="3.220024">
        <ele>86.254</ele>
        <time>2021-09-01T10:55:47Z</time>
      </trkpt>
      <trkpt lat="39.565311" lon="3.219947">
        <ele>86.149</ele>
        <time>2021-09-01T10:55:48Z</time>
      </trkpt>
      <trkpt lat="39.565290" lon="3.219869">
        <ele>86.193</ele>
        <time>2021-09-01T10:55:49Z</time>
      </trkpt>
      <trkpt lat="39.565263" lon="3.219787">
        <ele>86.062</ele>
        <time>2021-09-01T10:55:50Z</time>
      </trkpt>
      <trkpt lat="39.565239" lon="3.219701">
        <ele>86.027</ele>
        <time>2021-09-01T10:55:51Z</time>
      </trkpt>
      <trkpt lat="39.565210" lon="3.219625">
        <ele>86.044</ele>
        <time>2021-09-01T10:55:52Z</time>
      </trkpt>
      <trkpt lat="39.565185" lon="3.219546">
        <ele>85.954</ele>
        <time>2021-09-01T10:55:53Z</time>
      </trkpt>
      <trkpt lat="39.565153" lon="3.219474">
        <ele>85.824</ele>
        <time>2021-09-01T10:55:54Z</time>
      </trkpt>
      <trkpt lat="39.565131" lon="3.219392">
        <ele>85.704</ele>
        <time>2021-09-01T10:55:55Z</time>
      </trkpt>
      <trkpt lat="39.565100" lon="3.219315">
        <ele>85.614</ele>
        <time>2021-09-01T10:55:56Z</time>
      </trkpt>
      <trkpt lat="39.565073" lon="3.219242">
        <ele>85.508</ele>
        <time>2021-09-01T10:55:57Z</time>
      </trkpt>
      <trkpt lat="39.565044" lon="3.219169">
        <ele>85.550</ele>
        <time>2021-09-01T10:55:58Z</time>
      </trkpt>
      <trkpt lat="39.565016" lon="3.219091">
        <ele>85.454</ele>
        <time>2021-09-01T10:55:59Z</time>
      </trkpt>
      <trkpt lat="39.564994" lon="3.219006">
        <ele>85.499</ele>
        <time>2021-09-01T10:56:00Z</time>
      </trkpt>
      <trkpt lat="39.564961" lon="3.218934">
        <ele>85.463</ele>
        <time>2021-09-01T10:56:01Z</time>
      </trkpt>
      <trkpt lat="39.564933" lon="3.218856">
        <ele>85.422</ele>
        <time>2021-09-01T10:56:02Z</time>
      </trkpt>
      <trkpt lat="39.564909" lon="3.218782">
        <ele>85.447</ele>
        <time>2021-09-01T10:56:03Z</time>
      </trkpt>
      <trkpt lat="39.564882" lon="3.218698">
        <ele>85.334</ele>
        <time>2021-09-01T10:56:04Z</time>
      </trkpt>
      <trkpt lat="39.564861" lon="3.218620">
        <ele>85.394</ele>
        <time>2021-09-01T10:56:05Z</time>
      </trkpt>
      <trkpt lat="39.564830" lon="3.218537">
        <ele>85.219</ele>
        <time>2021-09-01T10:56:06Z</time>
      </trkpt>
      <trkpt lat="39.564798" lon="3.218459">
        <ele>85.109</ele>
        <time>2021-09-01T10:56:07Z</time>
      </trkpt>
      <trkpt lat="39.564772" lon="3.218383">
        <ele>85.119</ele>
        <time>2021-09-01T10:56:08Z</time>
      </trkpt>
      <trkpt lat="39.564742" lon="3.218301">
        <ele>85.208</ele>
        <time>2021-09-01T10:56:09Z</time>
      </trkpt>
      <trkpt lat="39.564712" lon="3.218225">
        <ele>85.359</ele>
        <time>2021-09-01T10:56:10Z</time>
      </trkpt>
      <trkpt lat="39.564684" lon="3.218143">
        <ele>85.323</ele>
        <time>2021-09-01T10:56:11Z</time>
      </trkpt>
      <trkpt lat="39.564668" lon="3.218060">
        <ele>85.298</ele>
        <time>2021-09-01T10:56:12Z</time>
      </trkpt>
      <trkpt lat="39.564633" lon="3.217986">
        <ele>85.152</ele>
        <time>2021-09-01T10:56:13Z</time>
      </trkpt>
      <trkpt lat="39.564599" lon="3.217910">
        <ele>84.951</ele>
        <time>2021-09-01T10:56:14Z</time>
      </trkpt>
      <trkpt lat="39.564574" lon="3.217831">
        <ele>84.716</ele>
        <time>2021-09-01T10:56:15Z</time>
      </trkpt>
      <trkpt lat="39.564550" lon="3.217743">
        <ele>84.543</ele>
        <time>2021-09-01T10:56:16Z</time>
      </trkpt>
      <trkpt lat="39.564527" lon="3.217653">
        <ele>84.453</ele>
        <time>2021-09-01T10:56:17Z</time>
      </trkpt>
      <trkpt lat="39.564513" lon="3.217571">
        <ele>84.279</ele>
        <time>2021-09-01T10:56:18Z</time>
      </trkpt>
      <trkpt lat="39.564501" lon="3.217490">
        <ele>84.205</ele>
        <time>2021-09-01T10:56:19Z</time>
      </trkpt>
      <trkpt lat="39.564491" lon="3.217406">
        <ele>84.125</ele>
        <time>2021-09-01T10:56:20Z</time>
      </trkpt>
      <trkpt lat="39.564475" lon="3.217328">
        <ele>84.008</ele>
        <time>2021-09-01T10:56:21Z</time>
      </trkpt>
      <trkpt lat="39.564458" lon="3.217241">
        <ele>84.025</ele>
        <time>2021-09-01T10:56:22Z</time>
      </trkpt>
      <trkpt lat="39.564450" lon="3.217165">
        <ele>84.069</ele>
        <time>2021-09-01T10:56:23Z</time>
      </trkpt>
      <trkpt lat="39.564454" lon="3.217088">
        <ele>84.174</ele>
        <time>2021-09-01T10:56:24Z</time>
      </trkpt>
      <trkpt lat="39.564449" lon="3.217012">
        <ele>84.378</ele>
        <time>2021-09-01T10:56:25Z</time>
      </trkpt>
      <trkpt lat="39.564454" lon="3.216939">
        <ele>84.427</ele>
        <time>2021-09-01T10:56:26Z</time>
      </trkpt>
      <trkpt lat="39.564456" lon="3.216867">
        <ele>84.422</ele>
        <time>2021-09-01T10:56:27Z</time>
      </trkpt>
      <trkpt lat="39.564447" lon="3.216796">
        <ele>84.339</ele>
        <time>2021-09-01T10:56:28Z</time>
      </trkpt>
      <trkpt lat="39.564448" lon="3.216718">
        <ele>84.239</ele>
        <time>2021-09-01T10:56:29Z</time>
      </trkpt>
      <trkpt lat="39.564441" lon="3.216647">
        <ele>84.024</ele>
        <time>2021-09-01T10:56:30Z</time>
      </trkpt>
      <trkpt lat="39.564439" lon="3.216576">
        <ele>83.804</ele>
        <time>2021-09-01T10:56:31Z</time>
      </trkpt>
      <trkpt lat="39.564412" lon="3.216509">
        <ele>83.814</ele>
        <time>2021-09-01T10:56:32Z</time>
      </trkpt>
      <trkpt lat="39.564363" lon="3.216453">
        <ele>83.808</ele>
        <time>2021-09-01T10:56:33Z</time>
      </trkpt>
      <trkpt lat="39.564289" lon="3.216422">
        <ele>83.820</ele>
        <time>2021-09-01T10:56:34Z</time>
      </trkpt>
      <trkpt lat="39.564235" lon="3.216418">
        <ele>83.914</ele>
        <time>2021-09-01T10:56:35Z</time>
      </trkpt>
      <trkpt lat="39.564169" lon="3.216430">
        <ele>83.949</ele>
        <time>2021-09-01T10:56:36Z</time>
      </trkpt>
      <trkpt lat="39.564113" lon="3.216430">
        <ele>84.093</ele>
        <time>2021-09-01T10:56:37Z</time>
      </trkpt>
      <trkpt lat="39.564060" lon="3.216419">
        <ele>84.232</ele>
        <time>2021-09-01T10:56:38Z</time>
      </trkpt>
      <trkpt lat="39.563996" lon="3.216385">
        <ele>84.647</ele>
        <time>2021-09-01T10:56:39Z</time>
      </trkpt>
      <trkpt lat="39.563949" lon="3.216328">
        <ele>84.784</ele>
        <time>2021-09-01T10:56:40Z</time>
      </trkpt>
      <trkpt lat="39.563920" lon="3.216258">
        <ele>84.764</ele>
        <time>2021-09-01T10:56:41Z</time>
      </trkpt>
      <trkpt lat="39.563904" lon="3.216198">
        <ele>84.726</ele>
        <time>2021-09-01T10:56:42Z</time>
      </trkpt>
      <trkpt lat="39.563882" lon="3.216134">
        <ele>84.547</ele>
        <time>2021-09-01T10:56:43Z</time>
      </trkpt>
      <trkpt lat="39.563854" lon="3.216058">
        <ele>84.011</ele>
        <time>2021-09-01T10:56:44Z</time>
      </trkpt>
      <trkpt lat="39.563827" lon="3.215994">
        <ele>83.908</ele>
        <time>2021-09-01T10:56:45Z</time>
      </trkpt>
      <trkpt lat="39.563807" lon="3.215936">
        <ele>83.840</ele>
        <time>2021-09-01T10:56:46Z</time>
      </trkpt>
      <trkpt lat="39.563789" lon="3.215865">
        <ele>83.854</ele>
        <time>2021-09-01T10:56:47Z</time>
      </trkpt>
      <trkpt lat="39.563758" lon="3.215802">
        <ele>83.959</ele>
        <time>2021-09-01T10:56:48Z</time>
      </trkpt>
      <trkpt lat="39.563731" lon="3.215728">
        <ele>84.093</ele>
        <time>2021-09-01T10:56:49Z</time>
      </trkpt>
      <trkpt lat="39.563709" lon="3.215664">
        <ele>84.172</ele>
        <time>2021-09-01T10:56:50Z</time>
      </trkpt>
      <trkpt lat="39.563696" lon="3.215607">
        <ele>84.267</ele>
        <time>2021-09-01T10:56:51Z</time>
      </trkpt>
      <trkpt lat="39.563675" lon="3.215537">
        <ele>84.474</ele>
        <time>2021-09-01T10:56:52Z</time>
      </trkpt>
      <trkpt lat="39.563635" lon="3.215462">
        <ele>84.444</ele>
        <time>2021-09-01T10:56:53Z</time>
      </trkpt>
      <trkpt lat="39.563609" lon="3.215402">
        <ele>84.577</ele>
        <time>2021-09-01T10:56:54Z</time>
      </trkpt>
      <trkpt lat="39.563583" lon="3.215331">
        <ele>84.661</ele>
        <time>2021-09-01T10:56:55Z</time>
      </trkpt>
      <trkpt lat="39.563558" lon="3.215263">
        <ele>84.727</ele>
        <time>2021-09-01T10:56:56Z</time>
      </trkpt>
      <trkpt lat="39.563534" lon="3.215189">
        <ele>84.708</ele>
        <time>2021-09-01T10:56:57Z</time>
      </trkpt>
      <trkpt lat="39.563506" lon="3.215124">
        <ele>84.785</ele>
        <time>2021-09-01T10:56:58Z</time>
      </trkpt>
      <trkpt lat="39.563481" lon="3.215049">
        <ele>84.799</ele>
        <time>2021-09-01T10:56:59Z</time>
      </trkpt>
      <trkpt lat="39.563456" lon="3.214975">
        <ele>84.684</ele>
        <time>2021-09-01T10:57:00Z</time>
      </trkpt>
      <trkpt lat="39.563435" lon="3.214912">
        <ele>84.418</ele>
        <time>2021-09-01T10:57:01Z</time>
      </trkpt>
      <trkpt lat="39.563416" lon="3.214830">
        <ele>84.497</ele>
        <time>2021-09-01T10:57:02Z</time>
      </trkpt>
      <trkpt lat="39.563375" lon="3.214758">
        <ele>84.512</ele>
        <time>2021-09-01T10:57:03Z</time>
      </trkpt>
      <trkpt lat="39.563349" lon="3.214687">
        <ele>84.659</ele>
        <time>2021-09-01T10:57:04Z</time>
      </trkpt>
      <trkpt lat="39.563327" lon="3.214609">
        <ele>84.889</ele>
        <time>2021-09-01T10:57:05Z</time>
      </trkpt>
      <trkpt lat="39.563315" lon="3.214535">
        <ele>85.169</ele>
        <time>2021-09-01T10:57:06Z</time>
      </trkpt>
      <trkpt lat="39.563287" lon="3.214457">
        <ele>85.204</ele>
        <time>2021-09-01T10:57:07Z</time>
      </trkpt>
      <trkpt lat="39.563256" lon="3.214384">
        <ele>85.324</ele>
        <time>2021-09-01T10:57:08Z</time>
      </trkpt>
      <trkpt lat="39.563233" lon="3.214325">
        <ele>85.308</ele>
        <time>2021-09-01T10:57:09Z</time>
      </trkpt>
      <trkpt lat="39.563210" lon="3.214244">
        <ele>85.364</ele>
        <time>2021-09-01T10:57:10Z</time>
      </trkpt>
      <trkpt lat="39.563185" lon="3.214162">
        <ele>85.318</ele>
        <time>2021-09-01T10:57:11Z</time>
      </trkpt>
      <trkpt lat="39.563166" lon="3.214091">
        <ele>85.423</ele>
        <time>2021-09-01T10:57:12Z</time>
      </trkpt>
      <trkpt lat="39.563136" lon="3.214008">
        <ele>85.547</ele>
        <time>2021-09-01T10:57:13Z</time>
      </trkpt>
      <trkpt lat="39.563115" lon="3.213934">
        <ele>85.586</ele>
        <time>2021-09-01T10:57:14Z</time>
      </trkpt>
      <trkpt lat="39.563082" lon="3.213863">
        <ele>85.611</ele>
        <time>2021-09-01T10:57:15Z</time>
      </trkpt>
      <trkpt lat="39.563051" lon="3.213789">
        <ele>85.848</ele>
        <time>2021-09-01T10:57:16Z</time>
      </trkpt>
      <trkpt lat="39.563029" lon="3.213730">
        <ele>85.938</ele>
        <time>2021-09-01T10:57:17Z</time>
      </trkpt>
      <trkpt lat="39.563002" lon="3.213647">
        <ele>86.071</ele>
        <time>2021-09-01T10:57:18Z</time>
      </trkpt>
      <trkpt lat="39.562966" lon="3.213574">
        <ele>86.141</ele>
        <time>2021-09-01T10:57:19Z</time>
      </trkpt>
      <trkpt lat="39.562943" lon="3.213514">
        <ele>86.115</ele>
        <time>2021-09-01T10:57:20Z</time>
      </trkpt>
      <trkpt lat="39.562918" lon="3.213440">
        <ele>86.108</ele>
        <time>2021-09-01T10:57:21Z</time>
      </trkpt>
      <trkpt lat="39.562892" lon="3.213373">
        <ele>86.155</ele>
        <time>2021-09-01T10:57:22Z</time>
      </trkpt>
      <trkpt lat="39.562868" lon="3.213314">
        <ele>86.189</ele>
        <time>2021-09-01T10:57:23Z</time>
      </trkpt>
      <trkpt lat="39.562843" lon="3.213259">
        <ele>86.334</ele>
        <time>2021-09-01T10:57:24Z</time>
      </trkpt>
      <trkpt lat="39.562807" lon="3.213194">
        <ele>86.698</ele>
        <time>2021-09-01T10:57:25Z</time>
      </trkpt>
      <trkpt lat="39.562745" lon="3.213101">
        <ele>87.347</ele>
        <time>2021-09-01T10:57:27Z</time>
      </trkpt>
      <trkpt lat="39.562735" lon="3.213028">
        <ele>87.962</ele>
        <time>2021-09-01T10:57:29Z</time>
      </trkpt>
      <trkpt lat="39.562713" lon="3.212952">
        <ele>88.429</ele>
        <time>2021-09-01T10:57:31Z</time>
      </trkpt>
      <trkpt lat="39.562702" lon="3.212886">
        <ele>88.519</ele>
        <time>2021-09-01T10:57:32Z</time>
      </trkpt>
      <trkpt lat="39.562655" lon="3.212789">
        <ele>88.728</ele>
        <time>2021-09-01T10:57:34Z</time>
      </trkpt>
      <trkpt lat="39.562607" lon="3.212770">
        <ele>88.889</ele>
        <time>2021-09-01T10:57:35Z</time>
      </trkpt>
      <trkpt lat="39.562569" lon="3.212733">
        <ele>88.917</ele>
        <time>2021-09-01T10:57:36Z</time>
      </trkpt>
      <trkpt lat="39.562513" lon="3.212743">
        <ele>89.108</ele>
        <time>2021-09-01T10:57:37Z</time>
      </trkpt>
      <trkpt lat="39.562453" lon="3.212773">
        <ele>89.270</ele>
        <time>2021-09-01T10:57:38Z</time>
      </trkpt>
      <trkpt lat="39.562410" lon="3.212812">
        <ele>89.444</ele>
        <time>2021-09-01T10:57:39Z</time>
      </trkpt>
      <trkpt lat="39.562382" lon="3.212870">
        <ele>89.529</ele>
        <time>2021-09-01T10:57:40Z</time>
      </trkpt>
      <trkpt lat="39.562360" lon="3.212934">
        <ele>89.733</ele>
        <time>2021-09-01T10:57:41Z</time>
      </trkpt>
      <trkpt lat="39.562329" lon="3.212998">
        <ele>89.862</ele>
        <time>2021-09-01T10:57:42Z</time>
      </trkpt>
      <trkpt lat="39.562294" lon="3.213049">
        <ele>90.097</ele>
        <time>2021-09-01T10:57:43Z</time>
      </trkpt>
      <trkpt lat="39.562250" lon="3.213085">
        <ele>90.194</ele>
        <time>2021-09-01T10:57:44Z</time>
      </trkpt>
      <trkpt lat="39.562195" lon="3.213111">
        <ele>90.254</ele>
        <time>2021-09-01T10:57:45Z</time>
      </trkpt>
      <trkpt lat="39.562140" lon="3.213152">
        <ele>90.398</ele>
        <time>2021-09-01T10:57:46Z</time>
      </trkpt>
      <trkpt lat="39.562086" lon="3.213185">
        <ele>90.315</ele>
        <time>2021-09-01T10:57:47Z</time>
      </trkpt>
      <trkpt lat="39.562025" lon="3.213214">
        <ele>90.326</ele>
        <time>2021-09-01T10:57:48Z</time>
      </trkpt>
      <trkpt lat="39.561969" lon="3.213255">
        <ele>90.308</ele>
        <time>2021-09-01T10:57:49Z</time>
      </trkpt>
      <trkpt lat="39.561920" lon="3.213293">
        <ele>90.477</ele>
        <time>2021-09-01T10:57:50Z</time>
      </trkpt>
      <trkpt lat="39.561869" lon="3.213335">
        <ele>90.411</ele>
        <time>2021-09-01T10:57:51Z</time>
      </trkpt>
      <trkpt lat="39.561807" lon="3.213370">
        <ele>90.576</ele>
        <time>2021-09-01T10:57:52Z</time>
      </trkpt>
      <trkpt lat="39.561750" lon="3.213409">
        <ele>90.610</ele>
        <time>2021-09-01T10:57:53Z</time>
      </trkpt>
      <trkpt lat="39.561692" lon="3.213448">
        <ele>90.649</ele>
        <time>2021-09-01T10:57:54Z</time>
      </trkpt>
      <trkpt lat="39.561637" lon="3.213486">
        <ele>90.714</ele>
        <time>2021-09-01T10:57:55Z</time>
      </trkpt>
      <trkpt lat="39.561581" lon="3.213526">
        <ele>90.781</ele>
        <time>2021-09-01T10:57:56Z</time>
      </trkpt>
      <trkpt lat="39.561527" lon="3.213564">
        <ele>90.751</ele>
        <time>2021-09-01T10:57:57Z</time>
      </trkpt>
      <trkpt lat="39.561479" lon="3.213611">
        <ele>90.711</ele>
        <time>2021-09-01T10:57:58Z</time>
      </trkpt>
      <trkpt lat="39.561430" lon="3.213644">
        <ele>90.721</ele>
        <time>2021-09-01T10:57:59Z</time>
      </trkpt>
      <trkpt lat="39.561385" lon="3.213680">
        <ele>90.603</ele>
        <time>2021-09-01T10:58:00Z</time>
      </trkpt>
      <trkpt lat="39.561334" lon="3.213720">
        <ele>90.508</ele>
        <time>2021-09-01T10:58:01Z</time>
      </trkpt>
      <trkpt lat="39.561290" lon="3.213757">
        <ele>90.449</ele>
        <time>2021-09-01T10:58:02Z</time>
      </trkpt>
      <trkpt lat="39.561239" lon="3.213798">
        <ele>90.373</ele>
        <time>2021-09-01T10:58:03Z</time>
      </trkpt>
      <trkpt lat="39.561189" lon="3.213838">
        <ele>90.318</ele>
        <time>2021-09-01T10:58:04Z</time>
      </trkpt>
      <trkpt lat="39.561148" lon="3.213877">
        <ele>90.332</ele>
        <time>2021-09-01T10:58:05Z</time>
      </trkpt>
      <trkpt lat="39.561094" lon="3.213918">
        <ele>90.351</ele>
        <time>2021-09-01T10:58:06Z</time>
      </trkpt>
      <trkpt lat="39.561053" lon="3.213962">
        <ele>90.396</ele>
        <time>2021-09-01T10:58:07Z</time>
      </trkpt>
      <trkpt lat="39.561009" lon="3.214000">
        <ele>90.393</ele>
        <time>2021-09-01T10:58:08Z</time>
      </trkpt>
      <trkpt lat="39.560958" lon="3.214045">
        <ele>90.273</ele>
        <time>2021-09-01T10:58:09Z</time>
      </trkpt>
      <trkpt lat="39.560912" lon="3.214084">
        <ele>90.241</ele>
        <time>2021-09-01T10:58:10Z</time>
      </trkpt>
      <trkpt lat="39.560868" lon="3.214121">
        <ele>90.381</ele>
        <time>2021-09-01T10:58:11Z</time>
      </trkpt>
      <trkpt lat="39.560819" lon="3.214163">
        <ele>90.309</ele>
        <time>2021-09-01T10:58:12Z</time>
      </trkpt>
      <trkpt lat="39.560781" lon="3.214203">
        <ele>90.508</ele>
        <time>2021-09-01T10:58:13Z</time>
      </trkpt>
      <trkpt lat="39.560739" lon="3.214246">
        <ele>90.782</ele>
        <time>2021-09-01T10:58:14Z</time>
      </trkpt>
      <trkpt lat="39.560697" lon="3.214285">
        <ele>90.926</ele>
        <time>2021-09-01T10:58:15Z</time>
      </trkpt>
      <trkpt lat="39.560653" lon="3.214326">
        <ele>91.111</ele>
        <time>2021-09-01T10:58:16Z</time>
      </trkpt>
      <trkpt lat="39.560607" lon="3.214368">
        <ele>91.315</ele>
        <time>2021-09-01T10:58:17Z</time>
      </trkpt>
      <trkpt lat="39.560570" lon="3.214403">
        <ele>91.584</ele>
        <time>2021-09-01T10:58:18Z</time>
      </trkpt>
      <trkpt lat="39.560534" lon="3.214446">
        <ele>91.689</ele>
        <time>2021-09-01T10:58:19Z</time>
      </trkpt>
      <trkpt lat="39.560493" lon="3.214486">
        <ele>91.856</ele>
        <time>2021-09-01T10:58:20Z</time>
      </trkpt>
      <trkpt lat="39.560448" lon="3.214525">
        <ele>91.996</ele>
        <time>2021-09-01T10:58:21Z</time>
      </trkpt>
      <trkpt lat="39.560381" lon="3.214590">
        <ele>92.214</ele>
        <time>2021-09-01T10:58:23Z</time>
      </trkpt>
      <trkpt lat="39.560323" lon="3.214667">
        <ele>92.454</ele>
        <time>2021-09-01T10:58:25Z</time>
      </trkpt>
      <trkpt lat="39.560284" lon="3.214704">
        <ele>92.509</ele>
        <time>2021-09-01T10:58:26Z</time>
      </trkpt>
      <trkpt lat="39.560226" lon="3.214778">
        <ele>92.608</ele>
        <time>2021-09-01T10:58:28Z</time>
      </trkpt>
      <trkpt lat="39.560194" lon="3.214824">
        <ele>92.799</ele>
        <time>2021-09-01T10:58:29Z</time>
      </trkpt>
      <trkpt lat="39.560134" lon="3.214903">
        <ele>93.043</ele>
        <time>2021-09-01T10:58:31Z</time>
      </trkpt>
      <trkpt lat="39.560080" lon="3.214984">
        <ele>93.328</ele>
        <time>2021-09-01T10:58:33Z</time>
      </trkpt>
      <trkpt lat="39.560032" lon="3.215066">
        <ele>93.612</ele>
        <time>2021-09-01T10:58:35Z</time>
      </trkpt>
      <trkpt lat="39.559974" lon="3.215141">
        <ele>93.911</ele>
        <time>2021-09-01T10:58:37Z</time>
      </trkpt>
      <trkpt lat="39.559931" lon="3.215215">
        <ele>94.476</ele>
        <time>2021-09-01T10:58:39Z</time>
      </trkpt>
      <trkpt lat="39.559882" lon="3.215289">
        <ele>94.793</ele>
        <time>2021-09-01T10:58:41Z</time>
      </trkpt>
      <trkpt lat="39.559846" lon="3.215348">
        <ele>95.173</ele>
        <time>2021-09-01T10:58:43Z</time>
      </trkpt>
      <trkpt lat="39.559791" lon="3.215430">
        <ele>95.417</ele>
        <time>2021-09-01T10:58:45Z</time>
      </trkpt>
      <trkpt lat="39.559746" lon="3.215504">
        <ele>95.587</ele>
        <time>2021-09-01T10:58:47Z</time>
      </trkpt>
      <trkpt lat="39.559691" lon="3.215578">
        <ele>95.515</ele>
        <time>2021-09-01T10:58:49Z</time>
      </trkpt>
      <trkpt lat="39.559644" lon="3.215650">
        <ele>95.508</ele>
        <time>2021-09-01T10:58:51Z</time>
      </trkpt>
      <trkpt lat="39.559595" lon="3.215720">
        <ele>95.639</ele>
        <time>2021-09-01T10:58:53Z</time>
      </trkpt>
      <trkpt lat="39.559553" lon="3.215791">
        <ele>95.833</ele>
        <time>2021-09-01T10:58:55Z</time>
      </trkpt>
      <trkpt lat="39.559502" lon="3.215860">
        <ele>95.818</ele>
        <time>2021-09-01T10:58:57Z</time>
      </trkpt>
      <trkpt lat="39.559453" lon="3.215938">
        <ele>96.092</ele>
        <time>2021-09-01T10:58:59Z</time>
      </trkpt>
      <trkpt lat="39.559406" lon="3.216010">
        <ele>96.421</ele>
        <time>2021-09-01T10:59:01Z</time>
      </trkpt>
      <trkpt lat="39.559351" lon="3.216087">
        <ele>96.796</ele>
        <time>2021-09-01T10:59:03Z</time>
      </trkpt>
      <trkpt lat="39.559307" lon="3.216164">
        <ele>97.063</ele>
        <time>2021-09-01T10:59:05Z</time>
      </trkpt>
      <trkpt lat="39.559260" lon="3.216245">
        <ele>97.263</ele>
        <time>2021-09-01T10:59:07Z</time>
      </trkpt>
      <trkpt lat="39.559206" lon="3.216321">
        <ele>97.439</ele>
        <time>2021-09-01T10:59:09Z</time>
      </trkpt>
      <trkpt lat="39.559158" lon="3.216401">
        <ele>97.501</ele>
        <time>2021-09-01T10:59:11Z</time>
      </trkpt>
      <trkpt lat="39.559103" lon="3.216476">
        <ele>97.921</ele>
        <time>2021-09-01T10:59:13Z</time>
      </trkpt>
      <trkpt lat="39.559069" lon="3.216559">
        <ele>98.208</ele>
        <time>2021-09-01T10:59:15Z</time>
      </trkpt>
      <trkpt lat="39.559041" lon="3.216606">
        <ele>98.561</ele>
        <time>2021-09-01T10:59:16Z</time>
      </trkpt>
      <trkpt lat="39.558991" lon="3.216695">
        <ele>98.735</ele>
        <time>2021-09-01T10:59:18Z</time>
      </trkpt>
      <trkpt lat="39.558938" lon="3.216784">
        <ele>98.930</ele>
        <time>2021-09-01T10:59:20Z</time>
      </trkpt>
      <trkpt lat="39.558910" lon="3.216834">
        <ele>99.024</ele>
        <time>2021-09-01T10:59:21Z</time>
      </trkpt>
      <trkpt lat="39.558866" lon="3.216929">
        <ele>99.263</ele>
        <time>2021-09-01T10:59:23Z</time>
      </trkpt>
      <trkpt lat="39.558835" lon="3.216976">
        <ele>99.438</ele>
        <time>2021-09-01T10:59:24Z</time>
      </trkpt>
      <trkpt lat="39.558782" lon="3.217068">
        <ele>99.435</ele>
        <time>2021-09-01T10:59:26Z</time>
      </trkpt>
      <trkpt lat="39.558736" lon="3.217168">
        <ele>99.495</ele>
        <time>2021-09-01T10:59:28Z</time>
      </trkpt>
      <trkpt lat="39.558703" lon="3.217218">
        <ele>99.481</ele>
        <time>2021-09-01T10:59:29Z</time>
      </trkpt>
      <trkpt lat="39.558679" lon="3.217274">
        <ele>99.461</ele>
        <time>2021-09-01T10:59:30Z</time>
      </trkpt>
      <trkpt lat="39.558649" lon="3.217323">
        <ele>99.617</ele>
        <time>2021-09-01T10:59:31Z</time>
      </trkpt>
      <trkpt lat="39.558622" lon="3.217375">
        <ele>99.708</ele>
        <time>2021-09-01T10:59:32Z</time>
      </trkpt>
      <trkpt lat="39.558600" lon="3.217435">
        <ele>99.916</ele>
        <time>2021-09-01T10:59:33Z</time>
      </trkpt>
      <trkpt lat="39.558567" lon="3.217488">
        <ele>99.920</ele>
        <time>2021-09-01T10:59:34Z</time>
      </trkpt>
      <trkpt lat="39.558534" lon="3.217537">
        <ele>100.125</ele>
        <time>2021-09-01T10:59:35Z</time>
      </trkpt>
      <trkpt lat="39.558508" lon="3.217595">
        <ele>100.249</ele>
        <time>2021-09-01T10:59:36Z</time>
      </trkpt>
      <trkpt lat="39.558448" lon="3.217699">
        <ele>100.328</ele>
        <time>2021-09-01T10:59:38Z</time>
      </trkpt>
      <trkpt lat="39.558421" lon="3.217747">
        <ele>100.413</ele>
        <time>2021-09-01T10:59:39Z</time>
      </trkpt>
      <trkpt lat="39.558387" lon="3.217797">
        <ele>100.430</ele>
        <time>2021-09-01T10:59:40Z</time>
      </trkpt>
      <trkpt lat="39.558352" lon="3.217860">
        <ele>100.560</ele>
        <time>2021-09-01T10:59:41Z</time>
      </trkpt>
      <trkpt lat="39.558322" lon="3.217910">
        <ele>100.789</ele>
        <time>2021-09-01T10:59:42Z</time>
      </trkpt>
      <trkpt lat="39.558292" lon="3.217962">
        <ele>100.706</ele>
        <time>2021-09-01T10:59:43Z</time>
      </trkpt>
      <trkpt lat="39.558263" lon="3.218014">
        <ele>100.726</ele>
        <time>2021-09-01T10:59:44Z</time>
      </trkpt>
      <trkpt lat="39.558225" lon="3.218075">
        <ele>100.708</ele>
        <time>2021-09-01T10:59:45Z</time>
      </trkpt>
      <trkpt lat="39.558188" lon="3.218123">
        <ele>100.766</ele>
        <time>2021-09-01T10:59:46Z</time>
      </trkpt>
      <trkpt lat="39.558122" lon="3.218211">
        <ele>100.860</ele>
        <time>2021-09-01T10:59:48Z</time>
      </trkpt>
      <trkpt lat="39.558087" lon="3.218253">
        <ele>100.945</ele>
        <time>2021-09-01T10:59:49Z</time>
      </trkpt>
      <trkpt lat="39.558016" lon="3.218329">
        <ele>100.999</ele>
        <time>2021-09-01T10:59:51Z</time>
      </trkpt>
      <trkpt lat="39.557973" lon="3.218372">
        <ele>100.728</ele>
        <time>2021-09-01T10:59:52Z</time>
      </trkpt>
      <trkpt lat="39.557940" lon="3.218411">
        <ele>100.443</ele>
        <time>2021-09-01T10:59:53Z</time>
      </trkpt>
      <trkpt lat="39.557908" lon="3.218458">
        <ele>100.170</ele>
        <time>2021-09-01T10:59:54Z</time>
      </trkpt>
      <trkpt lat="39.557869" lon="3.218494">
        <ele>99.920</ele>
        <time>2021-09-01T10:59:55Z</time>
      </trkpt>
      <trkpt lat="39.557826" lon="3.218533">
        <ele>99.933</ele>
        <time>2021-09-01T10:59:56Z</time>
      </trkpt>
      <trkpt lat="39.557788" lon="3.218568">
        <ele>99.923</ele>
        <time>2021-09-01T10:59:57Z</time>
      </trkpt>
      <trkpt lat="39.557746" lon="3.218605">
        <ele>99.915</ele>
        <time>2021-09-01T10:59:58Z</time>
      </trkpt>
      <trkpt lat="39.557709" lon="3.218647">
        <ele>100.208</ele>
        <time>2021-09-01T10:59:59Z</time>
      </trkpt>
      <trkpt lat="39.557639" lon="3.218699">
        <ele>100.521</ele>
        <time>2021-09-01T11:00:01Z</time>
      </trkpt>
      <trkpt lat="39.557591" lon="3.218729">
        <ele>100.735</ele>
        <time>2021-09-01T11:00:02Z</time>
      </trkpt>
      <trkpt lat="39.557549" lon="3.218766">
        <ele>100.910</ele>
        <time>2021-09-01T11:00:03Z</time>
      </trkpt>
      <trkpt lat="39.557506" lon="3.218796">
        <ele>101.034</ele>
        <time>2021-09-01T11:00:04Z</time>
      </trkpt>
      <trkpt lat="39.557465" lon="3.218829">
        <ele>101.233</ele>
        <time>2021-09-01T11:00:05Z</time>
      </trkpt>
      <trkpt lat="39.557381" lon="3.218878">
        <ele>101.858</ele>
        <time>2021-09-01T11:00:07Z</time>
      </trkpt>
      <trkpt lat="39.557340" lon="3.218908">
        <ele>102.195</ele>
        <time>2021-09-01T11:00:08Z</time>
      </trkpt>
      <trkpt lat="39.557257" lon="3.218952">
        <ele>102.445</ele>
        <time>2021-09-01T11:00:10Z</time>
      </trkpt>
      <trkpt lat="39.557213" lon="3.218974">
        <ele>102.466</ele>
        <time>2021-09-01T11:00:11Z</time>
      </trkpt>
      <trkpt lat="39.557136" lon="3.219023">
        <ele>102.529</ele>
        <time>2021-09-01T11:00:13Z</time>
      </trkpt>
      <trkpt lat="39.557061" lon="3.219058">
        <ele>102.621</ele>
        <time>2021-09-01T11:00:15Z</time>
      </trkpt>
      <trkpt lat="39.556990" lon="3.219098">
        <ele>103.008</ele>
        <time>2021-09-01T11:00:17Z</time>
      </trkpt>
      <trkpt lat="39.556919" lon="3.219126">
        <ele>103.414</ele>
        <time>2021-09-01T11:00:19Z</time>
      </trkpt>
      <trkpt lat="39.556852" lon="3.219170">
        <ele>103.888</ele>
        <time>2021-09-01T11:00:21Z</time>
      </trkpt>
      <trkpt lat="39.556788" lon="3.219207">
        <ele>104.043</ele>
        <time>2021-09-01T11:00:23Z</time>
      </trkpt>
      <trkpt lat="39.556717" lon="3.219241">
        <ele>104.457</ele>
        <time>2021-09-01T11:00:25Z</time>
      </trkpt>
      <trkpt lat="39.556654" lon="3.219280">
        <ele>104.576</ele>
        <time>2021-09-01T11:00:27Z</time>
      </trkpt>
      <trkpt lat="39.556592" lon="3.219313">
        <ele>104.841</ele>
        <time>2021-09-01T11:00:29Z</time>
      </trkpt>
      <trkpt lat="39.556533" lon="3.219353">
        <ele>105.238</ele>
        <time>2021-09-01T11:00:31Z</time>
      </trkpt>
      <trkpt lat="39.556474" lon="3.219397">
        <ele>105.638</ele>
        <time>2021-09-01T11:00:33Z</time>
      </trkpt>
      <trkpt lat="39.556415" lon="3.219436">
        <ele>106.488</ele>
        <time>2021-09-01T11:00:35Z</time>
      </trkpt>
      <trkpt lat="39.556359" lon="3.219483">
        <ele>106.924</ele>
        <time>2021-09-01T11:00:37Z</time>
      </trkpt>
      <trkpt lat="39.556303" lon="3.219523">
        <ele>107.226</ele>
        <time>2021-09-01T11:00:39Z</time>
      </trkpt>
      <trkpt lat="39.556252" lon="3.219569">
        <ele>107.408</ele>
        <time>2021-09-01T11:00:41Z</time>
      </trkpt>
      <trkpt lat="39.556197" lon="3.219612">
        <ele>107.766</ele>
        <time>2021-09-01T11:00:43Z</time>
      </trkpt>
      <trkpt lat="39.556137" lon="3.219659">
        <ele>108.130</ele>
        <time>2021-09-01T11:00:45Z</time>
      </trkpt>
      <trkpt lat="39.556087" lon="3.219701">
        <ele>108.535</ele>
        <time>2021-09-01T11:00:47Z</time>
      </trkpt>
      <trkpt lat="39.556028" lon="3.219755">
        <ele>108.969</ele>
        <time>2021-09-01T11:00:49Z</time>
      </trkpt>
      <trkpt lat="39.555971" lon="3.219810">
        <ele>109.098</ele>
        <time>2021-09-01T11:00:51Z</time>
      </trkpt>
      <trkpt lat="39.555914" lon="3.219865">
        <ele>109.163</ele>
        <time>2021-09-01T11:00:53Z</time>
      </trkpt>
      <trkpt lat="39.555861" lon="3.219910">
        <ele>109.660</ele>
        <time>2021-09-01T11:00:55Z</time>
      </trkpt>
      <trkpt lat="39.555808" lon="3.219969">
        <ele>110.070</ele>
        <time>2021-09-01T11:00:57Z</time>
      </trkpt>
      <trkpt lat="39.555759" lon="3.220015">
        <ele>110.644</ele>
        <time>2021-09-01T11:00:59Z</time>
      </trkpt>
      <trkpt lat="39.555716" lon="3.220064">
        <ele>111.105</ele>
        <time>2021-09-01T11:01:01Z</time>
      </trkpt>
      <trkpt lat="39.555652" lon="3.220125">
        <ele>111.615</ele>
        <time>2021-09-01T11:01:03Z</time>
      </trkpt>
      <trkpt lat="39.555613" lon="3.220180">
        <ele>112.008</ele>
        <time>2021-09-01T11:01:05Z</time>
      </trkpt>
      <trkpt lat="39.555561" lon="3.220239">
        <ele>112.012</ele>
        <time>2021-09-01T11:01:07Z</time>
      </trkpt>
      <trkpt lat="39.555511" lon="3.220301">
        <ele>112.426</ele>
        <time>2021-09-01T11:01:09Z</time>
      </trkpt>
      <trkpt lat="39.555465" lon="3.220361">
        <ele>112.611</ele>
        <time>2021-09-01T11:01:11Z</time>
      </trkpt>
      <trkpt lat="39.555420" lon="3.220425">
        <ele>112.855</ele>
        <time>2021-09-01T11:01:13Z</time>
      </trkpt>
      <trkpt lat="39.555375" lon="3.220496">
        <ele>113.024</ele>
        <time>2021-09-01T11:01:15Z</time>
      </trkpt>
      <trkpt lat="39.555339" lon="3.220551">
        <ele>113.439</ele>
        <time>2021-09-01T11:01:17Z</time>
      </trkpt>
      <trkpt lat="39.555312" lon="3.220598">
        <ele>113.676</ele>
        <time>2021-09-01T11:01:18Z</time>
      </trkpt>
      <trkpt lat="39.555274" lon="3.220666">
        <ele>113.886</ele>
        <time>2021-09-01T11:01:20Z</time>
      </trkpt>
      <trkpt lat="39.555235" lon="3.220737">
        <ele>114.239</ele>
        <time>2021-09-01T11:01:22Z</time>
      </trkpt>
      <trkpt lat="39.555197" lon="3.220817">
        <ele>114.301</ele>
        <time>2021-09-01T11:01:24Z</time>
      </trkpt>
      <trkpt lat="39.555155" lon="3.220896">
        <ele>114.421</ele>
        <time>2021-09-01T11:01:26Z</time>
      </trkpt>
      <trkpt lat="39.555111" lon="3.220975">
        <ele>114.708</ele>
        <time>2021-09-01T11:01:28Z</time>
      </trkpt>
      <trkpt lat="39.555067" lon="3.221055">
        <ele>115.051</ele>
        <time>2021-09-01T11:01:30Z</time>
      </trkpt>
      <trkpt lat="39.555026" lon="3.221148">
        <ele>115.155</ele>
        <time>2021-09-01T11:01:32Z</time>
      </trkpt>
      <trkpt lat="39.554981" lon="3.221230">
        <ele>115.250</ele>
        <time>2021-09-01T11:01:34Z</time>
      </trkpt>
      <trkpt lat="39.554939" lon="3.221325">
        <ele>115.154</ele>
        <time>2021-09-01T11:01:36Z</time>
      </trkpt>
      <trkpt lat="39.554889" lon="3.221408">
        <ele>114.963</ele>
        <time>2021-09-01T11:01:38Z</time>
      </trkpt>
      <trkpt lat="39.554832" lon="3.221506">
        <ele>114.828</ele>
        <time>2021-09-01T11:01:40Z</time>
      </trkpt>
      <trkpt lat="39.554784" lon="3.221605">
        <ele>114.795</ele>
        <time>2021-09-01T11:01:42Z</time>
      </trkpt>
      <trkpt lat="39.554755" lon="3.221651">
        <ele>114.745</ele>
        <time>2021-09-01T11:01:43Z</time>
      </trkpt>
      <trkpt lat="39.554729" lon="3.221703">
        <ele>114.682</ele>
        <time>2021-09-01T11:01:44Z</time>
      </trkpt>
      <trkpt lat="39.554694" lon="3.221758">
        <ele>114.543</ele>
        <time>2021-09-01T11:01:45Z</time>
      </trkpt>
      <trkpt lat="39.554660" lon="3.221814">
        <ele>114.517</ele>
        <time>2021-09-01T11:01:46Z</time>
      </trkpt>
      <trkpt lat="39.554622" lon="3.221874">
        <ele>114.508</ele>
        <time>2021-09-01T11:01:47Z</time>
      </trkpt>
      <trkpt lat="39.554577" lon="3.221924">
        <ele>114.576</ele>
        <time>2021-09-01T11:01:48Z</time>
      </trkpt>
      <trkpt lat="39.554543" lon="3.221994">
        <ele>114.520</ele>
        <time>2021-09-01T11:01:49Z</time>
      </trkpt>
      <trkpt lat="39.554497" lon="3.222051">
        <ele>114.565</ele>
        <time>2021-09-01T11:01:50Z</time>
      </trkpt>
      <trkpt lat="39.554448" lon="3.222111">
        <ele>114.569</ele>
        <time>2021-09-01T11:01:51Z</time>
      </trkpt>
      <trkpt lat="39.554401" lon="3.222170">
        <ele>114.498</ele>
        <time>2021-09-01T11:01:52Z</time>
      </trkpt>
      <trkpt lat="39.554353" lon="3.222229">
        <ele>114.333</ele>
        <time>2021-09-01T11:01:53Z</time>
      </trkpt>
      <trkpt lat="39.554306" lon="3.222287">
        <ele>114.280</ele>
        <time>2021-09-01T11:01:54Z</time>
      </trkpt>
      <trkpt lat="39.554258" lon="3.222341">
        <ele>114.220</ele>
        <time>2021-09-01T11:01:55Z</time>
      </trkpt>
      <trkpt lat="39.554207" lon="3.222409">
        <ele>114.244</ele>
        <time>2021-09-01T11:01:56Z</time>
      </trkpt>
      <trkpt lat="39.554151" lon="3.222469">
        <ele>114.105</ele>
        <time>2021-09-01T11:01:57Z</time>
      </trkpt>
      <trkpt lat="39.554103" lon="3.222514">
        <ele>113.915</ele>
        <time>2021-09-01T11:01:58Z</time>
      </trkpt>
      <trkpt lat="39.554053" lon="3.222569">
        <ele>113.908</ele>
        <time>2021-09-01T11:01:59Z</time>
      </trkpt>
      <trkpt lat="39.554003" lon="3.222620">
        <ele>113.882</ele>
        <time>2021-09-01T11:02:00Z</time>
      </trkpt>
      <trkpt lat="39.553952" lon="3.222672">
        <ele>113.546</ele>
        <time>2021-09-01T11:02:01Z</time>
      </trkpt>
      <trkpt lat="39.553898" lon="3.222728">
        <ele>113.471</ele>
        <time>2021-09-01T11:02:02Z</time>
      </trkpt>
      <trkpt lat="39.553854" lon="3.222774">
        <ele>113.225</ele>
        <time>2021-09-01T11:02:03Z</time>
      </trkpt>
      <trkpt lat="39.553807" lon="3.222820">
        <ele>113.084</ele>
        <time>2021-09-01T11:02:04Z</time>
      </trkpt>
      <trkpt lat="39.553759" lon="3.222867">
        <ele>113.089</ele>
        <time>2021-09-01T11:02:05Z</time>
      </trkpt>
      <trkpt lat="39.553710" lon="3.222916">
        <ele>113.166</ele>
        <time>2021-09-01T11:02:06Z</time>
      </trkpt>
      <trkpt lat="39.553666" lon="3.222960">
        <ele>113.236</ele>
        <time>2021-09-01T11:02:07Z</time>
      </trkpt>
      <trkpt lat="39.553627" lon="3.223008">
        <ele>113.428</ele>
        <time>2021-09-01T11:02:08Z</time>
      </trkpt>
      <trkpt lat="39.553584" lon="3.223053">
        <ele>113.689</ele>
        <time>2021-09-01T11:02:09Z</time>
      </trkpt>
      <trkpt lat="39.553546" lon="3.223099">
        <ele>113.617</ele>
        <time>2021-09-01T11:02:10Z</time>
      </trkpt>
      <trkpt lat="39.553499" lon="3.223148">
        <ele>113.508</ele>
        <time>2021-09-01T11:02:11Z</time>
      </trkpt>
      <trkpt lat="39.553455" lon="3.223194">
        <ele>113.370</ele>
        <time>2021-09-01T11:02:12Z</time>
      </trkpt>
      <trkpt lat="39.553412" lon="3.223237">
        <ele>113.314</ele>
        <time>2021-09-01T11:02:13Z</time>
      </trkpt>
      <trkpt lat="39.553368" lon="3.223285">
        <ele>113.369</ele>
        <time>2021-09-01T11:02:14Z</time>
      </trkpt>
      <trkpt lat="39.553322" lon="3.223332">
        <ele>113.313</ele>
        <time>2021-09-01T11:02:15Z</time>
      </trkpt>
      <trkpt lat="39.553278" lon="3.223378">
        <ele>113.422</ele>
        <time>2021-09-01T11:02:16Z</time>
      </trkpt>
      <trkpt lat="39.553236" lon="3.223428">
        <ele>113.557</ele>
        <time>2021-09-01T11:02:17Z</time>
      </trkpt>
      <trkpt lat="39.553195" lon="3.223468">
        <ele>113.714</ele>
        <time>2021-09-01T11:02:18Z</time>
      </trkpt>
      <trkpt lat="39.553152" lon="3.223516">
        <ele>113.944</ele>
        <time>2021-09-01T11:02:19Z</time>
      </trkpt>
      <trkpt lat="39.553107" lon="3.223562">
        <ele>114.183</ele>
        <time>2021-09-01T11:02:20Z</time>
      </trkpt>
      <trkpt lat="39.553064" lon="3.223609">
        <ele>114.125</ele>
        <time>2021-09-01T11:02:21Z</time>
      </trkpt>
      <trkpt lat="39.553019" lon="3.223653">
        <ele>114.317</ele>
        <time>2021-09-01T11:02:22Z</time>
      </trkpt>
      <trkpt lat="39.552982" lon="3.223696">
        <ele>114.308</ele>
        <time>2021-09-01T11:02:23Z</time>
      </trkpt>
      <trkpt lat="39.552939" lon="3.223740">
        <ele>114.416</ele>
        <time>2021-09-01T11:02:24Z</time>
      </trkpt>
      <trkpt lat="39.552891" lon="3.223793">
        <ele>114.560</ele>
        <time>2021-09-01T11:02:25Z</time>
      </trkpt>
      <trkpt lat="39.552851" lon="3.223835">
        <ele>114.765</ele>
        <time>2021-09-01T11:02:26Z</time>
      </trkpt>
      <trkpt lat="39.552804" lon="3.223883">
        <ele>114.829</ele>
        <time>2021-09-01T11:02:27Z</time>
      </trkpt>
      <trkpt lat="39.552760" lon="3.223929">
        <ele>114.858</ele>
        <time>2021-09-01T11:02:28Z</time>
      </trkpt>
      <trkpt lat="39.552716" lon="3.223976">
        <ele>114.853</ele>
        <time>2021-09-01T11:02:29Z</time>
      </trkpt>
      <trkpt lat="39.552675" lon="3.224015">
        <ele>114.640</ele>
        <time>2021-09-01T11:02:30Z</time>
      </trkpt>
      <trkpt lat="39.552636" lon="3.224057">
        <ele>114.450</ele>
        <time>2021-09-01T11:02:31Z</time>
      </trkpt>
      <trkpt lat="39.552594" lon="3.224102">
        <ele>114.255</ele>
        <time>2021-09-01T11:02:32Z</time>
      </trkpt>
      <trkpt lat="39.552551" lon="3.224149">
        <ele>114.207</ele>
        <time>2021-09-01T11:02:33Z</time>
      </trkpt>
      <trkpt lat="39.552508" lon="3.224196">
        <ele>114.117</ele>
        <time>2021-09-01T11:02:34Z</time>
      </trkpt>
      <trkpt lat="39.552460" lon="3.224244">
        <ele>113.908</ele>
        <time>2021-09-01T11:02:35Z</time>
      </trkpt>
      <trkpt lat="39.552412" lon="3.224289">
        <ele>113.683</ele>
        <time>2021-09-01T11:02:36Z</time>
      </trkpt>
      <trkpt lat="39.552368" lon="3.224339">
        <ele>113.447</ele>
        <time>2021-09-01T11:02:37Z</time>
      </trkpt>
      <trkpt lat="39.552324" lon="3.224389">
        <ele>113.222</ele>
        <time>2021-09-01T11:02:38Z</time>
      </trkpt>
      <trkpt lat="39.552273" lon="3.224439">
        <ele>113.286</ele>
        <time>2021-09-01T11:02:39Z</time>
      </trkpt>
      <trkpt lat="39.552225" lon="3.224489">
        <ele>113.225</ele>
        <time>2021-09-01T11:02:40Z</time>
      </trkpt>
      <trkpt lat="39.552174" lon="3.224542">
        <ele>113.320</ele>
        <time>2021-09-01T11:02:41Z</time>
      </trkpt>
      <trkpt lat="39.552121" lon="3.224592">
        <ele>113.367</ele>
        <time>2021-09-01T11:02:42Z</time>
      </trkpt>
      <trkpt lat="39.552073" lon="3.224644">
        <ele>113.317</ele>
        <time>2021-09-01T11:02:43Z</time>
      </trkpt>
      <trkpt lat="39.552022" lon="3.224696">
        <ele>113.135</ele>
        <time>2021-09-01T11:02:44Z</time>
      </trkpt>
      <trkpt lat="39.551977" lon="3.224748">
        <ele>113.086</ele>
        <time>2021-09-01T11:02:45Z</time>
      </trkpt>
      <trkpt lat="39.551928" lon="3.224802">
        <ele>112.814</ele>
        <time>2021-09-01T11:02:46Z</time>
      </trkpt>
      <trkpt lat="39.551882" lon="3.224850">
        <ele>112.808</ele>
        <time>2021-09-01T11:02:47Z</time>
      </trkpt>
      <trkpt lat="39.551829" lon="3.224899">
        <ele>112.851</ele>
        <time>2021-09-01T11:02:48Z</time>
      </trkpt>
      <trkpt lat="39.551782" lon="3.224949">
        <ele>112.735</ele>
        <time>2021-09-01T11:02:49Z</time>
      </trkpt>
      <trkpt lat="39.551734" lon="3.224995">
        <ele>112.840</ele>
        <time>2021-09-01T11:02:50Z</time>
      </trkpt>
      <trkpt lat="39.551687" lon="3.225044">
        <ele>112.924</ele>
        <time>2021-09-01T11:02:51Z</time>
      </trkpt>
      <trkpt lat="39.551644" lon="3.225086">
        <ele>113.083</ele>
        <time>2021-09-01T11:02:52Z</time>
      </trkpt>
      <trkpt lat="39.551598" lon="3.225128">
        <ele>113.328</ele>
        <time>2021-09-01T11:02:53Z</time>
      </trkpt>
      <trkpt lat="39.551555" lon="3.225172">
        <ele>113.375</ele>
        <time>2021-09-01T11:02:54Z</time>
      </trkpt>
      <trkpt lat="39.551510" lon="3.225218">
        <ele>113.385</ele>
        <time>2021-09-01T11:02:55Z</time>
      </trkpt>
      <trkpt lat="39.551468" lon="3.225260">
        <ele>113.252</ele>
        <time>2021-09-01T11:02:56Z</time>
      </trkpt>
      <trkpt lat="39.551426" lon="3.225301">
        <ele>113.253</ele>
        <time>2021-09-01T11:02:57Z</time>
      </trkpt>
      <trkpt lat="39.551381" lon="3.225335">
        <ele>113.208</ele>
        <time>2021-09-01T11:02:58Z</time>
      </trkpt>
      <trkpt lat="39.551335" lon="3.225373">
        <ele>113.208</ele>
        <time>2021-09-01T11:02:59Z</time>
      </trkpt>
      <trkpt lat="39.551295" lon="3.225415">
        <ele>113.233</ele>
        <time>2021-09-01T11:03:00Z</time>
      </trkpt>
      <trkpt lat="39.551254" lon="3.225450">
        <ele>113.267</ele>
        <time>2021-09-01T11:03:01Z</time>
      </trkpt>
      <trkpt lat="39.551210" lon="3.225490">
        <ele>113.042</ele>
        <time>2021-09-01T11:03:02Z</time>
      </trkpt>
      <trkpt lat="39.551167" lon="3.225527">
        <ele>112.746</ele>
        <time>2021-09-01T11:03:03Z</time>
      </trkpt>
      <trkpt lat="39.551126" lon="3.225559">
        <ele>112.535</ele>
        <time>2021-09-01T11:03:04Z</time>
      </trkpt>
      <trkpt lat="39.551082" lon="3.225598">
        <ele>112.580</ele>
        <time>2021-09-01T11:03:05Z</time>
      </trkpt>
      <trkpt lat="39.551037" lon="3.225632">
        <ele>112.587</ele>
        <time>2021-09-01T11:03:06Z</time>
      </trkpt>
      <trkpt lat="39.550991" lon="3.225667">
        <ele>112.897</ele>
        <time>2021-09-01T11:03:07Z</time>
      </trkpt>
      <trkpt lat="39.550951" lon="3.225704">
        <ele>113.094</ele>
        <time>2021-09-01T11:03:08Z</time>
      </trkpt>
      <trkpt lat="39.550908" lon="3.225735">
        <ele>113.057</ele>
        <time>2021-09-01T11:03:09Z</time>
      </trkpt>
      <trkpt lat="39.550866" lon="3.225772">
        <ele>113.122</ele>
        <time>2021-09-01T11:03:10Z</time>
      </trkpt>
      <trkpt lat="39.550823" lon="3.225804">
        <ele>113.108</ele>
        <time>2021-09-01T11:03:11Z</time>
      </trkpt>
      <trkpt lat="39.550783" lon="3.225836">
        <ele>113.157</ele>
        <time>2021-09-01T11:03:12Z</time>
      </trkpt>
      <trkpt lat="39.550736" lon="3.225867">
        <ele>113.271</ele>
        <time>2021-09-01T11:03:13Z</time>
      </trkpt>
      <trkpt lat="39.550695" lon="3.225896">
        <ele>113.416</ele>
        <time>2021-09-01T11:03:14Z</time>
      </trkpt>
      <trkpt lat="39.550656" lon="3.225934">
        <ele>113.670</ele>
        <time>2021-09-01T11:03:15Z</time>
      </trkpt>
      <trkpt lat="39.550609" lon="3.225960">
        <ele>113.879</ele>
        <time>2021-09-01T11:03:16Z</time>
      </trkpt>
      <trkpt lat="39.550566" lon="3.225985">
        <ele>113.874</ele>
        <time>2021-09-01T11:03:17Z</time>
      </trkpt>
      <trkpt lat="39.550525" lon="3.226014">
        <ele>113.791</ele>
        <time>2021-09-01T11:03:18Z</time>
      </trkpt>
      <trkpt lat="39.550483" lon="3.226046">
        <ele>113.761</ele>
        <time>2021-09-01T11:03:19Z</time>
      </trkpt>
      <trkpt lat="39.550441" lon="3.226074">
        <ele>113.729</ele>
        <time>2021-09-01T11:03:20Z</time>
      </trkpt>
      <trkpt lat="39.550395" lon="3.226102">
        <ele>113.800</ele>
        <time>2021-09-01T11:03:21Z</time>
      </trkpt>
      <trkpt lat="39.550350" lon="3.226134">
        <ele>113.920</ele>
        <time>2021-09-01T11:03:22Z</time>
      </trkpt>
      <trkpt lat="39.550265" lon="3.226187">
        <ele>114.108</ele>
        <time>2021-09-01T11:03:24Z</time>
      </trkpt>
      <trkpt lat="39.550221" lon="3.226214">
        <ele>114.130</ele>
        <time>2021-09-01T11:03:25Z</time>
      </trkpt>
      <trkpt lat="39.550179" lon="3.226243">
        <ele>114.124</ele>
        <time>2021-09-01T11:03:26Z</time>
      </trkpt>
      <trkpt lat="39.550133" lon="3.226268">
        <ele>114.029</ele>
        <time>2021-09-01T11:03:27Z</time>
      </trkpt>
      <trkpt lat="39.550054" lon="3.226321">
        <ele>113.983</ele>
        <time>2021-09-01T11:03:29Z</time>
      </trkpt>
      <trkpt lat="39.550012" lon="3.226348">
        <ele>113.952</ele>
        <time>2021-09-01T11:03:30Z</time>
      </trkpt>
      <trkpt lat="39.549961" lon="3.226377">
        <ele>113.957</ele>
        <time>2021-09-01T11:03:31Z</time>
      </trkpt>
      <trkpt lat="39.549916" lon="3.226402">
        <ele>114.044</ele>
        <time>2021-09-01T11:03:32Z</time>
      </trkpt>
      <trkpt lat="39.549867" lon="3.226431">
        <ele>114.134</ele>
        <time>2021-09-01T11:03:33Z</time>
      </trkpt>
      <trkpt lat="39.549823" lon="3.226459">
        <ele>114.233</ele>
        <time>2021-09-01T11:03:34Z</time>
      </trkpt>
      <trkpt lat="39.549778" lon="3.226485">
        <ele>114.423</ele>
        <time>2021-09-01T11:03:35Z</time>
      </trkpt>
      <trkpt lat="39.549729" lon="3.226511">
        <ele>114.515</ele>
        <time>2021-09-01T11:03:36Z</time>
      </trkpt>
      <trkpt lat="39.549683" lon="3.226539">
        <ele>114.608</ele>
        <time>2021-09-01T11:03:37Z</time>
      </trkpt>
      <trkpt lat="39.549638" lon="3.226563">
        <ele>114.821</ele>
        <time>2021-09-01T11:03:38Z</time>
      </trkpt>
      <trkpt lat="39.549592" lon="3.226592">
        <ele>114.915</ele>
        <time>2021-09-01T11:03:39Z</time>
      </trkpt>
      <trkpt lat="39.549543" lon="3.226615">
        <ele>114.940</ele>
        <time>2021-09-01T11:03:40Z</time>
      </trkpt>
      <trkpt lat="39.549500" lon="3.226646">
        <ele>115.134</ele>
        <time>2021-09-01T11:03:41Z</time>
      </trkpt>
      <trkpt lat="39.549411" lon="3.226694">
        <ele>115.393</ele>
        <time>2021-09-01T11:03:43Z</time>
      </trkpt>
      <trkpt lat="39.549364" lon="3.226720">
        <ele>115.338</ele>
        <time>2021-09-01T11:03:44Z</time>
      </trkpt>
      <trkpt lat="39.549321" lon="3.226747">
        <ele>115.345</ele>
        <time>2021-09-01T11:03:45Z</time>
      </trkpt>
      <trkpt lat="39.549273" lon="3.226771">
        <ele>115.395</ele>
        <time>2021-09-01T11:03:46Z</time>
      </trkpt>
      <trkpt lat="39.549228" lon="3.226799">
        <ele>115.253</ele>
        <time>2021-09-01T11:03:47Z</time>
      </trkpt>
      <trkpt lat="39.549187" lon="3.226824">
        <ele>115.204</ele>
        <time>2021-09-01T11:03:48Z</time>
      </trkpt>
      <trkpt lat="39.549137" lon="3.226852">
        <ele>115.214</ele>
        <time>2021-09-01T11:03:49Z</time>
      </trkpt>
      <trkpt lat="39.549086" lon="3.226880">
        <ele>115.408</ele>
        <time>2021-09-01T11:03:50Z</time>
      </trkpt>
      <trkpt lat="39.549039" lon="3.226908">
        <ele>115.643</ele>
        <time>2021-09-01T11:03:51Z</time>
      </trkpt>
      <trkpt lat="39.548992" lon="3.226935">
        <ele>115.867</ele>
        <time>2021-09-01T11:03:52Z</time>
      </trkpt>
      <trkpt lat="39.548943" lon="3.226963">
        <ele>115.912</ele>
        <time>2021-09-01T11:03:53Z</time>
      </trkpt>
      <trkpt lat="39.548896" lon="3.226990">
        <ele>115.936</ele>
        <time>2021-09-01T11:03:54Z</time>
      </trkpt>
      <trkpt lat="39.548851" lon="3.227022">
        <ele>115.945</ele>
        <time>2021-09-01T11:03:55Z</time>
      </trkpt>
      <trkpt lat="39.548803" lon="3.227045">
        <ele>115.940</ele>
        <time>2021-09-01T11:03:56Z</time>
      </trkpt>
      <trkpt lat="39.548753" lon="3.227073">
        <ele>115.917</ele>
        <time>2021-09-01T11:03:57Z</time>
      </trkpt>
      <trkpt lat="39.548704" lon="3.227102">
        <ele>115.947</ele>
        <time>2021-09-01T11:03:58Z</time>
      </trkpt>
      <trkpt lat="39.548657" lon="3.227130">
        <ele>116.125</ele>
        <time>2021-09-01T11:03:59Z</time>
      </trkpt>
      <trkpt lat="39.548611" lon="3.227161">
        <ele>116.426</ele>
        <time>2021-09-01T11:04:00Z</time>
      </trkpt>
      <trkpt lat="39.548561" lon="3.227186">
        <ele>116.608</ele>
        <time>2021-09-01T11:04:01Z</time>
      </trkpt>
      <trkpt lat="39.548513" lon="3.227216">
        <ele>116.608</ele>
        <time>2021-09-01T11:04:02Z</time>
      </trkpt>
      <trkpt lat="39.548463" lon="3.227245">
        <ele>116.650</ele>
        <time>2021-09-01T11:04:03Z</time>
      </trkpt>
      <trkpt lat="39.548414" lon="3.227274">
        <ele>116.314</ele>
        <time>2021-09-01T11:04:04Z</time>
      </trkpt>
      <trkpt lat="39.548362" lon="3.227304">
        <ele>116.189</ele>
        <time>2021-09-01T11:04:05Z</time>
      </trkpt>
      <trkpt lat="39.548309" lon="3.227338">
        <ele>115.983</ele>
        <time>2021-09-01T11:04:06Z</time>
      </trkpt>
      <trkpt lat="39.548253" lon="3.227367">
        <ele>115.932</ele>
        <time>2021-09-01T11:04:07Z</time>
      </trkpt>
      <trkpt lat="39.548195" lon="3.227394">
        <ele>115.957</ele>
        <time>2021-09-01T11:04:08Z</time>
      </trkpt>
      <trkpt lat="39.548142" lon="3.227427">
        <ele>115.834</ele>
        <time>2021-09-01T11:04:09Z</time>
      </trkpt>
      <trkpt lat="39.548086" lon="3.227457">
        <ele>115.734</ele>
        <time>2021-09-01T11:04:10Z</time>
      </trkpt>
      <trkpt lat="39.548031" lon="3.227490">
        <ele>115.799</ele>
        <time>2021-09-01T11:04:11Z</time>
      </trkpt>
      <trkpt lat="39.547972" lon="3.227514">
        <ele>115.607</ele>
        <time>2021-09-01T11:04:12Z</time>
      </trkpt>
      <trkpt lat="39.547915" lon="3.227541">
        <ele>115.627</ele>
        <time>2021-09-01T11:04:13Z</time>
      </trkpt>
      <trkpt lat="39.547860" lon="3.227565">
        <ele>115.708</ele>
        <time>2021-09-01T11:04:14Z</time>
      </trkpt>
      <trkpt lat="39.547800" lon="3.227595">
        <ele>115.757</ele>
        <time>2021-09-01T11:04:15Z</time>
      </trkpt>
      <trkpt lat="39.547742" lon="3.227618">
        <ele>115.791</ele>
        <time>2021-09-01T11:04:16Z</time>
      </trkpt>
      <trkpt lat="39.547681" lon="3.227642">
        <ele>115.686</ele>
        <time>2021-09-01T11:04:17Z</time>
      </trkpt>
      <trkpt lat="39.547623" lon="3.227660">
        <ele>115.590</ele>
        <time>2021-09-01T11:04:18Z</time>
      </trkpt>
      <trkpt lat="39.547561" lon="3.227687">
        <ele>115.569</ele>
        <time>2021-09-01T11:04:19Z</time>
      </trkpt>
      <trkpt lat="39.547498" lon="3.227704">
        <ele>115.624</ele>
        <time>2021-09-01T11:04:20Z</time>
      </trkpt>
      <trkpt lat="39.547439" lon="3.227721">
        <ele>115.781</ele>
        <time>2021-09-01T11:04:21Z</time>
      </trkpt>
      <trkpt lat="39.547377" lon="3.227734">
        <ele>115.971</ele>
        <time>2021-09-01T11:04:22Z</time>
      </trkpt>
      <trkpt lat="39.547316" lon="3.227749">
        <ele>116.249</ele>
        <time>2021-09-01T11:04:23Z</time>
      </trkpt>
      <trkpt lat="39.547260" lon="3.227767">
        <ele>116.502</ele>
        <time>2021-09-01T11:04:24Z</time>
      </trkpt>
      <trkpt lat="39.547199" lon="3.227779">
        <ele>116.622</ele>
        <time>2021-09-01T11:04:25Z</time>
      </trkpt>
      <trkpt lat="39.547141" lon="3.227792">
        <ele>116.708</ele>
        <time>2021-09-01T11:04:26Z</time>
      </trkpt>
      <trkpt lat="39.547087" lon="3.227805">
        <ele>116.832</ele>
        <time>2021-09-01T11:04:27Z</time>
      </trkpt>
      <trkpt lat="39.547035" lon="3.227820">
        <ele>116.866</ele>
        <time>2021-09-01T11:04:28Z</time>
      </trkpt>
      <trkpt lat="39.546980" lon="3.227830">
        <ele>116.891</ele>
        <time>2021-09-01T11:04:29Z</time>
      </trkpt>
      <trkpt lat="39.546926" lon="3.227842">
        <ele>116.935</ele>
        <time>2021-09-01T11:04:30Z</time>
      </trkpt>
      <trkpt lat="39.546871" lon="3.227847">
        <ele>117.014</ele>
        <time>2021-09-01T11:04:31Z</time>
      </trkpt>
      <trkpt lat="39.546818" lon="3.227854">
        <ele>117.029</ele>
        <time>2021-09-01T11:04:32Z</time>
      </trkpt>
      <trkpt lat="39.546771" lon="3.227862">
        <ele>117.186</ele>
        <time>2021-09-01T11:04:33Z</time>
      </trkpt>
      <trkpt lat="39.546716" lon="3.227871">
        <ele>117.256</ele>
        <time>2021-09-01T11:04:34Z</time>
      </trkpt>
      <trkpt lat="39.546670" lon="3.227884">
        <ele>117.368</ele>
        <time>2021-09-01T11:04:35Z</time>
      </trkpt>
      <trkpt lat="39.546617" lon="3.227895">
        <ele>117.742</ele>
        <time>2021-09-01T11:04:36Z</time>
      </trkpt>
      <trkpt lat="39.546566" lon="3.227899">
        <ele>118.326</ele>
        <time>2021-09-01T11:04:37Z</time>
      </trkpt>
      <trkpt lat="39.546516" lon="3.227908">
        <ele>118.608</ele>
        <time>2021-09-01T11:04:38Z</time>
      </trkpt>
      <trkpt lat="39.546467" lon="3.227917">
        <ele>118.854</ele>
        <time>2021-09-01T11:04:39Z</time>
      </trkpt>
      <trkpt lat="39.546409" lon="3.227925">
        <ele>119.098</ele>
        <time>2021-09-01T11:04:40Z</time>
      </trkpt>
      <trkpt lat="39.546315" lon="3.227947">
        <ele>119.073</ele>
        <time>2021-09-01T11:04:42Z</time>
      </trkpt>
      <trkpt lat="39.546262" lon="3.227955">
        <ele>119.027</ele>
        <time>2021-09-01T11:04:43Z</time>
      </trkpt>
      <trkpt lat="39.546216" lon="3.227960">
        <ele>119.186</ele>
        <time>2021-09-01T11:04:44Z</time>
      </trkpt>
      <trkpt lat="39.546168" lon="3.227969">
        <ele>119.111</ele>
        <time>2021-09-01T11:04:45Z</time>
      </trkpt>
      <trkpt lat="39.546119" lon="3.227979">
        <ele>119.398</ele>
        <time>2021-09-01T11:04:46Z</time>
      </trkpt>
      <trkpt lat="39.546073" lon="3.227992">
        <ele>119.458</ele>
        <time>2021-09-01T11:04:47Z</time>
      </trkpt>
      <trkpt lat="39.546024" lon="3.227997">
        <ele>119.476</ele>
        <time>2021-09-01T11:04:48Z</time>
      </trkpt>
      <trkpt lat="39.545930" lon="3.228015">
        <ele>119.790</ele>
        <time>2021-09-01T11:04:50Z</time>
      </trkpt>
      <trkpt lat="39.545839" lon="3.228030">
        <ele>120.019</ele>
        <time>2021-09-01T11:04:52Z</time>
      </trkpt>
      <trkpt lat="39.545791" lon="3.228035">
        <ele>120.208</ele>
        <time>2021-09-01T11:04:53Z</time>
      </trkpt>
      <trkpt lat="39.545742" lon="3.228043">
        <ele>120.795</ele>
        <time>2021-09-01T11:04:54Z</time>
      </trkpt>
      <trkpt lat="39.545660" lon="3.228053">
        <ele>121.079</ele>
        <time>2021-09-01T11:04:56Z</time>
      </trkpt>
      <trkpt lat="39.545529" lon="3.228096">
        <ele>120.964</ele>
        <time>2021-09-01T11:12:07Z</time>
      </trkpt>
      <trkpt lat="39.545474" lon="3.228096">
        <ele>120.988</ele>
        <time>2021-09-01T11:12:09Z</time>
      </trkpt>
      <trkpt lat="39.545400" lon="3.228118">
        <ele>121.167</ele>
        <time>2021-09-01T11:12:11Z</time>
      </trkpt>
      <trkpt lat="39.545319" lon="3.228133">
        <ele>121.362</ele>
        <time>2021-09-01T11:12:13Z</time>
      </trkpt>
      <trkpt lat="39.545237" lon="3.228156">
        <ele>121.659</ele>
        <time>2021-09-01T11:12:15Z</time>
      </trkpt>
      <trkpt lat="39.545193" lon="3.228170">
        <ele>121.749</ele>
        <time>2021-09-01T11:12:16Z</time>
      </trkpt>
      <trkpt lat="39.545114" lon="3.228198">
        <ele>121.938</ele>
        <time>2021-09-01T11:12:18Z</time>
      </trkpt>
      <trkpt lat="39.545028" lon="3.228223">
        <ele>122.070</ele>
        <time>2021-09-01T11:12:20Z</time>
      </trkpt>
      <trkpt lat="39.544947" lon="3.228260">
        <ele>122.217</ele>
        <time>2021-09-01T11:12:22Z</time>
      </trkpt>
      <trkpt lat="39.544863" lon="3.228293">
        <ele>122.608</ele>
        <time>2021-09-01T11:12:24Z</time>
      </trkpt>
      <trkpt lat="39.544785" lon="3.228325">
        <ele>122.941</ele>
        <time>2021-09-01T11:12:26Z</time>
      </trkpt>
      <trkpt lat="39.544707" lon="3.228362">
        <ele>123.235</ele>
        <time>2021-09-01T11:12:28Z</time>
      </trkpt>
      <trkpt lat="39.544633" lon="3.228392">
        <ele>123.590</ele>
        <time>2021-09-01T11:12:30Z</time>
      </trkpt>
      <trkpt lat="39.544562" lon="3.228426">
        <ele>123.954</ele>
        <time>2021-09-01T11:12:32Z</time>
      </trkpt>
      <trkpt lat="39.544489" lon="3.228461">
        <ele>124.493</ele>
        <time>2021-09-01T11:12:34Z</time>
      </trkpt>
      <trkpt lat="39.544420" lon="3.228501">
        <ele>125.048</ele>
        <time>2021-09-01T11:12:36Z</time>
      </trkpt>
      <trkpt lat="39.544350" lon="3.228539">
        <ele>125.425</ele>
        <time>2021-09-01T11:12:38Z</time>
      </trkpt>
      <trkpt lat="39.544282" lon="3.228579">
        <ele>125.945</ele>
        <time>2021-09-01T11:12:40Z</time>
      </trkpt>
      <trkpt lat="39.544208" lon="3.228624">
        <ele>126.393</ele>
        <time>2021-09-01T11:12:42Z</time>
      </trkpt>
      <trkpt lat="39.544128" lon="3.228671">
        <ele>126.765</ele>
        <time>2021-09-01T11:12:44Z</time>
      </trkpt>
      <trkpt lat="39.544052" lon="3.228721">
        <ele>126.921</ele>
        <time>2021-09-01T11:12:46Z</time>
      </trkpt>
      <trkpt lat="39.543977" lon="3.228769">
        <ele>127.108</ele>
        <time>2021-09-01T11:12:47Z</time>
      </trkpt>
      <trkpt lat="39.543937" lon="3.228796">
        <ele>127.357</ele>
        <time>2021-09-01T11:12:48Z</time>
      </trkpt>
      <trkpt lat="39.543898" lon="3.228825">
        <ele>127.641</ele>
        <time>2021-09-01T11:12:49Z</time>
      </trkpt>
      <trkpt lat="39.543821" lon="3.228884">
        <ele>127.886</ele>
        <time>2021-09-01T11:12:52Z</time>
      </trkpt>
      <trkpt lat="39.543783" lon="3.228916">
        <ele>127.930</ele>
        <time>2021-09-01T11:12:53Z</time>
      </trkpt>
      <trkpt lat="39.543743" lon="3.228948">
        <ele>128.049</ele>
        <time>2021-09-01T11:12:54Z</time>
      </trkpt>
      <trkpt lat="39.543705" lon="3.228980">
        <ele>128.264</ele>
        <time>2021-09-01T11:12:55Z</time>
      </trkpt>
      <trkpt lat="39.543666" lon="3.229015">
        <ele>128.581</ele>
        <time>2021-09-01T11:12:56Z</time>
      </trkpt>
      <trkpt lat="39.543625" lon="3.229045">
        <ele>128.831</ele>
        <time>2021-09-01T11:12:57Z</time>
      </trkpt>
      <trkpt lat="39.543584" lon="3.229081">
        <ele>129.018</ele>
        <time>2021-09-01T11:12:58Z</time>
      </trkpt>
      <trkpt lat="39.543544" lon="3.229117">
        <ele>129.298</ele>
        <time>2021-09-01T11:12:59Z</time>
      </trkpt>
      <trkpt lat="39.543501" lon="3.229156">
        <ele>129.217</ele>
        <time>2021-09-01T11:13:00Z</time>
      </trkpt>
      <trkpt lat="39.543463" lon="3.229197">
        <ele>129.108</ele>
        <time>2021-09-01T11:13:01Z</time>
      </trkpt>
      <trkpt lat="39.543425" lon="3.229242">
        <ele>128.879</ele>
        <time>2021-09-01T11:13:02Z</time>
      </trkpt>
      <trkpt lat="39.543386" lon="3.229282">
        <ele>128.583</ele>
        <time>2021-09-01T11:13:03Z</time>
      </trkpt>
      <trkpt lat="39.543340" lon="3.229323">
        <ele>128.438</ele>
        <time>2021-09-01T11:13:04Z</time>
      </trkpt>
      <trkpt lat="39.543296" lon="3.229367">
        <ele>128.132</ele>
        <time>2021-09-01T11:13:05Z</time>
      </trkpt>
      <trkpt lat="39.543253" lon="3.229414">
        <ele>128.141</ele>
        <time>2021-09-01T11:13:06Z</time>
      </trkpt>
      <trkpt lat="39.543210" lon="3.229462">
        <ele>128.166</ele>
        <time>2021-09-01T11:13:07Z</time>
      </trkpt>
      <trkpt lat="39.543164" lon="3.229511">
        <ele>127.933</ele>
        <time>2021-09-01T11:13:08Z</time>
      </trkpt>
      <trkpt lat="39.543116" lon="3.229566">
        <ele>127.853</ele>
        <time>2021-09-01T11:13:09Z</time>
      </trkpt>
      <trkpt lat="39.543063" lon="3.229623">
        <ele>127.674</ele>
        <time>2021-09-01T11:13:10Z</time>
      </trkpt>
      <trkpt lat="39.543008" lon="3.229680">
        <ele>127.356</ele>
        <time>2021-09-01T11:13:11Z</time>
      </trkpt>
      <trkpt lat="39.542954" lon="3.229748">
        <ele>126.821</ele>
        <time>2021-09-01T11:13:12Z</time>
      </trkpt>
      <trkpt lat="39.542905" lon="3.229817">
        <ele>126.508</ele>
        <time>2021-09-01T11:13:13Z</time>
      </trkpt>
      <trkpt lat="39.542851" lon="3.229885">
        <ele>126.385</ele>
        <time>2021-09-01T11:13:14Z</time>
      </trkpt>
      <trkpt lat="39.542796" lon="3.229957">
        <ele>126.029</ele>
        <time>2021-09-01T11:13:15Z</time>
      </trkpt>
      <trkpt lat="39.542741" lon="3.230037">
        <ele>125.624</ele>
        <time>2021-09-01T11:13:16Z</time>
      </trkpt>
      <trkpt lat="39.542690" lon="3.230120">
        <ele>125.448</ele>
        <time>2021-09-01T11:13:17Z</time>
      </trkpt>
      <trkpt lat="39.542634" lon="3.230204">
        <ele>125.137</ele>
        <time>2021-09-01T11:13:18Z</time>
      </trkpt>
      <trkpt lat="39.542576" lon="3.230282">
        <ele>124.632</ele>
        <time>2021-09-01T11:13:19Z</time>
      </trkpt>
      <trkpt lat="39.542525" lon="3.230373">
        <ele>124.339</ele>
        <time>2021-09-01T11:13:20Z</time>
      </trkpt>
      <trkpt lat="39.542475" lon="3.230457">
        <ele>123.929</ele>
        <time>2021-09-01T11:13:21Z</time>
      </trkpt>
      <trkpt lat="39.542422" lon="3.230541">
        <ele>123.676</ele>
        <time>2021-09-01T11:13:22Z</time>
      </trkpt>
      <trkpt lat="39.542366" lon="3.230632">
        <ele>123.490</ele>
        <time>2021-09-01T11:13:23Z</time>
      </trkpt>
      <trkpt lat="39.542313" lon="3.230716">
        <ele>123.219</ele>
        <time>2021-09-01T11:13:24Z</time>
      </trkpt>
      <trkpt lat="39.542261" lon="3.230801">
        <ele>123.108</ele>
        <time>2021-09-01T11:13:25Z</time>
      </trkpt>
      <trkpt lat="39.542215" lon="3.230880">
        <ele>123.015</ele>
        <time>2021-09-01T11:13:26Z</time>
      </trkpt>
      <trkpt lat="39.542157" lon="3.230970">
        <ele>122.899</ele>
        <time>2021-09-01T11:13:27Z</time>
      </trkpt>
      <trkpt lat="39.542108" lon="3.231053">
        <ele>122.654</ele>
        <time>2021-09-01T11:13:28Z</time>
      </trkpt>
      <trkpt lat="39.542055" lon="3.231138">
        <ele>122.378</ele>
        <time>2021-09-01T11:13:29Z</time>
      </trkpt>
      <trkpt lat="39.542006" lon="3.231217">
        <ele>122.227</ele>
        <time>2021-09-01T11:13:30Z</time>
      </trkpt>
      <trkpt lat="39.541957" lon="3.231297">
        <ele>122.112</ele>
        <time>2021-09-01T11:13:31Z</time>
      </trkpt>
      <trkpt lat="39.541909" lon="3.231372">
        <ele>122.089</ele>
        <time>2021-09-01T11:13:32Z</time>
      </trkpt>
      <trkpt lat="39.541862" lon="3.231450">
        <ele>121.979</ele>
        <time>2021-09-01T11:13:33Z</time>
      </trkpt>
      <trkpt lat="39.541818" lon="3.231522">
        <ele>121.926</ele>
        <time>2021-09-01T11:13:34Z</time>
      </trkpt>
      <trkpt lat="39.541775" lon="3.231593">
        <ele>121.947</ele>
        <time>2021-09-01T11:13:35Z</time>
      </trkpt>
      <trkpt lat="39.541733" lon="3.231662">
        <ele>122.011</ele>
        <time>2021-09-01T11:13:36Z</time>
      </trkpt>
      <trkpt lat="39.541693" lon="3.231730">
        <ele>121.908</ele>
        <time>2021-09-01T11:13:37Z</time>
      </trkpt>
      <trkpt lat="39.541654" lon="3.231796">
        <ele>122.050</ele>
        <time>2021-09-01T11:13:38Z</time>
      </trkpt>
      <trkpt lat="39.541615" lon="3.231862">
        <ele>121.984</ele>
        <time>2021-09-01T11:13:39Z</time>
      </trkpt>
      <trkpt lat="39.541583" lon="3.231921">
        <ele>121.999</ele>
        <time>2021-09-01T11:13:40Z</time>
      </trkpt>
      <trkpt lat="39.541549" lon="3.231983">
        <ele>121.833</ele>
        <time>2021-09-01T11:13:41Z</time>
      </trkpt>
      <trkpt lat="39.541515" lon="3.232045">
        <ele>121.742</ele>
        <time>2021-09-01T11:13:42Z</time>
      </trkpt>
      <trkpt lat="39.541485" lon="3.232099">
        <ele>121.757</ele>
        <time>2021-09-01T11:13:43Z</time>
      </trkpt>
      <trkpt lat="39.541455" lon="3.232148">
        <ele>121.524</ele>
        <time>2021-09-01T11:13:44Z</time>
      </trkpt>
      <trkpt lat="39.541419" lon="3.232196">
        <ele>121.564</ele>
        <time>2021-09-01T11:13:45Z</time>
      </trkpt>
      <trkpt lat="39.541359" lon="3.232282">
        <ele>121.825</ele>
        <time>2021-09-01T11:13:47Z</time>
      </trkpt>
      <trkpt lat="39.541328" lon="3.232325">
        <ele>121.826</ele>
        <time>2021-09-01T11:13:48Z</time>
      </trkpt>
      <trkpt lat="39.541296" lon="3.232371">
        <ele>121.808</ele>
        <time>2021-09-01T11:13:49Z</time>
      </trkpt>
      <trkpt lat="39.541266" lon="3.232419">
        <ele>121.908</ele>
        <time>2021-09-01T11:13:50Z</time>
      </trkpt>
      <trkpt lat="39.541233" lon="3.232469">
        <ele>122.010</ele>
        <time>2021-09-01T11:13:51Z</time>
      </trkpt>
      <trkpt lat="39.541201" lon="3.232519">
        <ele>122.044</ele>
        <time>2021-09-01T11:13:52Z</time>
      </trkpt>
      <trkpt lat="39.541172" lon="3.232572">
        <ele>122.079</ele>
        <time>2021-09-01T11:13:53Z</time>
      </trkpt>
      <trkpt lat="39.541144" lon="3.232628">
        <ele>122.123</ele>
        <time>2021-09-01T11:13:54Z</time>
      </trkpt>
      <trkpt lat="39.541112" lon="3.232679">
        <ele>122.252</ele>
        <time>2021-09-01T11:13:55Z</time>
      </trkpt>
      <trkpt lat="39.541078" lon="3.232730">
        <ele>122.377</ele>
        <time>2021-09-01T11:13:56Z</time>
      </trkpt>
      <trkpt lat="39.541046" lon="3.232782">
        <ele>122.544</ele>
        <time>2021-09-01T11:13:57Z</time>
      </trkpt>
      <trkpt lat="39.541015" lon="3.232832">
        <ele>122.724</ele>
        <time>2021-09-01T11:13:58Z</time>
      </trkpt>
      <trkpt lat="39.540985" lon="3.232879">
        <ele>122.852</ele>
        <time>2021-09-01T11:13:59Z</time>
      </trkpt>
      <trkpt lat="39.540938" lon="3.232948">
        <ele>122.853</ele>
        <time>2021-09-01T11:14:01Z</time>
      </trkpt>
      <trkpt lat="39.541038" lon="3.232938">
        <ele>122.208</ele>
        <time>2021-09-01T11:14:20Z</time>
      </trkpt>
      <trkpt lat="39.541075" lon="3.232893">
        <ele>122.308</ele>
        <time>2021-09-01T11:14:21Z</time>
      </trkpt>
      <trkpt lat="39.541123" lon="3.232793">
        <ele>122.393</ele>
        <time>2021-09-01T11:14:23Z</time>
      </trkpt>
      <trkpt lat="39.541153" lon="3.232743">
        <ele>122.417</ele>
        <time>2021-09-01T11:14:24Z</time>
      </trkpt>
      <trkpt lat="39.541183" lon="3.232688">
        <ele>122.532</ele>
        <time>2021-09-01T11:14:25Z</time>
      </trkpt>
      <trkpt lat="39.541215" lon="3.232635">
        <ele>122.526</ele>
        <time>2021-09-01T11:14:26Z</time>
      </trkpt>
      <trkpt lat="39.541250" lon="3.232578">
        <ele>122.415</ele>
        <time>2021-09-01T11:14:27Z</time>
      </trkpt>
      <trkpt lat="39.541287" lon="3.232520">
        <ele>122.330</ele>
        <time>2021-09-01T11:14:28Z</time>
      </trkpt>
      <trkpt lat="39.541325" lon="3.232460">
        <ele>122.167</ele>
        <time>2021-09-01T11:14:29Z</time>
      </trkpt>
      <trkpt lat="39.541365" lon="3.232397">
        <ele>122.017</ele>
        <time>2021-09-01T11:14:30Z</time>
      </trkpt>
      <trkpt lat="39.541403" lon="3.232333">
        <ele>121.836</ele>
        <time>2021-09-01T11:14:31Z</time>
      </trkpt>
      <trkpt lat="39.541442" lon="3.232270">
        <ele>121.817</ele>
        <time>2021-09-01T11:14:32Z</time>
      </trkpt>
      <trkpt lat="39.541482" lon="3.232205">
        <ele>121.718</ele>
        <time>2021-09-01T11:14:33Z</time>
      </trkpt>
      <trkpt lat="39.541525" lon="3.232139">
        <ele>121.608</ele>
        <time>2021-09-01T11:14:34Z</time>
      </trkpt>
      <trkpt lat="39.541563" lon="3.232073">
        <ele>121.481</ele>
        <time>2021-09-01T11:14:35Z</time>
      </trkpt>
      <trkpt lat="39.541597" lon="3.232006">
        <ele>121.385</ele>
        <time>2021-09-01T11:14:36Z</time>
      </trkpt>
      <trkpt lat="39.541629" lon="3.231937">
        <ele>121.180</ele>
        <time>2021-09-01T11:14:37Z</time>
      </trkpt>
      <trkpt lat="39.541674" lon="3.231869">
        <ele>121.164</ele>
        <time>2021-09-01T11:14:38Z</time>
      </trkpt>
      <trkpt lat="39.541719" lon="3.231801">
        <ele>121.123</ele>
        <time>2021-09-01T11:14:39Z</time>
      </trkpt>
      <trkpt lat="39.541755" lon="3.231726">
        <ele>121.198</ele>
        <time>2021-09-01T11:14:40Z</time>
      </trkpt>
      <trkpt lat="39.541791" lon="3.231654">
        <ele>121.165</ele>
        <time>2021-09-01T11:14:41Z</time>
      </trkpt>
      <trkpt lat="39.541822" lon="3.231590">
        <ele>121.165</ele>
        <time>2021-09-01T11:14:42Z</time>
      </trkpt>
      <trkpt lat="39.541839" lon="3.231528">
        <ele>120.917</ele>
        <time>2021-09-01T11:14:43Z</time>
      </trkpt>
      <trkpt lat="39.541800" lon="3.231434">
        <ele>120.787</ele>
        <time>2021-09-01T11:14:45Z</time>
      </trkpt>
      <trkpt lat="39.541718" lon="3.231418">
        <ele>120.615</ele>
        <time>2021-09-01T11:14:47Z</time>
      </trkpt>
      <trkpt lat="39.541648" lon="3.231389">
        <ele>120.608</ele>
        <time>2021-09-01T11:14:49Z</time>
      </trkpt>
      <trkpt lat="39.541575" lon="3.231358">
        <ele>120.779</ele>
        <time>2021-09-01T11:14:51Z</time>
      </trkpt>
      <trkpt lat="39.541502" lon="3.231350">
        <ele>120.793</ele>
        <time>2021-09-01T11:14:53Z</time>
      </trkpt>
      <trkpt lat="39.541431" lon="3.231373">
        <ele>120.768</ele>
        <time>2021-09-01T11:14:55Z</time>
      </trkpt>
      <trkpt lat="39.541359" lon="3.231361">
        <ele>120.722</ele>
        <time>2021-09-01T11:14:57Z</time>
      </trkpt>
      <trkpt lat="39.541290" lon="3.231332">
        <ele>120.651</ele>
        <time>2021-09-01T11:14:59Z</time>
      </trkpt>
      <trkpt lat="39.541213" lon="3.231279">
        <ele>120.686</ele>
        <time>2021-09-01T11:15:01Z</time>
      </trkpt>
      <trkpt lat="39.541132" lon="3.231243">
        <ele>120.863</ele>
        <time>2021-09-01T11:15:03Z</time>
      </trkpt>
      <trkpt lat="39.541043" lon="3.231213">
        <ele>120.913</ele>
        <time>2021-09-01T11:15:05Z</time>
      </trkpt>
      <trkpt lat="39.541001" lon="3.231183">
        <ele>121.035</ele>
        <time>2021-09-01T11:15:06Z</time>
      </trkpt>
      <trkpt lat="39.540922" lon="3.231148">
        <ele>121.086</ele>
        <time>2021-09-01T11:15:08Z</time>
      </trkpt>
      <trkpt lat="39.540843" lon="3.231114">
        <ele>121.114</ele>
        <time>2021-09-01T11:15:10Z</time>
      </trkpt>
      <trkpt lat="39.540765" lon="3.231069">
        <ele>121.108</ele>
        <time>2021-09-01T11:15:12Z</time>
      </trkpt>
      <trkpt lat="39.540683" lon="3.231030">
        <ele>121.121</ele>
        <time>2021-09-01T11:15:14Z</time>
      </trkpt>
      <trkpt lat="39.540639" lon="3.231008">
        <ele>121.145</ele>
        <time>2021-09-01T11:15:15Z</time>
      </trkpt>
      <trkpt lat="39.540595" lon="3.230987">
        <ele>121.250</ele>
        <time>2021-09-01T11:15:16Z</time>
      </trkpt>
      <trkpt lat="39.540547" lon="3.230976">
        <ele>121.224</ele>
        <time>2021-09-01T11:15:17Z</time>
      </trkpt>
      <trkpt lat="39.540466" lon="3.230929">
        <ele>121.223</ele>
        <time>2021-09-01T11:15:19Z</time>
      </trkpt>
      <trkpt lat="39.540382" lon="3.230897">
        <ele>121.278</ele>
        <time>2021-09-01T11:15:21Z</time>
      </trkpt>
      <trkpt lat="39.540312" lon="3.230881">
        <ele>121.325</ele>
        <time>2021-09-01T11:15:23Z</time>
      </trkpt>
      <trkpt lat="39.540255" lon="3.230869">
        <ele>121.335</ele>
        <time>2021-09-01T11:15:25Z</time>
      </trkpt>
      <trkpt lat="39.540184" lon="3.230843">
        <ele>121.365</ele>
        <time>2021-09-01T11:15:27Z</time>
      </trkpt>
      <trkpt lat="39.540116" lon="3.230802">
        <ele>121.468</ele>
        <time>2021-09-01T11:15:29Z</time>
      </trkpt>
      <trkpt lat="39.540047" lon="3.230749">
        <ele>121.514</ele>
        <time>2021-09-01T11:15:31Z</time>
      </trkpt>
      <trkpt lat="39.539969" lon="3.230698">
        <ele>121.708</ele>
        <time>2021-09-01T11:15:33Z</time>
      </trkpt>
      <trkpt lat="39.539926" lon="3.230673">
        <ele>121.774</ele>
        <time>2021-09-01T11:15:34Z</time>
      </trkpt>
      <trkpt lat="39.539853" lon="3.230612">
        <ele>121.928</ele>
        <time>2021-09-01T11:15:36Z</time>
      </trkpt>
      <trkpt lat="39.539779" lon="3.230560">
        <ele>122.273</ele>
        <time>2021-09-01T11:15:38Z</time>
      </trkpt>
      <trkpt lat="39.539693" lon="3.230534">
        <ele>122.757</ele>
        <time>2021-09-01T11:15:40Z</time>
      </trkpt>
      <trkpt lat="39.539610" lon="3.230545">
        <ele>123.146</ele>
        <time>2021-09-01T11:15:42Z</time>
      </trkpt>
      <trkpt lat="39.539533" lon="3.230555">
        <ele>123.661</ele>
        <time>2021-09-01T11:15:44Z</time>
      </trkpt>
      <trkpt lat="39.539462" lon="3.230585">
        <ele>123.988</ele>
        <time>2021-09-01T11:15:46Z</time>
      </trkpt>
      <trkpt lat="39.539389" lon="3.230608">
        <ele>124.148</ele>
        <time>2021-09-01T11:15:48Z</time>
      </trkpt>
      <trkpt lat="39.539317" lon="3.230653">
        <ele>124.491</ele>
        <time>2021-09-01T11:15:50Z</time>
      </trkpt>
      <trkpt lat="39.539247" lon="3.230697">
        <ele>124.781</ele>
        <time>2021-09-01T11:15:52Z</time>
      </trkpt>
      <trkpt lat="39.539176" lon="3.230734">
        <ele>124.919</ele>
        <time>2021-09-01T11:15:54Z</time>
      </trkpt>
      <trkpt lat="39.539106" lon="3.230774">
        <ele>125.208</ele>
        <time>2021-09-01T11:15:56Z</time>
      </trkpt>
      <trkpt lat="39.539035" lon="3.230814">
        <ele>125.417</ele>
        <time>2021-09-01T11:15:58Z</time>
      </trkpt>
      <trkpt lat="39.538968" lon="3.230862">
        <ele>125.571</ele>
        <time>2021-09-01T11:16:00Z</time>
      </trkpt>
      <trkpt lat="39.538905" lon="3.230893">
        <ele>125.556</ele>
        <time>2021-09-01T11:16:02Z</time>
      </trkpt>
      <trkpt lat="39.538833" lon="3.230921">
        <ele>125.660</ele>
        <time>2021-09-01T11:16:04Z</time>
      </trkpt>
      <trkpt lat="39.538758" lon="3.230957">
        <ele>125.839</ele>
        <time>2021-09-01T11:16:06Z</time>
      </trkpt>
      <trkpt lat="39.538681" lon="3.230996">
        <ele>126.224</ele>
        <time>2021-09-01T11:16:08Z</time>
      </trkpt>
      <trkpt lat="39.538604" lon="3.231034">
        <ele>126.681</ele>
        <time>2021-09-01T11:16:10Z</time>
      </trkpt>
      <trkpt lat="39.538531" lon="3.231067">
        <ele>127.081</ele>
        <time>2021-09-01T11:16:12Z</time>
      </trkpt>
      <trkpt lat="39.538453" lon="3.231106">
        <ele>127.189</ele>
        <time>2021-09-01T11:16:14Z</time>
      </trkpt>
      <trkpt lat="39.538375" lon="3.231143">
        <ele>127.206</ele>
        <time>2021-09-01T11:16:16Z</time>
      </trkpt>
      <trkpt lat="39.538296" lon="3.231180">
        <ele>127.326</ele>
        <time>2021-09-01T11:16:18Z</time>
      </trkpt>
      <trkpt lat="39.538219" lon="3.231221">
        <ele>127.408</ele>
        <time>2021-09-01T11:16:20Z</time>
      </trkpt>
      <trkpt lat="39.538148" lon="3.231260">
        <ele>127.546</ele>
        <time>2021-09-01T11:16:22Z</time>
      </trkpt>
      <trkpt lat="39.538066" lon="3.231294">
        <ele>127.650</ele>
        <time>2021-09-01T11:16:24Z</time>
      </trkpt>
      <trkpt lat="39.537984" lon="3.231329">
        <ele>127.685</ele>
        <time>2021-09-01T11:16:26Z</time>
      </trkpt>
      <trkpt lat="39.537907" lon="3.231366">
        <ele>127.859</ele>
        <time>2021-09-01T11:16:28Z</time>
      </trkpt>
      <trkpt lat="39.537827" lon="3.231398">
        <ele>128.078</ele>
        <time>2021-09-01T11:16:30Z</time>
      </trkpt>
      <trkpt lat="39.537754" lon="3.231419">
        <ele>128.363</ele>
        <time>2021-09-01T11:16:32Z</time>
      </trkpt>
      <trkpt lat="39.537679" lon="3.231439">
        <ele>128.620</ele>
        <time>2021-09-01T11:16:34Z</time>
      </trkpt>
      <trkpt lat="39.537634" lon="3.231454">
        <ele>128.860</ele>
        <time>2021-09-01T11:16:35Z</time>
      </trkpt>
      <trkpt lat="39.537551" lon="3.231491">
        <ele>128.862</ele>
        <time>2021-09-01T11:16:37Z</time>
      </trkpt>
      <trkpt lat="39.537464" lon="3.231517">
        <ele>128.683</ele>
        <time>2021-09-01T11:16:39Z</time>
      </trkpt>
      <trkpt lat="39.537414" lon="3.231530">
        <ele>128.611</ele>
        <time>2021-09-01T11:16:40Z</time>
      </trkpt>
      <trkpt lat="39.537372" lon="3.231550">
        <ele>128.508</ele>
        <time>2021-09-01T11:16:41Z</time>
      </trkpt>
      <trkpt lat="39.537289" lon="3.231584">
        <ele>128.664</ele>
        <time>2021-09-01T11:16:43Z</time>
      </trkpt>
      <trkpt lat="39.537207" lon="3.231635">
        <ele>128.898</ele>
        <time>2021-09-01T11:16:45Z</time>
      </trkpt>
      <trkpt lat="39.537163" lon="3.231660">
        <ele>129.083</ele>
        <time>2021-09-01T11:16:46Z</time>
      </trkpt>
      <trkpt lat="39.537082" lon="3.231703">
        <ele>129.357</ele>
        <time>2021-09-01T11:16:48Z</time>
      </trkpt>
      <trkpt lat="39.537037" lon="3.231722">
        <ele>129.396</ele>
        <time>2021-09-01T11:16:49Z</time>
      </trkpt>
      <trkpt lat="39.536955" lon="3.231763">
        <ele>129.561</ele>
        <time>2021-09-01T11:16:51Z</time>
      </trkpt>
      <trkpt lat="39.536871" lon="3.231802">
        <ele>129.818</ele>
        <time>2021-09-01T11:16:53Z</time>
      </trkpt>
      <trkpt lat="39.536797" lon="3.231844">
        <ele>129.978</ele>
        <time>2021-09-01T11:16:55Z</time>
      </trkpt>
      <trkpt lat="39.536724" lon="3.231888">
        <ele>130.019</ele>
        <time>2021-09-01T11:16:57Z</time>
      </trkpt>
      <trkpt lat="39.536647" lon="3.231926">
        <ele>130.109</ele>
        <time>2021-09-01T11:16:59Z</time>
      </trkpt>
      <trkpt lat="39.536571" lon="3.231958">
        <ele>130.519</ele>
        <time>2021-09-01T11:17:01Z</time>
      </trkpt>
      <trkpt lat="39.536493" lon="3.231975">
        <ele>130.708</ele>
        <time>2021-09-01T11:17:03Z</time>
      </trkpt>
      <trkpt lat="39.536410" lon="3.231987">
        <ele>130.969</ele>
        <time>2021-09-01T11:17:05Z</time>
      </trkpt>
      <trkpt lat="39.536365" lon="3.231994">
        <ele>130.953</ele>
        <time>2021-09-01T11:17:06Z</time>
      </trkpt>
      <trkpt lat="39.536319" lon="3.231999">
        <ele>131.068</ele>
        <time>2021-09-01T11:17:07Z</time>
      </trkpt>
      <trkpt lat="39.536232" lon="3.232015">
        <ele>131.042</ele>
        <time>2021-09-01T11:17:09Z</time>
      </trkpt>
      <trkpt lat="39.536148" lon="3.232032">
        <ele>131.161</ele>
        <time>2021-09-01T11:17:11Z</time>
      </trkpt>
      <trkpt lat="39.536103" lon="3.232040">
        <ele>131.186</ele>
        <time>2021-09-01T11:17:12Z</time>
      </trkpt>
      <trkpt lat="39.536021" lon="3.232061">
        <ele>131.223</ele>
        <time>2021-09-01T11:17:14Z</time>
      </trkpt>
      <trkpt lat="39.535934" lon="3.232068">
        <ele>131.483</ele>
        <time>2021-09-01T11:17:16Z</time>
      </trkpt>
      <trkpt lat="39.535844" lon="3.232078">
        <ele>131.559</ele>
        <time>2021-09-01T11:17:18Z</time>
      </trkpt>
      <trkpt lat="39.535762" lon="3.232095">
        <ele>131.703</ele>
        <time>2021-09-01T11:17:20Z</time>
      </trkpt>
      <trkpt lat="39.535676" lon="3.232110">
        <ele>131.923</ele>
        <time>2021-09-01T11:17:22Z</time>
      </trkpt>
      <trkpt lat="39.535595" lon="3.232129">
        <ele>132.108</ele>
        <time>2021-09-01T11:17:24Z</time>
      </trkpt>
      <trkpt lat="39.535516" lon="3.232139">
        <ele>132.413</ele>
        <time>2021-09-01T11:17:26Z</time>
      </trkpt>
      <trkpt lat="39.535438" lon="3.232157">
        <ele>132.817</ele>
        <time>2021-09-01T11:17:28Z</time>
      </trkpt>
      <trkpt lat="39.535363" lon="3.232178">
        <ele>133.322</ele>
        <time>2021-09-01T11:17:30Z</time>
      </trkpt>
      <trkpt lat="39.535309" lon="3.232215">
        <ele>133.836</ele>
        <time>2021-09-01T11:17:32Z</time>
      </trkpt>
      <trkpt lat="39.535251" lon="3.232264">
        <ele>134.115</ele>
        <time>2021-09-01T11:17:34Z</time>
      </trkpt>
      <trkpt lat="39.535194" lon="3.232303">
        <ele>134.290</ele>
        <time>2021-09-01T11:17:36Z</time>
      </trkpt>
      <trkpt lat="39.535134" lon="3.232340">
        <ele>134.627</ele>
        <time>2021-09-01T11:17:38Z</time>
      </trkpt>
      <trkpt lat="39.535081" lon="3.232382">
        <ele>135.087</ele>
        <time>2021-09-01T11:17:40Z</time>
      </trkpt>
      <trkpt lat="39.535021" lon="3.232429">
        <ele>135.647</ele>
        <time>2021-09-01T11:17:42Z</time>
      </trkpt>
      <trkpt lat="39.534962" lon="3.232470">
        <ele>136.029</ele>
        <time>2021-09-01T11:17:44Z</time>
      </trkpt>
      <trkpt lat="39.534902" lon="3.232507">
        <ele>136.221</ele>
        <time>2021-09-01T11:17:46Z</time>
      </trkpt>
      <trkpt lat="39.534848" lon="3.232548">
        <ele>136.608</ele>
        <time>2021-09-01T11:17:48Z</time>
      </trkpt>
      <trkpt lat="39.534793" lon="3.232568">
        <ele>137.072</ele>
        <time>2021-09-01T11:17:50Z</time>
      </trkpt>
      <trkpt lat="39.534744" lon="3.232582">
        <ele>137.416</ele>
        <time>2021-09-01T11:17:52Z</time>
      </trkpt>
      <trkpt lat="39.534689" lon="3.232596">
        <ele>137.821</ele>
        <time>2021-09-01T11:17:54Z</time>
      </trkpt>
      <trkpt lat="39.534636" lon="3.232609">
        <ele>138.325</ele>
        <time>2021-09-01T11:17:56Z</time>
      </trkpt>
      <trkpt lat="39.534584" lon="3.232618">
        <ele>138.884</ele>
        <time>2021-09-01T11:17:58Z</time>
      </trkpt>
      <trkpt lat="39.534530" lon="3.232626">
        <ele>139.269</ele>
        <time>2021-09-01T11:18:00Z</time>
      </trkpt>
      <trkpt lat="39.534480" lon="3.232645">
        <ele>139.776</ele>
        <time>2021-09-01T11:18:02Z</time>
      </trkpt>
      <trkpt lat="39.534436" lon="3.232660">
        <ele>140.166</ele>
        <time>2021-09-01T11:18:04Z</time>
      </trkpt>
      <trkpt lat="39.534384" lon="3.232686">
        <ele>140.472</ele>
        <time>2021-09-01T11:18:06Z</time>
      </trkpt>
      <trkpt lat="39.534326" lon="3.232715">
        <ele>140.713</ele>
        <time>2021-09-01T11:18:08Z</time>
      </trkpt>
      <trkpt lat="39.534265" lon="3.232740">
        <ele>140.914</ele>
        <time>2021-09-01T11:18:10Z</time>
      </trkpt>
      <trkpt lat="39.534203" lon="3.232765">
        <ele>141.008</ele>
        <time>2021-09-01T11:18:12Z</time>
      </trkpt>
      <trkpt lat="39.534138" lon="3.232789">
        <ele>141.145</ele>
        <time>2021-09-01T11:18:14Z</time>
      </trkpt>
      <trkpt lat="39.534071" lon="3.232815">
        <ele>141.239</ele>
        <time>2021-09-01T11:18:16Z</time>
      </trkpt>
      <trkpt lat="39.534006" lon="3.232839">
        <ele>141.324</ele>
        <time>2021-09-01T11:18:18Z</time>
      </trkpt>
      <trkpt lat="39.533942" lon="3.232860">
        <ele>141.598</ele>
        <time>2021-09-01T11:18:20Z</time>
      </trkpt>
      <trkpt lat="39.533877" lon="3.232875">
        <ele>141.797</ele>
        <time>2021-09-01T11:18:22Z</time>
      </trkpt>
      <trkpt lat="39.533816" lon="3.232893">
        <ele>142.052</ele>
        <time>2021-09-01T11:18:24Z</time>
      </trkpt>
      <trkpt lat="39.533747" lon="3.232903">
        <ele>142.229</ele>
        <time>2021-09-01T11:18:26Z</time>
      </trkpt>
      <trkpt lat="39.533673" lon="3.232911">
        <ele>142.319</ele>
        <time>2021-09-01T11:18:28Z</time>
      </trkpt>
      <trkpt lat="39.533596" lon="3.232923">
        <ele>142.527</ele>
        <time>2021-09-01T11:18:30Z</time>
      </trkpt>
      <trkpt lat="39.533521" lon="3.232951">
        <ele>142.668</ele>
        <time>2021-09-01T11:18:32Z</time>
      </trkpt>
      <trkpt lat="39.533445" lon="3.232958">
        <ele>142.614</ele>
        <time>2021-09-01T11:18:34Z</time>
      </trkpt>
      <trkpt lat="39.533372" lon="3.232966">
        <ele>142.908</ele>
        <time>2021-09-01T11:18:36Z</time>
      </trkpt>
      <trkpt lat="39.533305" lon="3.232974">
        <ele>143.440</ele>
        <time>2021-09-01T11:18:38Z</time>
      </trkpt>
      <trkpt lat="39.533235" lon="3.232984">
        <ele>143.824</ele>
        <time>2021-09-01T11:18:40Z</time>
      </trkpt>
      <trkpt lat="39.533168" lon="3.232995">
        <ele>144.159</ele>
        <time>2021-09-01T11:18:42Z</time>
      </trkpt>
      <trkpt lat="39.533102" lon="3.233012">
        <ele>144.443</ele>
        <time>2021-09-01T11:18:44Z</time>
      </trkpt>
      <trkpt lat="39.533038" lon="3.233023">
        <ele>144.752</ele>
        <time>2021-09-01T11:18:46Z</time>
      </trkpt>
      <trkpt lat="39.532982" lon="3.233030">
        <ele>144.887</ele>
        <time>2021-09-01T11:18:48Z</time>
      </trkpt>
      <trkpt lat="39.532922" lon="3.233039">
        <ele>144.964</ele>
        <time>2021-09-01T11:18:50Z</time>
      </trkpt>
      <trkpt lat="39.532864" lon="3.233052">
        <ele>145.334</ele>
        <time>2021-09-01T11:18:52Z</time>
      </trkpt>
      <trkpt lat="39.532799" lon="3.233067">
        <ele>145.629</ele>
        <time>2021-09-01T11:18:54Z</time>
      </trkpt>
      <trkpt lat="39.532734" lon="3.233083">
        <ele>145.800</ele>
        <time>2021-09-01T11:18:56Z</time>
      </trkpt>
      <trkpt lat="39.532664" lon="3.233100">
        <ele>145.920</ele>
        <time>2021-09-01T11:18:58Z</time>
      </trkpt>
      <trkpt lat="39.532590" lon="3.233112">
        <ele>146.108</ele>
        <time>2021-09-01T11:19:00Z</time>
      </trkpt>
      <trkpt lat="39.532520" lon="3.233114">
        <ele>146.270</ele>
        <time>2021-09-01T11:19:02Z</time>
      </trkpt>
      <trkpt lat="39.532454" lon="3.233103">
        <ele>146.354</ele>
        <time>2021-09-01T11:19:04Z</time>
      </trkpt>
      <trkpt lat="39.532389" lon="3.233089">
        <ele>146.659</ele>
        <time>2021-09-01T11:19:06Z</time>
      </trkpt>
      <trkpt lat="39.532324" lon="3.233072">
        <ele>146.823</ele>
        <time>2021-09-01T11:19:08Z</time>
      </trkpt>
      <trkpt lat="39.532257" lon="3.233072">
        <ele>146.962</ele>
        <time>2021-09-01T11:19:10Z</time>
      </trkpt>
      <trkpt lat="39.532192" lon="3.233078">
        <ele>147.127</ele>
        <time>2021-09-01T11:19:12Z</time>
      </trkpt>
      <trkpt lat="39.532120" lon="3.233080">
        <ele>147.494</ele>
        <time>2021-09-01T11:19:14Z</time>
      </trkpt>
      <trkpt lat="39.532047" lon="3.233068">
        <ele>147.624</ele>
        <time>2021-09-01T11:19:16Z</time>
      </trkpt>
      <trkpt lat="39.531977" lon="3.233053">
        <ele>147.738</ele>
        <time>2021-09-01T11:19:18Z</time>
      </trkpt>
      <trkpt lat="39.531902" lon="3.233029">
        <ele>148.070</ele>
        <time>2021-09-01T11:19:20Z</time>
      </trkpt>
      <trkpt lat="39.531838" lon="3.232995">
        <ele>148.217</ele>
        <time>2021-09-01T11:19:22Z</time>
      </trkpt>
      <trkpt lat="39.531772" lon="3.232962">
        <ele>148.208</ele>
        <time>2021-09-01T11:19:24Z</time>
      </trkpt>
      <trkpt lat="39.531699" lon="3.232942">
        <ele>148.271</ele>
        <time>2021-09-01T11:19:26Z</time>
      </trkpt>
      <trkpt lat="39.531632" lon="3.232941">
        <ele>148.455</ele>
        <time>2021-09-01T11:19:28Z</time>
      </trkpt>
      <trkpt lat="39.531575" lon="3.232953">
        <ele>148.950</ele>
        <time>2021-09-01T11:19:30Z</time>
      </trkpt>
      <trkpt lat="39.531513" lon="3.232961">
        <ele>149.694</ele>
        <time>2021-09-01T11:19:32Z</time>
      </trkpt>
      <trkpt lat="39.531461" lon="3.232967">
        <ele>150.373</ele>
        <time>2021-09-01T11:19:34Z</time>
      </trkpt>
      <trkpt lat="39.531396" lon="3.232968">
        <ele>151.038</ele>
        <time>2021-09-01T11:19:36Z</time>
      </trkpt>
      <trkpt lat="39.531328" lon="3.232956">
        <ele>151.425</ele>
        <time>2021-09-01T11:19:38Z</time>
      </trkpt>
      <trkpt lat="39.531256" lon="3.232934">
        <ele>151.425</ele>
        <time>2021-09-01T11:19:40Z</time>
      </trkpt>
      <trkpt lat="39.531182" lon="3.232913">
        <ele>151.426</ele>
        <time>2021-09-01T11:19:42Z</time>
      </trkpt>
      <trkpt lat="39.531114" lon="3.232912">
        <ele>151.447</ele>
        <time>2021-09-01T11:19:44Z</time>
      </trkpt>
      <trkpt lat="39.531054" lon="3.232921">
        <ele>151.811</ele>
        <time>2021-09-01T11:19:46Z</time>
      </trkpt>
      <trkpt lat="39.531001" lon="3.232932">
        <ele>152.308</ele>
        <time>2021-09-01T11:19:48Z</time>
      </trkpt>
      <trkpt lat="39.530941" lon="3.232947">
        <ele>152.880</ele>
        <time>2021-09-01T11:19:50Z</time>
      </trkpt>
      <trkpt lat="39.530877" lon="3.232952">
        <ele>153.234</ele>
        <time>2021-09-01T11:19:52Z</time>
      </trkpt>
      <trkpt lat="39.530809" lon="3.232956">
        <ele>153.669</ele>
        <time>2021-09-01T11:19:54Z</time>
      </trkpt>
      <trkpt lat="39.530739" lon="3.232973">
        <ele>154.073</ele>
        <time>2021-09-01T11:19:56Z</time>
      </trkpt>
      <trkpt lat="39.530672" lon="3.233003">
        <ele>154.142</ele>
        <time>2021-09-01T11:19:58Z</time>
      </trkpt>
      <trkpt lat="39.530606" lon="3.233047">
        <ele>154.137</ele>
        <time>2021-09-01T11:20:00Z</time>
      </trkpt>
      <trkpt lat="39.530545" lon="3.233104">
        <ele>154.074</ele>
        <time>2021-09-01T11:20:02Z</time>
      </trkpt>
      <trkpt lat="39.530494" lon="3.233156">
        <ele>154.024</ele>
        <time>2021-09-01T11:20:04Z</time>
      </trkpt>
      <trkpt lat="39.530438" lon="3.233214">
        <ele>153.973</ele>
        <time>2021-09-01T11:20:06Z</time>
      </trkpt>
      <trkpt lat="39.530378" lon="3.233270">
        <ele>153.885</ele>
        <time>2021-09-01T11:20:08Z</time>
      </trkpt>
      <trkpt lat="39.530320" lon="3.233327">
        <ele>153.813</ele>
        <time>2021-09-01T11:20:10Z</time>
      </trkpt>
      <trkpt lat="39.530263" lon="3.233378">
        <ele>154.008</ele>
        <time>2021-09-01T11:20:12Z</time>
      </trkpt>
      <trkpt lat="39.530205" lon="3.233425">
        <ele>154.245</ele>
        <time>2021-09-01T11:20:14Z</time>
      </trkpt>
      <trkpt lat="39.530152" lon="3.233471">
        <ele>154.489</ele>
        <time>2021-09-01T11:20:16Z</time>
      </trkpt>
      <trkpt lat="39.530104" lon="3.233521">
        <ele>154.834</ele>
        <time>2021-09-01T11:20:18Z</time>
      </trkpt>
      <trkpt lat="39.530050" lon="3.233575">
        <ele>155.338</ele>
        <time>2021-09-01T11:20:20Z</time>
      </trkpt>
      <trkpt lat="39.529999" lon="3.233626">
        <ele>155.727</ele>
        <time>2021-09-01T11:20:22Z</time>
      </trkpt>
      <trkpt lat="39.529953" lon="3.233688">
        <ele>155.972</ele>
        <time>2021-09-01T11:20:24Z</time>
      </trkpt>
      <trkpt lat="39.529907" lon="3.233763">
        <ele>156.149</ele>
        <time>2021-09-01T11:20:26Z</time>
      </trkpt>
      <trkpt lat="39.529866" lon="3.233837">
        <ele>156.329</ele>
        <time>2021-09-01T11:20:28Z</time>
      </trkpt>
      <trkpt lat="39.529818" lon="3.233905">
        <ele>156.682</ele>
        <time>2021-09-01T11:20:30Z</time>
      </trkpt>
      <trkpt lat="39.529774" lon="3.233972">
        <ele>156.843</ele>
        <time>2021-09-01T11:20:32Z</time>
      </trkpt>
      <trkpt lat="39.529724" lon="3.234017">
        <ele>156.917</ele>
        <time>2021-09-01T11:20:34Z</time>
      </trkpt>
      <trkpt lat="39.529661" lon="3.234067">
        <ele>156.908</ele>
        <time>2021-09-01T11:20:36Z</time>
      </trkpt>
      <trkpt lat="39.529611" lon="3.234112">
        <ele>157.266</ele>
        <time>2021-09-01T11:20:38Z</time>
      </trkpt>
      <trkpt lat="39.529570" lon="3.234140">
        <ele>157.280</ele>
        <time>2021-09-01T11:20:40Z</time>
      </trkpt>
      <trkpt lat="39.529529" lon="3.234172">
        <ele>157.345</ele>
        <time>2021-09-01T11:20:42Z</time>
      </trkpt>
      <trkpt lat="39.529491" lon="3.234232">
        <ele>157.379</ele>
        <time>2021-09-01T11:20:44Z</time>
      </trkpt>
      <trkpt lat="39.529457" lon="3.234283">
        <ele>157.368</ele>
        <time>2021-09-01T11:20:46Z</time>
      </trkpt>
      <trkpt lat="39.529407" lon="3.234336">
        <ele>157.113</ele>
        <time>2021-09-01T11:20:48Z</time>
      </trkpt>
      <trkpt lat="39.529353" lon="3.234397">
        <ele>157.150</ele>
        <time>2021-09-01T11:20:50Z</time>
      </trkpt>
      <trkpt lat="39.529293" lon="3.234459">
        <ele>157.440</ele>
        <time>2021-09-01T11:20:52Z</time>
      </trkpt>
      <trkpt lat="39.529231" lon="3.234517">
        <ele>157.773</ele>
        <time>2021-09-01T11:20:54Z</time>
      </trkpt>
      <trkpt lat="39.529169" lon="3.234570">
        <ele>157.985</ele>
        <time>2021-09-01T11:20:56Z</time>
      </trkpt>
      <trkpt lat="39.529103" lon="3.234613">
        <ele>158.013</ele>
        <time>2021-09-01T11:20:58Z</time>
      </trkpt>
      <trkpt lat="39.529033" lon="3.234653">
        <ele>158.208</ele>
        <time>2021-09-01T11:21:00Z</time>
      </trkpt>
      <trkpt lat="39.528967" lon="3.234693">
        <ele>158.355</ele>
        <time>2021-09-01T11:21:02Z</time>
      </trkpt>
      <trkpt lat="39.528898" lon="3.234729">
        <ele>158.339</ele>
        <time>2021-09-01T11:21:04Z</time>
      </trkpt>
      <trkpt lat="39.528819" lon="3.234739">
        <ele>158.214</ele>
        <time>2021-09-01T11:21:06Z</time>
      </trkpt>
      <trkpt lat="39.528742" lon="3.234746">
        <ele>158.178</ele>
        <time>2021-09-01T11:21:08Z</time>
      </trkpt>
      <trkpt lat="39.528666" lon="3.234761">
        <ele>158.157</ele>
        <time>2021-09-01T11:21:10Z</time>
      </trkpt>
      <trkpt lat="39.528586" lon="3.234773">
        <ele>158.342</ele>
        <time>2021-09-01T11:21:12Z</time>
      </trkpt>
      <trkpt lat="39.528506" lon="3.234789">
        <ele>158.459</ele>
        <time>2021-09-01T11:21:14Z</time>
      </trkpt>
      <trkpt lat="39.528423" lon="3.234806">
        <ele>158.519</ele>
        <time>2021-09-01T11:21:16Z</time>
      </trkpt>
      <trkpt lat="39.528338" lon="3.234826">
        <ele>158.551</ele>
        <time>2021-09-01T11:21:18Z</time>
      </trkpt>
      <trkpt lat="39.528252" lon="3.234844">
        <ele>158.501</ele>
        <time>2021-09-01T11:21:20Z</time>
      </trkpt>
      <trkpt lat="39.528207" lon="3.234855">
        <ele>158.311</ele>
        <time>2021-09-01T11:21:21Z</time>
      </trkpt>
      <trkpt lat="39.528160" lon="3.234859">
        <ele>158.208</ele>
        <time>2021-09-01T11:21:22Z</time>
      </trkpt>
      <trkpt lat="39.528114" lon="3.234861">
        <ele>158.063</ele>
        <time>2021-09-01T11:21:23Z</time>
      </trkpt>
      <trkpt lat="39.528064" lon="3.234867">
        <ele>158.087</ele>
        <time>2021-09-01T11:21:24Z</time>
      </trkpt>
      <trkpt lat="39.528014" lon="3.234875">
        <ele>157.852</ele>
        <time>2021-09-01T11:21:25Z</time>
      </trkpt>
      <trkpt lat="39.527965" lon="3.234882">
        <ele>157.816</ele>
        <time>2021-09-01T11:21:26Z</time>
      </trkpt>
      <trkpt lat="39.527914" lon="3.234887">
        <ele>157.815</ele>
        <time>2021-09-01T11:21:27Z</time>
      </trkpt>
      <trkpt lat="39.527867" lon="3.234904">
        <ele>157.820</ele>
        <time>2021-09-01T11:21:28Z</time>
      </trkpt>
      <trkpt lat="39.527819" lon="3.234915">
        <ele>157.987</ele>
        <time>2021-09-01T11:21:29Z</time>
      </trkpt>
      <trkpt lat="39.527773" lon="3.234920">
        <ele>157.927</ele>
        <time>2021-09-01T11:21:30Z</time>
      </trkpt>
      <trkpt lat="39.527727" lon="3.234925">
        <ele>158.083</ele>
        <time>2021-09-01T11:21:31Z</time>
      </trkpt>
      <trkpt lat="39.527680" lon="3.234927">
        <ele>158.225</ele>
        <time>2021-09-01T11:21:32Z</time>
      </trkpt>
      <trkpt lat="39.527614" lon="3.234944">
        <ele>158.617</ele>
        <time>2021-09-01T11:21:34Z</time>
      </trkpt>
      <trkpt lat="39.527548" lon="3.234954">
        <ele>159.108</ele>
        <time>2021-09-01T11:21:36Z</time>
      </trkpt>
      <trkpt lat="39.527473" lon="3.234962">
        <ele>159.636</ele>
        <time>2021-09-01T11:21:38Z</time>
      </trkpt>
      <trkpt lat="39.527397" lon="3.234967">
        <ele>160.190</ele>
        <time>2021-09-01T11:21:40Z</time>
      </trkpt>
      <trkpt lat="39.527332" lon="3.234986">
        <ele>160.565</ele>
        <time>2021-09-01T11:21:42Z</time>
      </trkpt>
      <trkpt lat="39.527267" lon="3.235006">
        <ele>160.749</ele>
        <time>2021-09-01T11:21:44Z</time>
      </trkpt>
      <trkpt lat="39.527203" lon="3.235030">
        <ele>161.198</ele>
        <time>2021-09-01T11:21:46Z</time>
      </trkpt>
      <trkpt lat="39.527145" lon="3.235050">
        <ele>161.473</ele>
        <time>2021-09-01T11:21:48Z</time>
      </trkpt>
      <trkpt lat="39.527083" lon="3.235062">
        <ele>161.820</ele>
        <time>2021-09-01T11:21:50Z</time>
      </trkpt>
      <trkpt lat="39.527024" lon="3.235073">
        <ele>162.190</ele>
        <time>2021-09-01T11:21:52Z</time>
      </trkpt>
      <trkpt lat="39.526961" lon="3.235079">
        <ele>162.573</ele>
        <time>2021-09-01T11:21:54Z</time>
      </trkpt>
      <trkpt lat="39.526896" lon="3.235108">
        <ele>162.885</ele>
        <time>2021-09-01T11:21:56Z</time>
      </trkpt>
      <trkpt lat="39.526820" lon="3.235141">
        <ele>163.113</ele>
        <time>2021-09-01T11:21:58Z</time>
      </trkpt>
      <trkpt lat="39.526759" lon="3.235186">
        <ele>163.308</ele>
        <time>2021-09-01T11:22:00Z</time>
      </trkpt>
      <trkpt lat="39.526690" lon="3.235238">
        <ele>163.525</ele>
        <time>2021-09-01T11:22:02Z</time>
      </trkpt>
      <trkpt lat="39.526623" lon="3.235293">
        <ele>163.639</ele>
        <time>2021-09-01T11:22:04Z</time>
      </trkpt>
      <trkpt lat="39.526563" lon="3.235339">
        <ele>163.724</ele>
        <time>2021-09-01T11:22:06Z</time>
      </trkpt>
      <trkpt lat="39.526497" lon="3.235377">
        <ele>164.098</ele>
        <time>2021-09-01T11:22:08Z</time>
      </trkpt>
      <trkpt lat="39.526426" lon="3.235432">
        <ele>164.297</ele>
        <time>2021-09-01T11:22:10Z</time>
      </trkpt>
      <trkpt lat="39.526366" lon="3.235475">
        <ele>164.652</ele>
        <time>2021-09-01T11:22:12Z</time>
      </trkpt>
      <trkpt lat="39.526306" lon="3.235507">
        <ele>165.079</ele>
        <time>2021-09-01T11:22:14Z</time>
      </trkpt>
      <trkpt lat="39.526252" lon="3.235554">
        <ele>165.699</ele>
        <time>2021-09-01T11:22:16Z</time>
      </trkpt>
      <trkpt lat="39.526191" lon="3.235598">
        <ele>166.055</ele>
        <time>2021-09-01T11:22:18Z</time>
      </trkpt>
      <trkpt lat="39.526117" lon="3.235655">
        <ele>166.207</ele>
        <time>2021-09-01T11:22:20Z</time>
      </trkpt>
      <trkpt lat="39.526079" lon="3.235688">
        <ele>166.217</ele>
        <time>2021-09-01T11:22:21Z</time>
      </trkpt>
      <trkpt lat="39.526037" lon="3.235711">
        <ele>166.208</ele>
        <time>2021-09-01T11:22:22Z</time>
      </trkpt>
      <trkpt lat="39.525962" lon="3.235760">
        <ele>166.043</ele>
        <time>2021-09-01T11:22:24Z</time>
      </trkpt>
      <trkpt lat="39.525888" lon="3.235814">
        <ele>165.997</ele>
        <time>2021-09-01T11:22:26Z</time>
      </trkpt>
      <trkpt lat="39.525808" lon="3.235864">
        <ele>166.012</ele>
        <time>2021-09-01T11:22:28Z</time>
      </trkpt>
      <trkpt lat="39.525734" lon="3.235909">
        <ele>165.926</ele>
        <time>2021-09-01T11:22:30Z</time>
      </trkpt>
      <trkpt lat="39.525655" lon="3.235952">
        <ele>165.845</ele>
        <time>2021-09-01T11:22:32Z</time>
      </trkpt>
      <trkpt lat="39.525579" lon="3.235998">
        <ele>165.710</ele>
        <time>2021-09-01T11:22:34Z</time>
      </trkpt>
      <trkpt lat="39.525504" lon="3.236049">
        <ele>165.887</ele>
        <time>2021-09-01T11:22:36Z</time>
      </trkpt>
      <trkpt lat="39.525440" lon="3.236101">
        <ele>165.937</ele>
        <time>2021-09-01T11:22:38Z</time>
      </trkpt>
      <trkpt lat="39.525387" lon="3.236176">
        <ele>166.057</ele>
        <time>2021-09-01T11:22:40Z</time>
      </trkpt>
      <trkpt lat="39.525334" lon="3.236228">
        <ele>166.200</ele>
        <time>2021-09-01T11:22:42Z</time>
      </trkpt>
      <trkpt lat="39.525278" lon="3.236258">
        <ele>166.320</ele>
        <time>2021-09-01T11:22:44Z</time>
      </trkpt>
      <trkpt lat="39.525227" lon="3.236251">
        <ele>166.508</ele>
        <time>2021-09-01T11:22:46Z</time>
      </trkpt>
      <trkpt lat="39.525169" lon="3.236219">
        <ele>166.873</ele>
        <time>2021-09-01T11:22:48Z</time>
      </trkpt>
      <trkpt lat="39.525125" lon="3.236193">
        <ele>167.457</ele>
        <time>2021-09-01T11:22:50Z</time>
      </trkpt>
      <trkpt lat="39.525072" lon="3.236181">
        <ele>168.142</ele>
        <time>2021-09-01T11:22:52Z</time>
      </trkpt>
      <trkpt lat="39.525028" lon="3.236167">
        <ele>168.656</ele>
        <time>2021-09-01T11:22:54Z</time>
      </trkpt>
      <trkpt lat="39.524982" lon="3.236146">
        <ele>168.915</ele>
        <time>2021-09-01T11:22:56Z</time>
      </trkpt>
      <trkpt lat="39.524937" lon="3.236121">
        <ele>169.150</ele>
        <time>2021-09-01T11:22:58Z</time>
      </trkpt>
      <trkpt lat="39.524890" lon="3.236090">
        <ele>169.417</ele>
        <time>2021-09-01T11:23:00Z</time>
      </trkpt>
      <trkpt lat="39.524841" lon="3.236057">
        <ele>169.777</ele>
        <time>2021-09-01T11:23:02Z</time>
      </trkpt>
      <trkpt lat="39.524797" lon="3.236021">
        <ele>170.269</ele>
        <time>2021-09-01T11:23:04Z</time>
      </trkpt>
      <trkpt lat="39.524737" lon="3.235975">
        <ele>170.804</ele>
        <time>2021-09-01T11:23:07Z</time>
      </trkpt>
      <trkpt lat="39.524694" lon="3.235942">
        <ele>171.124</ele>
        <time>2021-09-01T11:23:09Z</time>
      </trkpt>
      <trkpt lat="39.524640" lon="3.235908">
        <ele>171.308</ele>
        <time>2021-09-01T11:23:11Z</time>
      </trkpt>
      <trkpt lat="39.524572" lon="3.235856">
        <ele>171.444</ele>
        <time>2021-09-01T11:23:13Z</time>
      </trkpt>
      <trkpt lat="39.524492" lon="3.235808">
        <ele>171.468</ele>
        <time>2021-09-01T11:23:15Z</time>
      </trkpt>
      <trkpt lat="39.524419" lon="3.235766">
        <ele>171.293</ele>
        <time>2021-09-01T11:23:17Z</time>
      </trkpt>
      <trkpt lat="39.524354" lon="3.235730">
        <ele>171.177</ele>
        <time>2021-09-01T11:23:19Z</time>
      </trkpt>
      <trkpt lat="39.524302" lon="3.235704">
        <ele>171.226</ele>
        <time>2021-09-01T11:23:21Z</time>
      </trkpt>
      <trkpt lat="39.524258" lon="3.235662">
        <ele>171.531</ele>
        <time>2021-09-01T11:23:23Z</time>
      </trkpt>
      <trkpt lat="39.524212" lon="3.235634">
        <ele>172.128</ele>
        <time>2021-09-01T11:23:25Z</time>
      </trkpt>
      <trkpt lat="39.524166" lon="3.235604">
        <ele>172.798</ele>
        <time>2021-09-01T11:23:27Z</time>
      </trkpt>
      <trkpt lat="39.524120" lon="3.235570">
        <ele>173.685</ele>
        <time>2021-09-01T11:23:30Z</time>
      </trkpt>
      <trkpt lat="39.524078" lon="3.235545">
        <ele>174.089</ele>
        <time>2021-09-01T11:23:32Z</time>
      </trkpt>
      <trkpt lat="39.524027" lon="3.235508">
        <ele>174.717</ele>
        <time>2021-09-01T11:23:35Z</time>
      </trkpt>
      <trkpt lat="39.523978" lon="3.235478">
        <ele>175.508</ele>
        <time>2021-09-01T11:23:38Z</time>
      </trkpt>
      <trkpt lat="39.523570" lon="3.235204">
        <ele>182.536</ele>
        <time>2021-09-01T11:24:08Z</time>
      </trkpt>
      <trkpt lat="39.523519" lon="3.235173">
        <ele>183.240</ele>
        <time>2021-09-01T11:24:11Z</time>
      </trkpt>
      <trkpt lat="39.523460" lon="3.235146">
        <ele>184.145</ele>
        <time>2021-09-01T11:24:15Z</time>
      </trkpt>
      <trkpt lat="39.523416" lon="3.235119">
        <ele>184.949</ele>
        <time>2021-09-01T11:24:19Z</time>
      </trkpt>
      <trkpt lat="39.523368" lon="3.235118">
        <ele>185.518</ele>
        <time>2021-09-01T11:24:22Z</time>
      </trkpt>
      <trkpt lat="39.523316" lon="3.235095">
        <ele>186.173</ele>
        <time>2021-09-01T11:24:25Z</time>
      </trkpt>
      <trkpt lat="39.523258" lon="3.235096">
        <ele>187.230</ele>
        <time>2021-09-01T11:24:29Z</time>
      </trkpt>
      <trkpt lat="39.523212" lon="3.235102">
        <ele>188.230</ele>
        <time>2021-09-01T11:24:33Z</time>
      </trkpt>
      <trkpt lat="39.523158" lon="3.235100">
        <ele>188.995</ele>
        <time>2021-09-01T11:24:37Z</time>
      </trkpt>
      <trkpt lat="39.523111" lon="3.235098">
        <ele>189.549</ele>
        <time>2021-09-01T11:24:40Z</time>
      </trkpt>
      <trkpt lat="39.523056" lon="3.235093">
        <ele>190.223</ele>
        <time>2021-09-01T11:24:43Z</time>
      </trkpt>
      <trkpt lat="39.523001" lon="3.235100">
        <ele>191.008</ele>
        <time>2021-09-01T11:24:47Z</time>
      </trkpt>
      <trkpt lat="39.522946" lon="3.235099">
        <ele>191.817</ele>
        <time>2021-09-01T11:24:51Z</time>
      </trkpt>
      <trkpt lat="39.522890" lon="3.235106">
        <ele>192.821</ele>
        <time>2021-09-01T11:24:55Z</time>
      </trkpt>
      <trkpt lat="39.522837" lon="3.235097">
        <ele>193.836</ele>
        <time>2021-09-01T11:24:59Z</time>
      </trkpt>
      <trkpt lat="39.522783" lon="3.235085">
        <ele>194.750</ele>
        <time>2021-09-01T11:25:03Z</time>
      </trkpt>
      <trkpt lat="39.522734" lon="3.235052">
        <ele>195.729</ele>
        <time>2021-09-01T11:25:07Z</time>
      </trkpt>
      <trkpt lat="39.522690" lon="3.235012">
        <ele>196.664</ele>
        <time>2021-09-01T11:25:11Z</time>
      </trkpt>
      <trkpt lat="39.522649" lon="3.234959">
        <ele>197.571</ele>
        <time>2021-09-01T11:25:15Z</time>
      </trkpt>
      <trkpt lat="39.522605" lon="3.234910">
        <ele>198.431</ele>
        <time>2021-09-01T11:25:19Z</time>
      </trkpt>
      <trkpt lat="39.522566" lon="3.234862">
        <ele>199.559</ele>
        <time>2021-09-01T11:25:23Z</time>
      </trkpt>
      <trkpt lat="39.522526" lon="3.234824">
        <ele>200.203</ele>
        <time>2021-09-01T11:25:26Z</time>
      </trkpt>
      <trkpt lat="39.522491" lon="3.234786">
        <ele>200.823</ele>
        <time>2021-09-01T11:25:29Z</time>
      </trkpt>
      <trkpt lat="39.522453" lon="3.234736">
        <ele>201.708</ele>
        <time>2021-09-01T11:25:33Z</time>
      </trkpt>
      <trkpt lat="39.522420" lon="3.234690">
        <ele>202.493</ele>
        <time>2021-09-01T11:25:36Z</time>
      </trkpt>
      <trkpt lat="39.522380" lon="3.234645">
        <ele>203.257</ele>
        <time>2021-09-01T11:25:40Z</time>
      </trkpt>
      <trkpt lat="39.522332" lon="3.234596">
        <ele>203.772</ele>
        <time>2021-09-01T11:25:43Z</time>
      </trkpt>
      <trkpt lat="39.522298" lon="3.234553">
        <ele>204.236</ele>
        <time>2021-09-01T11:25:46Z</time>
      </trkpt>
      <trkpt lat="39.522256" lon="3.234516">
        <ele>204.855</ele>
        <time>2021-09-01T11:25:49Z</time>
      </trkpt>
      <trkpt lat="39.522214" lon="3.234469">
        <ele>205.790</ele>
        <time>2021-09-01T11:25:53Z</time>
      </trkpt>
      <trkpt lat="39.522172" lon="3.234417">
        <ele>207.197</ele>
        <time>2021-09-01T11:25:58Z</time>
      </trkpt>
      <trkpt lat="39.522135" lon="3.234383">
        <ele>207.847</ele>
        <time>2021-09-01T11:26:01Z</time>
      </trkpt>
      <trkpt lat="39.522089" lon="3.234334">
        <ele>208.571</ele>
        <time>2021-09-01T11:26:05Z</time>
      </trkpt>
      <trkpt lat="39.522031" lon="3.234295">
        <ele>209.441</ele>
        <time>2021-09-01T11:26:09Z</time>
      </trkpt>
      <trkpt lat="39.521979" lon="3.234261">
        <ele>210.315</ele>
        <time>2021-09-01T11:26:13Z</time>
      </trkpt>
      <trkpt lat="39.521924" lon="3.234223">
        <ele>211.108</ele>
        <time>2021-09-01T11:26:17Z</time>
      </trkpt>
      <trkpt lat="39.521881" lon="3.234182">
        <ele>211.955</ele>
        <time>2021-09-01T11:26:21Z</time>
      </trkpt>
      <trkpt lat="39.521827" lon="3.234151">
        <ele>212.849</ele>
        <time>2021-09-01T11:26:26Z</time>
      </trkpt>
      <trkpt lat="39.521781" lon="3.234127">
        <ele>213.554</ele>
        <time>2021-09-01T11:26:30Z</time>
      </trkpt>
      <trkpt lat="39.521738" lon="3.234102">
        <ele>214.338</ele>
        <time>2021-09-01T11:26:34Z</time>
      </trkpt>
      <trkpt lat="39.521684" lon="3.234083">
        <ele>215.277</ele>
        <time>2021-09-01T11:26:38Z</time>
      </trkpt>
      <trkpt lat="39.521629" lon="3.234059">
        <ele>215.922</ele>
        <time>2021-09-01T11:26:42Z</time>
      </trkpt>
      <trkpt lat="39.521579" lon="3.234032">
        <ele>216.999</ele>
        <time>2021-09-01T11:26:46Z</time>
      </trkpt>
      <trkpt lat="39.521531" lon="3.233996">
        <ele>218.069</ele>
        <time>2021-09-01T11:26:49Z</time>
      </trkpt>
      <trkpt lat="39.521469" lon="3.233975">
        <ele>219.225</ele>
        <time>2021-09-01T11:26:53Z</time>
      </trkpt>
      <trkpt lat="39.521417" lon="3.233969">
        <ele>220.026</ele>
        <time>2021-09-01T11:26:56Z</time>
      </trkpt>
      <trkpt lat="39.521367" lon="3.233966">
        <ele>220.608</ele>
        <time>2021-09-01T11:26:59Z</time>
      </trkpt>
      <trkpt lat="39.521310" lon="3.233957">
        <ele>221.208</ele>
        <time>2021-09-01T11:27:02Z</time>
      </trkpt>
      <trkpt lat="39.521251" lon="3.233955">
        <ele>221.960</ele>
        <time>2021-09-01T11:27:06Z</time>
      </trkpt>
      <trkpt lat="39.521183" lon="3.233952">
        <ele>222.754</ele>
        <time>2021-09-01T11:27:10Z</time>
      </trkpt>
      <trkpt lat="39.521134" lon="3.233940">
        <ele>223.669</ele>
        <time>2021-09-01T11:27:13Z</time>
      </trkpt>
      <trkpt lat="39.521076" lon="3.233940">
        <ele>224.853</ele>
        <time>2021-09-01T11:27:17Z</time>
      </trkpt>
      <trkpt lat="39.521025" lon="3.233937">
        <ele>225.212</ele>
        <time>2021-09-01T11:27:20Z</time>
      </trkpt>
      <trkpt lat="39.520967" lon="3.233928">
        <ele>225.587</ele>
        <time>2021-09-01T11:27:23Z</time>
      </trkpt>
      <trkpt lat="39.520914" lon="3.233913">
        <ele>226.034</ele>
        <time>2021-09-01T11:27:26Z</time>
      </trkpt>
      <trkpt lat="39.520854" lon="3.233872">
        <ele>226.594</ele>
        <time>2021-09-01T11:27:29Z</time>
      </trkpt>
      <trkpt lat="39.520814" lon="3.233843">
        <ele>226.997</ele>
        <time>2021-09-01T11:27:31Z</time>
      </trkpt>
      <trkpt lat="39.520771" lon="3.233816">
        <ele>227.323</ele>
        <time>2021-09-01T11:27:33Z</time>
      </trkpt>
      <trkpt lat="39.520713" lon="3.233779">
        <ele>227.925</ele>
        <time>2021-09-01T11:27:36Z</time>
      </trkpt>
      <trkpt lat="39.520657" lon="3.233736">
        <ele>228.708</ele>
        <time>2021-09-01T11:27:39Z</time>
      </trkpt>
      <trkpt lat="39.520611" lon="3.233704">
        <ele>229.567</ele>
        <time>2021-09-01T11:27:42Z</time>
      </trkpt>
      <trkpt lat="39.520565" lon="3.233681">
        <ele>230.351</ele>
        <time>2021-09-01T11:27:45Z</time>
      </trkpt>
      <trkpt lat="39.520506" lon="3.233667">
        <ele>231.126</ele>
        <time>2021-09-01T11:27:48Z</time>
      </trkpt>
      <trkpt lat="39.520436" lon="3.233693">
        <ele>231.760</ele>
        <time>2021-09-01T11:27:51Z</time>
      </trkpt>
      <trkpt lat="39.520378" lon="3.233722">
        <ele>232.049</ele>
        <time>2021-09-01T11:27:54Z</time>
      </trkpt>
      <trkpt lat="39.520329" lon="3.233755">
        <ele>232.264</ele>
        <time>2021-09-01T11:27:56Z</time>
      </trkpt>
      <trkpt lat="39.520289" lon="3.233784">
        <ele>232.541</ele>
        <time>2021-09-01T11:27:58Z</time>
      </trkpt>
      <trkpt lat="39.520225" lon="3.233831">
        <ele>233.171</ele>
        <time>2021-09-01T11:28:01Z</time>
      </trkpt>
      <trkpt lat="39.520161" lon="3.233864">
        <ele>234.275</ele>
        <time>2021-09-01T11:28:04Z</time>
      </trkpt>
      <trkpt lat="39.520091" lon="3.233895">
        <ele>235.328</ele>
        <time>2021-09-01T11:28:07Z</time>
      </trkpt>
      <trkpt lat="39.520043" lon="3.233923">
        <ele>236.020</ele>
        <time>2021-09-01T11:28:09Z</time>
      </trkpt>
      <trkpt lat="39.519992" lon="3.233951">
        <ele>236.608</ele>
        <time>2021-09-01T11:28:12Z</time>
      </trkpt>
      <trkpt lat="39.519947" lon="3.233965">
        <ele>236.665</ele>
        <time>2021-09-01T11:28:15Z</time>
      </trkpt>
      <trkpt lat="39.519900" lon="3.233963">
        <ele>236.559</ele>
        <time>2021-09-01T11:28:19Z</time>
      </trkpt>
      <trkpt lat="39.519845" lon="3.233960">
        <ele>236.654</ele>
        <time>2021-09-01T11:28:23Z</time>
      </trkpt>
      <trkpt lat="39.519798" lon="3.233959">
        <ele>236.238</ele>
        <time>2021-09-01T11:28:26Z</time>
      </trkpt>
      <trkpt lat="39.519747" lon="3.233921">
        <ele>235.697</ele>
        <time>2021-09-01T11:28:31Z</time>
      </trkpt>
      <trkpt lat="39.519712" lon="3.233880">
        <ele>235.322</ele>
        <time>2021-09-01T11:28:49Z</time>
      </trkpt>
      <trkpt lat="39.519685" lon="3.233828">
        <ele>235.249</ele>
        <time>2021-09-01T11:28:51Z</time>
      </trkpt>
      <trkpt lat="39.519660" lon="3.233749">
        <ele>235.179</ele>
        <time>2021-09-01T11:28:53Z</time>
      </trkpt>
      <trkpt lat="39.519636" lon="3.233691">
        <ele>234.871</ele>
        <time>2021-09-01T11:28:54Z</time>
      </trkpt>
      <trkpt lat="39.519595" lon="3.233584">
        <ele>234.141</ele>
        <time>2021-09-01T11:28:56Z</time>
      </trkpt>
      <trkpt lat="39.519580" lon="3.233517">
        <ele>233.715</ele>
        <time>2021-09-01T11:28:57Z</time>
      </trkpt>
      <trkpt lat="39.519548" lon="3.233447">
        <ele>233.208</ele>
        <time>2021-09-01T11:28:58Z</time>
      </trkpt>
      <trkpt lat="39.519512" lon="3.233369">
        <ele>232.855</ele>
        <time>2021-09-01T11:28:59Z</time>
      </trkpt>
      <trkpt lat="39.519486" lon="3.233290">
        <ele>232.329</ele>
        <time>2021-09-01T11:29:00Z</time>
      </trkpt>
      <trkpt lat="39.519453" lon="3.233205">
        <ele>231.864</ele>
        <time>2021-09-01T11:29:01Z</time>
      </trkpt>
      <trkpt lat="39.519411" lon="3.233121">
        <ele>231.298</ele>
        <time>2021-09-01T11:29:02Z</time>
      </trkpt>
      <trkpt lat="39.519363" lon="3.233053">
        <ele>230.627</ele>
        <time>2021-09-01T11:29:03Z</time>
      </trkpt>
      <trkpt lat="39.519304" lon="3.232977">
        <ele>230.012</ele>
        <time>2021-09-01T11:29:04Z</time>
      </trkpt>
      <trkpt lat="39.519256" lon="3.232916">
        <ele>229.599</ele>
        <time>2021-09-01T11:29:05Z</time>
      </trkpt>
      <trkpt lat="39.519210" lon="3.232840">
        <ele>228.829</ele>
        <time>2021-09-01T11:29:06Z</time>
      </trkpt>
      <trkpt lat="39.519157" lon="3.232781">
        <ele>228.277</ele>
        <time>2021-09-01T11:29:07Z</time>
      </trkpt>
      <trkpt lat="39.519101" lon="3.232718">
        <ele>227.661</ele>
        <time>2021-09-01T11:29:08Z</time>
      </trkpt>
      <trkpt lat="39.519041" lon="3.232649">
        <ele>227.027</ele>
        <time>2021-09-01T11:29:09Z</time>
      </trkpt>
      <trkpt lat="39.518975" lon="3.232573">
        <ele>226.208</ele>
        <time>2021-09-01T11:29:10Z</time>
      </trkpt>
      <trkpt lat="39.518912" lon="3.232507">
        <ele>225.565</ele>
        <time>2021-09-01T11:29:11Z</time>
      </trkpt>
      <trkpt lat="39.518852" lon="3.232449">
        <ele>224.779</ele>
        <time>2021-09-01T11:29:12Z</time>
      </trkpt>
      <trkpt lat="39.518796" lon="3.232394">
        <ele>223.984</ele>
        <time>2021-09-01T11:29:13Z</time>
      </trkpt>
      <trkpt lat="39.518742" lon="3.232332">
        <ele>222.978</ele>
        <time>2021-09-01T11:29:14Z</time>
      </trkpt>
      <trkpt lat="39.518682" lon="3.232279">
        <ele>222.097</ele>
        <time>2021-09-01T11:29:15Z</time>
      </trkpt>
      <trkpt lat="39.518622" lon="3.232232">
        <ele>221.112</ele>
        <time>2021-09-01T11:29:16Z</time>
      </trkpt>
      <trkpt lat="39.518554" lon="3.232185">
        <ele>220.439</ele>
        <time>2021-09-01T11:29:17Z</time>
      </trkpt>
      <trkpt lat="39.518484" lon="3.232138">
        <ele>219.799</ele>
        <time>2021-09-01T11:29:18Z</time>
      </trkpt>
      <trkpt lat="39.518421" lon="3.232090">
        <ele>219.061</ele>
        <time>2021-09-01T11:29:19Z</time>
      </trkpt>
      <trkpt lat="39.518360" lon="3.232047">
        <ele>218.221</ele>
        <time>2021-09-01T11:29:20Z</time>
      </trkpt>
      <trkpt lat="39.518306" lon="3.231991">
        <ele>217.313</ele>
        <time>2021-09-01T11:29:21Z</time>
      </trkpt>
      <trkpt lat="39.518250" lon="3.231923">
        <ele>216.408</ele>
        <time>2021-09-01T11:29:22Z</time>
      </trkpt>
      <trkpt lat="39.518185" lon="3.231862">
        <ele>215.424</ele>
        <time>2021-09-01T11:29:23Z</time>
      </trkpt>
      <trkpt lat="39.518134" lon="3.231811">
        <ele>214.438</ele>
        <time>2021-09-01T11:29:24Z</time>
      </trkpt>
      <trkpt lat="39.518082" lon="3.231760">
        <ele>213.463</ele>
        <time>2021-09-01T11:29:25Z</time>
      </trkpt>
      <trkpt lat="39.518036" lon="3.231722">
        <ele>212.497</ele>
        <time>2021-09-01T11:29:26Z</time>
      </trkpt>
      <trkpt lat="39.517963" lon="3.231665">
        <ele>210.436</ele>
        <time>2021-09-01T11:29:28Z</time>
      </trkpt>
      <trkpt lat="39.517920" lon="3.231627">
        <ele>209.341</ele>
        <time>2021-09-01T11:29:29Z</time>
      </trkpt>
      <trkpt lat="39.517870" lon="3.231595">
        <ele>208.598</ele>
        <time>2021-09-01T11:29:30Z</time>
      </trkpt>
      <trkpt lat="39.517810" lon="3.231573">
        <ele>207.888</ele>
        <time>2021-09-01T11:29:31Z</time>
      </trkpt>
      <trkpt lat="39.517750" lon="3.231557">
        <ele>207.145</ele>
        <time>2021-09-01T11:29:32Z</time>
      </trkpt>
      <trkpt lat="39.517701" lon="3.231542">
        <ele>206.647</ele>
        <time>2021-09-01T11:29:33Z</time>
      </trkpt>
      <trkpt lat="39.517653" lon="3.231534">
        <ele>206.011</ele>
        <time>2021-09-01T11:29:34Z</time>
      </trkpt>
      <trkpt lat="39.517572" lon="3.231537">
        <ele>204.608</ele>
        <time>2021-09-01T11:29:36Z</time>
      </trkpt>
      <trkpt lat="39.517524" lon="3.231535">
        <ele>203.982</ele>
        <time>2021-09-01T11:29:37Z</time>
      </trkpt>
      <trkpt lat="39.517479" lon="3.231525">
        <ele>203.196</ele>
        <time>2021-09-01T11:29:38Z</time>
      </trkpt>
      <trkpt lat="39.517429" lon="3.231518">
        <ele>202.451</ele>
        <time>2021-09-01T11:29:39Z</time>
      </trkpt>
      <trkpt lat="39.517368" lon="3.231506">
        <ele>201.875</ele>
        <time>2021-09-01T11:29:40Z</time>
      </trkpt>
      <trkpt lat="39.517303" lon="3.231500">
        <ele>201.244</ele>
        <time>2021-09-01T11:29:41Z</time>
      </trkpt>
      <trkpt lat="39.517236" lon="3.231488">
        <ele>200.729</ele>
        <time>2021-09-01T11:29:42Z</time>
      </trkpt>
      <trkpt lat="39.517174" lon="3.231472">
        <ele>200.136</ele>
        <time>2021-09-01T11:29:43Z</time>
      </trkpt>
      <trkpt lat="39.517113" lon="3.231459">
        <ele>199.556</ele>
        <time>2021-09-01T11:29:44Z</time>
      </trkpt>
      <trkpt lat="39.517049" lon="3.231450">
        <ele>198.846</ele>
        <time>2021-09-01T11:29:45Z</time>
      </trkpt>
      <trkpt lat="39.516991" lon="3.231443">
        <ele>198.188</ele>
        <time>2021-09-01T11:29:46Z</time>
      </trkpt>
      <trkpt lat="39.516947" lon="3.231433">
        <ele>197.316</ele>
        <time>2021-09-01T11:29:47Z</time>
      </trkpt>
      <trkpt lat="39.516897" lon="3.231422">
        <ele>196.408</ele>
        <time>2021-09-01T11:29:48Z</time>
      </trkpt>
      <trkpt lat="39.516847" lon="3.231411">
        <ele>195.552</ele>
        <time>2021-09-01T11:29:49Z</time>
      </trkpt>
      <trkpt lat="39.516796" lon="3.231394">
        <ele>194.876</ele>
        <time>2021-09-01T11:29:50Z</time>
      </trkpt>
      <trkpt lat="39.516722" lon="3.231359">
        <ele>193.251</ele>
        <time>2021-09-01T11:29:52Z</time>
      </trkpt>
      <trkpt lat="39.516662" lon="3.231328">
        <ele>192.195</ele>
        <time>2021-09-01T11:29:54Z</time>
      </trkpt>
      <trkpt lat="39.516614" lon="3.231267">
        <ele>191.194</ele>
        <time>2021-09-01T11:29:56Z</time>
      </trkpt>
      <trkpt lat="39.516587" lon="3.231187">
        <ele>190.379</ele>
        <time>2021-09-01T11:29:58Z</time>
      </trkpt>
      <trkpt lat="39.516583" lon="3.231090">
        <ele>189.826</ele>
        <time>2021-09-01T11:30:00Z</time>
      </trkpt>
      <trkpt lat="39.516523" lon="3.230984">
        <ele>189.446</ele>
        <time>2021-09-01T11:30:02Z</time>
      </trkpt>
      <trkpt lat="39.516481" lon="3.230947">
        <ele>189.241</ele>
        <time>2021-09-01T11:30:03Z</time>
      </trkpt>
      <trkpt lat="39.516444" lon="3.230912">
        <ele>188.881</ele>
        <time>2021-09-01T11:30:04Z</time>
      </trkpt>
      <trkpt lat="39.516410" lon="3.230861">
        <ele>188.209</ele>
        <time>2021-09-01T11:30:05Z</time>
      </trkpt>
      <trkpt lat="39.516370" lon="3.230804">
        <ele>187.608</ele>
        <time>2021-09-01T11:30:06Z</time>
      </trkpt>
      <trkpt lat="39.516320" lon="3.230749">
        <ele>186.912</ele>
        <time>2021-09-01T11:30:07Z</time>
      </trkpt>
      <trkpt lat="39.516278" lon="3.230699">
        <ele>186.026</ele>
        <time>2021-09-01T11:30:08Z</time>
      </trkpt>
      <trkpt lat="39.516241" lon="3.230648">
        <ele>185.211</ele>
        <time>2021-09-01T11:30:09Z</time>
      </trkpt>
      <trkpt lat="39.516212" lon="3.230590">
        <ele>184.475</ele>
        <time>2021-09-01T11:30:10Z</time>
      </trkpt>
      <trkpt lat="39.516171" lon="3.230532">
        <ele>183.654</ele>
        <time>2021-09-01T11:30:11Z</time>
      </trkpt>
      <trkpt lat="39.516134" lon="3.230475">
        <ele>182.999</ele>
        <time>2021-09-01T11:30:12Z</time>
      </trkpt>
      <trkpt lat="39.516100" lon="3.230410">
        <ele>182.396</ele>
        <time>2021-09-01T11:30:13Z</time>
      </trkpt>
      <trkpt lat="39.516065" lon="3.230344">
        <ele>181.716</ele>
        <time>2021-09-01T11:30:14Z</time>
      </trkpt>
      <trkpt lat="39.516020" lon="3.230280">
        <ele>181.336</ele>
        <time>2021-09-01T11:30:15Z</time>
      </trkpt>
      <trkpt lat="39.515974" lon="3.230214">
        <ele>180.817</ele>
        <time>2021-09-01T11:30:16Z</time>
      </trkpt>
      <trkpt lat="39.515926" lon="3.230144">
        <ele>180.318</ele>
        <time>2021-09-01T11:30:17Z</time>
      </trkpt>
      <trkpt lat="39.515874" lon="3.230068">
        <ele>179.808</ele>
        <time>2021-09-01T11:30:18Z</time>
      </trkpt>
      <trkpt lat="39.515823" lon="3.229997">
        <ele>179.451</ele>
        <time>2021-09-01T11:30:19Z</time>
      </trkpt>
      <trkpt lat="39.515772" lon="3.229921">
        <ele>178.925</ele>
        <time>2021-09-01T11:30:20Z</time>
      </trkpt>
      <trkpt lat="39.515720" lon="3.229842">
        <ele>178.410</ele>
        <time>2021-09-01T11:30:21Z</time>
      </trkpt>
      <trkpt lat="39.515664" lon="3.229762">
        <ele>177.994</ele>
        <time>2021-09-01T11:30:22Z</time>
      </trkpt>
      <trkpt lat="39.515605" lon="3.229676">
        <ele>177.253</ele>
        <time>2021-09-01T11:30:23Z</time>
      </trkpt>
      <trkpt lat="39.515545" lon="3.229590">
        <ele>176.678</ele>
        <time>2021-09-01T11:30:24Z</time>
      </trkpt>
      <trkpt lat="39.515491" lon="3.229498">
        <ele>175.885</ele>
        <time>2021-09-01T11:30:25Z</time>
      </trkpt>
      <trkpt lat="39.515434" lon="3.229408">
        <ele>175.255</ele>
        <time>2021-09-01T11:30:26Z</time>
      </trkpt>
      <trkpt lat="39.515376" lon="3.229315">
        <ele>174.671</ele>
        <time>2021-09-01T11:30:27Z</time>
      </trkpt>
      <trkpt lat="39.515315" lon="3.229228">
        <ele>174.141</ele>
        <time>2021-09-01T11:30:28Z</time>
      </trkpt>
      <trkpt lat="39.515262" lon="3.229148">
        <ele>173.615</ele>
        <time>2021-09-01T11:30:29Z</time>
      </trkpt>
      <trkpt lat="39.515211" lon="3.229073">
        <ele>173.108</ele>
        <time>2021-09-01T11:30:30Z</time>
      </trkpt>
      <trkpt lat="39.515170" lon="3.229000">
        <ele>172.785</ele>
        <time>2021-09-01T11:30:31Z</time>
      </trkpt>
      <trkpt lat="39.515148" lon="3.228921">
        <ele>172.449</ele>
        <time>2021-09-01T11:30:32Z</time>
      </trkpt>
      <trkpt lat="39.515151" lon="3.228836">
        <ele>172.134</ele>
        <time>2021-09-01T11:30:33Z</time>
      </trkpt>
      <trkpt lat="39.515181" lon="3.228755">
        <ele>171.968</ele>
        <time>2021-09-01T11:30:34Z</time>
      </trkpt>
      <trkpt lat="39.515217" lon="3.228682">
        <ele>171.887</ele>
        <time>2021-09-01T11:30:35Z</time>
      </trkpt>
      <trkpt lat="39.515249" lon="3.228617">
        <ele>171.742</ele>
        <time>2021-09-01T11:30:36Z</time>
      </trkpt>
      <trkpt lat="39.515280" lon="3.228551">
        <ele>171.619</ele>
        <time>2021-09-01T11:30:37Z</time>
      </trkpt>
      <trkpt lat="39.515313" lon="3.228485">
        <ele>171.649</ele>
        <time>2021-09-01T11:30:38Z</time>
      </trkpt>
      <trkpt lat="39.515346" lon="3.228421">
        <ele>171.536</ele>
        <time>2021-09-01T11:30:39Z</time>
      </trkpt>
      <trkpt lat="39.515376" lon="3.228352">
        <ele>171.517</ele>
        <time>2021-09-01T11:30:40Z</time>
      </trkpt>
      <trkpt lat="39.515406" lon="3.228281">
        <ele>171.418</ele>
        <time>2021-09-01T11:30:41Z</time>
      </trkpt>
      <trkpt lat="39.515439" lon="3.228210">
        <ele>171.308</ele>
        <time>2021-09-01T11:30:42Z</time>
      </trkpt>
      <trkpt lat="39.515470" lon="3.228137">
        <ele>171.211</ele>
        <time>2021-09-01T11:30:43Z</time>
      </trkpt>
      <trkpt lat="39.515506" lon="3.228063">
        <ele>171.175</ele>
        <time>2021-09-01T11:30:44Z</time>
      </trkpt>
      <trkpt lat="39.515538" lon="3.227988">
        <ele>170.940</ele>
        <time>2021-09-01T11:30:45Z</time>
      </trkpt>
      <trkpt lat="39.515571" lon="3.227913">
        <ele>170.824</ele>
        <time>2021-09-01T11:30:46Z</time>
      </trkpt>
      <trkpt lat="39.515609" lon="3.227839">
        <ele>170.663</ele>
        <time>2021-09-01T11:30:47Z</time>
      </trkpt>
      <trkpt lat="39.515645" lon="3.227764">
        <ele>170.418</ele>
        <time>2021-09-01T11:30:48Z</time>
      </trkpt>
      <trkpt lat="39.515677" lon="3.227689">
        <ele>170.265</ele>
        <time>2021-09-01T11:30:49Z</time>
      </trkpt>
      <trkpt lat="39.515704" lon="3.227610">
        <ele>170.075</ele>
        <time>2021-09-01T11:30:50Z</time>
      </trkpt>
      <trkpt lat="39.515718" lon="3.227526">
        <ele>169.873</ele>
        <time>2021-09-01T11:30:51Z</time>
      </trkpt>
      <trkpt lat="39.515721" lon="3.227444">
        <ele>169.685</ele>
        <time>2021-09-01T11:30:52Z</time>
      </trkpt>
      <trkpt lat="39.515719" lon="3.227361">
        <ele>169.413</ele>
        <time>2021-09-01T11:30:53Z</time>
      </trkpt>
      <trkpt lat="39.515708" lon="3.227278">
        <ele>169.208</ele>
        <time>2021-09-01T11:30:54Z</time>
      </trkpt>
      <trkpt lat="39.515685" lon="3.227204">
        <ele>169.015</ele>
        <time>2021-09-01T11:30:55Z</time>
      </trkpt>
      <trkpt lat="39.515653" lon="3.227135">
        <ele>168.999</ele>
        <time>2021-09-01T11:30:56Z</time>
      </trkpt>
      <trkpt lat="39.515617" lon="3.227068">
        <ele>168.874</ele>
        <time>2021-09-01T11:30:57Z</time>
      </trkpt>
      <trkpt lat="39.515587" lon="3.227001">
        <ele>168.898</ele>
        <time>2021-09-01T11:30:58Z</time>
      </trkpt>
      <trkpt lat="39.515551" lon="3.226928">
        <ele>168.877</ele>
        <time>2021-09-01T11:30:59Z</time>
      </trkpt>
      <trkpt lat="39.515518" lon="3.226858">
        <ele>168.812</ele>
        <time>2021-09-01T11:31:00Z</time>
      </trkpt>
      <trkpt lat="39.515490" lon="3.226784">
        <ele>168.839</ele>
        <time>2021-09-01T11:31:01Z</time>
      </trkpt>
      <trkpt lat="39.515466" lon="3.226707">
        <ele>168.819</ele>
        <time>2021-09-01T11:31:02Z</time>
      </trkpt>
      <trkpt lat="39.515444" lon="3.226628">
        <ele>168.891</ele>
        <time>2021-09-01T11:31:03Z</time>
      </trkpt>
      <trkpt lat="39.515418" lon="3.226554">
        <ele>168.781</ele>
        <time>2021-09-01T11:31:04Z</time>
      </trkpt>
      <trkpt lat="39.515390" lon="3.226481">
        <ele>168.519</ele>
        <time>2021-09-01T11:31:05Z</time>
      </trkpt>
      <trkpt lat="39.515365" lon="3.226399">
        <ele>168.308</ele>
        <time>2021-09-01T11:31:06Z</time>
      </trkpt>
      <trkpt lat="39.515340" lon="3.226317">
        <ele>168.167</ele>
        <time>2021-09-01T11:31:07Z</time>
      </trkpt>
      <trkpt lat="39.515315" lon="3.226227">
        <ele>167.881</ele>
        <time>2021-09-01T11:31:08Z</time>
      </trkpt>
      <trkpt lat="39.515289" lon="3.226135">
        <ele>167.426</ele>
        <time>2021-09-01T11:31:09Z</time>
      </trkpt>
      <trkpt lat="39.515261" lon="3.226035">
        <ele>167.130</ele>
        <time>2021-09-01T11:31:10Z</time>
      </trkpt>
      <trkpt lat="39.515231" lon="3.225938">
        <ele>166.769</ele>
        <time>2021-09-01T11:31:11Z</time>
      </trkpt>
      <trkpt lat="39.515203" lon="3.225839">
        <ele>166.344</ele>
        <time>2021-09-01T11:31:12Z</time>
      </trkpt>
      <trkpt lat="39.515175" lon="3.225741">
        <ele>166.071</ele>
        <time>2021-09-01T11:31:13Z</time>
      </trkpt>
      <trkpt lat="39.515144" lon="3.225646">
        <ele>165.881</ele>
        <time>2021-09-01T11:31:14Z</time>
      </trkpt>
      <trkpt lat="39.515113" lon="3.225553">
        <ele>165.625</ele>
        <time>2021-09-01T11:31:15Z</time>
      </trkpt>
      <trkpt lat="39.515086" lon="3.225455">
        <ele>165.426</ele>
        <time>2021-09-01T11:31:16Z</time>
      </trkpt>
      <trkpt lat="39.515057" lon="3.225361">
        <ele>165.108</ele>
        <time>2021-09-01T11:31:17Z</time>
      </trkpt>
      <trkpt lat="39.515027" lon="3.225263">
        <ele>164.908</ele>
        <time>2021-09-01T11:31:18Z</time>
      </trkpt>
      <trkpt lat="39.514997" lon="3.225171">
        <ele>164.640</ele>
        <time>2021-09-01T11:31:19Z</time>
      </trkpt>
      <trkpt lat="39.514969" lon="3.225080">
        <ele>164.344</ele>
        <time>2021-09-01T11:31:20Z</time>
      </trkpt>
      <trkpt lat="39.514942" lon="3.224987">
        <ele>164.139</ele>
        <time>2021-09-01T11:31:21Z</time>
      </trkpt>
      <trkpt lat="39.514912" lon="3.224892">
        <ele>163.973</ele>
        <time>2021-09-01T11:31:22Z</time>
      </trkpt>
      <trkpt lat="39.514881" lon="3.224795">
        <ele>163.772</ele>
        <time>2021-09-01T11:31:23Z</time>
      </trkpt>
      <trkpt lat="39.514858" lon="3.224686">
        <ele>163.497</ele>
        <time>2021-09-01T11:31:24Z</time>
      </trkpt>
      <trkpt lat="39.514849" lon="3.224573">
        <ele>163.184</ele>
        <time>2021-09-01T11:31:25Z</time>
      </trkpt>
      <trkpt lat="39.514848" lon="3.224457">
        <ele>162.854</ele>
        <time>2021-09-01T11:31:26Z</time>
      </trkpt>
      <trkpt lat="39.514850" lon="3.224344">
        <ele>162.512</ele>
        <time>2021-09-01T11:31:27Z</time>
      </trkpt>
      <trkpt lat="39.514855" lon="3.224238">
        <ele>162.032</ele>
        <time>2021-09-01T11:31:28Z</time>
      </trkpt>
      <trkpt lat="39.514870" lon="3.224134">
        <ele>161.505</ele>
        <time>2021-09-01T11:31:29Z</time>
      </trkpt>
      <trkpt lat="39.514897" lon="3.224036">
        <ele>161.008</ele>
        <time>2021-09-01T11:31:30Z</time>
      </trkpt>
      <trkpt lat="39.514925" lon="3.223936">
        <ele>160.789</ele>
        <time>2021-09-01T11:31:31Z</time>
      </trkpt>
      <trkpt lat="39.514960" lon="3.223837">
        <ele>160.353</ele>
        <time>2021-09-01T11:31:32Z</time>
      </trkpt>
      <trkpt lat="39.515010" lon="3.223745">
        <ele>159.918</ele>
        <time>2021-09-01T11:31:33Z</time>
      </trkpt>
      <trkpt lat="39.515060" lon="3.223659">
        <ele>159.792</ele>
        <time>2021-09-01T11:31:34Z</time>
      </trkpt>
      <trkpt lat="39.515117" lon="3.223576">
        <ele>159.591</ele>
        <time>2021-09-01T11:31:35Z</time>
      </trkpt>
      <trkpt lat="39.515174" lon="3.223498">
        <ele>159.366</ele>
        <time>2021-09-01T11:31:36Z</time>
      </trkpt>
      <trkpt lat="39.515231" lon="3.223418">
        <ele>159.183</ele>
        <time>2021-09-01T11:31:37Z</time>
      </trkpt>
      <trkpt lat="39.515291" lon="3.223337">
        <ele>159.053</ele>
        <time>2021-09-01T11:31:38Z</time>
      </trkpt>
      <trkpt lat="39.515349" lon="3.223254">
        <ele>158.833</ele>
        <time>2021-09-01T11:31:39Z</time>
      </trkpt>
      <trkpt lat="39.515405" lon="3.223170">
        <ele>158.623</ele>
        <time>2021-09-01T11:31:40Z</time>
      </trkpt>
      <trkpt lat="39.515463" lon="3.223085">
        <ele>158.315</ele>
        <time>2021-09-01T11:31:41Z</time>
      </trkpt>
      <trkpt lat="39.515522" lon="3.223003">
        <ele>157.908</ele>
        <time>2021-09-01T11:31:42Z</time>
      </trkpt>
      <trkpt lat="39.515579" lon="3.222919">
        <ele>157.651</ele>
        <time>2021-09-01T11:31:43Z</time>
      </trkpt>
      <trkpt lat="39.515635" lon="3.222831">
        <ele>157.375</ele>
        <time>2021-09-01T11:31:44Z</time>
      </trkpt>
      <trkpt lat="39.515681" lon="3.222740">
        <ele>157.140</ele>
        <time>2021-09-01T11:31:45Z</time>
      </trkpt>
      <trkpt lat="39.515723" lon="3.222641">
        <ele>156.714</ele>
        <time>2021-09-01T11:31:46Z</time>
      </trkpt>
      <trkpt lat="39.515755" lon="3.222533">
        <ele>156.693</ele>
        <time>2021-09-01T11:31:47Z</time>
      </trkpt>
      <trkpt lat="39.515792" lon="3.222432">
        <ele>156.428</ele>
        <time>2021-09-01T11:31:48Z</time>
      </trkpt>
      <trkpt lat="39.515822" lon="3.222338">
        <ele>156.255</ele>
        <time>2021-09-01T11:31:49Z</time>
      </trkpt>
      <trkpt lat="39.515833" lon="3.222246">
        <ele>155.895</ele>
        <time>2021-09-01T11:31:50Z</time>
      </trkpt>
      <trkpt lat="39.515821" lon="3.222153">
        <ele>155.589</ele>
        <time>2021-09-01T11:31:51Z</time>
      </trkpt>
      <trkpt lat="39.515787" lon="3.222066">
        <ele>155.106</ele>
        <time>2021-09-01T11:31:52Z</time>
      </trkpt>
      <trkpt lat="39.515749" lon="3.221978">
        <ele>154.726</ele>
        <time>2021-09-01T11:31:53Z</time>
      </trkpt>
      <trkpt lat="39.515706" lon="3.221890">
        <ele>154.308</ele>
        <time>2021-09-01T11:31:54Z</time>
      </trkpt>
      <trkpt lat="39.515651" lon="3.221815">
        <ele>154.076</ele>
        <time>2021-09-01T11:31:55Z</time>
      </trkpt>
      <trkpt lat="39.515590" lon="3.221744">
        <ele>153.850</ele>
        <time>2021-09-01T11:31:56Z</time>
      </trkpt>
      <trkpt lat="39.515529" lon="3.221678">
        <ele>153.595</ele>
        <time>2021-09-01T11:31:57Z</time>
      </trkpt>
      <trkpt lat="39.515467" lon="3.221603">
        <ele>153.269</ele>
        <time>2021-09-01T11:31:58Z</time>
      </trkpt>
      <trkpt lat="39.515407" lon="3.221529">
        <ele>152.958</ele>
        <time>2021-09-01T11:31:59Z</time>
      </trkpt>
      <trkpt lat="39.515344" lon="3.221457">
        <ele>152.553</ele>
        <time>2021-09-01T11:32:00Z</time>
      </trkpt>
      <trkpt lat="39.515281" lon="3.221381">
        <ele>152.210</ele>
        <time>2021-09-01T11:32:01Z</time>
      </trkpt>
      <trkpt lat="39.515215" lon="3.221304">
        <ele>152.090</ele>
        <time>2021-09-01T11:32:02Z</time>
      </trkpt>
      <trkpt lat="39.515151" lon="3.221228">
        <ele>151.976</ele>
        <time>2021-09-01T11:32:03Z</time>
      </trkpt>
      <trkpt lat="39.515085" lon="3.221152">
        <ele>151.990</ele>
        <time>2021-09-01T11:32:04Z</time>
      </trkpt>
      <trkpt lat="39.515019" lon="3.221075">
        <ele>151.919</ele>
        <time>2021-09-01T11:32:05Z</time>
      </trkpt>
      <trkpt lat="39.514953" lon="3.220999">
        <ele>151.708</ele>
        <time>2021-09-01T11:32:06Z</time>
      </trkpt>
      <trkpt lat="39.514890" lon="3.220925">
        <ele>151.645</ele>
        <time>2021-09-01T11:32:07Z</time>
      </trkpt>
      <trkpt lat="39.514826" lon="3.220853">
        <ele>151.399</ele>
        <time>2021-09-01T11:32:08Z</time>
      </trkpt>
      <trkpt lat="39.514764" lon="3.220782">
        <ele>151.194</ele>
        <time>2021-09-01T11:32:09Z</time>
      </trkpt>
      <trkpt lat="39.514703" lon="3.220713">
        <ele>150.848</ele>
        <time>2021-09-01T11:32:10Z</time>
      </trkpt>
      <trkpt lat="39.514641" lon="3.220648">
        <ele>150.747</ele>
        <time>2021-09-01T11:32:11Z</time>
      </trkpt>
      <trkpt lat="39.514585" lon="3.220583">
        <ele>150.722</ele>
        <time>2021-09-01T11:32:12Z</time>
      </trkpt>
      <trkpt lat="39.514526" lon="3.220525">
        <ele>150.789</ele>
        <time>2021-09-01T11:32:13Z</time>
      </trkpt>
      <trkpt lat="39.514468" lon="3.220473">
        <ele>150.649</ele>
        <time>2021-09-01T11:32:14Z</time>
      </trkpt>
      <trkpt lat="39.514413" lon="3.220428">
        <ele>150.629</ele>
        <time>2021-09-01T11:32:15Z</time>
      </trkpt>
      <trkpt lat="39.514362" lon="3.220384">
        <ele>150.600</ele>
        <time>2021-09-01T11:32:16Z</time>
      </trkpt>
      <trkpt lat="39.514322" lon="3.220334">
        <ele>150.720</ele>
        <time>2021-09-01T11:32:17Z</time>
      </trkpt>
      <trkpt lat="39.514282" lon="3.220274">
        <ele>150.708</ele>
        <time>2021-09-01T11:32:18Z</time>
      </trkpt>
      <trkpt lat="39.514242" lon="3.220218">
        <ele>150.870</ele>
        <time>2021-09-01T11:32:19Z</time>
      </trkpt>
      <trkpt lat="39.514201" lon="3.220160">
        <ele>150.934</ele>
        <time>2021-09-01T11:32:20Z</time>
      </trkpt>
      <trkpt lat="39.514162" lon="3.220101">
        <ele>150.919</ele>
        <time>2021-09-01T11:32:21Z</time>
      </trkpt>
      <trkpt lat="39.514119" lon="3.220045">
        <ele>150.853</ele>
        <time>2021-09-01T11:32:22Z</time>
      </trkpt>
      <trkpt lat="39.514079" lon="3.219994">
        <ele>150.522</ele>
        <time>2021-09-01T11:32:23Z</time>
      </trkpt>
      <trkpt lat="39.514042" lon="3.219945">
        <ele>150.197</ele>
        <time>2021-09-01T11:32:24Z</time>
      </trkpt>
      <trkpt lat="39.513992" lon="3.219873">
        <ele>149.264</ele>
        <time>2021-09-01T11:32:26Z</time>
      </trkpt>
      <trkpt lat="39.513937" lon="3.219844">
        <ele>147.874</ele>
        <time>2021-09-01T11:32:29Z</time>
      </trkpt>
      <trkpt lat="39.513881" lon="3.219877">
        <ele>147.199</ele>
        <time>2021-09-01T11:32:31Z</time>
      </trkpt>
      <trkpt lat="39.513826" lon="3.219939">
        <ele>146.807</ele>
        <time>2021-09-01T11:32:33Z</time>
      </trkpt>
      <trkpt lat="39.513764" lon="3.220005">
        <ele>146.827</ele>
        <time>2021-09-01T11:32:35Z</time>
      </trkpt>
      <trkpt lat="39.513723" lon="3.220034">
        <ele>146.808</ele>
        <time>2021-09-01T11:32:36Z</time>
      </trkpt>
      <trkpt lat="39.513681" lon="3.220066">
        <ele>146.757</ele>
        <time>2021-09-01T11:32:37Z</time>
      </trkpt>
      <trkpt lat="39.513631" lon="3.220101">
        <ele>146.781</ele>
        <time>2021-09-01T11:32:38Z</time>
      </trkpt>
      <trkpt lat="39.513581" lon="3.220145">
        <ele>146.786</ele>
        <time>2021-09-01T11:32:39Z</time>
      </trkpt>
      <trkpt lat="39.513533" lon="3.220193">
        <ele>146.640</ele>
        <time>2021-09-01T11:32:40Z</time>
      </trkpt>
      <trkpt lat="39.513485" lon="3.220250">
        <ele>146.419</ele>
        <time>2021-09-01T11:32:41Z</time>
      </trkpt>
      <trkpt lat="39.513434" lon="3.220310">
        <ele>146.144</ele>
        <time>2021-09-01T11:32:42Z</time>
      </trkpt>
      <trkpt lat="39.513381" lon="3.220370">
        <ele>145.891</ele>
        <time>2021-09-01T11:32:43Z</time>
      </trkpt>
      <trkpt lat="39.513326" lon="3.220426">
        <ele>145.361</ele>
        <time>2021-09-01T11:32:44Z</time>
      </trkpt>
      <trkpt lat="39.513274" lon="3.220482">
        <ele>144.862</ele>
        <time>2021-09-01T11:32:45Z</time>
      </trkpt>
      <trkpt lat="39.513220" lon="3.220537">
        <ele>144.583</ele>
        <time>2021-09-01T11:32:46Z</time>
      </trkpt>
      <trkpt lat="39.513167" lon="3.220594">
        <ele>144.311</ele>
        <time>2021-09-01T11:32:47Z</time>
      </trkpt>
      <trkpt lat="39.513113" lon="3.220652">
        <ele>144.308</ele>
        <time>2021-09-01T11:32:48Z</time>
      </trkpt>
      <trkpt lat="39.513063" lon="3.220711">
        <ele>144.324</ele>
        <time>2021-09-01T11:32:49Z</time>
      </trkpt>
      <trkpt lat="39.513010" lon="3.220770">
        <ele>144.598</ele>
        <time>2021-09-01T11:32:50Z</time>
      </trkpt>
      <trkpt lat="39.512952" lon="3.220831">
        <ele>144.593</ele>
        <time>2021-09-01T11:32:51Z</time>
      </trkpt>
      <trkpt lat="39.512894" lon="3.220893">
        <ele>144.577</ele>
        <time>2021-09-01T11:32:52Z</time>
      </trkpt>
      <trkpt lat="39.512836" lon="3.220959">
        <ele>144.446</ele>
        <time>2021-09-01T11:32:53Z</time>
      </trkpt>
      <trkpt lat="39.512776" lon="3.221029">
        <ele>144.291</ele>
        <time>2021-09-01T11:32:54Z</time>
      </trkpt>
      <trkpt lat="39.512712" lon="3.221100">
        <ele>143.948</ele>
        <time>2021-09-01T11:32:55Z</time>
      </trkpt>
      <trkpt lat="39.512647" lon="3.221169">
        <ele>143.748</ele>
        <time>2021-09-01T11:32:56Z</time>
      </trkpt>
      <trkpt lat="39.512584" lon="3.221236">
        <ele>143.492</ele>
        <time>2021-09-01T11:32:57Z</time>
      </trkpt>
      <trkpt lat="39.512522" lon="3.221305">
        <ele>143.073</ele>
        <time>2021-09-01T11:32:58Z</time>
      </trkpt>
      <trkpt lat="39.512459" lon="3.221373">
        <ele>142.720</ele>
        <time>2021-09-01T11:32:59Z</time>
      </trkpt>
      <trkpt lat="39.512398" lon="3.221442">
        <ele>142.408</ele>
        <time>2021-09-01T11:33:00Z</time>
      </trkpt>
      <trkpt lat="39.512336" lon="3.221506">
        <ele>142.267</ele>
        <time>2021-09-01T11:33:01Z</time>
      </trkpt>
      <trkpt lat="39.512276" lon="3.221568">
        <ele>142.031</ele>
        <time>2021-09-01T11:33:02Z</time>
      </trkpt>
      <trkpt lat="39.512219" lon="3.221633">
        <ele>142.076</ele>
        <time>2021-09-01T11:33:03Z</time>
      </trkpt>
      <trkpt lat="39.512163" lon="3.221695">
        <ele>142.060</ele>
        <time>2021-09-01T11:33:04Z</time>
      </trkpt>
      <trkpt lat="39.512109" lon="3.221756">
        <ele>141.819</ele>
        <time>2021-09-01T11:33:05Z</time>
      </trkpt>
      <trkpt lat="39.512055" lon="3.221815">
        <ele>141.784</ele>
        <time>2021-09-01T11:33:06Z</time>
      </trkpt>
      <trkpt lat="39.512004" lon="3.221872">
        <ele>141.741</ele>
        <time>2021-09-01T11:33:07Z</time>
      </trkpt>
      <trkpt lat="39.511953" lon="3.221928">
        <ele>141.671</ele>
        <time>2021-09-01T11:33:08Z</time>
      </trkpt>
      <trkpt lat="39.511903" lon="3.221982">
        <ele>141.631</ele>
        <time>2021-09-01T11:33:09Z</time>
      </trkpt>
      <trkpt lat="39.511852" lon="3.222036">
        <ele>141.661</ele>
        <time>2021-09-01T11:33:10Z</time>
      </trkpt>
      <trkpt lat="39.511807" lon="3.222092">
        <ele>141.707</ele>
        <time>2021-09-01T11:33:11Z</time>
      </trkpt>
      <trkpt lat="39.511755" lon="3.222150">
        <ele>141.708</ele>
        <time>2021-09-01T11:33:12Z</time>
      </trkpt>
      <trkpt lat="39.511703" lon="3.222204">
        <ele>141.731</ele>
        <time>2021-09-01T11:33:13Z</time>
      </trkpt>
      <trkpt lat="39.511653" lon="3.222253">
        <ele>141.635</ele>
        <time>2021-09-01T11:33:14Z</time>
      </trkpt>
      <trkpt lat="39.511600" lon="3.222293">
        <ele>141.670</ele>
        <time>2021-09-01T11:33:15Z</time>
      </trkpt>
      <trkpt lat="39.511543" lon="3.222324">
        <ele>141.414</ele>
        <time>2021-09-01T11:33:16Z</time>
      </trkpt>
      <trkpt lat="39.511484" lon="3.222348">
        <ele>141.493</ele>
        <time>2021-09-01T11:33:17Z</time>
      </trkpt>
      <trkpt lat="39.511428" lon="3.222374">
        <ele>141.458</ele>
        <time>2021-09-01T11:33:18Z</time>
      </trkpt>
      <trkpt lat="39.511376" lon="3.222401">
        <ele>141.485</ele>
        <time>2021-09-01T11:33:19Z</time>
      </trkpt>
      <trkpt lat="39.511326" lon="3.222433">
        <ele>141.645</ele>
        <time>2021-09-01T11:33:20Z</time>
      </trkpt>
      <trkpt lat="39.511279" lon="3.222475">
        <ele>141.774</ele>
        <time>2021-09-01T11:33:21Z</time>
      </trkpt>
      <trkpt lat="39.511234" lon="3.222517">
        <ele>141.856</ele>
        <time>2021-09-01T11:33:22Z</time>
      </trkpt>
      <trkpt lat="39.511188" lon="3.222557">
        <ele>141.921</ele>
        <time>2021-09-01T11:33:23Z</time>
      </trkpt>
      <trkpt lat="39.511144" lon="3.222603">
        <ele>141.908</ele>
        <time>2021-09-01T11:33:24Z</time>
      </trkpt>
      <trkpt lat="39.511097" lon="3.222646">
        <ele>142.075</ele>
        <time>2021-09-01T11:33:25Z</time>
      </trkpt>
      <trkpt lat="39.511049" lon="3.222690">
        <ele>142.099</ele>
        <time>2021-09-01T11:33:26Z</time>
      </trkpt>
      <trkpt lat="39.511000" lon="3.222735">
        <ele>142.134</ele>
        <time>2021-09-01T11:33:27Z</time>
      </trkpt>
      <trkpt lat="39.510947" lon="3.222779">
        <ele>142.198</ele>
        <time>2021-09-01T11:33:28Z</time>
      </trkpt>
      <trkpt lat="39.510897" lon="3.222827">
        <ele>142.217</ele>
        <time>2021-09-01T11:33:29Z</time>
      </trkpt>
      <trkpt lat="39.510850" lon="3.222874">
        <ele>142.272</ele>
        <time>2021-09-01T11:33:30Z</time>
      </trkpt>
      <trkpt lat="39.510805" lon="3.222919">
        <ele>142.279</ele>
        <time>2021-09-01T11:33:31Z</time>
      </trkpt>
      <trkpt lat="39.510758" lon="3.222961">
        <ele>142.279</ele>
        <time>2021-09-01T11:33:32Z</time>
      </trkpt>
      <trkpt lat="39.510713" lon="3.223001">
        <ele>142.259</ele>
        <time>2021-09-01T11:33:33Z</time>
      </trkpt>
      <trkpt lat="39.510669" lon="3.223044">
        <ele>142.103</ele>
        <time>2021-09-01T11:33:34Z</time>
      </trkpt>
      <trkpt lat="39.510625" lon="3.223084">
        <ele>142.123</ele>
        <time>2021-09-01T11:33:35Z</time>
      </trkpt>
      <trkpt lat="39.510583" lon="3.223125">
        <ele>142.008</ele>
        <time>2021-09-01T11:33:36Z</time>
      </trkpt>
      <trkpt lat="39.510540" lon="3.223164">
        <ele>142.043</ele>
        <time>2021-09-01T11:33:37Z</time>
      </trkpt>
      <trkpt lat="39.510499" lon="3.223203">
        <ele>142.087</ele>
        <time>2021-09-01T11:33:38Z</time>
      </trkpt>
      <trkpt lat="39.510460" lon="3.223238">
        <ele>142.162</ele>
        <time>2021-09-01T11:33:39Z</time>
      </trkpt>
      <trkpt lat="39.510422" lon="3.223272">
        <ele>142.356</ele>
        <time>2021-09-01T11:33:40Z</time>
      </trkpt>
      <trkpt lat="39.510385" lon="3.223306">
        <ele>142.425</ele>
        <time>2021-09-01T11:33:41Z</time>
      </trkpt>
      <trkpt lat="39.510349" lon="3.223343">
        <ele>142.610</ele>
        <time>2021-09-01T11:33:42Z</time>
      </trkpt>
      <trkpt lat="39.510279" lon="3.223415">
        <ele>143.037</ele>
        <time>2021-09-01T11:33:44Z</time>
      </trkpt>
      <trkpt lat="39.510242" lon="3.223449">
        <ele>143.287</ele>
        <time>2021-09-01T11:33:45Z</time>
      </trkpt>
      <trkpt lat="39.510175" lon="3.223517">
        <ele>143.537</ele>
        <time>2021-09-01T11:33:47Z</time>
      </trkpt>
      <trkpt lat="39.510111" lon="3.223591">
        <ele>143.849</ele>
        <time>2021-09-01T11:33:49Z</time>
      </trkpt>
      <trkpt lat="39.510054" lon="3.223672">
        <ele>144.113</ele>
        <time>2021-09-01T11:33:51Z</time>
      </trkpt>
      <trkpt lat="39.510008" lon="3.223753">
        <ele>144.408</ele>
        <time>2021-09-01T11:33:53Z</time>
      </trkpt>
      <trkpt lat="39.509969" lon="3.223833">
        <ele>144.821</ele>
        <time>2021-09-01T11:33:55Z</time>
      </trkpt>
      <trkpt lat="39.509940" lon="3.223920">
        <ele>145.275</ele>
        <time>2021-09-01T11:33:57Z</time>
      </trkpt>
      <trkpt lat="39.509904" lon="3.224004">
        <ele>145.610</ele>
        <time>2021-09-01T11:33:59Z</time>
      </trkpt>
      <trkpt lat="39.509867" lon="3.224081">
        <ele>146.014</ele>
        <time>2021-09-01T11:34:01Z</time>
      </trkpt>
      <trkpt lat="39.509833" lon="3.224147">
        <ele>146.363</ele>
        <time>2021-09-01T11:34:03Z</time>
      </trkpt>
      <trkpt lat="39.509788" lon="3.224208">
        <ele>146.758</ele>
        <time>2021-09-01T11:34:05Z</time>
      </trkpt>
      <trkpt lat="39.509738" lon="3.224269">
        <ele>146.995</ele>
        <time>2021-09-01T11:34:07Z</time>
      </trkpt>
      <trkpt lat="39.509686" lon="3.224335">
        <ele>146.935</ele>
        <time>2021-09-01T11:34:09Z</time>
      </trkpt>
      <trkpt lat="39.509624" lon="3.224389">
        <ele>147.079</ele>
        <time>2021-09-01T11:34:11Z</time>
      </trkpt>
      <trkpt lat="39.509561" lon="3.224448">
        <ele>147.305</ele>
        <time>2021-09-01T11:34:13Z</time>
      </trkpt>
      <trkpt lat="39.509494" lon="3.224509">
        <ele>147.425</ele>
        <time>2021-09-01T11:34:15Z</time>
      </trkpt>
      <trkpt lat="39.509434" lon="3.224571">
        <ele>147.308</ele>
        <time>2021-09-01T11:34:17Z</time>
      </trkpt>
      <trkpt lat="39.509379" lon="3.224644">
        <ele>147.275</ele>
        <time>2021-09-01T11:34:19Z</time>
      </trkpt>
      <trkpt lat="39.509329" lon="3.224721">
        <ele>147.169</ele>
        <time>2021-09-01T11:34:21Z</time>
      </trkpt>
      <trkpt lat="39.509285" lon="3.224809">
        <ele>147.394</ele>
        <time>2021-09-01T11:34:23Z</time>
      </trkpt>
      <trkpt lat="39.509253" lon="3.224895">
        <ele>147.488</ele>
        <time>2021-09-01T11:34:25Z</time>
      </trkpt>
      <trkpt lat="39.509222" lon="3.224977">
        <ele>147.557</ele>
        <time>2021-09-01T11:34:27Z</time>
      </trkpt>
      <trkpt lat="39.509195" lon="3.225058">
        <ele>147.552</ele>
        <time>2021-09-01T11:34:29Z</time>
      </trkpt>
      <trkpt lat="39.509166" lon="3.225137">
        <ele>147.749</ele>
        <time>2021-09-01T11:34:31Z</time>
      </trkpt>
      <trkpt lat="39.509133" lon="3.225211">
        <ele>148.069</ele>
        <time>2021-09-01T11:34:33Z</time>
      </trkpt>
      <trkpt lat="39.509101" lon="3.225272">
        <ele>148.613</ele>
        <time>2021-09-01T11:34:35Z</time>
      </trkpt>
      <trkpt lat="39.509066" lon="3.225330">
        <ele>149.243</ele>
        <time>2021-09-01T11:34:37Z</time>
      </trkpt>
      <trkpt lat="39.509019" lon="3.225378">
        <ele>149.807</ele>
        <time>2021-09-01T11:34:39Z</time>
      </trkpt>
      <trkpt lat="39.508976" lon="3.225427">
        <ele>150.308</ele>
        <time>2021-09-01T11:34:41Z</time>
      </trkpt>
      <trkpt lat="39.508933" lon="3.225468">
        <ele>151.029</ele>
        <time>2021-09-01T11:34:43Z</time>
      </trkpt>
      <trkpt lat="39.508886" lon="3.225520">
        <ele>151.543</ele>
        <time>2021-09-01T11:34:45Z</time>
      </trkpt>
      <trkpt lat="39.508846" lon="3.225556">
        <ele>151.958</ele>
        <time>2021-09-01T11:34:47Z</time>
      </trkpt>
      <trkpt lat="39.508803" lon="3.225593">
        <ele>152.562</ele>
        <time>2021-09-01T11:34:49Z</time>
      </trkpt>
      <trkpt lat="39.508756" lon="3.225628">
        <ele>153.221</ele>
        <time>2021-09-01T11:34:51Z</time>
      </trkpt>
      <trkpt lat="39.508711" lon="3.225681">
        <ele>154.256</ele>
        <time>2021-09-01T11:34:55Z</time>
      </trkpt>
      <trkpt lat="39.508673" lon="3.225716">
        <ele>154.723</ele>
        <time>2021-09-01T11:34:57Z</time>
      </trkpt>
      <trkpt lat="39.508619" lon="3.225790">
        <ele>155.513</ele>
        <time>2021-09-01T11:35:01Z</time>
      </trkpt>
      <trkpt lat="39.508584" lon="3.225828">
        <ele>155.824</ele>
        <time>2021-09-01T11:35:04Z</time>
      </trkpt>
      <trkpt lat="39.508547" lon="3.225880">
        <ele>156.204</ele>
        <time>2021-09-01T11:35:06Z</time>
      </trkpt>
      <trkpt lat="39.508502" lon="3.225939">
        <ele>156.814</ele>
        <time>2021-09-01T11:35:08Z</time>
      </trkpt>
      <trkpt lat="39.508454" lon="3.225988">
        <ele>157.408</ele>
        <time>2021-09-01T11:35:10Z</time>
      </trkpt>
      <trkpt lat="39.508404" lon="3.226020">
        <ele>157.970</ele>
        <time>2021-09-01T11:35:12Z</time>
      </trkpt>
      <trkpt lat="39.508357" lon="3.226070">
        <ele>158.584</ele>
        <time>2021-09-01T11:35:14Z</time>
      </trkpt>
      <trkpt lat="39.508306" lon="3.226105">
        <ele>159.099</ele>
        <time>2021-09-01T11:35:16Z</time>
      </trkpt>
      <trkpt lat="39.508241" lon="3.226129">
        <ele>159.443</ele>
        <time>2021-09-01T11:35:19Z</time>
      </trkpt>
      <trkpt lat="39.508194" lon="3.226157">
        <ele>159.762</ele>
        <time>2021-09-01T11:35:22Z</time>
      </trkpt>
      <trkpt lat="39.508113" lon="3.226178">
        <ele>160.187</ele>
        <time>2021-09-01T11:35:25Z</time>
      </trkpt>
      <trkpt lat="39.507691" lon="3.226332">
        <ele>160.064</ele>
        <time>2021-09-01T11:35:34Z</time>
      </trkpt>
      <trkpt lat="39.507639" lon="3.226332">
        <ele>160.034</ele>
        <time>2021-09-01T11:35:35Z</time>
      </trkpt>
      <trkpt lat="39.507568" lon="3.226349">
        <ele>159.825</ele>
        <time>2021-09-01T11:35:36Z</time>
      </trkpt>
      <trkpt lat="39.507508" lon="3.226384">
        <ele>159.726</ele>
        <time>2021-09-01T11:35:37Z</time>
      </trkpt>
      <trkpt lat="39.507460" lon="3.226387">
        <ele>159.708</ele>
        <time>2021-09-01T11:35:38Z</time>
      </trkpt>
      <trkpt lat="39.507391" lon="3.226391">
        <ele>159.208</ele>
        <time>2021-09-01T11:35:40Z</time>
      </trkpt>
      <trkpt lat="39.507330" lon="3.226396">
        <ele>158.370</ele>
        <time>2021-09-01T11:35:43Z</time>
      </trkpt>
      <trkpt lat="39.507272" lon="3.226364">
        <ele>157.724</ele>
        <time>2021-09-01T11:35:46Z</time>
      </trkpt>
      <trkpt lat="39.507220" lon="3.226329">
        <ele>157.319</ele>
        <time>2021-09-01T11:35:49Z</time>
      </trkpt>
      <trkpt lat="39.507177" lon="3.226282">
        <ele>157.013</ele>
        <time>2021-09-01T11:35:51Z</time>
      </trkpt>
      <trkpt lat="39.507123" lon="3.226220">
        <ele>156.912</ele>
        <time>2021-09-01T11:35:53Z</time>
      </trkpt>
      <trkpt lat="39.507062" lon="3.226165">
        <ele>156.727</ele>
        <time>2021-09-01T11:35:55Z</time>
      </trkpt>
      <trkpt lat="39.507003" lon="3.226112">
        <ele>156.294</ele>
        <time>2021-09-01T11:35:57Z</time>
      </trkpt>
      <trkpt lat="39.506947" lon="3.226060">
        <ele>155.824</ele>
        <time>2021-09-01T11:35:59Z</time>
      </trkpt>
      <trkpt lat="39.506896" lon="3.226013">
        <ele>155.894</ele>
        <time>2021-09-01T11:36:01Z</time>
      </trkpt>
      <trkpt lat="39.506854" lon="3.225971">
        <ele>155.957</ele>
        <time>2021-09-01T11:36:03Z</time>
      </trkpt>
      <trkpt lat="39.506810" lon="3.225930">
        <ele>156.122</ele>
        <time>2021-09-01T11:36:05Z</time>
      </trkpt>
      <trkpt lat="39.506771" lon="3.225897">
        <ele>156.408</ele>
        <time>2021-09-01T11:36:07Z</time>
      </trkpt>
      <trkpt lat="39.506739" lon="3.225852">
        <ele>156.947</ele>
        <time>2021-09-01T11:36:09Z</time>
      </trkpt>
      <trkpt lat="39.506693" lon="3.225822">
        <ele>157.281</ele>
        <time>2021-09-01T11:36:11Z</time>
      </trkpt>
      <trkpt lat="39.506644" lon="3.225771">
        <ele>157.616</ele>
        <time>2021-09-01T11:36:14Z</time>
      </trkpt>
      <trkpt lat="39.506599" lon="3.225734">
        <ele>157.920</ele>
        <time>2021-09-01T11:36:16Z</time>
      </trkpt>
      <trkpt lat="39.506555" lon="3.225695">
        <ele>158.329</ele>
        <time>2021-09-01T11:36:18Z</time>
      </trkpt>
      <trkpt lat="39.506510" lon="3.225648">
        <ele>158.594</ele>
        <time>2021-09-01T11:36:20Z</time>
      </trkpt>
      <trkpt lat="39.506466" lon="3.225613">
        <ele>158.631</ele>
        <time>2021-09-01T11:36:22Z</time>
      </trkpt>
      <trkpt lat="39.506425" lon="3.225557">
        <ele>158.671</ele>
        <time>2021-09-01T11:36:24Z</time>
      </trkpt>
      <trkpt lat="39.506382" lon="3.225527">
        <ele>158.732</ele>
        <time>2021-09-01T11:36:26Z</time>
      </trkpt>
      <trkpt lat="39.506342" lon="3.225491">
        <ele>158.992</ele>
        <time>2021-09-01T11:36:28Z</time>
      </trkpt>
      <trkpt lat="39.506299" lon="3.225459">
        <ele>159.311</ele>
        <time>2021-09-01T11:36:30Z</time>
      </trkpt>
      <trkpt lat="39.506265" lon="3.225416">
        <ele>159.708</ele>
        <time>2021-09-01T11:36:32Z</time>
      </trkpt>
      <trkpt lat="39.506223" lon="3.225380">
        <ele>160.061</ele>
        <time>2021-09-01T11:36:34Z</time>
      </trkpt>
      <trkpt lat="39.506184" lon="3.225343">
        <ele>160.345</ele>
        <time>2021-09-01T11:36:36Z</time>
      </trkpt>
      <trkpt lat="39.506144" lon="3.225307">
        <ele>160.590</ele>
        <time>2021-09-01T11:36:38Z</time>
      </trkpt>
      <trkpt lat="39.506109" lon="3.225268">
        <ele>160.774</ele>
        <time>2021-09-01T11:36:40Z</time>
      </trkpt>
      <trkpt lat="39.506069" lon="3.225228">
        <ele>160.983</ele>
        <time>2021-09-01T11:36:42Z</time>
      </trkpt>
      <trkpt lat="39.506014" lon="3.225181">
        <ele>161.528</ele>
        <time>2021-09-01T11:36:45Z</time>
      </trkpt>
      <trkpt lat="39.505968" lon="3.225137">
        <ele>162.515</ele>
        <time>2021-09-01T11:36:48Z</time>
      </trkpt>
      <trkpt lat="39.505923" lon="3.225087">
        <ele>163.445</ele>
        <time>2021-09-01T11:36:51Z</time>
      </trkpt>
      <trkpt lat="39.505876" lon="3.225042">
        <ele>164.068</ele>
        <time>2021-09-01T11:36:54Z</time>
      </trkpt>
      <trkpt lat="39.505826" lon="3.225016">
        <ele>164.642</ele>
        <time>2021-09-01T11:36:57Z</time>
      </trkpt>
      <trkpt lat="39.505789" lon="3.224966">
        <ele>165.126</ele>
        <time>2021-09-01T11:37:00Z</time>
      </trkpt>
      <trkpt lat="39.505752" lon="3.224927">
        <ele>165.708</ele>
        <time>2021-09-01T11:37:03Z</time>
      </trkpt>
      <trkpt lat="39.505701" lon="3.224895">
        <ele>166.324</ele>
        <time>2021-09-01T11:37:06Z</time>
      </trkpt>
      <trkpt lat="39.505661" lon="3.224843">
        <ele>166.968</ele>
        <time>2021-09-01T11:37:09Z</time>
      </trkpt>
      <trkpt lat="39.505613" lon="3.224789">
        <ele>167.493</ele>
        <time>2021-09-01T11:37:12Z</time>
      </trkpt>
      <trkpt lat="39.505566" lon="3.224746">
        <ele>167.967</ele>
        <time>2021-09-01T11:37:15Z</time>
      </trkpt>
      <trkpt lat="39.505522" lon="3.224709">
        <ele>168.276</ele>
        <time>2021-09-01T11:37:18Z</time>
      </trkpt>
      <trkpt lat="39.505477" lon="3.224663">
        <ele>168.021</ele>
        <time>2021-09-01T11:37:21Z</time>
      </trkpt>
      <trkpt lat="39.505452" lon="3.224613">
        <ele>168.938</ele>
        <time>2021-09-01T11:37:24Z</time>
      </trkpt>
      <trkpt lat="39.505421" lon="3.224553">
        <ele>169.878</ele>
        <time>2021-09-01T11:37:27Z</time>
      </trkpt>
      <trkpt lat="39.505396" lon="3.224503">
        <ele>170.382</ele>
        <time>2021-09-01T11:37:30Z</time>
      </trkpt>
      <trkpt lat="39.505359" lon="3.224440">
        <ele>170.943</ele>
        <time>2021-09-01T11:37:33Z</time>
      </trkpt>
      <trkpt lat="39.505326" lon="3.224384">
        <ele>171.217</ele>
        <time>2021-09-01T11:37:36Z</time>
      </trkpt>
      <trkpt lat="39.505286" lon="3.224330">
        <ele>171.208</ele>
        <time>2021-09-01T11:37:39Z</time>
      </trkpt>
      <trkpt lat="39.505239" lon="3.224301">
        <ele>171.486</ele>
        <time>2021-09-01T11:37:42Z</time>
      </trkpt>
      <trkpt lat="39.505193" lon="3.224268">
        <ele>171.820</ele>
        <time>2021-09-01T11:37:45Z</time>
      </trkpt>
      <trkpt lat="39.505148" lon="3.224264">
        <ele>172.475</ele>
        <time>2021-09-01T11:37:48Z</time>
      </trkpt>
      <trkpt lat="39.505092" lon="3.224247">
        <ele>173.529</ele>
        <time>2021-09-01T11:37:52Z</time>
      </trkpt>
      <trkpt lat="39.505037" lon="3.224279">
        <ele>174.338</ele>
        <time>2021-09-01T11:37:55Z</time>
      </trkpt>
      <trkpt lat="39.504986" lon="3.224321">
        <ele>175.623</ele>
        <time>2021-09-01T11:37:59Z</time>
      </trkpt>
      <trkpt lat="39.504937" lon="3.224362">
        <ele>176.670</ele>
        <time>2021-09-01T11:38:02Z</time>
      </trkpt>
      <trkpt lat="39.504886" lon="3.224383">
        <ele>177.260</ele>
        <time>2021-09-01T11:38:05Z</time>
      </trkpt>
      <trkpt lat="39.504827" lon="3.224402">
        <ele>177.933</ele>
        <time>2021-09-01T11:38:09Z</time>
      </trkpt>
      <trkpt lat="39.504778" lon="3.224387">
        <ele>178.223</ele>
        <time>2021-09-01T11:38:12Z</time>
      </trkpt>
      <trkpt lat="39.504739" lon="3.224356">
        <ele>178.215</ele>
        <time>2021-09-01T11:38:16Z</time>
      </trkpt>
      <trkpt lat="39.504688" lon="3.224337">
        <ele>178.308</ele>
        <time>2021-09-01T11:38:19Z</time>
      </trkpt>
      <trkpt lat="39.504634" lon="3.224305">
        <ele>178.631</ele>
        <time>2021-09-01T11:38:22Z</time>
      </trkpt>
      <trkpt lat="39.504576" lon="3.224237">
        <ele>178.175</ele>
        <time>2021-09-01T11:38:25Z</time>
      </trkpt>
      <trkpt lat="39.504535" lon="3.224151">
        <ele>177.810</ele>
        <time>2021-09-01T11:38:27Z</time>
      </trkpt>
      <trkpt lat="39.504502" lon="3.224043">
        <ele>177.554</ele>
        <time>2021-09-01T11:38:29Z</time>
      </trkpt>
      <trkpt lat="39.504484" lon="3.223979">
        <ele>177.323</ele>
        <time>2021-09-01T11:38:30Z</time>
      </trkpt>
      <trkpt lat="39.504467" lon="3.223906">
        <ele>177.058</ele>
        <time>2021-09-01T11:38:31Z</time>
      </trkpt>
      <trkpt lat="39.504442" lon="3.223834">
        <ele>176.825</ele>
        <time>2021-09-01T11:38:32Z</time>
      </trkpt>
      <trkpt lat="39.504420" lon="3.223762">
        <ele>176.465</ele>
        <time>2021-09-01T11:38:33Z</time>
      </trkpt>
      <trkpt lat="39.504398" lon="3.223685">
        <ele>176.221</ele>
        <time>2021-09-01T11:38:34Z</time>
      </trkpt>
      <trkpt lat="39.504378" lon="3.223608">
        <ele>175.841</ele>
        <time>2021-09-01T11:38:35Z</time>
      </trkpt>
      <trkpt lat="39.504361" lon="3.223529">
        <ele>175.605</ele>
        <time>2021-09-01T11:38:36Z</time>
      </trkpt>
      <trkpt lat="39.504336" lon="3.223451">
        <ele>175.308</ele>
        <time>2021-09-01T11:38:37Z</time>
      </trkpt>
      <trkpt lat="39.504313" lon="3.223373">
        <ele>175.210</ele>
        <time>2021-09-01T11:38:38Z</time>
      </trkpt>
      <trkpt lat="39.504291" lon="3.223293">
        <ele>175.074</ele>
        <time>2021-09-01T11:38:39Z</time>
      </trkpt>
      <trkpt lat="39.504269" lon="3.223213">
        <ele>174.999</ele>
        <time>2021-09-01T11:38:40Z</time>
      </trkpt>
      <trkpt lat="39.504250" lon="3.223133">
        <ele>174.793</ele>
        <time>2021-09-01T11:38:41Z</time>
      </trkpt>
      <trkpt lat="39.504234" lon="3.223045">
        <ele>174.482</ele>
        <time>2021-09-01T11:38:42Z</time>
      </trkpt>
      <trkpt lat="39.504211" lon="3.222966">
        <ele>174.227</ele>
        <time>2021-09-01T11:38:43Z</time>
      </trkpt>
      <trkpt lat="39.504186" lon="3.222891">
        <ele>173.934</ele>
        <time>2021-09-01T11:38:44Z</time>
      </trkpt>
      <trkpt lat="39.504165" lon="3.222814">
        <ele>173.644</ele>
        <time>2021-09-01T11:38:45Z</time>
      </trkpt>
      <trkpt lat="39.504139" lon="3.222723">
        <ele>173.274</ele>
        <time>2021-09-01T11:38:46Z</time>
      </trkpt>
      <trkpt lat="39.504127" lon="3.222644">
        <ele>172.856</ele>
        <time>2021-09-01T11:38:47Z</time>
      </trkpt>
      <trkpt lat="39.504103" lon="3.222553">
        <ele>172.521</ele>
        <time>2021-09-01T11:38:48Z</time>
      </trkpt>
      <trkpt lat="39.504077" lon="3.222457">
        <ele>172.108</ele>
        <time>2021-09-01T11:38:49Z</time>
      </trkpt>
      <trkpt lat="39.504055" lon="3.222386">
        <ele>171.665</ele>
        <time>2021-09-01T11:38:50Z</time>
      </trkpt>
      <trkpt lat="39.504034" lon="3.222318">
        <ele>171.179</ele>
        <time>2021-09-01T11:38:51Z</time>
      </trkpt>
      <trkpt lat="39.504009" lon="3.222237">
        <ele>170.594</ele>
        <time>2021-09-01T11:38:52Z</time>
      </trkpt>
      <trkpt lat="39.503989" lon="3.222150">
        <ele>169.968</ele>
        <time>2021-09-01T11:38:53Z</time>
      </trkpt>
      <trkpt lat="39.503972" lon="3.222065">
        <ele>169.577</ele>
        <time>2021-09-01T11:38:54Z</time>
      </trkpt>
      <trkpt lat="39.503950" lon="3.221992">
        <ele>169.142</ele>
        <time>2021-09-01T11:38:55Z</time>
      </trkpt>
      <trkpt lat="39.503920" lon="3.221899">
        <ele>168.239</ele>
        <time>2021-09-01T11:38:57Z</time>
      </trkpt>
      <trkpt lat="39.503908" lon="3.221836">
        <ele>167.459</ele>
        <time>2021-09-01T11:38:59Z</time>
      </trkpt>
      <trkpt lat="39.503881" lon="3.221787">
        <ele>166.637</ele>
        <time>2021-09-01T11:39:01Z</time>
      </trkpt>
      <trkpt lat="39.503877" lon="3.221705">
        <ele>166.149</ele>
        <time>2021-09-01T11:39:03Z</time>
      </trkpt>
      <trkpt lat="39.503878" lon="3.221580">
        <ele>165.713</ele>
        <time>2021-09-01T11:39:05Z</time>
      </trkpt>
      <trkpt lat="39.503881" lon="3.221511">
        <ele>165.508</ele>
        <time>2021-09-01T11:39:06Z</time>
      </trkpt>
      <trkpt lat="39.503881" lon="3.221430">
        <ele>165.221</ele>
        <time>2021-09-01T11:39:07Z</time>
      </trkpt>
      <trkpt lat="39.503881" lon="3.221340">
        <ele>164.975</ele>
        <time>2021-09-01T11:39:08Z</time>
      </trkpt>
      <trkpt lat="39.503880" lon="3.221249">
        <ele>164.550</ele>
        <time>2021-09-01T11:39:09Z</time>
      </trkpt>
      <trkpt lat="39.503881" lon="3.221148">
        <ele>164.144</ele>
        <time>2021-09-01T11:39:10Z</time>
      </trkpt>
      <trkpt lat="39.503884" lon="3.221039">
        <ele>163.613</ele>
        <time>2021-09-01T11:39:11Z</time>
      </trkpt>
      <trkpt lat="39.503886" lon="3.220928">
        <ele>163.138</ele>
        <time>2021-09-01T11:39:12Z</time>
      </trkpt>
      <trkpt lat="39.503887" lon="3.220814">
        <ele>162.445</ele>
        <time>2021-09-01T11:39:13Z</time>
      </trkpt>
      <trkpt lat="39.503894" lon="3.220698">
        <ele>161.865</ele>
        <time>2021-09-01T11:39:14Z</time>
      </trkpt>
      <trkpt lat="39.503899" lon="3.220581">
        <ele>161.271</ele>
        <time>2021-09-01T11:39:15Z</time>
      </trkpt>
      <trkpt lat="39.503898" lon="3.220481">
        <ele>160.741</ele>
        <time>2021-09-01T11:39:16Z</time>
      </trkpt>
      <trkpt lat="39.503902" lon="3.220387">
        <ele>160.415</ele>
        <time>2021-09-01T11:39:17Z</time>
      </trkpt>
      <trkpt lat="39.503906" lon="3.220303">
        <ele>160.408</ele>
        <time>2021-09-01T11:39:18Z</time>
      </trkpt>
      <trkpt lat="39.503902" lon="3.220200">
        <ele>160.985</ele>
        <time>2021-09-01T11:39:20Z</time>
      </trkpt>
      <trkpt lat="39.503910" lon="3.220119">
        <ele>161.919</ele>
        <time>2021-09-01T11:39:22Z</time>
      </trkpt>
      <trkpt lat="39.503911" lon="3.220051">
        <ele>163.524</ele>
        <time>2021-09-01T11:39:25Z</time>
      </trkpt>
      <trkpt lat="39.503912" lon="3.219969">
        <ele>164.688</ele>
        <time>2021-09-01T11:39:28Z</time>
      </trkpt>
      <trkpt lat="39.503911" lon="3.219888">
        <ele>165.487</ele>
        <time>2021-09-01T11:39:31Z</time>
      </trkpt>
      <trkpt lat="39.503900" lon="3.219818">
        <ele>166.252</ele>
        <time>2021-09-01T11:39:34Z</time>
      </trkpt>
      <trkpt lat="39.503888" lon="3.219757">
        <ele>166.959</ele>
        <time>2021-09-01T11:39:37Z</time>
      </trkpt>
      <trkpt lat="39.503879" lon="3.219644">
        <ele>167.859</ele>
        <time>2021-09-01T11:39:42Z</time>
      </trkpt>
      <trkpt lat="39.503864" lon="3.219579">
        <ele>168.381</ele>
        <time>2021-09-01T11:39:45Z</time>
      </trkpt>
      <trkpt lat="39.503856" lon="3.219502">
        <ele>168.761</ele>
        <time>2021-09-01T11:39:48Z</time>
      </trkpt>
      <trkpt lat="39.503851" lon="3.219443">
        <ele>168.917</ele>
        <time>2021-09-01T11:39:50Z</time>
      </trkpt>
      <trkpt lat="39.503846" lon="3.219369">
        <ele>169.008</ele>
        <time>2021-09-01T11:39:52Z</time>
      </trkpt>
      <trkpt lat="39.503836" lon="3.219305">
        <ele>169.176</ele>
        <time>2021-09-01T11:39:54Z</time>
      </trkpt>
      <trkpt lat="39.503828" lon="3.219226">
        <ele>169.450</ele>
        <time>2021-09-01T11:39:57Z</time>
      </trkpt>
      <trkpt lat="39.503815" lon="3.219151">
        <ele>169.915</ele>
        <time>2021-09-01T11:40:00Z</time>
      </trkpt>
      <trkpt lat="39.503807" lon="3.219063">
        <ele>170.469</ele>
        <time>2021-09-01T11:40:03Z</time>
      </trkpt>
      <trkpt lat="39.503799" lon="3.218999">
        <ele>170.998</ele>
        <time>2021-09-01T11:40:05Z</time>
      </trkpt>
      <trkpt lat="39.503792" lon="3.218936">
        <ele>171.373</ele>
        <time>2021-09-01T11:40:07Z</time>
      </trkpt>
      <trkpt lat="39.503789" lon="3.218870">
        <ele>171.780</ele>
        <time>2021-09-01T11:40:09Z</time>
      </trkpt>
      <trkpt lat="39.503771" lon="3.218787">
        <ele>171.940</ele>
        <time>2021-09-01T11:40:12Z</time>
      </trkpt>
      <trkpt lat="39.503764" lon="3.218728">
        <ele>172.097</ele>
        <time>2021-09-01T11:40:14Z</time>
      </trkpt>
      <trkpt lat="39.503815" lon="3.219032">
        <ele>172.623</ele>
        <time>2021-09-01T11:42:39Z</time>
      </trkpt>
      <trkpt lat="39.503824" lon="3.219107">
        <ele>172.125</ele>
        <time>2021-09-01T11:42:41Z</time>
      </trkpt>
      <trkpt lat="39.503825" lon="3.219169">
        <ele>171.508</ele>
        <time>2021-09-01T11:42:43Z</time>
      </trkpt>
      <trkpt lat="39.503791" lon="3.219220">
        <ele>171.047</ele>
        <time>2021-09-01T11:42:45Z</time>
      </trkpt>
      <trkpt lat="39.503744" lon="3.219270">
        <ele>170.981</ele>
        <time>2021-09-01T11:42:48Z</time>
      </trkpt>
      <trkpt lat="39.503705" lon="3.219330">
        <ele>171.786</ele>
        <time>2021-09-01T11:42:51Z</time>
      </trkpt>
      <trkpt lat="39.503678" lon="3.219381">
        <ele>172.520</ele>
        <time>2021-09-01T11:42:54Z</time>
      </trkpt>
      <trkpt lat="39.503643" lon="3.219429">
        <ele>172.919</ele>
        <time>2021-09-01T11:42:57Z</time>
      </trkpt>
      <trkpt lat="39.503594" lon="3.219485">
        <ele>173.394</ele>
        <time>2021-09-01T11:43:00Z</time>
      </trkpt>
      <trkpt lat="39.503553" lon="3.219550">
        <ele>173.961</ele>
        <time>2021-09-01T11:43:03Z</time>
      </trkpt>
      <trkpt lat="39.503523" lon="3.219594">
        <ele>174.241</ele>
        <time>2021-09-01T11:43:05Z</time>
      </trkpt>
      <trkpt lat="39.503484" lon="3.219640">
        <ele>174.236</ele>
        <time>2021-09-01T11:43:07Z</time>
      </trkpt>
      <trkpt lat="39.503453" lon="3.219693">
        <ele>174.417</ele>
        <time>2021-09-01T11:43:09Z</time>
      </trkpt>
      <trkpt lat="39.503417" lon="3.219753">
        <ele>174.518</ele>
        <time>2021-09-01T11:43:12Z</time>
      </trkpt>
      <trkpt lat="39.503337" lon="3.219864">
        <ele>174.708</ele>
        <time>2021-09-01T11:43:18Z</time>
      </trkpt>
      <trkpt lat="39.503304" lon="3.219912">
        <ele>174.681</ele>
        <time>2021-09-01T11:43:20Z</time>
      </trkpt>
      <trkpt lat="39.503274" lon="3.219959">
        <ele>174.485</ele>
        <time>2021-09-01T11:43:22Z</time>
      </trkpt>
      <trkpt lat="39.503241" lon="3.220013">
        <ele>174.120</ele>
        <time>2021-09-01T11:43:24Z</time>
      </trkpt>
      <trkpt lat="39.503194" lon="3.220079">
        <ele>173.734</ele>
        <time>2021-09-01T11:43:26Z</time>
      </trkpt>
      <trkpt lat="39.503144" lon="3.220146">
        <ele>173.343</ele>
        <time>2021-09-01T11:43:28Z</time>
      </trkpt>
      <trkpt lat="39.503098" lon="3.220211">
        <ele>173.088</ele>
        <time>2021-09-01T11:43:30Z</time>
      </trkpt>
      <trkpt lat="39.503059" lon="3.220268">
        <ele>173.025</ele>
        <time>2021-09-01T11:43:32Z</time>
      </trkpt>
      <trkpt lat="39.503018" lon="3.220339">
        <ele>173.015</ele>
        <time>2021-09-01T11:43:34Z</time>
      </trkpt>
      <trkpt lat="39.502972" lon="3.220412">
        <ele>173.043</ele>
        <time>2021-09-01T11:43:36Z</time>
      </trkpt>
      <trkpt lat="39.502932" lon="3.220472">
        <ele>173.064</ele>
        <time>2021-09-01T11:43:38Z</time>
      </trkpt>
      <trkpt lat="39.502901" lon="3.220515">
        <ele>172.810</ele>
        <time>2021-09-01T11:43:40Z</time>
      </trkpt>
      <trkpt lat="39.502865" lon="3.220560">
        <ele>172.508</ele>
        <time>2021-09-01T11:43:42Z</time>
      </trkpt>
      <trkpt lat="39.502826" lon="3.220614">
        <ele>172.242</ele>
        <time>2021-09-01T11:43:44Z</time>
      </trkpt>
      <trkpt lat="39.502783" lon="3.220659">
        <ele>172.066</ele>
        <time>2021-09-01T11:43:46Z</time>
      </trkpt>
      <trkpt lat="39.502758" lon="3.220716">
        <ele>171.931</ele>
        <time>2021-09-01T11:43:48Z</time>
      </trkpt>
      <trkpt lat="39.502731" lon="3.220768">
        <ele>171.575</ele>
        <time>2021-09-01T11:43:50Z</time>
      </trkpt>
      <trkpt lat="39.502683" lon="3.220819">
        <ele>171.254</ele>
        <time>2021-09-01T11:43:52Z</time>
      </trkpt>
      <trkpt lat="39.502639" lon="3.220893">
        <ele>171.069</ele>
        <time>2021-09-01T11:43:54Z</time>
      </trkpt>
      <trkpt lat="39.502590" lon="3.220975">
        <ele>171.016</ele>
        <time>2021-09-01T11:43:56Z</time>
      </trkpt>
      <trkpt lat="39.502551" lon="3.221037">
        <ele>171.286</ele>
        <time>2021-09-01T11:43:58Z</time>
      </trkpt>
      <trkpt lat="39.502505" lon="3.221088">
        <ele>171.513</ele>
        <time>2021-09-01T11:44:00Z</time>
      </trkpt>
      <trkpt lat="39.502467" lon="3.221141">
        <ele>171.843</ele>
        <time>2021-09-01T11:44:02Z</time>
      </trkpt>
      <trkpt lat="39.502432" lon="3.221193">
        <ele>172.107</ele>
        <time>2021-09-01T11:44:03Z</time>
      </trkpt>
      <trkpt lat="39.502400" lon="3.221244">
        <ele>172.408</ele>
        <time>2021-09-01T11:44:06Z</time>
      </trkpt>
      <trkpt lat="39.502360" lon="3.221291">
        <ele>172.649</ele>
        <time>2021-09-01T11:44:08Z</time>
      </trkpt>
      <trkpt lat="39.502316" lon="3.221344">
        <ele>172.933</ele>
        <time>2021-09-01T11:44:10Z</time>
      </trkpt>
      <trkpt lat="39.502283" lon="3.221384">
        <ele>173.118</ele>
        <time>2021-09-01T11:44:12Z</time>
      </trkpt>
      <trkpt lat="39.502246" lon="3.221440">
        <ele>173.192</ele>
        <time>2021-09-01T11:44:14Z</time>
      </trkpt>
      <trkpt lat="39.502213" lon="3.221494">
        <ele>173.111</ele>
        <time>2021-09-01T11:44:16Z</time>
      </trkpt>
      <trkpt lat="39.502177" lon="3.221550">
        <ele>173.076</ele>
        <time>2021-09-01T11:44:18Z</time>
      </trkpt>
      <trkpt lat="39.502138" lon="3.221613">
        <ele>172.893</ele>
        <time>2021-09-01T11:44:20Z</time>
      </trkpt>
      <trkpt lat="39.502092" lon="3.221685">
        <ele>172.513</ele>
        <time>2021-09-01T11:44:22Z</time>
      </trkpt>
      <trkpt lat="39.502044" lon="3.221744">
        <ele>172.355</ele>
        <time>2021-09-01T11:44:24Z</time>
      </trkpt>
      <trkpt lat="39.502002" lon="3.221800">
        <ele>172.107</ele>
        <time>2021-09-01T11:44:26Z</time>
      </trkpt>
      <trkpt lat="39.501947" lon="3.221867">
        <ele>172.117</ele>
        <time>2021-09-01T11:44:28Z</time>
      </trkpt>
      <trkpt lat="39.501910" lon="3.221928">
        <ele>171.808</ele>
        <time>2021-09-01T11:44:30Z</time>
      </trkpt>
      <trkpt lat="39.501875" lon="3.221989">
        <ele>171.833</ele>
        <time>2021-09-01T11:44:32Z</time>
      </trkpt>
      <trkpt lat="39.501841" lon="3.222034">
        <ele>172.077</ele>
        <time>2021-09-01T11:44:34Z</time>
      </trkpt>
      <trkpt lat="39.501799" lon="3.222103">
        <ele>172.692</ele>
        <time>2021-09-01T11:44:37Z</time>
      </trkpt>
      <trkpt lat="39.501766" lon="3.222151">
        <ele>173.096</ele>
        <time>2021-09-01T11:44:39Z</time>
      </trkpt>
      <trkpt lat="39.501733" lon="3.222198">
        <ele>173.285</ele>
        <time>2021-09-01T11:44:41Z</time>
      </trkpt>
      <trkpt lat="39.501705" lon="3.222249">
        <ele>173.490</ele>
        <time>2021-09-01T11:44:43Z</time>
      </trkpt>
      <trkpt lat="39.501671" lon="3.222300">
        <ele>173.857</ele>
        <time>2021-09-01T11:44:45Z</time>
      </trkpt>
      <trkpt lat="39.501634" lon="3.222347">
        <ele>174.117</ele>
        <time>2021-09-01T11:44:47Z</time>
      </trkpt>
      <trkpt lat="39.501596" lon="3.222401">
        <ele>174.461</ele>
        <time>2021-09-01T11:44:50Z</time>
      </trkpt>
      <trkpt lat="39.501560" lon="3.222454">
        <ele>174.721</ele>
        <time>2021-09-01T11:44:52Z</time>
      </trkpt>
      <trkpt lat="39.501528" lon="3.222496">
        <ele>174.813</ele>
        <time>2021-09-01T11:44:54Z</time>
      </trkpt>
      <trkpt lat="39.501498" lon="3.222546">
        <ele>174.908</ele>
        <time>2021-09-01T11:44:57Z</time>
      </trkpt>
      <trkpt lat="39.501462" lon="3.222587">
        <ele>175.034</ele>
        <time>2021-09-01T11:44:59Z</time>
      </trkpt>
      <trkpt lat="39.501422" lon="3.222635">
        <ele>175.028</ele>
        <time>2021-09-01T11:45:02Z</time>
      </trkpt>
      <trkpt lat="39.501271" lon="3.222860">
        <ele>174.943</ele>
        <time>2021-09-01T11:46:57Z</time>
      </trkpt>
      <trkpt lat="39.501237" lon="3.222911">
        <ele>174.987</ele>
        <time>2021-09-01T11:47:00Z</time>
      </trkpt>
      <trkpt lat="39.501123" lon="3.223070">
        <ele>174.546</ele>
        <time>2021-09-01T11:47:10Z</time>
      </trkpt>
      <trkpt lat="39.501092" lon="3.223119">
        <ele>174.351</ele>
        <time>2021-09-01T11:47:12Z</time>
      </trkpt>
      <trkpt lat="39.501048" lon="3.223181">
        <ele>174.378</ele>
        <time>2021-09-01T11:47:14Z</time>
      </trkpt>
      <trkpt lat="39.501004" lon="3.223246">
        <ele>174.468</ele>
        <time>2021-09-01T11:47:16Z</time>
      </trkpt>
      <trkpt lat="39.500959" lon="3.223304">
        <ele>174.673</ele>
        <time>2021-09-01T11:47:18Z</time>
      </trkpt>
      <trkpt lat="39.500923" lon="3.223356">
        <ele>174.785</ele>
        <time>2021-09-01T11:47:20Z</time>
      </trkpt>
      <trkpt lat="39.500886" lon="3.223411">
        <ele>174.913</ele>
        <time>2021-09-01T11:47:22Z</time>
      </trkpt>
      <trkpt lat="39.500849" lon="3.223466">
        <ele>175.308</ele>
        <time>2021-09-01T11:47:24Z</time>
      </trkpt>
      <trkpt lat="39.500807" lon="3.223524">
        <ele>175.765</ele>
        <time>2021-09-01T11:47:26Z</time>
      </trkpt>
      <trkpt lat="39.500765" lon="3.223583">
        <ele>176.149</ele>
        <time>2021-09-01T11:47:28Z</time>
      </trkpt>
      <trkpt lat="39.500727" lon="3.223647">
        <ele>176.264</ele>
        <time>2021-09-01T11:47:30Z</time>
      </trkpt>
      <trkpt lat="39.500689" lon="3.223696">
        <ele>176.338</ele>
        <time>2021-09-01T11:47:32Z</time>
      </trkpt>
      <trkpt lat="39.500653" lon="3.223739">
        <ele>176.357</ele>
        <time>2021-09-01T11:47:34Z</time>
      </trkpt>
      <trkpt lat="39.500612" lon="3.223800">
        <ele>176.322</ele>
        <time>2021-09-01T11:47:36Z</time>
      </trkpt>
      <trkpt lat="39.500573" lon="3.223874">
        <ele>176.339</ele>
        <time>2021-09-01T11:47:38Z</time>
      </trkpt>
      <trkpt lat="39.500526" lon="3.223928">
        <ele>176.599</ele>
        <time>2021-09-01T11:47:40Z</time>
      </trkpt>
      <trkpt lat="39.500494" lon="3.223993">
        <ele>176.749</ele>
        <time>2021-09-01T11:47:42Z</time>
      </trkpt>
      <trkpt lat="39.500466" lon="3.224044">
        <ele>176.902</ele>
        <time>2021-09-01T11:47:44Z</time>
      </trkpt>
      <trkpt lat="39.500427" lon="3.224093">
        <ele>177.122</ele>
        <time>2021-09-01T11:47:46Z</time>
      </trkpt>
      <trkpt lat="39.500405" lon="3.224147">
        <ele>177.308</ele>
        <time>2021-09-01T11:47:49Z</time>
      </trkpt>
      <trkpt lat="39.500359" lon="3.224190">
        <ele>177.552</ele>
        <time>2021-09-01T11:47:52Z</time>
      </trkpt>
      <trkpt lat="39.500325" lon="3.224238">
        <ele>177.946</ele>
        <time>2021-09-01T11:47:54Z</time>
      </trkpt>
      <trkpt lat="39.500292" lon="3.224290">
        <ele>178.581</ele>
        <time>2021-09-01T11:47:57Z</time>
      </trkpt>
      <trkpt lat="39.500234" lon="3.224371">
        <ele>179.435</ele>
        <time>2021-09-01T11:48:02Z</time>
      </trkpt>
      <trkpt lat="39.500197" lon="3.224420">
        <ele>179.924</ele>
        <time>2021-09-01T11:48:05Z</time>
      </trkpt>
      <trkpt lat="39.500072" lon="3.224595">
        <ele>181.789</ele>
        <time>2021-09-01T11:48:15Z</time>
      </trkpt>
      <trkpt lat="39.500036" lon="3.224659">
        <ele>182.426</ele>
        <time>2021-09-01T11:48:18Z</time>
      </trkpt>
      <trkpt lat="39.500003" lon="3.224709">
        <ele>183.016</ele>
        <time>2021-09-01T11:48:21Z</time>
      </trkpt>
      <trkpt lat="39.499963" lon="3.224761">
        <ele>183.328</ele>
        <time>2021-09-01T11:48:23Z</time>
      </trkpt>
      <trkpt lat="39.499930" lon="3.224804">
        <ele>183.689</ele>
        <time>2021-09-01T11:48:25Z</time>
      </trkpt>
      <trkpt lat="39.499894" lon="3.224851">
        <ele>183.917</ele>
        <time>2021-09-01T11:48:27Z</time>
      </trkpt>
      <trkpt lat="39.499789" lon="3.225009">
        <ele>185.108</ele>
        <time>2021-09-01T11:48:45Z</time>
      </trkpt>
      <trkpt lat="39.499746" lon="3.225065">
        <ele>185.510</ele>
        <time>2021-09-01T11:48:48Z</time>
      </trkpt>
      <trkpt lat="39.499720" lon="3.225131">
        <ele>186.284</ele>
        <time>2021-09-01T11:48:51Z</time>
      </trkpt>
      <trkpt lat="39.499683" lon="3.225181">
        <ele>187.039</ele>
        <time>2021-09-01T11:48:54Z</time>
      </trkpt>
      <trkpt lat="39.499643" lon="3.225233">
        <ele>187.733</ele>
        <time>2021-09-01T11:48:57Z</time>
      </trkpt>
      <trkpt lat="39.499485" lon="3.225457">
        <ele>190.572</ele>
        <time>2021-09-01T11:49:11Z</time>
      </trkpt>
      <trkpt lat="39.499451" lon="3.225520">
        <ele>191.147</ele>
        <time>2021-09-01T11:49:14Z</time>
      </trkpt>
      <trkpt lat="39.499419" lon="3.225563">
        <ele>191.514</ele>
        <time>2021-09-01T11:49:16Z</time>
      </trkpt>
      <trkpt lat="39.499379" lon="3.225619">
        <ele>192.164</ele>
        <time>2021-09-01T11:49:19Z</time>
      </trkpt>
      <trkpt lat="39.499347" lon="3.225666">
        <ele>192.639</ele>
        <time>2021-09-01T11:49:21Z</time>
      </trkpt>
      <trkpt lat="39.499313" lon="3.225713">
        <ele>192.901</ele>
        <time>2021-09-01T11:49:23Z</time>
      </trkpt>
      <trkpt lat="39.499269" lon="3.225780">
        <ele>193.321</ele>
        <time>2021-09-01T11:49:26Z</time>
      </trkpt>
      <trkpt lat="39.499235" lon="3.225832">
        <ele>193.508</ele>
        <time>2021-09-01T11:49:28Z</time>
      </trkpt>
      <trkpt lat="39.499205" lon="3.225887">
        <ele>193.771</ele>
        <time>2021-09-01T11:49:30Z</time>
      </trkpt>
      <trkpt lat="39.499174" lon="3.225937">
        <ele>193.865</ele>
        <time>2021-09-01T11:49:32Z</time>
      </trkpt>
      <trkpt lat="39.499140" lon="3.225983">
        <ele>193.830</ele>
        <time>2021-09-01T11:49:34Z</time>
      </trkpt>
      <trkpt lat="39.499106" lon="3.226032">
        <ele>193.874</ele>
        <time>2021-09-01T11:49:36Z</time>
      </trkpt>
      <trkpt lat="39.499060" lon="3.226096">
        <ele>193.663</ele>
        <time>2021-09-01T11:49:38Z</time>
      </trkpt>
      <trkpt lat="39.499013" lon="3.226163">
        <ele>193.478</ele>
        <time>2021-09-01T11:49:40Z</time>
      </trkpt>
      <trkpt lat="39.498971" lon="3.226213">
        <ele>193.185</ele>
        <time>2021-09-01T11:49:42Z</time>
      </trkpt>
      <trkpt lat="39.498933" lon="3.226267">
        <ele>192.765</ele>
        <time>2021-09-01T11:49:44Z</time>
      </trkpt>
      <trkpt lat="39.498894" lon="3.226310">
        <ele>192.255</ele>
        <time>2021-09-01T11:49:46Z</time>
      </trkpt>
      <trkpt lat="39.498847" lon="3.226371">
        <ele>191.607</ele>
        <time>2021-09-01T11:49:49Z</time>
      </trkpt>
      <trkpt lat="39.498808" lon="3.226434">
        <ele>190.817</ele>
        <time>2021-09-01T11:49:52Z</time>
      </trkpt>
      <trkpt lat="39.498791" lon="3.226489">
        <ele>190.308</ele>
        <time>2021-09-01T11:49:54Z</time>
      </trkpt>
      <trkpt lat="39.498767" lon="3.226550">
        <ele>189.963</ele>
        <time>2021-09-01T11:49:56Z</time>
      </trkpt>
      <trkpt lat="39.498731" lon="3.226642">
        <ele>188.597</ele>
        <time>2021-09-01T11:50:03Z</time>
      </trkpt>
      <trkpt lat="39.498713" lon="3.226714">
        <ele>188.382</ele>
        <time>2021-09-01T11:50:05Z</time>
      </trkpt>
      <trkpt lat="39.498674" lon="3.226821">
        <ele>187.926</ele>
        <time>2021-09-01T11:50:07Z</time>
      </trkpt>
      <trkpt lat="39.498650" lon="3.226881">
        <ele>187.795</ele>
        <time>2021-09-01T11:50:08Z</time>
      </trkpt>
      <trkpt lat="39.498630" lon="3.226942">
        <ele>187.460</ele>
        <time>2021-09-01T11:50:09Z</time>
      </trkpt>
      <trkpt lat="39.498606" lon="3.227012">
        <ele>187.077</ele>
        <time>2021-09-01T11:50:10Z</time>
      </trkpt>
      <trkpt lat="39.498582" lon="3.227083">
        <ele>186.777</ele>
        <time>2021-09-01T11:50:11Z</time>
      </trkpt>
      <trkpt lat="39.498554" lon="3.227158">
        <ele>186.333</ele>
        <time>2021-09-01T11:50:12Z</time>
      </trkpt>
      <trkpt lat="39.498530" lon="3.227229">
        <ele>186.023</ele>
        <time>2021-09-01T11:50:13Z</time>
      </trkpt>
      <trkpt lat="39.498498" lon="3.227308">
        <ele>185.615</ele>
        <time>2021-09-01T11:50:14Z</time>
      </trkpt>
      <trkpt lat="39.498466" lon="3.227391">
        <ele>185.108</ele>
        <time>2021-09-01T11:50:15Z</time>
      </trkpt>
      <trkpt lat="39.498433" lon="3.227476">
        <ele>184.721</ele>
        <time>2021-09-01T11:50:16Z</time>
      </trkpt>
      <trkpt lat="39.498402" lon="3.227559">
        <ele>184.245</ele>
        <time>2021-09-01T11:50:17Z</time>
      </trkpt>
      <trkpt lat="39.498370" lon="3.227646">
        <ele>183.820</ele>
        <time>2021-09-01T11:50:18Z</time>
      </trkpt>
      <trkpt lat="39.498337" lon="3.227730">
        <ele>183.494</ele>
        <time>2021-09-01T11:50:19Z</time>
      </trkpt>
      <trkpt lat="39.498306" lon="3.227816">
        <ele>183.263</ele>
        <time>2021-09-01T11:50:20Z</time>
      </trkpt>
      <trkpt lat="39.498272" lon="3.227898">
        <ele>183.018</ele>
        <time>2021-09-01T11:50:21Z</time>
      </trkpt>
      <trkpt lat="39.498241" lon="3.227980">
        <ele>182.725</ele>
        <time>2021-09-01T11:50:22Z</time>
      </trkpt>
      <trkpt lat="39.498208" lon="3.228058">
        <ele>182.565</ele>
        <time>2021-09-01T11:50:23Z</time>
      </trkpt>
      <trkpt lat="39.498177" lon="3.228135">
        <ele>182.242</ele>
        <time>2021-09-01T11:50:24Z</time>
      </trkpt>
      <trkpt lat="39.498147" lon="3.228216">
        <ele>181.822</ele>
        <time>2021-09-01T11:50:25Z</time>
      </trkpt>
      <trkpt lat="39.498117" lon="3.228297">
        <ele>181.314</ele>
        <time>2021-09-01T11:50:26Z</time>
      </trkpt>
      <trkpt lat="39.498082" lon="3.228384">
        <ele>180.808</ele>
        <time>2021-09-01T11:50:27Z</time>
      </trkpt>
      <trkpt lat="39.498039" lon="3.228471">
        <ele>180.362</ele>
        <time>2021-09-01T11:50:28Z</time>
      </trkpt>
      <trkpt lat="39.497983" lon="3.228552">
        <ele>179.826</ele>
        <time>2021-09-01T11:50:29Z</time>
      </trkpt>
      <trkpt lat="39.497918" lon="3.228629">
        <ele>179.351</ele>
        <time>2021-09-01T11:50:30Z</time>
      </trkpt>
      <trkpt lat="39.497851" lon="3.228704">
        <ele>178.975</ele>
        <time>2021-09-01T11:50:31Z</time>
      </trkpt>
      <trkpt lat="39.497791" lon="3.228775">
        <ele>178.464</ele>
        <time>2021-09-01T11:50:32Z</time>
      </trkpt>
      <trkpt lat="39.497728" lon="3.228841">
        <ele>178.029</ele>
        <time>2021-09-01T11:50:33Z</time>
      </trkpt>
      <trkpt lat="39.497673" lon="3.228906">
        <ele>177.636</ele>
        <time>2021-09-01T11:50:34Z</time>
      </trkpt>
      <trkpt lat="39.497619" lon="3.228970">
        <ele>177.596</ele>
        <time>2021-09-01T11:50:35Z</time>
      </trkpt>
      <trkpt lat="39.497561" lon="3.229036">
        <ele>177.461</ele>
        <time>2021-09-01T11:50:36Z</time>
      </trkpt>
      <trkpt lat="39.497501" lon="3.229103">
        <ele>177.121</ele>
        <time>2021-09-01T11:50:37Z</time>
      </trkpt>
      <trkpt lat="39.497443" lon="3.229169">
        <ele>176.813</ele>
        <time>2021-09-01T11:50:38Z</time>
      </trkpt>
      <trkpt lat="39.497385" lon="3.229236">
        <ele>176.408</ele>
        <time>2021-09-01T11:50:39Z</time>
      </trkpt>
      <trkpt lat="39.497322" lon="3.229304">
        <ele>175.614</ele>
        <time>2021-09-01T11:50:40Z</time>
      </trkpt>
      <trkpt lat="39.497262" lon="3.229370">
        <ele>174.698</ele>
        <time>2021-09-01T11:50:41Z</time>
      </trkpt>
      <trkpt lat="39.497194" lon="3.229434">
        <ele>173.713</ele>
        <time>2021-09-01T11:50:42Z</time>
      </trkpt>
      <trkpt lat="39.497122" lon="3.229493">
        <ele>172.737</ele>
        <time>2021-09-01T11:50:43Z</time>
      </trkpt>
      <trkpt lat="39.497044" lon="3.229548">
        <ele>171.766</ele>
        <time>2021-09-01T11:50:44Z</time>
      </trkpt>
      <trkpt lat="39.496978" lon="3.229605">
        <ele>170.931</ele>
        <time>2021-09-01T11:50:45Z</time>
      </trkpt>
      <trkpt lat="39.496917" lon="3.229650">
        <ele>170.248</ele>
        <time>2021-09-01T11:50:46Z</time>
      </trkpt>
      <trkpt lat="39.496872" lon="3.229690">
        <ele>169.378</ele>
        <time>2021-09-01T11:50:47Z</time>
      </trkpt>
      <trkpt lat="39.496836" lon="3.229747">
        <ele>168.578</ele>
        <time>2021-09-01T11:50:48Z</time>
      </trkpt>
      <trkpt lat="39.496813" lon="3.229808">
        <ele>167.633</ele>
        <time>2021-09-01T11:50:49Z</time>
      </trkpt>
      <trkpt lat="39.496785" lon="3.229870">
        <ele>166.826</ele>
        <time>2021-09-01T11:50:50Z</time>
      </trkpt>
      <trkpt lat="39.496762" lon="3.229944">
        <ele>166.008</ele>
        <time>2021-09-01T11:50:51Z</time>
      </trkpt>
      <trkpt lat="39.496748" lon="3.230021">
        <ele>165.375</ele>
        <time>2021-09-01T11:50:52Z</time>
      </trkpt>
      <trkpt lat="39.496743" lon="3.230109">
        <ele>164.569</ele>
        <time>2021-09-01T11:50:53Z</time>
      </trkpt>
      <trkpt lat="39.496751" lon="3.230207">
        <ele>163.714</ele>
        <time>2021-09-01T11:50:54Z</time>
      </trkpt>
      <trkpt lat="39.496766" lon="3.230307">
        <ele>162.888</ele>
        <time>2021-09-01T11:50:55Z</time>
      </trkpt>
      <trkpt lat="39.496783" lon="3.230411">
        <ele>161.927</ele>
        <time>2021-09-01T11:50:56Z</time>
      </trkpt>
      <trkpt lat="39.496794" lon="3.230519">
        <ele>161.042</ele>
        <time>2021-09-01T11:50:57Z</time>
      </trkpt>
      <trkpt lat="39.496806" lon="3.230615">
        <ele>160.339</ele>
        <time>2021-09-01T11:50:58Z</time>
      </trkpt>
      <trkpt lat="39.496817" lon="3.230700">
        <ele>159.759</ele>
        <time>2021-09-01T11:50:59Z</time>
      </trkpt>
      <trkpt lat="39.496822" lon="3.230768">
        <ele>159.093</ele>
        <time>2021-09-01T11:51:00Z</time>
      </trkpt>
      <trkpt lat="39.496819" lon="3.230835">
        <ele>157.765</ele>
        <time>2021-09-01T11:51:02Z</time>
      </trkpt>
      <trkpt lat="39.496753" lon="3.230928">
        <ele>155.221</ele>
        <time>2021-09-01T11:51:16Z</time>
      </trkpt>
      <trkpt lat="39.496671" lon="3.230961">
        <ele>155.008</ele>
        <time>2021-09-01T11:51:18Z</time>
      </trkpt>
      <trkpt lat="39.496591" lon="3.231011">
        <ele>154.817</ele>
        <time>2021-09-01T11:51:20Z</time>
      </trkpt>
      <trkpt lat="39.496546" lon="3.231041">
        <ele>154.721</ele>
        <time>2021-09-01T11:51:21Z</time>
      </trkpt>
      <trkpt lat="39.496505" lon="3.231076">
        <ele>154.456</ele>
        <time>2021-09-01T11:51:22Z</time>
      </trkpt>
      <trkpt lat="39.496428" lon="3.231131">
        <ele>153.970</ele>
        <time>2021-09-01T11:51:24Z</time>
      </trkpt>
      <trkpt lat="39.496355" lon="3.231177">
        <ele>153.549</ele>
        <time>2021-09-01T11:51:26Z</time>
      </trkpt>
      <trkpt lat="39.496286" lon="3.231229">
        <ele>153.324</ele>
        <time>2021-09-01T11:51:28Z</time>
      </trkpt>
      <trkpt lat="39.496214" lon="3.231281">
        <ele>153.261</ele>
        <time>2021-09-01T11:51:30Z</time>
      </trkpt>
      <trkpt lat="39.496132" lon="3.231332">
        <ele>153.141</ele>
        <time>2021-09-01T11:51:32Z</time>
      </trkpt>
      <trkpt lat="39.496055" lon="3.231376">
        <ele>152.975</ele>
        <time>2021-09-01T11:51:34Z</time>
      </trkpt>
      <trkpt lat="39.495962" lon="3.231412">
        <ele>152.728</ele>
        <time>2021-09-01T11:51:36Z</time>
      </trkpt>
      <trkpt lat="39.495915" lon="3.231430">
        <ele>152.620</ele>
        <time>2021-09-01T11:51:37Z</time>
      </trkpt>
      <trkpt lat="39.495831" lon="3.231458">
        <ele>152.508</ele>
        <time>2021-09-01T11:51:39Z</time>
      </trkpt>
      <trkpt lat="39.495787" lon="3.231474">
        <ele>152.425</ele>
        <time>2021-09-01T11:51:40Z</time>
      </trkpt>
      <trkpt lat="39.495735" lon="3.231489">
        <ele>152.339</ele>
        <time>2021-09-01T11:51:41Z</time>
      </trkpt>
      <trkpt lat="39.495685" lon="3.231494">
        <ele>152.354</ele>
        <time>2021-09-01T11:51:42Z</time>
      </trkpt>
      <trkpt lat="39.495631" lon="3.231503">
        <ele>152.428</ele>
        <time>2021-09-01T11:51:43Z</time>
      </trkpt>
      <trkpt lat="39.495580" lon="3.231509">
        <ele>152.527</ele>
        <time>2021-09-01T11:51:44Z</time>
      </trkpt>
      <trkpt lat="39.495526" lon="3.231525">
        <ele>152.532</ele>
        <time>2021-09-01T11:51:45Z</time>
      </trkpt>
      <trkpt lat="39.495470" lon="3.231543">
        <ele>152.549</ele>
        <time>2021-09-01T11:51:46Z</time>
      </trkpt>
      <trkpt lat="39.495411" lon="3.231561">
        <ele>152.469</ele>
        <time>2021-09-01T11:51:47Z</time>
      </trkpt>
      <trkpt lat="39.495348" lon="3.231584">
        <ele>151.783</ele>
        <time>2021-09-01T11:51:48Z</time>
      </trkpt>
      <trkpt lat="39.495286" lon="3.231616">
        <ele>151.125</ele>
        <time>2021-09-01T11:51:49Z</time>
      </trkpt>
      <trkpt lat="39.495226" lon="3.231659">
        <ele>150.517</ele>
        <time>2021-09-01T11:51:50Z</time>
      </trkpt>
      <trkpt lat="39.495170" lon="3.231715">
        <ele>149.908</ele>
        <time>2021-09-01T11:51:51Z</time>
      </trkpt>
      <trkpt lat="39.495117" lon="3.231777">
        <ele>149.446</ele>
        <time>2021-09-01T11:51:52Z</time>
      </trkpt>
      <trkpt lat="39.495061" lon="3.231835">
        <ele>149.370</ele>
        <time>2021-09-01T11:51:53Z</time>
      </trkpt>
      <trkpt lat="39.495005" lon="3.231893">
        <ele>149.345</ele>
        <time>2021-09-01T11:51:54Z</time>
      </trkpt>
      <trkpt lat="39.494946" lon="3.231947">
        <ele>149.349</ele>
        <time>2021-09-01T11:51:55Z</time>
      </trkpt>
      <trkpt lat="39.494885" lon="3.231994">
        <ele>149.078</ele>
        <time>2021-09-01T11:51:56Z</time>
      </trkpt>
      <trkpt lat="39.494823" lon="3.232039">
        <ele>148.893</ele>
        <time>2021-09-01T11:51:57Z</time>
      </trkpt>
      <trkpt lat="39.494755" lon="3.232080">
        <ele>148.360</ele>
        <time>2021-09-01T11:51:58Z</time>
      </trkpt>
      <trkpt lat="39.494688" lon="3.232114">
        <ele>147.820</ele>
        <time>2021-09-01T11:51:59Z</time>
      </trkpt>
      <trkpt lat="39.494613" lon="3.232137">
        <ele>147.394</ele>
        <time>2021-09-01T11:52:00Z</time>
      </trkpt>
      <trkpt lat="39.494536" lon="3.232161">
        <ele>146.957</ele>
        <time>2021-09-01T11:52:01Z</time>
      </trkpt>
      <trkpt lat="39.494458" lon="3.232180">
        <ele>146.522</ele>
        <time>2021-09-01T11:52:02Z</time>
      </trkpt>
      <trkpt lat="39.494380" lon="3.232199">
        <ele>146.208</ele>
        <time>2021-09-01T11:52:03Z</time>
      </trkpt>
      <trkpt lat="39.494305" lon="3.232219">
        <ele>146.017</ele>
        <time>2021-09-01T11:52:04Z</time>
      </trkpt>
      <trkpt lat="39.494238" lon="3.232243">
        <ele>145.641</ele>
        <time>2021-09-01T11:52:05Z</time>
      </trkpt>
      <trkpt lat="39.494188" lon="3.232288">
        <ele>145.436</ele>
        <time>2021-09-01T11:52:06Z</time>
      </trkpt>
      <trkpt lat="39.494160" lon="3.232349">
        <ele>145.120</ele>
        <time>2021-09-01T11:52:07Z</time>
      </trkpt>
      <trkpt lat="39.494150" lon="3.232423">
        <ele>145.089</ele>
        <time>2021-09-01T11:52:08Z</time>
      </trkpt>
      <trkpt lat="39.494152" lon="3.232493">
        <ele>145.064</ele>
        <time>2021-09-01T11:52:09Z</time>
      </trkpt>
      <trkpt lat="39.494157" lon="3.232563">
        <ele>145.091</ele>
        <time>2021-09-01T11:52:10Z</time>
      </trkpt>
      <trkpt lat="39.494157" lon="3.232632">
        <ele>145.171</ele>
        <time>2021-09-01T11:52:11Z</time>
      </trkpt>
      <trkpt lat="39.494160" lon="3.232706">
        <ele>145.158</ele>
        <time>2021-09-01T11:52:12Z</time>
      </trkpt>
      <trkpt lat="39.494165" lon="3.232782">
        <ele>145.152</ele>
        <time>2021-09-01T11:52:13Z</time>
      </trkpt>
      <trkpt lat="39.494168" lon="3.232861">
        <ele>144.917</ele>
        <time>2021-09-01T11:52:14Z</time>
      </trkpt>
      <trkpt lat="39.494175" lon="3.232945">
        <ele>144.708</ele>
        <time>2021-09-01T11:52:15Z</time>
      </trkpt>
      <trkpt lat="39.494175" lon="3.233040">
        <ele>144.493</ele>
        <time>2021-09-01T11:52:16Z</time>
      </trkpt>
      <trkpt lat="39.494179" lon="3.233137">
        <ele>144.237</ele>
        <time>2021-09-01T11:52:17Z</time>
      </trkpt>
      <trkpt lat="39.494179" lon="3.233245">
        <ele>143.922</ele>
        <time>2021-09-01T11:52:18Z</time>
      </trkpt>
      <trkpt lat="39.494181" lon="3.233354">
        <ele>143.686</ele>
        <time>2021-09-01T11:52:19Z</time>
      </trkpt>
      <trkpt lat="39.494186" lon="3.233462">
        <ele>143.215</ele>
        <time>2021-09-01T11:52:20Z</time>
      </trkpt>
      <trkpt lat="39.494191" lon="3.233573">
        <ele>142.860</ele>
        <time>2021-09-01T11:52:21Z</time>
      </trkpt>
      <trkpt lat="39.494190" lon="3.233680">
        <ele>142.427</ele>
        <time>2021-09-01T11:52:22Z</time>
      </trkpt>
      <trkpt lat="39.494170" lon="3.233779">
        <ele>142.197</ele>
        <time>2021-09-01T11:52:23Z</time>
      </trkpt>
      <trkpt lat="39.494133" lon="3.233866">
        <ele>141.741</ele>
        <time>2021-09-01T11:52:24Z</time>
      </trkpt>
      <trkpt lat="39.494081" lon="3.233938">
        <ele>141.481</ele>
        <time>2021-09-01T11:52:25Z</time>
      </trkpt>
      <trkpt lat="39.494032" lon="3.234019">
        <ele>141.309</ele>
        <time>2021-09-01T11:52:26Z</time>
      </trkpt>
      <trkpt lat="39.493979" lon="3.234101">
        <ele>141.008</ele>
        <time>2021-09-01T11:52:27Z</time>
      </trkpt>
      <trkpt lat="39.493928" lon="3.234180">
        <ele>140.882</ele>
        <time>2021-09-01T11:52:28Z</time>
      </trkpt>
      <trkpt lat="39.493878" lon="3.234265">
        <ele>140.466</ele>
        <time>2021-09-01T11:52:29Z</time>
      </trkpt>
      <trkpt lat="39.493830" lon="3.234355">
        <ele>140.041</ele>
        <time>2021-09-01T11:52:30Z</time>
      </trkpt>
      <trkpt lat="39.493780" lon="3.234442">
        <ele>139.355</ele>
        <time>2021-09-01T11:52:31Z</time>
      </trkpt>
      <trkpt lat="39.493724" lon="3.234522">
        <ele>138.764</ele>
        <time>2021-09-01T11:52:32Z</time>
      </trkpt>
      <trkpt lat="39.493666" lon="3.234611">
        <ele>138.019</ele>
        <time>2021-09-01T11:52:33Z</time>
      </trkpt>
      <trkpt lat="39.493617" lon="3.234711">
        <ele>137.536</ele>
        <time>2021-09-01T11:52:34Z</time>
      </trkpt>
      <trkpt lat="39.493565" lon="3.234798">
        <ele>137.016</ele>
        <time>2021-09-01T11:52:35Z</time>
      </trkpt>
      <trkpt lat="39.493521" lon="3.234882">
        <ele>136.768</ele>
        <time>2021-09-01T11:52:36Z</time>
      </trkpt>
      <trkpt lat="39.493477" lon="3.234967">
        <ele>136.442</ele>
        <time>2021-09-01T11:52:37Z</time>
      </trkpt>
      <trkpt lat="39.493432" lon="3.235049">
        <ele>136.026</ele>
        <time>2021-09-01T11:52:38Z</time>
      </trkpt>
      <trkpt lat="39.493388" lon="3.235118">
        <ele>135.508</ele>
        <time>2021-09-01T11:52:39Z</time>
      </trkpt>
      <trkpt lat="39.493334" lon="3.235157">
        <ele>135.194</ele>
        <time>2021-09-01T11:52:40Z</time>
      </trkpt>
      <trkpt lat="39.493271" lon="3.235185">
        <ele>134.628</ele>
        <time>2021-09-01T11:52:41Z</time>
      </trkpt>
      <trkpt lat="39.493204" lon="3.235204">
        <ele>134.213</ele>
        <time>2021-09-01T11:52:42Z</time>
      </trkpt>
      <trkpt lat="39.493134" lon="3.235220">
        <ele>134.067</ele>
        <time>2021-09-01T11:52:43Z</time>
      </trkpt>
      <trkpt lat="39.493066" lon="3.235236">
        <ele>133.916</ele>
        <time>2021-09-01T11:52:44Z</time>
      </trkpt>
      <trkpt lat="39.492994" lon="3.235247">
        <ele>133.841</ele>
        <time>2021-09-01T11:52:45Z</time>
      </trkpt>
      <trkpt lat="39.492924" lon="3.235259">
        <ele>133.788</ele>
        <time>2021-09-01T11:52:46Z</time>
      </trkpt>
      <trkpt lat="39.492855" lon="3.235271">
        <ele>133.638</ele>
        <time>2021-09-01T11:52:47Z</time>
      </trkpt>
      <trkpt lat="39.492783" lon="3.235288">
        <ele>133.648</ele>
        <time>2021-09-01T11:52:48Z</time>
      </trkpt>
      <trkpt lat="39.492717" lon="3.235304">
        <ele>133.461</ele>
        <time>2021-09-01T11:52:49Z</time>
      </trkpt>
      <trkpt lat="39.492652" lon="3.235314">
        <ele>133.317</ele>
        <time>2021-09-01T11:52:50Z</time>
      </trkpt>
      <trkpt lat="39.492590" lon="3.235325">
        <ele>133.308</ele>
        <time>2021-09-01T11:52:51Z</time>
      </trkpt>
      <trkpt lat="39.492533" lon="3.235344">
        <ele>133.442</ele>
        <time>2021-09-01T11:52:52Z</time>
      </trkpt>
      <trkpt lat="39.492479" lon="3.235356">
        <ele>133.486</ele>
        <time>2021-09-01T11:52:53Z</time>
      </trkpt>
      <trkpt lat="39.492429" lon="3.235370">
        <ele>133.511</ele>
        <time>2021-09-01T11:52:54Z</time>
      </trkpt>
      <trkpt lat="39.492383" lon="3.235379">
        <ele>133.685</ele>
        <time>2021-09-01T11:52:55Z</time>
      </trkpt>
      <trkpt lat="39.492302" lon="3.235414">
        <ele>134.034</ele>
        <time>2021-09-01T11:52:57Z</time>
      </trkpt>
      <trkpt lat="39.492233" lon="3.235464">
        <ele>134.539</ele>
        <time>2021-09-01T11:52:59Z</time>
      </trkpt>
      <trkpt lat="39.492199" lon="3.235568">
        <ele>134.986</ele>
        <time>2021-09-01T11:53:01Z</time>
      </trkpt>
      <trkpt lat="39.492193" lon="3.235626">
        <ele>135.056</ele>
        <time>2021-09-01T11:53:02Z</time>
      </trkpt>
      <trkpt lat="39.492185" lon="3.235687">
        <ele>135.171</ele>
        <time>2021-09-01T11:53:03Z</time>
      </trkpt>
      <trkpt lat="39.492170" lon="3.235752">
        <ele>135.241</ele>
        <time>2021-09-01T11:53:04Z</time>
      </trkpt>
      <trkpt lat="39.492156" lon="3.235825">
        <ele>135.215</ele>
        <time>2021-09-01T11:53:05Z</time>
      </trkpt>
      <trkpt lat="39.492145" lon="3.235903">
        <ele>135.208</ele>
        <time>2021-09-01T11:53:06Z</time>
      </trkpt>
      <trkpt lat="39.492135" lon="3.235989">
        <ele>135.065</ele>
        <time>2021-09-01T11:53:07Z</time>
      </trkpt>
      <trkpt lat="39.492116" lon="3.236069">
        <ele>134.899</ele>
        <time>2021-09-01T11:53:08Z</time>
      </trkpt>
      <trkpt lat="39.492103" lon="3.236168">
        <ele>134.364</ele>
        <time>2021-09-01T11:53:09Z</time>
      </trkpt>
      <trkpt lat="39.492082" lon="3.236265">
        <ele>134.068</ele>
        <time>2021-09-01T11:53:10Z</time>
      </trkpt>
      <trkpt lat="39.492066" lon="3.236347">
        <ele>133.757</ele>
        <time>2021-09-01T11:53:11Z</time>
      </trkpt>
      <trkpt lat="39.492045" lon="3.236433">
        <ele>133.422</ele>
        <time>2021-09-01T11:53:12Z</time>
      </trkpt>
      <trkpt lat="39.492029" lon="3.236517">
        <ele>133.399</ele>
        <time>2021-09-01T11:53:13Z</time>
      </trkpt>
      <trkpt lat="39.492011" lon="3.236601">
        <ele>133.229</ele>
        <time>2021-09-01T11:53:14Z</time>
      </trkpt>
      <trkpt lat="39.491992" lon="3.236697">
        <ele>133.156</ele>
        <time>2021-09-01T11:53:15Z</time>
      </trkpt>
      <trkpt lat="39.491987" lon="3.236792">
        <ele>132.959</ele>
        <time>2021-09-01T11:53:16Z</time>
      </trkpt>
      <trkpt lat="39.491988" lon="3.236891">
        <ele>132.714</ele>
        <time>2021-09-01T11:53:17Z</time>
      </trkpt>
      <trkpt lat="39.491997" lon="3.236982">
        <ele>132.408</ele>
        <time>2021-09-01T11:53:18Z</time>
      </trkpt>
      <trkpt lat="39.492002" lon="3.237080">
        <ele>132.163</ele>
        <time>2021-09-01T11:53:19Z</time>
      </trkpt>
      <trkpt lat="39.492013" lon="3.237176">
        <ele>131.897</ele>
        <time>2021-09-01T11:53:20Z</time>
      </trkpt>
      <trkpt lat="39.492021" lon="3.237273">
        <ele>131.422</ele>
        <time>2021-09-01T11:53:21Z</time>
      </trkpt>
      <trkpt lat="39.492029" lon="3.237367">
        <ele>131.046</ele>
        <time>2021-09-01T11:53:22Z</time>
      </trkpt>
      <trkpt lat="39.492036" lon="3.237461">
        <ele>130.485</ele>
        <time>2021-09-01T11:53:23Z</time>
      </trkpt>
      <trkpt lat="39.492046" lon="3.237560">
        <ele>129.890</ele>
        <time>2021-09-01T11:53:24Z</time>
      </trkpt>
      <trkpt lat="39.492048" lon="3.237661">
        <ele>129.297</ele>
        <time>2021-09-01T11:53:25Z</time>
      </trkpt>
      <trkpt lat="39.492052" lon="3.237766">
        <ele>128.657</ele>
        <time>2021-09-01T11:53:26Z</time>
      </trkpt>
      <trkpt lat="39.492056" lon="3.237871">
        <ele>127.964</ele>
        <time>2021-09-01T11:53:27Z</time>
      </trkpt>
      <trkpt lat="39.492061" lon="3.237975">
        <ele>127.606</ele>
        <time>2021-09-01T11:53:28Z</time>
      </trkpt>
      <trkpt lat="39.492070" lon="3.238073">
        <ele>127.216</ele>
        <time>2021-09-01T11:53:29Z</time>
      </trkpt>
      <trkpt lat="39.492075" lon="3.238167">
        <ele>126.808</ele>
        <time>2021-09-01T11:53:30Z</time>
      </trkpt>
      <trkpt lat="39.492091" lon="3.238253">
        <ele>126.374</ele>
        <time>2021-09-01T11:53:31Z</time>
      </trkpt>
      <trkpt lat="39.492103" lon="3.238339">
        <ele>126.078</ele>
        <time>2021-09-01T11:53:32Z</time>
      </trkpt>
      <trkpt lat="39.492098" lon="3.238443">
        <ele>125.653</ele>
        <time>2021-09-01T11:53:33Z</time>
      </trkpt>
      <trkpt lat="39.492065" lon="3.238542">
        <ele>125.397</ele>
        <time>2021-09-01T11:53:34Z</time>
      </trkpt>
      <trkpt lat="39.492043" lon="3.238635">
        <ele>125.196</ele>
        <time>2021-09-01T11:53:35Z</time>
      </trkpt>
      <trkpt lat="39.492025" lon="3.238731">
        <ele>124.981</ele>
        <time>2021-09-01T11:53:36Z</time>
      </trkpt>
      <trkpt lat="39.492010" lon="3.238827">
        <ele>124.778</ele>
        <time>2021-09-01T11:53:37Z</time>
      </trkpt>
      <trkpt lat="39.491998" lon="3.238924">
        <ele>124.538</ele>
        <time>2021-09-01T11:53:38Z</time>
      </trkpt>
      <trkpt lat="39.491980" lon="3.239027">
        <ele>124.374</ele>
        <time>2021-09-01T11:53:39Z</time>
      </trkpt>
      <trkpt lat="39.491972" lon="3.239130">
        <ele>124.156</ele>
        <time>2021-09-01T11:53:40Z</time>
      </trkpt>
      <trkpt lat="39.491965" lon="3.239242">
        <ele>123.921</ele>
        <time>2021-09-01T11:53:41Z</time>
      </trkpt>
      <trkpt lat="39.491982" lon="3.239348">
        <ele>123.408</ele>
        <time>2021-09-01T11:53:42Z</time>
      </trkpt>
      <trkpt lat="39.492008" lon="3.239443">
        <ele>123.025</ele>
        <time>2021-09-01T11:53:43Z</time>
      </trkpt>
      <trkpt lat="39.492033" lon="3.239540">
        <ele>122.849</ele>
        <time>2021-09-01T11:53:44Z</time>
      </trkpt>
      <trkpt lat="39.492058" lon="3.239614">
        <ele>122.584</ele>
        <time>2021-09-01T11:53:45Z</time>
      </trkpt>
      <trkpt lat="39.492077" lon="3.239694">
        <ele>122.258</ele>
        <time>2021-09-01T11:53:46Z</time>
      </trkpt>
      <trkpt lat="39.492064" lon="3.239800">
        <ele>122.157</ele>
        <time>2021-09-01T11:53:47Z</time>
      </trkpt>
      <trkpt lat="39.492047" lon="3.239895">
        <ele>121.942</ele>
        <time>2021-09-01T11:53:48Z</time>
      </trkpt>
      <trkpt lat="39.492026" lon="3.239979">
        <ele>121.759</ele>
        <time>2021-09-01T11:53:49Z</time>
      </trkpt>
      <trkpt lat="39.492010" lon="3.240064">
        <ele>121.419</ele>
        <time>2021-09-01T11:53:50Z</time>
      </trkpt>
      <trkpt lat="39.491999" lon="3.240142">
        <ele>121.299</ele>
        <time>2021-09-01T11:53:51Z</time>
      </trkpt>
      <trkpt lat="39.491979" lon="3.240223">
        <ele>121.007</ele>
        <time>2021-09-01T11:53:52Z</time>
      </trkpt>
      <trkpt lat="39.491958" lon="3.240303">
        <ele>120.927</ele>
        <time>2021-09-01T11:53:53Z</time>
      </trkpt>
      <trkpt lat="39.491925" lon="3.240381">
        <ele>120.708</ele>
        <time>2021-09-01T11:53:54Z</time>
      </trkpt>
      <trkpt lat="39.491885" lon="3.240453">
        <ele>120.537</ele>
        <time>2021-09-01T11:53:55Z</time>
      </trkpt>
      <trkpt lat="39.491843" lon="3.240529">
        <ele>120.381</ele>
        <time>2021-09-01T11:53:56Z</time>
      </trkpt>
      <trkpt lat="39.491803" lon="3.240599">
        <ele>120.116</ele>
        <time>2021-09-01T11:53:57Z</time>
      </trkpt>
      <trkpt lat="39.491775" lon="3.240668">
        <ele>120.060</ele>
        <time>2021-09-01T11:53:58Z</time>
      </trkpt>
      <trkpt lat="39.491754" lon="3.240742">
        <ele>119.969</ele>
        <time>2021-09-01T11:53:59Z</time>
      </trkpt>
      <trkpt lat="39.491731" lon="3.240809">
        <ele>119.854</ele>
        <time>2021-09-01T11:54:00Z</time>
      </trkpt>
      <trkpt lat="39.491697" lon="3.240873">
        <ele>119.831</ele>
        <time>2021-09-01T11:54:01Z</time>
      </trkpt>
      <trkpt lat="39.491666" lon="3.240942">
        <ele>119.911</ele>
        <time>2021-09-01T11:54:02Z</time>
      </trkpt>
      <trkpt lat="39.491637" lon="3.241016">
        <ele>119.942</ele>
        <time>2021-09-01T11:54:03Z</time>
      </trkpt>
      <trkpt lat="39.491604" lon="3.241090">
        <ele>119.922</ele>
        <time>2021-09-01T11:54:04Z</time>
      </trkpt>
      <trkpt lat="39.491564" lon="3.241156">
        <ele>120.014</ele>
        <time>2021-09-01T11:54:05Z</time>
      </trkpt>
      <trkpt lat="39.491534" lon="3.241224">
        <ele>120.008</ele>
        <time>2021-09-01T11:54:06Z</time>
      </trkpt>
      <trkpt lat="39.491505" lon="3.241291">
        <ele>120.042</ele>
        <time>2021-09-01T11:54:07Z</time>
      </trkpt>
      <trkpt lat="39.491480" lon="3.241348">
        <ele>119.966</ele>
        <time>2021-09-01T11:54:08Z</time>
      </trkpt>
      <trkpt lat="39.491452" lon="3.241423">
        <ele>119.811</ele>
        <time>2021-09-01T11:54:09Z</time>
      </trkpt>
      <trkpt lat="39.491426" lon="3.241502">
        <ele>119.765</ele>
        <time>2021-09-01T11:54:10Z</time>
      </trkpt>
      <trkpt lat="39.491396" lon="3.241578">
        <ele>119.564</ele>
        <time>2021-09-01T11:54:11Z</time>
      </trkpt>
      <trkpt lat="39.491362" lon="3.241643">
        <ele>119.339</ele>
        <time>2021-09-01T11:54:12Z</time>
      </trkpt>
      <trkpt lat="39.491327" lon="3.241720">
        <ele>119.336</ele>
        <time>2021-09-01T11:54:13Z</time>
      </trkpt>
      <trkpt lat="39.491296" lon="3.241790">
        <ele>119.316</ele>
        <time>2021-09-01T11:54:14Z</time>
      </trkpt>
      <trkpt lat="39.491260" lon="3.241859">
        <ele>119.236</ele>
        <time>2021-09-01T11:54:15Z</time>
      </trkpt>
      <trkpt lat="39.491228" lon="3.241935">
        <ele>119.117</ele>
        <time>2021-09-01T11:54:16Z</time>
      </trkpt>
      <trkpt lat="39.491202" lon="3.242011">
        <ele>119.018</ele>
        <time>2021-09-01T11:54:17Z</time>
      </trkpt>
      <trkpt lat="39.491172" lon="3.242073">
        <ele>118.608</ele>
        <time>2021-09-01T11:54:18Z</time>
      </trkpt>
      <trkpt lat="39.491141" lon="3.242137">
        <ele>118.311</ele>
        <time>2021-09-01T11:54:19Z</time>
      </trkpt>
      <trkpt lat="39.491111" lon="3.242200">
        <ele>118.145</ele>
        <time>2021-09-01T11:54:20Z</time>
      </trkpt>
      <trkpt lat="39.491082" lon="3.242258">
        <ele>117.810</ele>
        <time>2021-09-01T11:54:21Z</time>
      </trkpt>
      <trkpt lat="39.491057" lon="3.242328">
        <ele>117.774</ele>
        <time>2021-09-01T11:54:22Z</time>
      </trkpt>
      <trkpt lat="39.491024" lon="3.242397">
        <ele>117.543</ele>
        <time>2021-09-01T11:54:23Z</time>
      </trkpt>
      <trkpt lat="39.490993" lon="3.242472">
        <ele>117.338</ele>
        <time>2021-09-01T11:54:24Z</time>
      </trkpt>
      <trkpt lat="39.490965" lon="3.242550">
        <ele>117.025</ele>
        <time>2021-09-01T11:54:25Z</time>
      </trkpt>
      <trkpt lat="39.490933" lon="3.242624">
        <ele>116.785</ele>
        <time>2021-09-01T11:54:26Z</time>
      </trkpt>
      <trkpt lat="39.490902" lon="3.242692">
        <ele>116.597</ele>
        <time>2021-09-01T11:54:27Z</time>
      </trkpt>
      <trkpt lat="39.490871" lon="3.242759">
        <ele>116.323</ele>
        <time>2021-09-01T11:54:28Z</time>
      </trkpt>
      <trkpt lat="39.490845" lon="3.242828">
        <ele>116.225</ele>
        <time>2021-09-01T11:54:29Z</time>
      </trkpt>
      <trkpt lat="39.490817" lon="3.242895">
        <ele>116.108</ele>
        <time>2021-09-01T11:54:30Z</time>
      </trkpt>
      <trkpt lat="39.490789" lon="3.242962">
        <ele>116.027</ele>
        <time>2021-09-01T11:54:31Z</time>
      </trkpt>
      <trkpt lat="39.490764" lon="3.243022">
        <ele>115.961</ele>
        <time>2021-09-01T11:54:32Z</time>
      </trkpt>
      <trkpt lat="39.490741" lon="3.243073">
        <ele>115.876</ele>
        <time>2021-09-01T11:54:33Z</time>
      </trkpt>
      <trkpt lat="39.490714" lon="3.243134">
        <ele>115.770</ele>
        <time>2021-09-01T11:54:34Z</time>
      </trkpt>
      <trkpt lat="39.490689" lon="3.243189">
        <ele>115.699</ele>
        <time>2021-09-01T11:54:35Z</time>
      </trkpt>
      <trkpt lat="39.490655" lon="3.243242">
        <ele>115.674</ele>
        <time>2021-09-01T11:54:36Z</time>
      </trkpt>
      <trkpt lat="39.490625" lon="3.243294">
        <ele>115.511</ele>
        <time>2021-09-01T11:54:37Z</time>
      </trkpt>
      <trkpt lat="39.490602" lon="3.243354">
        <ele>115.581</ele>
        <time>2021-09-01T11:54:38Z</time>
      </trkpt>
      <trkpt lat="39.490577" lon="3.243428">
        <ele>115.311</ele>
        <time>2021-09-01T11:54:39Z</time>
      </trkpt>
      <trkpt lat="39.490562" lon="3.243511">
        <ele>115.021</ele>
        <time>2021-09-01T11:54:40Z</time>
      </trkpt>
      <trkpt lat="39.490538" lon="3.243617">
        <ele>114.503</ele>
        <time>2021-09-01T11:54:41Z</time>
      </trkpt>
      <trkpt lat="39.490522" lon="3.243732">
        <ele>113.908</ele>
        <time>2021-09-01T11:54:42Z</time>
      </trkpt>
      <trkpt lat="39.490514" lon="3.243838">
        <ele>113.469</ele>
        <time>2021-09-01T11:54:43Z</time>
      </trkpt>
      <trkpt lat="39.490486" lon="3.243934">
        <ele>112.863</ele>
        <time>2021-09-01T11:54:44Z</time>
      </trkpt>
      <trkpt lat="39.490457" lon="3.244021">
        <ele>112.338</ele>
        <time>2021-09-01T11:54:45Z</time>
      </trkpt>
      <trkpt lat="39.490340" lon="3.244087">
        <ele>112.182</ele>
        <time>2021-09-01T11:54:46Z</time>
      </trkpt>
      <trkpt lat="39.490261" lon="3.244127">
        <ele>111.911</ele>
        <time>2021-09-01T11:54:47Z</time>
      </trkpt>
      <trkpt lat="39.490192" lon="3.244165">
        <ele>111.846</ele>
        <time>2021-09-01T11:54:48Z</time>
      </trkpt>
      <trkpt lat="39.490135" lon="3.244208">
        <ele>111.863</ele>
        <time>2021-09-01T11:54:49Z</time>
      </trkpt>
      <trkpt lat="39.490089" lon="3.244244">
        <ele>111.723</ele>
        <time>2021-09-01T11:54:50Z</time>
      </trkpt>
      <trkpt lat="39.490044" lon="3.244279">
        <ele>111.786</ele>
        <time>2021-09-01T11:54:51Z</time>
      </trkpt>
      <trkpt lat="39.489992" lon="3.244313">
        <ele>111.860</ele>
        <time>2021-09-01T11:54:52Z</time>
      </trkpt>
      <trkpt lat="39.489936" lon="3.244348">
        <ele>111.826</ele>
        <time>2021-09-01T11:54:53Z</time>
      </trkpt>
      <trkpt lat="39.489876" lon="3.244382">
        <ele>111.808</ele>
        <time>2021-09-01T11:54:54Z</time>
      </trkpt>
      <trkpt lat="39.489813" lon="3.244418">
        <ele>111.896</ele>
        <time>2021-09-01T11:54:55Z</time>
      </trkpt>
      <trkpt lat="39.489749" lon="3.244442">
        <ele>111.720</ele>
        <time>2021-09-01T11:54:56Z</time>
      </trkpt>
      <trkpt lat="39.489676" lon="3.244458">
        <ele>111.695</ele>
        <time>2021-09-01T11:54:57Z</time>
      </trkpt>
      <trkpt lat="39.489606" lon="3.244485">
        <ele>111.469</ele>
        <time>2021-09-01T11:54:58Z</time>
      </trkpt>
      <trkpt lat="39.489541" lon="3.244516">
        <ele>111.138</ele>
        <time>2021-09-01T11:54:59Z</time>
      </trkpt>
      <trkpt lat="39.489487" lon="3.244559">
        <ele>110.963</ele>
        <time>2021-09-01T11:55:00Z</time>
      </trkpt>
      <trkpt lat="39.489433" lon="3.244595">
        <ele>110.780</ele>
        <time>2021-09-01T11:55:01Z</time>
      </trkpt>
      <trkpt lat="39.489386" lon="3.244635">
        <ele>110.570</ele>
        <time>2021-09-01T11:55:02Z</time>
      </trkpt>
      <trkpt lat="39.489335" lon="3.244672">
        <ele>110.573</ele>
        <time>2021-09-01T11:55:03Z</time>
      </trkpt>
      <trkpt lat="39.489287" lon="3.244713">
        <ele>110.585</ele>
        <time>2021-09-01T11:55:04Z</time>
      </trkpt>
      <trkpt lat="39.489247" lon="3.244753">
        <ele>110.513</ele>
        <time>2021-09-01T11:55:05Z</time>
      </trkpt>
      <trkpt lat="39.489211" lon="3.244802">
        <ele>110.608</ele>
        <time>2021-09-01T11:55:06Z</time>
      </trkpt>
      <trkpt lat="39.489182" lon="3.244847">
        <ele>110.835</ele>
        <time>2021-09-01T11:55:07Z</time>
      </trkpt>
      <trkpt lat="39.489142" lon="3.244944">
        <ele>111.329</ele>
        <time>2021-09-01T11:55:09Z</time>
      </trkpt>
      <trkpt lat="39.489112" lon="3.245045">
        <ele>111.774</ele>
        <time>2021-09-01T11:55:11Z</time>
      </trkpt>
      <trkpt lat="39.489093" lon="3.245156">
        <ele>112.038</ele>
        <time>2021-09-01T11:55:13Z</time>
      </trkpt>
      <trkpt lat="39.489093" lon="3.245266">
        <ele>112.147</ele>
        <time>2021-09-01T11:55:15Z</time>
      </trkpt>
      <trkpt lat="39.489083" lon="3.245329">
        <ele>112.192</ele>
        <time>2021-09-01T11:55:16Z</time>
      </trkpt>
      <trkpt lat="39.489072" lon="3.245393">
        <ele>112.199</ele>
        <time>2021-09-01T11:55:17Z</time>
      </trkpt>
      <trkpt lat="39.489065" lon="3.245459">
        <ele>112.159</ele>
        <time>2021-09-01T11:55:18Z</time>
      </trkpt>
      <trkpt lat="39.489061" lon="3.245529">
        <ele>112.076</ele>
        <time>2021-09-01T11:55:19Z</time>
      </trkpt>
      <trkpt lat="39.489055" lon="3.245596">
        <ele>111.990</ele>
        <time>2021-09-01T11:55:20Z</time>
      </trkpt>
      <trkpt lat="39.489050" lon="3.245664">
        <ele>111.819</ele>
        <time>2021-09-01T11:55:21Z</time>
      </trkpt>
      <trkpt lat="39.489042" lon="3.245742">
        <ele>111.508</ele>
        <time>2021-09-01T11:55:22Z</time>
      </trkpt>
      <trkpt lat="39.489027" lon="3.245827">
        <ele>111.245</ele>
        <time>2021-09-01T11:55:23Z</time>
      </trkpt>
      <trkpt lat="39.489020" lon="3.245923">
        <ele>110.939</ele>
        <time>2021-09-01T11:55:24Z</time>
      </trkpt>
      <trkpt lat="39.489019" lon="3.246017">
        <ele>110.454</ele>
        <time>2021-09-01T11:55:25Z</time>
      </trkpt>
      <trkpt lat="39.489020" lon="3.246118">
        <ele>109.918</ele>
        <time>2021-09-01T11:55:26Z</time>
      </trkpt>
      <trkpt lat="39.489041" lon="3.246208">
        <ele>109.427</ele>
        <time>2021-09-01T11:55:27Z</time>
      </trkpt>
      <trkpt lat="39.489063" lon="3.246300">
        <ele>108.932</ele>
        <time>2021-09-01T11:55:28Z</time>
      </trkpt>
      <trkpt lat="39.489085" lon="3.246388">
        <ele>108.599</ele>
        <time>2021-09-01T11:55:29Z</time>
      </trkpt>
      <trkpt lat="39.489103" lon="3.246475">
        <ele>108.149</ele>
        <time>2021-09-01T11:55:30Z</time>
      </trkpt>
      <trkpt lat="39.489108" lon="3.246575">
        <ele>107.843</ele>
        <time>2021-09-01T11:55:31Z</time>
      </trkpt>
      <trkpt lat="39.489108" lon="3.246667">
        <ele>107.664</ele>
        <time>2021-09-01T11:55:32Z</time>
      </trkpt>
      <trkpt lat="39.489103" lon="3.246745">
        <ele>107.410</ele>
        <time>2021-09-01T11:55:33Z</time>
      </trkpt>
      <trkpt lat="39.489104" lon="3.246809">
        <ele>107.308</ele>
        <time>2021-09-01T11:55:34Z</time>
      </trkpt>
      <trkpt lat="39.489086" lon="3.246902">
        <ele>107.492</ele>
        <time>2021-09-01T11:55:36Z</time>
      </trkpt>
      <trkpt lat="39.489053" lon="3.246993">
        <ele>107.846</ele>
        <time>2021-09-01T11:55:38Z</time>
      </trkpt>
      <trkpt lat="39.489041" lon="3.247058">
        <ele>108.341</ele>
        <time>2021-09-01T11:55:40Z</time>
      </trkpt>
      <trkpt lat="39.489023" lon="3.247126">
        <ele>109.015</ele>
        <time>2021-09-01T11:55:42Z</time>
      </trkpt>
      <trkpt lat="39.489008" lon="3.247183">
        <ele>109.674</ele>
        <time>2021-09-01T11:55:44Z</time>
      </trkpt>
      <trkpt lat="39.488994" lon="3.247250">
        <ele>110.299</ele>
        <time>2021-09-01T11:55:46Z</time>
      </trkpt>
      <trkpt lat="39.488972" lon="3.247329">
        <ele>110.786</ele>
        <time>2021-09-01T11:55:48Z</time>
      </trkpt>
      <trkpt lat="39.488969" lon="3.247402">
        <ele>111.236</ele>
        <time>2021-09-01T11:55:50Z</time>
      </trkpt>
      <trkpt lat="39.488980" lon="3.247491">
        <ele>111.773</ele>
        <time>2021-09-01T11:55:52Z</time>
      </trkpt>
      <trkpt lat="39.488980" lon="3.247581">
        <ele>112.185</ele>
        <time>2021-09-01T11:55:54Z</time>
      </trkpt>
      <trkpt lat="39.488993" lon="3.247655">
        <ele>112.513</ele>
        <time>2021-09-01T11:55:56Z</time>
      </trkpt>
      <trkpt lat="39.488988" lon="3.247738">
        <ele>112.708</ele>
        <time>2021-09-01T11:55:58Z</time>
      </trkpt>
      <trkpt lat="39.488976" lon="3.247827">
        <ele>112.945</ele>
        <time>2021-09-01T11:56:00Z</time>
      </trkpt>
      <trkpt lat="39.488966" lon="3.247922">
        <ele>113.049</ele>
        <time>2021-09-01T11:56:02Z</time>
      </trkpt>
      <trkpt lat="39.488945" lon="3.248021">
        <ele>113.174</ele>
        <time>2021-09-01T11:56:04Z</time>
      </trkpt>
      <trkpt lat="39.488912" lon="3.248123">
        <ele>113.278</ele>
        <time>2021-09-01T11:56:06Z</time>
      </trkpt>
      <trkpt lat="39.488885" lon="3.248233">
        <ele>113.217</ele>
        <time>2021-09-01T11:56:08Z</time>
      </trkpt>
      <trkpt lat="39.488870" lon="3.248290">
        <ele>113.162</ele>
        <time>2021-09-01T11:56:09Z</time>
      </trkpt>
      <trkpt lat="39.488861" lon="3.248355">
        <ele>113.089</ele>
        <time>2021-09-01T11:56:10Z</time>
      </trkpt>
      <trkpt lat="39.488860" lon="3.248423">
        <ele>113.059</ele>
        <time>2021-09-01T11:56:11Z</time>
      </trkpt>
      <trkpt lat="39.488856" lon="3.248487">
        <ele>112.861</ele>
        <time>2021-09-01T11:56:12Z</time>
      </trkpt>
      <trkpt lat="39.488858" lon="3.248557">
        <ele>112.621</ele>
        <time>2021-09-01T11:56:13Z</time>
      </trkpt>
      <trkpt lat="39.488858" lon="3.248624">
        <ele>112.413</ele>
        <time>2021-09-01T11:56:14Z</time>
      </trkpt>
      <trkpt lat="39.488861" lon="3.248697">
        <ele>112.208</ele>
        <time>2021-09-01T11:56:15Z</time>
      </trkpt>
      <trkpt lat="39.488858" lon="3.248762">
        <ele>112.184</ele>
        <time>2021-09-01T11:56:16Z</time>
      </trkpt>
      <trkpt lat="39.488862" lon="3.248878">
        <ele>112.038</ele>
        <time>2021-09-01T11:56:18Z</time>
      </trkpt>
      <trkpt lat="39.488858" lon="3.248938">
        <ele>112.013</ele>
        <time>2021-09-01T11:56:19Z</time>
      </trkpt>
      <trkpt lat="39.488837" lon="3.249033">
        <ele>112.167</ele>
        <time>2021-09-01T11:56:21Z</time>
      </trkpt>
      <trkpt lat="39.488815" lon="3.249124">
        <ele>112.396</ele>
        <time>2021-09-01T11:56:23Z</time>
      </trkpt>
      <trkpt lat="39.488790" lon="3.249228">
        <ele>112.421</ele>
        <time>2021-09-01T11:56:25Z</time>
      </trkpt>
      <trkpt lat="39.488757" lon="3.249331">
        <ele>112.648</ele>
        <time>2021-09-01T11:56:27Z</time>
      </trkpt>
      <trkpt lat="39.488738" lon="3.249430">
        <ele>113.028</ele>
        <time>2021-09-01T11:56:29Z</time>
      </trkpt>
      <trkpt lat="39.488725" lon="3.249531">
        <ele>113.294</ele>
        <time>2021-09-01T11:56:31Z</time>
      </trkpt>
      <trkpt lat="39.488701" lon="3.249631">
        <ele>113.157</ele>
        <time>2021-09-01T11:56:33Z</time>
      </trkpt>
      <trkpt lat="39.488681" lon="3.249737">
        <ele>113.222</ele>
        <time>2021-09-01T11:56:35Z</time>
      </trkpt>
      <trkpt lat="39.488657" lon="3.249840">
        <ele>113.208</ele>
        <time>2021-09-01T11:56:37Z</time>
      </trkpt>
      <trkpt lat="39.488632" lon="3.249936">
        <ele>113.247</ele>
        <time>2021-09-01T11:56:39Z</time>
      </trkpt>
      <trkpt lat="39.488612" lon="3.249990">
        <ele>113.281</ele>
        <time>2021-09-01T11:56:40Z</time>
      </trkpt>
      <trkpt lat="39.488590" lon="3.250051">
        <ele>113.166</ele>
        <time>2021-09-01T11:56:41Z</time>
      </trkpt>
      <trkpt lat="39.488575" lon="3.250112">
        <ele>113.030</ele>
        <time>2021-09-01T11:56:42Z</time>
      </trkpt>
      <trkpt lat="39.488561" lon="3.250173">
        <ele>113.089</ele>
        <time>2021-09-01T11:56:43Z</time>
      </trkpt>
      <trkpt lat="39.488543" lon="3.250239">
        <ele>113.024</ele>
        <time>2021-09-01T11:56:44Z</time>
      </trkpt>
      <trkpt lat="39.488525" lon="3.250301">
        <ele>112.941</ele>
        <time>2021-09-01T11:56:45Z</time>
      </trkpt>
      <trkpt lat="39.488508" lon="3.250361">
        <ele>112.821</ele>
        <time>2021-09-01T11:56:46Z</time>
      </trkpt>
      <trkpt lat="39.488488" lon="3.250420">
        <ele>112.835</ele>
        <time>2021-09-01T11:56:47Z</time>
      </trkpt>
      <trkpt lat="39.488468" lon="3.250483">
        <ele>112.686</ele>
        <time>2021-09-01T11:56:48Z</time>
      </trkpt>
      <trkpt lat="39.488449" lon="3.250542">
        <ele>112.614</ele>
        <time>2021-09-01T11:56:49Z</time>
      </trkpt>
      <trkpt lat="39.488421" lon="3.250640">
        <ele>112.408</ele>
        <time>2021-09-01T11:56:51Z</time>
      </trkpt>
      <trkpt lat="39.488394" lon="3.250717">
        <ele>112.271</ele>
        <time>2021-09-01T11:56:53Z</time>
      </trkpt>
      <trkpt lat="39.488363" lon="3.250779">
        <ele>112.345</ele>
        <time>2021-09-01T11:56:55Z</time>
      </trkpt>
      <trkpt lat="39.488330" lon="3.250853">
        <ele>112.910</ele>
        <time>2021-09-01T11:56:58Z</time>
      </trkpt>
      <trkpt lat="39.488296" lon="3.250910">
        <ele>113.794</ele>
        <time>2021-09-01T11:57:01Z</time>
      </trkpt>
      <trkpt lat="39.488268" lon="3.250969">
        <ele>114.673</ele>
        <time>2021-09-01T11:57:04Z</time>
      </trkpt>
      <trkpt lat="39.488023" lon="3.251030">
        <ele>118.288</ele>
        <time>2021-09-01T11:57:21Z</time>
      </trkpt>
      <trkpt lat="39.487962" lon="3.250966">
        <ele>118.255</ele>
        <time>2021-09-01T11:57:23Z</time>
      </trkpt>
      <trkpt lat="39.487890" lon="3.250898">
        <ele>118.325</ele>
        <time>2021-09-01T11:57:25Z</time>
      </trkpt>
      <trkpt lat="39.487826" lon="3.250823">
        <ele>118.468</ele>
        <time>2021-09-01T11:57:27Z</time>
      </trkpt>
      <trkpt lat="39.487757" lon="3.250748">
        <ele>118.542</ele>
        <time>2021-09-01T11:57:29Z</time>
      </trkpt>
      <trkpt lat="39.487723" lon="3.250707">
        <ele>118.626</ele>
        <time>2021-09-01T11:57:30Z</time>
      </trkpt>
      <trkpt lat="39.487656" lon="3.250626">
        <ele>118.908</ele>
        <time>2021-09-01T11:57:32Z</time>
      </trkpt>
      <trkpt lat="39.487620" lon="3.250587">
        <ele>119.054</ele>
        <time>2021-09-01T11:57:33Z</time>
      </trkpt>
      <trkpt lat="39.487576" lon="3.250556">
        <ele>119.288</ele>
        <time>2021-09-01T11:57:34Z</time>
      </trkpt>
      <trkpt lat="39.487533" lon="3.250524">
        <ele>119.243</ele>
        <time>2021-09-01T11:57:35Z</time>
      </trkpt>
      <trkpt lat="39.487489" lon="3.250499">
        <ele>119.387</ele>
        <time>2021-09-01T11:57:36Z</time>
      </trkpt>
      <trkpt lat="39.487446" lon="3.250484">
        <ele>119.416</ele>
        <time>2021-09-01T11:57:37Z</time>
      </trkpt>
      <trkpt lat="39.487397" lon="3.250486">
        <ele>119.641</ele>
        <time>2021-09-01T11:57:38Z</time>
      </trkpt>
      <trkpt lat="39.487347" lon="3.250498">
        <ele>119.788</ele>
        <time>2021-09-01T11:57:39Z</time>
      </trkpt>
      <trkpt lat="39.487299" lon="3.250516">
        <ele>119.838</ele>
        <time>2021-09-01T11:57:40Z</time>
      </trkpt>
      <trkpt lat="39.487246" lon="3.250551">
        <ele>119.977</ele>
        <time>2021-09-01T11:57:41Z</time>
      </trkpt>
      <trkpt lat="39.487192" lon="3.250589">
        <ele>119.961</ele>
        <time>2021-09-01T11:57:42Z</time>
      </trkpt>
      <trkpt lat="39.487139" lon="3.250629">
        <ele>119.827</ele>
        <time>2021-09-01T11:57:43Z</time>
      </trkpt>
      <trkpt lat="39.487083" lon="3.250678">
        <ele>119.708</ele>
        <time>2021-09-01T11:57:44Z</time>
      </trkpt>
      <trkpt lat="39.487028" lon="3.250730">
        <ele>119.455</ele>
        <time>2021-09-01T11:57:45Z</time>
      </trkpt>
      <trkpt lat="39.486966" lon="3.250787">
        <ele>119.119</ele>
        <time>2021-09-01T11:57:46Z</time>
      </trkpt>
      <trkpt lat="39.486906" lon="3.250846">
        <ele>118.884</ele>
        <time>2021-09-01T11:57:47Z</time>
      </trkpt>
      <trkpt lat="39.486838" lon="3.250909">
        <ele>118.568</ele>
        <time>2021-09-01T11:57:48Z</time>
      </trkpt>
      <trkpt lat="39.486767" lon="3.250968">
        <ele>118.187</ele>
        <time>2021-09-01T11:57:49Z</time>
      </trkpt>
      <trkpt lat="39.486693" lon="3.251022">
        <ele>117.732</ele>
        <time>2021-09-01T11:57:50Z</time>
      </trkpt>
      <trkpt lat="39.486610" lon="3.251067">
        <ele>117.369</ele>
        <time>2021-09-01T11:57:51Z</time>
      </trkpt>
      <trkpt lat="39.486526" lon="3.251108">
        <ele>116.919</ele>
        <time>2021-09-01T11:57:52Z</time>
      </trkpt>
      <trkpt lat="39.486438" lon="3.251131">
        <ele>116.547</ele>
        <time>2021-09-01T11:57:53Z</time>
      </trkpt>
      <trkpt lat="39.486351" lon="3.251147">
        <ele>115.929</ele>
        <time>2021-09-01T11:57:54Z</time>
      </trkpt>
      <trkpt lat="39.486253" lon="3.251160">
        <ele>115.421</ele>
        <time>2021-09-01T11:57:55Z</time>
      </trkpt>
      <trkpt lat="39.486155" lon="3.251171">
        <ele>114.908</ele>
        <time>2021-09-01T11:57:56Z</time>
      </trkpt>
      <trkpt lat="39.486053" lon="3.251180">
        <ele>114.392</ele>
        <time>2021-09-01T11:57:57Z</time>
      </trkpt>
      <trkpt lat="39.485953" lon="3.251188">
        <ele>113.896</ele>
        <time>2021-09-01T11:57:58Z</time>
      </trkpt>
      <trkpt lat="39.485853" lon="3.251193">
        <ele>113.211</ele>
        <time>2021-09-01T11:57:59Z</time>
      </trkpt>
      <trkpt lat="39.485753" lon="3.251195">
        <ele>112.755</ele>
        <time>2021-09-01T11:58:00Z</time>
      </trkpt>
      <trkpt lat="39.485653" lon="3.251189">
        <ele>112.294</ele>
        <time>2021-09-01T11:58:01Z</time>
      </trkpt>
      <trkpt lat="39.485552" lon="3.251184">
        <ele>111.839</ele>
        <time>2021-09-01T11:58:02Z</time>
      </trkpt>
      <trkpt lat="39.485450" lon="3.251188">
        <ele>111.546</ele>
        <time>2021-09-01T11:58:03Z</time>
      </trkpt>
      <trkpt lat="39.485349" lon="3.251191">
        <ele>111.396</ele>
        <time>2021-09-01T11:58:04Z</time>
      </trkpt>
      <trkpt lat="39.485247" lon="3.251197">
        <ele>111.082</ele>
        <time>2021-09-01T11:58:05Z</time>
      </trkpt>
      <trkpt lat="39.485144" lon="3.251197">
        <ele>110.643</ele>
        <time>2021-09-01T11:58:06Z</time>
      </trkpt>
      <trkpt lat="39.485042" lon="3.251195">
        <ele>110.117</ele>
        <time>2021-09-01T11:58:07Z</time>
      </trkpt>
      <trkpt lat="39.484941" lon="3.251205">
        <ele>109.508</ele>
        <time>2021-09-01T11:58:08Z</time>
      </trkpt>
      <trkpt lat="39.484852" lon="3.251252">
        <ele>108.836</ele>
        <time>2021-09-01T11:58:09Z</time>
      </trkpt>
      <trkpt lat="39.484751" lon="3.251325">
        <ele>108.080</ele>
        <time>2021-09-01T11:58:10Z</time>
      </trkpt>
      <trkpt lat="39.484675" lon="3.251424">
        <ele>107.115</ele>
        <time>2021-09-01T11:58:11Z</time>
      </trkpt>
      <trkpt lat="39.484604" lon="3.251546">
        <ele>106.259</ele>
        <time>2021-09-01T11:58:12Z</time>
      </trkpt>
      <trkpt lat="39.484529" lon="3.251680">
        <ele>105.258</ele>
        <time>2021-09-01T11:58:13Z</time>
      </trkpt>
      <trkpt lat="39.484442" lon="3.251814">
        <ele>104.023</ele>
        <time>2021-09-01T11:58:14Z</time>
      </trkpt>
      <trkpt lat="39.484357" lon="3.251949">
        <ele>102.810</ele>
        <time>2021-09-01T11:58:15Z</time>
      </trkpt>
      <trkpt lat="39.484268" lon="3.252065">
        <ele>101.680</ele>
        <time>2021-09-01T11:58:16Z</time>
      </trkpt>
      <trkpt lat="39.484166" lon="3.252163">
        <ele>100.371</ele>
        <time>2021-09-01T11:58:17Z</time>
      </trkpt>
      <trkpt lat="39.484065" lon="3.252246">
        <ele>99.241</ele>
        <time>2021-09-01T11:58:18Z</time>
      </trkpt>
      <trkpt lat="39.483963" lon="3.252305">
        <ele>98.115</ele>
        <time>2021-09-01T11:58:19Z</time>
      </trkpt>
      <trkpt lat="39.483843" lon="3.252322">
        <ele>97.208</ele>
        <time>2021-09-01T11:58:20Z</time>
      </trkpt>
      <trkpt lat="39.483719" lon="3.252353">
        <ele>96.575</ele>
        <time>2021-09-01T11:58:21Z</time>
      </trkpt>
      <trkpt lat="39.483603" lon="3.252362">
        <ele>95.969</ele>
        <time>2021-09-01T11:58:22Z</time>
      </trkpt>
      <trkpt lat="39.483484" lon="3.252346">
        <ele>95.424</ele>
        <time>2021-09-01T11:58:23Z</time>
      </trkpt>
      <trkpt lat="39.483366" lon="3.252307">
        <ele>94.888</ele>
        <time>2021-09-01T11:58:24Z</time>
      </trkpt>
      <trkpt lat="39.483263" lon="3.252282">
        <ele>94.297</ele>
        <time>2021-09-01T11:58:25Z</time>
      </trkpt>
      <trkpt lat="39.483163" lon="3.252176">
        <ele>93.412</ele>
        <time>2021-09-01T11:58:26Z</time>
      </trkpt>
      <trkpt lat="39.483071" lon="3.252066">
        <ele>92.619</ele>
        <time>2021-09-01T11:58:27Z</time>
      </trkpt>
      <trkpt lat="39.482990" lon="3.251954">
        <ele>91.819</ele>
        <time>2021-09-01T11:58:28Z</time>
      </trkpt>
      <trkpt lat="39.482915" lon="3.251845">
        <ele>91.039</ele>
        <time>2021-09-01T11:58:29Z</time>
      </trkpt>
      <trkpt lat="39.482841" lon="3.251742">
        <ele>90.301</ele>
        <time>2021-09-01T11:58:30Z</time>
      </trkpt>
      <trkpt lat="39.482760" lon="3.251650">
        <ele>89.821</ele>
        <time>2021-09-01T11:58:31Z</time>
      </trkpt>
      <trkpt lat="39.482677" lon="3.251575">
        <ele>89.308</ele>
        <time>2021-09-01T11:58:32Z</time>
      </trkpt>
      <trkpt lat="39.482581" lon="3.251512">
        <ele>88.831</ele>
        <time>2021-09-01T11:58:33Z</time>
      </trkpt>
      <trkpt lat="39.482483" lon="3.251456">
        <ele>88.395</ele>
        <time>2021-09-01T11:58:34Z</time>
      </trkpt>
      <trkpt lat="39.482383" lon="3.251410">
        <ele>87.810</ele>
        <time>2021-09-01T11:58:35Z</time>
      </trkpt>
      <trkpt lat="39.482280" lon="3.251368">
        <ele>87.284</ele>
        <time>2021-09-01T11:58:36Z</time>
      </trkpt>
      <trkpt lat="39.482187" lon="3.251316">
        <ele>86.713</ele>
        <time>2021-09-01T11:58:37Z</time>
      </trkpt>
      <trkpt lat="39.482087" lon="3.251270">
        <ele>86.338</ele>
        <time>2021-09-01T11:58:38Z</time>
      </trkpt>
      <trkpt lat="39.481991" lon="3.251221">
        <ele>85.955</ele>
        <time>2021-09-01T11:58:39Z</time>
      </trkpt>
      <trkpt lat="39.481895" lon="3.251167">
        <ele>85.445</ele>
        <time>2021-09-01T11:58:40Z</time>
      </trkpt>
      <trkpt lat="39.481804" lon="3.251102">
        <ele>85.013</ele>
        <time>2021-09-01T11:58:41Z</time>
      </trkpt>
      <trkpt lat="39.481716" lon="3.251023">
        <ele>84.743</ele>
        <time>2021-09-01T11:58:42Z</time>
      </trkpt>
      <trkpt lat="39.481631" lon="3.250941">
        <ele>84.207</ele>
        <time>2021-09-01T11:58:43Z</time>
      </trkpt>
      <trkpt lat="39.481559" lon="3.250845">
        <ele>83.608</ele>
        <time>2021-09-01T11:58:44Z</time>
      </trkpt>
      <trkpt lat="39.481491" lon="3.250743">
        <ele>83.219</ele>
        <time>2021-09-01T11:58:45Z</time>
      </trkpt>
      <trkpt lat="39.481425" lon="3.250650">
        <ele>82.823</ele>
        <time>2021-09-01T11:58:46Z</time>
      </trkpt>
      <trkpt lat="39.481368" lon="3.250549">
        <ele>82.438</ele>
        <time>2021-09-01T11:58:47Z</time>
      </trkpt>
      <trkpt lat="39.481324" lon="3.250454">
        <ele>82.482</ele>
        <time>2021-09-01T11:58:48Z</time>
      </trkpt>
      <trkpt lat="39.481267" lon="3.250375">
        <ele>82.551</ele>
        <time>2021-09-01T11:58:49Z</time>
      </trkpt>
      <trkpt lat="39.481214" lon="3.250302">
        <ele>82.936</ele>
        <time>2021-09-01T11:58:50Z</time>
      </trkpt>
      <trkpt lat="39.481165" lon="3.250244">
        <ele>83.333</ele>
        <time>2021-09-01T11:58:51Z</time>
      </trkpt>
      <trkpt lat="39.481112" lon="3.250178">
        <ele>83.583</ele>
        <time>2021-09-01T11:58:52Z</time>
      </trkpt>
      <trkpt lat="39.481062" lon="3.250125">
        <ele>83.758</ele>
        <time>2021-09-01T11:58:53Z</time>
      </trkpt>
      <trkpt lat="39.481012" lon="3.250076">
        <ele>84.052</ele>
        <time>2021-09-01T11:58:54Z</time>
      </trkpt>
      <trkpt lat="39.480967" lon="3.250029">
        <ele>84.217</ele>
        <time>2021-09-01T11:58:55Z</time>
      </trkpt>
      <trkpt lat="39.480918" lon="3.249984">
        <ele>84.508</ele>
        <time>2021-09-01T11:58:56Z</time>
      </trkpt>
      <trkpt lat="39.480865" lon="3.249945">
        <ele>85.043</ele>
        <time>2021-09-01T11:58:57Z</time>
      </trkpt>
      <trkpt lat="39.480814" lon="3.249911">
        <ele>85.447</ele>
        <time>2021-09-01T11:58:58Z</time>
      </trkpt>
      <trkpt lat="39.480763" lon="3.249880">
        <ele>85.872</ele>
        <time>2021-09-01T11:58:59Z</time>
      </trkpt>
      <trkpt lat="39.480710" lon="3.249854">
        <ele>86.326</ele>
        <time>2021-09-01T11:59:00Z</time>
      </trkpt>
      <trkpt lat="39.480657" lon="3.249830">
        <ele>86.795</ele>
        <time>2021-09-01T11:59:01Z</time>
      </trkpt>
      <trkpt lat="39.480603" lon="3.249808">
        <ele>87.040</ele>
        <time>2021-09-01T11:59:02Z</time>
      </trkpt>
      <trkpt lat="39.480550" lon="3.249792">
        <ele>87.477</ele>
        <time>2021-09-01T11:59:03Z</time>
      </trkpt>
      <trkpt lat="39.480499" lon="3.249775">
        <ele>87.877</ele>
        <time>2021-09-01T11:59:04Z</time>
      </trkpt>
      <trkpt lat="39.480448" lon="3.249760">
        <ele>88.345</ele>
        <time>2021-09-01T11:59:05Z</time>
      </trkpt>
      <trkpt lat="39.480398" lon="3.249748">
        <ele>88.647</ele>
        <time>2021-09-01T11:59:06Z</time>
      </trkpt>
      <trkpt lat="39.480347" lon="3.249740">
        <ele>89.011</ele>
        <time>2021-09-01T11:59:07Z</time>
      </trkpt>
      <trkpt lat="39.480295" lon="3.249731">
        <ele>89.408</ele>
        <time>2021-09-01T11:59:08Z</time>
      </trkpt>
      <trkpt lat="39.480244" lon="3.249725">
        <ele>89.782</ele>
        <time>2021-09-01T11:59:09Z</time>
      </trkpt>
      <trkpt lat="39.480194" lon="3.249718">
        <ele>90.076</ele>
        <time>2021-09-01T11:59:10Z</time>
      </trkpt>
      <trkpt lat="39.480145" lon="3.249711">
        <ele>90.571</ele>
        <time>2021-09-01T11:59:11Z</time>
      </trkpt>
      <trkpt lat="39.480098" lon="3.249699">
        <ele>90.975</ele>
        <time>2021-09-01T11:59:12Z</time>
      </trkpt>
      <trkpt lat="39.480051" lon="3.249695">
        <ele>91.274</ele>
        <time>2021-09-01T11:59:13Z</time>
      </trkpt>
      <trkpt lat="39.480003" lon="3.249685">
        <ele>91.629</ele>
        <time>2021-09-01T11:59:14Z</time>
      </trkpt>
      <trkpt lat="39.479955" lon="3.249684">
        <ele>92.056</ele>
        <time>2021-09-01T11:59:15Z</time>
      </trkpt>
      <trkpt lat="39.479910" lon="3.249672">
        <ele>92.496</ele>
        <time>2021-09-01T11:59:16Z</time>
      </trkpt>
      <trkpt lat="39.479821" lon="3.249658">
        <ele>93.111</ele>
        <time>2021-09-01T11:59:18Z</time>
      </trkpt>
      <trkpt lat="39.479739" lon="3.249652">
        <ele>93.821</ele>
        <time>2021-09-01T11:59:20Z</time>
      </trkpt>
      <trkpt lat="39.479659" lon="3.249643">
        <ele>94.703</ele>
        <time>2021-09-01T11:59:22Z</time>
      </trkpt>
      <trkpt lat="39.479572" lon="3.249634">
        <ele>95.308</ele>
        <time>2021-09-01T11:59:24Z</time>
      </trkpt>
      <trkpt lat="39.479525" lon="3.249627">
        <ele>95.519</ele>
        <time>2021-09-01T11:59:25Z</time>
      </trkpt>
      <trkpt lat="39.479476" lon="3.249620">
        <ele>95.773</ele>
        <time>2021-09-01T11:59:26Z</time>
      </trkpt>
      <trkpt lat="39.479428" lon="3.249617">
        <ele>95.768</ele>
        <time>2021-09-01T11:59:27Z</time>
      </trkpt>
      <trkpt lat="39.479377" lon="3.249620">
        <ele>95.672</ele>
        <time>2021-09-01T11:59:28Z</time>
      </trkpt>
      <trkpt lat="39.479322" lon="3.249619">
        <ele>95.551</ele>
        <time>2021-09-01T11:59:29Z</time>
      </trkpt>
      <trkpt lat="39.479269" lon="3.249617">
        <ele>95.426</ele>
        <time>2021-09-01T11:59:30Z</time>
      </trkpt>
      <trkpt lat="39.479219" lon="3.249613">
        <ele>95.163</ele>
        <time>2021-09-01T11:59:31Z</time>
      </trkpt>
      <trkpt lat="39.479161" lon="3.249608">
        <ele>95.173</ele>
        <time>2021-09-01T11:59:32Z</time>
      </trkpt>
      <trkpt lat="39.479103" lon="3.249608">
        <ele>95.221</ele>
        <time>2021-09-01T11:59:33Z</time>
      </trkpt>
      <trkpt lat="39.479044" lon="3.249604">
        <ele>95.341</ele>
        <time>2021-09-01T11:59:34Z</time>
      </trkpt>
      <trkpt lat="39.478981" lon="3.249601">
        <ele>95.405</ele>
        <time>2021-09-01T11:59:35Z</time>
      </trkpt>
      <trkpt lat="39.478909" lon="3.249593">
        <ele>95.508</ele>
        <time>2021-09-01T11:59:36Z</time>
      </trkpt>
      <trkpt lat="39.478843" lon="3.249585">
        <ele>95.570</ele>
        <time>2021-09-01T11:59:37Z</time>
      </trkpt>
      <trkpt lat="39.478774" lon="3.249583">
        <ele>95.544</ele>
        <time>2021-09-01T11:59:38Z</time>
      </trkpt>
      <trkpt lat="39.478702" lon="3.249576">
        <ele>95.269</ele>
        <time>2021-09-01T11:59:39Z</time>
      </trkpt>
      <trkpt lat="39.478627" lon="3.249568">
        <ele>95.023</ele>
        <time>2021-09-01T11:59:40Z</time>
      </trkpt>
      <trkpt lat="39.478552" lon="3.249559">
        <ele>94.712</ele>
        <time>2021-09-01T11:59:41Z</time>
      </trkpt>
      <trkpt lat="39.478474" lon="3.249554">
        <ele>94.467</ele>
        <time>2021-09-01T11:59:42Z</time>
      </trkpt>
      <trkpt lat="39.478401" lon="3.249550">
        <ele>94.214</ele>
        <time>2021-09-01T11:59:43Z</time>
      </trkpt>
      <trkpt lat="39.478327" lon="3.249538">
        <ele>94.094</ele>
        <time>2021-09-01T11:59:44Z</time>
      </trkpt>
      <trkpt lat="39.478253" lon="3.249531">
        <ele>93.825</ele>
        <time>2021-09-01T11:59:45Z</time>
      </trkpt>
      <trkpt lat="39.478182" lon="3.249530">
        <ele>93.726</ele>
        <time>2021-09-01T11:59:46Z</time>
      </trkpt>
      <trkpt lat="39.478106" lon="3.249517">
        <ele>93.708</ele>
        <time>2021-09-01T11:59:47Z</time>
      </trkpt>
      <trkpt lat="39.478037" lon="3.249509">
        <ele>93.508</ele>
        <time>2021-09-01T11:59:48Z</time>
      </trkpt>
      <trkpt lat="39.477965" lon="3.249510">
        <ele>93.470</ele>
        <time>2021-09-01T11:59:49Z</time>
      </trkpt>
      <trkpt lat="39.477891" lon="3.249507">
        <ele>93.314</ele>
        <time>2021-09-01T11:59:50Z</time>
      </trkpt>
      <trkpt lat="39.477814" lon="3.249498">
        <ele>93.149</ele>
        <time>2021-09-01T11:59:51Z</time>
      </trkpt>
      <trkpt lat="39.477732" lon="3.249479">
        <ele>92.913</ele>
        <time>2021-09-01T11:59:52Z</time>
      </trkpt>
      <trkpt lat="39.477645" lon="3.249457">
        <ele>92.622</ele>
        <time>2021-09-01T11:59:53Z</time>
      </trkpt>
      <trkpt lat="39.477560" lon="3.249419">
        <ele>92.397</ele>
        <time>2021-09-01T11:59:54Z</time>
      </trkpt>
      <trkpt lat="39.477480" lon="3.249370">
        <ele>92.084</ele>
        <time>2021-09-01T11:59:55Z</time>
      </trkpt>
      <trkpt lat="39.477395" lon="3.249325">
        <ele>91.674</ele>
        <time>2021-09-01T11:59:56Z</time>
      </trkpt>
      <trkpt lat="39.477309" lon="3.249275">
        <ele>91.191</ele>
        <time>2021-09-01T11:59:57Z</time>
      </trkpt>
      <trkpt lat="39.477218" lon="3.249223">
        <ele>90.781</ele>
        <time>2021-09-01T11:59:58Z</time>
      </trkpt>
      <trkpt lat="39.477127" lon="3.249178">
        <ele>90.219</ele>
        <time>2021-09-01T11:59:59Z</time>
      </trkpt>
      <trkpt lat="39.477034" lon="3.249129">
        <ele>89.508</ele>
        <time>2021-09-01T12:00:00Z</time>
      </trkpt>
      <trkpt lat="39.476944" lon="3.249071">
        <ele>88.837</ele>
        <time>2021-09-01T12:00:01Z</time>
      </trkpt>
      <trkpt lat="39.476854" lon="3.249018">
        <ele>88.141</ele>
        <time>2021-09-01T12:00:02Z</time>
      </trkpt>
      <trkpt lat="39.476773" lon="3.248976">
        <ele>87.316</ele>
        <time>2021-09-01T12:00:03Z</time>
      </trkpt>
      <trkpt lat="39.476697" lon="3.248937">
        <ele>86.490</ele>
        <time>2021-09-01T12:00:04Z</time>
      </trkpt>
      <trkpt lat="39.476624" lon="3.248894">
        <ele>86.049</ele>
        <time>2021-09-01T12:00:05Z</time>
      </trkpt>
      <trkpt lat="39.476548" lon="3.248864">
        <ele>85.614</ele>
        <time>2021-09-01T12:00:06Z</time>
      </trkpt>
      <trkpt lat="39.476476" lon="3.248831">
        <ele>85.351</ele>
        <time>2021-09-01T12:00:07Z</time>
      </trkpt>
      <trkpt lat="39.476409" lon="3.248794">
        <ele>85.121</ele>
        <time>2021-09-01T12:00:08Z</time>
      </trkpt>
      <trkpt lat="39.476343" lon="3.248768">
        <ele>85.129</ele>
        <time>2021-09-01T12:00:09Z</time>
      </trkpt>
      <trkpt lat="39.476285" lon="3.248748">
        <ele>85.000</ele>
        <time>2021-09-01T12:00:10Z</time>
      </trkpt>
      <trkpt lat="39.476225" lon="3.248773">
        <ele>84.820</ele>
        <time>2021-09-01T12:00:11Z</time>
      </trkpt>
      <trkpt lat="39.476175" lon="3.248840">
        <ele>84.608</ele>
        <time>2021-09-01T12:00:12Z</time>
      </trkpt>
      <trkpt lat="39.476141" lon="3.248904">
        <ele>84.530</ele>
        <time>2021-09-01T12:00:13Z</time>
      </trkpt>
      <trkpt lat="39.476092" lon="3.248969">
        <ele>84.464</ele>
        <time>2021-09-01T12:00:14Z</time>
      </trkpt>
      <trkpt lat="39.476041" lon="3.249020">
        <ele>84.319</ele>
        <time>2021-09-01T12:00:15Z</time>
      </trkpt>
      <trkpt lat="39.475991" lon="3.249079">
        <ele>84.113</ele>
        <time>2021-09-01T12:00:16Z</time>
      </trkpt>
      <trkpt lat="39.475951" lon="3.249143">
        <ele>83.832</ele>
        <time>2021-09-01T12:00:17Z</time>
      </trkpt>
      <trkpt lat="39.475905" lon="3.249201">
        <ele>83.537</ele>
        <time>2021-09-01T12:00:18Z</time>
      </trkpt>
      <trkpt lat="39.475860" lon="3.249255">
        <ele>83.114</ele>
        <time>2021-09-01T12:00:19Z</time>
      </trkpt>
      <trkpt lat="39.475819" lon="3.249309">
        <ele>83.024</ele>
        <time>2021-09-01T12:00:20Z</time>
      </trkpt>
      <trkpt lat="39.475782" lon="3.249362">
        <ele>82.949</ele>
        <time>2021-09-01T12:00:21Z</time>
      </trkpt>
      <trkpt lat="39.475743" lon="3.249411">
        <ele>82.902</ele>
        <time>2021-09-01T12:00:22Z</time>
      </trkpt>
      <trkpt lat="39.475705" lon="3.249461">
        <ele>82.822</ele>
        <time>2021-09-01T12:00:23Z</time>
      </trkpt>
      <trkpt lat="39.475663" lon="3.249504">
        <ele>82.808</ele>
        <time>2021-09-01T12:00:24Z</time>
      </trkpt>
      <trkpt lat="39.475621" lon="3.249548">
        <ele>82.822</ele>
        <time>2021-09-01T12:00:25Z</time>
      </trkpt>
      <trkpt lat="39.475579" lon="3.249597">
        <ele>82.776</ele>
        <time>2021-09-01T12:00:26Z</time>
      </trkpt>
      <trkpt lat="39.475536" lon="3.249657">
        <ele>82.631</ele>
        <time>2021-09-01T12:00:27Z</time>
      </trkpt>
      <trkpt lat="39.475491" lon="3.249717">
        <ele>82.555</ele>
        <time>2021-09-01T12:00:28Z</time>
      </trkpt>
      <trkpt lat="39.475451" lon="3.249773">
        <ele>82.544</ele>
        <time>2021-09-01T12:00:29Z</time>
      </trkpt>
      <trkpt lat="39.475408" lon="3.249832">
        <ele>82.329</ele>
        <time>2021-09-01T12:00:30Z</time>
      </trkpt>
      <trkpt lat="39.475361" lon="3.249890">
        <ele>82.356</ele>
        <time>2021-09-01T12:00:31Z</time>
      </trkpt>
      <trkpt lat="39.475314" lon="3.249949">
        <ele>82.326</ele>
        <time>2021-09-01T12:00:32Z</time>
      </trkpt>
      <trkpt lat="39.475270" lon="3.250008">
        <ele>82.343</ele>
        <time>2021-09-01T12:00:33Z</time>
      </trkpt>
      <trkpt lat="39.475226" lon="3.250062">
        <ele>82.364</ele>
        <time>2021-09-01T12:00:34Z</time>
      </trkpt>
      <trkpt lat="39.475181" lon="3.250114">
        <ele>82.310</ele>
        <time>2021-09-01T12:00:35Z</time>
      </trkpt>
      <trkpt lat="39.475135" lon="3.250165">
        <ele>82.308</ele>
        <time>2021-09-01T12:00:36Z</time>
      </trkpt>
      <trkpt lat="39.475088" lon="3.250220">
        <ele>82.182</ele>
        <time>2021-09-01T12:00:37Z</time>
      </trkpt>
      <trkpt lat="39.475044" lon="3.250275">
        <ele>81.916</ele>
        <time>2021-09-01T12:00:38Z</time>
      </trkpt>
      <trkpt lat="39.474998" lon="3.250333">
        <ele>81.811</ele>
        <time>2021-09-01T12:00:39Z</time>
      </trkpt>
      <trkpt lat="39.474951" lon="3.250389">
        <ele>81.495</ele>
        <time>2021-09-01T12:00:40Z</time>
      </trkpt>
      <trkpt lat="39.474903" lon="3.250446">
        <ele>81.154</ele>
        <time>2021-09-01T12:00:41Z</time>
      </trkpt>
      <trkpt lat="39.474857" lon="3.250510">
        <ele>80.849</ele>
        <time>2021-09-01T12:00:42Z</time>
      </trkpt>
      <trkpt lat="39.474814" lon="3.250567">
        <ele>80.446</ele>
        <time>2021-09-01T12:00:43Z</time>
      </trkpt>
      <trkpt lat="39.474765" lon="3.250633">
        <ele>80.096</ele>
        <time>2021-09-01T12:00:44Z</time>
      </trkpt>
      <trkpt lat="39.474717" lon="3.250693">
        <ele>79.768</ele>
        <time>2021-09-01T12:00:45Z</time>
      </trkpt>
      <trkpt lat="39.474670" lon="3.250749">
        <ele>79.642</ele>
        <time>2021-09-01T12:00:46Z</time>
      </trkpt>
      <trkpt lat="39.474618" lon="3.250809">
        <ele>79.426</ele>
        <time>2021-09-01T12:00:47Z</time>
      </trkpt>
      <trkpt lat="39.474566" lon="3.250868">
        <ele>79.308</ele>
        <time>2021-09-01T12:00:48Z</time>
      </trkpt>
      <trkpt lat="39.474515" lon="3.250931">
        <ele>79.354</ele>
        <time>2021-09-01T12:00:49Z</time>
      </trkpt>
      <trkpt lat="39.474464" lon="3.250990">
        <ele>79.318</ele>
        <time>2021-09-01T12:00:50Z</time>
      </trkpt>
      <trkpt lat="39.474426" lon="3.251054">
        <ele>79.233</ele>
        <time>2021-09-01T12:00:51Z</time>
      </trkpt>
      <trkpt lat="39.474376" lon="3.251116">
        <ele>79.227</ele>
        <time>2021-09-01T12:00:52Z</time>
      </trkpt>
      <trkpt lat="39.474327" lon="3.251175">
        <ele>79.176</ele>
        <time>2021-09-01T12:00:53Z</time>
      </trkpt>
      <trkpt lat="39.474281" lon="3.251238">
        <ele>79.081</ele>
        <time>2021-09-01T12:00:54Z</time>
      </trkpt>
      <trkpt lat="39.474237" lon="3.251296">
        <ele>78.848</ele>
        <time>2021-09-01T12:00:55Z</time>
      </trkpt>
      <trkpt lat="39.474188" lon="3.251354">
        <ele>78.858</ele>
        <time>2021-09-01T12:00:56Z</time>
      </trkpt>
      <trkpt lat="39.474138" lon="3.251412">
        <ele>78.632</ele>
        <time>2021-09-01T12:00:57Z</time>
      </trkpt>
      <trkpt lat="39.474092" lon="3.251467">
        <ele>78.592</ele>
        <time>2021-09-01T12:00:58Z</time>
      </trkpt>
      <trkpt lat="39.474046" lon="3.251534">
        <ele>78.411</ele>
        <time>2021-09-01T12:00:59Z</time>
      </trkpt>
      <trkpt lat="39.474001" lon="3.251590">
        <ele>78.308</ele>
        <time>2021-09-01T12:01:00Z</time>
      </trkpt>
      <trkpt lat="39.473962" lon="3.251644">
        <ele>78.351</ele>
        <time>2021-09-01T12:01:01Z</time>
      </trkpt>
      <trkpt lat="39.473921" lon="3.251706">
        <ele>78.325</ele>
        <time>2021-09-01T12:01:02Z</time>
      </trkpt>
      <trkpt lat="39.473882" lon="3.251755">
        <ele>78.330</ele>
        <time>2021-09-01T12:01:03Z</time>
      </trkpt>
      <trkpt lat="39.473837" lon="3.251799">
        <ele>78.364</ele>
        <time>2021-09-01T12:01:04Z</time>
      </trkpt>
      <trkpt lat="39.473795" lon="3.251854">
        <ele>78.313</ele>
        <time>2021-09-01T12:01:05Z</time>
      </trkpt>
      <trkpt lat="39.473758" lon="3.251904">
        <ele>78.228</ele>
        <time>2021-09-01T12:01:06Z</time>
      </trkpt>
      <trkpt lat="39.473716" lon="3.251958">
        <ele>78.065</ele>
        <time>2021-09-01T12:01:07Z</time>
      </trkpt>
      <trkpt lat="39.473676" lon="3.252016">
        <ele>77.985</ele>
        <time>2021-09-01T12:01:08Z</time>
      </trkpt>
      <trkpt lat="39.473637" lon="3.252071">
        <ele>77.947</ele>
        <time>2021-09-01T12:01:09Z</time>
      </trkpt>
      <trkpt lat="39.473599" lon="3.252123">
        <ele>77.929</ele>
        <time>2021-09-01T12:01:10Z</time>
      </trkpt>
      <trkpt lat="39.473558" lon="3.252173">
        <ele>77.921</ele>
        <time>2021-09-01T12:01:11Z</time>
      </trkpt>
      <trkpt lat="39.473513" lon="3.252219">
        <ele>78.008</ele>
        <time>2021-09-01T12:01:12Z</time>
      </trkpt>
      <trkpt lat="39.473471" lon="3.252271">
        <ele>78.032</ele>
        <time>2021-09-01T12:01:13Z</time>
      </trkpt>
      <trkpt lat="39.473435" lon="3.252324">
        <ele>78.046</ele>
        <time>2021-09-01T12:01:14Z</time>
      </trkpt>
      <trkpt lat="39.473391" lon="3.252377">
        <ele>78.011</ele>
        <time>2021-09-01T12:01:15Z</time>
      </trkpt>
      <trkpt lat="39.473349" lon="3.252430">
        <ele>77.885</ele>
        <time>2021-09-01T12:01:16Z</time>
      </trkpt>
      <trkpt lat="39.473307" lon="3.252486">
        <ele>77.714</ele>
        <time>2021-09-01T12:01:17Z</time>
      </trkpt>
      <trkpt lat="39.473271" lon="3.252545">
        <ele>77.519</ele>
        <time>2021-09-01T12:01:18Z</time>
      </trkpt>
      <trkpt lat="39.473231" lon="3.252597">
        <ele>77.386</ele>
        <time>2021-09-01T12:01:19Z</time>
      </trkpt>
      <trkpt lat="39.473195" lon="3.252649">
        <ele>77.346</ele>
        <time>2021-09-01T12:01:20Z</time>
      </trkpt>
      <trkpt lat="39.473155" lon="3.252707">
        <ele>77.215</ele>
        <time>2021-09-01T12:01:21Z</time>
      </trkpt>
      <trkpt lat="39.473117" lon="3.252759">
        <ele>77.165</ele>
        <time>2021-09-01T12:01:22Z</time>
      </trkpt>
      <trkpt lat="39.473073" lon="3.252816">
        <ele>76.811</ele>
        <time>2021-09-01T12:01:23Z</time>
      </trkpt>
      <trkpt lat="39.473037" lon="3.252859">
        <ele>76.708</ele>
        <time>2021-09-01T12:01:24Z</time>
      </trkpt>
      <trkpt lat="39.472959" lon="3.252929">
        <ele>76.179</ele>
        <time>2021-09-01T12:01:26Z</time>
      </trkpt>
      <trkpt lat="39.472916" lon="3.252980">
        <ele>75.553</ele>
        <time>2021-09-01T12:01:28Z</time>
      </trkpt>
      <trkpt lat="39.472825" lon="3.252950">
        <ele>74.698</ele>
        <time>2021-09-01T12:01:30Z</time>
      </trkpt>
      <trkpt lat="39.472795" lon="3.252905">
        <ele>74.342</ele>
        <time>2021-09-01T12:01:31Z</time>
      </trkpt>
      <trkpt lat="39.472753" lon="3.252844">
        <ele>73.921</ele>
        <time>2021-09-01T12:01:33Z</time>
      </trkpt>
      <trkpt lat="39.472715" lon="3.252782">
        <ele>74.036</ele>
        <time>2021-09-01T12:01:35Z</time>
      </trkpt>
      <trkpt lat="39.472674" lon="3.252732">
        <ele>74.293</ele>
        <time>2021-09-01T12:01:37Z</time>
      </trkpt>
      <trkpt lat="39.472634" lon="3.252684">
        <ele>74.533</ele>
        <time>2021-09-01T12:01:39Z</time>
      </trkpt>
      <trkpt lat="39.472595" lon="3.252620">
        <ele>74.814</ele>
        <time>2021-09-01T12:01:41Z</time>
      </trkpt>
      <trkpt lat="39.472552" lon="3.252547">
        <ele>75.054</ele>
        <time>2021-09-01T12:01:43Z</time>
      </trkpt>
      <trkpt lat="39.472505" lon="3.252468">
        <ele>75.109</ele>
        <time>2021-09-01T12:01:45Z</time>
      </trkpt>
      <trkpt lat="39.472460" lon="3.252386">
        <ele>75.208</ele>
        <time>2021-09-01T12:01:47Z</time>
      </trkpt>
      <trkpt lat="39.472406" lon="3.252311">
        <ele>75.159</ele>
        <time>2021-09-01T12:01:49Z</time>
      </trkpt>
      <trkpt lat="39.472380" lon="3.252260">
        <ele>75.133</ele>
        <time>2021-09-01T12:01:50Z</time>
      </trkpt>
      <trkpt lat="39.472349" lon="3.252213">
        <ele>75.038</ele>
        <time>2021-09-01T12:01:51Z</time>
      </trkpt>
      <trkpt lat="39.472293" lon="3.252130">
        <ele>75.092</ele>
        <time>2021-09-01T12:01:53Z</time>
      </trkpt>
      <trkpt lat="39.472217" lon="3.252087">
        <ele>74.971</ele>
        <time>2021-09-01T12:01:55Z</time>
      </trkpt>
      <trkpt lat="39.472146" lon="3.252151">
        <ele>74.846</ele>
        <time>2021-09-01T12:01:57Z</time>
      </trkpt>
      <trkpt lat="39.472113" lon="3.252255">
        <ele>74.753</ele>
        <time>2021-09-01T12:01:59Z</time>
      </trkpt>
      <trkpt lat="39.472055" lon="3.252325">
        <ele>74.723</ele>
        <time>2021-09-01T12:02:01Z</time>
      </trkpt>
      <trkpt lat="39.472022" lon="3.252369">
        <ele>74.646</ele>
        <time>2021-09-01T12:02:02Z</time>
      </trkpt>
      <trkpt lat="39.471968" lon="3.252441">
        <ele>74.688</ele>
        <time>2021-09-01T12:02:04Z</time>
      </trkpt>
      <trkpt lat="39.471897" lon="3.252451">
        <ele>74.616</ele>
        <time>2021-09-01T12:02:06Z</time>
      </trkpt>
      <trkpt lat="39.471852" lon="3.252430">
        <ele>74.608</ele>
        <time>2021-09-01T12:02:07Z</time>
      </trkpt>
      <trkpt lat="39.471800" lon="3.252361">
        <ele>74.762</ele>
        <time>2021-09-01T12:02:09Z</time>
      </trkpt>
      <trkpt lat="39.471742" lon="3.252273">
        <ele>74.776</ele>
        <time>2021-09-01T12:02:11Z</time>
      </trkpt>
      <trkpt lat="39.471710" lon="3.252222">
        <ele>74.721</ele>
        <time>2021-09-01T12:02:12Z</time>
      </trkpt>
      <trkpt lat="39.471675" lon="3.252177">
        <ele>74.775</ele>
        <time>2021-09-01T12:02:13Z</time>
      </trkpt>
      <trkpt lat="39.471642" lon="3.252130">
        <ele>74.744</ele>
        <time>2021-09-01T12:02:14Z</time>
      </trkpt>
      <trkpt lat="39.471601" lon="3.252082">
        <ele>74.659</ele>
        <time>2021-09-01T12:02:15Z</time>
      </trkpt>
      <trkpt lat="39.471568" lon="3.252030">
        <ele>74.666</ele>
        <time>2021-09-01T12:02:16Z</time>
      </trkpt>
      <trkpt lat="39.471534" lon="3.251986">
        <ele>74.586</ele>
        <time>2021-09-01T12:02:17Z</time>
      </trkpt>
      <trkpt lat="39.471491" lon="3.251945">
        <ele>74.481</ele>
        <time>2021-09-01T12:02:18Z</time>
      </trkpt>
      <trkpt lat="39.471450" lon="3.251893">
        <ele>74.261</ele>
        <time>2021-09-01T12:02:19Z</time>
      </trkpt>
      <trkpt lat="39.471409" lon="3.251841">
        <ele>74.117</ele>
        <time>2021-09-01T12:02:20Z</time>
      </trkpt>
      <trkpt lat="39.471374" lon="3.251789">
        <ele>73.908</ele>
        <time>2021-09-01T12:02:21Z</time>
      </trkpt>
      <trkpt lat="39.471343" lon="3.251737">
        <ele>73.656</ele>
        <time>2021-09-01T12:02:22Z</time>
      </trkpt>
      <trkpt lat="39.471304" lon="3.251682">
        <ele>73.440</ele>
        <time>2021-09-01T12:02:23Z</time>
      </trkpt>
      <trkpt lat="39.471265" lon="3.251635">
        <ele>73.165</ele>
        <time>2021-09-01T12:02:24Z</time>
      </trkpt>
      <trkpt lat="39.471185" lon="3.251594">
        <ele>72.669</ele>
        <time>2021-09-01T12:02:26Z</time>
      </trkpt>
      <trkpt lat="39.471135" lon="3.251636">
        <ele>72.468</ele>
        <time>2021-09-01T12:02:27Z</time>
      </trkpt>
      <trkpt lat="39.471087" lon="3.251732">
        <ele>72.163</ele>
        <time>2021-09-01T12:02:29Z</time>
      </trkpt>
      <trkpt lat="39.471061" lon="3.251783">
        <ele>72.180</ele>
        <time>2021-09-01T12:02:30Z</time>
      </trkpt>
      <trkpt lat="39.471024" lon="3.251823">
        <ele>72.180</ele>
        <time>2021-09-01T12:02:31Z</time>
      </trkpt>
      <trkpt lat="39.470985" lon="3.251860">
        <ele>72.231</ele>
        <time>2021-09-01T12:02:32Z</time>
      </trkpt>
      <trkpt lat="39.470926" lon="3.251939">
        <ele>72.461</ele>
        <time>2021-09-01T12:02:34Z</time>
      </trkpt>
      <trkpt lat="39.470853" lon="3.252021">
        <ele>72.507</ele>
        <time>2021-09-01T12:02:36Z</time>
      </trkpt>
      <trkpt lat="39.470816" lon="3.252075">
        <ele>72.508</ele>
        <time>2021-09-01T12:02:37Z</time>
      </trkpt>
      <trkpt lat="39.470780" lon="3.252116">
        <ele>72.491</ele>
        <time>2021-09-01T12:02:38Z</time>
      </trkpt>
      <trkpt lat="39.470743" lon="3.252163">
        <ele>72.485</ele>
        <time>2021-09-01T12:02:39Z</time>
      </trkpt>
      <trkpt lat="39.470710" lon="3.252213">
        <ele>72.340</ele>
        <time>2021-09-01T12:02:40Z</time>
      </trkpt>
      <trkpt lat="39.470666" lon="3.252265">
        <ele>72.284</ele>
        <time>2021-09-01T12:02:41Z</time>
      </trkpt>
      <trkpt lat="39.470624" lon="3.252315">
        <ele>72.133</ele>
        <time>2021-09-01T12:02:42Z</time>
      </trkpt>
      <trkpt lat="39.470584" lon="3.252365">
        <ele>72.048</ele>
        <time>2021-09-01T12:02:43Z</time>
      </trkpt>
      <trkpt lat="39.470540" lon="3.252419">
        <ele>71.855</ele>
        <time>2021-09-01T12:02:44Z</time>
      </trkpt>
      <trkpt lat="39.470508" lon="3.252470">
        <ele>71.625</ele>
        <time>2021-09-01T12:02:45Z</time>
      </trkpt>
      <trkpt lat="39.470461" lon="3.252525">
        <ele>71.337</ele>
        <time>2021-09-01T12:02:46Z</time>
      </trkpt>
      <trkpt lat="39.470415" lon="3.252581">
        <ele>71.049</ele>
        <time>2021-09-01T12:02:47Z</time>
      </trkpt>
      <trkpt lat="39.470373" lon="3.252635">
        <ele>70.813</ele>
        <time>2021-09-01T12:02:48Z</time>
      </trkpt>
      <trkpt lat="39.470325" lon="3.252687">
        <ele>70.608</ele>
        <time>2021-09-01T12:02:49Z</time>
      </trkpt>
      <trkpt lat="39.470283" lon="3.252745">
        <ele>70.581</ele>
        <time>2021-09-01T12:02:50Z</time>
      </trkpt>
      <trkpt lat="39.470240" lon="3.252800">
        <ele>70.375</ele>
        <time>2021-09-01T12:02:51Z</time>
      </trkpt>
      <trkpt lat="39.470193" lon="3.252866">
        <ele>70.280</ele>
        <time>2021-09-01T12:02:52Z</time>
      </trkpt>
      <trkpt lat="39.470137" lon="3.252928">
        <ele>69.984</ele>
        <time>2021-09-01T12:02:53Z</time>
      </trkpt>
      <trkpt lat="39.470078" lon="3.252992">
        <ele>69.553</ele>
        <time>2021-09-01T12:02:54Z</time>
      </trkpt>
      <trkpt lat="39.470029" lon="3.253061">
        <ele>68.978</ele>
        <time>2021-09-01T12:02:55Z</time>
      </trkpt>
      <trkpt lat="39.469966" lon="3.253134">
        <ele>68.495</ele>
        <time>2021-09-01T12:02:56Z</time>
      </trkpt>
      <trkpt lat="39.469912" lon="3.253199">
        <ele>67.975</ele>
        <time>2021-09-01T12:02:57Z</time>
      </trkpt>
      <trkpt lat="39.469858" lon="3.253274">
        <ele>67.629</ele>
        <time>2021-09-01T12:02:58Z</time>
      </trkpt>
      <trkpt lat="39.469797" lon="3.253342">
        <ele>67.200</ele>
        <time>2021-09-01T12:02:59Z</time>
      </trkpt>
      <trkpt lat="39.469735" lon="3.253411">
        <ele>66.920</ele>
        <time>2021-09-01T12:03:00Z</time>
      </trkpt>
      <trkpt lat="39.469675" lon="3.253486">
        <ele>66.508</ele>
        <time>2021-09-01T12:03:01Z</time>
      </trkpt>
      <trkpt lat="39.469613" lon="3.253554">
        <ele>66.030</ele>
        <time>2021-09-01T12:03:02Z</time>
      </trkpt>
      <trkpt lat="39.469555" lon="3.253630">
        <ele>65.324</ele>
        <time>2021-09-01T12:03:03Z</time>
      </trkpt>
      <trkpt lat="39.469493" lon="3.253707">
        <ele>64.789</ele>
        <time>2021-09-01T12:03:04Z</time>
      </trkpt>
      <trkpt lat="39.469433" lon="3.253782">
        <ele>64.213</ele>
        <time>2021-09-01T12:03:05Z</time>
      </trkpt>
      <trkpt lat="39.469372" lon="3.253850">
        <ele>63.792</ele>
        <time>2021-09-01T12:03:06Z</time>
      </trkpt>
      <trkpt lat="39.469315" lon="3.253926">
        <ele>63.427</ele>
        <time>2021-09-01T12:03:07Z</time>
      </trkpt>
      <trkpt lat="39.469259" lon="3.253992">
        <ele>63.124</ele>
        <time>2021-09-01T12:03:08Z</time>
      </trkpt>
      <trkpt lat="39.469206" lon="3.254061">
        <ele>63.044</ele>
        <time>2021-09-01T12:03:09Z</time>
      </trkpt>
      <trkpt lat="39.469156" lon="3.254119">
        <ele>63.066</ele>
        <time>2021-09-01T12:03:10Z</time>
      </trkpt>
      <trkpt lat="39.469103" lon="3.254182">
        <ele>63.029</ele>
        <time>2021-09-01T12:03:11Z</time>
      </trkpt>
      <trkpt lat="39.469054" lon="3.254243">
        <ele>63.021</ele>
        <time>2021-09-01T12:03:12Z</time>
      </trkpt>
      <trkpt lat="39.469005" lon="3.254297">
        <ele>63.008</ele>
        <time>2021-09-01T12:03:13Z</time>
      </trkpt>
      <trkpt lat="39.468956" lon="3.254354">
        <ele>63.084</ele>
        <time>2021-09-01T12:03:14Z</time>
      </trkpt>
      <trkpt lat="39.468916" lon="3.254415">
        <ele>63.098</ele>
        <time>2021-09-01T12:03:15Z</time>
      </trkpt>
      <trkpt lat="39.468852" lon="3.254513">
        <ele>63.133</ele>
        <time>2021-09-01T12:03:17Z</time>
      </trkpt>
      <trkpt lat="39.468811" lon="3.254563">
        <ele>63.367</ele>
        <time>2021-09-01T12:03:18Z</time>
      </trkpt>
      <trkpt lat="39.468777" lon="3.254614">
        <ele>63.446</ele>
        <time>2021-09-01T12:03:19Z</time>
      </trkpt>
      <trkpt lat="39.468725" lon="3.254692">
        <ele>63.791</ele>
        <time>2021-09-01T12:03:21Z</time>
      </trkpt>
      <trkpt lat="39.468666" lon="3.254760">
        <ele>64.058</ele>
        <time>2021-09-01T12:03:23Z</time>
      </trkpt>
      <trkpt lat="39.468597" lon="3.254846">
        <ele>64.068</ele>
        <time>2021-09-01T12:03:25Z</time>
      </trkpt>
      <trkpt lat="39.468562" lon="3.254892">
        <ele>63.917</ele>
        <time>2021-09-01T12:03:26Z</time>
      </trkpt>
      <trkpt lat="39.468523" lon="3.254938">
        <ele>63.787</ele>
        <time>2021-09-01T12:03:27Z</time>
      </trkpt>
      <trkpt lat="39.468480" lon="3.254989">
        <ele>63.515</ele>
        <time>2021-09-01T12:03:28Z</time>
      </trkpt>
      <trkpt lat="39.468437" lon="3.255045">
        <ele>63.408</ele>
        <time>2021-09-01T12:03:29Z</time>
      </trkpt>
      <trkpt lat="39.468402" lon="3.255094">
        <ele>63.329</ele>
        <time>2021-09-01T12:03:30Z</time>
      </trkpt>
      <trkpt lat="39.468355" lon="3.255143">
        <ele>63.243</ele>
        <time>2021-09-01T12:03:31Z</time>
      </trkpt>
      <trkpt lat="39.468312" lon="3.255195">
        <ele>63.188</ele>
        <time>2021-09-01T12:03:32Z</time>
      </trkpt>
      <trkpt lat="39.468265" lon="3.255243">
        <ele>63.082</ele>
        <time>2021-09-01T12:03:33Z</time>
      </trkpt>
      <trkpt lat="39.468221" lon="3.255297">
        <ele>62.981</ele>
        <time>2021-09-01T12:03:34Z</time>
      </trkpt>
      <trkpt lat="39.468184" lon="3.255345">
        <ele>62.946</ele>
        <time>2021-09-01T12:03:35Z</time>
      </trkpt>
      <trkpt lat="39.468151" lon="3.255393">
        <ele>62.893</ele>
        <time>2021-09-01T12:03:36Z</time>
      </trkpt>
      <trkpt lat="39.468120" lon="3.255451">
        <ele>62.743</ele>
        <time>2021-09-01T12:03:37Z</time>
      </trkpt>
      <trkpt lat="39.468081" lon="3.255501">
        <ele>62.549</ele>
        <time>2021-09-01T12:03:38Z</time>
      </trkpt>
      <trkpt lat="39.468041" lon="3.255549">
        <ele>62.402</ele>
        <time>2021-09-01T12:03:39Z</time>
      </trkpt>
      <trkpt lat="39.467995" lon="3.255598">
        <ele>62.022</ele>
        <time>2021-09-01T12:03:40Z</time>
      </trkpt>
      <trkpt lat="39.467956" lon="3.255640">
        <ele>61.808</ele>
        <time>2021-09-01T12:03:41Z</time>
      </trkpt>
      <trkpt lat="39.467916" lon="3.255690">
        <ele>61.582</ele>
        <time>2021-09-01T12:03:42Z</time>
      </trkpt>
      <trkpt lat="39.467878" lon="3.255740">
        <ele>61.536</ele>
        <time>2021-09-01T12:03:43Z</time>
      </trkpt>
      <trkpt lat="39.467835" lon="3.255798">
        <ele>61.591</ele>
        <time>2021-09-01T12:03:44Z</time>
      </trkpt>
      <trkpt lat="39.467793" lon="3.255847">
        <ele>61.415</ele>
        <time>2021-09-01T12:03:45Z</time>
      </trkpt>
      <trkpt lat="39.467754" lon="3.255895">
        <ele>61.344</ele>
        <time>2021-09-01T12:03:46Z</time>
      </trkpt>
      <trkpt lat="39.467719" lon="3.255950">
        <ele>61.229</ele>
        <time>2021-09-01T12:03:47Z</time>
      </trkpt>
      <trkpt lat="39.467679" lon="3.256004">
        <ele>61.046</ele>
        <time>2021-09-01T12:03:48Z</time>
      </trkpt>
      <trkpt lat="39.467632" lon="3.256059">
        <ele>60.756</ele>
        <time>2021-09-01T12:03:49Z</time>
      </trkpt>
      <trkpt lat="39.467583" lon="3.256124">
        <ele>60.452</ele>
        <time>2021-09-01T12:03:50Z</time>
      </trkpt>
      <trkpt lat="39.467534" lon="3.256186">
        <ele>60.153</ele>
        <time>2021-09-01T12:03:51Z</time>
      </trkpt>
      <trkpt lat="39.467486" lon="3.256243">
        <ele>59.808</ele>
        <time>2021-09-01T12:03:52Z</time>
      </trkpt>
      <trkpt lat="39.467430" lon="3.256304">
        <ele>59.608</ele>
        <time>2021-09-01T12:03:53Z</time>
      </trkpt>
      <trkpt lat="39.467386" lon="3.256362">
        <ele>59.243</ele>
        <time>2021-09-01T12:03:54Z</time>
      </trkpt>
      <trkpt lat="39.467331" lon="3.256423">
        <ele>59.097</ele>
        <time>2021-09-01T12:03:55Z</time>
      </trkpt>
      <trkpt lat="39.467287" lon="3.256486">
        <ele>58.822</ele>
        <time>2021-09-01T12:03:56Z</time>
      </trkpt>
      <trkpt lat="39.467254" lon="3.256535">
        <ele>58.696</ele>
        <time>2021-09-01T12:03:57Z</time>
      </trkpt>
      <trkpt lat="39.467209" lon="3.256588">
        <ele>58.415</ele>
        <time>2021-09-01T12:03:58Z</time>
      </trkpt>
      <trkpt lat="39.467167" lon="3.256640">
        <ele>58.460</ele>
        <time>2021-09-01T12:03:59Z</time>
      </trkpt>
      <trkpt lat="39.467126" lon="3.256695">
        <ele>58.417</ele>
        <time>2021-09-01T12:04:00Z</time>
      </trkpt>
      <trkpt lat="39.467080" lon="3.256738">
        <ele>58.317</ele>
        <time>2021-09-01T12:04:01Z</time>
      </trkpt>
      <trkpt lat="39.467043" lon="3.256785">
        <ele>58.357</ele>
        <time>2021-09-01T12:04:02Z</time>
      </trkpt>
      <trkpt lat="39.467008" lon="3.256833">
        <ele>58.300</ele>
        <time>2021-09-01T12:04:03Z</time>
      </trkpt>
      <trkpt lat="39.466972" lon="3.256885">
        <ele>58.320</ele>
        <time>2021-09-01T12:04:04Z</time>
      </trkpt>
      <trkpt lat="39.466934" lon="3.256937">
        <ele>58.308</ele>
        <time>2021-09-01T12:04:05Z</time>
      </trkpt>
      <trkpt lat="39.466899" lon="3.256975">
        <ele>58.583</ele>
        <time>2021-09-01T12:04:06Z</time>
      </trkpt>
      <trkpt lat="39.466864" lon="3.257026">
        <ele>58.517</ele>
        <time>2021-09-01T12:04:07Z</time>
      </trkpt>
      <trkpt lat="39.466832" lon="3.257069">
        <ele>58.622</ele>
        <time>2021-09-01T12:04:08Z</time>
      </trkpt>
      <trkpt lat="39.466800" lon="3.257111">
        <ele>58.786</ele>
        <time>2021-09-01T12:04:09Z</time>
      </trkpt>
      <trkpt lat="39.466738" lon="3.257186">
        <ele>58.925</ele>
        <time>2021-09-01T12:04:11Z</time>
      </trkpt>
      <trkpt lat="39.466680" lon="3.257255">
        <ele>59.180</ele>
        <time>2021-09-01T12:04:13Z</time>
      </trkpt>
      <trkpt lat="39.466621" lon="3.257325">
        <ele>59.097</ele>
        <time>2021-09-01T12:04:15Z</time>
      </trkpt>
      <trkpt lat="39.466575" lon="3.257383">
        <ele>59.157</ele>
        <time>2021-09-01T12:04:17Z</time>
      </trkpt>
      <trkpt lat="39.466531" lon="3.257441">
        <ele>59.381</ele>
        <time>2021-09-01T12:04:19Z</time>
      </trkpt>
      <trkpt lat="39.466493" lon="3.257508">
        <ele>59.561</ele>
        <time>2021-09-01T12:04:22Z</time>
      </trkpt>
      <trkpt lat="39.466450" lon="3.257547">
        <ele>59.917</ele>
        <time>2021-09-01T12:04:24Z</time>
      </trkpt>
      <trkpt lat="39.466409" lon="3.257590">
        <ele>60.508</ele>
        <time>2021-09-01T12:04:26Z</time>
      </trkpt>
      <trkpt lat="39.466374" lon="3.257648">
        <ele>60.846</ele>
        <time>2021-09-01T12:04:28Z</time>
      </trkpt>
      <trkpt lat="39.466338" lon="3.257691">
        <ele>61.130</ele>
        <time>2021-09-01T12:04:30Z</time>
      </trkpt>
      <trkpt lat="39.466301" lon="3.257739">
        <ele>61.365</ele>
        <time>2021-09-01T12:04:32Z</time>
      </trkpt>
      <trkpt lat="39.466261" lon="3.257802">
        <ele>61.669</ele>
        <time>2021-09-01T12:04:34Z</time>
      </trkpt>
      <trkpt lat="39.466211" lon="3.257854">
        <ele>61.658</ele>
        <time>2021-09-01T12:04:36Z</time>
      </trkpt>
      <trkpt lat="39.466159" lon="3.257912">
        <ele>61.533</ele>
        <time>2021-09-01T12:04:38Z</time>
      </trkpt>
      <trkpt lat="39.466104" lon="3.257977">
        <ele>61.750</ele>
        <time>2021-09-01T12:04:40Z</time>
      </trkpt>
      <trkpt lat="39.466053" lon="3.258048">
        <ele>61.910</ele>
        <time>2021-09-01T12:04:42Z</time>
      </trkpt>
      <trkpt lat="39.465991" lon="3.258125">
        <ele>61.949</ele>
        <time>2021-09-01T12:04:44Z</time>
      </trkpt>
      <trkpt lat="39.465958" lon="3.258166">
        <ele>61.702</ele>
        <time>2021-09-01T12:04:45Z</time>
      </trkpt>
      <trkpt lat="39.465899" lon="3.258252">
        <ele>61.622</ele>
        <time>2021-09-01T12:04:47Z</time>
      </trkpt>
      <trkpt lat="39.465860" lon="3.258283">
        <ele>61.508</ele>
        <time>2021-09-01T12:04:48Z</time>
      </trkpt>
      <trkpt lat="39.465822" lon="3.258324">
        <ele>61.472</ele>
        <time>2021-09-01T12:04:49Z</time>
      </trkpt>
      <trkpt lat="39.465784" lon="3.258358">
        <ele>61.426</ele>
        <time>2021-09-01T12:04:50Z</time>
      </trkpt>
      <trkpt lat="39.465715" lon="3.258438">
        <ele>61.241</ele>
        <time>2021-09-01T12:04:52Z</time>
      </trkpt>
      <trkpt lat="39.465686" lon="3.258484">
        <ele>61.155</ele>
        <time>2021-09-01T12:04:53Z</time>
      </trkpt>
      <trkpt lat="39.465624" lon="3.258568">
        <ele>61.154</ele>
        <time>2021-09-01T12:04:55Z</time>
      </trkpt>
      <trkpt lat="39.465559" lon="3.258654">
        <ele>61.179</ele>
        <time>2021-09-01T12:04:57Z</time>
      </trkpt>
      <trkpt lat="39.465520" lon="3.258700">
        <ele>61.076</ele>
        <time>2021-09-01T12:04:58Z</time>
      </trkpt>
      <trkpt lat="39.465482" lon="3.258751">
        <ele>60.836</ele>
        <time>2021-09-01T12:04:59Z</time>
      </trkpt>
      <trkpt lat="39.465442" lon="3.258791">
        <ele>60.691</ele>
        <time>2021-09-01T12:05:00Z</time>
      </trkpt>
      <trkpt lat="39.465395" lon="3.258835">
        <ele>60.581</ele>
        <time>2021-09-01T12:05:01Z</time>
      </trkpt>
      <trkpt lat="39.465359" lon="3.258882">
        <ele>60.319</ele>
        <time>2021-09-01T12:05:02Z</time>
      </trkpt>
      <trkpt lat="39.465321" lon="3.258926">
        <ele>60.108</ele>
        <time>2021-09-01T12:05:03Z</time>
      </trkpt>
      <trkpt lat="39.465281" lon="3.258976">
        <ele>59.927</ele>
        <time>2021-09-01T12:05:04Z</time>
      </trkpt>
      <trkpt lat="39.465241" lon="3.259027">
        <ele>59.811</ele>
        <time>2021-09-01T12:05:05Z</time>
      </trkpt>
      <trkpt lat="39.465197" lon="3.259079">
        <ele>59.666</ele>
        <time>2021-09-01T12:05:06Z</time>
      </trkpt>
      <trkpt lat="39.465153" lon="3.259137">
        <ele>59.520</ele>
        <time>2021-09-01T12:05:07Z</time>
      </trkpt>
      <trkpt lat="39.465107" lon="3.259187">
        <ele>59.589</ele>
        <time>2021-09-01T12:05:08Z</time>
      </trkpt>
      <trkpt lat="39.465061" lon="3.259245">
        <ele>59.374</ele>
        <time>2021-09-01T12:05:09Z</time>
      </trkpt>
      <trkpt lat="39.465016" lon="3.259301">
        <ele>59.281</ele>
        <time>2021-09-01T12:05:10Z</time>
      </trkpt>
      <trkpt lat="39.464972" lon="3.259355">
        <ele>59.191</ele>
        <time>2021-09-01T12:05:11Z</time>
      </trkpt>
      <trkpt lat="39.464926" lon="3.259409">
        <ele>59.089</ele>
        <time>2021-09-01T12:05:12Z</time>
      </trkpt>
      <trkpt lat="39.464882" lon="3.259464">
        <ele>58.706</ele>
        <time>2021-09-01T12:05:13Z</time>
      </trkpt>
      <trkpt lat="39.464839" lon="3.259512">
        <ele>58.626</ele>
        <time>2021-09-01T12:05:14Z</time>
      </trkpt>
      <trkpt lat="39.464797" lon="3.259560">
        <ele>58.308</ele>
        <time>2021-09-01T12:05:15Z</time>
      </trkpt>
      <trkpt lat="39.464757" lon="3.259610">
        <ele>58.186</ele>
        <time>2021-09-01T12:05:16Z</time>
      </trkpt>
      <trkpt lat="39.464712" lon="3.259662">
        <ele>57.720</ele>
        <time>2021-09-01T12:05:17Z</time>
      </trkpt>
      <trkpt lat="39.464663" lon="3.259717">
        <ele>57.345</ele>
        <time>2021-09-01T12:05:18Z</time>
      </trkpt>
      <trkpt lat="39.464616" lon="3.259775">
        <ele>57.029</ele>
        <time>2021-09-01T12:05:19Z</time>
      </trkpt>
      <trkpt lat="39.464569" lon="3.259836">
        <ele>56.768</ele>
        <time>2021-09-01T12:05:20Z</time>
      </trkpt>
      <trkpt lat="39.464519" lon="3.259894">
        <ele>56.343</ele>
        <time>2021-09-01T12:05:21Z</time>
      </trkpt>
      <trkpt lat="39.464470" lon="3.259951">
        <ele>56.070</ele>
        <time>2021-09-01T12:05:22Z</time>
      </trkpt>
      <trkpt lat="39.464412" lon="3.260001">
        <ele>55.920</ele>
        <time>2021-09-01T12:05:23Z</time>
      </trkpt>
      <trkpt lat="39.464358" lon="3.260055">
        <ele>55.798</ele>
        <time>2021-09-01T12:05:24Z</time>
      </trkpt>
      <trkpt lat="39.464301" lon="3.260113">
        <ele>55.415</ele>
        <time>2021-09-01T12:05:25Z</time>
      </trkpt>
      <trkpt lat="39.464248" lon="3.260172">
        <ele>55.126</ele>
        <time>2021-09-01T12:05:26Z</time>
      </trkpt>
      <trkpt lat="39.464199" lon="3.260239">
        <ele>54.808</ele>
        <time>2021-09-01T12:05:27Z</time>
      </trkpt>
      <trkpt lat="39.464147" lon="3.260302">
        <ele>54.417</ele>
        <time>2021-09-01T12:05:28Z</time>
      </trkpt>
      <trkpt lat="39.464101" lon="3.260374">
        <ele>54.061</ele>
        <time>2021-09-01T12:05:29Z</time>
      </trkpt>
      <trkpt lat="39.464060" lon="3.260434">
        <ele>53.726</ele>
        <time>2021-09-01T12:05:30Z</time>
      </trkpt>
      <trkpt lat="39.464024" lon="3.260489">
        <ele>53.460</ele>
        <time>2021-09-01T12:05:31Z</time>
      </trkpt>
      <trkpt lat="39.463991" lon="3.260533">
        <ele>53.049</ele>
        <time>2021-09-01T12:05:32Z</time>
      </trkpt>
      <trkpt lat="39.463959" lon="3.260588">
        <ele>52.784</ele>
        <time>2021-09-01T12:05:33Z</time>
      </trkpt>
      <trkpt lat="39.463923" lon="3.260638">
        <ele>52.451</ele>
        <time>2021-09-01T12:05:34Z</time>
      </trkpt>
      <trkpt lat="39.463890" lon="3.260697">
        <ele>52.181</ele>
        <time>2021-09-01T12:05:35Z</time>
      </trkpt>
      <trkpt lat="39.463852" lon="3.260754">
        <ele>51.964</ele>
        <time>2021-09-01T12:05:36Z</time>
      </trkpt>
      <trkpt lat="39.463810" lon="3.260810">
        <ele>51.606</ele>
        <time>2021-09-01T12:05:37Z</time>
      </trkpt>
      <trkpt lat="39.463762" lon="3.260870">
        <ele>51.316</ele>
        <time>2021-09-01T12:05:38Z</time>
      </trkpt>
      <trkpt lat="39.463720" lon="3.260925">
        <ele>51.108</ele>
        <time>2021-09-01T12:05:39Z</time>
      </trkpt>
      <trkpt lat="39.463681" lon="3.260991">
        <ele>50.714</ele>
        <time>2021-09-01T12:05:40Z</time>
      </trkpt>
      <trkpt lat="39.463640" lon="3.261052">
        <ele>50.658</ele>
        <time>2021-09-01T12:05:41Z</time>
      </trkpt>
      <trkpt lat="39.463599" lon="3.261115">
        <ele>50.343</ele>
        <time>2021-09-01T12:05:42Z</time>
      </trkpt>
      <trkpt lat="39.463562" lon="3.261178">
        <ele>50.367</ele>
        <time>2021-09-01T12:05:43Z</time>
      </trkpt>
      <trkpt lat="39.463523" lon="3.261236">
        <ele>50.296</ele>
        <time>2021-09-01T12:05:44Z</time>
      </trkpt>
      <trkpt lat="39.463486" lon="3.261297">
        <ele>50.111</ele>
        <time>2021-09-01T12:05:45Z</time>
      </trkpt>
      <trkpt lat="39.463449" lon="3.261352">
        <ele>50.018</ele>
        <time>2021-09-01T12:05:46Z</time>
      </trkpt>
      <trkpt lat="39.463413" lon="3.261408">
        <ele>50.098</ele>
        <time>2021-09-01T12:05:47Z</time>
      </trkpt>
      <trkpt lat="39.463378" lon="3.261461">
        <ele>49.928</ele>
        <time>2021-09-01T12:05:48Z</time>
      </trkpt>
      <trkpt lat="39.463342" lon="3.261516">
        <ele>49.789</ele>
        <time>2021-09-01T12:05:49Z</time>
      </trkpt>
      <trkpt lat="39.463308" lon="3.261574">
        <ele>49.617</ele>
        <time>2021-09-01T12:05:50Z</time>
      </trkpt>
      <trkpt lat="39.463265" lon="3.261628">
        <ele>49.408</ele>
        <time>2021-09-01T12:05:51Z</time>
      </trkpt>
      <trkpt lat="39.463223" lon="3.261683">
        <ele>49.270</ele>
        <time>2021-09-01T12:05:52Z</time>
      </trkpt>
      <trkpt lat="39.463188" lon="3.261746">
        <ele>49.054</ele>
        <time>2021-09-01T12:05:53Z</time>
      </trkpt>
      <trkpt lat="39.463150" lon="3.261811">
        <ele>48.739</ele>
        <time>2021-09-01T12:05:54Z</time>
      </trkpt>
      <trkpt lat="39.463120" lon="3.261890">
        <ele>48.513</ele>
        <time>2021-09-01T12:05:55Z</time>
      </trkpt>
      <trkpt lat="39.463093" lon="3.261966">
        <ele>48.422</ele>
        <time>2021-09-01T12:05:56Z</time>
      </trkpt>
      <trkpt lat="39.463070" lon="3.262045">
        <ele>48.287</ele>
        <time>2021-09-01T12:05:57Z</time>
      </trkpt>
      <trkpt lat="39.463047" lon="3.262123">
        <ele>47.984</ele>
        <time>2021-09-01T12:05:58Z</time>
      </trkpt>
      <trkpt lat="39.463024" lon="3.262200">
        <ele>47.644</ele>
        <time>2021-09-01T12:05:59Z</time>
      </trkpt>
      <trkpt lat="39.463002" lon="3.262280">
        <ele>47.334</ele>
        <time>2021-09-01T12:06:00Z</time>
      </trkpt>
      <trkpt lat="39.462979" lon="3.262354">
        <ele>46.955</ele>
        <time>2021-09-01T12:06:01Z</time>
      </trkpt>
      <trkpt lat="39.462959" lon="3.262423">
        <ele>46.610</ele>
        <time>2021-09-01T12:06:02Z</time>
      </trkpt>
      <trkpt lat="39.462937" lon="3.262487">
        <ele>46.308</ele>
        <time>2021-09-01T12:06:03Z</time>
      </trkpt>
      <trkpt lat="39.462906" lon="3.262552">
        <ele>46.291</ele>
        <time>2021-09-01T12:06:04Z</time>
      </trkpt>
      <trkpt lat="39.462876" lon="3.262611">
        <ele>46.195</ele>
        <time>2021-09-01T12:06:05Z</time>
      </trkpt>
      <trkpt lat="39.462843" lon="3.262667">
        <ele>46.090</ele>
        <time>2021-09-01T12:06:06Z</time>
      </trkpt>
      <trkpt lat="39.462805" lon="3.262716">
        <ele>46.074</ele>
        <time>2021-09-01T12:06:07Z</time>
      </trkpt>
      <trkpt lat="39.462764" lon="3.262764">
        <ele>45.923</ele>
        <time>2021-09-01T12:06:08Z</time>
      </trkpt>
      <trkpt lat="39.462724" lon="3.262812">
        <ele>45.858</ele>
        <time>2021-09-01T12:06:09Z</time>
      </trkpt>
      <trkpt lat="39.462687" lon="3.262865">
        <ele>45.725</ele>
        <time>2021-09-01T12:06:10Z</time>
      </trkpt>
      <trkpt lat="39.462654" lon="3.262907">
        <ele>45.725</ele>
        <time>2021-09-01T12:06:11Z</time>
      </trkpt>
      <trkpt lat="39.462596" lon="3.262974">
        <ele>45.512</ele>
        <time>2021-09-01T12:06:13Z</time>
      </trkpt>
      <trkpt lat="39.462539" lon="3.263005">
        <ele>45.232</ele>
        <time>2021-09-01T12:06:15Z</time>
      </trkpt>
      <trkpt lat="39.462472" lon="3.262998">
        <ele>44.805</ele>
        <time>2021-09-01T12:06:17Z</time>
      </trkpt>
      <trkpt lat="39.462432" lon="3.262972">
        <ele>44.508</ele>
        <time>2021-09-01T12:06:18Z</time>
      </trkpt>
      <trkpt lat="39.462387" lon="3.262930">
        <ele>44.299</ele>
        <time>2021-09-01T12:06:19Z</time>
      </trkpt>
      <trkpt lat="39.462334" lon="3.262878">
        <ele>44.033</ele>
        <time>2021-09-01T12:06:20Z</time>
      </trkpt>
      <trkpt lat="39.462272" lon="3.262822">
        <ele>43.738</ele>
        <time>2021-09-01T12:06:21Z</time>
      </trkpt>
      <trkpt lat="39.462209" lon="3.262763">
        <ele>43.332</ele>
        <time>2021-09-01T12:06:22Z</time>
      </trkpt>
      <trkpt lat="39.462132" lon="3.262701">
        <ele>42.791</ele>
        <time>2021-09-01T12:06:23Z</time>
      </trkpt>
      <trkpt lat="39.462056" lon="3.262640">
        <ele>42.156</ele>
        <time>2021-09-01T12:06:24Z</time>
      </trkpt>
      <trkpt lat="39.461978" lon="3.262583">
        <ele>41.313</ele>
        <time>2021-09-01T12:06:25Z</time>
      </trkpt>
      <trkpt lat="39.461906" lon="3.262528">
        <ele>40.683</ele>
        <time>2021-09-01T12:06:26Z</time>
      </trkpt>
      <trkpt lat="39.461839" lon="3.262469">
        <ele>40.021</ele>
        <time>2021-09-01T12:06:27Z</time>
      </trkpt>
      <trkpt lat="39.461777" lon="3.262423">
        <ele>39.541</ele>
        <time>2021-09-01T12:06:28Z</time>
      </trkpt>
      <trkpt lat="39.461721" lon="3.262385">
        <ele>39.205</ele>
        <time>2021-09-01T12:06:29Z</time>
      </trkpt>
      <trkpt lat="39.461674" lon="3.262350">
        <ele>39.208</ele>
        <time>2021-09-01T12:06:30Z</time>
      </trkpt>
      <trkpt lat="39.461632" lon="3.262311">
        <ele>39.510</ele>
        <time>2021-09-01T12:06:31Z</time>
      </trkpt>
      <trkpt lat="39.461565" lon="3.262250">
        <ele>40.274</ele>
        <time>2021-09-01T12:06:33Z</time>
      </trkpt>
      <trkpt lat="39.461520" lon="3.262196">
        <ele>41.299</ele>
        <time>2021-09-01T12:06:35Z</time>
      </trkpt>
      <trkpt lat="39.461463" lon="3.262136">
        <ele>42.143</ele>
        <time>2021-09-01T12:06:37Z</time>
      </trkpt>
      <trkpt lat="39.461398" lon="3.262081">
        <ele>43.062</ele>
        <time>2021-09-01T12:06:39Z</time>
      </trkpt>
      <trkpt lat="39.461332" lon="3.262022">
        <ele>44.057</ele>
        <time>2021-09-01T12:06:41Z</time>
      </trkpt>
      <trkpt lat="39.461262" lon="3.261965">
        <ele>45.024</ele>
        <time>2021-09-01T12:06:43Z</time>
      </trkpt>
      <trkpt lat="39.461202" lon="3.261909">
        <ele>45.994</ele>
        <time>2021-09-01T12:06:45Z</time>
      </trkpt>
      <trkpt lat="39.461138" lon="3.261853">
        <ele>46.619</ele>
        <time>2021-09-01T12:06:47Z</time>
      </trkpt>
      <trkpt lat="39.461071" lon="3.261797">
        <ele>47.109</ele>
        <time>2021-09-01T12:06:49Z</time>
      </trkpt>
      <trkpt lat="39.461007" lon="3.261753">
        <ele>47.619</ele>
        <time>2021-09-01T12:06:51Z</time>
      </trkpt>
      <trkpt lat="39.460948" lon="3.261703">
        <ele>48.008</ele>
        <time>2021-09-01T12:06:53Z</time>
      </trkpt>
      <trkpt lat="39.460894" lon="3.261653">
        <ele>48.419</ele>
        <time>2021-09-01T12:06:55Z</time>
      </trkpt>
      <trkpt lat="39.460827" lon="3.261610">
        <ele>48.473</ele>
        <time>2021-09-01T12:06:57Z</time>
      </trkpt>
      <trkpt lat="39.460789" lon="3.261579">
        <ele>48.418</ele>
        <time>2021-09-01T12:06:58Z</time>
      </trkpt>
      <trkpt lat="39.460746" lon="3.261545">
        <ele>48.262</ele>
        <time>2021-09-01T12:06:59Z</time>
      </trkpt>
      <trkpt lat="39.460701" lon="3.261505">
        <ele>48.011</ele>
        <time>2021-09-01T12:07:00Z</time>
      </trkpt>
      <trkpt lat="39.460647" lon="3.261463">
        <ele>47.856</ele>
        <time>2021-09-01T12:07:01Z</time>
      </trkpt>
      <trkpt lat="39.460588" lon="3.261419">
        <ele>47.593</ele>
        <time>2021-09-01T12:07:02Z</time>
      </trkpt>
      <trkpt lat="39.460522" lon="3.261375">
        <ele>47.213</ele>
        <time>2021-09-01T12:07:03Z</time>
      </trkpt>
      <trkpt lat="39.460450" lon="3.261323">
        <ele>46.999</ele>
        <time>2021-09-01T12:07:04Z</time>
      </trkpt>
      <trkpt lat="39.460366" lon="3.261262">
        <ele>46.407</ele>
        <time>2021-09-01T12:07:05Z</time>
      </trkpt>
      <trkpt lat="39.460274" lon="3.261192">
        <ele>45.727</ele>
        <time>2021-09-01T12:07:06Z</time>
      </trkpt>
      <trkpt lat="39.460171" lon="3.261115">
        <ele>44.708</ele>
        <time>2021-09-01T12:07:07Z</time>
      </trkpt>
      <trkpt lat="39.460062" lon="3.261033">
        <ele>43.477</ele>
        <time>2021-09-01T12:07:08Z</time>
      </trkpt>
      <trkpt lat="39.459948" lon="3.260952">
        <ele>42.041</ele>
        <time>2021-09-01T12:07:09Z</time>
      </trkpt>
      <trkpt lat="39.459826" lon="3.260858">
        <ele>40.796</ele>
        <time>2021-09-01T12:07:10Z</time>
      </trkpt>
      <trkpt lat="39.459698" lon="3.260774">
        <ele>39.350</ele>
        <time>2021-09-01T12:07:11Z</time>
      </trkpt>
      <trkpt lat="39.459581" lon="3.260686">
        <ele>37.969</ele>
        <time>2021-09-01T12:07:12Z</time>
      </trkpt>
      <trkpt lat="39.459469" lon="3.260605">
        <ele>36.944</ele>
        <time>2021-09-01T12:07:13Z</time>
      </trkpt>
      <trkpt lat="39.459370" lon="3.260528">
        <ele>36.191</ele>
        <time>2021-09-01T12:07:14Z</time>
      </trkpt>
      <trkpt lat="39.459284" lon="3.260458">
        <ele>36.161</ele>
        <time>2021-09-01T12:07:15Z</time>
      </trkpt>
      <trkpt lat="39.459212" lon="3.260407">
        <ele>36.172</ele>
        <time>2021-09-01T12:07:16Z</time>
      </trkpt>
      <trkpt lat="39.459145" lon="3.260351">
        <ele>36.613</ele>
        <time>2021-09-01T12:07:17Z</time>
      </trkpt>
      <trkpt lat="39.459088" lon="3.260308">
        <ele>37.314</ele>
        <time>2021-09-01T12:07:18Z</time>
      </trkpt>
      <trkpt lat="39.459036" lon="3.260270">
        <ele>38.208</ele>
        <time>2021-09-01T12:07:19Z</time>
      </trkpt>
      <trkpt lat="39.458993" lon="3.260233">
        <ele>38.895</ele>
        <time>2021-09-01T12:07:20Z</time>
      </trkpt>
      <trkpt lat="39.458954" lon="3.260198">
        <ele>39.339</ele>
        <time>2021-09-01T12:07:21Z</time>
      </trkpt>
      <trkpt lat="39.458914" lon="3.260165">
        <ele>39.894</ele>
        <time>2021-09-01T12:07:22Z</time>
      </trkpt>
      <trkpt lat="39.458872" lon="3.260128">
        <ele>40.358</ele>
        <time>2021-09-01T12:07:23Z</time>
      </trkpt>
      <trkpt lat="39.458829" lon="3.260100">
        <ele>40.717</ele>
        <time>2021-09-01T12:07:24Z</time>
      </trkpt>
      <trkpt lat="39.458748" lon="3.260046">
        <ele>41.882</ele>
        <time>2021-09-01T12:07:26Z</time>
      </trkpt>
      <trkpt lat="39.458711" lon="3.260010">
        <ele>42.399</ele>
        <time>2021-09-01T12:07:27Z</time>
      </trkpt>
      <trkpt lat="39.458671" lon="3.259975">
        <ele>42.739</ele>
        <time>2021-09-01T12:07:28Z</time>
      </trkpt>
      <trkpt lat="39.458629" lon="3.259939">
        <ele>43.198</ele>
        <time>2021-09-01T12:07:29Z</time>
      </trkpt>
      <trkpt lat="39.458587" lon="3.259907">
        <ele>43.415</ele>
        <time>2021-09-01T12:07:30Z</time>
      </trkpt>
      <trkpt lat="39.458545" lon="3.259872">
        <ele>43.626</ele>
        <time>2021-09-01T12:07:31Z</time>
      </trkpt>
      <trkpt lat="39.458501" lon="3.259842">
        <ele>43.908</ele>
        <time>2021-09-01T12:07:32Z</time>
      </trkpt>
      <trkpt lat="39.458457" lon="3.259812">
        <ele>44.277</ele>
        <time>2021-09-01T12:07:33Z</time>
      </trkpt>
      <trkpt lat="39.458416" lon="3.259780">
        <ele>44.421</ele>
        <time>2021-09-01T12:07:34Z</time>
      </trkpt>
      <trkpt lat="39.458375" lon="3.259738">
        <ele>44.746</ele>
        <time>2021-09-01T12:07:35Z</time>
      </trkpt>
      <trkpt lat="39.458331" lon="3.259704">
        <ele>44.950</ele>
        <time>2021-09-01T12:07:36Z</time>
      </trkpt>
      <trkpt lat="39.458284" lon="3.259669">
        <ele>45.269</ele>
        <time>2021-09-01T12:07:37Z</time>
      </trkpt>
      <trkpt lat="39.458239" lon="3.259633">
        <ele>45.444</ele>
        <time>2021-09-01T12:07:38Z</time>
      </trkpt>
      <trkpt lat="39.458197" lon="3.259600">
        <ele>45.731</ele>
        <time>2021-09-01T12:07:39Z</time>
      </trkpt>
      <trkpt lat="39.458118" lon="3.259543">
        <ele>46.251</ele>
        <time>2021-09-01T12:07:41Z</time>
      </trkpt>
      <trkpt lat="39.458076" lon="3.259517">
        <ele>46.527</ele>
        <time>2021-09-01T12:07:42Z</time>
      </trkpt>
      <trkpt lat="39.458004" lon="3.259469">
        <ele>47.068</ele>
        <time>2021-09-01T12:07:44Z</time>
      </trkpt>
      <trkpt lat="39.457963" lon="3.259437">
        <ele>47.414</ele>
        <time>2021-09-01T12:07:46Z</time>
      </trkpt>
      <trkpt lat="39.457905" lon="3.259417">
        <ele>48.008</ele>
        <time>2021-09-01T12:07:55Z</time>
      </trkpt>
      <trkpt lat="39.457833" lon="3.259418">
        <ele>48.110</ele>
        <time>2021-09-01T12:07:57Z</time>
      </trkpt>
      <trkpt lat="39.457755" lon="3.259480">
        <ele>48.244</ele>
        <time>2021-09-01T12:07:59Z</time>
      </trkpt>
      <trkpt lat="39.457717" lon="3.259521">
        <ele>48.389</ele>
        <time>2021-09-01T12:08:00Z</time>
      </trkpt>
      <trkpt lat="39.457675" lon="3.259569">
        <ele>48.353</ele>
        <time>2021-09-01T12:08:01Z</time>
      </trkpt>
      <trkpt lat="39.457628" lon="3.259616">
        <ele>48.392</ele>
        <time>2021-09-01T12:08:02Z</time>
      </trkpt>
      <trkpt lat="39.457577" lon="3.259656">
        <ele>48.337</ele>
        <time>2021-09-01T12:08:03Z</time>
      </trkpt>
      <trkpt lat="39.457527" lon="3.259696">
        <ele>48.254</ele>
        <time>2021-09-01T12:08:04Z</time>
      </trkpt>
      <trkpt lat="39.457472" lon="3.259737">
        <ele>48.154</ele>
        <time>2021-09-01T12:08:05Z</time>
      </trkpt>
      <trkpt lat="39.457416" lon="3.259775">
        <ele>48.151</ele>
        <time>2021-09-01T12:08:06Z</time>
      </trkpt>
      <trkpt lat="39.457359" lon="3.259812">
        <ele>48.201</ele>
        <time>2021-09-01T12:08:07Z</time>
      </trkpt>
      <trkpt lat="39.457297" lon="3.259843">
        <ele>48.411</ele>
        <time>2021-09-01T12:08:08Z</time>
      </trkpt>
      <trkpt lat="39.457241" lon="3.259869">
        <ele>48.508</ele>
        <time>2021-09-01T12:08:09Z</time>
      </trkpt>
      <trkpt lat="39.457176" lon="3.259901">
        <ele>48.613</ele>
        <time>2021-09-01T12:08:10Z</time>
      </trkpt>
      <trkpt lat="39.457113" lon="3.259935">
        <ele>48.647</ele>
        <time>2021-09-01T12:08:11Z</time>
      </trkpt>
      <trkpt lat="39.457044" lon="3.259970">
        <ele>48.552</ele>
        <time>2021-09-01T12:08:12Z</time>
      </trkpt>
      <trkpt lat="39.456968" lon="3.260009">
        <ele>48.326</ele>
        <time>2021-09-01T12:08:13Z</time>
      </trkpt>
      <trkpt lat="39.456893" lon="3.260040">
        <ele>48.185</ele>
        <time>2021-09-01T12:08:14Z</time>
      </trkpt>
      <trkpt lat="39.456811" lon="3.260075">
        <ele>47.720</ele>
        <time>2021-09-01T12:08:15Z</time>
      </trkpt>
      <trkpt lat="39.456729" lon="3.260110">
        <ele>47.427</ele>
        <time>2021-09-01T12:08:16Z</time>
      </trkpt>
      <trkpt lat="39.456649" lon="3.260150">
        <ele>47.047</ele>
        <time>2021-09-01T12:08:17Z</time>
      </trkpt>
      <trkpt lat="39.456560" lon="3.260187">
        <ele>46.648</ele>
        <time>2021-09-01T12:08:18Z</time>
      </trkpt>
      <trkpt lat="39.456469" lon="3.260227">
        <ele>46.261</ele>
        <time>2021-09-01T12:08:19Z</time>
      </trkpt>
      <trkpt lat="39.456383" lon="3.260270">
        <ele>45.717</ele>
        <time>2021-09-01T12:08:20Z</time>
      </trkpt>
      <trkpt lat="39.456296" lon="3.260311">
        <ele>45.308</ele>
        <time>2021-09-01T12:08:21Z</time>
      </trkpt>
      <trkpt lat="39.456205" lon="3.260351">
        <ele>44.972</ele>
        <time>2021-09-01T12:08:22Z</time>
      </trkpt>
      <trkpt lat="39.456108" lon="3.260392">
        <ele>44.566</ele>
        <time>2021-09-01T12:08:23Z</time>
      </trkpt>
      <trkpt lat="39.456016" lon="3.260436">
        <ele>43.951</ele>
        <time>2021-09-01T12:08:24Z</time>
      </trkpt>
      <trkpt lat="39.455922" lon="3.260492">
        <ele>43.465</ele>
        <time>2021-09-01T12:08:25Z</time>
      </trkpt>
      <trkpt lat="39.455844" lon="3.260563">
        <ele>43.064</ele>
        <time>2021-09-01T12:08:26Z</time>
      </trkpt>
      <trkpt lat="39.455778" lon="3.260635">
        <ele>42.459</ele>
        <time>2021-09-01T12:08:27Z</time>
      </trkpt>
      <trkpt lat="39.455709" lon="3.260723">
        <ele>42.016</ele>
        <time>2021-09-01T12:08:28Z</time>
      </trkpt>
      <trkpt lat="39.455643" lon="3.260795">
        <ele>41.646</ele>
        <time>2021-09-01T12:08:29Z</time>
      </trkpt>
      <trkpt lat="39.455584" lon="3.260870">
        <ele>41.376</ele>
        <time>2021-09-01T12:08:30Z</time>
      </trkpt>
      <trkpt lat="39.455540" lon="3.260962">
        <ele>41.190</ele>
        <time>2021-09-01T12:08:31Z</time>
      </trkpt>
      <trkpt lat="39.455502" lon="3.261060">
        <ele>40.919</ele>
        <time>2021-09-01T12:08:32Z</time>
      </trkpt>
      <trkpt lat="39.455472" lon="3.261164">
        <ele>40.808</ele>
        <time>2021-09-01T12:08:33Z</time>
      </trkpt>
      <trkpt lat="39.455443" lon="3.261266">
        <ele>40.665</ele>
        <time>2021-09-01T12:08:34Z</time>
      </trkpt>
      <trkpt lat="39.455413" lon="3.261364">
        <ele>40.469</ele>
        <time>2021-09-01T12:08:35Z</time>
      </trkpt>
      <trkpt lat="39.455392" lon="3.261472">
        <ele>40.224</ele>
        <time>2021-09-01T12:08:36Z</time>
      </trkpt>
      <trkpt lat="39.455370" lon="3.261580">
        <ele>39.928</ele>
        <time>2021-09-01T12:08:37Z</time>
      </trkpt>
      <trkpt lat="39.455357" lon="3.261698">
        <ele>39.737</ele>
        <time>2021-09-01T12:08:38Z</time>
      </trkpt>
      <trkpt lat="39.455347" lon="3.261825">
        <ele>39.282</ele>
        <time>2021-09-01T12:08:39Z</time>
      </trkpt>
      <trkpt lat="39.455340" lon="3.261954">
        <ele>38.739</ele>
        <time>2021-09-01T12:08:40Z</time>
      </trkpt>
      <trkpt lat="39.455340" lon="3.262076">
        <ele>38.069</ele>
        <time>2021-09-01T12:08:41Z</time>
      </trkpt>
      <trkpt lat="39.455336" lon="3.262187">
        <ele>37.515</ele>
        <time>2021-09-01T12:08:42Z</time>
      </trkpt>
      <trkpt lat="39.455341" lon="3.262294">
        <ele>37.065</ele>
        <time>2021-09-01T12:08:43Z</time>
      </trkpt>
      <trkpt lat="39.455357" lon="3.262390">
        <ele>36.711</ele>
        <time>2021-09-01T12:08:44Z</time>
      </trkpt>
      <trkpt lat="39.455377" lon="3.262473">
        <ele>36.708</ele>
        <time>2021-09-01T12:08:45Z</time>
      </trkpt>
      <trkpt lat="39.455402" lon="3.262563">
        <ele>36.749</ele>
        <time>2021-09-01T12:08:46Z</time>
      </trkpt>
      <trkpt lat="39.455426" lon="3.262646">
        <ele>36.773</ele>
        <time>2021-09-01T12:08:47Z</time>
      </trkpt>
      <trkpt lat="39.455448" lon="3.262735">
        <ele>36.848</ele>
        <time>2021-09-01T12:08:48Z</time>
      </trkpt>
      <trkpt lat="39.455473" lon="3.262825">
        <ele>36.962</ele>
        <time>2021-09-01T12:08:49Z</time>
      </trkpt>
      <trkpt lat="39.455493" lon="3.262914">
        <ele>36.991</ele>
        <time>2021-09-01T12:08:50Z</time>
      </trkpt>
      <trkpt lat="39.455520" lon="3.263003">
        <ele>36.836</ele>
        <time>2021-09-01T12:08:51Z</time>
      </trkpt>
      <trkpt lat="39.455548" lon="3.263103">
        <ele>36.723</ele>
        <time>2021-09-01T12:08:52Z</time>
      </trkpt>
      <trkpt lat="39.455569" lon="3.263201">
        <ele>36.523</ele>
        <time>2021-09-01T12:08:53Z</time>
      </trkpt>
      <trkpt lat="39.455594" lon="3.263303">
        <ele>36.164</ele>
        <time>2021-09-01T12:08:54Z</time>
      </trkpt>
      <trkpt lat="39.455614" lon="3.263397">
        <ele>35.706</ele>
        <time>2021-09-01T12:08:55Z</time>
      </trkpt>
      <trkpt lat="39.455642" lon="3.263492">
        <ele>35.316</ele>
        <time>2021-09-01T12:08:56Z</time>
      </trkpt>
      <trkpt lat="39.455665" lon="3.263581">
        <ele>34.908</ele>
        <time>2021-09-01T12:08:57Z</time>
      </trkpt>
      <trkpt lat="39.455684" lon="3.263662">
        <ele>34.654</ele>
        <time>2021-09-01T12:08:58Z</time>
      </trkpt>
      <trkpt lat="39.455691" lon="3.263743">
        <ele>34.278</ele>
        <time>2021-09-01T12:08:59Z</time>
      </trkpt>
      <trkpt lat="39.455690" lon="3.263817">
        <ele>33.793</ele>
        <time>2021-09-01T12:09:00Z</time>
      </trkpt>
      <trkpt lat="39.455683" lon="3.263881">
        <ele>33.257</ele>
        <time>2021-09-01T12:09:01Z</time>
      </trkpt>
      <trkpt lat="39.455672" lon="3.263942">
        <ele>32.796</ele>
        <time>2021-09-01T12:09:02Z</time>
      </trkpt>
      <trkpt lat="39.455658" lon="3.264007">
        <ele>32.111</ele>
        <time>2021-09-01T12:09:03Z</time>
      </trkpt>
      <trkpt lat="39.455644" lon="3.264079">
        <ele>31.768</ele>
        <time>2021-09-01T12:09:04Z</time>
      </trkpt>
      <trkpt lat="39.455628" lon="3.264149">
        <ele>31.448</ele>
        <time>2021-09-01T12:09:05Z</time>
      </trkpt>
      <trkpt lat="39.455612" lon="3.264219">
        <ele>31.046</ele>
        <time>2021-09-01T12:09:06Z</time>
      </trkpt>
      <trkpt lat="39.455584" lon="3.264281">
        <ele>30.788</ele>
        <time>2021-09-01T12:09:07Z</time>
      </trkpt>
      <trkpt lat="39.455554" lon="3.264345">
        <ele>30.316</ele>
        <time>2021-09-01T12:09:08Z</time>
      </trkpt>
      <trkpt lat="39.455518" lon="3.264406">
        <ele>29.708</ele>
        <time>2021-09-01T12:09:09Z</time>
      </trkpt>
      <trkpt lat="39.455474" lon="3.264452">
        <ele>29.092</ele>
        <time>2021-09-01T12:09:10Z</time>
      </trkpt>
      <trkpt lat="39.455431" lon="3.264507">
        <ele>28.316</ele>
        <time>2021-09-01T12:09:11Z</time>
      </trkpt>
      <trkpt lat="39.455375" lon="3.264567">
        <ele>27.671</ele>
        <time>2021-09-01T12:09:12Z</time>
      </trkpt>
      <trkpt lat="39.455314" lon="3.264623">
        <ele>27.025</ele>
        <time>2021-09-01T12:09:13Z</time>
      </trkpt>
      <trkpt lat="39.455247" lon="3.264679">
        <ele>26.214</ele>
        <time>2021-09-01T12:09:14Z</time>
      </trkpt>
      <trkpt lat="39.455180" lon="3.264734">
        <ele>25.549</ele>
        <time>2021-09-01T12:09:15Z</time>
      </trkpt>
      <trkpt lat="39.455110" lon="3.264790">
        <ele>24.866</ele>
        <time>2021-09-01T12:09:16Z</time>
      </trkpt>
      <trkpt lat="39.455036" lon="3.264849">
        <ele>23.976</ele>
        <time>2021-09-01T12:09:17Z</time>
      </trkpt>
      <trkpt lat="39.454959" lon="3.264910">
        <ele>23.069</ele>
        <time>2021-09-01T12:09:18Z</time>
      </trkpt>
      <trkpt lat="39.454881" lon="3.264970">
        <ele>22.404</ele>
        <time>2021-09-01T12:09:19Z</time>
      </trkpt>
      <trkpt lat="39.454803" lon="3.265030">
        <ele>21.924</ele>
        <time>2021-09-01T12:09:20Z</time>
      </trkpt>
      <trkpt lat="39.454731" lon="3.265089">
        <ele>21.408</ele>
        <time>2021-09-01T12:09:21Z</time>
      </trkpt>
      <trkpt lat="39.454652" lon="3.265151">
        <ele>21.024</ele>
        <time>2021-09-01T12:09:22Z</time>
      </trkpt>
      <trkpt lat="39.454579" lon="3.265209">
        <ele>20.818</ele>
        <time>2021-09-01T12:09:23Z</time>
      </trkpt>
      <trkpt lat="39.454508" lon="3.265266">
        <ele>20.453</ele>
        <time>2021-09-01T12:09:24Z</time>
      </trkpt>
      <trkpt lat="39.454442" lon="3.265332">
        <ele>19.967</ele>
        <time>2021-09-01T12:09:25Z</time>
      </trkpt>
      <trkpt lat="39.454373" lon="3.265389">
        <ele>19.416</ele>
        <time>2021-09-01T12:09:26Z</time>
      </trkpt>
      <trkpt lat="39.454285" lon="3.265437">
        <ele>18.891</ele>
        <time>2021-09-01T12:09:27Z</time>
      </trkpt>
      <trkpt lat="39.454206" lon="3.265486">
        <ele>18.298</ele>
        <time>2021-09-01T12:09:28Z</time>
      </trkpt>
      <trkpt lat="39.454117" lon="3.265535">
        <ele>17.688</ele>
        <time>2021-09-01T12:09:29Z</time>
      </trkpt>
      <trkpt lat="39.454037" lon="3.265572">
        <ele>17.219</ele>
        <time>2021-09-01T12:09:30Z</time>
      </trkpt>
      <trkpt lat="39.453944" lon="3.265607">
        <ele>16.709</ele>
        <time>2021-09-01T12:09:31Z</time>
      </trkpt>
      <trkpt lat="39.453849" lon="3.265638">
        <ele>16.119</ele>
        <time>2021-09-01T12:09:32Z</time>
      </trkpt>
      <trkpt lat="39.453750" lon="3.265660">
        <ele>15.408</ele>
        <time>2021-09-01T12:09:33Z</time>
      </trkpt>
      <trkpt lat="39.453650" lon="3.265672">
        <ele>14.839</ele>
        <time>2021-09-01T12:09:34Z</time>
      </trkpt>
      <trkpt lat="39.453555" lon="3.265672">
        <ele>14.263</ele>
        <time>2021-09-01T12:09:35Z</time>
      </trkpt>
      <trkpt lat="39.453461" lon="3.265655">
        <ele>13.858</ele>
        <time>2021-09-01T12:09:36Z</time>
      </trkpt>
      <trkpt lat="39.453371" lon="3.265656">
        <ele>13.692</ele>
        <time>2021-09-01T12:09:37Z</time>
      </trkpt>
      <trkpt lat="39.453288" lon="3.265632">
        <ele>13.661</ele>
        <time>2021-09-01T12:09:38Z</time>
      </trkpt>
      <trkpt lat="39.453220" lon="3.265591">
        <ele>13.796</ele>
        <time>2021-09-01T12:09:39Z</time>
      </trkpt>
      <trkpt lat="39.453170" lon="3.265522">
        <ele>14.523</ele>
        <time>2021-09-01T12:09:41Z</time>
      </trkpt>
      <trkpt lat="39.453127" lon="3.265461">
        <ele>16.193</ele>
        <time>2021-09-01T12:09:44Z</time>
      </trkpt>
      <trkpt lat="39.453088" lon="3.265383">
        <ele>17.492</ele>
        <time>2021-09-01T12:09:47Z</time>
      </trkpt>
      <trkpt lat="39.453065" lon="3.265332">
        <ele>18.173</ele>
        <time>2021-09-01T12:09:49Z</time>
      </trkpt>
      <trkpt lat="39.453042" lon="3.265270">
        <ele>18.820</ele>
        <time>2021-09-01T12:09:51Z</time>
      </trkpt>
      <trkpt lat="39.453019" lon="3.265202">
        <ele>19.508</ele>
        <time>2021-09-01T12:09:53Z</time>
      </trkpt>
      <trkpt lat="39.452999" lon="3.265138">
        <ele>20.327</ele>
        <time>2021-09-01T12:09:55Z</time>
      </trkpt>
      <trkpt lat="39.452977" lon="3.265055">
        <ele>20.991</ele>
        <time>2021-09-01T12:09:57Z</time>
      </trkpt>
      <trkpt lat="39.452973" lon="3.264997">
        <ele>21.346</ele>
        <time>2021-09-01T12:09:59Z</time>
      </trkpt>
      <trkpt lat="39.452953" lon="3.264944">
        <ele>22.060</ele>
        <time>2021-09-01T12:10:49Z</time>
      </trkpt>
      <trkpt lat="39.452945" lon="3.264877">
        <ele>21.979</ele>
        <time>2021-09-01T12:10:52Z</time>
      </trkpt>
      <trkpt lat="39.452938" lon="3.264807">
        <ele>21.844</ele>
        <time>2021-09-01T12:10:54Z</time>
      </trkpt>
      <trkpt lat="39.452925" lon="3.264721">
        <ele>21.811</ele>
        <time>2021-09-01T12:10:57Z</time>
      </trkpt>
      <trkpt lat="39.452918" lon="3.264649">
        <ele>21.821</ele>
        <time>2021-09-01T12:10:59Z</time>
      </trkpt>
      <trkpt lat="39.452907" lon="3.264567">
        <ele>21.957</ele>
        <time>2021-09-01T12:11:01Z</time>
      </trkpt>
      <trkpt lat="39.452890" lon="3.264492">
        <ele>21.900</ele>
        <time>2021-09-01T12:11:03Z</time>
      </trkpt>
      <trkpt lat="39.452877" lon="3.264386">
        <ele>22.020</ele>
        <time>2021-09-01T12:11:05Z</time>
      </trkpt>
      <trkpt lat="39.452869" lon="3.264282">
        <ele>22.008</ele>
        <time>2021-09-01T12:11:07Z</time>
      </trkpt>
      <trkpt lat="39.452860" lon="3.264177">
        <ele>22.173</ele>
        <time>2021-09-01T12:11:09Z</time>
      </trkpt>
      <trkpt lat="39.452850" lon="3.264080">
        <ele>22.227</ele>
        <time>2021-09-01T12:11:11Z</time>
      </trkpt>
      <trkpt lat="39.452839" lon="3.263985">
        <ele>22.322</ele>
        <time>2021-09-01T12:11:13Z</time>
      </trkpt>
      <trkpt lat="39.452835" lon="3.263894">
        <ele>22.576</ele>
        <time>2021-09-01T12:11:15Z</time>
      </trkpt>
      <trkpt lat="39.452826" lon="3.263818">
        <ele>22.845</ele>
        <time>2021-09-01T12:11:17Z</time>
      </trkpt>
      <trkpt lat="39.452810" lon="3.263735">
        <ele>23.320</ele>
        <time>2021-09-01T12:11:19Z</time>
      </trkpt>
      <trkpt lat="39.452792" lon="3.263663">
        <ele>23.827</ele>
        <time>2021-09-01T12:11:21Z</time>
      </trkpt>
      <trkpt lat="39.452783" lon="3.263584">
        <ele>24.147</ele>
        <time>2021-09-01T12:11:23Z</time>
      </trkpt>
      <trkpt lat="39.452766" lon="3.263519">
        <ele>24.567</ele>
        <time>2021-09-01T12:11:25Z</time>
      </trkpt>
      <trkpt lat="39.452749" lon="3.263458">
        <ele>25.081</ele>
        <time>2021-09-01T12:11:27Z</time>
      </trkpt>
      <trkpt lat="39.452734" lon="3.263389">
        <ele>25.519</ele>
        <time>2021-09-01T12:11:29Z</time>
      </trkpt>
      <trkpt lat="39.452715" lon="3.263329">
        <ele>25.908</ele>
        <time>2021-09-01T12:11:31Z</time>
      </trkpt>
      <trkpt lat="39.452697" lon="3.263271">
        <ele>26.314</ele>
        <time>2021-09-01T12:11:33Z</time>
      </trkpt>
      <trkpt lat="39.452673" lon="3.263219">
        <ele>26.858</ele>
        <time>2021-09-01T12:11:35Z</time>
      </trkpt>
      <trkpt lat="39.452656" lon="3.263156">
        <ele>27.363</ele>
        <time>2021-09-01T12:11:37Z</time>
      </trkpt>
      <trkpt lat="39.452636" lon="3.263091">
        <ele>27.677</ele>
        <time>2021-09-01T12:11:39Z</time>
      </trkpt>
      <trkpt lat="39.452615" lon="3.263035">
        <ele>28.036</ele>
        <time>2021-09-01T12:11:41Z</time>
      </trkpt>
      <trkpt lat="39.452587" lon="3.262986">
        <ele>28.461</ele>
        <time>2021-09-01T12:11:43Z</time>
      </trkpt>
      <trkpt lat="39.452558" lon="3.262939">
        <ele>28.818</ele>
        <time>2021-09-01T12:11:45Z</time>
      </trkpt>
      <trkpt lat="39.452530" lon="3.262893">
        <ele>29.238</ele>
        <time>2021-09-01T12:11:47Z</time>
      </trkpt>
      <trkpt lat="39.452503" lon="3.262839">
        <ele>29.687</ele>
        <time>2021-09-01T12:11:49Z</time>
      </trkpt>
      <trkpt lat="39.452472" lon="3.262787">
        <ele>30.142</ele>
        <time>2021-09-01T12:11:51Z</time>
      </trkpt>
      <trkpt lat="39.452443" lon="3.262732">
        <ele>30.426</ele>
        <time>2021-09-01T12:11:53Z</time>
      </trkpt>
      <trkpt lat="39.452398" lon="3.262672">
        <ele>30.808</ele>
        <time>2021-09-01T12:11:56Z</time>
      </trkpt>
      <trkpt lat="39.452368" lon="3.262613">
        <ele>31.286</ele>
        <time>2021-09-01T12:11:58Z</time>
      </trkpt>
      <trkpt lat="39.452339" lon="3.262561">
        <ele>31.520</ele>
        <time>2021-09-01T12:12:00Z</time>
      </trkpt>
      <trkpt lat="39.452310" lon="3.262502">
        <ele>31.775</ele>
        <time>2021-09-01T12:12:02Z</time>
      </trkpt>
      <trkpt lat="39.452281" lon="3.262453">
        <ele>31.959</ele>
        <time>2021-09-01T12:12:04Z</time>
      </trkpt>
      <trkpt lat="39.452255" lon="3.262403">
        <ele>32.398</ele>
        <time>2021-09-01T12:12:06Z</time>
      </trkpt>
      <trkpt lat="39.452217" lon="3.262353">
        <ele>32.613</ele>
        <time>2021-09-01T12:12:08Z</time>
      </trkpt>
      <trkpt lat="39.452168" lon="3.262308">
        <ele>33.150</ele>
        <time>2021-09-01T12:12:10Z</time>
      </trkpt>
      <trkpt lat="39.452101" lon="3.262281">
        <ele>33.470</ele>
        <time>2021-09-01T12:12:12Z</time>
      </trkpt>
      <trkpt lat="39.452036" lon="3.262242">
        <ele>33.755</ele>
        <time>2021-09-01T12:12:14Z</time>
      </trkpt>
      <trkpt lat="39.451967" lon="3.262182">
        <ele>34.007</ele>
        <time>2021-09-01T12:12:16Z</time>
      </trkpt>
      <trkpt lat="39.451897" lon="3.262134">
        <ele>34.217</ele>
        <time>2021-09-01T12:12:18Z</time>
      </trkpt>
      <trkpt lat="39.451833" lon="3.262092">
        <ele>34.308</ele>
        <time>2021-09-01T12:12:20Z</time>
      </trkpt>
      <trkpt lat="39.451756" lon="3.262067">
        <ele>34.483</ele>
        <time>2021-09-01T12:12:22Z</time>
      </trkpt>
      <trkpt lat="39.451713" lon="3.262045">
        <ele>34.317</ele>
        <time>2021-09-01T12:12:23Z</time>
      </trkpt>
      <trkpt lat="39.451632" lon="3.262009">
        <ele>34.322</ele>
        <time>2021-09-01T12:12:25Z</time>
      </trkpt>
      <trkpt lat="39.451548" lon="3.261992">
        <ele>34.036</ele>
        <time>2021-09-01T12:12:27Z</time>
      </trkpt>
      <trkpt lat="39.451500" lon="3.261982">
        <ele>34.025</ele>
        <time>2021-09-01T12:12:28Z</time>
      </trkpt>
      <trkpt lat="39.451452" lon="3.261972">
        <ele>34.110</ele>
        <time>2021-09-01T12:12:29Z</time>
      </trkpt>
      <trkpt lat="39.451396" lon="3.261961">
        <ele>34.147</ele>
        <time>2021-09-01T12:12:30Z</time>
      </trkpt>
      <trkpt lat="39.451336" lon="3.261957">
        <ele>34.197</ele>
        <time>2021-09-01T12:12:31Z</time>
      </trkpt>
      <trkpt lat="39.451282" lon="3.261959">
        <ele>34.182</ele>
        <time>2021-09-01T12:12:32Z</time>
      </trkpt>
      <trkpt lat="39.451226" lon="3.261960">
        <ele>34.143</ele>
        <time>2021-09-01T12:12:33Z</time>
      </trkpt>
      <trkpt lat="39.451169" lon="3.261963">
        <ele>33.917</ele>
        <time>2021-09-01T12:12:34Z</time>
      </trkpt>
      <trkpt lat="39.451114" lon="3.261971">
        <ele>33.808</ele>
        <time>2021-09-01T12:12:35Z</time>
      </trkpt>
      <trkpt lat="39.451056" lon="3.261980">
        <ele>33.616</ele>
        <time>2021-09-01T12:12:36Z</time>
      </trkpt>
      <trkpt lat="39.451002" lon="3.261985">
        <ele>33.510</ele>
        <time>2021-09-01T12:12:37Z</time>
      </trkpt>
      <trkpt lat="39.450947" lon="3.262002">
        <ele>33.425</ele>
        <time>2021-09-01T12:12:38Z</time>
      </trkpt>
      <trkpt lat="39.450885" lon="3.262011">
        <ele>33.489</ele>
        <time>2021-09-01T12:12:39Z</time>
      </trkpt>
      <trkpt lat="39.450837" lon="3.262042">
        <ele>33.368</ele>
        <time>2021-09-01T12:12:40Z</time>
      </trkpt>
      <trkpt lat="39.450792" lon="3.262076">
        <ele>33.313</ele>
        <time>2021-09-01T12:12:41Z</time>
      </trkpt>
      <trkpt lat="39.450731" lon="3.262114">
        <ele>33.340</ele>
        <time>2021-09-01T12:12:42Z</time>
      </trkpt>
      <trkpt lat="39.450678" lon="3.262145">
        <ele>33.260</ele>
        <time>2021-09-01T12:12:43Z</time>
      </trkpt>
      <trkpt lat="39.450624" lon="3.262181">
        <ele>33.183</ele>
        <time>2021-09-01T12:12:44Z</time>
      </trkpt>
      <trkpt lat="39.450572" lon="3.262223">
        <ele>33.025</ele>
        <time>2021-09-01T12:12:45Z</time>
      </trkpt>
      <trkpt lat="39.450522" lon="3.262260">
        <ele>32.817</ele>
        <time>2021-09-01T12:12:46Z</time>
      </trkpt>
      <trkpt lat="39.450470" lon="3.262305">
        <ele>32.608</ele>
        <time>2021-09-01T12:12:47Z</time>
      </trkpt>
      <trkpt lat="39.450409" lon="3.262331">
        <ele>32.416</ele>
        <time>2021-09-01T12:12:48Z</time>
      </trkpt>
      <trkpt lat="39.450353" lon="3.262371">
        <ele>32.210</ele>
        <time>2021-09-01T12:12:49Z</time>
      </trkpt>
      <trkpt lat="39.450300" lon="3.262434">
        <ele>31.995</ele>
        <time>2021-09-01T12:12:50Z</time>
      </trkpt>
      <trkpt lat="39.450275" lon="3.262508">
        <ele>31.739</ele>
        <time>2021-09-01T12:12:51Z</time>
      </trkpt>
      <trkpt lat="39.450243" lon="3.262587">
        <ele>31.328</ele>
        <time>2021-09-01T12:12:52Z</time>
      </trkpt>
      <trkpt lat="39.450204" lon="3.262654">
        <ele>30.983</ele>
        <time>2021-09-01T12:12:53Z</time>
      </trkpt>
      <trkpt lat="39.450157" lon="3.262715">
        <ele>30.750</ele>
        <time>2021-09-01T12:12:54Z</time>
      </trkpt>
      <trkpt lat="39.450111" lon="3.262790">
        <ele>30.490</ele>
        <time>2021-09-01T12:12:55Z</time>
      </trkpt>
      <trkpt lat="39.450070" lon="3.262867">
        <ele>30.181</ele>
        <time>2021-09-01T12:12:56Z</time>
      </trkpt>
      <trkpt lat="39.450031" lon="3.262941">
        <ele>29.861</ele>
        <time>2021-09-01T12:12:57Z</time>
      </trkpt>
      <trkpt lat="39.450002" lon="3.263014">
        <ele>29.517</ele>
        <time>2021-09-01T12:12:58Z</time>
      </trkpt>
      <trkpt lat="39.449968" lon="3.263099">
        <ele>29.108</ele>
        <time>2021-09-01T12:12:59Z</time>
      </trkpt>
      <trkpt lat="39.449936" lon="3.263180">
        <ele>28.916</ele>
        <time>2021-09-01T12:13:00Z</time>
      </trkpt>
      <trkpt lat="39.449901" lon="3.263258">
        <ele>28.860</ele>
        <time>2021-09-01T12:13:01Z</time>
      </trkpt>
      <trkpt lat="39.449875" lon="3.263347">
        <ele>28.575</ele>
        <time>2021-09-01T12:13:02Z</time>
      </trkpt>
      <trkpt lat="39.449848" lon="3.263434">
        <ele>28.499</ele>
        <time>2021-09-01T12:13:03Z</time>
      </trkpt>
      <trkpt lat="39.449830" lon="3.263522">
        <ele>28.298</ele>
        <time>2021-09-01T12:13:04Z</time>
      </trkpt>
      <trkpt lat="39.449811" lon="3.263614">
        <ele>28.013</ele>
        <time>2021-09-01T12:13:05Z</time>
      </trkpt>
      <trkpt lat="39.449795" lon="3.263702">
        <ele>27.650</ele>
        <time>2021-09-01T12:13:06Z</time>
      </trkpt>
      <trkpt lat="39.449779" lon="3.263799">
        <ele>27.360</ele>
        <time>2021-09-01T12:13:07Z</time>
      </trkpt>
      <trkpt lat="39.449758" lon="3.263894">
        <ele>27.144</ele>
        <time>2021-09-01T12:13:08Z</time>
      </trkpt>
      <trkpt lat="39.449737" lon="3.263983">
        <ele>26.705</ele>
        <time>2021-09-01T12:13:09Z</time>
      </trkpt>
      <trkpt lat="39.449721" lon="3.264080">
        <ele>26.515</ele>
        <time>2021-09-01T12:13:10Z</time>
      </trkpt>
      <trkpt lat="39.449703" lon="3.264177">
        <ele>26.208</ele>
        <time>2021-09-01T12:13:11Z</time>
      </trkpt>
      <trkpt lat="39.449682" lon="3.264270">
        <ele>25.972</ele>
        <time>2021-09-01T12:13:12Z</time>
      </trkpt>
      <trkpt lat="39.449657" lon="3.264357">
        <ele>25.736</ele>
        <time>2021-09-01T12:13:13Z</time>
      </trkpt>
      <trkpt lat="39.449632" lon="3.264447">
        <ele>25.591</ele>
        <time>2021-09-01T12:13:14Z</time>
      </trkpt>
      <trkpt lat="39.449604" lon="3.264538">
        <ele>25.325</ele>
        <time>2021-09-01T12:13:15Z</time>
      </trkpt>
      <trkpt lat="39.449585" lon="3.264636">
        <ele>25.264</ele>
        <time>2021-09-01T12:13:16Z</time>
      </trkpt>
      <trkpt lat="39.449572" lon="3.264724">
        <ele>25.069</ele>
        <time>2021-09-01T12:13:17Z</time>
      </trkpt>
      <trkpt lat="39.449550" lon="3.264823">
        <ele>24.866</ele>
        <time>2021-09-01T12:13:18Z</time>
      </trkpt>
      <trkpt lat="39.449524" lon="3.264916">
        <ele>24.616</ele>
        <time>2021-09-01T12:13:19Z</time>
      </trkpt>
      <trkpt lat="39.449495" lon="3.265007">
        <ele>24.457</ele>
        <time>2021-09-01T12:13:20Z</time>
      </trkpt>
      <trkpt lat="39.449460" lon="3.265089">
        <ele>24.100</ele>
        <time>2021-09-01T12:13:21Z</time>
      </trkpt>
      <trkpt lat="39.449436" lon="3.265167">
        <ele>23.920</ele>
        <time>2021-09-01T12:13:22Z</time>
      </trkpt>
      <trkpt lat="39.449419" lon="3.265253">
        <ele>23.708</ele>
        <time>2021-09-01T12:13:23Z</time>
      </trkpt>
      <trkpt lat="39.449413" lon="3.265338">
        <ele>23.433</ele>
        <time>2021-09-01T12:13:24Z</time>
      </trkpt>
      <trkpt lat="39.449411" lon="3.265425">
        <ele>23.187</ele>
        <time>2021-09-01T12:13:25Z</time>
      </trkpt>
      <trkpt lat="39.449397" lon="3.265519">
        <ele>22.992</ele>
        <time>2021-09-01T12:13:26Z</time>
      </trkpt>
      <trkpt lat="39.449378" lon="3.265608">
        <ele>22.636</ele>
        <time>2021-09-01T12:13:27Z</time>
      </trkpt>
      <trkpt lat="39.449361" lon="3.265691">
        <ele>22.375</ele>
        <time>2021-09-01T12:13:28Z</time>
      </trkpt>
      <trkpt lat="39.449344" lon="3.265782">
        <ele>22.130</ele>
        <time>2021-09-01T12:13:29Z</time>
      </trkpt>
      <trkpt lat="39.449326" lon="3.265869">
        <ele>21.917</ele>
        <time>2021-09-01T12:13:30Z</time>
      </trkpt>
      <trkpt lat="39.449309" lon="3.265959">
        <ele>21.737</ele>
        <time>2021-09-01T12:13:31Z</time>
      </trkpt>
      <trkpt lat="39.449285" lon="3.266048">
        <ele>21.755</ele>
        <time>2021-09-01T12:13:32Z</time>
      </trkpt>
      <trkpt lat="39.449260" lon="3.266138">
        <ele>21.607</ele>
        <time>2021-09-01T12:13:33Z</time>
      </trkpt>
      <trkpt lat="39.449237" lon="3.266232">
        <ele>21.317</ele>
        <time>2021-09-01T12:13:34Z</time>
      </trkpt>
      <trkpt lat="39.449213" lon="3.266322">
        <ele>21.008</ele>
        <time>2021-09-01T12:13:35Z</time>
      </trkpt>
      <trkpt lat="39.449197" lon="3.266416">
        <ele>20.663</ele>
        <time>2021-09-01T12:13:36Z</time>
      </trkpt>
      <trkpt lat="39.449174" lon="3.266528">
        <ele>20.187</ele>
        <time>2021-09-01T12:13:37Z</time>
      </trkpt>
      <trkpt lat="39.449150" lon="3.266639">
        <ele>19.682</ele>
        <time>2021-09-01T12:13:38Z</time>
      </trkpt>
      <trkpt lat="39.449129" lon="3.266749">
        <ele>19.246</ele>
        <time>2021-09-01T12:13:39Z</time>
      </trkpt>
      <trkpt lat="39.449110" lon="3.266855">
        <ele>19.085</ele>
        <time>2021-09-01T12:13:40Z</time>
      </trkpt>
      <trkpt lat="39.449094" lon="3.266961">
        <ele>18.880</ele>
        <time>2021-09-01T12:13:41Z</time>
      </trkpt>
      <trkpt lat="39.449074" lon="3.267071">
        <ele>18.517</ele>
        <time>2021-09-01T12:13:42Z</time>
      </trkpt>
      <trkpt lat="39.449047" lon="3.267183">
        <ele>18.277</ele>
        <time>2021-09-01T12:13:43Z</time>
      </trkpt>
      <trkpt lat="39.449022" lon="3.267288">
        <ele>18.011</ele>
        <time>2021-09-01T12:13:44Z</time>
      </trkpt>
      <trkpt lat="39.449004" lon="3.267399">
        <ele>17.621</ele>
        <time>2021-09-01T12:13:45Z</time>
      </trkpt>
      <trkpt lat="39.448986" lon="3.267499">
        <ele>17.203</ele>
        <time>2021-09-01T12:13:46Z</time>
      </trkpt>
      <trkpt lat="39.448959" lon="3.267597">
        <ele>16.808</ele>
        <time>2021-09-01T12:13:47Z</time>
      </trkpt>
      <trkpt lat="39.448934" lon="3.267695">
        <ele>16.599</ele>
        <time>2021-09-01T12:13:48Z</time>
      </trkpt>
      <trkpt lat="39.448910" lon="3.267795">
        <ele>16.213</ele>
        <time>2021-09-01T12:13:49Z</time>
      </trkpt>
      <trkpt lat="39.448886" lon="3.267884">
        <ele>15.938</ele>
        <time>2021-09-01T12:13:50Z</time>
      </trkpt>
      <trkpt lat="39.448866" lon="3.267971">
        <ele>15.662</ele>
        <time>2021-09-01T12:13:51Z</time>
      </trkpt>
      <trkpt lat="39.448846" lon="3.268041">
        <ele>15.481</ele>
        <time>2021-09-01T12:13:52Z</time>
      </trkpt>
      <trkpt lat="39.448812" lon="3.268114">
        <ele>15.146</ele>
        <time>2021-09-01T12:13:53Z</time>
      </trkpt>
      <trkpt lat="39.448790" lon="3.268189">
        <ele>14.943</ele>
        <time>2021-09-01T12:13:54Z</time>
      </trkpt>
      <trkpt lat="39.448759" lon="3.268274">
        <ele>14.683</ele>
        <time>2021-09-01T12:13:55Z</time>
      </trkpt>
      <trkpt lat="39.448739" lon="3.268354">
        <ele>14.488</ele>
        <time>2021-09-01T12:13:56Z</time>
      </trkpt>
      <trkpt lat="39.448721" lon="3.268440">
        <ele>14.224</ele>
        <time>2021-09-01T12:13:57Z</time>
      </trkpt>
      <trkpt lat="39.448720" lon="3.268527">
        <ele>14.026</ele>
        <time>2021-09-01T12:13:58Z</time>
      </trkpt>
      <trkpt lat="39.448701" lon="3.268612">
        <ele>13.908</ele>
        <time>2021-09-01T12:13:59Z</time>
      </trkpt>
      <trkpt lat="39.448676" lon="3.268700">
        <ele>13.616</ele>
        <time>2021-09-01T12:14:00Z</time>
      </trkpt>
      <trkpt lat="39.448650" lon="3.268795">
        <ele>13.470</ele>
        <time>2021-09-01T12:14:01Z</time>
      </trkpt>
      <trkpt lat="39.448629" lon="3.268888">
        <ele>13.135</ele>
        <time>2021-09-01T12:14:02Z</time>
      </trkpt>
      <trkpt lat="39.448613" lon="3.268986">
        <ele>12.749</ele>
        <time>2021-09-01T12:14:03Z</time>
      </trkpt>
      <trkpt lat="39.448593" lon="3.269075">
        <ele>12.478</ele>
        <time>2021-09-01T12:14:04Z</time>
      </trkpt>
      <trkpt lat="39.448571" lon="3.269165">
        <ele>12.223</ele>
        <time>2021-09-01T12:14:05Z</time>
      </trkpt>
      <trkpt lat="39.448550" lon="3.269254">
        <ele>11.940</ele>
        <time>2021-09-01T12:14:06Z</time>
      </trkpt>
      <trkpt lat="39.448536" lon="3.269342">
        <ele>11.830</ele>
        <time>2021-09-01T12:14:07Z</time>
      </trkpt>
      <trkpt lat="39.448516" lon="3.269445">
        <ele>11.659</ele>
        <time>2021-09-01T12:14:08Z</time>
      </trkpt>
      <trkpt lat="39.448497" lon="3.269540">
        <ele>11.503</ele>
        <time>2021-09-01T12:14:09Z</time>
      </trkpt>
      <trkpt lat="39.448473" lon="3.269629">
        <ele>11.523</ele>
        <time>2021-09-01T12:14:10Z</time>
      </trkpt>
      <trkpt lat="39.448451" lon="3.269722">
        <ele>11.408</ele>
        <time>2021-09-01T12:14:11Z</time>
      </trkpt>
      <trkpt lat="39.448429" lon="3.269815">
        <ele>11.323</ele>
        <time>2021-09-01T12:14:12Z</time>
      </trkpt>
      <trkpt lat="39.448411" lon="3.269902">
        <ele>11.357</ele>
        <time>2021-09-01T12:14:13Z</time>
      </trkpt>
      <trkpt lat="39.448387" lon="3.269992">
        <ele>11.322</ele>
        <time>2021-09-01T12:14:14Z</time>
      </trkpt>
      <trkpt lat="39.448363" lon="3.270065">
        <ele>11.256</ele>
        <time>2021-09-01T12:14:15Z</time>
      </trkpt>
      <trkpt lat="39.448341" lon="3.270148">
        <ele>11.255</ele>
        <time>2021-09-01T12:14:16Z</time>
      </trkpt>
      <trkpt lat="39.448328" lon="3.270214">
        <ele>11.270</ele>
        <time>2021-09-01T12:14:17Z</time>
      </trkpt>
      <trkpt lat="39.448309" lon="3.270295">
        <ele>11.367</ele>
        <time>2021-09-01T12:14:18Z</time>
      </trkpt>
      <trkpt lat="39.448293" lon="3.270363">
        <ele>11.387</ele>
        <time>2021-09-01T12:14:19Z</time>
      </trkpt>
      <trkpt lat="39.448278" lon="3.270427">
        <ele>11.534</ele>
        <time>2021-09-01T12:14:20Z</time>
      </trkpt>
      <trkpt lat="39.448262" lon="3.270490">
        <ele>11.655</ele>
        <time>2021-09-01T12:14:21Z</time>
      </trkpt>
      <trkpt lat="39.448248" lon="3.270550">
        <ele>11.610</ele>
        <time>2021-09-01T12:14:22Z</time>
      </trkpt>
      <trkpt lat="39.448231" lon="3.270607">
        <ele>11.708</ele>
        <time>2021-09-01T12:14:23Z</time>
      </trkpt>
      <trkpt lat="39.448215" lon="3.270668">
        <ele>11.771</ele>
        <time>2021-09-01T12:14:24Z</time>
      </trkpt>
      <trkpt lat="39.448200" lon="3.270732">
        <ele>11.775</ele>
        <time>2021-09-01T12:14:25Z</time>
      </trkpt>
      <trkpt lat="39.448194" lon="3.270791">
        <ele>11.820</ele>
        <time>2021-09-01T12:14:26Z</time>
      </trkpt>
      <trkpt lat="39.448188" lon="3.270855">
        <ele>11.844</ele>
        <time>2021-09-01T12:14:27Z</time>
      </trkpt>
      <trkpt lat="39.448169" lon="3.270915">
        <ele>11.923</ele>
        <time>2021-09-01T12:14:28Z</time>
      </trkpt>
      <trkpt lat="39.448142" lon="3.271019">
        <ele>11.928</ele>
        <time>2021-09-01T12:14:30Z</time>
      </trkpt>
      <trkpt lat="39.448129" lon="3.271078">
        <ele>11.845</ele>
        <time>2021-09-01T12:14:31Z</time>
      </trkpt>
      <trkpt lat="39.448109" lon="3.271135">
        <ele>11.855</ele>
        <time>2021-09-01T12:14:32Z</time>
      </trkpt>
      <trkpt lat="39.448057" lon="3.271229">
        <ele>11.691</ele>
        <time>2021-09-01T12:14:34Z</time>
      </trkpt>
      <trkpt lat="39.448029" lon="3.271276">
        <ele>11.581</ele>
        <time>2021-09-01T12:14:35Z</time>
      </trkpt>
      <trkpt lat="39.448056" lon="3.271399">
        <ele>11.319</ele>
        <time>2021-09-01T12:14:37Z</time>
      </trkpt>
      <trkpt lat="39.448060" lon="3.271469">
        <ele>11.108</ele>
        <time>2021-09-01T12:14:38Z</time>
      </trkpt>
      <trkpt lat="39.448053" lon="3.271544">
        <ele>10.927</ele>
        <time>2021-09-01T12:14:39Z</time>
      </trkpt>
      <trkpt lat="39.448030" lon="3.271604">
        <ele>10.611</ele>
        <time>2021-09-01T12:14:40Z</time>
      </trkpt>
      <trkpt lat="39.448009" lon="3.271663">
        <ele>10.346</ele>
        <time>2021-09-01T12:14:41Z</time>
      </trkpt>
      <trkpt lat="39.447996" lon="3.271735">
        <ele>10.080</ele>
        <time>2021-09-01T12:14:42Z</time>
      </trkpt>
      <trkpt lat="39.447985" lon="3.271805">
        <ele>9.769</ele>
        <time>2021-09-01T12:14:43Z</time>
      </trkpt>
      <trkpt lat="39.447978" lon="3.271877">
        <ele>9.434</ele>
        <time>2021-09-01T12:14:44Z</time>
      </trkpt>
      <trkpt lat="39.447970" lon="3.271943">
        <ele>9.161</ele>
        <time>2021-09-01T12:14:45Z</time>
      </trkpt>
      <trkpt lat="39.447958" lon="3.272011">
        <ele>8.851</ele>
        <time>2021-09-01T12:14:46Z</time>
      </trkpt>
      <trkpt lat="39.447943" lon="3.272081">
        <ele>8.514</ele>
        <time>2021-09-01T12:14:47Z</time>
      </trkpt>
      <trkpt lat="39.447929" lon="3.272155">
        <ele>8.254</ele>
        <time>2021-09-01T12:14:48Z</time>
      </trkpt>
      <trkpt lat="39.447917" lon="3.272227">
        <ele>7.909</ele>
        <time>2021-09-01T12:14:49Z</time>
      </trkpt>
      <trkpt lat="39.447909" lon="3.272302">
        <ele>7.608</ele>
        <time>2021-09-01T12:14:50Z</time>
      </trkpt>
      <trkpt lat="39.447907" lon="3.272375">
        <ele>7.339</ele>
        <time>2021-09-01T12:14:51Z</time>
      </trkpt>
      <trkpt lat="39.447902" lon="3.272450">
        <ele>7.173</ele>
        <time>2021-09-01T12:14:52Z</time>
      </trkpt>
      <trkpt lat="39.447900" lon="3.272530">
        <ele>6.948</ele>
        <time>2021-09-01T12:14:53Z</time>
      </trkpt>
      <trkpt lat="39.447896" lon="3.272614">
        <ele>6.732</ele>
        <time>2021-09-01T12:14:54Z</time>
      </trkpt>
      <trkpt lat="39.447897" lon="3.272700">
        <ele>6.591</ele>
        <time>2021-09-01T12:14:55Z</time>
      </trkpt>
      <trkpt lat="39.447899" lon="3.272780">
        <ele>6.436</ele>
        <time>2021-09-01T12:14:56Z</time>
      </trkpt>
      <trkpt lat="39.447896" lon="3.272864">
        <ele>6.283</ele>
        <time>2021-09-01T12:14:57Z</time>
      </trkpt>
      <trkpt lat="39.447902" lon="3.272953">
        <ele>6.093</ele>
        <time>2021-09-01T12:14:58Z</time>
      </trkpt>
      <trkpt lat="39.447902" lon="3.273035">
        <ele>5.823</ele>
        <time>2021-09-01T12:14:59Z</time>
      </trkpt>
      <trkpt lat="39.447906" lon="3.273115">
        <ele>5.683</ele>
        <time>2021-09-01T12:15:00Z</time>
      </trkpt>
      <trkpt lat="39.447915" lon="3.273204">
        <ele>5.411</ele>
        <time>2021-09-01T12:15:01Z</time>
      </trkpt>
      <trkpt lat="39.447931" lon="3.273292">
        <ele>5.108</ele>
        <time>2021-09-01T12:15:02Z</time>
      </trkpt>
      <trkpt lat="39.447954" lon="3.273376">
        <ele>4.960</ele>
        <time>2021-09-01T12:15:03Z</time>
      </trkpt>
      <trkpt lat="39.447979" lon="3.273463">
        <ele>4.644</ele>
        <time>2021-09-01T12:15:04Z</time>
      </trkpt>
      <trkpt lat="39.448031" lon="3.273519">
        <ele>4.359</ele>
        <time>2021-09-01T12:15:05Z</time>
      </trkpt>
      <trkpt lat="39.448082" lon="3.273545">
        <ele>4.133</ele>
        <time>2021-09-01T12:15:06Z</time>
      </trkpt>
      <trkpt lat="39.448121" lon="3.273592">
        <ele>4.022</ele>
        <time>2021-09-01T12:15:07Z</time>
      </trkpt>
      <trkpt lat="39.448174" lon="3.273666">
        <ele>3.997</ele>
        <time>2021-09-01T12:15:08Z</time>
      </trkpt>
      <trkpt lat="39.448219" lon="3.273735">
        <ele>3.844</ele>
        <time>2021-09-01T12:15:09Z</time>
      </trkpt>
      <trkpt lat="39.448262" lon="3.273807">
        <ele>3.854</ele>
        <time>2021-09-01T12:15:10Z</time>
      </trkpt>
      <trkpt lat="39.448306" lon="3.273871">
        <ele>3.825</ele>
        <time>2021-09-01T12:15:11Z</time>
      </trkpt>
      <trkpt lat="39.448342" lon="3.273919">
        <ele>3.826</ele>
        <time>2021-09-01T12:15:12Z</time>
      </trkpt>
      <trkpt lat="39.448380" lon="3.273954">
        <ele>3.808</ele>
        <time>2021-09-01T12:15:13Z</time>
      </trkpt>
      <trkpt lat="39.448416" lon="3.273993">
        <ele>3.808</ele>
        <time>2021-09-01T12:15:14Z</time>
      </trkpt>
      <trkpt lat="39.448457" lon="3.274034">
        <ele>3.980</ele>
        <time>2021-09-01T12:15:15Z</time>
      </trkpt>
      <trkpt lat="39.448495" lon="3.274076">
        <ele>3.954</ele>
        <time>2021-09-01T12:15:16Z</time>
      </trkpt>
      <trkpt lat="39.448532" lon="3.274122">
        <ele>4.089</ele>
        <time>2021-09-01T12:15:17Z</time>
      </trkpt>
      <trkpt lat="39.448579" lon="3.274159">
        <ele>4.053</ele>
        <time>2021-09-01T12:15:18Z</time>
      </trkpt>
      <trkpt lat="39.448621" lon="3.274195">
        <ele>4.162</ele>
        <time>2021-09-01T12:15:19Z</time>
      </trkpt>
      <trkpt lat="39.448691" lon="3.274265">
        <ele>4.257</ele>
        <time>2021-09-01T12:15:21Z</time>
      </trkpt>
      <trkpt lat="39.448754" lon="3.274331">
        <ele>4.384</ele>
        <time>2021-09-01T12:15:23Z</time>
      </trkpt>
      <trkpt lat="39.448791" lon="3.274368">
        <ele>4.344</ele>
        <time>2021-09-01T12:15:24Z</time>
      </trkpt>
      <trkpt lat="39.448830" lon="3.274405">
        <ele>4.211</ele>
        <time>2021-09-01T12:15:25Z</time>
      </trkpt>
      <trkpt lat="39.448868" lon="3.274440">
        <ele>4.121</ele>
        <time>2021-09-01T12:15:26Z</time>
      </trkpt>
      <trkpt lat="39.448909" lon="3.274475">
        <ele>4.003</ele>
        <time>2021-09-01T12:15:27Z</time>
      </trkpt>
      <trkpt lat="39.448953" lon="3.274509">
        <ele>3.908</ele>
        <time>2021-09-01T12:15:28Z</time>
      </trkpt>
      <trkpt lat="39.448996" lon="3.274537">
        <ele>3.939</ele>
        <time>2021-09-01T12:15:29Z</time>
      </trkpt>
      <trkpt lat="39.449033" lon="3.274577">
        <ele>4.163</ele>
        <time>2021-09-01T12:15:30Z</time>
      </trkpt>
      <trkpt lat="39.449074" lon="3.274610">
        <ele>4.268</ele>
        <time>2021-09-01T12:15:31Z</time>
      </trkpt>
      <trkpt lat="39.449117" lon="3.274648">
        <ele>4.232</ele>
        <time>2021-09-01T12:15:32Z</time>
      </trkpt>
      <trkpt lat="39.449153" lon="3.274687">
        <ele>4.271</ele>
        <time>2021-09-01T12:15:33Z</time>
      </trkpt>
      <trkpt lat="39.449196" lon="3.274729">
        <ele>4.336</ele>
        <time>2021-09-01T12:15:34Z</time>
      </trkpt>
      <trkpt lat="39.449243" lon="3.274761">
        <ele>4.343</ele>
        <time>2021-09-01T12:15:35Z</time>
      </trkpt>
      <trkpt lat="39.449286" lon="3.274788">
        <ele>4.393</ele>
        <time>2021-09-01T12:15:36Z</time>
      </trkpt>
      <trkpt lat="39.449325" lon="3.274820">
        <ele>4.443</ele>
        <time>2021-09-01T12:15:37Z</time>
      </trkpt>
      <trkpt lat="39.449363" lon="3.274866">
        <ele>4.564</ele>
        <time>2021-09-01T12:15:38Z</time>
      </trkpt>
      <trkpt lat="39.449447" lon="3.274921">
        <ele>4.410</ele>
        <time>2021-09-01T12:15:40Z</time>
      </trkpt>
      <trkpt lat="39.449487" lon="3.274948">
        <ele>4.308</ele>
        <time>2021-09-01T12:15:41Z</time>
      </trkpt>
      <trkpt lat="39.449530" lon="3.274980">
        <ele>4.292</ele>
        <time>2021-09-01T12:15:42Z</time>
      </trkpt>
      <trkpt lat="39.449609" lon="3.275034">
        <ele>4.116</ele>
        <time>2021-09-01T12:15:44Z</time>
      </trkpt>
      <trkpt lat="39.449657" lon="3.275064">
        <ele>4.111</ele>
        <time>2021-09-01T12:15:45Z</time>
      </trkpt>
      <trkpt lat="39.449708" lon="3.275085">
        <ele>4.165</ele>
        <time>2021-09-01T12:15:46Z</time>
      </trkpt>
      <trkpt lat="39.449758" lon="3.275112">
        <ele>4.154</ele>
        <time>2021-09-01T12:15:47Z</time>
      </trkpt>
      <trkpt lat="39.449802" lon="3.275133">
        <ele>3.949</ele>
        <time>2021-09-01T12:15:48Z</time>
      </trkpt>
      <trkpt lat="39.449851" lon="3.275172">
        <ele>3.856</ele>
        <time>2021-09-01T12:15:49Z</time>
      </trkpt>
      <trkpt lat="39.449897" lon="3.275193">
        <ele>3.646</ele>
        <time>2021-09-01T12:15:50Z</time>
      </trkpt>
      <trkpt lat="39.449946" lon="3.275219">
        <ele>3.412</ele>
        <time>2021-09-01T12:15:51Z</time>
      </trkpt>
      <trkpt lat="39.449993" lon="3.275241">
        <ele>3.332</ele>
        <time>2021-09-01T12:15:52Z</time>
      </trkpt>
      <trkpt lat="39.450041" lon="3.275259">
        <ele>3.305</ele>
        <time>2021-09-01T12:15:53Z</time>
      </trkpt>
      <trkpt lat="39.450086" lon="3.275280">
        <ele>3.308</ele>
        <time>2021-09-01T12:15:54Z</time>
      </trkpt>
      <trkpt lat="39.450135" lon="3.275308">
        <ele>3.459</ele>
        <time>2021-09-01T12:15:55Z</time>
      </trkpt>
      <trkpt lat="39.450179" lon="3.275330">
        <ele>3.543</ele>
        <time>2021-09-01T12:15:56Z</time>
      </trkpt>
      <trkpt lat="39.450220" lon="3.275353">
        <ele>3.568</ele>
        <time>2021-09-01T12:15:57Z</time>
      </trkpt>
      <trkpt lat="39.450303" lon="3.275393">
        <ele>3.772</ele>
        <time>2021-09-01T12:15:59Z</time>
      </trkpt>
      <trkpt lat="39.450350" lon="3.275405">
        <ele>3.791</ele>
        <time>2021-09-01T12:16:00Z</time>
      </trkpt>
      <trkpt lat="39.450432" lon="3.275432">
        <ele>3.826</ele>
        <time>2021-09-01T12:16:02Z</time>
      </trkpt>
      <trkpt lat="39.450516" lon="3.275462">
        <ele>3.843</ele>
        <time>2021-09-01T12:16:04Z</time>
      </trkpt>
      <trkpt lat="39.450594" lon="3.275479">
        <ele>3.723</ele>
        <time>2021-09-01T12:16:06Z</time>
      </trkpt>
      <trkpt lat="39.450677" lon="3.275496">
        <ele>3.587</ele>
        <time>2021-09-01T12:16:08Z</time>
      </trkpt>
      <trkpt lat="39.450757" lon="3.275510">
        <ele>3.042</ele>
        <time>2021-09-01T12:16:10Z</time>
      </trkpt>
      <trkpt lat="39.450839" lon="3.275523">
        <ele>2.626</ele>
        <time>2021-09-01T12:16:12Z</time>
      </trkpt>
      <trkpt lat="39.450922" lon="3.275537">
        <ele>2.308</ele>
        <time>2021-09-01T12:16:14Z</time>
      </trkpt>
      <trkpt lat="39.451000" lon="3.275548">
        <ele>2.136</ele>
        <time>2021-09-01T12:16:16Z</time>
      </trkpt>
      <trkpt lat="39.451088" lon="3.275560">
        <ele>1.810</ele>
        <time>2021-09-01T12:16:18Z</time>
      </trkpt>
      <trkpt lat="39.451181" lon="3.275575">
        <ele>1.815</ele>
        <time>2021-09-01T12:16:20Z</time>
      </trkpt>
      <trkpt lat="39.451228" lon="3.275582">
        <ele>1.849</ele>
        <time>2021-09-01T12:16:21Z</time>
      </trkpt>
      <trkpt lat="39.451316" lon="3.275592">
        <ele>1.828</ele>
        <time>2021-09-01T12:16:23Z</time>
      </trkpt>
      <trkpt lat="39.451362" lon="3.275606">
        <ele>1.813</ele>
        <time>2021-09-01T12:16:24Z</time>
      </trkpt>
      <trkpt lat="39.451412" lon="3.275620">
        <ele>1.880</ele>
        <time>2021-09-01T12:16:25Z</time>
      </trkpt>
      <trkpt lat="39.451460" lon="3.275635">
        <ele>1.850</ele>
        <time>2021-09-01T12:16:26Z</time>
      </trkpt>
      <trkpt lat="39.451510" lon="3.275650">
        <ele>1.883</ele>
        <time>2021-09-01T12:16:27Z</time>
      </trkpt>
      <trkpt lat="39.451591" lon="3.275698">
        <ele>1.825</ele>
        <time>2021-09-01T12:16:29Z</time>
      </trkpt>
      <trkpt lat="39.451635" lon="3.275735">
        <ele>1.817</ele>
        <time>2021-09-01T12:16:30Z</time>
      </trkpt>
      <trkpt lat="39.451691" lon="3.275798">
        <ele>2.008</ele>
        <time>2021-09-01T12:16:32Z</time>
      </trkpt>
      <trkpt lat="39.451705" lon="3.275882">
        <ele>2.126</ele>
        <time>2021-09-01T12:16:34Z</time>
      </trkpt>
      <trkpt lat="39.451675" lon="3.275961">
        <ele>2.610</ele>
        <time>2021-09-01T12:16:36Z</time>
      </trkpt>
      <trkpt lat="39.451661" lon="3.276019">
        <ele>2.765</ele>
        <time>2021-09-01T12:16:38Z</time>
      </trkpt>
      <trkpt lat="39.451651" lon="3.276105">
        <ele>3.299</ele>
        <time>2021-09-01T12:16:41Z</time>
      </trkpt>
      <trkpt lat="39.451669" lon="3.276161">
        <ele>3.678</ele>
        <time>2021-09-01T12:16:43Z</time>
      </trkpt>
      <trkpt lat="39.451695" lon="3.276213">
        <ele>3.843</ele>
        <time>2021-09-01T12:16:45Z</time>
      </trkpt>
      <trkpt lat="39.451738" lon="3.276241">
        <ele>3.990</ele>
        <time>2021-09-01T12:16:47Z</time>
      </trkpt>
      <trkpt lat="39.451807" lon="3.276258">
        <ele>4.030</ele>
        <time>2021-09-01T12:16:50Z</time>
      </trkpt>
      <trkpt lat="39.451849" lon="3.276280">
        <ele>4.278</ele>
        <time>2021-09-01T12:16:52Z</time>
      </trkpt>
      <trkpt lat="39.451896" lon="3.276313">
        <ele>4.433</ele>
        <time>2021-09-01T12:16:55Z</time>
      </trkpt>
      <trkpt lat="39.451755" lon="3.276624">
        <ele>5.426</ele>
        <time>2021-09-01T12:20:25Z</time>
      </trkpt>
      <trkpt lat="39.451801" lon="3.276608">
        <ele>4.808</ele>
        <time>2021-09-01T12:40:10Z</time>
      </trkpt>
      <trkpt lat="39.451901" lon="3.276412">
        <ele>7.915</ele>
        <time>2021-09-01T12:42:42Z</time>
      </trkpt>
      <trkpt lat="39.451846" lon="3.276392">
        <ele>8.639</ele>
        <time>2021-09-01T12:42:47Z</time>
      </trkpt>
      <trkpt lat="39.451808" lon="3.276362">
        <ele>8.784</ele>
        <time>2021-09-01T12:42:49Z</time>
      </trkpt>
      <trkpt lat="39.451757" lon="3.276339">
        <ele>8.568</ele>
        <time>2021-09-01T12:42:51Z</time>
      </trkpt>
      <trkpt lat="39.451697" lon="3.276315">
        <ele>8.387</ele>
        <time>2021-09-01T12:42:53Z</time>
      </trkpt>
      <trkpt lat="39.451627" lon="3.276296">
        <ele>8.222</ele>
        <time>2021-09-01T12:42:55Z</time>
      </trkpt>
      <trkpt lat="39.451584" lon="3.276263">
        <ele>8.239</ele>
        <time>2021-09-01T12:42:57Z</time>
      </trkpt>
      <trkpt lat="39.451602" lon="3.276182">
        <ele>8.129</ele>
        <time>2021-09-01T12:42:59Z</time>
      </trkpt>
      <trkpt lat="39.451594" lon="3.276110">
        <ele>7.723</ele>
        <time>2021-09-01T12:43:01Z</time>
      </trkpt>
      <trkpt lat="39.451606" lon="3.276028">
        <ele>7.283</ele>
        <time>2021-09-01T12:43:03Z</time>
      </trkpt>
      <trkpt lat="39.451646" lon="3.275946">
        <ele>6.911</ele>
        <time>2021-09-01T12:43:05Z</time>
      </trkpt>
      <trkpt lat="39.451681" lon="3.275885">
        <ele>6.608</ele>
        <time>2021-09-01T12:43:07Z</time>
      </trkpt>
      <trkpt lat="39.451708" lon="3.275824">
        <ele>6.350</ele>
        <time>2021-09-01T12:43:09Z</time>
      </trkpt>
      <trkpt lat="39.451684" lon="3.275747">
        <ele>6.374</ele>
        <time>2021-09-01T12:43:11Z</time>
      </trkpt>
      <trkpt lat="39.451638" lon="3.275682">
        <ele>6.349</ele>
        <time>2021-09-01T12:43:13Z</time>
      </trkpt>
      <trkpt lat="39.451574" lon="3.275636">
        <ele>6.353</ele>
        <time>2021-09-01T12:43:15Z</time>
      </trkpt>
      <trkpt lat="39.451505" lon="3.275599">
        <ele>6.012</ele>
        <time>2021-09-01T12:43:17Z</time>
      </trkpt>
      <trkpt lat="39.451427" lon="3.275576">
        <ele>5.777</ele>
        <time>2021-09-01T12:43:19Z</time>
      </trkpt>
      <trkpt lat="39.451344" lon="3.275567">
        <ele>5.684</ele>
        <time>2021-09-01T12:43:21Z</time>
      </trkpt>
      <trkpt lat="39.451264" lon="3.275555">
        <ele>5.754</ele>
        <time>2021-09-01T12:43:23Z</time>
      </trkpt>
      <trkpt lat="39.451172" lon="3.275556">
        <ele>5.916</ele>
        <time>2021-09-01T12:43:25Z</time>
      </trkpt>
      <trkpt lat="39.451086" lon="3.275534">
        <ele>6.076</ele>
        <time>2021-09-01T12:43:27Z</time>
      </trkpt>
      <trkpt lat="39.450995" lon="3.275523">
        <ele>5.913</ele>
        <time>2021-09-01T12:43:29Z</time>
      </trkpt>
      <trkpt lat="39.450908" lon="3.275509">
        <ele>6.008</ele>
        <time>2021-09-01T12:43:31Z</time>
      </trkpt>
      <trkpt lat="39.450856" lon="3.275506">
        <ele>6.189</ele>
        <time>2021-09-01T12:43:32Z</time>
      </trkpt>
      <trkpt lat="39.450769" lon="3.275491">
        <ele>6.593</ele>
        <time>2021-09-01T12:43:34Z</time>
      </trkpt>
      <trkpt lat="39.450724" lon="3.275484">
        <ele>6.748</ele>
        <time>2021-09-01T12:43:35Z</time>
      </trkpt>
      <trkpt lat="39.450675" lon="3.275472">
        <ele>6.852</ele>
        <time>2021-09-01T12:43:36Z</time>
      </trkpt>
      <trkpt lat="39.450586" lon="3.275458">
        <ele>7.081</ele>
        <time>2021-09-01T12:43:38Z</time>
      </trkpt>
      <trkpt lat="39.450541" lon="3.275441">
        <ele>7.196</ele>
        <time>2021-09-01T12:43:39Z</time>
      </trkpt>
      <trkpt lat="39.450491" lon="3.275437">
        <ele>7.293</ele>
        <time>2021-09-01T12:43:40Z</time>
      </trkpt>
      <trkpt lat="39.450445" lon="3.275429">
        <ele>7.343</ele>
        <time>2021-09-01T12:43:41Z</time>
      </trkpt>
      <trkpt lat="39.450401" lon="3.275412">
        <ele>7.459</ele>
        <time>2021-09-01T12:43:42Z</time>
      </trkpt>
      <trkpt lat="39.450349" lon="3.275391">
        <ele>7.503</ele>
        <time>2021-09-01T12:43:43Z</time>
      </trkpt>
      <trkpt lat="39.450299" lon="3.275370">
        <ele>7.623</ele>
        <time>2021-09-01T12:43:44Z</time>
      </trkpt>
      <trkpt lat="39.450249" lon="3.275346">
        <ele>7.808</ele>
        <time>2021-09-01T12:43:45Z</time>
      </trkpt>
      <trkpt lat="39.450205" lon="3.275329">
        <ele>7.873</ele>
        <time>2021-09-01T12:43:46Z</time>
      </trkpt>
      <trkpt lat="39.450151" lon="3.275309">
        <ele>7.947</ele>
        <time>2021-09-01T12:43:47Z</time>
      </trkpt>
      <trkpt lat="39.450098" lon="3.275294">
        <ele>8.062</ele>
        <time>2021-09-01T12:43:48Z</time>
      </trkpt>
      <trkpt lat="39.450053" lon="3.275269">
        <ele>8.066</ele>
        <time>2021-09-01T12:43:49Z</time>
      </trkpt>
      <trkpt lat="39.450009" lon="3.275246">
        <ele>8.025</ele>
        <time>2021-09-01T12:43:50Z</time>
      </trkpt>
      <trkpt lat="39.449961" lon="3.275226">
        <ele>8.010</ele>
        <time>2021-09-01T12:43:51Z</time>
      </trkpt>
      <trkpt lat="39.449915" lon="3.275196">
        <ele>7.987</ele>
        <time>2021-09-01T12:43:52Z</time>
      </trkpt>
      <trkpt lat="39.449872" lon="3.275170">
        <ele>7.777</ele>
        <time>2021-09-01T12:43:53Z</time>
      </trkpt>
      <trkpt lat="39.449827" lon="3.275144">
        <ele>7.687</ele>
        <time>2021-09-01T12:43:54Z</time>
      </trkpt>
      <trkpt lat="39.449781" lon="3.275117">
        <ele>7.542</ele>
        <time>2021-09-01T12:43:55Z</time>
      </trkpt>
      <trkpt lat="39.449735" lon="3.275092">
        <ele>7.426</ele>
        <time>2021-09-01T12:43:56Z</time>
      </trkpt>
      <trkpt lat="39.449696" lon="3.275062">
        <ele>7.408</ele>
        <time>2021-09-01T12:43:57Z</time>
      </trkpt>
      <trkpt lat="39.449656" lon="3.275033">
        <ele>7.456</ele>
        <time>2021-09-01T12:43:58Z</time>
      </trkpt>
      <trkpt lat="39.449614" lon="3.275006">
        <ele>7.490</ele>
        <time>2021-09-01T12:43:59Z</time>
      </trkpt>
      <trkpt lat="39.449570" lon="3.274980">
        <ele>7.575</ele>
        <time>2021-09-01T12:44:00Z</time>
      </trkpt>
      <trkpt lat="39.449489" lon="3.274923">
        <ele>7.569</ele>
        <time>2021-09-01T12:44:02Z</time>
      </trkpt>
      <trkpt lat="39.449413" lon="3.274857">
        <ele>7.728</ele>
        <time>2021-09-01T12:44:04Z</time>
      </trkpt>
      <trkpt lat="39.449369" lon="3.274824">
        <ele>7.833</ele>
        <time>2021-09-01T12:44:05Z</time>
      </trkpt>
      <trkpt lat="39.449325" lon="3.274802">
        <ele>7.970</ele>
        <time>2021-09-01T12:44:06Z</time>
      </trkpt>
      <trkpt lat="39.449283" lon="3.274758">
        <ele>8.140</ele>
        <time>2021-09-01T12:44:07Z</time>
      </trkpt>
      <trkpt lat="39.449244" lon="3.274716">
        <ele>8.267</ele>
        <time>2021-09-01T12:44:08Z</time>
      </trkpt>
      <trkpt lat="39.449202" lon="3.274683">
        <ele>8.381</ele>
        <time>2021-09-01T12:44:09Z</time>
      </trkpt>
      <trkpt lat="39.449160" lon="3.274651">
        <ele>8.419</ele>
        <time>2021-09-01T12:44:10Z</time>
      </trkpt>
      <trkpt lat="39.449121" lon="3.274612">
        <ele>8.408</ele>
        <time>2021-09-01T12:44:11Z</time>
      </trkpt>
      <trkpt lat="39.449078" lon="3.274577">
        <ele>8.424</ele>
        <time>2021-09-01T12:44:12Z</time>
      </trkpt>
      <trkpt lat="39.449036" lon="3.274543">
        <ele>8.438</ele>
        <time>2021-09-01T12:44:13Z</time>
      </trkpt>
      <trkpt lat="39.448996" lon="3.274505">
        <ele>8.573</ele>
        <time>2021-09-01T12:44:14Z</time>
      </trkpt>
      <trkpt lat="39.448955" lon="3.274468">
        <ele>8.537</ele>
        <time>2021-09-01T12:44:15Z</time>
      </trkpt>
      <trkpt lat="39.448912" lon="3.274432">
        <ele>8.666</ele>
        <time>2021-09-01T12:44:16Z</time>
      </trkpt>
      <trkpt lat="39.448838" lon="3.274365">
        <ele>8.751</ele>
        <time>2021-09-01T12:44:18Z</time>
      </trkpt>
      <trkpt lat="39.448796" lon="3.274328">
        <ele>8.788</ele>
        <time>2021-09-01T12:44:19Z</time>
      </trkpt>
      <trkpt lat="39.448724" lon="3.274260">
        <ele>8.988</ele>
        <time>2021-09-01T12:44:21Z</time>
      </trkpt>
      <trkpt lat="39.448682" lon="3.274219">
        <ele>8.963</ele>
        <time>2021-09-01T12:44:22Z</time>
      </trkpt>
      <trkpt lat="39.448643" lon="3.274173">
        <ele>8.944</ele>
        <time>2021-09-01T12:44:23Z</time>
      </trkpt>
      <trkpt lat="39.448606" lon="3.274131">
        <ele>8.918</ele>
        <time>2021-09-01T12:44:24Z</time>
      </trkpt>
      <trkpt lat="39.448561" lon="3.274086">
        <ele>8.808</ele>
        <time>2021-09-01T12:44:25Z</time>
      </trkpt>
      <trkpt lat="39.448522" lon="3.274043">
        <ele>8.714</ele>
        <time>2021-09-01T12:44:26Z</time>
      </trkpt>
      <trkpt lat="39.448489" lon="3.274001">
        <ele>8.718</ele>
        <time>2021-09-01T12:44:27Z</time>
      </trkpt>
      <trkpt lat="39.448447" lon="3.273965">
        <ele>8.793</ele>
        <time>2021-09-01T12:44:28Z</time>
      </trkpt>
      <trkpt lat="39.448403" lon="3.273917">
        <ele>8.857</ele>
        <time>2021-09-01T12:44:29Z</time>
      </trkpt>
      <trkpt lat="39.448370" lon="3.273869">
        <ele>8.866</ele>
        <time>2021-09-01T12:44:30Z</time>
      </trkpt>
      <trkpt lat="39.448331" lon="3.273825">
        <ele>8.941</ele>
        <time>2021-09-01T12:44:31Z</time>
      </trkpt>
      <trkpt lat="39.448294" lon="3.273784">
        <ele>8.958</ele>
        <time>2021-09-01T12:44:32Z</time>
      </trkpt>
      <trkpt lat="39.448262" lon="3.273740">
        <ele>8.898</ele>
        <time>2021-09-01T12:44:33Z</time>
      </trkpt>
      <trkpt lat="39.448235" lon="3.273691">
        <ele>8.852</ele>
        <time>2021-09-01T12:44:34Z</time>
      </trkpt>
      <trkpt lat="39.448180" lon="3.273597">
        <ele>8.953</ele>
        <time>2021-09-01T12:44:36Z</time>
      </trkpt>
      <trkpt lat="39.448132" lon="3.273500">
        <ele>8.908</ele>
        <time>2021-09-01T12:44:38Z</time>
      </trkpt>
      <trkpt lat="39.448110" lon="3.273441">
        <ele>9.008</ele>
        <time>2021-09-01T12:44:39Z</time>
      </trkpt>
      <trkpt lat="39.448055" lon="3.273355">
        <ele>9.163</ele>
        <time>2021-09-01T12:44:41Z</time>
      </trkpt>
      <trkpt lat="39.447960" lon="3.273337">
        <ele>9.467</ele>
        <time>2021-09-01T12:44:43Z</time>
      </trkpt>
      <trkpt lat="39.447876" lon="3.273352">
        <ele>9.552</ele>
        <time>2021-09-01T12:44:45Z</time>
      </trkpt>
      <trkpt lat="39.447831" lon="3.273338">
        <ele>9.536</ele>
        <time>2021-09-01T12:44:46Z</time>
      </trkpt>
      <trkpt lat="39.447754" lon="3.273324">
        <ele>9.635</ele>
        <time>2021-09-01T12:44:48Z</time>
      </trkpt>
      <trkpt lat="39.447695" lon="3.273304">
        <ele>9.830</ele>
        <time>2021-09-01T12:44:50Z</time>
      </trkpt>
      <trkpt lat="39.447620" lon="3.273293">
        <ele>10.097</ele>
        <time>2021-09-01T12:44:52Z</time>
      </trkpt>
      <trkpt lat="39.447542" lon="3.273285">
        <ele>10.267</ele>
        <time>2021-09-01T12:44:54Z</time>
      </trkpt>
      <trkpt lat="39.447471" lon="3.273301">
        <ele>10.634</ele>
        <time>2021-09-01T12:44:56Z</time>
      </trkpt>
      <trkpt lat="39.447395" lon="3.273291">
        <ele>10.855</ele>
        <time>2021-09-01T12:44:58Z</time>
      </trkpt>
      <trkpt lat="39.447329" lon="3.273284">
        <ele>11.110</ele>
        <time>2021-09-01T12:45:00Z</time>
      </trkpt>
      <trkpt lat="39.447263" lon="3.273288">
        <ele>11.308</ele>
        <time>2021-09-01T12:45:02Z</time>
      </trkpt>
      <trkpt lat="39.447199" lon="3.273288">
        <ele>11.791</ele>
        <time>2021-09-01T12:45:04Z</time>
      </trkpt>
      <trkpt lat="39.447141" lon="3.273292">
        <ele>12.135</ele>
        <time>2021-09-01T12:45:06Z</time>
      </trkpt>
      <trkpt lat="39.447079" lon="3.273294">
        <ele>12.550</ele>
        <time>2021-09-01T12:45:08Z</time>
      </trkpt>
      <trkpt lat="39.447023" lon="3.273305">
        <ele>13.024</ele>
        <time>2021-09-01T12:45:10Z</time>
      </trkpt>
      <trkpt lat="39.446958" lon="3.273302">
        <ele>13.613</ele>
        <time>2021-09-01T12:45:12Z</time>
      </trkpt>
      <trkpt lat="39.446898" lon="3.273301">
        <ele>14.088</ele>
        <time>2021-09-01T12:45:14Z</time>
      </trkpt>
      <trkpt lat="39.446840" lon="3.273298">
        <ele>14.345</ele>
        <time>2021-09-01T12:45:16Z</time>
      </trkpt>
      <trkpt lat="39.446788" lon="3.273306">
        <ele>14.895</ele>
        <time>2021-09-01T12:45:18Z</time>
      </trkpt>
      <trkpt lat="39.446734" lon="3.273304">
        <ele>15.131</ele>
        <time>2021-09-01T12:45:20Z</time>
      </trkpt>
      <trkpt lat="39.446685" lon="3.273306">
        <ele>15.661</ele>
        <time>2021-09-01T12:45:22Z</time>
      </trkpt>
      <trkpt lat="39.446637" lon="3.273296">
        <ele>16.007</ele>
        <time>2021-09-01T12:45:24Z</time>
      </trkpt>
      <trkpt lat="39.446583" lon="3.273289">
        <ele>16.108</ele>
        <time>2021-09-01T12:45:26Z</time>
      </trkpt>
      <trkpt lat="39.446531" lon="3.273281">
        <ele>16.361</ele>
        <time>2021-09-01T12:45:28Z</time>
      </trkpt>
      <trkpt lat="39.446469" lon="3.273283">
        <ele>16.585</ele>
        <time>2021-09-01T12:45:30Z</time>
      </trkpt>
      <trkpt lat="39.446405" lon="3.273280">
        <ele>16.620</ele>
        <time>2021-09-01T12:45:32Z</time>
      </trkpt>
      <trkpt lat="39.446342" lon="3.273275">
        <ele>16.994</ele>
        <time>2021-09-01T12:45:34Z</time>
      </trkpt>
      <trkpt lat="39.446271" lon="3.273268">
        <ele>17.013</ele>
        <time>2021-09-01T12:45:36Z</time>
      </trkpt>
      <trkpt lat="39.446196" lon="3.273259">
        <ele>17.148</ele>
        <time>2021-09-01T12:45:38Z</time>
      </trkpt>
      <trkpt lat="39.446122" lon="3.273233">
        <ele>17.065</ele>
        <time>2021-09-01T12:45:40Z</time>
      </trkpt>
      <trkpt lat="39.446047" lon="3.273235">
        <ele>17.235</ele>
        <time>2021-09-01T12:45:42Z</time>
      </trkpt>
      <trkpt lat="39.445993" lon="3.273233">
        <ele>17.599</ele>
        <time>2021-09-01T12:45:44Z</time>
      </trkpt>
      <trkpt lat="39.445935" lon="3.273211">
        <ele>17.707</ele>
        <time>2021-09-01T12:45:46Z</time>
      </trkpt>
      <trkpt lat="39.445875" lon="3.273208">
        <ele>17.827</ele>
        <time>2021-09-01T12:45:48Z</time>
      </trkpt>
      <trkpt lat="39.445802" lon="3.273174">
        <ele>17.608</ele>
        <time>2021-09-01T12:45:50Z</time>
      </trkpt>
      <trkpt lat="39.445709" lon="3.273152">
        <ele>17.447</ele>
        <time>2021-09-01T12:45:52Z</time>
      </trkpt>
      <trkpt lat="39.445661" lon="3.273160">
        <ele>17.391</ele>
        <time>2021-09-01T12:45:53Z</time>
      </trkpt>
      <trkpt lat="39.445608" lon="3.273162">
        <ele>17.286</ele>
        <time>2021-09-01T12:45:54Z</time>
      </trkpt>
      <trkpt lat="39.445551" lon="3.273173">
        <ele>17.280</ele>
        <time>2021-09-01T12:45:55Z</time>
      </trkpt>
      <trkpt lat="39.445488" lon="3.273168">
        <ele>17.169</ele>
        <time>2021-09-01T12:45:56Z</time>
      </trkpt>
      <trkpt lat="39.445424" lon="3.273160">
        <ele>17.124</ele>
        <time>2021-09-01T12:45:57Z</time>
      </trkpt>
      <trkpt lat="39.445365" lon="3.273160">
        <ele>17.191</ele>
        <time>2021-09-01T12:45:58Z</time>
      </trkpt>
      <trkpt lat="39.445305" lon="3.273150">
        <ele>17.141</ele>
        <time>2021-09-01T12:45:59Z</time>
      </trkpt>
      <trkpt lat="39.445259" lon="3.273143">
        <ele>17.154</ele>
        <time>2021-09-01T12:46:00Z</time>
      </trkpt>
      <trkpt lat="39.445195" lon="3.273147">
        <ele>17.156</ele>
        <time>2021-09-01T12:46:01Z</time>
      </trkpt>
      <trkpt lat="39.445139" lon="3.273143">
        <ele>17.111</ele>
        <time>2021-09-01T12:46:02Z</time>
      </trkpt>
      <trkpt lat="39.445082" lon="3.273139">
        <ele>17.008</ele>
        <time>2021-09-01T12:46:03Z</time>
      </trkpt>
      <trkpt lat="39.445024" lon="3.273132">
        <ele>16.933</ele>
        <time>2021-09-01T12:46:04Z</time>
      </trkpt>
      <trkpt lat="39.444966" lon="3.273125">
        <ele>16.627</ele>
        <time>2021-09-01T12:46:05Z</time>
      </trkpt>
      <trkpt lat="39.444907" lon="3.273131">
        <ele>16.382</ele>
        <time>2021-09-01T12:46:06Z</time>
      </trkpt>
      <trkpt lat="39.444853" lon="3.273137">
        <ele>16.256</ele>
        <time>2021-09-01T12:46:07Z</time>
      </trkpt>
      <trkpt lat="39.444788" lon="3.273148">
        <ele>16.045</ele>
        <time>2021-09-01T12:46:08Z</time>
      </trkpt>
      <trkpt lat="39.444735" lon="3.273142">
        <ele>15.970</ele>
        <time>2021-09-01T12:46:09Z</time>
      </trkpt>
      <trkpt lat="39.444676" lon="3.273159">
        <ele>15.817</ele>
        <time>2021-09-01T12:46:10Z</time>
      </trkpt>
      <trkpt lat="39.444632" lon="3.273176">
        <ele>15.837</ele>
        <time>2021-09-01T12:46:11Z</time>
      </trkpt>
      <trkpt lat="39.444573" lon="3.273184">
        <ele>15.866</ele>
        <time>2021-09-01T12:46:12Z</time>
      </trkpt>
      <trkpt lat="39.444515" lon="3.273199">
        <ele>15.829</ele>
        <time>2021-09-01T12:46:13Z</time>
      </trkpt>
      <trkpt lat="39.444465" lon="3.273214">
        <ele>15.921</ele>
        <time>2021-09-01T12:46:14Z</time>
      </trkpt>
      <trkpt lat="39.444417" lon="3.273227">
        <ele>16.008</ele>
        <time>2021-09-01T12:46:15Z</time>
      </trkpt>
      <trkpt lat="39.444369" lon="3.273237">
        <ele>16.324</ele>
        <time>2021-09-01T12:46:16Z</time>
      </trkpt>
      <trkpt lat="39.444321" lon="3.273256">
        <ele>16.638</ele>
        <time>2021-09-01T12:46:17Z</time>
      </trkpt>
      <trkpt lat="39.444267" lon="3.273275">
        <ele>16.863</ele>
        <time>2021-09-01T12:46:18Z</time>
      </trkpt>
      <trkpt lat="39.444183" lon="3.273290">
        <ele>17.467</ele>
        <time>2021-09-01T12:46:20Z</time>
      </trkpt>
      <trkpt lat="39.444134" lon="3.273308">
        <ele>17.516</ele>
        <time>2021-09-01T12:46:21Z</time>
      </trkpt>
      <trkpt lat="39.444045" lon="3.273350">
        <ele>18.041</ele>
        <time>2021-09-01T12:46:23Z</time>
      </trkpt>
      <trkpt lat="39.443966" lon="3.273374">
        <ele>18.398</ele>
        <time>2021-09-01T12:46:25Z</time>
      </trkpt>
      <trkpt lat="39.443928" lon="3.273406">
        <ele>18.578</ele>
        <time>2021-09-01T12:46:26Z</time>
      </trkpt>
      <trkpt lat="39.443857" lon="3.273459">
        <ele>18.742</ele>
        <time>2021-09-01T12:46:28Z</time>
      </trkpt>
      <trkpt lat="39.443793" lon="3.273506">
        <ele>18.922</ele>
        <time>2021-09-01T12:46:30Z</time>
      </trkpt>
      <trkpt lat="39.443737" lon="3.273560">
        <ele>19.214</ele>
        <time>2021-09-01T12:46:32Z</time>
      </trkpt>
      <trkpt lat="39.443690" lon="3.273627">
        <ele>19.508</ele>
        <time>2021-09-01T12:46:34Z</time>
      </trkpt>
      <trkpt lat="39.443648" lon="3.273680">
        <ele>19.792</ele>
        <time>2021-09-01T12:46:36Z</time>
      </trkpt>
      <trkpt lat="39.443607" lon="3.273750">
        <ele>19.956</ele>
        <time>2021-09-01T12:46:38Z</time>
      </trkpt>
      <trkpt lat="39.443563" lon="3.273811">
        <ele>20.381</ele>
        <time>2021-09-01T12:46:40Z</time>
      </trkpt>
      <trkpt lat="39.443535" lon="3.273879">
        <ele>20.985</ele>
        <time>2021-09-01T12:46:42Z</time>
      </trkpt>
      <trkpt lat="39.443502" lon="3.273938">
        <ele>21.454</ele>
        <time>2021-09-01T12:46:44Z</time>
      </trkpt>
      <trkpt lat="39.443479" lon="3.273999">
        <ele>21.969</ele>
        <time>2021-09-01T12:46:46Z</time>
      </trkpt>
      <trkpt lat="39.443453" lon="3.274066">
        <ele>22.366</ele>
        <time>2021-09-01T12:46:48Z</time>
      </trkpt>
      <trkpt lat="39.443430" lon="3.274118">
        <ele>22.616</ele>
        <time>2021-09-01T12:46:50Z</time>
      </trkpt>
      <trkpt lat="39.443397" lon="3.274197">
        <ele>23.337</ele>
        <time>2021-09-01T12:46:53Z</time>
      </trkpt>
      <trkpt lat="39.443383" lon="3.274259">
        <ele>23.849</ele>
        <time>2021-09-01T12:46:55Z</time>
      </trkpt>
      <trkpt lat="39.443428" lon="3.274253">
        <ele>24.713</ele>
        <time>2021-09-01T12:47:02Z</time>
      </trkpt>
      <trkpt lat="39.443438" lon="3.274189">
        <ele>24.308</ele>
        <time>2021-09-01T12:47:04Z</time>
      </trkpt>
      <trkpt lat="39.443461" lon="3.274115">
        <ele>24.011</ele>
        <time>2021-09-01T12:47:06Z</time>
      </trkpt>
      <trkpt lat="39.443495" lon="3.274022">
        <ele>23.845</ele>
        <time>2021-09-01T12:47:08Z</time>
      </trkpt>
      <trkpt lat="39.443544" lon="3.273937">
        <ele>23.450</ele>
        <time>2021-09-01T12:47:10Z</time>
      </trkpt>
      <trkpt lat="39.443573" lon="3.273861">
        <ele>22.834</ele>
        <time>2021-09-01T12:47:12Z</time>
      </trkpt>
      <trkpt lat="39.443606" lon="3.273798">
        <ele>22.173</ele>
        <time>2021-09-01T12:47:15Z</time>
      </trkpt>
      <trkpt lat="39.443639" lon="3.273748">
        <ele>21.298</ele>
        <time>2021-09-01T12:47:19Z</time>
      </trkpt>
      <trkpt lat="39.443591" lon="3.273717">
        <ele>20.455</ele>
        <time>2021-09-01T12:47:29Z</time>
      </trkpt>
      <trkpt lat="39.443537" lon="3.273699">
        <ele>20.125</ele>
        <time>2021-09-01T12:47:41Z</time>
      </trkpt>
      <trkpt lat="39.443485" lon="3.273702">
        <ele>20.226</ele>
        <time>2021-09-01T12:47:45Z</time>
      </trkpt>
      <trkpt lat="39.443436" lon="3.273710">
        <ele>20.147</ele>
        <time>2021-09-01T12:47:48Z</time>
      </trkpt>
      <trkpt lat="39.443383" lon="3.273716">
        <ele>20.111</ele>
        <time>2021-09-01T12:47:51Z</time>
      </trkpt>
      <trkpt lat="39.443323" lon="3.273739">
        <ele>20.708</ele>
        <time>2021-09-01T12:48:09Z</time>
      </trkpt>
      <trkpt lat="39.443277" lon="3.273763">
        <ele>20.680</ele>
        <time>2021-09-01T12:48:14Z</time>
      </trkpt>
      <trkpt lat="39.443245" lon="3.273817">
        <ele>21.074</ele>
        <time>2021-09-01T12:48:34Z</time>
      </trkpt>
      <trkpt lat="39.443194" lon="3.273830">
        <ele>21.329</ele>
        <time>2021-09-01T12:48:39Z</time>
      </trkpt>
      <trkpt lat="39.443171" lon="3.273882">
        <ele>21.793</ele>
        <time>2021-09-01T12:48:49Z</time>
      </trkpt>
      <trkpt lat="39.443153" lon="3.273936">
        <ele>21.772</ele>
        <time>2021-09-01T12:48:53Z</time>
      </trkpt>
      <trkpt lat="39.443130" lon="3.273998">
        <ele>22.097</ele>
        <time>2021-09-01T12:48:58Z</time>
      </trkpt>
      <trkpt lat="39.443122" lon="3.274076">
        <ele>22.444</ele>
        <time>2021-09-01T12:49:01Z</time>
      </trkpt>
      <trkpt lat="39.443094" lon="3.274121">
        <ele>22.754</ele>
        <time>2021-09-01T12:49:04Z</time>
      </trkpt>
      <trkpt lat="39.443032" lon="3.274129">
        <ele>23.072</ele>
        <time>2021-09-01T12:49:07Z</time>
      </trkpt>
      <trkpt lat="39.442979" lon="3.274097">
        <ele>23.113</ele>
        <time>2021-09-01T12:49:10Z</time>
      </trkpt>
      <trkpt lat="39.442911" lon="3.274085">
        <ele>23.114</ele>
        <time>2021-09-01T12:49:13Z</time>
      </trkpt>
      <trkpt lat="39.442851" lon="3.274098">
        <ele>23.108</ele>
        <time>2021-09-01T12:49:16Z</time>
      </trkpt>
      <trkpt lat="39.442804" lon="3.274108">
        <ele>23.345</ele>
        <time>2021-09-01T12:49:18Z</time>
      </trkpt>
      <trkpt lat="39.442749" lon="3.274132">
        <ele>23.659</ele>
        <time>2021-09-01T12:49:21Z</time>
      </trkpt>
      <trkpt lat="39.442704" lon="3.274124">
        <ele>23.654</ele>
        <time>2021-09-01T12:49:23Z</time>
      </trkpt>
      <trkpt lat="39.442656" lon="3.274119">
        <ele>23.658</ele>
        <time>2021-09-01T12:49:26Z</time>
      </trkpt>
      <trkpt lat="39.442600" lon="3.274112">
        <ele>23.857</ele>
        <time>2021-09-01T12:49:28Z</time>
      </trkpt>
      <trkpt lat="39.442553" lon="3.274111">
        <ele>23.912</ele>
        <time>2021-09-01T12:49:30Z</time>
      </trkpt>
      <trkpt lat="39.442497" lon="3.274097">
        <ele>23.979</ele>
        <time>2021-09-01T12:49:32Z</time>
      </trkpt>
      <trkpt lat="39.442445" lon="3.274092">
        <ele>23.989</ele>
        <time>2021-09-01T12:49:34Z</time>
      </trkpt>
      <trkpt lat="39.442384" lon="3.274087">
        <ele>24.234</ele>
        <time>2021-09-01T12:49:37Z</time>
      </trkpt>
      <trkpt lat="39.442340" lon="3.274102">
        <ele>24.455</ele>
        <time>2021-09-01T12:49:39Z</time>
      </trkpt>
      <trkpt lat="39.442283" lon="3.274134">
        <ele>24.910</ele>
        <time>2021-09-01T12:49:43Z</time>
      </trkpt>
      <trkpt lat="39.442232" lon="3.274143">
        <ele>25.108</ele>
        <time>2021-09-01T12:49:45Z</time>
      </trkpt>
      <trkpt lat="39.442167" lon="3.274138">
        <ele>25.491</ele>
        <time>2021-09-01T12:49:48Z</time>
      </trkpt>
      <trkpt lat="39.442105" lon="3.274155">
        <ele>25.715</ele>
        <time>2021-09-01T12:49:51Z</time>
      </trkpt>
      <trkpt lat="39.442053" lon="3.274180">
        <ele>26.040</ele>
        <time>2021-09-01T12:49:54Z</time>
      </trkpt>
      <trkpt lat="39.442008" lon="3.274179">
        <ele>26.314</ele>
        <time>2021-09-01T12:49:57Z</time>
      </trkpt>
      <trkpt lat="39.441958" lon="3.274158">
        <ele>26.693</ele>
        <time>2021-09-01T12:50:00Z</time>
      </trkpt>
      <trkpt lat="39.441914" lon="3.274106">
        <ele>27.158</ele>
        <time>2021-09-01T12:50:03Z</time>
      </trkpt>
      <trkpt lat="39.441865" lon="3.274050">
        <ele>27.595</ele>
        <time>2021-09-01T12:50:06Z</time>
      </trkpt>
      <trkpt lat="39.441829" lon="3.274009">
        <ele>27.625</ele>
        <time>2021-09-01T12:50:08Z</time>
      </trkpt>
      <trkpt lat="39.441806" lon="3.273928">
        <ele>27.668</ele>
        <time>2021-09-01T12:50:11Z</time>
      </trkpt>
      <trkpt lat="39.441750" lon="3.273904">
        <ele>27.542</ele>
        <time>2021-09-01T12:50:13Z</time>
      </trkpt>
      <trkpt lat="39.441692" lon="3.273879">
        <ele>27.426</ele>
        <time>2021-09-01T12:50:15Z</time>
      </trkpt>
      <trkpt lat="39.441644" lon="3.273847">
        <ele>27.508</ele>
        <time>2021-09-01T12:50:18Z</time>
      </trkpt>
      <trkpt lat="39.441589" lon="3.273831">
        <ele>27.764</ele>
        <time>2021-09-01T12:50:21Z</time>
      </trkpt>
      <trkpt lat="39.441544" lon="3.273848">
        <ele>28.048</ele>
        <time>2021-09-01T12:50:24Z</time>
      </trkpt>
      <trkpt lat="39.441501" lon="3.273879">
        <ele>28.773</ele>
        <time>2021-09-01T12:50:27Z</time>
      </trkpt>
      <trkpt lat="39.441452" lon="3.273879">
        <ele>29.447</ele>
        <time>2021-09-01T12:50:30Z</time>
      </trkpt>
      <trkpt lat="39.441406" lon="3.273859">
        <ele>29.516</ele>
        <time>2021-09-01T12:50:32Z</time>
      </trkpt>
      <trkpt lat="39.441355" lon="3.273868">
        <ele>29.751</ele>
        <time>2021-09-01T12:50:34Z</time>
      </trkpt>
      <trkpt lat="39.441298" lon="3.273895">
        <ele>30.048</ele>
        <time>2021-09-01T12:50:38Z</time>
      </trkpt>
      <trkpt lat="39.441252" lon="3.273888">
        <ele>30.248</ele>
        <time>2021-09-01T12:50:40Z</time>
      </trkpt>
      <trkpt lat="39.441207" lon="3.273893">
        <ele>30.674</ele>
        <time>2021-09-01T12:50:42Z</time>
      </trkpt>
      <trkpt lat="39.441161" lon="3.273910">
        <ele>31.156</ele>
        <time>2021-09-01T12:50:45Z</time>
      </trkpt>
      <trkpt lat="39.441120" lon="3.273849">
        <ele>31.021</ele>
        <time>2021-09-01T12:50:48Z</time>
      </trkpt>
      <trkpt lat="39.441081" lon="3.273806">
        <ele>31.008</ele>
        <time>2021-09-01T12:50:50Z</time>
      </trkpt>
      <trkpt lat="39.441023" lon="3.273811">
        <ele>31.265</ele>
        <time>2021-09-01T12:50:53Z</time>
      </trkpt>
      <trkpt lat="39.440970" lon="3.273801">
        <ele>31.219</ele>
        <time>2021-09-01T12:50:56Z</time>
      </trkpt>
      <trkpt lat="39.440915" lon="3.273791">
        <ele>31.384</ele>
        <time>2021-09-01T12:50:59Z</time>
      </trkpt>
      <trkpt lat="39.440861" lon="3.273758">
        <ele>31.658</ele>
        <time>2021-09-01T12:51:02Z</time>
      </trkpt>
      <trkpt lat="39.440816" lon="3.273769">
        <ele>31.837</ele>
        <time>2021-09-01T12:51:04Z</time>
      </trkpt>
      <trkpt lat="39.440761" lon="3.273777">
        <ele>31.922</ele>
        <time>2021-09-01T12:51:07Z</time>
      </trkpt>
      <trkpt lat="39.440715" lon="3.273780">
        <ele>32.069</ele>
        <time>2021-09-01T12:51:10Z</time>
      </trkpt>
      <trkpt lat="39.440655" lon="3.273796">
        <ele>32.119</ele>
        <time>2021-09-01T12:51:14Z</time>
      </trkpt>
      <trkpt lat="39.440612" lon="3.273848">
        <ele>32.598</ele>
        <time>2021-09-01T12:51:17Z</time>
      </trkpt>
      <trkpt lat="39.440545" lon="3.273858">
        <ele>32.515</ele>
        <time>2021-09-01T12:51:20Z</time>
      </trkpt>
      <trkpt lat="39.440502" lon="3.273896">
        <ele>32.826</ele>
        <time>2021-09-01T12:51:23Z</time>
      </trkpt>
      <trkpt lat="39.440449" lon="3.273914">
        <ele>33.108</ele>
        <time>2021-09-01T12:51:26Z</time>
      </trkpt>
      <trkpt lat="39.440401" lon="3.273906">
        <ele>33.387</ele>
        <time>2021-09-01T12:51:28Z</time>
      </trkpt>
      <trkpt lat="39.440357" lon="3.273925">
        <ele>33.361</ele>
        <time>2021-09-01T12:51:31Z</time>
      </trkpt>
      <trkpt lat="39.440320" lon="3.273978">
        <ele>33.436</ele>
        <time>2021-09-01T12:51:34Z</time>
      </trkpt>
      <trkpt lat="39.440254" lon="3.273949">
        <ele>33.670</ele>
        <time>2021-09-01T12:51:37Z</time>
      </trkpt>
      <trkpt lat="39.440203" lon="3.273936">
        <ele>33.849</ele>
        <time>2021-09-01T12:51:40Z</time>
      </trkpt>
      <trkpt lat="39.440158" lon="3.273916">
        <ele>33.724</ele>
        <time>2021-09-01T12:51:42Z</time>
      </trkpt>
      <trkpt lat="39.440097" lon="3.273897">
        <ele>33.741</ele>
        <time>2021-09-01T12:51:45Z</time>
      </trkpt>
      <trkpt lat="39.440033" lon="3.273879">
        <ele>33.831</ele>
        <time>2021-09-01T12:51:48Z</time>
      </trkpt>
      <trkpt lat="39.439972" lon="3.273856">
        <ele>33.818</ele>
        <time>2021-09-01T12:51:51Z</time>
      </trkpt>
      <trkpt lat="39.439906" lon="3.273826">
        <ele>33.898</ele>
        <time>2021-09-01T12:51:54Z</time>
      </trkpt>
      <trkpt lat="39.439860" lon="3.273811">
        <ele>34.017</ele>
        <time>2021-09-01T12:51:56Z</time>
      </trkpt>
      <trkpt lat="39.439819" lon="3.273786">
        <ele>34.308</ele>
        <time>2021-09-01T12:51:59Z</time>
      </trkpt>
      <trkpt lat="39.439754" lon="3.273751">
        <ele>34.329</ele>
        <time>2021-09-01T12:52:02Z</time>
      </trkpt>
      <trkpt lat="39.439691" lon="3.273741">
        <ele>34.253</ele>
        <time>2021-09-01T12:52:05Z</time>
      </trkpt>
      <trkpt lat="39.439633" lon="3.273729">
        <ele>34.278</ele>
        <time>2021-09-01T12:52:08Z</time>
      </trkpt>
      <trkpt lat="39.439576" lon="3.273708">
        <ele>34.482</ele>
        <time>2021-09-01T12:52:11Z</time>
      </trkpt>
      <trkpt lat="39.439535" lon="3.273660">
        <ele>34.471</ele>
        <time>2021-09-01T12:52:13Z</time>
      </trkpt>
      <trkpt lat="39.439489" lon="3.273646">
        <ele>34.396</ele>
        <time>2021-09-01T12:52:15Z</time>
      </trkpt>
      <trkpt lat="39.439439" lon="3.273638">
        <ele>34.323</ele>
        <time>2021-09-01T12:52:17Z</time>
      </trkpt>
      <trkpt lat="39.439395" lon="3.273618">
        <ele>34.353</ele>
        <time>2021-09-01T12:52:19Z</time>
      </trkpt>
      <trkpt lat="39.439355" lon="3.273581">
        <ele>34.449</ele>
        <time>2021-09-01T12:52:21Z</time>
      </trkpt>
      <trkpt lat="39.439309" lon="3.273555">
        <ele>34.302</ele>
        <time>2021-09-01T12:52:23Z</time>
      </trkpt>
      <trkpt lat="39.439259" lon="3.273579">
        <ele>34.222</ele>
        <time>2021-09-01T12:52:25Z</time>
      </trkpt>
      <trkpt lat="39.439209" lon="3.273567">
        <ele>34.308</ele>
        <time>2021-09-01T12:52:28Z</time>
      </trkpt>
      <trkpt lat="39.439148" lon="3.273578">
        <ele>34.622</ele>
        <time>2021-09-01T12:52:30Z</time>
      </trkpt>
      <trkpt lat="39.439101" lon="3.273615">
        <ele>34.886</ele>
        <time>2021-09-01T12:52:32Z</time>
      </trkpt>
      <trkpt lat="39.439034" lon="3.273614">
        <ele>34.821</ele>
        <time>2021-09-01T12:52:35Z</time>
      </trkpt>
      <trkpt lat="39.438980" lon="3.273601">
        <ele>34.715</ele>
        <time>2021-09-01T12:52:37Z</time>
      </trkpt>
      <trkpt lat="39.438951" lon="3.273653">
        <ele>34.714</ele>
        <time>2021-09-01T12:52:39Z</time>
      </trkpt>
      <trkpt lat="39.438901" lon="3.273624">
        <ele>34.819</ele>
        <time>2021-09-01T12:52:42Z</time>
      </trkpt>
      <trkpt lat="39.438838" lon="3.273582">
        <ele>35.066</ele>
        <time>2021-09-01T12:52:46Z</time>
      </trkpt>
      <trkpt lat="39.438788" lon="3.273604">
        <ele>34.946</ele>
        <time>2021-09-01T12:52:49Z</time>
      </trkpt>
      <trkpt lat="39.438734" lon="3.273588">
        <ele>34.917</ele>
        <time>2021-09-01T12:52:52Z</time>
      </trkpt>
      <trkpt lat="39.438676" lon="3.273546">
        <ele>34.887</ele>
        <time>2021-09-01T12:52:55Z</time>
      </trkpt>
      <trkpt lat="39.438623" lon="3.273558">
        <ele>34.815</ele>
        <time>2021-09-01T12:52:57Z</time>
      </trkpt>
      <trkpt lat="39.438572" lon="3.273535">
        <ele>34.708</ele>
        <time>2021-09-01T12:52:59Z</time>
      </trkpt>
      <trkpt lat="39.438517" lon="3.273550">
        <ele>34.899</ele>
        <time>2021-09-01T12:53:01Z</time>
      </trkpt>
      <trkpt lat="39.438461" lon="3.273553">
        <ele>34.743</ele>
        <time>2021-09-01T12:53:03Z</time>
      </trkpt>
      <trkpt lat="39.438408" lon="3.273538">
        <ele>34.728</ele>
        <time>2021-09-01T12:53:05Z</time>
      </trkpt>
      <trkpt lat="39.438354" lon="3.273515">
        <ele>34.742</ele>
        <time>2021-09-01T12:53:07Z</time>
      </trkpt>
      <trkpt lat="39.438293" lon="3.273537">
        <ele>34.731</ele>
        <time>2021-09-01T12:53:10Z</time>
      </trkpt>
      <trkpt lat="39.438248" lon="3.273547">
        <ele>34.446</ele>
        <time>2021-09-01T12:53:13Z</time>
      </trkpt>
      <trkpt lat="39.438201" lon="3.273532">
        <ele>34.433</ele>
        <time>2021-09-01T12:53:16Z</time>
      </trkpt>
      <trkpt lat="39.438149" lon="3.273514">
        <ele>34.523</ele>
        <time>2021-09-01T12:53:18Z</time>
      </trkpt>
      <trkpt lat="39.438094" lon="3.273497">
        <ele>34.531</ele>
        <time>2021-09-01T12:53:20Z</time>
      </trkpt>
      <trkpt lat="39.438046" lon="3.273495">
        <ele>34.561</ele>
        <time>2021-09-01T12:53:21Z</time>
      </trkpt>
      <trkpt lat="39.438012" lon="3.273534">
        <ele>34.607</ele>
        <time>2021-09-01T12:53:24Z</time>
      </trkpt>
      <trkpt lat="39.437944" lon="3.273521">
        <ele>34.608</ele>
        <time>2021-09-01T12:53:27Z</time>
      </trkpt>
      <trkpt lat="39.437882" lon="3.273484">
        <ele>34.171</ele>
        <time>2021-09-01T12:53:30Z</time>
      </trkpt>
      <trkpt lat="39.437826" lon="3.273462">
        <ele>34.185</ele>
        <time>2021-09-01T12:53:32Z</time>
      </trkpt>
      <trkpt lat="39.437773" lon="3.273489">
        <ele>34.180</ele>
        <time>2021-09-01T12:53:33Z</time>
      </trkpt>
      <trkpt lat="39.437729" lon="3.273476">
        <ele>34.184</ele>
        <time>2021-09-01T12:53:36Z</time>
      </trkpt>
      <trkpt lat="39.437690" lon="3.273412">
        <ele>33.933</ele>
        <time>2021-09-01T12:53:37Z</time>
      </trkpt>
      <trkpt lat="39.437618" lon="3.273402">
        <ele>33.678</ele>
        <time>2021-09-01T12:53:41Z</time>
      </trkpt>
      <trkpt lat="39.437573" lon="3.273396">
        <ele>33.675</ele>
        <time>2021-09-01T12:53:43Z</time>
      </trkpt>
      <trkpt lat="39.437523" lon="3.273401">
        <ele>33.685</ele>
        <time>2021-09-01T12:53:45Z</time>
      </trkpt>
      <trkpt lat="39.437477" lon="3.273407">
        <ele>33.612</ele>
        <time>2021-09-01T12:53:47Z</time>
      </trkpt>
      <trkpt lat="39.437425" lon="3.273403">
        <ele>33.732</ele>
        <time>2021-09-01T12:53:49Z</time>
      </trkpt>
      <trkpt lat="39.437376" lon="3.273394">
        <ele>33.605</ele>
        <time>2021-09-01T12:53:51Z</time>
      </trkpt>
      <trkpt lat="39.437313" lon="3.273371">
        <ele>33.508</ele>
        <time>2021-09-01T12:53:54Z</time>
      </trkpt>
      <trkpt lat="39.437273" lon="3.273331">
        <ele>33.589</ele>
        <time>2021-09-01T12:53:56Z</time>
      </trkpt>
      <trkpt lat="39.437214" lon="3.273330">
        <ele>33.553</ele>
        <time>2021-09-01T12:53:58Z</time>
      </trkpt>
      <trkpt lat="39.437156" lon="3.273335">
        <ele>33.558</ele>
        <time>2021-09-01T12:54:00Z</time>
      </trkpt>
      <trkpt lat="39.437108" lon="3.273327">
        <ele>33.412</ele>
        <time>2021-09-01T12:54:02Z</time>
      </trkpt>
      <trkpt lat="39.437060" lon="3.273294">
        <ele>33.331</ele>
        <time>2021-09-01T12:54:04Z</time>
      </trkpt>
      <trkpt lat="39.437029" lon="3.273229">
        <ele>33.056</ele>
        <time>2021-09-01T12:54:07Z</time>
      </trkpt>
      <trkpt lat="39.436991" lon="3.273161">
        <ele>32.933</ele>
        <time>2021-09-01T12:54:11Z</time>
      </trkpt>
      <trkpt lat="39.436953" lon="3.273099">
        <ele>33.033</ele>
        <time>2021-09-01T12:54:13Z</time>
      </trkpt>
      <trkpt lat="39.436913" lon="3.273069">
        <ele>33.042</ele>
        <time>2021-09-01T12:54:15Z</time>
      </trkpt>
      <trkpt lat="39.436871" lon="3.273048">
        <ele>33.122</ele>
        <time>2021-09-01T12:54:17Z</time>
      </trkpt>
      <trkpt lat="39.436822" lon="3.273014">
        <ele>33.114</ele>
        <time>2021-09-01T12:54:19Z</time>
      </trkpt>
      <trkpt lat="39.436785" lon="3.272973">
        <ele>32.908</ele>
        <time>2021-09-01T12:54:21Z</time>
      </trkpt>
      <trkpt lat="39.436741" lon="3.272939">
        <ele>32.512</ele>
        <time>2021-09-01T12:54:23Z</time>
      </trkpt>
      <trkpt lat="39.436684" lon="3.272924">
        <ele>32.476</ele>
        <time>2021-09-01T12:54:25Z</time>
      </trkpt>
      <trkpt lat="39.436630" lon="3.272905">
        <ele>32.311</ele>
        <time>2021-09-01T12:54:27Z</time>
      </trkpt>
      <trkpt lat="39.436556" lon="3.272891">
        <ele>32.195</ele>
        <time>2021-09-01T12:54:30Z</time>
      </trkpt>
      <trkpt lat="39.436503" lon="3.272867">
        <ele>31.934</ele>
        <time>2021-09-01T12:54:32Z</time>
      </trkpt>
      <trkpt lat="39.436467" lon="3.272802">
        <ele>32.089</ele>
        <time>2021-09-01T12:54:34Z</time>
      </trkpt>
      <trkpt lat="39.436450" lon="3.272742">
        <ele>32.116</ele>
        <time>2021-09-01T12:54:36Z</time>
      </trkpt>
      <trkpt lat="39.436411" lon="3.272679">
        <ele>32.036</ele>
        <time>2021-09-01T12:54:39Z</time>
      </trkpt>
      <trkpt lat="39.436383" lon="3.272611">
        <ele>32.017</ele>
        <time>2021-09-01T12:54:41Z</time>
      </trkpt>
      <trkpt lat="39.436358" lon="3.272541">
        <ele>32.387</ele>
        <time>2021-09-01T12:54:43Z</time>
      </trkpt>
      <trkpt lat="39.436306" lon="3.272491">
        <ele>32.415</ele>
        <time>2021-09-01T12:54:45Z</time>
      </trkpt>
      <trkpt lat="39.436263" lon="3.272460">
        <ele>32.308</ele>
        <time>2021-09-01T12:54:47Z</time>
      </trkpt>
      <trkpt lat="39.436260" lon="3.272395">
        <ele>31.849</ele>
        <time>2021-09-01T12:54:49Z</time>
      </trkpt>
      <trkpt lat="39.436213" lon="3.272360">
        <ele>31.623</ele>
        <time>2021-09-01T12:54:51Z</time>
      </trkpt>
      <trkpt lat="39.436185" lon="3.272301">
        <ele>31.378</ele>
        <time>2021-09-01T12:54:54Z</time>
      </trkpt>
      <trkpt lat="39.436139" lon="3.272284">
        <ele>31.132</ele>
        <time>2021-09-01T12:54:56Z</time>
      </trkpt>
      <trkpt lat="39.436089" lon="3.272262">
        <ele>30.971</ele>
        <time>2021-09-01T12:54:58Z</time>
      </trkpt>
      <trkpt lat="39.436026" lon="3.272234">
        <ele>30.976</ele>
        <time>2021-09-01T12:55:01Z</time>
      </trkpt>
      <trkpt lat="39.435980" lon="3.272251">
        <ele>30.963</ele>
        <time>2021-09-01T12:55:03Z</time>
      </trkpt>
      <trkpt lat="39.435915" lon="3.272230">
        <ele>30.663</ele>
        <time>2021-09-01T12:55:06Z</time>
      </trkpt>
      <trkpt lat="39.435861" lon="3.272193">
        <ele>30.432</ele>
        <time>2021-09-01T12:55:09Z</time>
      </trkpt>
      <trkpt lat="39.435815" lon="3.272140">
        <ele>30.392</ele>
        <time>2021-09-01T12:55:12Z</time>
      </trkpt>
      <trkpt lat="39.435764" lon="3.272124">
        <ele>30.211</ele>
        <time>2021-09-01T12:55:14Z</time>
      </trkpt>
      <trkpt lat="39.435717" lon="3.272116">
        <ele>30.108</ele>
        <time>2021-09-01T12:55:16Z</time>
      </trkpt>
      <trkpt lat="39.435671" lon="3.272092">
        <ele>30.021</ele>
        <time>2021-09-01T12:55:18Z</time>
      </trkpt>
      <trkpt lat="39.435624" lon="3.272061">
        <ele>29.875</ele>
        <time>2021-09-01T12:55:21Z</time>
      </trkpt>
      <trkpt lat="39.435576" lon="3.272052">
        <ele>29.780</ele>
        <time>2021-09-01T12:55:23Z</time>
      </trkpt>
      <trkpt lat="39.435524" lon="3.272045">
        <ele>29.774</ele>
        <time>2021-09-01T12:55:25Z</time>
      </trkpt>
      <trkpt lat="39.435478" lon="3.272038">
        <ele>29.743</ele>
        <time>2021-09-01T12:55:27Z</time>
      </trkpt>
      <trkpt lat="39.435428" lon="3.272040">
        <ele>29.718</ele>
        <time>2021-09-01T12:55:28Z</time>
      </trkpt>
      <trkpt lat="39.435389" lon="3.272007">
        <ele>29.595</ele>
        <time>2021-09-01T12:55:30Z</time>
      </trkpt>
      <trkpt lat="39.435330" lon="3.271996">
        <ele>29.265</ele>
        <time>2021-09-01T12:55:33Z</time>
      </trkpt>
      <trkpt lat="39.435285" lon="3.271973">
        <ele>29.099</ele>
        <time>2021-09-01T12:55:35Z</time>
      </trkpt>
      <trkpt lat="39.435237" lon="3.271948">
        <ele>28.907</ele>
        <time>2021-09-01T12:55:38Z</time>
      </trkpt>
      <trkpt lat="39.435178" lon="3.271953">
        <ele>28.727</ele>
        <time>2021-09-01T12:55:41Z</time>
      </trkpt>
      <trkpt lat="39.435129" lon="3.271947">
        <ele>28.508</ele>
        <time>2021-09-01T12:55:43Z</time>
      </trkpt>
      <trkpt lat="39.435084" lon="3.271947">
        <ele>28.517</ele>
        <time>2021-09-01T12:55:45Z</time>
      </trkpt>
      <trkpt lat="39.435021" lon="3.271950">
        <ele>28.511</ele>
        <time>2021-09-01T12:55:48Z</time>
      </trkpt>
      <trkpt lat="39.434961" lon="3.271930">
        <ele>28.526</ele>
        <time>2021-09-01T12:55:50Z</time>
      </trkpt>
      <trkpt lat="39.434905" lon="3.271932">
        <ele>28.480</ele>
        <time>2021-09-01T12:55:52Z</time>
      </trkpt>
      <trkpt lat="39.434849" lon="3.271940">
        <ele>28.569</ele>
        <time>2021-09-01T12:55:54Z</time>
      </trkpt>
      <trkpt lat="39.434803" lon="3.271928">
        <ele>28.484</ele>
        <time>2021-09-01T12:55:56Z</time>
      </trkpt>
      <trkpt lat="39.434749" lon="3.271936">
        <ele>28.451</ele>
        <time>2021-09-01T12:55:58Z</time>
      </trkpt>
      <trkpt lat="39.434690" lon="3.271958">
        <ele>28.291</ele>
        <time>2021-09-01T12:56:00Z</time>
      </trkpt>
      <trkpt lat="39.434632" lon="3.271965">
        <ele>28.299</ele>
        <time>2021-09-01T12:56:03Z</time>
      </trkpt>
      <trkpt lat="39.434570" lon="3.271969">
        <ele>28.107</ele>
        <time>2021-09-01T12:56:05Z</time>
      </trkpt>
      <trkpt lat="39.434502" lon="3.271942">
        <ele>28.227</ele>
        <time>2021-09-01T12:56:07Z</time>
      </trkpt>
      <trkpt lat="39.434449" lon="3.271900">
        <ele>28.208</ele>
        <time>2021-09-01T12:56:09Z</time>
      </trkpt>
      <trkpt lat="39.434422" lon="3.271850">
        <ele>28.077</ele>
        <time>2021-09-01T12:56:12Z</time>
      </trkpt>
      <trkpt lat="39.434384" lon="3.271814">
        <ele>27.921</ele>
        <time>2021-09-01T12:56:14Z</time>
      </trkpt>
      <trkpt lat="39.434327" lon="3.271788">
        <ele>27.896</ele>
        <time>2021-09-01T12:56:16Z</time>
      </trkpt>
      <trkpt lat="39.434266" lon="3.271786">
        <ele>27.970</ele>
        <time>2021-09-01T12:56:18Z</time>
      </trkpt>
      <trkpt lat="39.434220" lon="3.271754">
        <ele>27.989</ele>
        <time>2021-09-01T12:56:20Z</time>
      </trkpt>
      <trkpt lat="39.434166" lon="3.271722">
        <ele>28.094</ele>
        <time>2021-09-01T12:56:23Z</time>
      </trkpt>
      <trkpt lat="39.434108" lon="3.271723">
        <ele>28.121</ele>
        <time>2021-09-01T12:56:25Z</time>
      </trkpt>
      <trkpt lat="39.434066" lon="3.271701">
        <ele>28.021</ele>
        <time>2021-09-01T12:56:27Z</time>
      </trkpt>
      <trkpt lat="39.434012" lon="3.271699">
        <ele>28.085</ele>
        <time>2021-09-01T12:56:29Z</time>
      </trkpt>
      <trkpt lat="39.433954" lon="3.271674">
        <ele>28.089</ele>
        <time>2021-09-01T12:56:32Z</time>
      </trkpt>
      <trkpt lat="39.433892" lon="3.271636">
        <ele>27.917</ele>
        <time>2021-09-01T12:56:35Z</time>
      </trkpt>
      <trkpt lat="39.433841" lon="3.271600">
        <ele>27.808</ele>
        <time>2021-09-01T12:56:37Z</time>
      </trkpt>
      <trkpt lat="39.433786" lon="3.271597">
        <ele>27.826</ele>
        <time>2021-09-01T12:56:39Z</time>
      </trkpt>
      <trkpt lat="39.433737" lon="3.271572">
        <ele>27.610</ele>
        <time>2021-09-01T12:56:41Z</time>
      </trkpt>
      <trkpt lat="39.433678" lon="3.271547">
        <ele>27.415</ele>
        <time>2021-09-01T12:56:44Z</time>
      </trkpt>
      <trkpt lat="39.433628" lon="3.271524">
        <ele>27.429</ele>
        <time>2021-09-01T12:56:46Z</time>
      </trkpt>
      <trkpt lat="39.433577" lon="3.271491">
        <ele>27.318</ele>
        <time>2021-09-01T12:56:48Z</time>
      </trkpt>
      <trkpt lat="39.433528" lon="3.271455">
        <ele>27.313</ele>
        <time>2021-09-01T12:56:50Z</time>
      </trkpt>
      <trkpt lat="39.433465" lon="3.271454">
        <ele>27.210</ele>
        <time>2021-09-01T12:56:52Z</time>
      </trkpt>
      <trkpt lat="39.433405" lon="3.271483">
        <ele>27.160</ele>
        <time>2021-09-01T12:56:54Z</time>
      </trkpt>
      <trkpt lat="39.433380" lon="3.271534">
        <ele>27.149</ele>
        <time>2021-09-01T12:56:56Z</time>
      </trkpt>
      <trkpt lat="39.433346" lon="3.271578">
        <ele>27.302</ele>
        <time>2021-09-01T12:57:00Z</time>
      </trkpt>
      <trkpt lat="39.433298" lon="3.271630">
        <ele>27.522</ele>
        <time>2021-09-01T12:57:03Z</time>
      </trkpt>
      <trkpt lat="39.433245" lon="3.271642">
        <ele>27.708</ele>
        <time>2021-09-01T12:57:05Z</time>
      </trkpt>
      <trkpt lat="39.433211" lon="3.271683">
        <ele>28.032</ele>
        <time>2021-09-01T12:57:07Z</time>
      </trkpt>
      <trkpt lat="39.433140" lon="3.271738">
        <ele>28.086</ele>
        <time>2021-09-01T12:57:10Z</time>
      </trkpt>
      <trkpt lat="39.433083" lon="3.271777">
        <ele>27.791</ele>
        <time>2021-09-01T12:57:12Z</time>
      </trkpt>
      <trkpt lat="39.433031" lon="3.271805">
        <ele>27.635</ele>
        <time>2021-09-01T12:57:14Z</time>
      </trkpt>
      <trkpt lat="39.432975" lon="3.271805">
        <ele>27.514</ele>
        <time>2021-09-01T12:57:16Z</time>
      </trkpt>
      <trkpt lat="39.432923" lon="3.271810">
        <ele>27.449</ele>
        <time>2021-09-01T12:57:18Z</time>
      </trkpt>
      <trkpt lat="39.432869" lon="3.271809">
        <ele>27.236</ele>
        <time>2021-09-01T12:57:21Z</time>
      </trkpt>
      <trkpt lat="39.432816" lon="3.271825">
        <ele>27.096</ele>
        <time>2021-09-01T12:57:24Z</time>
      </trkpt>
      <trkpt lat="39.432753" lon="3.271833">
        <ele>27.026</ele>
        <time>2021-09-01T12:57:27Z</time>
      </trkpt>
      <trkpt lat="39.432691" lon="3.271841">
        <ele>26.647</ele>
        <time>2021-09-01T12:57:30Z</time>
      </trkpt>
      <trkpt lat="39.432639" lon="3.271852">
        <ele>26.511</ele>
        <time>2021-09-01T12:57:32Z</time>
      </trkpt>
      <trkpt lat="39.432592" lon="3.271867">
        <ele>26.408</ele>
        <time>2021-09-01T12:57:33Z</time>
      </trkpt>
      <trkpt lat="39.432541" lon="3.271893">
        <ele>26.580</ele>
        <time>2021-09-01T12:57:35Z</time>
      </trkpt>
      <trkpt lat="39.432491" lon="3.271930">
        <ele>26.474</ele>
        <time>2021-09-01T12:57:37Z</time>
      </trkpt>
      <trkpt lat="39.432443" lon="3.271967">
        <ele>26.419</ele>
        <time>2021-09-01T12:57:39Z</time>
      </trkpt>
      <trkpt lat="39.432408" lon="3.272029">
        <ele>26.253</ele>
        <time>2021-09-01T12:57:42Z</time>
      </trkpt>
      <trkpt lat="39.432344" lon="3.272030">
        <ele>26.142</ele>
        <time>2021-09-01T12:57:44Z</time>
      </trkpt>
      <trkpt lat="39.432279" lon="3.272013">
        <ele>25.897</ele>
        <time>2021-09-01T12:57:47Z</time>
      </trkpt>
      <trkpt lat="39.432232" lon="3.271992">
        <ele>25.844</ele>
        <time>2021-09-01T12:57:49Z</time>
      </trkpt>
      <trkpt lat="39.432175" lon="3.271959">
        <ele>25.624</ele>
        <time>2021-09-01T12:57:52Z</time>
      </trkpt>
      <trkpt lat="39.432122" lon="3.271938">
        <ele>25.123</ele>
        <time>2021-09-01T12:57:55Z</time>
      </trkpt>
      <trkpt lat="39.432082" lon="3.271885">
        <ele>24.883</ele>
        <time>2021-09-01T12:57:58Z</time>
      </trkpt>
      <trkpt lat="39.432044" lon="3.271855">
        <ele>24.511</ele>
        <time>2021-09-01T12:58:01Z</time>
      </trkpt>
      <trkpt lat="39.432017" lon="3.271805">
        <ele>24.208</ele>
        <time>2021-09-01T12:58:05Z</time>
      </trkpt>
      <trkpt lat="39.431989" lon="3.271746">
        <ele>23.820</ele>
        <time>2021-09-01T12:58:09Z</time>
      </trkpt>
      <trkpt lat="39.431953" lon="3.271694">
        <ele>23.514</ele>
        <time>2021-09-01T12:58:12Z</time>
      </trkpt>
      <trkpt lat="39.431914" lon="3.271639">
        <ele>23.049</ele>
        <time>2021-09-01T12:58:16Z</time>
      </trkpt>
      <trkpt lat="39.431873" lon="3.271592">
        <ele>22.343</ele>
        <time>2021-09-01T12:58:19Z</time>
      </trkpt>
      <trkpt lat="39.431817" lon="3.271552">
        <ele>21.882</ele>
        <time>2021-09-01T12:58:22Z</time>
      </trkpt>
      <trkpt lat="39.431779" lon="3.271512">
        <ele>21.677</ele>
        <time>2021-09-01T12:58:24Z</time>
      </trkpt>
      <trkpt lat="39.431731" lon="3.271469">
        <ele>21.084</ele>
        <time>2021-09-01T12:58:27Z</time>
      </trkpt>
      <trkpt lat="39.431693" lon="3.271413">
        <ele>20.714</ele>
        <time>2021-09-01T12:58:30Z</time>
      </trkpt>
      <trkpt lat="39.431639" lon="3.271390">
        <ele>20.572</ele>
        <time>2021-09-01T12:58:32Z</time>
      </trkpt>
      <trkpt lat="39.431590" lon="3.271362">
        <ele>20.213</ele>
        <time>2021-09-01T12:58:34Z</time>
      </trkpt>
      <trkpt lat="39.431545" lon="3.271373">
        <ele>20.214</ele>
        <time>2021-09-01T12:58:36Z</time>
      </trkpt>
      <trkpt lat="39.431508" lon="3.271407">
        <ele>20.208</ele>
        <time>2021-09-01T12:58:38Z</time>
      </trkpt>
      <trkpt lat="39.431470" lon="3.271444">
        <ele>20.275</ele>
        <time>2021-09-01T12:58:40Z</time>
      </trkpt>
      <trkpt lat="39.431436" lon="3.271487">
        <ele>20.179</ele>
        <time>2021-09-01T12:58:42Z</time>
      </trkpt>
      <trkpt lat="39.431373" lon="3.271511">
        <ele>19.974</ele>
        <time>2021-09-01T12:58:45Z</time>
      </trkpt>
      <trkpt lat="39.431328" lon="3.271544">
        <ele>19.988</ele>
        <time>2021-09-01T12:58:47Z</time>
      </trkpt>
      <trkpt lat="39.431285" lon="3.271584">
        <ele>19.977</ele>
        <time>2021-09-01T12:58:49Z</time>
      </trkpt>
      <trkpt lat="39.431233" lon="3.271625">
        <ele>20.082</ele>
        <time>2021-09-01T12:58:51Z</time>
      </trkpt>
      <trkpt lat="39.431173" lon="3.271665">
        <ele>20.089</ele>
        <time>2021-09-01T12:58:53Z</time>
      </trkpt>
      <trkpt lat="39.431109" lon="3.271688">
        <ele>20.139</ele>
        <time>2021-09-01T12:58:55Z</time>
      </trkpt>
      <trkpt lat="39.431042" lon="3.271727">
        <ele>20.124</ele>
        <time>2021-09-01T12:58:57Z</time>
      </trkpt>
      <trkpt lat="39.430988" lon="3.271752">
        <ele>20.004</ele>
        <time>2021-09-01T12:58:59Z</time>
      </trkpt>
      <trkpt lat="39.430931" lon="3.271785">
        <ele>20.014</ele>
        <time>2021-09-01T12:59:01Z</time>
      </trkpt>
      <trkpt lat="39.430878" lon="3.271821">
        <ele>20.208</ele>
        <time>2021-09-01T12:59:03Z</time>
      </trkpt>
      <trkpt lat="39.430818" lon="3.271858">
        <ele>20.470</ele>
        <time>2021-09-01T12:59:05Z</time>
      </trkpt>
      <trkpt lat="39.430791" lon="3.271911">
        <ele>20.784</ele>
        <time>2021-09-01T12:59:07Z</time>
      </trkpt>
      <trkpt lat="39.430737" lon="3.271914">
        <ele>20.799</ele>
        <time>2021-09-01T12:59:09Z</time>
      </trkpt>
      <trkpt lat="39.430690" lon="3.271940">
        <ele>20.783</ele>
        <time>2021-09-01T12:59:11Z</time>
      </trkpt>
      <trkpt lat="39.430644" lon="3.271970">
        <ele>20.442</ele>
        <time>2021-09-01T12:59:13Z</time>
      </trkpt>
      <trkpt lat="39.430590" lon="3.271978">
        <ele>20.397</ele>
        <time>2021-09-01T12:59:15Z</time>
      </trkpt>
      <trkpt lat="39.430538" lon="3.272008">
        <ele>20.234</ele>
        <time>2021-09-01T12:59:17Z</time>
      </trkpt>
      <trkpt lat="39.430495" lon="3.272055">
        <ele>20.224</ele>
        <time>2021-09-01T12:59:19Z</time>
      </trkpt>
      <trkpt lat="39.430441" lon="3.272071">
        <ele>20.144</ele>
        <time>2021-09-01T12:59:21Z</time>
      </trkpt>
      <trkpt lat="39.430397" lon="3.272117">
        <ele>20.005</ele>
        <time>2021-09-01T12:59:23Z</time>
      </trkpt>
      <trkpt lat="39.430355" lon="3.272139">
        <ele>19.915</ele>
        <time>2021-09-01T12:59:25Z</time>
      </trkpt>
      <trkpt lat="39.430303" lon="3.272121">
        <ele>19.708</ele>
        <time>2021-09-01T12:59:27Z</time>
      </trkpt>
      <trkpt lat="39.430254" lon="3.272127">
        <ele>19.682</ele>
        <time>2021-09-01T12:59:29Z</time>
      </trkpt>
      <trkpt lat="39.430197" lon="3.272122">
        <ele>19.456</ele>
        <time>2021-09-01T12:59:31Z</time>
      </trkpt>
      <trkpt lat="39.430141" lon="3.272108">
        <ele>19.221</ele>
        <time>2021-09-01T12:59:33Z</time>
      </trkpt>
      <trkpt lat="39.430096" lon="3.272105">
        <ele>19.225</ele>
        <time>2021-09-01T12:59:35Z</time>
      </trkpt>
      <trkpt lat="39.430039" lon="3.272082">
        <ele>19.154</ele>
        <time>2021-09-01T12:59:38Z</time>
      </trkpt>
      <trkpt lat="39.429989" lon="3.272098">
        <ele>19.089</ele>
        <time>2021-09-01T12:59:39Z</time>
      </trkpt>
      <trkpt lat="39.429941" lon="3.272109">
        <ele>18.716</ele>
        <time>2021-09-01T12:59:41Z</time>
      </trkpt>
      <trkpt lat="39.429893" lon="3.272116">
        <ele>18.596</ele>
        <time>2021-09-01T12:59:43Z</time>
      </trkpt>
      <trkpt lat="39.429830" lon="3.272123">
        <ele>17.887</ele>
        <time>2021-09-01T12:59:46Z</time>
      </trkpt>
      <trkpt lat="39.429776" lon="3.272124">
        <ele>17.142</ele>
        <time>2021-09-01T12:59:49Z</time>
      </trkpt>
      <trkpt lat="39.429723" lon="3.272127">
        <ele>16.826</ele>
        <time>2021-09-01T12:59:52Z</time>
      </trkpt>
      <trkpt lat="39.429669" lon="3.272110">
        <ele>16.608</ele>
        <time>2021-09-01T12:59:55Z</time>
      </trkpt>
      <trkpt lat="39.429610" lon="3.272091">
        <ele>16.396</ele>
        <time>2021-09-01T12:59:58Z</time>
      </trkpt>
      <trkpt lat="39.429547" lon="3.272087">
        <ele>16.460</ele>
        <time>2021-09-01T13:00:01Z</time>
      </trkpt>
      <trkpt lat="39.429507" lon="3.272126">
        <ele>16.595</ele>
        <time>2021-09-01T13:00:04Z</time>
      </trkpt>
      <trkpt lat="39.429459" lon="3.272119">
        <ele>16.229</ele>
        <time>2021-09-01T13:00:09Z</time>
      </trkpt>
      <trkpt lat="39.429473" lon="3.272189">
        <ele>15.838</ele>
        <time>2021-09-01T13:00:49Z</time>
      </trkpt>
      <trkpt lat="39.429485" lon="3.272248">
        <ele>16.223</ele>
        <time>2021-09-01T13:00:52Z</time>
      </trkpt>
      <trkpt lat="39.429457" lon="3.272307">
        <ele>16.330</ele>
        <time>2021-09-01T13:00:55Z</time>
      </trkpt>
      <trkpt lat="39.429452" lon="3.272377">
        <ele>15.820</ele>
        <time>2021-09-01T13:00:58Z</time>
      </trkpt>
      <trkpt lat="39.429474" lon="3.272439">
        <ele>15.699</ele>
        <time>2021-09-01T13:01:01Z</time>
      </trkpt>
      <trkpt lat="39.429443" lon="3.272515">
        <ele>15.307</ele>
        <time>2021-09-01T13:01:04Z</time>
      </trkpt>
      <trkpt lat="39.429410" lon="3.272564">
        <ele>14.727</ele>
        <time>2021-09-01T13:01:07Z</time>
      </trkpt>
      <trkpt lat="39.429347" lon="3.272581">
        <ele>13.708</ele>
        <time>2021-09-01T13:01:30Z</time>
      </trkpt>
      <trkpt lat="39.429324" lon="3.272510">
        <ele>12.677</ele>
        <time>2021-09-01T13:04:07Z</time>
      </trkpt>
      <trkpt lat="39.429274" lon="3.272485">
        <ele>12.921</ele>
        <time>2021-09-01T13:04:11Z</time>
      </trkpt>
      <trkpt lat="39.429218" lon="3.272486">
        <ele>12.936</ele>
        <time>2021-09-01T13:04:14Z</time>
      </trkpt>
      <trkpt lat="39.429169" lon="3.272487">
        <ele>12.880</ele>
        <time>2021-09-01T13:04:16Z</time>
      </trkpt>
      <trkpt lat="39.429122" lon="3.272479">
        <ele>12.969</ele>
        <time>2021-09-01T13:04:18Z</time>
      </trkpt>
      <trkpt lat="39.429076" lon="3.272456">
        <ele>13.374</ele>
        <time>2021-09-01T13:04:20Z</time>
      </trkpt>
      <trkpt lat="39.429020" lon="3.272417">
        <ele>13.461</ele>
        <time>2021-09-01T13:04:23Z</time>
      </trkpt>
      <trkpt lat="39.428974" lon="3.272420">
        <ele>13.331</ele>
        <time>2021-09-01T13:04:27Z</time>
      </trkpt>
      <trkpt lat="39.428908" lon="3.272430">
        <ele>13.949</ele>
        <time>2021-09-01T13:04:30Z</time>
      </trkpt>
      <trkpt lat="39.428865" lon="3.272411">
        <ele>13.802</ele>
        <time>2021-09-01T13:04:32Z</time>
      </trkpt>
      <trkpt lat="39.428816" lon="3.272406">
        <ele>13.522</ele>
        <time>2021-09-01T13:04:34Z</time>
      </trkpt>
      <trkpt lat="39.428760" lon="3.272378">
        <ele>13.608</ele>
        <time>2021-09-01T13:04:37Z</time>
      </trkpt>
      <trkpt lat="39.428759" lon="3.272310">
        <ele>12.532</ele>
        <time>2021-09-01T13:04:40Z</time>
      </trkpt>
      <trkpt lat="39.428809" lon="3.272300">
        <ele>12.376</ele>
        <time>2021-09-01T13:04:42Z</time>
      </trkpt>
      <trkpt lat="39.428871" lon="3.272306">
        <ele>12.711</ele>
        <time>2021-09-01T13:04:44Z</time>
      </trkpt>
      <trkpt lat="39.428932" lon="3.272287">
        <ele>13.485</ele>
        <time>2021-09-01T13:04:46Z</time>
      </trkpt>
      <trkpt lat="39.428996" lon="3.272262">
        <ele>14.064</ele>
        <time>2021-09-01T13:04:48Z</time>
      </trkpt>
      <trkpt lat="39.429060" lon="3.272229">
        <ele>14.829</ele>
        <time>2021-09-01T13:04:50Z</time>
      </trkpt>
      <trkpt lat="39.429113" lon="3.272177">
        <ele>15.456</ele>
        <time>2021-09-01T13:04:52Z</time>
      </trkpt>
      <trkpt lat="39.429146" lon="3.272114">
        <ele>15.486</ele>
        <time>2021-09-01T13:04:54Z</time>
      </trkpt>
      <trkpt lat="39.429182" lon="3.272067">
        <ele>14.878</ele>
        <time>2021-09-01T13:04:56Z</time>
      </trkpt>
      <trkpt lat="39.429225" lon="3.272016">
        <ele>14.433</ele>
        <time>2021-09-01T13:04:58Z</time>
      </trkpt>
      <trkpt lat="39.429261" lon="3.271950">
        <ele>14.326</ele>
        <time>2021-09-01T13:05:00Z</time>
      </trkpt>
      <trkpt lat="39.429284" lon="3.271876">
        <ele>14.408</ele>
        <time>2021-09-01T13:05:02Z</time>
      </trkpt>
      <trkpt lat="39.429310" lon="3.271788">
        <ele>14.615</ele>
        <time>2021-09-01T13:05:04Z</time>
      </trkpt>
      <trkpt lat="39.429298" lon="3.271715">
        <ele>14.969</ele>
        <time>2021-09-01T13:05:06Z</time>
      </trkpt>
      <trkpt lat="39.429273" lon="3.271643">
        <ele>15.194</ele>
        <time>2021-09-01T13:05:08Z</time>
      </trkpt>
      <trkpt lat="39.429263" lon="3.271551">
        <ele>15.338</ele>
        <time>2021-09-01T13:05:10Z</time>
      </trkpt>
      <trkpt lat="39.429273" lon="3.271462">
        <ele>15.677</ele>
        <time>2021-09-01T13:05:12Z</time>
      </trkpt>
      <trkpt lat="39.429279" lon="3.271372">
        <ele>15.962</ele>
        <time>2021-09-01T13:05:14Z</time>
      </trkpt>
      <trkpt lat="39.429274" lon="3.271287">
        <ele>15.949</ele>
        <time>2021-09-01T13:05:16Z</time>
      </trkpt>
      <trkpt lat="39.429274" lon="3.271195">
        <ele>16.099</ele>
        <time>2021-09-01T13:05:18Z</time>
      </trkpt>
      <trkpt lat="39.429278" lon="3.271099">
        <ele>16.288</ele>
        <time>2021-09-01T13:05:20Z</time>
      </trkpt>
      <trkpt lat="39.429259" lon="3.271014">
        <ele>16.324</ele>
        <time>2021-09-01T13:05:22Z</time>
      </trkpt>
      <trkpt lat="39.429260" lon="3.270927">
        <ele>16.326</ele>
        <time>2021-09-01T13:05:24Z</time>
      </trkpt>
      <trkpt lat="39.429245" lon="3.270854">
        <ele>16.308</ele>
        <time>2021-09-01T13:05:26Z</time>
      </trkpt>
      <trkpt lat="39.429240" lon="3.270783">
        <ele>16.236</ele>
        <time>2021-09-01T13:05:28Z</time>
      </trkpt>
      <trkpt lat="39.429233" lon="3.270709">
        <ele>16.250</ele>
        <time>2021-09-01T13:05:30Z</time>
      </trkpt>
      <trkpt lat="39.429211" lon="3.270618">
        <ele>16.295</ele>
        <time>2021-09-01T13:05:32Z</time>
      </trkpt>
      <trkpt lat="39.429201" lon="3.270517">
        <ele>16.029</ele>
        <time>2021-09-01T13:05:34Z</time>
      </trkpt>
      <trkpt lat="39.429174" lon="3.270428">
        <ele>16.058</ele>
        <time>2021-09-01T13:05:36Z</time>
      </trkpt>
      <trkpt lat="39.429159" lon="3.270372">
        <ele>15.913</ele>
        <time>2021-09-01T13:05:37Z</time>
      </trkpt>
      <trkpt lat="39.429129" lon="3.270278">
        <ele>15.660</ele>
        <time>2021-09-01T13:05:39Z</time>
      </trkpt>
      <trkpt lat="39.429116" lon="3.270183">
        <ele>15.190</ele>
        <time>2021-09-01T13:05:41Z</time>
      </trkpt>
      <trkpt lat="39.429093" lon="3.270111">
        <ele>14.979</ele>
        <time>2021-09-01T13:05:43Z</time>
      </trkpt>
      <trkpt lat="39.429064" lon="3.270010">
        <ele>14.605</ele>
        <time>2021-09-01T13:05:45Z</time>
      </trkpt>
      <trkpt lat="39.429039" lon="3.269922">
        <ele>14.225</ele>
        <time>2021-09-01T13:05:47Z</time>
      </trkpt>
      <trkpt lat="39.429016" lon="3.269833">
        <ele>13.608</ele>
        <time>2021-09-01T13:05:49Z</time>
      </trkpt>
      <trkpt lat="39.428986" lon="3.269769">
        <ele>13.225</ele>
        <time>2021-09-01T13:05:51Z</time>
      </trkpt>
      <trkpt lat="39.428922" lon="3.269685">
        <ele>12.729</ele>
        <time>2021-09-01T13:05:53Z</time>
      </trkpt>
      <trkpt lat="39.428892" lon="3.269632">
        <ele>12.564</ele>
        <time>2021-09-01T13:05:54Z</time>
      </trkpt>
      <trkpt lat="39.428862" lon="3.269585">
        <ele>12.288</ele>
        <time>2021-09-01T13:05:55Z</time>
      </trkpt>
      <trkpt lat="39.428836" lon="3.269523">
        <ele>11.917</ele>
        <time>2021-09-01T13:05:56Z</time>
      </trkpt>
      <trkpt lat="39.428808" lon="3.269447">
        <ele>11.672</ele>
        <time>2021-09-01T13:05:57Z</time>
      </trkpt>
      <trkpt lat="39.428776" lon="3.269384">
        <ele>11.329</ele>
        <time>2021-09-01T13:05:57Z</time>
      </trkpt>
      <trkpt lat="39.428724" lon="3.269312">
        <ele>11.079</ele>
        <time>2021-09-01T13:05:58Z</time>
      </trkpt>
      <trkpt lat="39.428678" lon="3.269252">
        <ele>10.699</ele>
        <time>2021-09-01T13:06:00Z</time>
      </trkpt>
      <trkpt lat="39.428629" lon="3.269195">
        <ele>10.407</ele>
        <time>2021-09-01T13:06:01Z</time>
      </trkpt>
      <trkpt lat="39.428581" lon="3.269132">
        <ele>10.227</ele>
        <time>2021-09-01T13:06:02Z</time>
      </trkpt>
      <trkpt lat="39.428539" lon="3.269064">
        <ele>10.108</ele>
        <time>2021-09-01T13:06:03Z</time>
      </trkpt>
      <trkpt lat="39.428502" lon="3.268995">
        <ele>9.947</ele>
        <time>2021-09-01T13:06:04Z</time>
      </trkpt>
      <trkpt lat="39.428470" lon="3.268917">
        <ele>9.831</ele>
        <time>2021-09-01T13:06:05Z</time>
      </trkpt>
      <trkpt lat="39.428447" lon="3.268829">
        <ele>9.616</ele>
        <time>2021-09-01T13:06:06Z</time>
      </trkpt>
      <trkpt lat="39.428429" lon="3.268746">
        <ele>9.560</ele>
        <time>2021-09-01T13:06:07Z</time>
      </trkpt>
      <trkpt lat="39.428408" lon="3.268666">
        <ele>9.329</ele>
        <time>2021-09-01T13:06:08Z</time>
      </trkpt>
      <trkpt lat="39.428383" lon="3.268589">
        <ele>9.124</ele>
        <time>2021-09-01T13:06:09Z</time>
      </trkpt>
      <trkpt lat="39.428361" lon="3.268508">
        <ele>8.951</ele>
        <time>2021-09-01T13:06:10Z</time>
      </trkpt>
      <trkpt lat="39.428335" lon="3.268433">
        <ele>8.931</ele>
        <time>2021-09-01T13:06:11Z</time>
      </trkpt>
      <trkpt lat="39.428310" lon="3.268355">
        <ele>8.626</ele>
        <time>2021-09-01T13:06:12Z</time>
      </trkpt>
      <trkpt lat="39.428287" lon="3.268276">
        <ele>8.547</ele>
        <time>2021-09-01T13:06:13Z</time>
      </trkpt>
      <trkpt lat="39.428262" lon="3.268202">
        <ele>8.411</ele>
        <time>2021-09-01T13:06:14Z</time>
      </trkpt>
      <trkpt lat="39.428237" lon="3.268140">
        <ele>8.308</ele>
        <time>2021-09-01T13:06:15Z</time>
      </trkpt>
      <trkpt lat="39.428207" lon="3.268079">
        <ele>8.160</ele>
        <time>2021-09-01T13:06:16Z</time>
      </trkpt>
      <trkpt lat="39.428176" lon="3.268010">
        <ele>8.114</ele>
        <time>2021-09-01T13:06:17Z</time>
      </trkpt>
      <trkpt lat="39.428141" lon="3.267953">
        <ele>8.089</ele>
        <time>2021-09-01T13:06:18Z</time>
      </trkpt>
      <trkpt lat="39.428116" lon="3.267888">
        <ele>7.873</ele>
        <time>2021-09-01T13:06:19Z</time>
      </trkpt>
      <trkpt lat="39.428081" lon="3.267823">
        <ele>7.632</ele>
        <time>2021-09-01T13:06:20Z</time>
      </trkpt>
      <trkpt lat="39.428038" lon="3.267761">
        <ele>7.377</ele>
        <time>2021-09-01T13:06:21Z</time>
      </trkpt>
      <trkpt lat="39.427997" lon="3.267708">
        <ele>7.274</ele>
        <time>2021-09-01T13:06:22Z</time>
      </trkpt>
      <trkpt lat="39.427971" lon="3.267655">
        <ele>7.044</ele>
        <time>2021-09-01T13:06:23Z</time>
      </trkpt>
      <trkpt lat="39.427950" lon="3.267596">
        <ele>7.094</ele>
        <time>2021-09-01T13:06:24Z</time>
      </trkpt>
      <trkpt lat="39.427934" lon="3.267535">
        <ele>6.957</ele>
        <time>2021-09-01T13:06:25Z</time>
      </trkpt>
      <trkpt lat="39.427926" lon="3.267473">
        <ele>6.922</ele>
        <time>2021-09-01T13:06:26Z</time>
      </trkpt>
      <trkpt lat="39.427923" lon="3.267412">
        <ele>6.808</ele>
        <time>2021-09-01T13:06:27Z</time>
      </trkpt>
      <trkpt lat="39.427933" lon="3.267345">
        <ele>6.777</ele>
        <time>2021-09-01T13:06:28Z</time>
      </trkpt>
      <trkpt lat="39.427946" lon="3.267280">
        <ele>6.651</ele>
        <time>2021-09-01T13:06:29Z</time>
      </trkpt>
      <trkpt lat="39.427955" lon="3.267220">
        <ele>6.566</ele>
        <time>2021-09-01T13:06:30Z</time>
      </trkpt>
      <trkpt lat="39.427962" lon="3.267162">
        <ele>6.470</ele>
        <time>2021-09-01T13:06:31Z</time>
      </trkpt>
      <trkpt lat="39.427964" lon="3.267097">
        <ele>6.469</ele>
        <time>2021-09-01T13:06:32Z</time>
      </trkpt>
      <trkpt lat="39.427969" lon="3.267036">
        <ele>6.224</ele>
        <time>2021-09-01T13:06:33Z</time>
      </trkpt>
      <trkpt lat="39.427975" lon="3.266971">
        <ele>6.191</ele>
        <time>2021-09-01T13:06:34Z</time>
      </trkpt>
      <trkpt lat="39.427976" lon="3.266907">
        <ele>6.141</ele>
        <time>2021-09-01T13:06:35Z</time>
      </trkpt>
      <trkpt lat="39.427980" lon="3.266834">
        <ele>6.074</ele>
        <time>2021-09-01T13:06:36Z</time>
      </trkpt>
      <trkpt lat="39.427986" lon="3.266770">
        <ele>6.056</ele>
        <time>2021-09-01T13:06:37Z</time>
      </trkpt>
      <trkpt lat="39.427990" lon="3.266702">
        <ele>6.121</ele>
        <time>2021-09-01T13:06:38Z</time>
      </trkpt>
      <trkpt lat="39.427996" lon="3.266594">
        <ele>6.108</ele>
        <time>2021-09-01T13:06:40Z</time>
      </trkpt>
      <trkpt lat="39.427993" lon="3.266488">
        <ele>6.145</ele>
        <time>2021-09-01T13:06:42Z</time>
      </trkpt>
      <trkpt lat="39.428002" lon="3.266378">
        <ele>6.149</ele>
        <time>2021-09-01T13:06:44Z</time>
      </trkpt>
      <trkpt lat="39.428009" lon="3.266264">
        <ele>6.374</ele>
        <time>2021-09-01T13:06:46Z</time>
      </trkpt>
      <trkpt lat="39.428021" lon="3.266159">
        <ele>6.428</ele>
        <time>2021-09-01T13:06:48Z</time>
      </trkpt>
      <trkpt lat="39.428031" lon="3.266066">
        <ele>6.617</ele>
        <time>2021-09-01T13:06:50Z</time>
      </trkpt>
      <trkpt lat="39.428039" lon="3.265985">
        <ele>6.732</ele>
        <time>2021-09-01T13:06:52Z</time>
      </trkpt>
      <trkpt lat="39.428041" lon="3.265907">
        <ele>7.339</ele>
        <time>2021-09-01T13:06:54Z</time>
      </trkpt>
      <trkpt lat="39.428042" lon="3.265847">
        <ele>7.979</ele>
        <time>2021-09-01T13:06:56Z</time>
      </trkpt>
      <trkpt lat="39.428043" lon="3.265789">
        <ele>8.213</ele>
        <time>2021-09-01T13:06:58Z</time>
      </trkpt>
      <trkpt lat="39.428056" lon="3.265705">
        <ele>8.443</ele>
        <time>2021-09-01T13:07:02Z</time>
      </trkpt>
      <trkpt lat="39.428064" lon="3.265643">
        <ele>8.507</ele>
        <time>2021-09-01T13:07:04Z</time>
      </trkpt>
      <trkpt lat="39.428040" lon="3.265578">
        <ele>8.408</ele>
        <time>2021-09-01T13:07:06Z</time>
      </trkpt>
      <trkpt lat="39.428007" lon="3.265500">
        <ele>8.619</ele>
        <time>2021-09-01T13:07:08Z</time>
      </trkpt>
      <trkpt lat="39.427986" lon="3.265443">
        <ele>9.193</ele>
        <time>2021-09-01T13:07:10Z</time>
      </trkpt>
      <trkpt lat="39.427964" lon="3.265387">
        <ele>9.658</ele>
        <time>2021-09-01T13:07:12Z</time>
      </trkpt>
      <trkpt lat="39.427939" lon="3.265319">
        <ele>9.862</ele>
        <time>2021-09-01T13:07:14Z</time>
      </trkpt>
      <trkpt lat="39.427908" lon="3.265258">
        <ele>10.381</ele>
        <time>2021-09-01T13:07:16Z</time>
      </trkpt>
      <trkpt lat="39.427881" lon="3.265202">
        <ele>10.986</ele>
        <time>2021-09-01T13:07:18Z</time>
      </trkpt>
      <trkpt lat="39.427858" lon="3.265149">
        <ele>11.623</ele>
        <time>2021-09-01T13:07:20Z</time>
      </trkpt>
      <trkpt lat="39.427831" lon="3.265102">
        <ele>12.143</ele>
        <time>2021-09-01T13:07:22Z</time>
      </trkpt>
      <trkpt lat="39.427803" lon="3.265055">
        <ele>12.714</ele>
        <time>2021-09-01T13:07:24Z</time>
      </trkpt>
      <trkpt lat="39.427777" lon="3.265003">
        <ele>13.154</ele>
        <time>2021-09-01T13:07:26Z</time>
      </trkpt>
      <trkpt lat="39.427744" lon="3.264931">
        <ele>13.909</ele>
        <time>2021-09-01T13:07:29Z</time>
      </trkpt>
      <trkpt lat="39.427723" lon="3.264869">
        <ele>14.408</ele>
        <time>2021-09-01T13:07:31Z</time>
      </trkpt>
      <trkpt lat="39.427697" lon="3.264813">
        <ele>14.769</ele>
        <time>2021-09-01T13:07:33Z</time>
      </trkpt>
      <trkpt lat="39.427659" lon="3.264738">
        <ele>15.273</ele>
        <time>2021-09-01T13:07:36Z</time>
      </trkpt>
      <trkpt lat="39.427631" lon="3.264672">
        <ele>15.848</ele>
        <time>2021-09-01T13:07:38Z</time>
      </trkpt>
      <trkpt lat="39.427607" lon="3.264608">
        <ele>16.392</ele>
        <time>2021-09-01T13:07:40Z</time>
      </trkpt>
      <trkpt lat="39.427576" lon="3.264546">
        <ele>16.661</ele>
        <time>2021-09-01T13:07:42Z</time>
      </trkpt>
      <trkpt lat="39.427543" lon="3.264489">
        <ele>16.926</ele>
        <time>2021-09-01T13:07:44Z</time>
      </trkpt>
      <trkpt lat="39.427520" lon="3.264403">
        <ele>17.343</ele>
        <time>2021-09-01T13:07:46Z</time>
      </trkpt>
      <trkpt lat="39.427485" lon="3.264331">
        <ele>17.623</ele>
        <time>2021-09-01T13:07:48Z</time>
      </trkpt>
      <trkpt lat="39.427444" lon="3.264261">
        <ele>17.964</ele>
        <time>2021-09-01T13:07:50Z</time>
      </trkpt>
      <trkpt lat="39.427424" lon="3.264169">
        <ele>18.006</ele>
        <time>2021-09-01T13:07:52Z</time>
      </trkpt>
      <trkpt lat="39.427398" lon="3.264102">
        <ele>18.016</ele>
        <time>2021-09-01T13:07:54Z</time>
      </trkpt>
      <trkpt lat="39.427363" lon="3.264062">
        <ele>18.108</ele>
        <time>2021-09-01T13:07:56Z</time>
      </trkpt>
      <trkpt lat="39.427339" lon="3.264007">
        <ele>17.824</ele>
        <time>2021-09-01T13:07:59Z</time>
      </trkpt>
      <trkpt lat="39.427307" lon="3.263927">
        <ele>17.618</ele>
        <time>2021-09-01T13:08:01Z</time>
      </trkpt>
      <trkpt lat="39.427271" lon="3.263836">
        <ele>17.253</ele>
        <time>2021-09-01T13:08:03Z</time>
      </trkpt>
      <trkpt lat="39.427228" lon="3.263743">
        <ele>16.637</ele>
        <time>2021-09-01T13:08:05Z</time>
      </trkpt>
      <trkpt lat="39.427185" lon="3.263678">
        <ele>15.646</ele>
        <time>2021-09-01T13:08:07Z</time>
      </trkpt>
      <trkpt lat="39.427165" lon="3.263625">
        <ele>14.731</ele>
        <time>2021-09-01T13:08:09Z</time>
      </trkpt>
      <trkpt lat="39.427134" lon="3.263551">
        <ele>14.068</ele>
        <time>2021-09-01T13:08:11Z</time>
      </trkpt>
      <trkpt lat="39.427112" lon="3.263482">
        <ele>13.228</ele>
        <time>2021-09-01T13:08:13Z</time>
      </trkpt>
      <trkpt lat="39.427091" lon="3.263419">
        <ele>12.512</ele>
        <time>2021-09-01T13:08:15Z</time>
      </trkpt>
      <trkpt lat="39.427041" lon="3.263387">
        <ele>11.932</ele>
        <time>2021-09-01T13:08:17Z</time>
      </trkpt>
      <trkpt lat="39.426962" lon="3.263423">
        <ele>11.605</ele>
        <time>2021-09-01T13:08:19Z</time>
      </trkpt>
      <trkpt lat="39.426920" lon="3.263455">
        <ele>11.608</ele>
        <time>2021-09-01T13:08:20Z</time>
      </trkpt>
      <trkpt lat="39.426865" lon="3.263526">
        <ele>11.699</ele>
        <time>2021-09-01T13:08:22Z</time>
      </trkpt>
      <trkpt lat="39.426782" lon="3.263570">
        <ele>11.673</ele>
        <time>2021-09-01T13:08:24Z</time>
      </trkpt>
      <trkpt lat="39.426739" lon="3.263605">
        <ele>11.548</ele>
        <time>2021-09-01T13:08:25Z</time>
      </trkpt>
      <trkpt lat="39.426704" lon="3.263642">
        <ele>11.512</ele>
        <time>2021-09-01T13:08:26Z</time>
      </trkpt>
      <trkpt lat="39.426641" lon="3.263685">
        <ele>11.641</ele>
        <time>2021-09-01T13:08:28Z</time>
      </trkpt>
      <trkpt lat="39.426577" lon="3.263708">
        <ele>11.846</ele>
        <time>2021-09-01T13:08:30Z</time>
      </trkpt>
      <trkpt lat="39.426522" lon="3.263730">
        <ele>12.053</ele>
        <time>2021-09-01T13:08:32Z</time>
      </trkpt>
      <trkpt lat="39.426484" lon="3.263764">
        <ele>12.183</ele>
        <time>2021-09-01T13:08:34Z</time>
      </trkpt>
      <trkpt lat="39.426428" lon="3.263804">
        <ele>12.143</ele>
        <time>2021-09-01T13:08:37Z</time>
      </trkpt>
      <trkpt lat="39.426383" lon="3.263847">
        <ele>12.264</ele>
        <time>2021-09-01T13:08:40Z</time>
      </trkpt>
      <trkpt lat="39.426314" lon="3.263782">
        <ele>12.110</ele>
        <time>2021-09-01T13:08:43Z</time>
      </trkpt>
      <trkpt lat="39.426293" lon="3.263730">
        <ele>12.008</ele>
        <time>2021-09-01T13:08:44Z</time>
      </trkpt>
      <trkpt lat="39.426267" lon="3.263672">
        <ele>11.982</ele>
        <time>2021-09-01T13:08:45Z</time>
      </trkpt>
      <trkpt lat="39.426235" lon="3.263613">
        <ele>11.866</ele>
        <time>2021-09-01T13:08:46Z</time>
      </trkpt>
      <trkpt lat="39.426197" lon="3.263550">
        <ele>11.641</ele>
        <time>2021-09-01T13:08:47Z</time>
      </trkpt>
      <trkpt lat="39.426154" lon="3.263476">
        <ele>11.315</ele>
        <time>2021-09-01T13:08:48Z</time>
      </trkpt>
      <trkpt lat="39.426114" lon="3.263391">
        <ele>11.134</ele>
        <time>2021-09-01T13:08:49Z</time>
      </trkpt>
      <trkpt lat="39.426073" lon="3.263321">
        <ele>10.839</ele>
        <time>2021-09-01T13:08:50Z</time>
      </trkpt>
      <trkpt lat="39.426032" lon="3.263243">
        <ele>10.676</ele>
        <time>2021-09-01T13:08:51Z</time>
      </trkpt>
      <trkpt lat="39.425991" lon="3.263165">
        <ele>10.346</ele>
        <time>2021-09-01T13:08:52Z</time>
      </trkpt>
      <trkpt lat="39.425947" lon="3.263087">
        <ele>9.946</ele>
        <time>2021-09-01T13:08:53Z</time>
      </trkpt>
      <trkpt lat="39.425907" lon="3.263014">
        <ele>9.488</ele>
        <time>2021-09-01T13:08:54Z</time>
      </trkpt>
      <trkpt lat="39.425865" lon="3.262938">
        <ele>9.016</ele>
        <time>2021-09-01T13:08:55Z</time>
      </trkpt>
      <trkpt lat="39.425826" lon="3.262864">
        <ele>8.508</ele>
        <time>2021-09-01T13:08:56Z</time>
      </trkpt>
      <trkpt lat="39.425786" lon="3.262793">
        <ele>8.112</ele>
        <time>2021-09-01T13:08:57Z</time>
      </trkpt>
      <trkpt lat="39.425746" lon="3.262718">
        <ele>7.966</ele>
        <time>2021-09-01T13:08:58Z</time>
      </trkpt>
      <trkpt lat="39.425703" lon="3.262641">
        <ele>7.761</ele>
        <time>2021-09-01T13:08:59Z</time>
      </trkpt>
      <trkpt lat="39.425660" lon="3.262564">
        <ele>7.785</ele>
        <time>2021-09-01T13:09:00Z</time>
      </trkpt>
      <trkpt lat="39.425619" lon="3.262483">
        <ele>7.784</ele>
        <time>2021-09-01T13:09:01Z</time>
      </trkpt>
      <trkpt lat="39.425577" lon="3.262409">
        <ele>7.739</ele>
        <time>2021-09-01T13:09:02Z</time>
      </trkpt>
      <trkpt lat="39.425537" lon="3.262325">
        <ele>7.736</ele>
        <time>2021-09-01T13:09:03Z</time>
      </trkpt>
      <trkpt lat="39.425499" lon="3.262253">
        <ele>7.756</ele>
        <time>2021-09-01T13:09:04Z</time>
      </trkpt>
      <trkpt lat="39.425463" lon="3.262179">
        <ele>7.754</ele>
        <time>2021-09-01T13:09:05Z</time>
      </trkpt>
      <trkpt lat="39.425425" lon="3.262105">
        <ele>7.856</ele>
        <time>2021-09-01T13:09:06Z</time>
      </trkpt>
      <trkpt lat="39.425384" lon="3.262038">
        <ele>7.811</ele>
        <time>2021-09-01T13:09:07Z</time>
      </trkpt>
      <trkpt lat="39.425338" lon="3.261977">
        <ele>7.708</ele>
        <time>2021-09-01T13:09:08Z</time>
      </trkpt>
      <trkpt lat="39.425299" lon="3.261896">
        <ele>7.793</ele>
        <time>2021-09-01T13:09:09Z</time>
      </trkpt>
      <trkpt lat="39.425263" lon="3.261825">
        <ele>7.517</ele>
        <time>2021-09-01T13:09:10Z</time>
      </trkpt>
      <trkpt lat="39.425222" lon="3.261759">
        <ele>7.432</ele>
        <time>2021-09-01T13:09:11Z</time>
      </trkpt>
      <trkpt lat="39.425182" lon="3.261686">
        <ele>7.316</ele>
        <time>2021-09-01T13:09:12Z</time>
      </trkpt>
      <trkpt lat="39.425144" lon="3.261618">
        <ele>7.375</ele>
        <time>2021-09-01T13:09:13Z</time>
      </trkpt>
      <trkpt lat="39.425101" lon="3.261551">
        <ele>7.340</ele>
        <time>2021-09-01T13:09:14Z</time>
      </trkpt>
      <trkpt lat="39.425059" lon="3.261488">
        <ele>7.327</ele>
        <time>2021-09-01T13:09:15Z</time>
      </trkpt>
      <trkpt lat="39.425004" lon="3.261433">
        <ele>7.497</ele>
        <time>2021-09-01T13:09:16Z</time>
      </trkpt>
      <trkpt lat="39.424953" lon="3.261395">
        <ele>7.586</ele>
        <time>2021-09-01T13:09:17Z</time>
      </trkpt>
      <trkpt lat="39.424899" lon="3.261344">
        <ele>7.660</ele>
        <time>2021-09-01T13:09:18Z</time>
      </trkpt>
      <trkpt lat="39.424852" lon="3.261296">
        <ele>7.626</ele>
        <time>2021-09-01T13:09:19Z</time>
      </trkpt>
      <trkpt lat="39.424801" lon="3.261247">
        <ele>7.608</ele>
        <time>2021-09-01T13:09:20Z</time>
      </trkpt>
      <trkpt lat="39.424752" lon="3.261201">
        <ele>7.626</ele>
        <time>2021-09-01T13:09:21Z</time>
      </trkpt>
      <trkpt lat="39.424702" lon="3.261148">
        <ele>7.510</ele>
        <time>2021-09-01T13:09:22Z</time>
      </trkpt>
      <trkpt lat="39.424650" lon="3.261105">
        <ele>7.455</ele>
        <time>2021-09-01T13:09:23Z</time>
      </trkpt>
      <trkpt lat="39.424593" lon="3.261064">
        <ele>7.419</ele>
        <time>2021-09-01T13:09:24Z</time>
      </trkpt>
      <trkpt lat="39.424542" lon="3.261007">
        <ele>7.438</ele>
        <time>2021-09-01T13:09:25Z</time>
      </trkpt>
      <trkpt lat="39.424493" lon="3.260957">
        <ele>7.473</ele>
        <time>2021-09-01T13:09:26Z</time>
      </trkpt>
      <trkpt lat="39.424443" lon="3.260911">
        <ele>7.520</ele>
        <time>2021-09-01T13:09:27Z</time>
      </trkpt>
      <trkpt lat="39.424394" lon="3.260864">
        <ele>7.540</ele>
        <time>2021-09-01T13:09:28Z</time>
      </trkpt>
      <trkpt lat="39.424357" lon="3.260817">
        <ele>7.548</ele>
        <time>2021-09-01T13:09:29Z</time>
      </trkpt>
      <trkpt lat="39.424313" lon="3.260773">
        <ele>7.561</ele>
        <time>2021-09-01T13:09:30Z</time>
      </trkpt>
      <trkpt lat="39.424270" lon="3.260720">
        <ele>7.517</ele>
        <time>2021-09-01T13:09:31Z</time>
      </trkpt>
      <trkpt lat="39.424234" lon="3.260667">
        <ele>7.308</ele>
        <time>2021-09-01T13:09:32Z</time>
      </trkpt>
      <trkpt lat="39.424202" lon="3.260617">
        <ele>7.272</ele>
        <time>2021-09-01T13:09:33Z</time>
      </trkpt>
      <trkpt lat="39.424179" lon="3.260567">
        <ele>7.296</ele>
        <time>2021-09-01T13:09:34Z</time>
      </trkpt>
      <trkpt lat="39.424174" lon="3.260462">
        <ele>7.371</ele>
        <time>2021-09-01T13:09:36Z</time>
      </trkpt>
      <trkpt lat="39.424176" lon="3.260360">
        <ele>7.385</ele>
        <time>2021-09-01T13:09:38Z</time>
      </trkpt>
      <trkpt lat="39.424176" lon="3.260299">
        <ele>7.474</ele>
        <time>2021-09-01T13:09:39Z</time>
      </trkpt>
      <trkpt lat="39.424171" lon="3.260234">
        <ele>7.579</ele>
        <time>2021-09-01T13:09:40Z</time>
      </trkpt>
      <trkpt lat="39.424150" lon="3.260169">
        <ele>7.656</ele>
        <time>2021-09-01T13:09:41Z</time>
      </trkpt>
      <trkpt lat="39.424111" lon="3.260123">
        <ele>7.726</ele>
        <time>2021-09-01T13:09:42Z</time>
      </trkpt>
      <trkpt lat="39.424062" lon="3.260083">
        <ele>7.884</ele>
        <time>2021-09-01T13:09:43Z</time>
      </trkpt>
      <trkpt lat="39.424010" lon="3.260051">
        <ele>7.807</ele>
        <time>2021-09-01T13:09:44Z</time>
      </trkpt>
      <trkpt lat="39.423952" lon="3.260032">
        <ele>7.817</ele>
        <time>2021-09-01T13:09:45Z</time>
      </trkpt>
      <trkpt lat="39.423901" lon="3.260061">
        <ele>7.708</ele>
        <time>2021-09-01T13:09:46Z</time>
      </trkpt>
      <trkpt lat="39.423867" lon="3.260122">
        <ele>7.616</ele>
        <time>2021-09-01T13:09:47Z</time>
      </trkpt>
      <trkpt lat="39.423850" lon="3.260191">
        <ele>7.610</ele>
        <time>2021-09-01T13:09:48Z</time>
      </trkpt>
      <trkpt lat="39.423860" lon="3.260268">
        <ele>7.625</ele>
        <time>2021-09-01T13:09:49Z</time>
      </trkpt>
      <trkpt lat="39.423873" lon="3.260333">
        <ele>7.619</ele>
        <time>2021-09-01T13:09:50Z</time>
      </trkpt>
      <trkpt lat="39.423918" lon="3.260388">
        <ele>7.798</ele>
        <time>2021-09-01T13:09:51Z</time>
      </trkpt>
      <trkpt lat="39.423952" lon="3.260456">
        <ele>7.883</ele>
        <time>2021-09-01T13:09:52Z</time>
      </trkpt>
      <trkpt lat="39.423984" lon="3.260513">
        <ele>7.940</ele>
        <time>2021-09-01T13:09:53Z</time>
      </trkpt>
      <trkpt lat="39.424018" lon="3.260560">
        <ele>7.950</ele>
        <time>2021-09-01T13:09:54Z</time>
      </trkpt>
      <trkpt lat="39.424078" lon="3.260641">
        <ele>8.161</ele>
        <time>2021-09-01T13:09:56Z</time>
      </trkpt>
      <trkpt lat="39.424046" lon="3.260710">
        <ele>8.321</ele>
        <time>2021-09-01T13:09:58Z</time>
      </trkpt>
      <trkpt lat="39.423980" lon="3.260747">
        <ele>8.113</ele>
        <time>2021-09-01T13:10:00Z</time>
      </trkpt>
      <trkpt lat="39.423914" lon="3.260796">
        <ele>7.508</ele>
        <time>2021-09-01T13:10:02Z</time>
      </trkpt>
      <trkpt lat="39.423838" lon="3.260849">
        <ele>6.984</ele>
        <time>2021-09-01T13:10:04Z</time>
      </trkpt>
      <trkpt lat="39.423771" lon="3.260891">
        <ele>6.718</ele>
        <time>2021-09-01T13:10:06Z</time>
      </trkpt>
      <trkpt lat="39.423699" lon="3.260931">
        <ele>6.693</ele>
        <time>2021-09-01T13:10:08Z</time>
      </trkpt>
      <trkpt lat="39.423615" lon="3.260999">
        <ele>6.487</ele>
        <time>2021-09-01T13:10:10Z</time>
      </trkpt>
      <trkpt lat="39.423548" lon="3.261059">
        <ele>6.376</ele>
        <time>2021-09-01T13:10:12Z</time>
      </trkpt>
      <trkpt lat="39.423507" lon="3.261090">
        <ele>6.381</ele>
        <time>2021-09-01T13:10:13Z</time>
      </trkpt>
      <trkpt lat="39.423465" lon="3.261134">
        <ele>6.468</ele>
        <time>2021-09-01T13:10:14Z</time>
      </trkpt>
      <trkpt lat="39.423424" lon="3.261177">
        <ele>6.628</ele>
        <time>2021-09-01T13:10:15Z</time>
      </trkpt>
      <trkpt lat="39.423385" lon="3.261214">
        <ele>6.853</ele>
        <time>2021-09-01T13:10:16Z</time>
      </trkpt>
      <trkpt lat="39.423317" lon="3.261266">
        <ele>7.004</ele>
        <time>2021-09-01T13:10:18Z</time>
      </trkpt>
      <trkpt lat="39.423276" lon="3.261306">
        <ele>7.014</ele>
        <time>2021-09-01T13:10:19Z</time>
      </trkpt>
      <trkpt lat="39.423239" lon="3.261344">
        <ele>7.008</ele>
        <time>2021-09-01T13:10:20Z</time>
      </trkpt>
      <trkpt lat="39.423204" lon="3.261386">
        <ele>7.093</ele>
        <time>2021-09-01T13:10:21Z</time>
      </trkpt>
      <trkpt lat="39.423143" lon="3.261479">
        <ele>7.357</ele>
        <time>2021-09-01T13:10:23Z</time>
      </trkpt>
      <trkpt lat="39.423079" lon="3.261549">
        <ele>7.722</ele>
        <time>2021-09-01T13:10:25Z</time>
      </trkpt>
      <trkpt lat="39.422995" lon="3.261599">
        <ele>7.816</ele>
        <time>2021-09-01T13:10:27Z</time>
      </trkpt>
      <trkpt lat="39.422954" lon="3.261632">
        <ele>7.515</ele>
        <time>2021-09-01T13:10:28Z</time>
      </trkpt>
      <trkpt lat="39.422874" lon="3.261669">
        <ele>6.830</ele>
        <time>2021-09-01T13:10:30Z</time>
      </trkpt>
      <trkpt lat="39.422824" lon="3.261676">
        <ele>6.367</ele>
        <time>2021-09-01T13:10:31Z</time>
      </trkpt>
      <trkpt lat="39.422781" lon="3.261694">
        <ele>6.027</ele>
        <time>2021-09-01T13:10:32Z</time>
      </trkpt>
      <trkpt lat="39.422729" lon="3.261701">
        <ele>6.081</ele>
        <time>2021-09-01T13:10:33Z</time>
      </trkpt>
      <trkpt lat="39.422675" lon="3.261709">
        <ele>6.061</ele>
        <time>2021-09-01T13:10:34Z</time>
      </trkpt>
      <trkpt lat="39.422621" lon="3.261721">
        <ele>6.017</ele>
        <time>2021-09-01T13:10:35Z</time>
      </trkpt>
      <trkpt lat="39.422564" lon="3.261730">
        <ele>6.208</ele>
        <time>2021-09-01T13:10:36Z</time>
      </trkpt>
      <trkpt lat="39.422509" lon="3.261740">
        <ele>6.466</ele>
        <time>2021-09-01T13:10:37Z</time>
      </trkpt>
      <trkpt lat="39.422457" lon="3.261738">
        <ele>6.670</ele>
        <time>2021-09-01T13:10:38Z</time>
      </trkpt>
      <trkpt lat="39.422403" lon="3.261745">
        <ele>6.745</ele>
        <time>2021-09-01T13:10:39Z</time>
      </trkpt>
      <trkpt lat="39.422352" lon="3.261755">
        <ele>6.729</ele>
        <time>2021-09-01T13:10:40Z</time>
      </trkpt>
      <trkpt lat="39.422286" lon="3.261783">
        <ele>6.778</ele>
        <time>2021-09-01T13:10:41Z</time>
      </trkpt>
      <trkpt lat="39.422226" lon="3.261804">
        <ele>6.753</ele>
        <time>2021-09-01T13:10:42Z</time>
      </trkpt>
      <trkpt lat="39.422169" lon="3.261820">
        <ele>6.660</ele>
        <time>2021-09-01T13:10:43Z</time>
      </trkpt>
      <trkpt lat="39.422117" lon="3.261827">
        <ele>6.630</ele>
        <time>2021-09-01T13:10:44Z</time>
      </trkpt>
      <trkpt lat="39.422066" lon="3.261827">
        <ele>6.644</ele>
        <time>2021-09-01T13:10:45Z</time>
      </trkpt>
      <trkpt lat="39.422006" lon="3.261844">
        <ele>6.705</ele>
        <time>2021-09-01T13:10:46Z</time>
      </trkpt>
      <trkpt lat="39.421949" lon="3.261855">
        <ele>6.815</ele>
        <time>2021-09-01T13:10:47Z</time>
      </trkpt>
      <trkpt lat="39.421897" lon="3.261851">
        <ele>6.808</ele>
        <time>2021-09-01T13:10:48Z</time>
      </trkpt>
      <trkpt lat="39.421841" lon="3.261852">
        <ele>6.832</ele>
        <time>2021-09-01T13:10:49Z</time>
      </trkpt>
      <trkpt lat="39.421793" lon="3.261857">
        <ele>6.846</ele>
        <time>2021-09-01T13:10:50Z</time>
      </trkpt>
      <trkpt lat="39.421743" lon="3.261859">
        <ele>6.831</ele>
        <time>2021-09-01T13:10:51Z</time>
      </trkpt>
      <trkpt lat="39.421688" lon="3.261868">
        <ele>6.715</ele>
        <time>2021-09-01T13:10:52Z</time>
      </trkpt>
      <trkpt lat="39.421634" lon="3.261885">
        <ele>6.684</ele>
        <time>2021-09-01T13:10:53Z</time>
      </trkpt>
      <trkpt lat="39.421588" lon="3.261891">
        <ele>6.629</ele>
        <time>2021-09-01T13:10:54Z</time>
      </trkpt>
      <trkpt lat="39.421539" lon="3.261887">
        <ele>6.626</ele>
        <time>2021-09-01T13:10:55Z</time>
      </trkpt>
      <trkpt lat="39.421487" lon="3.261901">
        <ele>6.756</ele>
        <time>2021-09-01T13:10:56Z</time>
      </trkpt>
      <trkpt lat="39.421436" lon="3.261915">
        <ele>6.777</ele>
        <time>2021-09-01T13:10:57Z</time>
      </trkpt>
      <trkpt lat="39.421386" lon="3.261917">
        <ele>6.761</ele>
        <time>2021-09-01T13:10:58Z</time>
      </trkpt>
      <trkpt lat="39.421337" lon="3.261916">
        <ele>6.827</ele>
        <time>2021-09-01T13:10:59Z</time>
      </trkpt>
      <trkpt lat="39.421288" lon="3.261913">
        <ele>6.808</ele>
        <time>2021-09-01T13:11:00Z</time>
      </trkpt>
      <trkpt lat="39.421218" lon="3.261882">
        <ele>7.025</ele>
        <time>2021-09-01T13:11:02Z</time>
      </trkpt>
      <trkpt lat="39.421181" lon="3.261848">
        <ele>7.049</ele>
        <time>2021-09-01T13:11:04Z</time>
      </trkpt>
      <trkpt lat="39.421134" lon="3.261822">
        <ele>6.914</ele>
        <time>2021-09-01T13:11:06Z</time>
      </trkpt>
      <trkpt lat="39.421084" lon="3.261783">
        <ele>6.988</ele>
        <time>2021-09-01T13:11:08Z</time>
      </trkpt>
      <trkpt lat="39.421046" lon="3.261752">
        <ele>7.047</ele>
        <time>2021-09-01T13:11:10Z</time>
      </trkpt>
      <trkpt lat="39.420987" lon="3.261790">
        <ele>7.092</ele>
        <time>2021-09-01T13:11:13Z</time>
      </trkpt>
      <trkpt lat="39.420925" lon="3.261788">
        <ele>6.859</ele>
        <time>2021-09-01T13:11:15Z</time>
      </trkpt>
      <trkpt lat="39.420862" lon="3.261791">
        <ele>6.969</ele>
        <time>2021-09-01T13:11:17Z</time>
      </trkpt>
      <trkpt lat="39.420785" lon="3.261795">
        <ele>7.083</ele>
        <time>2021-09-01T13:11:19Z</time>
      </trkpt>
      <trkpt lat="39.420703" lon="3.261802">
        <ele>7.025</ele>
        <time>2021-09-01T13:11:21Z</time>
      </trkpt>
      <trkpt lat="39.420613" lon="3.261814">
        <ele>6.917</ele>
        <time>2021-09-01T13:11:23Z</time>
      </trkpt>
      <trkpt lat="39.420568" lon="3.261818">
        <ele>6.708</ele>
        <time>2021-09-01T13:11:24Z</time>
      </trkpt>
      <trkpt lat="39.420515" lon="3.261830">
        <ele>6.676</ele>
        <time>2021-09-01T13:11:25Z</time>
      </trkpt>
      <trkpt lat="39.420465" lon="3.261832">
        <ele>6.670</ele>
        <time>2021-09-01T13:11:26Z</time>
      </trkpt>
      <trkpt lat="39.420415" lon="3.261840">
        <ele>6.645</ele>
        <time>2021-09-01T13:11:27Z</time>
      </trkpt>
      <trkpt lat="39.420364" lon="3.261845">
        <ele>6.759</ele>
        <time>2021-09-01T13:11:28Z</time>
      </trkpt>
      <trkpt lat="39.420311" lon="3.261850">
        <ele>6.778</ele>
        <time>2021-09-01T13:11:29Z</time>
      </trkpt>
      <trkpt lat="39.420258" lon="3.261858">
        <ele>6.863</ele>
        <time>2021-09-01T13:11:30Z</time>
      </trkpt>
      <trkpt lat="39.420209" lon="3.261865">
        <ele>6.910</ele>
        <time>2021-09-01T13:11:31Z</time>
      </trkpt>
      <trkpt lat="39.420160" lon="3.261870">
        <ele>7.040</ele>
        <time>2021-09-01T13:11:32Z</time>
      </trkpt>
      <trkpt lat="39.420106" lon="3.261879">
        <ele>7.036</ele>
        <time>2021-09-01T13:11:33Z</time>
      </trkpt>
      <trkpt lat="39.420055" lon="3.261885">
        <ele>7.117</ele>
        <time>2021-09-01T13:11:34Z</time>
      </trkpt>
      <trkpt lat="39.420002" lon="3.261891">
        <ele>7.218</ele>
        <time>2021-09-01T13:11:35Z</time>
      </trkpt>
      <trkpt lat="39.419914" lon="3.261908">
        <ele>7.208</ele>
        <time>2021-09-01T13:11:37Z</time>
      </trkpt>
      <trkpt lat="39.419866" lon="3.261901">
        <ele>7.291</ele>
        <time>2021-09-01T13:11:38Z</time>
      </trkpt>
      <trkpt lat="39.419770" lon="3.261901">
        <ele>7.225</ele>
        <time>2021-09-01T13:11:40Z</time>
      </trkpt>
      <trkpt lat="39.419716" lon="3.261901">
        <ele>7.230</ele>
        <time>2021-09-01T13:11:41Z</time>
      </trkpt>
      <trkpt lat="39.419662" lon="3.261903">
        <ele>7.264</ele>
        <time>2021-09-01T13:11:42Z</time>
      </trkpt>
      <trkpt lat="39.419613" lon="3.261894">
        <ele>7.213</ele>
        <time>2021-09-01T13:11:43Z</time>
      </trkpt>
      <trkpt lat="39.419568" lon="3.261860">
        <ele>7.178</ele>
        <time>2021-09-01T13:11:44Z</time>
      </trkpt>
      <trkpt lat="39.419535" lon="3.261819">
        <ele>7.195</ele>
        <time>2021-09-01T13:11:45Z</time>
      </trkpt>
      <trkpt lat="39.419498" lon="3.261771">
        <ele>7.045</ele>
        <time>2021-09-01T13:11:46Z</time>
      </trkpt>
      <trkpt lat="39.419441" lon="3.261678">
        <ele>7.138</ele>
        <time>2021-09-01T13:11:48Z</time>
      </trkpt>
      <trkpt lat="39.419404" lon="3.261612">
        <ele>7.270</ele>
        <time>2021-09-01T13:11:49Z</time>
      </trkpt>
      <trkpt lat="39.419355" lon="3.261546">
        <ele>7.217</ele>
        <time>2021-09-01T13:11:50Z</time>
      </trkpt>
      <trkpt lat="39.419325" lon="3.261487">
        <ele>7.208</ele>
        <time>2021-09-01T13:11:51Z</time>
      </trkpt>
      <trkpt lat="39.419288" lon="3.261424">
        <ele>7.121</ele>
        <time>2021-09-01T13:11:52Z</time>
      </trkpt>
      <trkpt lat="39.419254" lon="3.261369">
        <ele>7.055</ele>
        <time>2021-09-01T13:11:53Z</time>
      </trkpt>
      <trkpt lat="39.419214" lon="3.261309">
        <ele>6.940</ele>
        <time>2021-09-01T13:11:54Z</time>
      </trkpt>
      <trkpt lat="39.419186" lon="3.261252">
        <ele>6.824</ele>
        <time>2021-09-01T13:11:55Z</time>
      </trkpt>
      <trkpt lat="39.419145" lon="3.261207">
        <ele>6.813</ele>
        <time>2021-09-01T13:11:56Z</time>
      </trkpt>
      <trkpt lat="39.419107" lon="3.261147">
        <ele>6.828</ele>
        <time>2021-09-01T13:11:57Z</time>
      </trkpt>
      <trkpt lat="39.419067" lon="3.261103">
        <ele>6.825</ele>
        <time>2021-09-01T13:11:58Z</time>
      </trkpt>
      <trkpt lat="39.419031" lon="3.261036">
        <ele>6.825</ele>
        <time>2021-09-01T13:11:59Z</time>
      </trkpt>
      <trkpt lat="39.418994" lon="3.260971">
        <ele>6.947</ele>
        <time>2021-09-01T13:12:00Z</time>
      </trkpt>
      <trkpt lat="39.418955" lon="3.260919">
        <ele>7.029</ele>
        <time>2021-09-01T13:12:01Z</time>
      </trkpt>
      <trkpt lat="39.418905" lon="3.260807">
        <ele>7.021</ele>
        <time>2021-09-01T13:12:03Z</time>
      </trkpt>
      <trkpt lat="39.418876" lon="3.260735">
        <ele>7.008</ele>
        <time>2021-09-01T13:12:04Z</time>
      </trkpt>
      <trkpt lat="39.418849" lon="3.260661">
        <ele>7.022</ele>
        <time>2021-09-01T13:12:05Z</time>
      </trkpt>
      <trkpt lat="39.418820" lon="3.260595">
        <ele>6.946</ele>
        <time>2021-09-01T13:12:06Z</time>
      </trkpt>
      <trkpt lat="39.418788" lon="3.260545">
        <ele>6.931</ele>
        <time>2021-09-01T13:12:07Z</time>
      </trkpt>
      <trkpt lat="39.418761" lon="3.260470">
        <ele>6.935</ele>
        <time>2021-09-01T13:12:08Z</time>
      </trkpt>
      <trkpt lat="39.418733" lon="3.260409">
        <ele>6.934</ele>
        <time>2021-09-01T13:12:09Z</time>
      </trkpt>
      <trkpt lat="39.418703" lon="3.260341">
        <ele>6.719</ele>
        <time>2021-09-01T13:12:10Z</time>
      </trkpt>
      <trkpt lat="39.418677" lon="3.260270">
        <ele>6.796</ele>
        <time>2021-09-01T13:12:11Z</time>
      </trkpt>
      <trkpt lat="39.418644" lon="3.260198">
        <ele>6.746</ele>
        <time>2021-09-01T13:12:12Z</time>
      </trkpt>
      <trkpt lat="39.418618" lon="3.260128">
        <ele>6.729</ele>
        <time>2021-09-01T13:12:13Z</time>
      </trkpt>
      <trkpt lat="39.418581" lon="3.260056">
        <ele>6.700</ele>
        <time>2021-09-01T13:12:14Z</time>
      </trkpt>
      <trkpt lat="39.418552" lon="3.259984">
        <ele>6.720</ele>
        <time>2021-09-01T13:12:15Z</time>
      </trkpt>
      <trkpt lat="39.418525" lon="3.259919">
        <ele>6.808</ele>
        <time>2021-09-01T13:12:16Z</time>
      </trkpt>
      <trkpt lat="39.418496" lon="3.259851">
        <ele>6.820</ele>
        <time>2021-09-01T13:12:17Z</time>
      </trkpt>
      <trkpt lat="39.418473" lon="3.259789">
        <ele>6.994</ele>
        <time>2021-09-01T13:12:18Z</time>
      </trkpt>
      <trkpt lat="39.418441" lon="3.259711">
        <ele>6.929</ele>
        <time>2021-09-01T13:12:19Z</time>
      </trkpt>
      <trkpt lat="39.418409" lon="3.259651">
        <ele>7.043</ele>
        <time>2021-09-01T13:12:20Z</time>
      </trkpt>
      <trkpt lat="39.418380" lon="3.259579">
        <ele>7.052</ele>
        <time>2021-09-01T13:12:21Z</time>
      </trkpt>
      <trkpt lat="39.418350" lon="3.259513">
        <ele>7.177</ele>
        <time>2021-09-01T13:12:22Z</time>
      </trkpt>
      <trkpt lat="39.418323" lon="3.259451">
        <ele>7.284</ele>
        <time>2021-09-01T13:12:23Z</time>
      </trkpt>
      <trkpt lat="39.418291" lon="3.259390">
        <ele>7.294</ele>
        <time>2021-09-01T13:12:24Z</time>
      </trkpt>
      <trkpt lat="39.418267" lon="3.259328">
        <ele>7.359</ele>
        <time>2021-09-01T13:12:25Z</time>
      </trkpt>
      <trkpt lat="39.418243" lon="3.259251">
        <ele>7.403</ele>
        <time>2021-09-01T13:12:26Z</time>
      </trkpt>
      <trkpt lat="39.418217" lon="3.259198">
        <ele>7.523</ele>
        <time>2021-09-01T13:12:27Z</time>
      </trkpt>
      <trkpt lat="39.418187" lon="3.259137">
        <ele>7.508</ele>
        <time>2021-09-01T13:12:28Z</time>
      </trkpt>
      <trkpt lat="39.418153" lon="3.259078">
        <ele>7.623</ele>
        <time>2021-09-01T13:12:29Z</time>
      </trkpt>
      <trkpt lat="39.418117" lon="3.259029">
        <ele>7.887</ele>
        <time>2021-09-01T13:12:30Z</time>
      </trkpt>
      <trkpt lat="39.418066" lon="3.259008">
        <ele>8.042</ele>
        <time>2021-09-01T13:12:31Z</time>
      </trkpt>
      <trkpt lat="39.417988" lon="3.259017">
        <ele>8.366</ele>
        <time>2021-09-01T13:12:33Z</time>
      </trkpt>
      <trkpt lat="39.417894" lon="3.259000">
        <ele>8.465</ele>
        <time>2021-09-01T13:12:35Z</time>
      </trkpt>
      <trkpt lat="39.417845" lon="3.258999">
        <ele>8.390</ele>
        <time>2021-09-01T13:12:36Z</time>
      </trkpt>
      <trkpt lat="39.417791" lon="3.258978">
        <ele>8.397</ele>
        <time>2021-09-01T13:12:37Z</time>
      </trkpt>
      <trkpt lat="39.417733" lon="3.258965">
        <ele>8.217</ele>
        <time>2021-09-01T13:12:38Z</time>
      </trkpt>
      <trkpt lat="39.417674" lon="3.258955">
        <ele>8.269</ele>
        <time>2021-09-01T13:12:39Z</time>
      </trkpt>
      <trkpt lat="39.417618" lon="3.258950">
        <ele>8.204</ele>
        <time>2021-09-01T13:12:40Z</time>
      </trkpt>
      <trkpt lat="39.417561" lon="3.258951">
        <ele>8.324</ele>
        <time>2021-09-01T13:12:41Z</time>
      </trkpt>
      <trkpt lat="39.417505" lon="3.258948">
        <ele>8.308</ele>
        <time>2021-09-01T13:12:42Z</time>
      </trkpt>
      <trkpt lat="39.417439" lon="3.258935">
        <ele>8.254</ele>
        <time>2021-09-01T13:12:43Z</time>
      </trkpt>
      <trkpt lat="39.417384" lon="3.258929">
        <ele>8.268</ele>
        <time>2021-09-01T13:12:44Z</time>
      </trkpt>
      <trkpt lat="39.417328" lon="3.258932">
        <ele>8.043</ele>
        <time>2021-09-01T13:12:45Z</time>
      </trkpt>
      <trkpt lat="39.417273" lon="3.258924">
        <ele>7.857</ele>
        <time>2021-09-01T13:12:46Z</time>
      </trkpt>
      <trkpt lat="39.417219" lon="3.258911">
        <ele>7.696</ele>
        <time>2021-09-01T13:12:47Z</time>
      </trkpt>
      <trkpt lat="39.417160" lon="3.258903">
        <ele>7.571</ele>
        <time>2021-09-01T13:12:48Z</time>
      </trkpt>
      <trkpt lat="39.417101" lon="3.258898">
        <ele>7.448</ele>
        <time>2021-09-01T13:12:49Z</time>
      </trkpt>
      <trkpt lat="39.417046" lon="3.258892">
        <ele>7.488</ele>
        <time>2021-09-01T13:12:50Z</time>
      </trkpt>
      <trkpt lat="39.416990" lon="3.258881">
        <ele>7.457</ele>
        <time>2021-09-01T13:12:51Z</time>
      </trkpt>
      <trkpt lat="39.416936" lon="3.258868">
        <ele>7.400</ele>
        <time>2021-09-01T13:12:52Z</time>
      </trkpt>
      <trkpt lat="39.416872" lon="3.258865">
        <ele>7.520</ele>
        <time>2021-09-01T13:12:53Z</time>
      </trkpt>
      <trkpt lat="39.416810" lon="3.258853">
        <ele>7.508</ele>
        <time>2021-09-01T13:12:54Z</time>
      </trkpt>
      <trkpt lat="39.416749" lon="3.258851">
        <ele>7.563</ele>
        <time>2021-09-01T13:12:55Z</time>
      </trkpt>
      <trkpt lat="39.416689" lon="3.258840">
        <ele>7.517</ele>
        <time>2021-09-01T13:12:56Z</time>
      </trkpt>
      <trkpt lat="39.416629" lon="3.258837">
        <ele>7.542</ele>
        <time>2021-09-01T13:12:57Z</time>
      </trkpt>
      <trkpt lat="39.416570" lon="3.258829">
        <ele>7.466</ele>
        <time>2021-09-01T13:12:58Z</time>
      </trkpt>
      <trkpt lat="39.416504" lon="3.258823">
        <ele>7.385</ele>
        <time>2021-09-01T13:12:59Z</time>
      </trkpt>
      <trkpt lat="39.416447" lon="3.258818">
        <ele>7.190</ele>
        <time>2021-09-01T13:13:00Z</time>
      </trkpt>
      <trkpt lat="39.416389" lon="3.258818">
        <ele>6.927</ele>
        <time>2021-09-01T13:13:01Z</time>
      </trkpt>
      <trkpt lat="39.416333" lon="3.258813">
        <ele>6.867</ele>
        <time>2021-09-01T13:13:02Z</time>
      </trkpt>
      <trkpt lat="39.416277" lon="3.258802">
        <ele>6.785</ele>
        <time>2021-09-01T13:13:03Z</time>
      </trkpt>
      <trkpt lat="39.416220" lon="3.258798">
        <ele>6.589</ele>
        <time>2021-09-01T13:13:04Z</time>
      </trkpt>
      <trkpt lat="39.416161" lon="3.258794">
        <ele>6.317</ele>
        <time>2021-09-01T13:13:05Z</time>
      </trkpt>
      <trkpt lat="39.416101" lon="3.258790">
        <ele>6.208</ele>
        <time>2021-09-01T13:13:06Z</time>
      </trkpt>
      <trkpt lat="39.416041" lon="3.258799">
        <ele>6.196</ele>
        <time>2021-09-01T13:13:07Z</time>
      </trkpt>
      <trkpt lat="39.415983" lon="3.258804">
        <ele>6.110</ele>
        <time>2021-09-01T13:13:08Z</time>
      </trkpt>
      <trkpt lat="39.415929" lon="3.258838">
        <ele>6.245</ele>
        <time>2021-09-01T13:13:09Z</time>
      </trkpt>
      <trkpt lat="39.415883" lon="3.258881">
        <ele>6.259</ele>
        <time>2021-09-01T13:13:10Z</time>
      </trkpt>
      <trkpt lat="39.415827" lon="3.258936">
        <ele>6.628</ele>
        <time>2021-09-01T13:13:11Z</time>
      </trkpt>
      <trkpt lat="39.415790" lon="3.258987">
        <ele>6.873</ele>
        <time>2021-09-01T13:13:12Z</time>
      </trkpt>
      <trkpt lat="39.415758" lon="3.259033">
        <ele>6.820</ele>
        <time>2021-09-01T13:13:13Z</time>
      </trkpt>
      <trkpt lat="39.415713" lon="3.259073">
        <ele>6.860</ele>
        <time>2021-09-01T13:13:14Z</time>
      </trkpt>
      <trkpt lat="39.415675" lon="3.259121">
        <ele>6.446</ele>
        <time>2021-09-01T13:13:15Z</time>
      </trkpt>
      <trkpt lat="39.415635" lon="3.259166">
        <ele>6.488</ele>
        <time>2021-09-01T13:13:16Z</time>
      </trkpt>
      <trkpt lat="39.415596" lon="3.259207">
        <ele>6.316</ele>
        <time>2021-09-01T13:13:17Z</time>
      </trkpt>
      <trkpt lat="39.415566" lon="3.259254">
        <ele>6.108</ele>
        <time>2021-09-01T13:13:18Z</time>
      </trkpt>
      <trkpt lat="39.415527" lon="3.259309">
        <ele>6.072</ele>
        <time>2021-09-01T13:13:19Z</time>
      </trkpt>
      <trkpt lat="39.415485" lon="3.259352">
        <ele>6.196</ele>
        <time>2021-09-01T13:13:20Z</time>
      </trkpt>
      <trkpt lat="39.415449" lon="3.259390">
        <ele>6.161</ele>
        <time>2021-09-01T13:13:21Z</time>
      </trkpt>
      <trkpt lat="39.415411" lon="3.259432">
        <ele>6.135</ele>
        <time>2021-09-01T13:13:22Z</time>
      </trkpt>
      <trkpt lat="39.415370" lon="3.259481">
        <ele>6.124</ele>
        <time>2021-09-01T13:13:23Z</time>
      </trkpt>
      <trkpt lat="39.415330" lon="3.259533">
        <ele>6.169</ele>
        <time>2021-09-01T13:13:24Z</time>
      </trkpt>
      <trkpt lat="39.415293" lon="3.259577">
        <ele>6.196</ele>
        <time>2021-09-01T13:13:25Z</time>
      </trkpt>
      <trkpt lat="39.415229" lon="3.259659">
        <ele>6.286</ele>
        <time>2021-09-01T13:13:27Z</time>
      </trkpt>
      <trkpt lat="39.415194" lon="3.259699">
        <ele>6.367</ele>
        <time>2021-09-01T13:13:28Z</time>
      </trkpt>
      <trkpt lat="39.415162" lon="3.259742">
        <ele>6.481</ele>
        <time>2021-09-01T13:13:29Z</time>
      </trkpt>
      <trkpt lat="39.415100" lon="3.259821">
        <ele>6.719</ele>
        <time>2021-09-01T13:13:31Z</time>
      </trkpt>
      <trkpt lat="39.415047" lon="3.259877">
        <ele>6.908</ele>
        <time>2021-09-01T13:13:33Z</time>
      </trkpt>
      <trkpt lat="39.415007" lon="3.259927">
        <ele>6.984</ele>
        <time>2021-09-01T13:13:35Z</time>
      </trkpt>
      <trkpt lat="39.414965" lon="3.259952">
        <ele>6.938</ele>
        <time>2021-09-01T13:13:38Z</time>
      </trkpt>
      <trkpt lat="39.414917" lon="3.259944">
        <ele>6.983</ele>
        <time>2021-09-01T13:13:40Z</time>
      </trkpt>
      <trkpt lat="39.414857" lon="3.259952">
        <ele>7.087</ele>
        <time>2021-09-01T13:13:44Z</time>
      </trkpt>
      <trkpt lat="39.414812" lon="3.260010">
        <ele>7.386</ele>
        <time>2021-09-01T13:13:47Z</time>
      </trkpt>
      <trkpt lat="39.414757" lon="3.260014">
        <ele>7.631</ele>
        <time>2021-09-01T13:13:49Z</time>
      </trkpt>
      <trkpt lat="39.414704" lon="3.260025">
        <ele>8.068</ele>
        <time>2021-09-01T13:13:51Z</time>
      </trkpt>
      <trkpt lat="39.414657" lon="3.260036">
        <ele>8.428</ele>
        <time>2021-09-01T13:13:53Z</time>
      </trkpt>
      <trkpt lat="39.414607" lon="3.260042">
        <ele>8.871</ele>
        <time>2021-09-01T13:13:55Z</time>
      </trkpt>
      <trkpt lat="39.414558" lon="3.260058">
        <ele>9.241</ele>
        <time>2021-09-01T13:13:57Z</time>
      </trkpt>
      <trkpt lat="39.414509" lon="3.260059">
        <ele>9.715</ele>
        <time>2021-09-01T13:13:59Z</time>
      </trkpt>
      <trkpt lat="39.414459" lon="3.260061">
        <ele>10.208</ele>
        <time>2021-09-01T13:14:01Z</time>
      </trkpt>
      <trkpt lat="39.414413" lon="3.260063">
        <ele>10.545</ele>
        <time>2021-09-01T13:14:03Z</time>
      </trkpt>
      <trkpt lat="39.414367" lon="3.260071">
        <ele>11.039</ele>
        <time>2021-09-01T13:14:05Z</time>
      </trkpt>
      <trkpt lat="39.414315" lon="3.260068">
        <ele>11.624</ele>
        <time>2021-09-01T13:14:07Z</time>
      </trkpt>
      <trkpt lat="39.414256" lon="3.260061">
        <ele>12.398</ele>
        <time>2021-09-01T13:14:10Z</time>
      </trkpt>
      <trkpt lat="39.414210" lon="3.260061">
        <ele>12.737</ele>
        <time>2021-09-01T13:14:12Z</time>
      </trkpt>
      <trkpt lat="39.414150" lon="3.260075">
        <ele>13.432</ele>
        <time>2021-09-01T13:14:15Z</time>
      </trkpt>
      <trkpt lat="39.414093" lon="3.260065">
        <ele>14.079</ele>
        <time>2021-09-01T13:14:18Z</time>
      </trkpt>
      <trkpt lat="39.414051" lon="3.260086">
        <ele>14.379</ele>
        <time>2021-09-01T13:14:20Z</time>
      </trkpt>
      <trkpt lat="39.413982" lon="3.260093">
        <ele>14.887</ele>
        <time>2021-09-01T13:14:23Z</time>
      </trkpt>
      <trkpt lat="39.413915" lon="3.260089">
        <ele>15.442</ele>
        <time>2021-09-01T13:14:26Z</time>
      </trkpt>
      <trkpt lat="39.413869" lon="3.260092">
        <ele>15.726</ele>
        <time>2021-09-01T13:14:28Z</time>
      </trkpt>
      <trkpt lat="39.413804" lon="3.260097">
        <ele>16.308</ele>
        <time>2021-09-01T13:14:31Z</time>
      </trkpt>
      <trkpt lat="39.413746" lon="3.260104">
        <ele>16.696</ele>
        <time>2021-09-01T13:14:33Z</time>
      </trkpt>
      <trkpt lat="39.413690" lon="3.260105">
        <ele>16.980</ele>
        <time>2021-09-01T13:14:35Z</time>
      </trkpt>
      <trkpt lat="39.413640" lon="3.260095">
        <ele>17.365</ele>
        <time>2021-09-01T13:14:37Z</time>
      </trkpt>
      <trkpt lat="39.413586" lon="3.260092">
        <ele>17.779</ele>
        <time>2021-09-01T13:14:39Z</time>
      </trkpt>
      <trkpt lat="39.413527" lon="3.260076">
        <ele>18.058</ele>
        <time>2021-09-01T13:14:41Z</time>
      </trkpt>
      <trkpt lat="39.413467" lon="3.260082">
        <ele>18.383</ele>
        <time>2021-09-01T13:14:43Z</time>
      </trkpt>
      <trkpt lat="39.413413" lon="3.260096">
        <ele>18.710</ele>
        <time>2021-09-01T13:14:45Z</time>
      </trkpt>
      <trkpt lat="39.413357" lon="3.260100">
        <ele>19.060</ele>
        <time>2021-09-01T13:14:47Z</time>
      </trkpt>
      <trkpt lat="39.413301" lon="3.260098">
        <ele>19.449</ele>
        <time>2021-09-01T13:14:49Z</time>
      </trkpt>
      <trkpt lat="39.413245" lon="3.260099">
        <ele>19.702</ele>
        <time>2021-09-01T13:14:51Z</time>
      </trkpt>
      <trkpt lat="39.413188" lon="3.260106">
        <ele>20.022</ele>
        <time>2021-09-01T13:14:53Z</time>
      </trkpt>
      <trkpt lat="39.413128" lon="3.260112">
        <ele>20.308</ele>
        <time>2021-09-01T13:14:55Z</time>
      </trkpt>
      <trkpt lat="39.413064" lon="3.260118">
        <ele>20.632</ele>
        <time>2021-09-01T13:14:57Z</time>
      </trkpt>
      <trkpt lat="39.412994" lon="3.260137">
        <ele>20.936</ele>
        <time>2021-09-01T13:14:59Z</time>
      </trkpt>
      <trkpt lat="39.412914" lon="3.260135">
        <ele>21.041</ele>
        <time>2021-09-01T13:15:01Z</time>
      </trkpt>
      <trkpt lat="39.412830" lon="3.260132">
        <ele>21.045</ele>
        <time>2021-09-01T13:15:03Z</time>
      </trkpt>
      <trkpt lat="39.412740" lon="3.260135">
        <ele>20.984</ele>
        <time>2021-09-01T13:15:05Z</time>
      </trkpt>
      <trkpt lat="39.412654" lon="3.260135">
        <ele>20.669</ele>
        <time>2021-09-01T13:15:07Z</time>
      </trkpt>
      <trkpt lat="39.412609" lon="3.260131">
        <ele>20.526</ele>
        <time>2021-09-01T13:15:08Z</time>
      </trkpt>
      <trkpt lat="39.412553" lon="3.260126">
        <ele>20.386</ele>
        <time>2021-09-01T13:15:09Z</time>
      </trkpt>
      <trkpt lat="39.412499" lon="3.260123">
        <ele>20.219</ele>
        <time>2021-09-01T13:15:10Z</time>
      </trkpt>
      <trkpt lat="39.412447" lon="3.260110">
        <ele>20.009</ele>
        <time>2021-09-01T13:15:11Z</time>
      </trkpt>
      <trkpt lat="39.412390" lon="3.260093">
        <ele>19.919</ele>
        <time>2021-09-01T13:15:12Z</time>
      </trkpt>
      <trkpt lat="39.412338" lon="3.260079">
        <ele>19.708</ele>
        <time>2021-09-01T13:15:13Z</time>
      </trkpt>
      <trkpt lat="39.412292" lon="3.260049">
        <ele>19.739</ele>
        <time>2021-09-01T13:15:14Z</time>
      </trkpt>
      <trkpt lat="39.412242" lon="3.260029">
        <ele>19.743</ele>
        <time>2021-09-01T13:15:15Z</time>
      </trkpt>
      <trkpt lat="39.412202" lon="3.259993">
        <ele>19.848</ele>
        <time>2021-09-01T13:15:16Z</time>
      </trkpt>
      <trkpt lat="39.412147" lon="3.259974">
        <ele>19.952</ele>
        <time>2021-09-01T13:15:17Z</time>
      </trkpt>
      <trkpt lat="39.412061" lon="3.259930">
        <ele>20.251</ele>
        <time>2021-09-01T13:15:19Z</time>
      </trkpt>
      <trkpt lat="39.412017" lon="3.259899">
        <ele>20.326</ele>
        <time>2021-09-01T13:15:20Z</time>
      </trkpt>
      <trkpt lat="39.411968" lon="3.259874">
        <ele>20.483</ele>
        <time>2021-09-01T13:15:21Z</time>
      </trkpt>
      <trkpt lat="39.411899" lon="3.259849">
        <ele>21.083</ele>
        <time>2021-09-01T13:15:23Z</time>
      </trkpt>
      <trkpt lat="39.411820" lon="3.259807">
        <ele>21.536</ele>
        <time>2021-09-01T13:15:25Z</time>
      </trkpt>
      <trkpt lat="39.411775" lon="3.259776">
        <ele>21.817</ele>
        <time>2021-09-01T13:15:26Z</time>
      </trkpt>
      <trkpt lat="39.411691" lon="3.259732">
        <ele>21.918</ele>
        <time>2021-09-01T13:15:28Z</time>
      </trkpt>
      <trkpt lat="39.411643" lon="3.259708">
        <ele>21.908</ele>
        <time>2021-09-01T13:15:29Z</time>
      </trkpt>
      <trkpt lat="39.411593" lon="3.259693">
        <ele>22.021</ele>
        <time>2021-09-01T13:15:30Z</time>
      </trkpt>
      <trkpt lat="39.411510" lon="3.259687">
        <ele>22.265</ele>
        <time>2021-09-01T13:15:32Z</time>
      </trkpt>
      <trkpt lat="39.411455" lon="3.259685">
        <ele>22.370</ele>
        <time>2021-09-01T13:15:33Z</time>
      </trkpt>
      <trkpt lat="39.411405" lon="3.259684">
        <ele>22.434</ele>
        <time>2021-09-01T13:15:34Z</time>
      </trkpt>
      <trkpt lat="39.411355" lon="3.259678">
        <ele>22.593</ele>
        <time>2021-09-01T13:15:35Z</time>
      </trkpt>
      <trkpt lat="39.411306" lon="3.259683">
        <ele>22.698</ele>
        <time>2021-09-01T13:15:36Z</time>
      </trkpt>
      <trkpt lat="39.411253" lon="3.259686">
        <ele>22.615</ele>
        <time>2021-09-01T13:15:37Z</time>
      </trkpt>
      <trkpt lat="39.411205" lon="3.259690">
        <ele>22.625</ele>
        <time>2021-09-01T13:15:38Z</time>
      </trkpt>
      <trkpt lat="39.411156" lon="3.259694">
        <ele>22.656</ele>
        <time>2021-09-01T13:15:39Z</time>
      </trkpt>
      <trkpt lat="39.411110" lon="3.259694">
        <ele>22.559</ele>
        <time>2021-09-01T13:15:40Z</time>
      </trkpt>
      <trkpt lat="39.411055" lon="3.259696">
        <ele>22.414</ele>
        <time>2021-09-01T13:15:41Z</time>
      </trkpt>
      <trkpt lat="39.411000" lon="3.259703">
        <ele>22.408</ele>
        <time>2021-09-01T13:15:42Z</time>
      </trkpt>
      <trkpt lat="39.410943" lon="3.259711">
        <ele>22.353</ele>
        <time>2021-09-01T13:15:43Z</time>
      </trkpt>
      <trkpt lat="39.410893" lon="3.259698">
        <ele>22.337</ele>
        <time>2021-09-01T13:15:44Z</time>
      </trkpt>
      <trkpt lat="39.410838" lon="3.259702">
        <ele>22.222</ele>
        <time>2021-09-01T13:15:45Z</time>
      </trkpt>
      <trkpt lat="39.410792" lon="3.259706">
        <ele>22.096</ele>
        <time>2021-09-01T13:15:46Z</time>
      </trkpt>
      <trkpt lat="39.410743" lon="3.259697">
        <ele>21.835</ele>
        <time>2021-09-01T13:15:47Z</time>
      </trkpt>
      <trkpt lat="39.410696" lon="3.259685">
        <ele>21.430</ele>
        <time>2021-09-01T13:15:48Z</time>
      </trkpt>
      <trkpt lat="39.410625" lon="3.259601">
        <ele>20.347</ele>
        <time>2021-09-01T13:15:50Z</time>
      </trkpt>
      <trkpt lat="39.410613" lon="3.259523">
        <ele>19.977</ele>
        <time>2021-09-01T13:15:51Z</time>
      </trkpt>
      <trkpt lat="39.410597" lon="3.259438">
        <ele>19.489</ele>
        <time>2021-09-01T13:15:52Z</time>
      </trkpt>
      <trkpt lat="39.410581" lon="3.259367">
        <ele>19.106</ele>
        <time>2021-09-01T13:15:53Z</time>
      </trkpt>
      <trkpt lat="39.410565" lon="3.259284">
        <ele>18.826</ele>
        <time>2021-09-01T13:15:54Z</time>
      </trkpt>
      <trkpt lat="39.410557" lon="3.259202">
        <ele>18.408</ele>
        <time>2021-09-01T13:15:55Z</time>
      </trkpt>
      <trkpt lat="39.410544" lon="3.259115">
        <ele>18.186</ele>
        <time>2021-09-01T13:15:56Z</time>
      </trkpt>
      <trkpt lat="39.410532" lon="3.259028">
        <ele>17.740</ele>
        <time>2021-09-01T13:15:57Z</time>
      </trkpt>
      <trkpt lat="39.410525" lon="3.258948">
        <ele>17.445</ele>
        <time>2021-09-01T13:15:58Z</time>
      </trkpt>
      <trkpt lat="39.410526" lon="3.258861">
        <ele>17.239</ele>
        <time>2021-09-01T13:15:59Z</time>
      </trkpt>
      <trkpt lat="39.410534" lon="3.258774">
        <ele>17.058</ele>
        <time>2021-09-01T13:16:00Z</time>
      </trkpt>
      <trkpt lat="39.410540" lon="3.258689">
        <ele>17.063</ele>
        <time>2021-09-01T13:16:01Z</time>
      </trkpt>
      <trkpt lat="39.410550" lon="3.258616">
        <ele>17.020</ele>
        <time>2021-09-01T13:16:02Z</time>
      </trkpt>
      <trkpt lat="39.410557" lon="3.258545">
        <ele>17.060</ele>
        <time>2021-09-01T13:16:03Z</time>
      </trkpt>
      <trkpt lat="39.410562" lon="3.258467">
        <ele>17.098</ele>
        <time>2021-09-01T13:16:04Z</time>
      </trkpt>
      <trkpt lat="39.410568" lon="3.258387">
        <ele>17.015</ele>
        <time>2021-09-01T13:16:05Z</time>
      </trkpt>
      <trkpt lat="39.410575" lon="3.258305">
        <ele>16.926</ele>
        <time>2021-09-01T13:16:06Z</time>
      </trkpt>
      <trkpt lat="39.410575" lon="3.258226">
        <ele>16.808</ele>
        <time>2021-09-01T13:16:07Z</time>
      </trkpt>
      <trkpt lat="39.410586" lon="3.258143">
        <ele>16.777</ele>
        <time>2021-09-01T13:16:08Z</time>
      </trkpt>
      <trkpt lat="39.410595" lon="3.258057">
        <ele>16.711</ele>
        <time>2021-09-01T13:16:09Z</time>
      </trkpt>
      <trkpt lat="39.410601" lon="3.257967">
        <ele>16.646</ele>
        <time>2021-09-01T13:16:10Z</time>
      </trkpt>
      <trkpt lat="39.410593" lon="3.257878">
        <ele>16.480</ele>
        <time>2021-09-01T13:16:11Z</time>
      </trkpt>
      <trkpt lat="39.410567" lon="3.257793">
        <ele>16.349</ele>
        <time>2021-09-01T13:16:12Z</time>
      </trkpt>
      <trkpt lat="39.410536" lon="3.257698">
        <ele>16.114</ele>
        <time>2021-09-01T13:16:13Z</time>
      </trkpt>
      <trkpt lat="39.410509" lon="3.257601">
        <ele>15.911</ele>
        <time>2021-09-01T13:16:14Z</time>
      </trkpt>
      <trkpt lat="39.410482" lon="3.257500">
        <ele>15.611</ele>
        <time>2021-09-01T13:16:15Z</time>
      </trkpt>
      <trkpt lat="39.410452" lon="3.257398">
        <ele>15.263</ele>
        <time>2021-09-01T13:16:16Z</time>
      </trkpt>
      <trkpt lat="39.410430" lon="3.257283">
        <ele>14.744</ele>
        <time>2021-09-01T13:16:17Z</time>
      </trkpt>
      <trkpt lat="39.410442" lon="3.257172">
        <ele>14.018</ele>
        <time>2021-09-01T13:16:18Z</time>
      </trkpt>
      <trkpt lat="39.410476" lon="3.257060">
        <ele>13.208</ele>
        <time>2021-09-01T13:16:19Z</time>
      </trkpt>
      <trkpt lat="39.410519" lon="3.256951">
        <ele>12.234</ele>
        <time>2021-09-01T13:16:20Z</time>
      </trkpt>
      <trkpt lat="39.410541" lon="3.256834">
        <ele>11.318</ele>
        <time>2021-09-01T13:16:21Z</time>
      </trkpt>
      <trkpt lat="39.410513" lon="3.256722">
        <ele>10.353</ele>
        <time>2021-09-01T13:16:22Z</time>
      </trkpt>
      <trkpt lat="39.410456" lon="3.256637">
        <ele>9.467</ele>
        <time>2021-09-01T13:16:23Z</time>
      </trkpt>
      <trkpt lat="39.410374" lon="3.256594">
        <ele>8.796</ele>
        <time>2021-09-01T13:16:24Z</time>
      </trkpt>
      <trkpt lat="39.410291" lon="3.256582">
        <ele>8.251</ele>
        <time>2021-09-01T13:16:25Z</time>
      </trkpt>
      <trkpt lat="39.410220" lon="3.256619">
        <ele>7.888</ele>
        <time>2021-09-01T13:16:26Z</time>
      </trkpt>
      <trkpt lat="39.410158" lon="3.256672">
        <ele>7.718</ele>
        <time>2021-09-01T13:16:27Z</time>
      </trkpt>
      <trkpt lat="39.410109" lon="3.256734">
        <ele>7.775</ele>
        <time>2021-09-01T13:16:28Z</time>
      </trkpt>
      <trkpt lat="39.410075" lon="3.256804">
        <ele>7.728</ele>
        <time>2021-09-01T13:16:29Z</time>
      </trkpt>
      <trkpt lat="39.410035" lon="3.256857">
        <ele>7.820</ele>
        <time>2021-09-01T13:16:30Z</time>
      </trkpt>
      <trkpt lat="39.409994" lon="3.256902">
        <ele>7.808</ele>
        <time>2021-09-01T13:16:31Z</time>
      </trkpt>
      <trkpt lat="39.409952" lon="3.256948">
        <ele>7.865</ele>
        <time>2021-09-01T13:16:32Z</time>
      </trkpt>
      <trkpt lat="39.409901" lon="3.256998">
        <ele>7.619</ele>
        <time>2021-09-01T13:16:33Z</time>
      </trkpt>
      <trkpt lat="39.409854" lon="3.257044">
        <ele>7.594</ele>
        <time>2021-09-01T13:16:34Z</time>
      </trkpt>
      <trkpt lat="39.409804" lon="3.257082">
        <ele>7.488</ele>
        <time>2021-09-01T13:16:35Z</time>
      </trkpt>
      <trkpt lat="39.409761" lon="3.257129">
        <ele>7.397</ele>
        <time>2021-09-01T13:16:36Z</time>
      </trkpt>
      <trkpt lat="39.409715" lon="3.257172">
        <ele>7.262</ele>
        <time>2021-09-01T13:16:37Z</time>
      </trkpt>
      <trkpt lat="39.409674" lon="3.257196">
        <ele>7.129</ele>
        <time>2021-09-01T13:16:38Z</time>
      </trkpt>
      <trkpt lat="39.409633" lon="3.257223">
        <ele>7.139</ele>
        <time>2021-09-01T13:16:39Z</time>
      </trkpt>
      <trkpt lat="39.409563" lon="3.257248">
        <ele>7.555</ele>
        <time>2021-09-01T13:16:41Z</time>
      </trkpt>
      <trkpt lat="39.409508" lon="3.257260">
        <ele>8.307</ele>
        <time>2021-09-01T13:16:43Z</time>
      </trkpt>
      <trkpt lat="39.409460" lon="3.257265">
        <ele>9.217</ele>
        <time>2021-09-01T13:16:45Z</time>
      </trkpt>
      <trkpt lat="39.409412" lon="3.257273">
        <ele>10.208</ele>
        <time>2021-09-01T13:16:47Z</time>
      </trkpt>
      <trkpt lat="39.409347" lon="3.257288">
        <ele>11.153</ele>
        <time>2021-09-01T13:16:50Z</time>
      </trkpt>
      <trkpt lat="39.409300" lon="3.257300">
        <ele>11.657</ele>
        <time>2021-09-01T13:16:52Z</time>
      </trkpt>
      <trkpt lat="39.409253" lon="3.257318">
        <ele>12.242</ele>
        <time>2021-09-01T13:16:54Z</time>
      </trkpt>
      <trkpt lat="39.409202" lon="3.257326">
        <ele>13.316</ele>
        <time>2021-09-01T13:16:57Z</time>
      </trkpt>
      <trkpt lat="39.409157" lon="3.257318">
        <ele>14.165</ele>
        <time>2021-09-01T13:16:59Z</time>
      </trkpt>
      <trkpt lat="39.409093" lon="3.257302">
        <ele>15.230</ele>
        <time>2021-09-01T13:17:02Z</time>
      </trkpt>
      <trkpt lat="39.409059" lon="3.257243">
        <ele>16.057</ele>
        <time>2021-09-01T13:17:05Z</time>
      </trkpt>
      <trkpt lat="39.409057" lon="3.257182">
        <ele>16.597</ele>
        <time>2021-09-01T13:17:07Z</time>
      </trkpt>
      <trkpt lat="39.409046" lon="3.257111">
        <ele>16.818</ele>
        <time>2021-09-01T13:17:09Z</time>
      </trkpt>
      <trkpt lat="39.409024" lon="3.257046">
        <ele>16.998</ele>
        <time>2021-09-01T13:17:11Z</time>
      </trkpt>
      <trkpt lat="39.409012" lon="3.256977">
        <ele>17.017</ele>
        <time>2021-09-01T13:17:13Z</time>
      </trkpt>
      <trkpt lat="39.408999" lon="3.256900">
        <ele>16.908</ele>
        <time>2021-09-01T13:17:15Z</time>
      </trkpt>
      <trkpt lat="39.408992" lon="3.256822">
        <ele>16.919</ele>
        <time>2021-09-01T13:17:17Z</time>
      </trkpt>
      <trkpt lat="39.408967" lon="3.256748">
        <ele>16.953</ele>
        <time>2021-09-01T13:17:19Z</time>
      </trkpt>
      <trkpt lat="39.408954" lon="3.256665">
        <ele>17.088</ele>
        <time>2021-09-01T13:17:21Z</time>
      </trkpt>
      <trkpt lat="39.408951" lon="3.256578">
        <ele>17.152</ele>
        <time>2021-09-01T13:17:23Z</time>
      </trkpt>
      <trkpt lat="39.408951" lon="3.256506">
        <ele>17.281</ele>
        <time>2021-09-01T13:17:25Z</time>
      </trkpt>
      <trkpt lat="39.408950" lon="3.256423">
        <ele>17.346</ele>
        <time>2021-09-01T13:17:27Z</time>
      </trkpt>
      <trkpt lat="39.408959" lon="3.256364">
        <ele>17.523</ele>
        <time>2021-09-01T13:17:29Z</time>
      </trkpt>
      <trkpt lat="39.408949" lon="3.256305">
        <ele>17.893</ele>
        <time>2021-09-01T13:17:31Z</time>
      </trkpt>
      <trkpt lat="39.408912" lon="3.256267">
        <ele>18.281</ele>
        <time>2021-09-01T13:17:33Z</time>
      </trkpt>
      <trkpt lat="39.408875" lon="3.256225">
        <ele>18.561</ele>
        <time>2021-09-01T13:17:35Z</time>
      </trkpt>
      <trkpt lat="39.408824" lon="3.256176">
        <ele>18.617</ele>
        <time>2021-09-01T13:17:37Z</time>
      </trkpt>
      <trkpt lat="39.408810" lon="3.256107">
        <ele>18.708</ele>
        <time>2021-09-01T13:17:39Z</time>
      </trkpt>
      <trkpt lat="39.408778" lon="3.256041">
        <ele>18.846</ele>
        <time>2021-09-01T13:17:41Z</time>
      </trkpt>
      <trkpt lat="39.408754" lon="3.255971">
        <ele>19.130</ele>
        <time>2021-09-01T13:17:43Z</time>
      </trkpt>
      <trkpt lat="39.408709" lon="3.255920">
        <ele>19.425</ele>
        <time>2021-09-01T13:17:45Z</time>
      </trkpt>
      <trkpt lat="39.408655" lon="3.255868">
        <ele>19.569</ele>
        <time>2021-09-01T13:17:47Z</time>
      </trkpt>
      <trkpt lat="39.408611" lon="3.255791">
        <ele>19.688</ele>
        <time>2021-09-01T13:17:49Z</time>
      </trkpt>
      <trkpt lat="39.408558" lon="3.255719">
        <ele>19.963</ele>
        <time>2021-09-01T13:17:51Z</time>
      </trkpt>
      <trkpt lat="39.408497" lon="3.255654">
        <ele>20.110</ele>
        <time>2021-09-01T13:17:53Z</time>
      </trkpt>
      <trkpt lat="39.408436" lon="3.255570">
        <ele>20.130</ele>
        <time>2021-09-01T13:17:55Z</time>
      </trkpt>
      <trkpt lat="39.408383" lon="3.255498">
        <ele>20.023</ele>
        <time>2021-09-01T13:17:57Z</time>
      </trkpt>
      <trkpt lat="39.408323" lon="3.255425">
        <ele>19.783</ele>
        <time>2021-09-01T13:17:59Z</time>
      </trkpt>
      <trkpt lat="39.408303" lon="3.255366">
        <ele>19.511</ele>
        <time>2021-09-01T13:18:00Z</time>
      </trkpt>
      <trkpt lat="39.408272" lon="3.255283">
        <ele>19.208</ele>
        <time>2021-09-01T13:18:02Z</time>
      </trkpt>
      <trkpt lat="39.408219" lon="3.255205">
        <ele>19.060</ele>
        <time>2021-09-01T13:18:04Z</time>
      </trkpt>
      <trkpt lat="39.408183" lon="3.255115">
        <ele>18.854</ele>
        <time>2021-09-01T13:18:06Z</time>
      </trkpt>
      <trkpt lat="39.408146" lon="3.255034">
        <ele>18.859</ele>
        <time>2021-09-01T13:18:08Z</time>
      </trkpt>
      <trkpt lat="39.408092" lon="3.254963">
        <ele>18.853</ele>
        <time>2021-09-01T13:18:10Z</time>
      </trkpt>
      <trkpt lat="39.408027" lon="3.254915">
        <ele>18.872</ele>
        <time>2021-09-01T13:18:12Z</time>
      </trkpt>
      <trkpt lat="39.408000" lon="3.254866">
        <ele>18.827</ele>
        <time>2021-09-01T13:18:13Z</time>
      </trkpt>
      <trkpt lat="39.407979" lon="3.254807">
        <ele>18.714</ele>
        <time>2021-09-01T13:18:14Z</time>
      </trkpt>
      <trkpt lat="39.407944" lon="3.254710">
        <ele>18.584</ele>
        <time>2021-09-01T13:18:16Z</time>
      </trkpt>
      <trkpt lat="39.407893" lon="3.254626">
        <ele>18.591</ele>
        <time>2021-09-01T13:18:18Z</time>
      </trkpt>
      <trkpt lat="39.407824" lon="3.254579">
        <ele>18.481</ele>
        <time>2021-09-01T13:18:20Z</time>
      </trkpt>
      <trkpt lat="39.407772" lon="3.254579">
        <ele>18.319</ele>
        <time>2021-09-01T13:18:21Z</time>
      </trkpt>
      <trkpt lat="39.407713" lon="3.254584">
        <ele>18.308</ele>
        <time>2021-09-01T13:18:22Z</time>
      </trkpt>
      <trkpt lat="39.407653" lon="3.254580">
        <ele>18.087</ele>
        <time>2021-09-01T13:18:23Z</time>
      </trkpt>
      <trkpt lat="39.407598" lon="3.254570">
        <ele>17.811</ele>
        <time>2021-09-01T13:18:24Z</time>
      </trkpt>
      <trkpt lat="39.407545" lon="3.254560">
        <ele>17.696</ele>
        <time>2021-09-01T13:18:25Z</time>
      </trkpt>
      <trkpt lat="39.407494" lon="3.254554">
        <ele>17.450</ele>
        <time>2021-09-01T13:18:26Z</time>
      </trkpt>
      <trkpt lat="39.407444" lon="3.254540">
        <ele>17.149</ele>
        <time>2021-09-01T13:18:27Z</time>
      </trkpt>
      <trkpt lat="39.407392" lon="3.254534">
        <ele>16.964</ele>
        <time>2021-09-01T13:18:28Z</time>
      </trkpt>
      <trkpt lat="39.407339" lon="3.254530">
        <ele>16.861</ele>
        <time>2021-09-01T13:18:29Z</time>
      </trkpt>
      <trkpt lat="39.407292" lon="3.254516">
        <ele>16.871</ele>
        <time>2021-09-01T13:18:30Z</time>
      </trkpt>
      <trkpt lat="39.407240" lon="3.254509">
        <ele>16.744</ele>
        <time>2021-09-01T13:18:31Z</time>
      </trkpt>
      <trkpt lat="39.407183" lon="3.254511">
        <ele>16.705</ele>
        <time>2021-09-01T13:18:32Z</time>
      </trkpt>
      <trkpt lat="39.407133" lon="3.254502">
        <ele>16.715</ele>
        <time>2021-09-01T13:18:33Z</time>
      </trkpt>
      <trkpt lat="39.407083" lon="3.254493">
        <ele>16.708</ele>
        <time>2021-09-01T13:18:34Z</time>
      </trkpt>
      <trkpt lat="39.406996" lon="3.254476">
        <ele>16.912</ele>
        <time>2021-09-01T13:18:36Z</time>
      </trkpt>
      <trkpt lat="39.406925" lon="3.254446">
        <ele>17.156</ele>
        <time>2021-09-01T13:18:38Z</time>
      </trkpt>
      <trkpt lat="39.406874" lon="3.254407">
        <ele>17.281</ele>
        <time>2021-09-01T13:18:40Z</time>
      </trkpt>
      <trkpt lat="39.406820" lon="3.254378">
        <ele>17.685</ele>
        <time>2021-09-01T13:18:43Z</time>
      </trkpt>
      <trkpt lat="39.406777" lon="3.254358">
        <ele>17.924</ele>
        <time>2021-09-01T13:18:45Z</time>
      </trkpt>
      <trkpt lat="39.406728" lon="3.254319">
        <ele>18.669</ele>
        <time>2021-09-01T13:18:48Z</time>
      </trkpt>
      <trkpt lat="39.406674" lon="3.254290">
        <ele>19.736</ele>
        <time>2021-09-01T13:18:51Z</time>
      </trkpt>
      <trkpt lat="39.406608" lon="3.254271">
        <ele>20.676</ele>
        <time>2021-09-01T13:18:54Z</time>
      </trkpt>
      <trkpt lat="39.406569" lon="3.254240">
        <ele>20.941</ele>
        <time>2021-09-01T13:18:56Z</time>
      </trkpt>
      <trkpt lat="39.406515" lon="3.254209">
        <ele>21.581</ele>
        <time>2021-09-01T13:18:59Z</time>
      </trkpt>
      <trkpt lat="39.406459" lon="3.254166">
        <ele>22.009</ele>
        <time>2021-09-01T13:19:02Z</time>
      </trkpt>
      <trkpt lat="39.406398" lon="3.254124">
        <ele>22.508</ele>
        <time>2021-09-01T13:19:05Z</time>
      </trkpt>
      <trkpt lat="39.406355" lon="3.254104">
        <ele>22.912</ele>
        <time>2021-09-01T13:19:07Z</time>
      </trkpt>
      <trkpt lat="39.406292" lon="3.254073">
        <ele>23.686</ele>
        <time>2021-09-01T13:19:10Z</time>
      </trkpt>
      <trkpt lat="39.406246" lon="3.254049">
        <ele>24.091</ele>
        <time>2021-09-01T13:19:12Z</time>
      </trkpt>
      <trkpt lat="39.406199" lon="3.254031">
        <ele>24.285</ele>
        <time>2021-09-01T13:19:14Z</time>
      </trkpt>
      <trkpt lat="39.406157" lon="3.253985">
        <ele>24.684</ele>
        <time>2021-09-01T13:19:16Z</time>
      </trkpt>
      <trkpt lat="39.406111" lon="3.253960">
        <ele>25.159</ele>
        <time>2021-09-01T13:19:18Z</time>
      </trkpt>
      <trkpt lat="39.406057" lon="3.253928">
        <ele>25.516</ele>
        <time>2021-09-01T13:19:21Z</time>
      </trkpt>
      <trkpt lat="39.406003" lon="3.253900">
        <ele>25.616</ele>
        <time>2021-09-01T13:19:23Z</time>
      </trkpt>
      <trkpt lat="39.405951" lon="3.253874">
        <ele>25.713</ele>
        <time>2021-09-01T13:19:25Z</time>
      </trkpt>
      <trkpt lat="39.405891" lon="3.253839">
        <ele>25.843</ele>
        <time>2021-09-01T13:19:27Z</time>
      </trkpt>
      <trkpt lat="39.405840" lon="3.253808">
        <ele>25.807</ele>
        <time>2021-09-01T13:19:29Z</time>
      </trkpt>
      <trkpt lat="39.405788" lon="3.253786">
        <ele>26.008</ele>
        <time>2021-09-01T13:19:31Z</time>
      </trkpt>
      <trkpt lat="39.405739" lon="3.253759">
        <ele>26.189</ele>
        <time>2021-09-01T13:19:33Z</time>
      </trkpt>
      <trkpt lat="39.405702" lon="3.253697">
        <ele>26.393</ele>
        <time>2021-09-01T13:19:36Z</time>
      </trkpt>
      <trkpt lat="39.405702" lon="3.253622">
        <ele>26.558</ele>
        <time>2021-09-01T13:19:38Z</time>
      </trkpt>
      <trkpt lat="39.405715" lon="3.253543">
        <ele>26.742</ele>
        <time>2021-09-01T13:19:40Z</time>
      </trkpt>
      <trkpt lat="39.405717" lon="3.253457">
        <ele>26.821</ele>
        <time>2021-09-01T13:19:42Z</time>
      </trkpt>
      <trkpt lat="39.405713" lon="3.253398">
        <ele>27.036</ele>
        <time>2021-09-01T13:19:44Z</time>
      </trkpt>
      <trkpt lat="39.405722" lon="3.253328">
        <ele>27.173</ele>
        <time>2021-09-01T13:19:46Z</time>
      </trkpt>
      <trkpt lat="39.405716" lon="3.253262">
        <ele>27.133</ele>
        <time>2021-09-01T13:19:48Z</time>
      </trkpt>
      <trkpt lat="39.405718" lon="3.253202">
        <ele>27.158</ele>
        <time>2021-09-01T13:19:50Z</time>
      </trkpt>
      <trkpt lat="39.405729" lon="3.253136">
        <ele>27.152</ele>
        <time>2021-09-01T13:19:52Z</time>
      </trkpt>
      <trkpt lat="39.405735" lon="3.253060">
        <ele>27.217</ele>
        <time>2021-09-01T13:19:54Z</time>
      </trkpt>
      <trkpt lat="39.405739" lon="3.252975">
        <ele>27.308</ele>
        <time>2021-09-01T13:19:56Z</time>
      </trkpt>
      <trkpt lat="39.405746" lon="3.252888">
        <ele>27.463</ele>
        <time>2021-09-01T13:19:58Z</time>
      </trkpt>
      <trkpt lat="39.405748" lon="3.252799">
        <ele>27.557</ele>
        <time>2021-09-01T13:20:00Z</time>
      </trkpt>
      <trkpt lat="39.405748" lon="3.252700">
        <ele>27.542</ele>
        <time>2021-09-01T13:20:02Z</time>
      </trkpt>
      <trkpt lat="39.405756" lon="3.252616">
        <ele>27.636</ele>
        <time>2021-09-01T13:20:04Z</time>
      </trkpt>
      <trkpt lat="39.405766" lon="3.252525">
        <ele>27.615</ele>
        <time>2021-09-01T13:20:06Z</time>
      </trkpt>
      <trkpt lat="39.405769" lon="3.252431">
        <ele>27.850</ele>
        <time>2021-09-01T13:20:08Z</time>
      </trkpt>
      <trkpt lat="39.405773" lon="3.252339">
        <ele>28.027</ele>
        <time>2021-09-01T13:20:10Z</time>
      </trkpt>
      <trkpt lat="39.405779" lon="3.252252">
        <ele>28.157</ele>
        <time>2021-09-01T13:20:12Z</time>
      </trkpt>
      <trkpt lat="39.405782" lon="3.252154">
        <ele>28.398</ele>
        <time>2021-09-01T13:20:14Z</time>
      </trkpt>
      <trkpt lat="39.405788" lon="3.252063">
        <ele>28.515</ele>
        <time>2021-09-01T13:20:16Z</time>
      </trkpt>
      <trkpt lat="39.405795" lon="3.251972">
        <ele>28.726</ele>
        <time>2021-09-01T13:20:18Z</time>
      </trkpt>
      <trkpt lat="39.405795" lon="3.251889">
        <ele>29.108</ele>
        <time>2021-09-01T13:20:20Z</time>
      </trkpt>
      <trkpt lat="39.405805" lon="3.251800">
        <ele>29.387</ele>
        <time>2021-09-01T13:20:22Z</time>
      </trkpt>
      <trkpt lat="39.405817" lon="3.251722">
        <ele>29.581</ele>
        <time>2021-09-01T13:20:24Z</time>
      </trkpt>
      <trkpt lat="39.405860" lon="3.251641">
        <ele>29.546</ele>
        <time>2021-09-01T13:20:26Z</time>
      </trkpt>
      <trkpt lat="39.405921" lon="3.251593">
        <ele>29.760</ele>
        <time>2021-09-01T13:20:28Z</time>
      </trkpt>
      <trkpt lat="39.405961" lon="3.251523">
        <ele>29.849</ele>
        <time>2021-09-01T13:20:30Z</time>
      </trkpt>
      <trkpt lat="39.405985" lon="3.251444">
        <ele>30.154</ele>
        <time>2021-09-01T13:20:32Z</time>
      </trkpt>
      <trkpt lat="39.405980" lon="3.251349">
        <ele>30.171</ele>
        <time>2021-09-01T13:20:34Z</time>
      </trkpt>
      <trkpt lat="39.405989" lon="3.251257">
        <ele>30.221</ele>
        <time>2021-09-01T13:20:36Z</time>
      </trkpt>
      <trkpt lat="39.405986" lon="3.251164">
        <ele>30.411</ele>
        <time>2021-09-01T13:20:38Z</time>
      </trkpt>
      <trkpt lat="39.405984" lon="3.251074">
        <ele>30.621</ele>
        <time>2021-09-01T13:20:40Z</time>
      </trkpt>
      <trkpt lat="39.405990" lon="3.250979">
        <ele>30.803</ele>
        <time>2021-09-01T13:20:42Z</time>
      </trkpt>
      <trkpt lat="39.405994" lon="3.250883">
        <ele>30.908</ele>
        <time>2021-09-01T13:20:44Z</time>
      </trkpt>
      <trkpt lat="39.405998" lon="3.250790">
        <ele>31.139</ele>
        <time>2021-09-01T13:20:46Z</time>
      </trkpt>
      <trkpt lat="39.406007" lon="3.250692">
        <ele>31.133</ele>
        <time>2021-09-01T13:20:48Z</time>
      </trkpt>
      <trkpt lat="39.406009" lon="3.250596">
        <ele>31.258</ele>
        <time>2021-09-01T13:20:50Z</time>
      </trkpt>
      <trkpt lat="39.406020" lon="3.250496">
        <ele>31.292</ele>
        <time>2021-09-01T13:20:52Z</time>
      </trkpt>
      <trkpt lat="39.406015" lon="3.250390">
        <ele>31.211</ele>
        <time>2021-09-01T13:20:54Z</time>
      </trkpt>
      <trkpt lat="39.406027" lon="3.250282">
        <ele>31.276</ele>
        <time>2021-09-01T13:20:56Z</time>
      </trkpt>
      <trkpt lat="39.406033" lon="3.250181">
        <ele>31.113</ele>
        <time>2021-09-01T13:20:58Z</time>
      </trkpt>
      <trkpt lat="39.406031" lon="3.250076">
        <ele>31.233</ele>
        <time>2021-09-01T13:21:00Z</time>
      </trkpt>
      <trkpt lat="39.406035" lon="3.249959">
        <ele>31.366</ele>
        <time>2021-09-01T13:21:02Z</time>
      </trkpt>
      <trkpt lat="39.406032" lon="3.249850">
        <ele>31.329</ele>
        <time>2021-09-01T13:21:04Z</time>
      </trkpt>
      <trkpt lat="39.406033" lon="3.249788">
        <ele>31.321</ele>
        <time>2021-09-01T13:21:05Z</time>
      </trkpt>
      <trkpt lat="39.406048" lon="3.249679">
        <ele>31.208</ele>
        <time>2021-09-01T13:21:07Z</time>
      </trkpt>
      <trkpt lat="39.406041" lon="3.249571">
        <ele>31.194</ele>
        <time>2021-09-01T13:21:09Z</time>
      </trkpt>
      <trkpt lat="39.406055" lon="3.249470">
        <ele>30.968</ele>
        <time>2021-09-01T13:21:11Z</time>
      </trkpt>
      <trkpt lat="39.406078" lon="3.249411">
        <ele>30.993</ele>
        <time>2021-09-01T13:21:12Z</time>
      </trkpt>
      <trkpt lat="39.406112" lon="3.249364">
        <ele>30.967</ele>
        <time>2021-09-01T13:21:13Z</time>
      </trkpt>
      <trkpt lat="39.406150" lon="3.249327">
        <ele>30.866</ele>
        <time>2021-09-01T13:21:14Z</time>
      </trkpt>
      <trkpt lat="39.406213" lon="3.249262">
        <ele>30.861</ele>
        <time>2021-09-01T13:21:16Z</time>
      </trkpt>
      <trkpt lat="39.406249" lon="3.249209">
        <ele>30.768</ele>
        <time>2021-09-01T13:21:17Z</time>
      </trkpt>
      <trkpt lat="39.406303" lon="3.249121">
        <ele>30.768</ele>
        <time>2021-09-01T13:21:19Z</time>
      </trkpt>
      <trkpt lat="39.406335" lon="3.249075">
        <ele>30.786</ele>
        <time>2021-09-01T13:21:20Z</time>
      </trkpt>
      <trkpt lat="39.406369" lon="3.249036">
        <ele>30.860</ele>
        <time>2021-09-01T13:21:21Z</time>
      </trkpt>
      <trkpt lat="39.406427" lon="3.248962">
        <ele>30.926</ele>
        <time>2021-09-01T13:21:23Z</time>
      </trkpt>
      <trkpt lat="39.406476" lon="3.248892">
        <ele>30.908</ele>
        <time>2021-09-01T13:21:25Z</time>
      </trkpt>
      <trkpt lat="39.406537" lon="3.248817">
        <ele>31.086</ele>
        <time>2021-09-01T13:21:27Z</time>
      </trkpt>
      <trkpt lat="39.406588" lon="3.248723">
        <ele>31.030</ele>
        <time>2021-09-01T13:21:29Z</time>
      </trkpt>
      <trkpt lat="39.406634" lon="3.248638">
        <ele>31.235</ele>
        <time>2021-09-01T13:21:31Z</time>
      </trkpt>
      <trkpt lat="39.406672" lon="3.248542">
        <ele>31.519</ele>
        <time>2021-09-01T13:21:33Z</time>
      </trkpt>
      <trkpt lat="39.406680" lon="3.248439">
        <ele>31.838</ele>
        <time>2021-09-01T13:21:35Z</time>
      </trkpt>
      <trkpt lat="39.406686" lon="3.248377">
        <ele>31.943</ele>
        <time>2021-09-01T13:21:36Z</time>
      </trkpt>
      <trkpt lat="39.406685" lon="3.248261">
        <ele>31.920</ele>
        <time>2021-09-01T13:21:38Z</time>
      </trkpt>
      <trkpt lat="39.406684" lon="3.248149">
        <ele>31.840</ele>
        <time>2021-09-01T13:21:40Z</time>
      </trkpt>
      <trkpt lat="39.406671" lon="3.248053">
        <ele>31.683</ele>
        <time>2021-09-01T13:21:42Z</time>
      </trkpt>
      <trkpt lat="39.406646" lon="3.247964">
        <ele>31.325</ele>
        <time>2021-09-01T13:21:44Z</time>
      </trkpt>
      <trkpt lat="39.406635" lon="3.247851">
        <ele>31.017</ele>
        <time>2021-09-01T13:21:46Z</time>
      </trkpt>
      <trkpt lat="39.406630" lon="3.247788">
        <ele>30.808</ele>
        <time>2021-09-01T13:21:47Z</time>
      </trkpt>
      <trkpt lat="39.406633" lon="3.247724">
        <ele>30.656</ele>
        <time>2021-09-01T13:21:48Z</time>
      </trkpt>
      <trkpt lat="39.406631" lon="3.247665">
        <ele>30.580</ele>
        <time>2021-09-01T13:21:49Z</time>
      </trkpt>
      <trkpt lat="39.406630" lon="3.247603">
        <ele>30.475</ele>
        <time>2021-09-01T13:21:50Z</time>
      </trkpt>
      <trkpt lat="39.406618" lon="3.247538">
        <ele>30.339</ele>
        <time>2021-09-01T13:21:51Z</time>
      </trkpt>
      <trkpt lat="39.406608" lon="3.247468">
        <ele>30.318</ele>
        <time>2021-09-01T13:21:52Z</time>
      </trkpt>
      <trkpt lat="39.406596" lon="3.247406">
        <ele>30.253</ele>
        <time>2021-09-01T13:21:53Z</time>
      </trkpt>
      <trkpt lat="39.406583" lon="3.247343">
        <ele>30.150</ele>
        <time>2021-09-01T13:21:54Z</time>
      </trkpt>
      <trkpt lat="39.406574" lon="3.247286">
        <ele>30.150</ele>
        <time>2021-09-01T13:21:55Z</time>
      </trkpt>
      <trkpt lat="39.406565" lon="3.247224">
        <ele>30.281</ele>
        <time>2021-09-01T13:21:56Z</time>
      </trkpt>
      <trkpt lat="39.406553" lon="3.247165">
        <ele>30.261</ele>
        <time>2021-09-01T13:21:57Z</time>
      </trkpt>
      <trkpt lat="39.406548" lon="3.247090">
        <ele>30.217</ele>
        <time>2021-09-01T13:21:58Z</time>
      </trkpt>
      <trkpt lat="39.406548" lon="3.247025">
        <ele>30.208</ele>
        <time>2021-09-01T13:21:59Z</time>
      </trkpt>
      <trkpt lat="39.406547" lon="3.246957">
        <ele>30.176</ele>
        <time>2021-09-01T13:22:00Z</time>
      </trkpt>
      <trkpt lat="39.406546" lon="3.246887">
        <ele>30.160</ele>
        <time>2021-09-01T13:22:01Z</time>
      </trkpt>
      <trkpt lat="39.406549" lon="3.246814">
        <ele>30.125</ele>
        <time>2021-09-01T13:22:02Z</time>
      </trkpt>
      <trkpt lat="39.406551" lon="3.246745">
        <ele>30.189</ele>
        <time>2021-09-01T13:22:03Z</time>
      </trkpt>
      <trkpt lat="39.406552" lon="3.246681">
        <ele>30.178</ele>
        <time>2021-09-01T13:22:04Z</time>
      </trkpt>
      <trkpt lat="39.406557" lon="3.246616">
        <ele>30.143</ele>
        <time>2021-09-01T13:22:05Z</time>
      </trkpt>
      <trkpt lat="39.406567" lon="3.246541">
        <ele>30.150</ele>
        <time>2021-09-01T13:22:06Z</time>
      </trkpt>
      <trkpt lat="39.406579" lon="3.246479">
        <ele>30.170</ele>
        <time>2021-09-01T13:22:07Z</time>
      </trkpt>
      <trkpt lat="39.406600" lon="3.246413">
        <ele>30.165</ele>
        <time>2021-09-01T13:22:08Z</time>
      </trkpt>
      <trkpt lat="39.406617" lon="3.246354">
        <ele>30.168</ele>
        <time>2021-09-01T13:22:09Z</time>
      </trkpt>
      <trkpt lat="39.406638" lon="3.246293">
        <ele>30.114</ele>
        <time>2021-09-01T13:22:10Z</time>
      </trkpt>
      <trkpt lat="39.406656" lon="3.246227">
        <ele>30.208</ele>
        <time>2021-09-01T13:22:11Z</time>
      </trkpt>
      <trkpt lat="39.406670" lon="3.246157">
        <ele>30.284</ele>
        <time>2021-09-01T13:22:12Z</time>
      </trkpt>
      <trkpt lat="39.406683" lon="3.246092">
        <ele>30.268</ele>
        <time>2021-09-01T13:22:13Z</time>
      </trkpt>
      <trkpt lat="39.406689" lon="3.245976">
        <ele>30.363</ele>
        <time>2021-09-01T13:22:15Z</time>
      </trkpt>
      <trkpt lat="39.406699" lon="3.245906">
        <ele>30.397</ele>
        <time>2021-09-01T13:22:16Z</time>
      </trkpt>
      <trkpt lat="39.406705" lon="3.245836">
        <ele>30.396</ele>
        <time>2021-09-01T13:22:17Z</time>
      </trkpt>
      <trkpt lat="39.406711" lon="3.245768">
        <ele>30.341</ele>
        <time>2021-09-01T13:22:18Z</time>
      </trkpt>
      <trkpt lat="39.406716" lon="3.245700">
        <ele>30.148</ele>
        <time>2021-09-01T13:22:19Z</time>
      </trkpt>
      <trkpt lat="39.406711" lon="3.245631">
        <ele>30.088</ele>
        <time>2021-09-01T13:22:20Z</time>
      </trkpt>
      <trkpt lat="39.406704" lon="3.245562">
        <ele>29.974</ele>
        <time>2021-09-01T13:22:21Z</time>
      </trkpt>
      <trkpt lat="39.406678" lon="3.245493">
        <ele>29.856</ele>
        <time>2021-09-01T13:22:22Z</time>
      </trkpt>
      <trkpt lat="39.406633" lon="3.245435">
        <ele>29.621</ele>
        <time>2021-09-01T13:22:23Z</time>
      </trkpt>
      <trkpt lat="39.406593" lon="3.245368">
        <ele>29.408</ele>
        <time>2021-09-01T13:22:24Z</time>
      </trkpt>
      <trkpt lat="39.406553" lon="3.245295">
        <ele>29.295</ele>
        <time>2021-09-01T13:22:25Z</time>
      </trkpt>
      <trkpt lat="39.406511" lon="3.245218">
        <ele>28.969</ele>
        <time>2021-09-01T13:22:26Z</time>
      </trkpt>
      <trkpt lat="39.406473" lon="3.245136">
        <ele>28.694</ele>
        <time>2021-09-01T13:22:27Z</time>
      </trkpt>
      <trkpt lat="39.406440" lon="3.245067">
        <ele>28.358</ele>
        <time>2021-09-01T13:22:28Z</time>
      </trkpt>
      <trkpt lat="39.406413" lon="3.245001">
        <ele>28.137</ele>
        <time>2021-09-01T13:22:29Z</time>
      </trkpt>
      <trkpt lat="39.406393" lon="3.244933">
        <ele>27.992</ele>
        <time>2021-09-01T13:22:30Z</time>
      </trkpt>
      <trkpt lat="39.406377" lon="3.244866">
        <ele>27.969</ele>
        <time>2021-09-01T13:22:31Z</time>
      </trkpt>
      <trkpt lat="39.406365" lon="3.244805">
        <ele>27.959</ele>
        <time>2021-09-01T13:22:32Z</time>
      </trkpt>
      <trkpt lat="39.406337" lon="3.244702">
        <ele>28.265</ele>
        <time>2021-09-01T13:22:34Z</time>
      </trkpt>
      <trkpt lat="39.406325" lon="3.244597">
        <ele>28.868</ele>
        <time>2021-09-01T13:22:36Z</time>
      </trkpt>
      <trkpt lat="39.406315" lon="3.244493">
        <ele>29.514</ele>
        <time>2021-09-01T13:22:38Z</time>
      </trkpt>
      <trkpt lat="39.406303" lon="3.244401">
        <ele>29.908</ele>
        <time>2021-09-01T13:22:40Z</time>
      </trkpt>
      <trkpt lat="39.406288" lon="3.244305">
        <ele>30.354</ele>
        <time>2021-09-01T13:22:42Z</time>
      </trkpt>
      <trkpt lat="39.406269" lon="3.244220">
        <ele>30.518</ele>
        <time>2021-09-01T13:22:44Z</time>
      </trkpt>
      <trkpt lat="39.406241" lon="3.244153">
        <ele>30.793</ele>
        <time>2021-09-01T13:22:46Z</time>
      </trkpt>
      <trkpt lat="39.406203" lon="3.244106">
        <ele>30.917</ele>
        <time>2021-09-01T13:22:48Z</time>
      </trkpt>
      <trkpt lat="39.406180" lon="3.244049">
        <ele>31.216</ele>
        <time>2021-09-01T13:22:50Z</time>
      </trkpt>
      <trkpt lat="39.406144" lon="3.243986">
        <ele>31.811</ele>
        <time>2021-09-01T13:22:53Z</time>
      </trkpt>
      <trkpt lat="39.406102" lon="3.243922">
        <ele>32.538</ele>
        <time>2021-09-01T13:22:56Z</time>
      </trkpt>
      <trkpt lat="39.406069" lon="3.243878">
        <ele>32.988</ele>
        <time>2021-09-01T13:22:58Z</time>
      </trkpt>
      <trkpt lat="39.406036" lon="3.243839">
        <ele>33.232</ele>
        <time>2021-09-01T13:23:00Z</time>
      </trkpt>
      <trkpt lat="39.405987" lon="3.243781">
        <ele>33.692</ele>
        <time>2021-09-01T13:23:03Z</time>
      </trkpt>
      <trkpt lat="39.405946" lon="3.243717">
        <ele>34.211</ele>
        <time>2021-09-01T13:23:06Z</time>
      </trkpt>
      <trkpt lat="39.405913" lon="3.243671">
        <ele>34.608</ele>
        <time>2021-09-01T13:23:08Z</time>
      </trkpt>
      <trkpt lat="39.405862" lon="3.243605">
        <ele>35.241</ele>
        <time>2021-09-01T13:23:11Z</time>
      </trkpt>
      <trkpt lat="39.405828" lon="3.243554">
        <ele>35.625</ele>
        <time>2021-09-01T13:23:13Z</time>
      </trkpt>
      <trkpt lat="39.405788" lon="3.243501">
        <ele>36.010</ele>
        <time>2021-09-01T13:23:15Z</time>
      </trkpt>
      <trkpt lat="39.405749" lon="3.243462">
        <ele>36.364</ele>
        <time>2021-09-01T13:23:17Z</time>
      </trkpt>
      <trkpt lat="39.405706" lon="3.243422">
        <ele>36.763</ele>
        <time>2021-09-01T13:23:19Z</time>
      </trkpt>
      <trkpt lat="39.405671" lon="3.243368">
        <ele>36.828</ele>
        <time>2021-09-01T13:23:21Z</time>
      </trkpt>
      <trkpt lat="39.405633" lon="3.243312">
        <ele>37.135</ele>
        <time>2021-09-01T13:23:23Z</time>
      </trkpt>
      <trkpt lat="39.405601" lon="3.243238">
        <ele>37.285</ele>
        <time>2021-09-01T13:23:25Z</time>
      </trkpt>
      <trkpt lat="39.405566" lon="3.243171">
        <ele>37.564</ele>
        <time>2021-09-01T13:23:27Z</time>
      </trkpt>
      <trkpt lat="39.405542" lon="3.243101">
        <ele>37.506</ele>
        <time>2021-09-01T13:23:29Z</time>
      </trkpt>
      <trkpt lat="39.405499" lon="3.243038">
        <ele>37.716</ele>
        <time>2021-09-01T13:23:31Z</time>
      </trkpt>
      <trkpt lat="39.405467" lon="3.242970">
        <ele>37.808</ele>
        <time>2021-09-01T13:23:33Z</time>
      </trkpt>
      <trkpt lat="39.405431" lon="3.242894">
        <ele>38.024</ele>
        <time>2021-09-01T13:23:35Z</time>
      </trkpt>
      <trkpt lat="39.405385" lon="3.242826">
        <ele>38.188</ele>
        <time>2021-09-01T13:23:37Z</time>
      </trkpt>
      <trkpt lat="39.405339" lon="3.242747">
        <ele>38.143</ele>
        <time>2021-09-01T13:23:39Z</time>
      </trkpt>
      <trkpt lat="39.405298" lon="3.242668">
        <ele>38.367</ele>
        <time>2021-09-01T13:23:41Z</time>
      </trkpt>
      <trkpt lat="39.405272" lon="3.242620">
        <ele>38.386</ele>
        <time>2021-09-01T13:23:42Z</time>
      </trkpt>
      <trkpt lat="39.405243" lon="3.242516">
        <ele>38.491</ele>
        <time>2021-09-01T13:23:44Z</time>
      </trkpt>
      <trkpt lat="39.405224" lon="3.242426">
        <ele>38.548</ele>
        <time>2021-09-01T13:23:46Z</time>
      </trkpt>
      <trkpt lat="39.405217" lon="3.242310">
        <ele>38.858</ele>
        <time>2021-09-01T13:23:48Z</time>
      </trkpt>
      <trkpt lat="39.405219" lon="3.242240">
        <ele>38.922</ele>
        <time>2021-09-01T13:23:49Z</time>
      </trkpt>
      <trkpt lat="39.405223" lon="3.242180">
        <ele>39.062</ele>
        <time>2021-09-01T13:23:50Z</time>
      </trkpt>
      <trkpt lat="39.405227" lon="3.242118">
        <ele>39.108</ele>
        <time>2021-09-01T13:23:51Z</time>
      </trkpt>
      <trkpt lat="39.405223" lon="3.242052">
        <ele>39.108</ele>
        <time>2021-09-01T13:23:52Z</time>
      </trkpt>
      <trkpt lat="39.405218" lon="3.241989">
        <ele>39.270</ele>
        <time>2021-09-01T13:23:53Z</time>
      </trkpt>
      <trkpt lat="39.405209" lon="3.241928">
        <ele>39.374</ele>
        <time>2021-09-01T13:23:54Z</time>
      </trkpt>
      <trkpt lat="39.405203" lon="3.241861">
        <ele>39.389</ele>
        <time>2021-09-01T13:23:55Z</time>
      </trkpt>
      <trkpt lat="39.405181" lon="3.241802">
        <ele>39.493</ele>
        <time>2021-09-01T13:23:56Z</time>
      </trkpt>
      <trkpt lat="39.405131" lon="3.241711">
        <ele>39.632</ele>
        <time>2021-09-01T13:23:58Z</time>
      </trkpt>
      <trkpt lat="39.405076" lon="3.241634">
        <ele>39.617</ele>
        <time>2021-09-01T13:24:00Z</time>
      </trkpt>
      <trkpt lat="39.405037" lon="3.241604">
        <ele>39.574</ele>
        <time>2021-09-01T13:24:01Z</time>
      </trkpt>
      <trkpt lat="39.404995" lon="3.241579">
        <ele>39.584</ele>
        <time>2021-09-01T13:24:02Z</time>
      </trkpt>
      <trkpt lat="39.404947" lon="3.241545">
        <ele>39.483</ele>
        <time>2021-09-01T13:24:03Z</time>
      </trkpt>
      <trkpt lat="39.404904" lon="3.241512">
        <ele>39.425</ele>
        <time>2021-09-01T13:24:04Z</time>
      </trkpt>
      <trkpt lat="39.404855" lon="3.241475">
        <ele>39.317</ele>
        <time>2021-09-01T13:24:05Z</time>
      </trkpt>
      <trkpt lat="39.404812" lon="3.241442">
        <ele>39.308</ele>
        <time>2021-09-01T13:24:06Z</time>
      </trkpt>
      <trkpt lat="39.404763" lon="3.241412">
        <ele>39.316</ele>
        <time>2021-09-01T13:24:07Z</time>
      </trkpt>
      <trkpt lat="39.404716" lon="3.241386">
        <ele>39.340</ele>
        <time>2021-09-01T13:24:08Z</time>
      </trkpt>
      <trkpt lat="39.404659" lon="3.241362">
        <ele>39.385</ele>
        <time>2021-09-01T13:24:09Z</time>
      </trkpt>
      <trkpt lat="39.404604" lon="3.241337">
        <ele>39.339</ele>
        <time>2021-09-01T13:24:10Z</time>
      </trkpt>
      <trkpt lat="39.404551" lon="3.241316">
        <ele>39.268</ele>
        <time>2021-09-01T13:24:11Z</time>
      </trkpt>
      <trkpt lat="39.404503" lon="3.241285">
        <ele>39.173</ele>
        <time>2021-09-01T13:24:12Z</time>
      </trkpt>
      <trkpt lat="39.404443" lon="3.241263">
        <ele>38.910</ele>
        <time>2021-09-01T13:24:13Z</time>
      </trkpt>
      <trkpt lat="39.404391" lon="3.241238">
        <ele>38.890</ele>
        <time>2021-09-01T13:24:14Z</time>
      </trkpt>
      <trkpt lat="39.404325" lon="3.241212">
        <ele>38.651</ele>
        <time>2021-09-01T13:24:15Z</time>
      </trkpt>
      <trkpt lat="39.404262" lon="3.241188">
        <ele>38.401</ele>
        <time>2021-09-01T13:24:16Z</time>
      </trkpt>
      <trkpt lat="39.404206" lon="3.241164">
        <ele>38.211</ele>
        <time>2021-09-01T13:24:17Z</time>
      </trkpt>
      <trkpt lat="39.404149" lon="3.241153">
        <ele>37.908</ele>
        <time>2021-09-01T13:24:18Z</time>
      </trkpt>
      <trkpt lat="39.404082" lon="3.241112">
        <ele>37.643</ele>
        <time>2021-09-01T13:24:19Z</time>
      </trkpt>
      <trkpt lat="39.404036" lon="3.241060">
        <ele>37.447</ele>
        <time>2021-09-01T13:24:20Z</time>
      </trkpt>
      <trkpt lat="39.403996" lon="3.240988">
        <ele>37.252</ele>
        <time>2021-09-01T13:24:21Z</time>
      </trkpt>
      <trkpt lat="39.403974" lon="3.240907">
        <ele>37.196</ele>
        <time>2021-09-01T13:24:22Z</time>
      </trkpt>
      <trkpt lat="39.403969" lon="3.240826">
        <ele>37.095</ele>
        <time>2021-09-01T13:24:23Z</time>
      </trkpt>
      <trkpt lat="39.403965" lon="3.240733">
        <ele>37.080</ele>
        <time>2021-09-01T13:24:24Z</time>
      </trkpt>
      <trkpt lat="39.403959" lon="3.240649">
        <ele>37.027</ele>
        <time>2021-09-01T13:24:25Z</time>
      </trkpt>
      <trkpt lat="39.403951" lon="3.240567">
        <ele>37.057</ele>
        <time>2021-09-01T13:24:26Z</time>
      </trkpt>
      <trkpt lat="39.403946" lon="3.240490">
        <ele>36.947</ele>
        <time>2021-09-01T13:24:27Z</time>
      </trkpt>
      <trkpt lat="39.403938" lon="3.240406">
        <ele>36.929</ele>
        <time>2021-09-01T13:24:28Z</time>
      </trkpt>
      <trkpt lat="39.403925" lon="3.240324">
        <ele>36.921</ele>
        <time>2021-09-01T13:24:29Z</time>
      </trkpt>
      <trkpt lat="39.403921" lon="3.240242">
        <ele>36.908</ele>
        <time>2021-09-01T13:24:30Z</time>
      </trkpt>
      <trkpt lat="39.403913" lon="3.240160">
        <ele>36.942</ele>
        <time>2021-09-01T13:24:31Z</time>
      </trkpt>
      <trkpt lat="39.403898" lon="3.240079">
        <ele>36.996</ele>
        <time>2021-09-01T13:24:32Z</time>
      </trkpt>
      <trkpt lat="39.403887" lon="3.240000">
        <ele>36.931</ele>
        <time>2021-09-01T13:24:33Z</time>
      </trkpt>
      <trkpt lat="39.403878" lon="3.239923">
        <ele>36.945</ele>
        <time>2021-09-01T13:24:34Z</time>
      </trkpt>
      <trkpt lat="39.403873" lon="3.239844">
        <ele>37.064</ele>
        <time>2021-09-01T13:24:35Z</time>
      </trkpt>
      <trkpt lat="39.403861" lon="3.239754">
        <ele>37.049</ele>
        <time>2021-09-01T13:24:36Z</time>
      </trkpt>
      <trkpt lat="39.403856" lon="3.239674">
        <ele>37.186</ele>
        <time>2021-09-01T13:24:37Z</time>
      </trkpt>
      <trkpt lat="39.403849" lon="3.239593">
        <ele>37.236</ele>
        <time>2021-09-01T13:24:38Z</time>
      </trkpt>
      <trkpt lat="39.403838" lon="3.239517">
        <ele>37.457</ele>
        <time>2021-09-01T13:24:39Z</time>
      </trkpt>
      <trkpt lat="39.403823" lon="3.239442">
        <ele>37.500</ele>
        <time>2021-09-01T13:24:40Z</time>
      </trkpt>
      <trkpt lat="39.403819" lon="3.239366">
        <ele>37.620</ele>
        <time>2021-09-01T13:24:41Z</time>
      </trkpt>
      <trkpt lat="39.403815" lon="3.239294">
        <ele>37.708</ele>
        <time>2021-09-01T13:24:42Z</time>
      </trkpt>
      <trkpt lat="39.403803" lon="3.239222">
        <ele>37.773</ele>
        <time>2021-09-01T13:24:43Z</time>
      </trkpt>
      <trkpt lat="39.403792" lon="3.239145">
        <ele>37.747</ele>
        <time>2021-09-01T13:24:44Z</time>
      </trkpt>
      <trkpt lat="39.403784" lon="3.239084">
        <ele>37.712</ele>
        <time>2021-09-01T13:24:45Z</time>
      </trkpt>
      <trkpt lat="39.403774" lon="3.239008">
        <ele>37.756</ele>
        <time>2021-09-01T13:24:46Z</time>
      </trkpt>
      <trkpt lat="39.403769" lon="3.238933">
        <ele>37.755</ele>
        <time>2021-09-01T13:24:47Z</time>
      </trkpt>
      <trkpt lat="39.403765" lon="3.238865">
        <ele>37.820</ele>
        <time>2021-09-01T13:24:48Z</time>
      </trkpt>
      <trkpt lat="39.403759" lon="3.238793">
        <ele>38.057</ele>
        <time>2021-09-01T13:24:49Z</time>
      </trkpt>
      <trkpt lat="39.403747" lon="3.238725">
        <ele>38.227</ele>
        <time>2021-09-01T13:24:50Z</time>
      </trkpt>
      <trkpt lat="39.403737" lon="3.238655">
        <ele>38.451</ele>
        <time>2021-09-01T13:24:51Z</time>
      </trkpt>
      <trkpt lat="39.403730" lon="3.238580">
        <ele>38.601</ele>
        <time>2021-09-01T13:24:52Z</time>
      </trkpt>
      <trkpt lat="39.403729" lon="3.238512">
        <ele>38.711</ele>
        <time>2021-09-01T13:24:53Z</time>
      </trkpt>
      <trkpt lat="39.403718" lon="3.238444">
        <ele>38.908</ele>
        <time>2021-09-01T13:24:54Z</time>
      </trkpt>
      <trkpt lat="39.403713" lon="3.238374">
        <ele>39.083</ele>
        <time>2021-09-01T13:24:55Z</time>
      </trkpt>
      <trkpt lat="39.403703" lon="3.238302">
        <ele>39.157</ele>
        <time>2021-09-01T13:24:56Z</time>
      </trkpt>
      <trkpt lat="39.403700" lon="3.238231">
        <ele>39.132</ele>
        <time>2021-09-01T13:24:57Z</time>
      </trkpt>
      <trkpt lat="39.403690" lon="3.238171">
        <ele>39.126</ele>
        <time>2021-09-01T13:24:58Z</time>
      </trkpt>
      <trkpt lat="39.403680" lon="3.238112">
        <ele>39.135</ele>
        <time>2021-09-01T13:24:59Z</time>
      </trkpt>
      <trkpt lat="39.403678" lon="3.238051">
        <ele>39.130</ele>
        <time>2021-09-01T13:25:00Z</time>
      </trkpt>
      <trkpt lat="39.403670" lon="3.237986">
        <ele>39.277</ele>
        <time>2021-09-01T13:25:01Z</time>
      </trkpt>
      <trkpt lat="39.403662" lon="3.237915">
        <ele>39.417</ele>
        <time>2021-09-01T13:25:02Z</time>
      </trkpt>
      <trkpt lat="39.403655" lon="3.237853">
        <ele>39.591</ele>
        <time>2021-09-01T13:25:03Z</time>
      </trkpt>
      <trkpt lat="39.403652" lon="3.237789">
        <ele>39.781</ele>
        <time>2021-09-01T13:25:04Z</time>
      </trkpt>
      <trkpt lat="39.403648" lon="3.237729">
        <ele>39.919</ele>
        <time>2021-09-01T13:25:05Z</time>
      </trkpt>
      <trkpt lat="39.403635" lon="3.237625">
        <ele>40.108</ele>
        <time>2021-09-01T13:25:07Z</time>
      </trkpt>
      <trkpt lat="39.403623" lon="3.237549">
        <ele>40.267</ele>
        <time>2021-09-01T13:25:08Z</time>
      </trkpt>
      <trkpt lat="39.403617" lon="3.237483">
        <ele>40.371</ele>
        <time>2021-09-01T13:25:09Z</time>
      </trkpt>
      <trkpt lat="39.403626" lon="3.237360">
        <ele>40.586</ele>
        <time>2021-09-01T13:25:11Z</time>
      </trkpt>
      <trkpt lat="39.403638" lon="3.237297">
        <ele>40.620</ele>
        <time>2021-09-01T13:25:12Z</time>
      </trkpt>
      <trkpt lat="39.403633" lon="3.237228">
        <ele>40.889</ele>
        <time>2021-09-01T13:25:13Z</time>
      </trkpt>
      <trkpt lat="39.403623" lon="3.237168">
        <ele>41.034</ele>
        <time>2021-09-01T13:25:14Z</time>
      </trkpt>
      <trkpt lat="39.403613" lon="3.237104">
        <ele>41.171</ele>
        <time>2021-09-01T13:25:15Z</time>
      </trkpt>
      <trkpt lat="39.403605" lon="3.237043">
        <ele>41.221</ele>
        <time>2021-09-01T13:25:16Z</time>
      </trkpt>
      <trkpt lat="39.403593" lon="3.236975">
        <ele>41.319</ele>
        <time>2021-09-01T13:25:17Z</time>
      </trkpt>
      <trkpt lat="39.403591" lon="3.236913">
        <ele>41.409</ele>
        <time>2021-09-01T13:25:18Z</time>
      </trkpt>
      <trkpt lat="39.403576" lon="3.236846">
        <ele>41.419</ele>
        <time>2021-09-01T13:25:19Z</time>
      </trkpt>
      <trkpt lat="39.403559" lon="3.236787">
        <ele>41.408</ele>
        <time>2021-09-01T13:25:20Z</time>
      </trkpt>
      <trkpt lat="39.403542" lon="3.236726">
        <ele>41.579</ele>
        <time>2021-09-01T13:25:21Z</time>
      </trkpt>
      <trkpt lat="39.403529" lon="3.236662">
        <ele>41.533</ele>
        <time>2021-09-01T13:25:22Z</time>
      </trkpt>
      <trkpt lat="39.403514" lon="3.236543">
        <ele>41.888</ele>
        <time>2021-09-01T13:25:24Z</time>
      </trkpt>
      <trkpt lat="39.403508" lon="3.236479">
        <ele>41.962</ele>
        <time>2021-09-01T13:25:25Z</time>
      </trkpt>
      <trkpt lat="39.403499" lon="3.236414">
        <ele>42.121</ele>
        <time>2021-09-01T13:25:26Z</time>
      </trkpt>
      <trkpt lat="39.403491" lon="3.236350">
        <ele>42.256</ele>
        <time>2021-09-01T13:25:27Z</time>
      </trkpt>
      <trkpt lat="39.403482" lon="3.236292">
        <ele>42.323</ele>
        <time>2021-09-01T13:25:28Z</time>
      </trkpt>
      <trkpt lat="39.403475" lon="3.236224">
        <ele>42.493</ele>
        <time>2021-09-01T13:25:29Z</time>
      </trkpt>
      <trkpt lat="39.403466" lon="3.236161">
        <ele>42.636</ele>
        <time>2021-09-01T13:25:30Z</time>
      </trkpt>
      <trkpt lat="39.403460" lon="3.236098">
        <ele>42.717</ele>
        <time>2021-09-01T13:25:31Z</time>
      </trkpt>
      <trkpt lat="39.403449" lon="3.236040">
        <ele>42.918</ele>
        <time>2021-09-01T13:25:32Z</time>
      </trkpt>
      <trkpt lat="39.403431" lon="3.235917">
        <ele>43.208</ele>
        <time>2021-09-01T13:25:34Z</time>
      </trkpt>
      <trkpt lat="39.403422" lon="3.235854">
        <ele>43.431</ele>
        <time>2021-09-01T13:25:35Z</time>
      </trkpt>
      <trkpt lat="39.403414" lon="3.235791">
        <ele>43.535</ele>
        <time>2021-09-01T13:25:36Z</time>
      </trkpt>
      <trkpt lat="39.403407" lon="3.235728">
        <ele>43.670</ele>
        <time>2021-09-01T13:25:37Z</time>
      </trkpt>
      <trkpt lat="39.403398" lon="3.235666">
        <ele>43.794</ele>
        <time>2021-09-01T13:25:38Z</time>
      </trkpt>
      <trkpt lat="39.403373" lon="3.235544">
        <ele>43.923</ele>
        <time>2021-09-01T13:25:40Z</time>
      </trkpt>
      <trkpt lat="39.403368" lon="3.235483">
        <ele>44.068</ele>
        <time>2021-09-01T13:25:41Z</time>
      </trkpt>
      <trkpt lat="39.403364" lon="3.235421">
        <ele>44.195</ele>
        <time>2021-09-01T13:25:42Z</time>
      </trkpt>
      <trkpt lat="39.403355" lon="3.235356">
        <ele>44.265</ele>
        <time>2021-09-01T13:25:43Z</time>
      </trkpt>
      <trkpt lat="39.403341" lon="3.235294">
        <ele>44.352</ele>
        <time>2021-09-01T13:25:44Z</time>
      </trkpt>
      <trkpt lat="39.403333" lon="3.235225">
        <ele>44.453</ele>
        <time>2021-09-01T13:25:45Z</time>
      </trkpt>
      <trkpt lat="39.403321" lon="3.235163">
        <ele>44.408</ele>
        <time>2021-09-01T13:25:46Z</time>
      </trkpt>
      <trkpt lat="39.403318" lon="3.235095">
        <ele>44.508</ele>
        <time>2021-09-01T13:25:47Z</time>
      </trkpt>
      <trkpt lat="39.403309" lon="3.235035">
        <ele>44.653</ele>
        <time>2021-09-01T13:25:48Z</time>
      </trkpt>
      <trkpt lat="39.403298" lon="3.234968">
        <ele>44.657</ele>
        <time>2021-09-01T13:25:49Z</time>
      </trkpt>
      <trkpt lat="39.403286" lon="3.234901">
        <ele>44.792</ele>
        <time>2021-09-01T13:25:50Z</time>
      </trkpt>
      <trkpt lat="39.403273" lon="3.234834">
        <ele>44.836</ele>
        <time>2021-09-01T13:25:51Z</time>
      </trkpt>
      <trkpt lat="39.403261" lon="3.234770">
        <ele>45.055</ele>
        <time>2021-09-01T13:25:52Z</time>
      </trkpt>
      <trkpt lat="39.403248" lon="3.234699">
        <ele>45.130</ele>
        <time>2021-09-01T13:25:53Z</time>
      </trkpt>
      <trkpt lat="39.403236" lon="3.234632">
        <ele>45.117</ele>
        <time>2021-09-01T13:25:54Z</time>
      </trkpt>
      <trkpt lat="39.403225" lon="3.234563">
        <ele>45.287</ele>
        <time>2021-09-01T13:25:55Z</time>
      </trkpt>
      <trkpt lat="39.403215" lon="3.234492">
        <ele>45.296</ele>
        <time>2021-09-01T13:25:56Z</time>
      </trkpt>
      <trkpt lat="39.403205" lon="3.234421">
        <ele>45.231</ele>
        <time>2021-09-01T13:25:57Z</time>
      </trkpt>
      <trkpt lat="39.403197" lon="3.234353">
        <ele>45.224</ele>
        <time>2021-09-01T13:25:58Z</time>
      </trkpt>
      <trkpt lat="39.403188" lon="3.234282">
        <ele>45.208</ele>
        <time>2021-09-01T13:25:59Z</time>
      </trkpt>
      <trkpt lat="39.403176" lon="3.234213">
        <ele>45.237</ele>
        <time>2021-09-01T13:26:00Z</time>
      </trkpt>
      <trkpt lat="39.403166" lon="3.234147">
        <ele>45.391</ele>
        <time>2021-09-01T13:26:01Z</time>
      </trkpt>
      <trkpt lat="39.403154" lon="3.234079">
        <ele>45.356</ele>
        <time>2021-09-01T13:26:02Z</time>
      </trkpt>
      <trkpt lat="39.403148" lon="3.234009">
        <ele>45.380</ele>
        <time>2021-09-01T13:26:03Z</time>
      </trkpt>
      <trkpt lat="39.403137" lon="3.233939">
        <ele>45.469</ele>
        <time>2021-09-01T13:26:04Z</time>
      </trkpt>
      <trkpt lat="39.403131" lon="3.233868">
        <ele>45.494</ele>
        <time>2021-09-01T13:26:05Z</time>
      </trkpt>
      <trkpt lat="39.403118" lon="3.233796">
        <ele>45.411</ele>
        <time>2021-09-01T13:26:06Z</time>
      </trkpt>
      <trkpt lat="39.403103" lon="3.233731">
        <ele>45.411</ele>
        <time>2021-09-01T13:26:07Z</time>
      </trkpt>
      <trkpt lat="39.403090" lon="3.233661">
        <ele>45.332</ele>
        <time>2021-09-01T13:26:08Z</time>
      </trkpt>
      <trkpt lat="39.403088" lon="3.233591">
        <ele>45.392</ele>
        <time>2021-09-01T13:26:09Z</time>
      </trkpt>
      <trkpt lat="39.403077" lon="3.233521">
        <ele>45.311</ele>
        <time>2021-09-01T13:26:10Z</time>
      </trkpt>
      <trkpt lat="39.403058" lon="3.233452">
        <ele>45.308</ele>
        <time>2021-09-01T13:26:11Z</time>
      </trkpt>
      <trkpt lat="39.403049" lon="3.233383">
        <ele>45.381</ele>
        <time>2021-09-01T13:26:12Z</time>
      </trkpt>
      <trkpt lat="39.403036" lon="3.233315">
        <ele>45.415</ele>
        <time>2021-09-01T13:26:13Z</time>
      </trkpt>
      <trkpt lat="39.403028" lon="3.233253">
        <ele>45.690</ele>
        <time>2021-09-01T13:26:14Z</time>
      </trkpt>
      <trkpt lat="39.403016" lon="3.233184">
        <ele>45.724</ele>
        <time>2021-09-01T13:26:15Z</time>
      </trkpt>
      <trkpt lat="39.403004" lon="3.233110">
        <ele>45.973</ele>
        <time>2021-09-01T13:26:16Z</time>
      </trkpt>
      <trkpt lat="39.402994" lon="3.233039">
        <ele>46.048</ele>
        <time>2021-09-01T13:26:17Z</time>
      </trkpt>
      <trkpt lat="39.402986" lon="3.232973">
        <ele>46.275</ele>
        <time>2021-09-01T13:26:18Z</time>
      </trkpt>
      <trkpt lat="39.402981" lon="3.232906">
        <ele>46.335</ele>
        <time>2021-09-01T13:26:19Z</time>
      </trkpt>
      <trkpt lat="39.402968" lon="3.232845">
        <ele>46.437</ele>
        <time>2021-09-01T13:26:20Z</time>
      </trkpt>
      <trkpt lat="39.402958" lon="3.232781">
        <ele>46.549</ele>
        <time>2021-09-01T13:26:21Z</time>
      </trkpt>
      <trkpt lat="39.402948" lon="3.232716">
        <ele>46.613</ele>
        <time>2021-09-01T13:26:22Z</time>
      </trkpt>
      <trkpt lat="39.402939" lon="3.232652">
        <ele>46.708</ele>
        <time>2021-09-01T13:26:23Z</time>
      </trkpt>
      <trkpt lat="39.402924" lon="3.232585">
        <ele>46.841</ele>
        <time>2021-09-01T13:26:24Z</time>
      </trkpt>
      <trkpt lat="39.402918" lon="3.232520">
        <ele>46.915</ele>
        <time>2021-09-01T13:26:25Z</time>
      </trkpt>
      <trkpt lat="39.402908" lon="3.232461">
        <ele>47.010</ele>
        <time>2021-09-01T13:26:26Z</time>
      </trkpt>
      <trkpt lat="39.402900" lon="3.232399">
        <ele>47.114</ele>
        <time>2021-09-01T13:26:27Z</time>
      </trkpt>
      <trkpt lat="39.402885" lon="3.232334">
        <ele>47.283</ele>
        <time>2021-09-01T13:26:28Z</time>
      </trkpt>
      <trkpt lat="39.402880" lon="3.232269">
        <ele>47.248</ele>
        <time>2021-09-01T13:26:29Z</time>
      </trkpt>
      <trkpt lat="39.402858" lon="3.232146">
        <ele>47.485</ele>
        <time>2021-09-01T13:26:31Z</time>
      </trkpt>
      <trkpt lat="39.402848" lon="3.232077">
        <ele>47.415</ele>
        <time>2021-09-01T13:26:32Z</time>
      </trkpt>
      <trkpt lat="39.402838" lon="3.232015">
        <ele>47.442</ele>
        <time>2021-09-01T13:26:33Z</time>
      </trkpt>
      <trkpt lat="39.402833" lon="3.231942">
        <ele>47.622</ele>
        <time>2021-09-01T13:26:34Z</time>
      </trkpt>
      <trkpt lat="39.402824" lon="3.231876">
        <ele>47.614</ele>
        <time>2021-09-01T13:26:35Z</time>
      </trkpt>
      <trkpt lat="39.402815" lon="3.231815">
        <ele>47.808</ele>
        <time>2021-09-01T13:26:36Z</time>
      </trkpt>
      <trkpt lat="39.402799" lon="3.231750">
        <ele>47.962</ele>
        <time>2021-09-01T13:26:37Z</time>
      </trkpt>
      <trkpt lat="39.402789" lon="3.231690">
        <ele>48.026</ele>
        <time>2021-09-01T13:26:38Z</time>
      </trkpt>
      <trkpt lat="39.402793" lon="3.231624">
        <ele>48.111</ele>
        <time>2021-09-01T13:26:39Z</time>
      </trkpt>
      <trkpt lat="39.402807" lon="3.231557">
        <ele>48.345</ele>
        <time>2021-09-01T13:26:40Z</time>
      </trkpt>
      <trkpt lat="39.402810" lon="3.231494">
        <ele>48.464</ele>
        <time>2021-09-01T13:26:41Z</time>
      </trkpt>
      <trkpt lat="39.402810" lon="3.231430">
        <ele>48.639</ele>
        <time>2021-09-01T13:26:42Z</time>
      </trkpt>
      <trkpt lat="39.402808" lon="3.231316">
        <ele>48.856</ele>
        <time>2021-09-01T13:26:44Z</time>
      </trkpt>
      <trkpt lat="39.402805" lon="3.231242">
        <ele>48.956</ele>
        <time>2021-09-01T13:26:45Z</time>
      </trkpt>
      <trkpt lat="39.402805" lon="3.231173">
        <ele>48.958</ele>
        <time>2021-09-01T13:26:46Z</time>
      </trkpt>
      <trkpt lat="39.402805" lon="3.231111">
        <ele>49.052</ele>
        <time>2021-09-01T13:26:47Z</time>
      </trkpt>
      <trkpt lat="39.402799" lon="3.231041">
        <ele>49.117</ele>
        <time>2021-09-01T13:26:48Z</time>
      </trkpt>
      <trkpt lat="39.402796" lon="3.230973">
        <ele>49.208</ele>
        <time>2021-09-01T13:26:49Z</time>
      </trkpt>
      <trkpt lat="39.402794" lon="3.230907">
        <ele>49.383</ele>
        <time>2021-09-01T13:26:50Z</time>
      </trkpt>
      <trkpt lat="39.402794" lon="3.230788">
        <ele>49.477</ele>
        <time>2021-09-01T13:26:52Z</time>
      </trkpt>
      <trkpt lat="39.402794" lon="3.230717">
        <ele>49.442</ele>
        <time>2021-09-01T13:26:53Z</time>
      </trkpt>
      <trkpt lat="39.402800" lon="3.230649">
        <ele>49.556</ele>
        <time>2021-09-01T13:26:54Z</time>
      </trkpt>
      <trkpt lat="39.402801" lon="3.230578">
        <ele>49.635</ele>
        <time>2021-09-01T13:26:55Z</time>
      </trkpt>
      <trkpt lat="39.402819" lon="3.230461">
        <ele>49.870</ele>
        <time>2021-09-01T13:26:57Z</time>
      </trkpt>
      <trkpt lat="39.402826" lon="3.230389">
        <ele>49.837</ele>
        <time>2021-09-01T13:26:58Z</time>
      </trkpt>
      <trkpt lat="39.402833" lon="3.230326">
        <ele>49.897</ele>
        <time>2021-09-01T13:26:59Z</time>
      </trkpt>
      <trkpt lat="39.402838" lon="3.230258">
        <ele>49.825</ele>
        <time>2021-09-01T13:27:00Z</time>
      </trkpt>
      <trkpt lat="39.402846" lon="3.230197">
        <ele>49.926</ele>
        <time>2021-09-01T13:27:01Z</time>
      </trkpt>
      <trkpt lat="39.402852" lon="3.230133">
        <ele>49.908</ele>
        <time>2021-09-01T13:27:02Z</time>
      </trkpt>
      <trkpt lat="39.402859" lon="3.230074">
        <ele>50.008</ele>
        <time>2021-09-01T13:27:03Z</time>
      </trkpt>
      <trkpt lat="39.402869" lon="3.230010">
        <ele>50.140</ele>
        <time>2021-09-01T13:27:04Z</time>
      </trkpt>
      <trkpt lat="39.402877" lon="3.229943">
        <ele>50.244</ele>
        <time>2021-09-01T13:27:05Z</time>
      </trkpt>
      <trkpt lat="39.402889" lon="3.229883">
        <ele>50.299</ele>
        <time>2021-09-01T13:27:06Z</time>
      </trkpt>
      <trkpt lat="39.402895" lon="3.229821">
        <ele>50.383</ele>
        <time>2021-09-01T13:27:07Z</time>
      </trkpt>
      <trkpt lat="39.402902" lon="3.229758">
        <ele>50.492</ele>
        <time>2021-09-01T13:27:08Z</time>
      </trkpt>
      <trkpt lat="39.402915" lon="3.229693">
        <ele>50.487</ele>
        <time>2021-09-01T13:27:09Z</time>
      </trkpt>
      <trkpt lat="39.402934" lon="3.229571">
        <ele>50.594</ele>
        <time>2021-09-01T13:27:11Z</time>
      </trkpt>
      <trkpt lat="39.402944" lon="3.229511">
        <ele>50.654</ele>
        <time>2021-09-01T13:27:12Z</time>
      </trkpt>
      <trkpt lat="39.402954" lon="3.229452">
        <ele>50.765</ele>
        <time>2021-09-01T13:27:13Z</time>
      </trkpt>
      <trkpt lat="39.402975" lon="3.229345">
        <ele>50.868</ele>
        <time>2021-09-01T13:27:15Z</time>
      </trkpt>
      <trkpt lat="39.402983" lon="3.229281">
        <ele>50.914</ele>
        <time>2021-09-01T13:27:16Z</time>
      </trkpt>
      <trkpt lat="39.402997" lon="3.229223">
        <ele>51.008</ele>
        <time>2021-09-01T13:27:17Z</time>
      </trkpt>
      <trkpt lat="39.403009" lon="3.229115">
        <ele>51.264</ele>
        <time>2021-09-01T13:27:19Z</time>
      </trkpt>
      <trkpt lat="39.403028" lon="3.229008">
        <ele>51.468</ele>
        <time>2021-09-01T13:27:21Z</time>
      </trkpt>
      <trkpt lat="39.403055" lon="3.228888">
        <ele>51.753</ele>
        <time>2021-09-01T13:27:23Z</time>
      </trkpt>
      <trkpt lat="39.403068" lon="3.228783">
        <ele>51.987</ele>
        <time>2021-09-01T13:27:25Z</time>
      </trkpt>
      <trkpt lat="39.403082" lon="3.228673">
        <ele>52.236</ele>
        <time>2021-09-01T13:27:27Z</time>
      </trkpt>
      <trkpt lat="39.403098" lon="3.228556">
        <ele>52.381</ele>
        <time>2021-09-01T13:27:29Z</time>
      </trkpt>
      <trkpt lat="39.403110" lon="3.228496">
        <ele>52.448</ele>
        <time>2021-09-01T13:27:30Z</time>
      </trkpt>
      <trkpt lat="39.403126" lon="3.228383">
        <ele>52.558</ele>
        <time>2021-09-01T13:27:32Z</time>
      </trkpt>
      <trkpt lat="39.403138" lon="3.228322">
        <ele>52.644</ele>
        <time>2021-09-01T13:27:33Z</time>
      </trkpt>
      <trkpt lat="39.403139" lon="3.228258">
        <ele>52.705</ele>
        <time>2021-09-01T13:27:34Z</time>
      </trkpt>
      <trkpt lat="39.403146" lon="3.228198">
        <ele>52.715</ele>
        <time>2021-09-01T13:27:35Z</time>
      </trkpt>
      <trkpt lat="39.403163" lon="3.228079">
        <ele>53.008</ele>
        <time>2021-09-01T13:27:37Z</time>
      </trkpt>
      <trkpt lat="39.403177" lon="3.227975">
        <ele>53.222</ele>
        <time>2021-09-01T13:27:39Z</time>
      </trkpt>
      <trkpt lat="39.403192" lon="3.227916">
        <ele>53.336</ele>
        <time>2021-09-01T13:27:40Z</time>
      </trkpt>
      <trkpt lat="39.403229" lon="3.227819">
        <ele>53.581</ele>
        <time>2021-09-01T13:27:42Z</time>
      </trkpt>
      <trkpt lat="39.403264" lon="3.227718">
        <ele>53.755</ele>
        <time>2021-09-01T13:27:44Z</time>
      </trkpt>
      <trkpt lat="39.403308" lon="3.227610">
        <ele>53.714</ele>
        <time>2021-09-01T13:27:46Z</time>
      </trkpt>
      <trkpt lat="39.403327" lon="3.227558">
        <ele>53.829</ele>
        <time>2021-09-01T13:27:47Z</time>
      </trkpt>
      <trkpt lat="39.403349" lon="3.227500">
        <ele>53.836</ele>
        <time>2021-09-01T13:27:48Z</time>
      </trkpt>
      <trkpt lat="39.403370" lon="3.227448">
        <ele>53.966</ele>
        <time>2021-09-01T13:27:49Z</time>
      </trkpt>
      <trkpt lat="39.403386" lon="3.227390">
        <ele>54.146</ele>
        <time>2021-09-01T13:27:50Z</time>
      </trkpt>
      <trkpt lat="39.403412" lon="3.227342">
        <ele>54.288</ele>
        <time>2021-09-01T13:27:51Z</time>
      </trkpt>
      <trkpt lat="39.403450" lon="3.227234">
        <ele>54.216</ele>
        <time>2021-09-01T13:27:53Z</time>
      </trkpt>
      <trkpt lat="39.403474" lon="3.227179">
        <ele>54.308</ele>
        <time>2021-09-01T13:27:54Z</time>
      </trkpt>
      <trkpt lat="39.403499" lon="3.227129">
        <ele>54.392</ele>
        <time>2021-09-01T13:27:55Z</time>
      </trkpt>
      <trkpt lat="39.403520" lon="3.227077">
        <ele>54.496</ele>
        <time>2021-09-01T13:27:56Z</time>
      </trkpt>
      <trkpt lat="39.403538" lon="3.227023">
        <ele>54.511</ele>
        <time>2021-09-01T13:27:57Z</time>
      </trkpt>
      <trkpt lat="39.403588" lon="3.226926">
        <ele>54.765</ele>
        <time>2021-09-01T13:27:59Z</time>
      </trkpt>
      <trkpt lat="39.403613" lon="3.226876">
        <ele>54.894</ele>
        <time>2021-09-01T13:28:00Z</time>
      </trkpt>
      <trkpt lat="39.403635" lon="3.226825">
        <ele>54.859</ele>
        <time>2021-09-01T13:28:01Z</time>
      </trkpt>
      <trkpt lat="39.403689" lon="3.226745">
        <ele>55.076</ele>
        <time>2021-09-01T13:28:03Z</time>
      </trkpt>
      <trkpt lat="39.403744" lon="3.226663">
        <ele>55.166</ele>
        <time>2021-09-01T13:28:05Z</time>
      </trkpt>
      <trkpt lat="39.403803" lon="3.226570">
        <ele>55.511</ele>
        <time>2021-09-01T13:28:07Z</time>
      </trkpt>
      <trkpt lat="39.403834" lon="3.226523">
        <ele>55.621</ele>
        <time>2021-09-01T13:28:08Z</time>
      </trkpt>
      <trkpt lat="39.403890" lon="3.226433">
        <ele>56.003</ele>
        <time>2021-09-01T13:28:10Z</time>
      </trkpt>
      <trkpt lat="39.403921" lon="3.226386">
        <ele>56.108</ele>
        <time>2021-09-01T13:28:11Z</time>
      </trkpt>
      <trkpt lat="39.403982" lon="3.226299">
        <ele>56.399</ele>
        <time>2021-09-01T13:28:13Z</time>
      </trkpt>
      <trkpt lat="39.404007" lon="3.226246">
        <ele>56.383</ele>
        <time>2021-09-01T13:28:14Z</time>
      </trkpt>
      <trkpt lat="39.404037" lon="3.226197">
        <ele>56.358</ele>
        <time>2021-09-01T13:28:15Z</time>
      </trkpt>
      <trkpt lat="39.404096" lon="3.226132">
        <ele>56.452</ele>
        <time>2021-09-01T13:28:17Z</time>
      </trkpt>
      <trkpt lat="39.404161" lon="3.226058">
        <ele>56.611</ele>
        <time>2021-09-01T13:28:19Z</time>
      </trkpt>
      <trkpt lat="39.404228" lon="3.225988">
        <ele>56.886</ele>
        <time>2021-09-01T13:28:21Z</time>
      </trkpt>
      <trkpt lat="39.404290" lon="3.225916">
        <ele>56.993</ele>
        <time>2021-09-01T13:28:23Z</time>
      </trkpt>
      <trkpt lat="39.404352" lon="3.225857">
        <ele>56.893</ele>
        <time>2021-09-01T13:28:25Z</time>
      </trkpt>
      <trkpt lat="39.404393" lon="3.225817">
        <ele>56.843</ele>
        <time>2021-09-01T13:28:26Z</time>
      </trkpt>
      <trkpt lat="39.404463" lon="3.225755">
        <ele>56.964</ele>
        <time>2021-09-01T13:28:28Z</time>
      </trkpt>
      <trkpt lat="39.404523" lon="3.225714">
        <ele>57.110</ele>
        <time>2021-09-01T13:28:30Z</time>
      </trkpt>
      <trkpt lat="39.404595" lon="3.225669">
        <ele>57.208</ele>
        <time>2021-09-01T13:28:32Z</time>
      </trkpt>
      <trkpt lat="39.404649" lon="3.225591">
        <ele>57.322</ele>
        <time>2021-09-01T13:28:34Z</time>
      </trkpt>
      <trkpt lat="39.404651" lon="3.225483">
        <ele>57.526</ele>
        <time>2021-09-01T13:28:36Z</time>
      </trkpt>
      <trkpt lat="39.404607" lon="3.225407">
        <ele>57.611</ele>
        <time>2021-09-01T13:28:38Z</time>
      </trkpt>
      <trkpt lat="39.404575" lon="3.225319">
        <ele>57.745</ele>
        <time>2021-09-01T13:28:40Z</time>
      </trkpt>
      <trkpt lat="39.404545" lon="3.225227">
        <ele>57.824</ele>
        <time>2021-09-01T13:28:42Z</time>
      </trkpt>
      <trkpt lat="39.404518" lon="3.225113">
        <ele>57.919</ele>
        <time>2021-09-01T13:28:44Z</time>
      </trkpt>
      <trkpt lat="39.404496" lon="3.224994">
        <ele>58.136</ele>
        <time>2021-09-01T13:28:46Z</time>
      </trkpt>
      <trkpt lat="39.404466" lon="3.224893">
        <ele>58.296</ele>
        <time>2021-09-01T13:28:48Z</time>
      </trkpt>
      <trkpt lat="39.404459" lon="3.224831">
        <ele>58.253</ele>
        <time>2021-09-01T13:28:49Z</time>
      </trkpt>
      <trkpt lat="39.404442" lon="3.224768">
        <ele>58.204</ele>
        <time>2021-09-01T13:28:50Z</time>
      </trkpt>
      <trkpt lat="39.404416" lon="3.224660">
        <ele>58.414</ele>
        <time>2021-09-01T13:28:52Z</time>
      </trkpt>
      <trkpt lat="39.404383" lon="3.224558">
        <ele>58.608</ele>
        <time>2021-09-01T13:28:54Z</time>
      </trkpt>
      <trkpt lat="39.404352" lon="3.224447">
        <ele>58.783</ele>
        <time>2021-09-01T13:28:56Z</time>
      </trkpt>
      <trkpt lat="39.404322" lon="3.224327">
        <ele>58.817</ele>
        <time>2021-09-01T13:28:58Z</time>
      </trkpt>
      <trkpt lat="39.404288" lon="3.224230">
        <ele>58.962</ele>
        <time>2021-09-01T13:29:00Z</time>
      </trkpt>
      <trkpt lat="39.404272" lon="3.224166">
        <ele>59.066</ele>
        <time>2021-09-01T13:29:01Z</time>
      </trkpt>
      <trkpt lat="39.404256" lon="3.224103">
        <ele>59.145</ele>
        <time>2021-09-01T13:29:02Z</time>
      </trkpt>
      <trkpt lat="39.404234" lon="3.224041">
        <ele>59.230</ele>
        <time>2021-09-01T13:29:03Z</time>
      </trkpt>
      <trkpt lat="39.404215" lon="3.223988">
        <ele>59.237</ele>
        <time>2021-09-01T13:29:04Z</time>
      </trkpt>
      <trkpt lat="39.404186" lon="3.223886">
        <ele>59.677</ele>
        <time>2021-09-01T13:29:06Z</time>
      </trkpt>
      <trkpt lat="39.404152" lon="3.223769">
        <ele>59.753</ele>
        <time>2021-09-01T13:29:08Z</time>
      </trkpt>
      <trkpt lat="39.404121" lon="3.223663">
        <ele>59.904</ele>
        <time>2021-09-01T13:29:10Z</time>
      </trkpt>
      <trkpt lat="39.404096" lon="3.223613">
        <ele>59.914</ele>
        <time>2021-09-01T13:29:11Z</time>
      </trkpt>
      <trkpt lat="39.404082" lon="3.223553">
        <ele>59.908</ele>
        <time>2021-09-01T13:29:12Z</time>
      </trkpt>
      <trkpt lat="39.404061" lon="3.223489">
        <ele>60.053</ele>
        <time>2021-09-01T13:29:13Z</time>
      </trkpt>
      <trkpt lat="39.404060" lon="3.223383">
        <ele>60.237</ele>
        <time>2021-09-01T13:29:15Z</time>
      </trkpt>
      <trkpt lat="39.404112" lon="3.223293">
        <ele>60.442</ele>
        <time>2021-09-01T13:29:17Z</time>
      </trkpt>
      <trkpt lat="39.404173" lon="3.223210">
        <ele>60.696</ele>
        <time>2021-09-01T13:29:19Z</time>
      </trkpt>
      <trkpt lat="39.404202" lon="3.223166">
        <ele>60.735</ele>
        <time>2021-09-01T13:29:20Z</time>
      </trkpt>
      <trkpt lat="39.404257" lon="3.223088">
        <ele>61.190</ele>
        <time>2021-09-01T13:29:22Z</time>
      </trkpt>
      <trkpt lat="39.404307" lon="3.223036">
        <ele>61.317</ele>
        <time>2021-09-01T13:29:24Z</time>
      </trkpt>
      <trkpt lat="39.404323" lon="3.222977">
        <ele>61.537</ele>
        <time>2021-09-01T13:29:27Z</time>
      </trkpt>
      <trkpt lat="39.404346" lon="3.222890">
        <ele>61.467</ele>
        <time>2021-09-01T13:29:29Z</time>
      </trkpt>
      <trkpt lat="39.404380" lon="3.222791">
        <ele>61.481</ele>
        <time>2021-09-01T13:29:31Z</time>
      </trkpt>
      <trkpt lat="39.404419" lon="3.222696">
        <ele>61.519</ele>
        <time>2021-09-01T13:29:33Z</time>
      </trkpt>
      <trkpt lat="39.404459" lon="3.222590">
        <ele>61.608</ele>
        <time>2021-09-01T13:29:35Z</time>
      </trkpt>
      <trkpt lat="39.404474" lon="3.222471">
        <ele>61.734</ele>
        <time>2021-09-01T13:29:37Z</time>
      </trkpt>
      <trkpt lat="39.404468" lon="3.222411">
        <ele>61.768</ele>
        <time>2021-09-01T13:29:38Z</time>
      </trkpt>
      <trkpt lat="39.404452" lon="3.222356">
        <ele>61.753</ele>
        <time>2021-09-01T13:29:39Z</time>
      </trkpt>
      <trkpt lat="39.404432" lon="3.222225">
        <ele>61.667</ele>
        <time>2021-09-01T13:29:41Z</time>
      </trkpt>
      <trkpt lat="39.404431" lon="3.222163">
        <ele>61.596</ele>
        <time>2021-09-01T13:29:42Z</time>
      </trkpt>
      <trkpt lat="39.404436" lon="3.222105">
        <ele>61.541</ele>
        <time>2021-09-01T13:29:43Z</time>
      </trkpt>
      <trkpt lat="39.404447" lon="3.222043">
        <ele>61.588</ele>
        <time>2021-09-01T13:29:44Z</time>
      </trkpt>
      <trkpt lat="39.404469" lon="3.221933">
        <ele>61.678</ele>
        <time>2021-09-01T13:29:46Z</time>
      </trkpt>
      <trkpt lat="39.404484" lon="3.221819">
        <ele>61.914</ele>
        <time>2021-09-01T13:29:48Z</time>
      </trkpt>
      <trkpt lat="39.404495" lon="3.221753">
        <ele>62.154</ele>
        <time>2021-09-01T13:29:49Z</time>
      </trkpt>
      <trkpt lat="39.404508" lon="3.221688">
        <ele>62.309</ele>
        <time>2021-09-01T13:29:50Z</time>
      </trkpt>
      <trkpt lat="39.404518" lon="3.221626">
        <ele>62.408</ele>
        <time>2021-09-01T13:29:51Z</time>
      </trkpt>
      <trkpt lat="39.404521" lon="3.221564">
        <ele>62.629</ele>
        <time>2021-09-01T13:29:52Z</time>
      </trkpt>
      <trkpt lat="39.404533" lon="3.221499">
        <ele>62.893</ele>
        <time>2021-09-01T13:29:53Z</time>
      </trkpt>
      <trkpt lat="39.404542" lon="3.221436">
        <ele>62.988</ele>
        <time>2021-09-01T13:29:54Z</time>
      </trkpt>
      <trkpt lat="39.404561" lon="3.221361">
        <ele>63.162</ele>
        <time>2021-09-01T13:29:55Z</time>
      </trkpt>
      <trkpt lat="39.404583" lon="3.221247">
        <ele>63.461</ele>
        <time>2021-09-01T13:29:57Z</time>
      </trkpt>
      <trkpt lat="39.404596" lon="3.221184">
        <ele>63.646</ele>
        <time>2021-09-01T13:29:58Z</time>
      </trkpt>
      <trkpt lat="39.404612" lon="3.221120">
        <ele>63.783</ele>
        <time>2021-09-01T13:29:59Z</time>
      </trkpt>
      <trkpt lat="39.404623" lon="3.221059">
        <ele>63.953</ele>
        <time>2021-09-01T13:30:00Z</time>
      </trkpt>
      <trkpt lat="39.404635" lon="3.220991">
        <ele>64.175</ele>
        <time>2021-09-01T13:30:01Z</time>
      </trkpt>
      <trkpt lat="39.404647" lon="3.220932">
        <ele>64.328</ele>
        <time>2021-09-01T13:30:02Z</time>
      </trkpt>
      <trkpt lat="39.404669" lon="3.220827">
        <ele>64.720</ele>
        <time>2021-09-01T13:30:04Z</time>
      </trkpt>
      <trkpt lat="39.404675" lon="3.220767">
        <ele>64.908</ele>
        <time>2021-09-01T13:30:05Z</time>
      </trkpt>
      <trkpt lat="39.404689" lon="3.220665">
        <ele>65.145</ele>
        <time>2021-09-01T13:30:07Z</time>
      </trkpt>
      <trkpt lat="39.404709" lon="3.220565">
        <ele>65.239</ele>
        <time>2021-09-01T13:30:09Z</time>
      </trkpt>
      <trkpt lat="39.404716" lon="3.220504">
        <ele>65.394</ele>
        <time>2021-09-01T13:30:10Z</time>
      </trkpt>
      <trkpt lat="39.404735" lon="3.220389">
        <ele>65.588</ele>
        <time>2021-09-01T13:30:12Z</time>
      </trkpt>
      <trkpt lat="39.404760" lon="3.220283">
        <ele>65.817</ele>
        <time>2021-09-01T13:30:14Z</time>
      </trkpt>
      <trkpt lat="39.404770" lon="3.220173">
        <ele>66.292</ele>
        <time>2021-09-01T13:30:16Z</time>
      </trkpt>
      <trkpt lat="39.404781" lon="3.220110">
        <ele>66.389</ele>
        <time>2021-09-01T13:30:17Z</time>
      </trkpt>
      <trkpt lat="39.404801" lon="3.220056">
        <ele>66.579</ele>
        <time>2021-09-01T13:30:18Z</time>
      </trkpt>
      <trkpt lat="39.404808" lon="3.219996">
        <ele>66.719</ele>
        <time>2021-09-01T13:30:19Z</time>
      </trkpt>
      <trkpt lat="39.404835" lon="3.219884">
        <ele>67.009</ele>
        <time>2021-09-01T13:30:21Z</time>
      </trkpt>
      <trkpt lat="39.404840" lon="3.219825">
        <ele>67.219</ele>
        <time>2021-09-01T13:30:22Z</time>
      </trkpt>
      <trkpt lat="39.404853" lon="3.219759">
        <ele>67.308</ele>
        <time>2021-09-01T13:30:23Z</time>
      </trkpt>
      <trkpt lat="39.404872" lon="3.219642">
        <ele>67.639</ele>
        <time>2021-09-01T13:30:25Z</time>
      </trkpt>
      <trkpt lat="39.404895" lon="3.219525">
        <ele>68.063</ele>
        <time>2021-09-01T13:30:27Z</time>
      </trkpt>
      <trkpt lat="39.404908" lon="3.219464">
        <ele>68.188</ele>
        <time>2021-09-01T13:30:28Z</time>
      </trkpt>
      <trkpt lat="39.404918" lon="3.219403">
        <ele>68.282</ele>
        <time>2021-09-01T13:30:29Z</time>
      </trkpt>
      <trkpt lat="39.404929" lon="3.219345">
        <ele>68.451</ele>
        <time>2021-09-01T13:30:30Z</time>
      </trkpt>
      <trkpt lat="39.404942" lon="3.219289">
        <ele>68.596</ele>
        <time>2021-09-01T13:30:31Z</time>
      </trkpt>
      <trkpt lat="39.404954" lon="3.219232">
        <ele>68.653</ele>
        <time>2021-09-01T13:30:32Z</time>
      </trkpt>
      <trkpt lat="39.404965" lon="3.219174">
        <ele>68.783</ele>
        <time>2021-09-01T13:30:33Z</time>
      </trkpt>
      <trkpt lat="39.404982" lon="3.219057">
        <ele>69.024</ele>
        <time>2021-09-01T13:30:35Z</time>
      </trkpt>
      <trkpt lat="39.404992" lon="3.218993">
        <ele>69.104</ele>
        <time>2021-09-01T13:30:36Z</time>
      </trkpt>
      <trkpt lat="39.405007" lon="3.218932">
        <ele>69.214</ele>
        <time>2021-09-01T13:30:37Z</time>
      </trkpt>
      <trkpt lat="39.405021" lon="3.218870">
        <ele>69.308</ele>
        <time>2021-09-01T13:30:38Z</time>
      </trkpt>
      <trkpt lat="39.405032" lon="3.218811">
        <ele>69.470</ele>
        <time>2021-09-01T13:30:39Z</time>
      </trkpt>
      <trkpt lat="39.405038" lon="3.218751">
        <ele>69.584</ele>
        <time>2021-09-01T13:30:40Z</time>
      </trkpt>
      <trkpt lat="39.405058" lon="3.218637">
        <ele>69.889</ele>
        <time>2021-09-01T13:30:42Z</time>
      </trkpt>
      <trkpt lat="39.405071" lon="3.218576">
        <ele>69.883</ele>
        <time>2021-09-01T13:30:43Z</time>
      </trkpt>
      <trkpt lat="39.405082" lon="3.218517">
        <ele>69.942</ele>
        <time>2021-09-01T13:30:44Z</time>
      </trkpt>
      <trkpt lat="39.405093" lon="3.218458">
        <ele>70.087</ele>
        <time>2021-09-01T13:30:45Z</time>
      </trkpt>
      <trkpt lat="39.405121" lon="3.218343">
        <ele>70.274</ele>
        <time>2021-09-01T13:30:47Z</time>
      </trkpt>
      <trkpt lat="39.405171" lon="3.218252">
        <ele>70.434</ele>
        <time>2021-09-01T13:30:49Z</time>
      </trkpt>
      <trkpt lat="39.405229" lon="3.218159">
        <ele>70.716</ele>
        <time>2021-09-01T13:30:51Z</time>
      </trkpt>
      <trkpt lat="39.405254" lon="3.218109">
        <ele>70.876</ele>
        <time>2021-09-01T13:30:52Z</time>
      </trkpt>
      <trkpt lat="39.405301" lon="3.218010">
        <ele>71.013</ele>
        <time>2021-09-01T13:30:54Z</time>
      </trkpt>
      <trkpt lat="39.405334" lon="3.217960">
        <ele>71.208</ele>
        <time>2021-09-01T13:30:55Z</time>
      </trkpt>
      <trkpt lat="39.405359" lon="3.217910">
        <ele>71.329</ele>
        <time>2021-09-01T13:30:56Z</time>
      </trkpt>
      <trkpt lat="39.405391" lon="3.217860">
        <ele>71.463</ele>
        <time>2021-09-01T13:30:57Z</time>
      </trkpt>
      <trkpt lat="39.405422" lon="3.217808">
        <ele>71.598</ele>
        <time>2021-09-01T13:30:58Z</time>
      </trkpt>
      <trkpt lat="39.405449" lon="3.217756">
        <ele>71.772</ele>
        <time>2021-09-01T13:30:59Z</time>
      </trkpt>
      <trkpt lat="39.405483" lon="3.217708">
        <ele>71.831</ele>
        <time>2021-09-01T13:31:00Z</time>
      </trkpt>
      <trkpt lat="39.405511" lon="3.217656">
        <ele>72.026</ele>
        <time>2021-09-01T13:31:01Z</time>
      </trkpt>
      <trkpt lat="39.405540" lon="3.217603">
        <ele>72.183</ele>
        <time>2021-09-01T13:31:02Z</time>
      </trkpt>
      <trkpt lat="39.405567" lon="3.217548">
        <ele>72.263</ele>
        <time>2021-09-01T13:31:03Z</time>
      </trkpt>
      <trkpt lat="39.405595" lon="3.217494">
        <ele>72.395</ele>
        <time>2021-09-01T13:31:04Z</time>
      </trkpt>
      <trkpt lat="39.405658" lon="3.217399">
        <ele>72.549</ele>
        <time>2021-09-01T13:31:06Z</time>
      </trkpt>
      <trkpt lat="39.405686" lon="3.217349">
        <ele>72.623</ele>
        <time>2021-09-01T13:31:07Z</time>
      </trkpt>
      <trkpt lat="39.405722" lon="3.217290">
        <ele>72.708</ele>
        <time>2021-09-01T13:31:08Z</time>
      </trkpt>
      <trkpt lat="39.405753" lon="3.217237">
        <ele>72.917</ele>
        <time>2021-09-01T13:31:09Z</time>
      </trkpt>
      <trkpt lat="39.405780" lon="3.217190">
        <ele>73.061</ele>
        <time>2021-09-01T13:31:10Z</time>
      </trkpt>
      <trkpt lat="39.405807" lon="3.217137">
        <ele>73.136</ele>
        <time>2021-09-01T13:31:11Z</time>
      </trkpt>
      <trkpt lat="39.405836" lon="3.217080">
        <ele>73.340</ele>
        <time>2021-09-01T13:31:12Z</time>
      </trkpt>
      <trkpt lat="39.405868" lon="3.217027">
        <ele>73.599</ele>
        <time>2021-09-01T13:31:13Z</time>
      </trkpt>
      <trkpt lat="39.405893" lon="3.216973">
        <ele>73.624</ele>
        <time>2021-09-01T13:31:14Z</time>
      </trkpt>
      <trkpt lat="39.405923" lon="3.216921">
        <ele>73.731</ele>
        <time>2021-09-01T13:31:15Z</time>
      </trkpt>
      <trkpt lat="39.405953" lon="3.216860">
        <ele>73.941</ele>
        <time>2021-09-01T13:31:16Z</time>
      </trkpt>
      <trkpt lat="39.405985" lon="3.216802">
        <ele>74.065</ele>
        <time>2021-09-01T13:31:17Z</time>
      </trkpt>
      <trkpt lat="39.406016" lon="3.216748">
        <ele>74.168</ele>
        <time>2021-09-01T13:31:18Z</time>
      </trkpt>
      <trkpt lat="39.406045" lon="3.216689">
        <ele>74.214</ele>
        <time>2021-09-01T13:31:19Z</time>
      </trkpt>
      <trkpt lat="39.406074" lon="3.216641">
        <ele>74.308</ele>
        <time>2021-09-01T13:31:20Z</time>
      </trkpt>
      <trkpt lat="39.406101" lon="3.216587">
        <ele>74.334</ele>
        <time>2021-09-01T13:31:21Z</time>
      </trkpt>
      <trkpt lat="39.406127" lon="3.216539">
        <ele>74.388</ele>
        <time>2021-09-01T13:31:22Z</time>
      </trkpt>
      <trkpt lat="39.406159" lon="3.216484">
        <ele>74.413</ele>
        <time>2021-09-01T13:31:23Z</time>
      </trkpt>
      <trkpt lat="39.406192" lon="3.216433">
        <ele>74.627</ele>
        <time>2021-09-01T13:31:24Z</time>
      </trkpt>
      <trkpt lat="39.406237" lon="3.216340">
        <ele>75.096</ele>
        <time>2021-09-01T13:31:26Z</time>
      </trkpt>
      <trkpt lat="39.406269" lon="3.216289">
        <ele>75.181</ele>
        <time>2021-09-01T13:31:27Z</time>
      </trkpt>
      <trkpt lat="39.406290" lon="3.216235">
        <ele>75.348</ele>
        <time>2021-09-01T13:31:28Z</time>
      </trkpt>
      <trkpt lat="39.406319" lon="3.216183">
        <ele>75.568</ele>
        <time>2021-09-01T13:31:29Z</time>
      </trkpt>
      <trkpt lat="39.406354" lon="3.216133">
        <ele>75.714</ele>
        <time>2021-09-01T13:31:30Z</time>
      </trkpt>
      <trkpt lat="39.406378" lon="3.216084">
        <ele>75.954</ele>
        <time>2021-09-01T13:31:31Z</time>
      </trkpt>
      <trkpt lat="39.406432" lon="3.215998">
        <ele>76.209</ele>
        <time>2021-09-01T13:31:33Z</time>
      </trkpt>
      <trkpt lat="39.406451" lon="3.215942">
        <ele>76.308</ele>
        <time>2021-09-01T13:31:34Z</time>
      </trkpt>
      <trkpt lat="39.406497" lon="3.215858">
        <ele>76.419</ele>
        <time>2021-09-01T13:31:36Z</time>
      </trkpt>
      <trkpt lat="39.406550" lon="3.215774">
        <ele>76.513</ele>
        <time>2021-09-01T13:31:38Z</time>
      </trkpt>
      <trkpt lat="39.406580" lon="3.215724">
        <ele>76.738</ele>
        <time>2021-09-01T13:31:39Z</time>
      </trkpt>
      <trkpt lat="39.406628" lon="3.215635">
        <ele>77.162</ele>
        <time>2021-09-01T13:31:41Z</time>
      </trkpt>
      <trkpt lat="39.406676" lon="3.215550">
        <ele>77.531</ele>
        <time>2021-09-01T13:31:43Z</time>
      </trkpt>
      <trkpt lat="39.406724" lon="3.215480">
        <ele>77.866</ele>
        <time>2021-09-01T13:31:45Z</time>
      </trkpt>
      <trkpt lat="39.406773" lon="3.215394">
        <ele>78.183</ele>
        <time>2021-09-01T13:31:47Z</time>
      </trkpt>
      <trkpt lat="39.406821" lon="3.215320">
        <ele>78.573</ele>
        <time>2021-09-01T13:31:49Z</time>
      </trkpt>
      <trkpt lat="39.406868" lon="3.215244">
        <ele>78.936</ele>
        <time>2021-09-01T13:31:51Z</time>
      </trkpt>
      <trkpt lat="39.406914" lon="3.215171">
        <ele>79.117</ele>
        <time>2021-09-01T13:31:53Z</time>
      </trkpt>
      <trkpt lat="39.406950" lon="3.215107">
        <ele>79.418</ele>
        <time>2021-09-01T13:31:55Z</time>
      </trkpt>
      <trkpt lat="39.406979" lon="3.215051">
        <ele>79.808</ele>
        <time>2021-09-01T13:31:57Z</time>
      </trkpt>
      <trkpt lat="39.406968" lon="3.214977">
        <ele>80.311</ele>
        <time>2021-09-01T13:32:01Z</time>
      </trkpt>
      <trkpt lat="39.406931" lon="3.214939">
        <ele>80.555</ele>
        <time>2021-09-01T13:32:03Z</time>
      </trkpt>
      <trkpt lat="39.406887" lon="3.214886">
        <ele>80.610</ele>
        <time>2021-09-01T13:32:05Z</time>
      </trkpt>
      <trkpt lat="39.406839" lon="3.214809">
        <ele>80.884</ele>
        <time>2021-09-01T13:32:07Z</time>
      </trkpt>
      <trkpt lat="39.406776" lon="3.214747">
        <ele>81.073</ele>
        <time>2021-09-01T13:32:09Z</time>
      </trkpt>
      <trkpt lat="39.406717" lon="3.214692">
        <ele>81.248</ele>
        <time>2021-09-01T13:32:11Z</time>
      </trkpt>
      <trkpt lat="39.406667" lon="3.214632">
        <ele>81.455</ele>
        <time>2021-09-01T13:32:13Z</time>
      </trkpt>
      <trkpt lat="39.406636" lon="3.214559">
        <ele>81.575</ele>
        <time>2021-09-01T13:32:15Z</time>
      </trkpt>
      <trkpt lat="39.406617" lon="3.214486">
        <ele>81.633</ele>
        <time>2021-09-01T13:32:17Z</time>
      </trkpt>
      <trkpt lat="39.406638" lon="3.214391">
        <ele>81.923</ele>
        <time>2021-09-01T13:32:19Z</time>
      </trkpt>
      <trkpt lat="39.406670" lon="3.214330">
        <ele>82.315</ele>
        <time>2021-09-01T13:32:21Z</time>
      </trkpt>
      <trkpt lat="39.406713" lon="3.214258">
        <ele>82.508</ele>
        <time>2021-09-01T13:32:23Z</time>
      </trkpt>
      <trkpt lat="39.406760" lon="3.214181">
        <ele>82.691</ele>
        <time>2021-09-01T13:32:25Z</time>
      </trkpt>
      <trkpt lat="39.406794" lon="3.214084">
        <ele>82.835</ele>
        <time>2021-09-01T13:32:27Z</time>
      </trkpt>
      <trkpt lat="39.406840" lon="3.213997">
        <ele>83.030</ele>
        <time>2021-09-01T13:32:29Z</time>
      </trkpt>
      <trkpt lat="39.406877" lon="3.213898">
        <ele>83.434</ele>
        <time>2021-09-01T13:32:31Z</time>
      </trkpt>
      <trkpt lat="39.406925" lon="3.213832">
        <ele>83.883</ele>
        <time>2021-09-01T13:32:33Z</time>
      </trkpt>
      <trkpt lat="39.406963" lon="3.213751">
        <ele>84.458</ele>
        <time>2021-09-01T13:32:35Z</time>
      </trkpt>
      <trkpt lat="39.407001" lon="3.213672">
        <ele>85.045</ele>
        <time>2021-09-01T13:32:37Z</time>
      </trkpt>
      <trkpt lat="39.407029" lon="3.213588">
        <ele>85.675</ele>
        <time>2021-09-01T13:32:39Z</time>
      </trkpt>
      <trkpt lat="39.407069" lon="3.213513">
        <ele>86.037</ele>
        <time>2021-09-01T13:32:41Z</time>
      </trkpt>
      <trkpt lat="39.407101" lon="3.213425">
        <ele>86.549</ele>
        <time>2021-09-01T13:32:43Z</time>
      </trkpt>
      <trkpt lat="39.407132" lon="3.213349">
        <ele>86.813</ele>
        <time>2021-09-01T13:32:45Z</time>
      </trkpt>
      <trkpt lat="39.407148" lon="3.213294">
        <ele>87.108</ele>
        <time>2021-09-01T13:32:47Z</time>
      </trkpt>
      <trkpt lat="39.407183" lon="3.213237">
        <ele>87.571</ele>
        <time>2021-09-01T13:32:49Z</time>
      </trkpt>
      <trkpt lat="39.407213" lon="3.213169">
        <ele>87.785</ele>
        <time>2021-09-01T13:32:51Z</time>
      </trkpt>
      <trkpt lat="39.407238" lon="3.213108">
        <ele>87.930</ele>
        <time>2021-09-01T13:32:53Z</time>
      </trkpt>
      <trkpt lat="39.407267" lon="3.213043">
        <ele>88.264</ele>
        <time>2021-09-01T13:32:55Z</time>
      </trkpt>
      <trkpt lat="39.407295" lon="3.212968">
        <ele>88.663</ele>
        <time>2021-09-01T13:32:57Z</time>
      </trkpt>
      <trkpt lat="39.407325" lon="3.212914">
        <ele>88.968</ele>
        <time>2021-09-01T13:32:59Z</time>
      </trkpt>
      <trkpt lat="39.407356" lon="3.212840">
        <ele>89.465</ele>
        <time>2021-09-01T13:33:01Z</time>
      </trkpt>
      <trkpt lat="39.407375" lon="3.212774">
        <ele>90.025</ele>
        <time>2021-09-01T13:33:03Z</time>
      </trkpt>
      <trkpt lat="39.407409" lon="3.212694">
        <ele>90.654</ele>
        <time>2021-09-01T13:33:05Z</time>
      </trkpt>
      <trkpt lat="39.407435" lon="3.212613">
        <ele>91.056</ele>
        <time>2021-09-01T13:33:07Z</time>
      </trkpt>
      <trkpt lat="39.407460" lon="3.212543">
        <ele>91.311</ele>
        <time>2021-09-01T13:33:09Z</time>
      </trkpt>
      <trkpt lat="39.407497" lon="3.212476">
        <ele>91.608</ele>
        <time>2021-09-01T13:33:11Z</time>
      </trkpt>
      <trkpt lat="39.407526" lon="3.212411">
        <ele>91.913</ele>
        <time>2021-09-01T13:33:13Z</time>
      </trkpt>
      <trkpt lat="39.407557" lon="3.212344">
        <ele>92.257</ele>
        <time>2021-09-01T13:33:15Z</time>
      </trkpt>
      <trkpt lat="39.407594" lon="3.212271">
        <ele>92.772</ele>
        <time>2021-09-01T13:33:17Z</time>
      </trkpt>
      <trkpt lat="39.407616" lon="3.212187">
        <ele>93.176</ele>
        <time>2021-09-01T13:33:19Z</time>
      </trkpt>
      <trkpt lat="39.407648" lon="3.212098">
        <ele>93.395</ele>
        <time>2021-09-01T13:33:21Z</time>
      </trkpt>
      <trkpt lat="39.407680" lon="3.212016">
        <ele>93.460</ele>
        <time>2021-09-01T13:33:22Z</time>
      </trkpt>
      <trkpt lat="39.407712" lon="3.211939">
        <ele>93.717</ele>
        <time>2021-09-01T13:33:25Z</time>
      </trkpt>
      <trkpt lat="39.407740" lon="3.211857">
        <ele>94.027</ele>
        <time>2021-09-01T13:33:26Z</time>
      </trkpt>
      <trkpt lat="39.407772" lon="3.211780">
        <ele>94.564</ele>
        <time>2021-09-01T13:33:29Z</time>
      </trkpt>
      <trkpt lat="39.407804" lon="3.211720">
        <ele>95.106</ele>
        <time>2021-09-01T13:33:31Z</time>
      </trkpt>
      <trkpt lat="39.407828" lon="3.211645">
        <ele>95.616</ele>
        <time>2021-09-01T13:33:33Z</time>
      </trkpt>
      <trkpt lat="39.407859" lon="3.211583">
        <ele>96.008</ele>
        <time>2021-09-01T13:33:35Z</time>
      </trkpt>
      <trkpt lat="39.407884" lon="3.211512">
        <ele>96.594</ele>
        <time>2021-09-01T13:33:37Z</time>
      </trkpt>
      <trkpt lat="39.407909" lon="3.211443">
        <ele>97.168</ele>
        <time>2021-09-01T13:33:39Z</time>
      </trkpt>
      <trkpt lat="39.407939" lon="3.211388">
        <ele>97.583</ele>
        <time>2021-09-01T13:33:41Z</time>
      </trkpt>
      <trkpt lat="39.407966" lon="3.211317">
        <ele>97.527</ele>
        <time>2021-09-01T13:33:43Z</time>
      </trkpt>
      <trkpt lat="39.407993" lon="3.211250">
        <ele>97.646</ele>
        <time>2021-09-01T13:33:45Z</time>
      </trkpt>
      <trkpt lat="39.408020" lon="3.211184">
        <ele>97.931</ele>
        <time>2021-09-01T13:33:47Z</time>
      </trkpt>
      <trkpt lat="39.408048" lon="3.211101">
        <ele>98.488</ele>
        <time>2021-09-01T13:33:49Z</time>
      </trkpt>
      <trkpt lat="39.408075" lon="3.211026">
        <ele>98.778</ele>
        <time>2021-09-01T13:33:51Z</time>
      </trkpt>
      <trkpt lat="39.408099" lon="3.210977">
        <ele>99.052</ele>
        <time>2021-09-01T13:33:53Z</time>
      </trkpt>
      <trkpt lat="39.408121" lon="3.210903">
        <ele>99.253</ele>
        <time>2021-09-01T13:33:55Z</time>
      </trkpt>
      <trkpt lat="39.408148" lon="3.210836">
        <ele>99.608</ele>
        <time>2021-09-01T13:33:57Z</time>
      </trkpt>
      <trkpt lat="39.408177" lon="3.210766">
        <ele>100.108</ele>
        <time>2021-09-01T13:33:59Z</time>
      </trkpt>
      <trkpt lat="39.408202" lon="3.210696">
        <ele>100.613</ele>
        <time>2021-09-01T13:34:01Z</time>
      </trkpt>
      <trkpt lat="39.408231" lon="3.210632">
        <ele>101.237</ele>
        <time>2021-09-01T13:34:03Z</time>
      </trkpt>
      <trkpt lat="39.408256" lon="3.210570">
        <ele>101.662</ele>
        <time>2021-09-01T13:34:05Z</time>
      </trkpt>
      <trkpt lat="39.408282" lon="3.210511">
        <ele>102.276</ele>
        <time>2021-09-01T13:34:07Z</time>
      </trkpt>
      <trkpt lat="39.408300" lon="3.210453">
        <ele>102.885</ele>
        <time>2021-09-01T13:34:09Z</time>
      </trkpt>
      <trkpt lat="39.408309" lon="3.210395">
        <ele>103.520</ele>
        <time>2021-09-01T13:34:12Z</time>
      </trkpt>
      <trkpt lat="39.408346" lon="3.210357">
        <ele>104.167</ele>
        <time>2021-09-01T13:34:14Z</time>
      </trkpt>
      <trkpt lat="39.408377" lon="3.210295">
        <ele>104.667</ele>
        <time>2021-09-01T13:34:16Z</time>
      </trkpt>
      <trkpt lat="39.408395" lon="3.210218">
        <ele>105.283</ele>
        <time>2021-09-01T13:34:19Z</time>
      </trkpt>
      <trkpt lat="39.408422" lon="3.210153">
        <ele>105.625</ele>
        <time>2021-09-01T13:34:21Z</time>
      </trkpt>
      <trkpt lat="39.408443" lon="3.210086">
        <ele>106.217</ele>
        <time>2021-09-01T13:34:24Z</time>
      </trkpt>
      <trkpt lat="39.408456" lon="3.210021">
        <ele>107.208</ele>
        <time>2021-09-01T13:34:27Z</time>
      </trkpt>
      <trkpt lat="39.408469" lon="3.209960">
        <ele>108.016</ele>
        <time>2021-09-01T13:34:30Z</time>
      </trkpt>
      <trkpt lat="39.408494" lon="3.209890">
        <ele>108.490</ele>
        <time>2021-09-01T13:34:33Z</time>
      </trkpt>
      <trkpt lat="39.408466" lon="3.209844">
        <ele>109.195</ele>
        <time>2021-09-01T13:34:35Z</time>
      </trkpt>
      <trkpt lat="39.408428" lon="3.209808">
        <ele>109.799</ele>
        <time>2021-09-01T13:34:37Z</time>
      </trkpt>
      <trkpt lat="39.408379" lon="3.209784">
        <ele>110.198</ele>
        <time>2021-09-01T13:34:39Z</time>
      </trkpt>
      <trkpt lat="39.408312" lon="3.209744">
        <ele>109.823</ele>
        <time>2021-09-01T13:34:41Z</time>
      </trkpt>
      <trkpt lat="39.408266" lon="3.209741">
        <ele>109.610</ele>
        <time>2021-09-01T13:34:42Z</time>
      </trkpt>
      <trkpt lat="39.408188" lon="3.209692">
        <ele>109.340</ele>
        <time>2021-09-01T13:34:44Z</time>
      </trkpt>
      <trkpt lat="39.408146" lon="3.209670">
        <ele>109.297</ele>
        <time>2021-09-01T13:34:45Z</time>
      </trkpt>
      <trkpt lat="39.408082" lon="3.209618">
        <ele>109.223</ele>
        <time>2021-09-01T13:34:47Z</time>
      </trkpt>
      <trkpt lat="39.408006" lon="3.209579">
        <ele>109.225</ele>
        <time>2021-09-01T13:34:49Z</time>
      </trkpt>
      <trkpt lat="39.407924" lon="3.209527">
        <ele>109.108</ele>
        <time>2021-09-01T13:34:51Z</time>
      </trkpt>
      <trkpt lat="39.407878" lon="3.209501">
        <ele>109.147</ele>
        <time>2021-09-01T13:34:52Z</time>
      </trkpt>
      <trkpt lat="39.407831" lon="3.209487">
        <ele>108.981</ele>
        <time>2021-09-01T13:34:53Z</time>
      </trkpt>
      <trkpt lat="39.407790" lon="3.209461">
        <ele>108.756</ele>
        <time>2021-09-01T13:34:54Z</time>
      </trkpt>
      <trkpt lat="39.407730" lon="3.209418">
        <ele>108.470</ele>
        <time>2021-09-01T13:34:56Z</time>
      </trkpt>
      <trkpt lat="39.407690" lon="3.209372">
        <ele>108.319</ele>
        <time>2021-09-01T13:34:57Z</time>
      </trkpt>
      <trkpt lat="39.407628" lon="3.209303">
        <ele>108.384</ele>
        <time>2021-09-01T13:34:59Z</time>
      </trkpt>
      <trkpt lat="39.407566" lon="3.209256">
        <ele>108.321</ele>
        <time>2021-09-01T13:35:01Z</time>
      </trkpt>
      <trkpt lat="39.407513" lon="3.209217">
        <ele>108.541</ele>
        <time>2021-09-01T13:35:03Z</time>
      </trkpt>
      <trkpt lat="39.407465" lon="3.209155">
        <ele>108.635</ele>
        <time>2021-09-01T13:35:05Z</time>
      </trkpt>
      <trkpt lat="39.407415" lon="3.209083">
        <ele>108.986</ele>
        <time>2021-09-01T13:35:07Z</time>
      </trkpt>
      <trkpt lat="39.407365" lon="3.209001">
        <ele>109.114</ele>
        <time>2021-09-01T13:35:09Z</time>
      </trkpt>
      <trkpt lat="39.407331" lon="3.208934">
        <ele>109.008</ele>
        <time>2021-09-01T13:35:11Z</time>
      </trkpt>
      <trkpt lat="39.407284" lon="3.208854">
        <ele>109.041</ele>
        <time>2021-09-01T13:35:13Z</time>
      </trkpt>
      <trkpt lat="39.407247" lon="3.208775">
        <ele>108.855</ele>
        <time>2021-09-01T13:35:15Z</time>
      </trkpt>
      <trkpt lat="39.407210" lon="3.208722">
        <ele>108.810</ele>
        <time>2021-09-01T13:35:17Z</time>
      </trkpt>
      <trkpt lat="39.407160" lon="3.208666">
        <ele>109.184</ele>
        <time>2021-09-01T13:35:19Z</time>
      </trkpt>
      <trkpt lat="39.407135" lon="3.208615">
        <ele>109.863</ele>
        <time>2021-09-01T13:35:26Z</time>
      </trkpt>
      <trkpt lat="39.407165" lon="3.208667">
        <ele>110.328</ele>
        <time>2021-09-01T13:35:32Z</time>
      </trkpt>
      <trkpt lat="39.407201" lon="3.208728">
        <ele>110.525</ele>
        <time>2021-09-01T13:35:34Z</time>
      </trkpt>
      <trkpt lat="39.407250" lon="3.208734">
        <ele>110.465</ele>
        <time>2021-09-01T13:35:37Z</time>
      </trkpt>
      <trkpt lat="39.407159" lon="3.208603">
        <ele>108.966</ele>
        <time>2021-09-01T13:40:44Z</time>
      </trkpt>
      <trkpt lat="39.407117" lon="3.208510">
        <ele>108.829</ele>
        <time>2021-09-01T13:40:46Z</time>
      </trkpt>
      <trkpt lat="39.407080" lon="3.208413">
        <ele>108.921</ele>
        <time>2021-09-01T13:40:48Z</time>
      </trkpt>
      <trkpt lat="39.407051" lon="3.208359">
        <ele>109.108</ele>
        <time>2021-09-01T13:40:49Z</time>
      </trkpt>
      <trkpt lat="39.407010" lon="3.208257">
        <ele>109.474</ele>
        <time>2021-09-01T13:40:51Z</time>
      </trkpt>
      <trkpt lat="39.406976" lon="3.208168">
        <ele>109.578</ele>
        <time>2021-09-01T13:40:53Z</time>
      </trkpt>
      <trkpt lat="39.406943" lon="3.208054">
        <ele>109.493</ele>
        <time>2021-09-01T13:40:55Z</time>
      </trkpt>
      <trkpt lat="39.406929" lon="3.207978">
        <ele>109.467</ele>
        <time>2021-09-01T13:40:56Z</time>
      </trkpt>
      <trkpt lat="39.406911" lon="3.207921">
        <ele>109.546</ele>
        <time>2021-09-01T13:40:57Z</time>
      </trkpt>
      <trkpt lat="39.406889" lon="3.207857">
        <ele>109.671</ele>
        <time>2021-09-01T13:40:58Z</time>
      </trkpt>
      <trkpt lat="39.406869" lon="3.207789">
        <ele>109.618</ele>
        <time>2021-09-01T13:40:59Z</time>
      </trkpt>
      <trkpt lat="39.406845" lon="3.207732">
        <ele>109.678</ele>
        <time>2021-09-01T13:41:00Z</time>
      </trkpt>
      <trkpt lat="39.406823" lon="3.207678">
        <ele>109.794</ele>
        <time>2021-09-01T13:41:01Z</time>
      </trkpt>
      <trkpt lat="39.406799" lon="3.207627">
        <ele>109.757</ele>
        <time>2021-09-01T13:41:02Z</time>
      </trkpt>
      <trkpt lat="39.406775" lon="3.207575">
        <ele>109.822</ele>
        <time>2021-09-01T13:41:03Z</time>
      </trkpt>
      <trkpt lat="39.406744" lon="3.207471">
        <ele>109.908</ele>
        <time>2021-09-01T13:41:05Z</time>
      </trkpt>
      <trkpt lat="39.406728" lon="3.207412">
        <ele>110.027</ele>
        <time>2021-09-01T13:41:06Z</time>
      </trkpt>
      <trkpt lat="39.406707" lon="3.207352">
        <ele>110.091</ele>
        <time>2021-09-01T13:41:07Z</time>
      </trkpt>
      <trkpt lat="39.406698" lon="3.207289">
        <ele>110.136</ele>
        <time>2021-09-01T13:41:08Z</time>
      </trkpt>
      <trkpt lat="39.406685" lon="3.207224">
        <ele>110.270</ele>
        <time>2021-09-01T13:41:09Z</time>
      </trkpt>
      <trkpt lat="39.406665" lon="3.207163">
        <ele>110.379</ele>
        <time>2021-09-01T13:41:10Z</time>
      </trkpt>
      <trkpt lat="39.406651" lon="3.207100">
        <ele>110.384</ele>
        <time>2021-09-01T13:41:11Z</time>
      </trkpt>
      <trkpt lat="39.406635" lon="3.207044">
        <ele>110.491</ele>
        <time>2021-09-01T13:41:12Z</time>
      </trkpt>
      <trkpt lat="39.406613" lon="3.206985">
        <ele>110.421</ele>
        <time>2021-09-01T13:41:13Z</time>
      </trkpt>
      <trkpt lat="39.406594" lon="3.206922">
        <ele>110.587</ele>
        <time>2021-09-01T13:41:14Z</time>
      </trkpt>
      <trkpt lat="39.406560" lon="3.206812">
        <ele>110.542</ele>
        <time>2021-09-01T13:41:16Z</time>
      </trkpt>
      <trkpt lat="39.406544" lon="3.206751">
        <ele>110.526</ele>
        <time>2021-09-01T13:41:17Z</time>
      </trkpt>
      <trkpt lat="39.406528" lon="3.206694">
        <ele>110.508</ele>
        <time>2021-09-01T13:41:18Z</time>
      </trkpt>
      <trkpt lat="39.406510" lon="3.206641">
        <ele>110.566</ele>
        <time>2021-09-01T13:41:19Z</time>
      </trkpt>
      <trkpt lat="39.406491" lon="3.206586">
        <ele>110.670</ele>
        <time>2021-09-01T13:41:20Z</time>
      </trkpt>
      <trkpt lat="39.406473" lon="3.206526">
        <ele>110.685</ele>
        <time>2021-09-01T13:41:21Z</time>
      </trkpt>
      <trkpt lat="39.406458" lon="3.206464">
        <ele>110.629</ele>
        <time>2021-09-01T13:41:22Z</time>
      </trkpt>
      <trkpt lat="39.406442" lon="3.206406">
        <ele>110.988</ele>
        <time>2021-09-01T13:41:23Z</time>
      </trkpt>
      <trkpt lat="39.406425" lon="3.206345">
        <ele>111.173</ele>
        <time>2021-09-01T13:41:24Z</time>
      </trkpt>
      <trkpt lat="39.406404" lon="3.206286">
        <ele>111.370</ele>
        <time>2021-09-01T13:41:25Z</time>
      </trkpt>
      <trkpt lat="39.406386" lon="3.206216">
        <ele>111.350</ele>
        <time>2021-09-01T13:41:26Z</time>
      </trkpt>
      <trkpt lat="39.406366" lon="3.206148">
        <ele>111.665</ele>
        <time>2021-09-01T13:41:27Z</time>
      </trkpt>
      <trkpt lat="39.406347" lon="3.206080">
        <ele>111.768</ele>
        <time>2021-09-01T13:41:28Z</time>
      </trkpt>
      <trkpt lat="39.406330" lon="3.206010">
        <ele>111.714</ele>
        <time>2021-09-01T13:41:29Z</time>
      </trkpt>
      <trkpt lat="39.406312" lon="3.205942">
        <ele>111.808</ele>
        <time>2021-09-01T13:41:30Z</time>
      </trkpt>
      <trkpt lat="39.406295" lon="3.205877">
        <ele>111.864</ele>
        <time>2021-09-01T13:41:31Z</time>
      </trkpt>
      <trkpt lat="39.406276" lon="3.205807">
        <ele>111.948</ele>
        <time>2021-09-01T13:41:32Z</time>
      </trkpt>
      <trkpt lat="39.406259" lon="3.205744">
        <ele>111.933</ele>
        <time>2021-09-01T13:41:33Z</time>
      </trkpt>
      <trkpt lat="39.406242" lon="3.205682">
        <ele>112.067</ele>
        <time>2021-09-01T13:41:34Z</time>
      </trkpt>
      <trkpt lat="39.406223" lon="3.205619">
        <ele>112.236</ele>
        <time>2021-09-01T13:41:35Z</time>
      </trkpt>
      <trkpt lat="39.406207" lon="3.205563">
        <ele>112.361</ele>
        <time>2021-09-01T13:41:36Z</time>
      </trkpt>
      <trkpt lat="39.406189" lon="3.205504">
        <ele>112.428</ele>
        <time>2021-09-01T13:41:37Z</time>
      </trkpt>
      <trkpt lat="39.406161" lon="3.205390">
        <ele>112.628</ele>
        <time>2021-09-01T13:41:39Z</time>
      </trkpt>
      <trkpt lat="39.406145" lon="3.205332">
        <ele>112.783</ele>
        <time>2021-09-01T13:41:39Z</time>
      </trkpt>
      <trkpt lat="39.406109" lon="3.205243">
        <ele>113.225</ele>
        <time>2021-09-01T13:41:41Z</time>
      </trkpt>
      <trkpt lat="39.406081" lon="3.205146">
        <ele>113.417</ele>
        <time>2021-09-01T13:41:43Z</time>
      </trkpt>
      <trkpt lat="39.406057" lon="3.205053">
        <ele>113.908</ele>
        <time>2021-09-01T13:41:45Z</time>
      </trkpt>
      <trkpt lat="39.406029" lon="3.204958">
        <ele>114.556</ele>
        <time>2021-09-01T13:41:47Z</time>
      </trkpt>
      <trkpt lat="39.406004" lon="3.204877">
        <ele>115.150</ele>
        <time>2021-09-01T13:41:49Z</time>
      </trkpt>
      <trkpt lat="39.405990" lon="3.204812">
        <ele>115.585</ele>
        <time>2021-09-01T13:41:51Z</time>
      </trkpt>
      <trkpt lat="39.405977" lon="3.204683">
        <ele>116.299</ele>
        <time>2021-09-01T13:42:00Z</time>
      </trkpt>
      <trkpt lat="39.405974" lon="3.204610">
        <ele>116.258</ele>
        <time>2021-09-01T13:42:02Z</time>
      </trkpt>
      <trkpt lat="39.405976" lon="3.204528">
        <ele>116.493</ele>
        <time>2021-09-01T13:42:04Z</time>
      </trkpt>
      <trkpt lat="39.405973" lon="3.204441">
        <ele>116.690</ele>
        <time>2021-09-01T13:42:07Z</time>
      </trkpt>
      <trkpt lat="39.405973" lon="3.204340">
        <ele>116.890</ele>
        <time>2021-09-01T13:42:09Z</time>
      </trkpt>
      <trkpt lat="39.405975" lon="3.204218">
        <ele>116.745</ele>
        <time>2021-09-01T13:42:11Z</time>
      </trkpt>
      <trkpt lat="39.405980" lon="3.204150">
        <ele>116.747</ele>
        <time>2021-09-01T13:42:12Z</time>
      </trkpt>
      <trkpt lat="39.405980" lon="3.204079">
        <ele>116.511</ele>
        <time>2021-09-01T13:42:13Z</time>
      </trkpt>
      <trkpt lat="39.405983" lon="3.204008">
        <ele>116.308</ele>
        <time>2021-09-01T13:42:14Z</time>
      </trkpt>
      <trkpt lat="39.405984" lon="3.203942">
        <ele>116.182</ele>
        <time>2021-09-01T13:42:15Z</time>
      </trkpt>
      <trkpt lat="39.405986" lon="3.203871">
        <ele>116.056</ele>
        <time>2021-09-01T13:42:16Z</time>
      </trkpt>
      <trkpt lat="39.405991" lon="3.203800">
        <ele>115.831</ele>
        <time>2021-09-01T13:42:17Z</time>
      </trkpt>
      <trkpt lat="39.405996" lon="3.203728">
        <ele>115.675</ele>
        <time>2021-09-01T13:42:18Z</time>
      </trkpt>
      <trkpt lat="39.405998" lon="3.203656">
        <ele>115.514</ele>
        <time>2021-09-01T13:42:19Z</time>
      </trkpt>
      <trkpt lat="39.406004" lon="3.203582">
        <ele>115.429</ele>
        <time>2021-09-01T13:42:20Z</time>
      </trkpt>
      <trkpt lat="39.406008" lon="3.203509">
        <ele>115.386</ele>
        <time>2021-09-01T13:42:21Z</time>
      </trkpt>
      <trkpt lat="39.406012" lon="3.203437">
        <ele>115.366</ele>
        <time>2021-09-01T13:42:22Z</time>
      </trkpt>
      <trkpt lat="39.406021" lon="3.203367">
        <ele>115.231</ele>
        <time>2021-09-01T13:42:23Z</time>
      </trkpt>
      <trkpt lat="39.406027" lon="3.203300">
        <ele>115.261</ele>
        <time>2021-09-01T13:42:24Z</time>
      </trkpt>
      <trkpt lat="39.406036" lon="3.203231">
        <ele>115.207</ele>
        <time>2021-09-01T13:42:25Z</time>
      </trkpt>
      <trkpt lat="39.406039" lon="3.203159">
        <ele>115.208</ele>
        <time>2021-09-01T13:42:26Z</time>
      </trkpt>
      <trkpt lat="39.406038" lon="3.203094">
        <ele>115.241</ele>
        <time>2021-09-01T13:42:27Z</time>
      </trkpt>
      <trkpt lat="39.406039" lon="3.203026">
        <ele>115.295</ele>
        <time>2021-09-01T13:42:28Z</time>
      </trkpt>
      <trkpt lat="39.406042" lon="3.202960">
        <ele>115.270</ele>
        <time>2021-09-01T13:42:29Z</time>
      </trkpt>
      <trkpt lat="39.406047" lon="3.202890">
        <ele>115.224</ele>
        <time>2021-09-01T13:42:30Z</time>
      </trkpt>
      <trkpt lat="39.406050" lon="3.202816">
        <ele>115.153</ele>
        <time>2021-09-01T13:42:31Z</time>
      </trkpt>
      <trkpt lat="39.406051" lon="3.202744">
        <ele>115.098</ele>
        <time>2021-09-01T13:42:32Z</time>
      </trkpt>
      <trkpt lat="39.406056" lon="3.202671">
        <ele>114.935</ele>
        <time>2021-09-01T13:42:33Z</time>
      </trkpt>
      <trkpt lat="39.406057" lon="3.202591">
        <ele>114.755</ele>
        <time>2021-09-01T13:42:34Z</time>
      </trkpt>
      <trkpt lat="39.406060" lon="3.202504">
        <ele>114.632</ele>
        <time>2021-09-01T13:42:35Z</time>
      </trkpt>
      <trkpt lat="39.406063" lon="3.202415">
        <ele>114.592</ele>
        <time>2021-09-01T13:42:36Z</time>
      </trkpt>
      <trkpt lat="39.406067" lon="3.202323">
        <ele>114.311</ele>
        <time>2021-09-01T13:42:37Z</time>
      </trkpt>
      <trkpt lat="39.406070" lon="3.202224">
        <ele>114.108</ele>
        <time>2021-09-01T13:42:38Z</time>
      </trkpt>
      <trkpt lat="39.406072" lon="3.202118">
        <ele>113.941</ele>
        <time>2021-09-01T13:42:39Z</time>
      </trkpt>
      <trkpt lat="39.406078" lon="3.202005">
        <ele>113.655</ele>
        <time>2021-09-01T13:42:40Z</time>
      </trkpt>
      <trkpt lat="39.406078" lon="3.201892">
        <ele>113.110</ele>
        <time>2021-09-01T13:42:41Z</time>
      </trkpt>
      <trkpt lat="39.406082" lon="3.201773">
        <ele>112.614</ele>
        <time>2021-09-01T13:42:42Z</time>
      </trkpt>
      <trkpt lat="39.406085" lon="3.201649">
        <ele>112.253</ele>
        <time>2021-09-01T13:42:43Z</time>
      </trkpt>
      <trkpt lat="39.406088" lon="3.201527">
        <ele>111.738</ele>
        <time>2021-09-01T13:42:44Z</time>
      </trkpt>
      <trkpt lat="39.406088" lon="3.201401">
        <ele>111.355</ele>
        <time>2021-09-01T13:42:45Z</time>
      </trkpt>
      <trkpt lat="39.406086" lon="3.201286">
        <ele>111.075</ele>
        <time>2021-09-01T13:42:46Z</time>
      </trkpt>
      <trkpt lat="39.406096" lon="3.201166">
        <ele>110.877</ele>
        <time>2021-09-01T13:42:47Z</time>
      </trkpt>
      <trkpt lat="39.406107" lon="3.201048">
        <ele>110.661</ele>
        <time>2021-09-01T13:42:48Z</time>
      </trkpt>
      <trkpt lat="39.406119" lon="3.200933">
        <ele>110.427</ele>
        <time>2021-09-01T13:42:49Z</time>
      </trkpt>
      <trkpt lat="39.406146" lon="3.200816">
        <ele>110.208</ele>
        <time>2021-09-01T13:42:50Z</time>
      </trkpt>
      <trkpt lat="39.406175" lon="3.200712">
        <ele>110.065</ele>
        <time>2021-09-01T13:42:51Z</time>
      </trkpt>
      <trkpt lat="39.406201" lon="3.200614">
        <ele>109.939</ele>
        <time>2021-09-01T13:42:52Z</time>
      </trkpt>
      <trkpt lat="39.406226" lon="3.200517">
        <ele>109.984</ele>
        <time>2021-09-01T13:42:53Z</time>
      </trkpt>
      <trkpt lat="39.406258" lon="3.200433">
        <ele>109.968</ele>
        <time>2021-09-01T13:42:54Z</time>
      </trkpt>
      <trkpt lat="39.406297" lon="3.200355">
        <ele>110.057</ele>
        <time>2021-09-01T13:42:55Z</time>
      </trkpt>
      <trkpt lat="39.406335" lon="3.200279">
        <ele>110.172</ele>
        <time>2021-09-01T13:42:56Z</time>
      </trkpt>
      <trkpt lat="39.406368" lon="3.200210">
        <ele>110.159</ele>
        <time>2021-09-01T13:42:57Z</time>
      </trkpt>
      <trkpt lat="39.406402" lon="3.200148">
        <ele>110.079</ele>
        <time>2021-09-01T13:42:58Z</time>
      </trkpt>
      <trkpt lat="39.406427" lon="3.200092">
        <ele>109.912</ele>
        <time>2021-09-01T13:42:59Z</time>
      </trkpt>
      <trkpt lat="39.406453" lon="3.200043">
        <ele>109.732</ele>
        <time>2021-09-01T13:43:00Z</time>
      </trkpt>
      <trkpt lat="39.406498" lon="3.199958">
        <ele>109.105</ele>
        <time>2021-09-01T13:43:02Z</time>
      </trkpt>
      <trkpt lat="39.406548" lon="3.199871">
        <ele>108.508</ele>
        <time>2021-09-01T13:43:04Z</time>
      </trkpt>
      <trkpt lat="39.406616" lon="3.199792">
        <ele>107.989</ele>
        <time>2021-09-01T13:43:06Z</time>
      </trkpt>
      <trkpt lat="39.406654" lon="3.199752">
        <ele>107.693</ele>
        <time>2021-09-01T13:43:07Z</time>
      </trkpt>
      <trkpt lat="39.406698" lon="3.199718">
        <ele>107.448</ele>
        <time>2021-09-01T13:43:08Z</time>
      </trkpt>
      <trkpt lat="39.406743" lon="3.199672">
        <ele>107.232</ele>
        <time>2021-09-01T13:43:09Z</time>
      </trkpt>
      <trkpt lat="39.406792" lon="3.199635">
        <ele>107.021</ele>
        <time>2021-09-01T13:43:10Z</time>
      </trkpt>
      <trkpt lat="39.406844" lon="3.199589">
        <ele>106.836</ele>
        <time>2021-09-01T13:43:11Z</time>
      </trkpt>
      <trkpt lat="39.406896" lon="3.199548">
        <ele>106.743</ele>
        <time>2021-09-01T13:43:12Z</time>
      </trkpt>
      <trkpt lat="39.406948" lon="3.199500">
        <ele>106.573</ele>
        <time>2021-09-01T13:43:13Z</time>
      </trkpt>
      <trkpt lat="39.406997" lon="3.199447">
        <ele>106.411</ele>
        <time>2021-09-01T13:43:14Z</time>
      </trkpt>
      <trkpt lat="39.407052" lon="3.199386">
        <ele>106.321</ele>
        <time>2021-09-01T13:43:15Z</time>
      </trkpt>
      <trkpt lat="39.407096" lon="3.199319">
        <ele>106.103</ele>
        <time>2021-09-01T13:43:16Z</time>
      </trkpt>
      <trkpt lat="39.407150" lon="3.199254">
        <ele>106.008</ele>
        <time>2021-09-01T13:43:17Z</time>
      </trkpt>
      <trkpt lat="39.407198" lon="3.199191">
        <ele>105.989</ele>
        <time>2021-09-01T13:43:18Z</time>
      </trkpt>
      <trkpt lat="39.407253" lon="3.199129">
        <ele>105.943</ele>
        <time>2021-09-01T13:43:19Z</time>
      </trkpt>
      <trkpt lat="39.407304" lon="3.199058">
        <ele>105.838</ele>
        <time>2021-09-01T13:43:20Z</time>
      </trkpt>
      <trkpt lat="39.407362" lon="3.198987">
        <ele>105.722</ele>
        <time>2021-09-01T13:43:21Z</time>
      </trkpt>
      <trkpt lat="39.407421" lon="3.198919">
        <ele>105.611</ele>
        <time>2021-09-01T13:43:22Z</time>
      </trkpt>
      <trkpt lat="39.407482" lon="3.198851">
        <ele>105.446</ele>
        <time>2021-09-01T13:43:23Z</time>
      </trkpt>
      <trkpt lat="39.407543" lon="3.198779">
        <ele>105.143</ele>
        <time>2021-09-01T13:43:24Z</time>
      </trkpt>
      <trkpt lat="39.407605" lon="3.198708">
        <ele>104.793</ele>
        <time>2021-09-01T13:43:25Z</time>
      </trkpt>
      <trkpt lat="39.407664" lon="3.198640">
        <ele>104.553</ele>
        <time>2021-09-01T13:43:26Z</time>
      </trkpt>
      <trkpt lat="39.407720" lon="3.198572">
        <ele>104.104</ele>
        <time>2021-09-01T13:43:27Z</time>
      </trkpt>
      <trkpt lat="39.407783" lon="3.198502">
        <ele>104.014</ele>
        <time>2021-09-01T13:43:28Z</time>
      </trkpt>
      <trkpt lat="39.407841" lon="3.198419">
        <ele>103.708</ele>
        <time>2021-09-01T13:43:29Z</time>
      </trkpt>
      <trkpt lat="39.407898" lon="3.198336">
        <ele>103.623</ele>
        <time>2021-09-01T13:43:30Z</time>
      </trkpt>
      <trkpt lat="39.407959" lon="3.198258">
        <ele>103.367</ele>
        <time>2021-09-01T13:43:31Z</time>
      </trkpt>
      <trkpt lat="39.408014" lon="3.198162">
        <ele>103.162</ele>
        <time>2021-09-01T13:43:32Z</time>
      </trkpt>
      <trkpt lat="39.408064" lon="3.198066">
        <ele>102.936</ele>
        <time>2021-09-01T13:43:33Z</time>
      </trkpt>
      <trkpt lat="39.408125" lon="3.197979">
        <ele>102.645</ele>
        <time>2021-09-01T13:43:34Z</time>
      </trkpt>
      <trkpt lat="39.408183" lon="3.197895">
        <ele>102.420</ele>
        <time>2021-09-01T13:43:35Z</time>
      </trkpt>
      <trkpt lat="39.408247" lon="3.197816">
        <ele>102.167</ele>
        <time>2021-09-01T13:43:36Z</time>
      </trkpt>
      <trkpt lat="39.408312" lon="3.197739">
        <ele>101.957</ele>
        <time>2021-09-01T13:43:37Z</time>
      </trkpt>
      <trkpt lat="39.408368" lon="3.197654">
        <ele>101.729</ele>
        <time>2021-09-01T13:43:38Z</time>
      </trkpt>
      <trkpt lat="39.408421" lon="3.197575">
        <ele>101.600</ele>
        <time>2021-09-01T13:43:39Z</time>
      </trkpt>
      <trkpt lat="39.408478" lon="3.197498">
        <ele>101.620</ele>
        <time>2021-09-01T13:43:40Z</time>
      </trkpt>
      <trkpt lat="39.408533" lon="3.197424">
        <ele>101.508</ele>
        <time>2021-09-01T13:43:41Z</time>
      </trkpt>
      <trkpt lat="39.408588" lon="3.197351">
        <ele>101.350</ele>
        <time>2021-09-01T13:43:42Z</time>
      </trkpt>
      <trkpt lat="39.408646" lon="3.197286">
        <ele>101.184</ele>
        <time>2021-09-01T13:43:43Z</time>
      </trkpt>
      <trkpt lat="39.408705" lon="3.197221">
        <ele>100.979</ele>
        <time>2021-09-01T13:43:44Z</time>
      </trkpt>
      <trkpt lat="39.408764" lon="3.197160">
        <ele>100.743</ele>
        <time>2021-09-01T13:43:45Z</time>
      </trkpt>
      <trkpt lat="39.408825" lon="3.197107">
        <ele>100.772</ele>
        <time>2021-09-01T13:43:46Z</time>
      </trkpt>
      <trkpt lat="39.408885" lon="3.197063">
        <ele>100.777</ele>
        <time>2021-09-01T13:43:47Z</time>
      </trkpt>
      <trkpt lat="39.408941" lon="3.197014">
        <ele>100.994</ele>
        <time>2021-09-01T13:43:48Z</time>
      </trkpt>
      <trkpt lat="39.409000" lon="3.196976">
        <ele>101.184</ele>
        <time>2021-09-01T13:43:49Z</time>
      </trkpt>
      <trkpt lat="39.409057" lon="3.196935">
        <ele>101.362</ele>
        <time>2021-09-01T13:43:50Z</time>
      </trkpt>
      <trkpt lat="39.409113" lon="3.196895">
        <ele>101.483</ele>
        <time>2021-09-01T13:43:51Z</time>
      </trkpt>
      <trkpt lat="39.409171" lon="3.196859">
        <ele>101.511</ele>
        <time>2021-09-01T13:43:52Z</time>
      </trkpt>
      <trkpt lat="39.409229" lon="3.196827">
        <ele>101.608</ele>
        <time>2021-09-01T13:43:53Z</time>
      </trkpt>
      <trkpt lat="39.409288" lon="3.196795">
        <ele>101.724</ele>
        <time>2021-09-01T13:43:54Z</time>
      </trkpt>
      <trkpt lat="39.409345" lon="3.196764">
        <ele>101.768</ele>
        <time>2021-09-01T13:43:55Z</time>
      </trkpt>
      <trkpt lat="39.409401" lon="3.196730">
        <ele>101.783</ele>
        <time>2021-09-01T13:43:56Z</time>
      </trkpt>
      <trkpt lat="39.409457" lon="3.196695">
        <ele>101.857</ele>
        <time>2021-09-01T13:43:57Z</time>
      </trkpt>
      <trkpt lat="39.409514" lon="3.196667">
        <ele>101.896</ele>
        <time>2021-09-01T13:43:58Z</time>
      </trkpt>
      <trkpt lat="39.409574" lon="3.196634">
        <ele>101.921</ele>
        <time>2021-09-01T13:43:59Z</time>
      </trkpt>
      <trkpt lat="39.409629" lon="3.196605">
        <ele>102.028</ele>
        <time>2021-09-01T13:44:00Z</time>
      </trkpt>
      <trkpt lat="39.409683" lon="3.196579">
        <ele>102.178</ele>
        <time>2021-09-01T13:44:01Z</time>
      </trkpt>
      <trkpt lat="39.409731" lon="3.196537">
        <ele>102.195</ele>
        <time>2021-09-01T13:44:02Z</time>
      </trkpt>
      <trkpt lat="39.409780" lon="3.196501">
        <ele>102.249</ele>
        <time>2021-09-01T13:44:03Z</time>
      </trkpt>
      <trkpt lat="39.409829" lon="3.196470">
        <ele>102.323</ele>
        <time>2021-09-01T13:44:04Z</time>
      </trkpt>
      <trkpt lat="39.409881" lon="3.196444">
        <ele>102.408</ele>
        <time>2021-09-01T13:44:05Z</time>
      </trkpt>
      <trkpt lat="39.409934" lon="3.196412">
        <ele>102.487</ele>
        <time>2021-09-01T13:44:06Z</time>
      </trkpt>
      <trkpt lat="39.409984" lon="3.196375">
        <ele>102.671</ele>
        <time>2021-09-01T13:44:07Z</time>
      </trkpt>
      <trkpt lat="39.410033" lon="3.196341">
        <ele>102.676</ele>
        <time>2021-09-01T13:44:08Z</time>
      </trkpt>
      <trkpt lat="39.410083" lon="3.196308">
        <ele>102.890</ele>
        <time>2021-09-01T13:44:09Z</time>
      </trkpt>
      <trkpt lat="39.410129" lon="3.196272">
        <ele>102.919</ele>
        <time>2021-09-01T13:44:10Z</time>
      </trkpt>
      <trkpt lat="39.410169" lon="3.196225">
        <ele>103.134</ele>
        <time>2021-09-01T13:44:11Z</time>
      </trkpt>
      <trkpt lat="39.410206" lon="3.196171">
        <ele>103.281</ele>
        <time>2021-09-01T13:44:12Z</time>
      </trkpt>
      <trkpt lat="39.410238" lon="3.196111">
        <ele>103.331</ele>
        <time>2021-09-01T13:44:13Z</time>
      </trkpt>
      <trkpt lat="39.410270" lon="3.196054">
        <ele>103.365</ele>
        <time>2021-09-01T13:44:14Z</time>
      </trkpt>
      <trkpt lat="39.410301" lon="3.195991">
        <ele>103.368</ele>
        <time>2021-09-01T13:44:15Z</time>
      </trkpt>
      <trkpt lat="39.410329" lon="3.195936">
        <ele>103.414</ele>
        <time>2021-09-01T13:44:16Z</time>
      </trkpt>
      <trkpt lat="39.410362" lon="3.195875">
        <ele>103.408</ele>
        <time>2021-09-01T13:44:17Z</time>
      </trkpt>
      <trkpt lat="39.410396" lon="3.195821">
        <ele>103.534</ele>
        <time>2021-09-01T13:44:18Z</time>
      </trkpt>
      <trkpt lat="39.410426" lon="3.195769">
        <ele>103.628</ele>
        <time>2021-09-01T13:44:19Z</time>
      </trkpt>
      <trkpt lat="39.410458" lon="3.195713">
        <ele>103.793</ele>
        <time>2021-09-01T13:44:20Z</time>
      </trkpt>
      <trkpt lat="39.410490" lon="3.195660">
        <ele>103.977</ele>
        <time>2021-09-01T13:44:21Z</time>
      </trkpt>
      <trkpt lat="39.410525" lon="3.195607">
        <ele>104.056</ele>
        <time>2021-09-01T13:44:22Z</time>
      </trkpt>
      <trkpt lat="39.410557" lon="3.195559">
        <ele>104.241</ele>
        <time>2021-09-01T13:44:23Z</time>
      </trkpt>
      <trkpt lat="39.410590" lon="3.195510">
        <ele>104.458</ele>
        <time>2021-09-01T13:44:24Z</time>
      </trkpt>
      <trkpt lat="39.410625" lon="3.195462">
        <ele>104.668</ele>
        <time>2021-09-01T13:44:25Z</time>
      </trkpt>
      <trkpt lat="39.410651" lon="3.195406">
        <ele>104.861</ele>
        <time>2021-09-01T13:44:26Z</time>
      </trkpt>
      <trkpt lat="39.410681" lon="3.195355">
        <ele>105.021</ele>
        <time>2021-09-01T13:44:27Z</time>
      </trkpt>
      <trkpt lat="39.410709" lon="3.195299">
        <ele>105.213</ele>
        <time>2021-09-01T13:44:28Z</time>
      </trkpt>
      <trkpt lat="39.410736" lon="3.195235">
        <ele>105.308</ele>
        <time>2021-09-01T13:44:29Z</time>
      </trkpt>
      <trkpt lat="39.410761" lon="3.195175">
        <ele>105.534</ele>
        <time>2021-09-01T13:44:30Z</time>
      </trkpt>
      <trkpt lat="39.410786" lon="3.195116">
        <ele>105.648</ele>
        <time>2021-09-01T13:44:31Z</time>
      </trkpt>
      <trkpt lat="39.410813" lon="3.195048">
        <ele>105.683</ele>
        <time>2021-09-01T13:44:32Z</time>
      </trkpt>
      <trkpt lat="39.410840" lon="3.194987">
        <ele>105.717</ele>
        <time>2021-09-01T13:44:33Z</time>
      </trkpt>
      <trkpt lat="39.410869" lon="3.194922">
        <ele>105.756</ele>
        <time>2021-09-01T13:44:34Z</time>
      </trkpt>
      <trkpt lat="39.410891" lon="3.194860">
        <ele>105.891</ele>
        <time>2021-09-01T13:44:35Z</time>
      </trkpt>
      <trkpt lat="39.410914" lon="3.194794">
        <ele>106.048</ele>
        <time>2021-09-01T13:44:36Z</time>
      </trkpt>
      <trkpt lat="39.410941" lon="3.194735">
        <ele>106.298</ele>
        <time>2021-09-01T13:44:37Z</time>
      </trkpt>
      <trkpt lat="39.410970" lon="3.194679">
        <ele>106.525</ele>
        <time>2021-09-01T13:44:38Z</time>
      </trkpt>
      <trkpt lat="39.410999" lon="3.194619">
        <ele>106.726</ele>
        <time>2021-09-01T13:44:39Z</time>
      </trkpt>
      <trkpt lat="39.411029" lon="3.194569">
        <ele>107.008</ele>
        <time>2021-09-01T13:44:40Z</time>
      </trkpt>
      <trkpt lat="39.411057" lon="3.194516">
        <ele>107.208</ele>
        <time>2021-09-01T13:44:41Z</time>
      </trkpt>
      <trkpt lat="39.411082" lon="3.194456">
        <ele>107.360</ele>
        <time>2021-09-01T13:44:42Z</time>
      </trkpt>
      <trkpt lat="39.411115" lon="3.194395">
        <ele>107.524</ele>
        <time>2021-09-01T13:44:43Z</time>
      </trkpt>
      <trkpt lat="39.411146" lon="3.194338">
        <ele>107.779</ele>
        <time>2021-09-01T13:44:44Z</time>
      </trkpt>
      <trkpt lat="39.411177" lon="3.194284">
        <ele>107.853</ele>
        <time>2021-09-01T13:44:45Z</time>
      </trkpt>
      <trkpt lat="39.411206" lon="3.194225">
        <ele>108.072</ele>
        <time>2021-09-01T13:44:46Z</time>
      </trkpt>
      <trkpt lat="39.411233" lon="3.194173">
        <ele>108.147</ele>
        <time>2021-09-01T13:44:47Z</time>
      </trkpt>
      <trkpt lat="39.411268" lon="3.194127">
        <ele>108.214</ele>
        <time>2021-09-01T13:44:48Z</time>
      </trkpt>
      <trkpt lat="39.411302" lon="3.194074">
        <ele>108.374</ele>
        <time>2021-09-01T13:44:49Z</time>
      </trkpt>
      <trkpt lat="39.411341" lon="3.194024">
        <ele>108.396</ele>
        <time>2021-09-01T13:44:50Z</time>
      </trkpt>
      <trkpt lat="39.411378" lon="3.193979">
        <ele>108.331</ele>
        <time>2021-09-01T13:44:51Z</time>
      </trkpt>
      <trkpt lat="39.411422" lon="3.193936">
        <ele>108.424</ele>
        <time>2021-09-01T13:44:52Z</time>
      </trkpt>
      <trkpt lat="39.411464" lon="3.193892">
        <ele>108.508</ele>
        <time>2021-09-01T13:44:53Z</time>
      </trkpt>
      <trkpt lat="39.411507" lon="3.193848">
        <ele>108.677</ele>
        <time>2021-09-01T13:44:54Z</time>
      </trkpt>
      <trkpt lat="39.411550" lon="3.193810">
        <ele>108.891</ele>
        <time>2021-09-01T13:44:55Z</time>
      </trkpt>
      <trkpt lat="39.411592" lon="3.193778">
        <ele>108.986</ele>
        <time>2021-09-01T13:44:56Z</time>
      </trkpt>
      <trkpt lat="39.411633" lon="3.193746">
        <ele>109.290</ele>
        <time>2021-09-01T13:44:57Z</time>
      </trkpt>
      <trkpt lat="39.411674" lon="3.193709">
        <ele>109.489</ele>
        <time>2021-09-01T13:44:58Z</time>
      </trkpt>
      <trkpt lat="39.411746" lon="3.193640">
        <ele>109.794</ele>
        <time>2021-09-01T13:45:00Z</time>
      </trkpt>
      <trkpt lat="39.411807" lon="3.193562">
        <ele>110.321</ele>
        <time>2021-09-01T13:45:02Z</time>
      </trkpt>
      <trkpt lat="39.411862" lon="3.193487">
        <ele>110.811</ele>
        <time>2021-09-01T13:45:04Z</time>
      </trkpt>
      <trkpt lat="39.411911" lon="3.193407">
        <ele>111.573</ele>
        <time>2021-09-01T13:45:06Z</time>
      </trkpt>
      <trkpt lat="39.411962" lon="3.193330">
        <ele>112.085</ele>
        <time>2021-09-01T13:45:08Z</time>
      </trkpt>
      <trkpt lat="39.412007" lon="3.193250">
        <ele>112.413</ele>
        <time>2021-09-01T13:45:10Z</time>
      </trkpt>
      <trkpt lat="39.412053" lon="3.193173">
        <ele>112.708</ele>
        <time>2021-09-01T13:45:12Z</time>
      </trkpt>
      <trkpt lat="39.412100" lon="3.193091">
        <ele>113.165</ele>
        <time>2021-09-01T13:45:14Z</time>
      </trkpt>
      <trkpt lat="39.412149" lon="3.193013">
        <ele>113.679</ele>
        <time>2021-09-01T13:45:16Z</time>
      </trkpt>
      <trkpt lat="39.412194" lon="3.192937">
        <ele>114.094</ele>
        <time>2021-09-01T13:45:18Z</time>
      </trkpt>
      <trkpt lat="39.412240" lon="3.192875">
        <ele>114.558</ele>
        <time>2021-09-01T13:45:20Z</time>
      </trkpt>
      <trkpt lat="39.412280" lon="3.192805">
        <ele>114.897</ele>
        <time>2021-09-01T13:45:22Z</time>
      </trkpt>
      <trkpt lat="39.412323" lon="3.192741">
        <ele>115.282</ele>
        <time>2021-09-01T13:45:24Z</time>
      </trkpt>
      <trkpt lat="39.412359" lon="3.192675">
        <ele>115.629</ele>
        <time>2021-09-01T13:45:26Z</time>
      </trkpt>
      <trkpt lat="39.412394" lon="3.192609">
        <ele>116.069</ele>
        <time>2021-09-01T13:45:28Z</time>
      </trkpt>
      <trkpt lat="39.412427" lon="3.192546">
        <ele>116.588</ele>
        <time>2021-09-01T13:45:30Z</time>
      </trkpt>
      <trkpt lat="39.412461" lon="3.192480">
        <ele>116.924</ele>
        <time>2021-09-01T13:45:32Z</time>
      </trkpt>
      <trkpt lat="39.412497" lon="3.192428">
        <ele>117.426</ele>
        <time>2021-09-01T13:45:34Z</time>
      </trkpt>
      <trkpt lat="39.412530" lon="3.192374">
        <ele>117.908</ele>
        <time>2021-09-01T13:45:36Z</time>
      </trkpt>
      <trkpt lat="39.412564" lon="3.192318">
        <ele>118.336</ele>
        <time>2021-09-01T13:45:38Z</time>
      </trkpt>
      <trkpt lat="39.412593" lon="3.192257">
        <ele>118.810</ele>
        <time>2021-09-01T13:45:40Z</time>
      </trkpt>
      <trkpt lat="39.412616" lon="3.192197">
        <ele>119.325</ele>
        <time>2021-09-01T13:45:42Z</time>
      </trkpt>
      <trkpt lat="39.412636" lon="3.192140">
        <ele>119.749</ele>
        <time>2021-09-01T13:45:44Z</time>
      </trkpt>
      <trkpt lat="39.412655" lon="3.192072">
        <ele>120.238</ele>
        <time>2021-09-01T13:45:46Z</time>
      </trkpt>
      <trkpt lat="39.412672" lon="3.192003">
        <ele>120.663</ele>
        <time>2021-09-01T13:45:48Z</time>
      </trkpt>
      <trkpt lat="39.412691" lon="3.191936">
        <ele>121.020</ele>
        <time>2021-09-01T13:45:50Z</time>
      </trkpt>
      <trkpt lat="39.412705" lon="3.191852">
        <ele>121.220</ele>
        <time>2021-09-01T13:45:52Z</time>
      </trkpt>
      <trkpt lat="39.412722" lon="3.191778">
        <ele>121.539</ele>
        <time>2021-09-01T13:45:54Z</time>
      </trkpt>
      <trkpt lat="39.412736" lon="3.191689">
        <ele>121.901</ele>
        <time>2021-09-01T13:45:56Z</time>
      </trkpt>
      <trkpt lat="39.412755" lon="3.191619">
        <ele>122.221</ele>
        <time>2021-09-01T13:45:58Z</time>
      </trkpt>
      <trkpt lat="39.412784" lon="3.191547">
        <ele>122.408</ele>
        <time>2021-09-01T13:46:00Z</time>
      </trkpt>
      <trkpt lat="39.412814" lon="3.191453">
        <ele>122.511</ele>
        <time>2021-09-01T13:46:02Z</time>
      </trkpt>
      <trkpt lat="39.412854" lon="3.191366">
        <ele>122.755</ele>
        <time>2021-09-01T13:46:04Z</time>
      </trkpt>
      <trkpt lat="39.412902" lon="3.191289">
        <ele>123.260</ele>
        <time>2021-09-01T13:46:06Z</time>
      </trkpt>
      <trkpt lat="39.412935" lon="3.191242">
        <ele>123.434</ele>
        <time>2021-09-01T13:46:07Z</time>
      </trkpt>
      <trkpt lat="39.412969" lon="3.191189">
        <ele>123.683</ele>
        <time>2021-09-01T13:46:08Z</time>
      </trkpt>
      <trkpt lat="39.413008" lon="3.191134">
        <ele>123.798</ele>
        <time>2021-09-01T13:46:09Z</time>
      </trkpt>
      <trkpt lat="39.413052" lon="3.191061">
        <ele>123.715</ele>
        <time>2021-09-01T13:46:10Z</time>
      </trkpt>
      <trkpt lat="39.413096" lon="3.190992">
        <ele>123.415</ele>
        <time>2021-09-01T13:46:11Z</time>
      </trkpt>
      <trkpt lat="39.413151" lon="3.190916">
        <ele>123.138</ele>
        <time>2021-09-01T13:46:12Z</time>
      </trkpt>
      <trkpt lat="39.413169" lon="3.190831">
        <ele>122.670</ele>
        <time>2021-09-01T13:46:13Z</time>
      </trkpt>
      <trkpt lat="39.413189" lon="3.190713">
        <ele>122.117</ele>
        <time>2021-09-01T13:46:14Z</time>
      </trkpt>
      <trkpt lat="39.413193" lon="3.190584">
        <ele>121.608</ele>
        <time>2021-09-01T13:46:15Z</time>
      </trkpt>
      <trkpt lat="39.413195" lon="3.190474">
        <ele>121.021</ele>
        <time>2021-09-01T13:46:16Z</time>
      </trkpt>
      <trkpt lat="39.413203" lon="3.190341">
        <ele>120.335</ele>
        <time>2021-09-01T13:46:17Z</time>
      </trkpt>
      <trkpt lat="39.413209" lon="3.190226">
        <ele>119.630</ele>
        <time>2021-09-01T13:46:18Z</time>
      </trkpt>
      <trkpt lat="39.413217" lon="3.190100">
        <ele>119.034</ele>
        <time>2021-09-01T13:46:19Z</time>
      </trkpt>
      <trkpt lat="39.413221" lon="3.189974">
        <ele>118.463</ele>
        <time>2021-09-01T13:46:20Z</time>
      </trkpt>
      <trkpt lat="39.413224" lon="3.189853">
        <ele>118.098</ele>
        <time>2021-09-01T13:46:21Z</time>
      </trkpt>
      <trkpt lat="39.413231" lon="3.189743">
        <ele>117.775</ele>
        <time>2021-09-01T13:46:22Z</time>
      </trkpt>
      <trkpt lat="39.413244" lon="3.189632">
        <ele>117.695</ele>
        <time>2021-09-01T13:46:23Z</time>
      </trkpt>
      <trkpt lat="39.413267" lon="3.189528">
        <ele>117.611</ele>
        <time>2021-09-01T13:46:24Z</time>
      </trkpt>
      <trkpt lat="39.413293" lon="3.189444">
        <ele>117.921</ele>
        <time>2021-09-01T13:46:25Z</time>
      </trkpt>
      <trkpt lat="39.413324" lon="3.189370">
        <ele>118.303</ele>
        <time>2021-09-01T13:46:26Z</time>
      </trkpt>
      <trkpt lat="39.413365" lon="3.189315">
        <ele>118.708</ele>
        <time>2021-09-01T13:46:27Z</time>
      </trkpt>
      <trkpt lat="39.413401" lon="3.189274">
        <ele>119.359</ele>
        <time>2021-09-01T13:46:28Z</time>
      </trkpt>
      <trkpt lat="39.413434" lon="3.189222">
        <ele>119.923</ele>
        <time>2021-09-01T13:46:29Z</time>
      </trkpt>
      <trkpt lat="39.413502" lon="3.189144">
        <ele>121.028</ele>
        <time>2021-09-01T13:46:31Z</time>
      </trkpt>
      <trkpt lat="39.413566" lon="3.189063">
        <ele>121.932</ele>
        <time>2021-09-01T13:46:33Z</time>
      </trkpt>
      <trkpt lat="39.413637" lon="3.188991">
        <ele>122.741</ele>
        <time>2021-09-01T13:46:35Z</time>
      </trkpt>
      <trkpt lat="39.413672" lon="3.188952">
        <ele>122.946</ele>
        <time>2021-09-01T13:46:36Z</time>
      </trkpt>
      <trkpt lat="39.413712" lon="3.188916">
        <ele>123.093</ele>
        <time>2021-09-01T13:46:37Z</time>
      </trkpt>
      <trkpt lat="39.413750" lon="3.188875">
        <ele>123.173</ele>
        <time>2021-09-01T13:46:38Z</time>
      </trkpt>
      <trkpt lat="39.413821" lon="3.188797">
        <ele>123.285</ele>
        <time>2021-09-01T13:46:40Z</time>
      </trkpt>
      <trkpt lat="39.413863" lon="3.188748">
        <ele>123.489</ele>
        <time>2021-09-01T13:46:41Z</time>
      </trkpt>
      <trkpt lat="39.413901" lon="3.188699">
        <ele>123.617</ele>
        <time>2021-09-01T13:46:42Z</time>
      </trkpt>
      <trkpt lat="39.413939" lon="3.188647">
        <ele>123.708</ele>
        <time>2021-09-01T13:46:43Z</time>
      </trkpt>
      <trkpt lat="39.413972" lon="3.188589">
        <ele>123.856</ele>
        <time>2021-09-01T13:46:44Z</time>
      </trkpt>
      <trkpt lat="39.414002" lon="3.188527">
        <ele>123.860</ele>
        <time>2021-09-01T13:46:45Z</time>
      </trkpt>
      <trkpt lat="39.414023" lon="3.188459">
        <ele>123.895</ele>
        <time>2021-09-01T13:46:46Z</time>
      </trkpt>
      <trkpt lat="39.414033" lon="3.188398">
        <ele>123.899</ele>
        <time>2021-09-01T13:46:47Z</time>
      </trkpt>
      <trkpt lat="39.414045" lon="3.188329">
        <ele>123.858</ele>
        <time>2021-09-01T13:46:48Z</time>
      </trkpt>
      <trkpt lat="39.414053" lon="3.188260">
        <ele>123.893</ele>
        <time>2021-09-01T13:46:49Z</time>
      </trkpt>
      <trkpt lat="39.414061" lon="3.188190">
        <ele>123.990</ele>
        <time>2021-09-01T13:46:50Z</time>
      </trkpt>
      <trkpt lat="39.414071" lon="3.188116">
        <ele>124.020</ele>
        <time>2021-09-01T13:46:51Z</time>
      </trkpt>
      <trkpt lat="39.414084" lon="3.188038">
        <ele>124.114</ele>
        <time>2021-09-01T13:46:52Z</time>
      </trkpt>
      <trkpt lat="39.414104" lon="3.187949">
        <ele>124.154</ele>
        <time>2021-09-01T13:46:53Z</time>
      </trkpt>
      <trkpt lat="39.414126" lon="3.187864">
        <ele>124.009</ele>
        <time>2021-09-01T13:46:54Z</time>
      </trkpt>
      <trkpt lat="39.414153" lon="3.187776">
        <ele>123.808</ele>
        <time>2021-09-01T13:46:55Z</time>
      </trkpt>
      <trkpt lat="39.414186" lon="3.187690">
        <ele>123.639</ele>
        <time>2021-09-01T13:46:56Z</time>
      </trkpt>
      <trkpt lat="39.414224" lon="3.187600">
        <ele>123.323</ele>
        <time>2021-09-01T13:46:57Z</time>
      </trkpt>
      <trkpt lat="39.414267" lon="3.187512">
        <ele>123.058</ele>
        <time>2021-09-01T13:46:58Z</time>
      </trkpt>
      <trkpt lat="39.414314" lon="3.187426">
        <ele>122.682</ele>
        <time>2021-09-01T13:46:59Z</time>
      </trkpt>
      <trkpt lat="39.414366" lon="3.187352">
        <ele>122.581</ele>
        <time>2021-09-01T13:47:00Z</time>
      </trkpt>
      <trkpt lat="39.414417" lon="3.187274">
        <ele>122.436</ele>
        <time>2021-09-01T13:47:01Z</time>
      </trkpt>
      <trkpt lat="39.414467" lon="3.187207">
        <ele>122.383</ele>
        <time>2021-09-01T13:47:02Z</time>
      </trkpt>
      <trkpt lat="39.414517" lon="3.187139">
        <ele>122.173</ele>
        <time>2021-09-01T13:47:03Z</time>
      </trkpt>
      <trkpt lat="39.414568" lon="3.187076">
        <ele>122.081</ele>
        <time>2021-09-01T13:47:04Z</time>
      </trkpt>
      <trkpt lat="39.414617" lon="3.187020">
        <ele>121.861</ele>
        <time>2021-09-01T13:47:05Z</time>
      </trkpt>
      <trkpt lat="39.414665" lon="3.186969">
        <ele>121.617</ele>
        <time>2021-09-01T13:47:06Z</time>
      </trkpt>
      <trkpt lat="39.414710" lon="3.186932">
        <ele>121.408</ele>
        <time>2021-09-01T13:47:07Z</time>
      </trkpt>
      <trkpt lat="39.414753" lon="3.186891">
        <ele>121.356</ele>
        <time>2021-09-01T13:47:08Z</time>
      </trkpt>
      <trkpt lat="39.414793" lon="3.186851">
        <ele>121.250</ele>
        <time>2021-09-01T13:47:09Z</time>
      </trkpt>
      <trkpt lat="39.414833" lon="3.186819">
        <ele>121.245</ele>
        <time>2021-09-01T13:47:10Z</time>
      </trkpt>
      <trkpt lat="39.414871" lon="3.186786">
        <ele>121.149</ele>
        <time>2021-09-01T13:47:11Z</time>
      </trkpt>
      <trkpt lat="39.414943" lon="3.186728">
        <ele>121.348</ele>
        <time>2021-09-01T13:47:13Z</time>
      </trkpt>
      <trkpt lat="39.415007" lon="3.186664">
        <ele>121.883</ele>
        <time>2021-09-01T13:47:15Z</time>
      </trkpt>
      <trkpt lat="39.415072" lon="3.186608">
        <ele>122.430</ele>
        <time>2021-09-01T13:47:17Z</time>
      </trkpt>
      <trkpt lat="39.415136" lon="3.186555">
        <ele>123.120</ele>
        <time>2021-09-01T13:47:19Z</time>
      </trkpt>
      <trkpt lat="39.415195" lon="3.186514">
        <ele>123.736</ele>
        <time>2021-09-01T13:47:21Z</time>
      </trkpt>
      <trkpt lat="39.415251" lon="3.186473">
        <ele>124.317</ele>
        <time>2021-09-01T13:47:23Z</time>
      </trkpt>
      <trkpt lat="39.415314" lon="3.186441">
        <ele>124.818</ele>
        <time>2021-09-01T13:47:25Z</time>
      </trkpt>
      <trkpt lat="39.415364" lon="3.186405">
        <ele>125.508</ele>
        <time>2021-09-01T13:47:27Z</time>
      </trkpt>
      <trkpt lat="39.415411" lon="3.186378">
        <ele>126.091</ele>
        <time>2021-09-01T13:47:29Z</time>
      </trkpt>
      <trkpt lat="39.415450" lon="3.186336">
        <ele>126.465</ele>
        <time>2021-09-01T13:47:31Z</time>
      </trkpt>
      <trkpt lat="39.415500" lon="3.186313">
        <ele>126.740</ele>
        <time>2021-09-01T13:47:33Z</time>
      </trkpt>
      <trkpt lat="39.415546" lon="3.186283">
        <ele>127.184</ele>
        <time>2021-09-01T13:47:35Z</time>
      </trkpt>
      <trkpt lat="39.415596" lon="3.186255">
        <ele>127.363</ele>
        <time>2021-09-01T13:47:37Z</time>
      </trkpt>
      <trkpt lat="39.415645" lon="3.186218">
        <ele>127.578</ele>
        <time>2021-09-01T13:47:39Z</time>
      </trkpt>
      <trkpt lat="39.415695" lon="3.186198">
        <ele>127.725</ele>
        <time>2021-09-01T13:47:41Z</time>
      </trkpt>
      <trkpt lat="39.415745" lon="3.186176">
        <ele>127.935</ele>
        <time>2021-09-01T13:47:43Z</time>
      </trkpt>
      <trkpt lat="39.415792" lon="3.186155">
        <ele>128.262</ele>
        <time>2021-09-01T13:47:45Z</time>
      </trkpt>
      <trkpt lat="39.415858" lon="3.186122">
        <ele>129.083</ele>
        <time>2021-09-01T13:47:48Z</time>
      </trkpt>
      <trkpt lat="39.415904" lon="3.186104">
        <ele>129.811</ele>
        <time>2021-09-01T13:47:50Z</time>
      </trkpt>
      <trkpt lat="39.415953" lon="3.186082">
        <ele>130.608</ele>
        <time>2021-09-01T13:47:52Z</time>
      </trkpt>
      <trkpt lat="39.416008" lon="3.186060">
        <ele>131.274</ele>
        <time>2021-09-01T13:47:54Z</time>
      </trkpt>
      <trkpt lat="39.416051" lon="3.186039">
        <ele>131.528</ele>
        <time>2021-09-01T13:47:55Z</time>
      </trkpt>
      <trkpt lat="39.416119" lon="3.186023">
        <ele>132.043</ele>
        <time>2021-09-01T13:47:57Z</time>
      </trkpt>
      <trkpt lat="39.416180" lon="3.185971">
        <ele>132.377</ele>
        <time>2021-09-01T13:47:59Z</time>
      </trkpt>
      <trkpt lat="39.416234" lon="3.185931">
        <ele>132.916</ele>
        <time>2021-09-01T13:48:01Z</time>
      </trkpt>
      <trkpt lat="39.416291" lon="3.185886">
        <ele>133.721</ele>
        <time>2021-09-01T13:48:03Z</time>
      </trkpt>
      <trkpt lat="39.416342" lon="3.185826">
        <ele>134.398</ele>
        <time>2021-09-01T13:48:05Z</time>
      </trkpt>
      <trkpt lat="39.416384" lon="3.185751">
        <ele>134.878</ele>
        <time>2021-09-01T13:48:07Z</time>
      </trkpt>
      <trkpt lat="39.416423" lon="3.185676">
        <ele>135.255</ele>
        <time>2021-09-01T13:48:09Z</time>
      </trkpt>
      <trkpt lat="39.416476" lon="3.185604">
        <ele>135.707</ele>
        <time>2021-09-01T13:48:11Z</time>
      </trkpt>
      <trkpt lat="39.416525" lon="3.185518">
        <ele>136.217</ele>
        <time>2021-09-01T13:48:13Z</time>
      </trkpt>
      <trkpt lat="39.416567" lon="3.185461">
        <ele>136.708</ele>
        <time>2021-09-01T13:48:15Z</time>
      </trkpt>
      <trkpt lat="39.416594" lon="3.185408">
        <ele>136.983</ele>
        <time>2021-09-01T13:48:16Z</time>
      </trkpt>
      <trkpt lat="39.416640" lon="3.185334">
        <ele>137.557</ele>
        <time>2021-09-01T13:48:18Z</time>
      </trkpt>
      <trkpt lat="39.416691" lon="3.185248">
        <ele>138.022</ele>
        <time>2021-09-01T13:48:20Z</time>
      </trkpt>
      <trkpt lat="39.416714" lon="3.185194">
        <ele>138.356</ele>
        <time>2021-09-01T13:48:21Z</time>
      </trkpt>
      <trkpt lat="39.416759" lon="3.185113">
        <ele>139.055</ele>
        <time>2021-09-01T13:48:23Z</time>
      </trkpt>
      <trkpt lat="39.416789" lon="3.185058">
        <ele>139.380</ele>
        <time>2021-09-01T13:48:24Z</time>
      </trkpt>
      <trkpt lat="39.416825" lon="3.185011">
        <ele>139.667</ele>
        <time>2021-09-01T13:48:25Z</time>
      </trkpt>
      <trkpt lat="39.416855" lon="3.184956">
        <ele>139.897</ele>
        <time>2021-09-01T13:48:26Z</time>
      </trkpt>
      <trkpt lat="39.416888" lon="3.184904">
        <ele>140.097</ele>
        <time>2021-09-01T13:48:27Z</time>
      </trkpt>
      <trkpt lat="39.416917" lon="3.184856">
        <ele>140.123</ele>
        <time>2021-09-01T13:48:28Z</time>
      </trkpt>
      <trkpt lat="39.416944" lon="3.184808">
        <ele>140.325</ele>
        <time>2021-09-01T13:48:29Z</time>
      </trkpt>
      <trkpt lat="39.416972" lon="3.184762">
        <ele>140.408</ele>
        <time>2021-09-01T13:48:30Z</time>
      </trkpt>
      <trkpt lat="39.417022" lon="3.184679">
        <ele>140.797</ele>
        <time>2021-09-01T13:48:32Z</time>
      </trkpt>
      <trkpt lat="39.417057" lon="3.184604">
        <ele>141.131</ele>
        <time>2021-09-01T13:48:34Z</time>
      </trkpt>
      <trkpt lat="39.417096" lon="3.184521">
        <ele>141.516</ele>
        <time>2021-09-01T13:48:36Z</time>
      </trkpt>
      <trkpt lat="39.417130" lon="3.184429">
        <ele>141.940</ele>
        <time>2021-09-01T13:48:38Z</time>
      </trkpt>
      <trkpt lat="39.417169" lon="3.184331">
        <ele>142.179</ele>
        <time>2021-09-01T13:48:40Z</time>
      </trkpt>
      <trkpt lat="39.417206" lon="3.184228">
        <ele>142.484</ele>
        <time>2021-09-01T13:48:42Z</time>
      </trkpt>
      <trkpt lat="39.417218" lon="3.184165">
        <ele>142.571</ele>
        <time>2021-09-01T13:48:43Z</time>
      </trkpt>
      <trkpt lat="39.417226" lon="3.184102">
        <ele>142.521</ele>
        <time>2021-09-01T13:48:44Z</time>
      </trkpt>
      <trkpt lat="39.417239" lon="3.183991">
        <ele>142.759</ele>
        <time>2021-09-01T13:48:46Z</time>
      </trkpt>
      <trkpt lat="39.417252" lon="3.183931">
        <ele>142.903</ele>
        <time>2021-09-01T13:48:47Z</time>
      </trkpt>
      <trkpt lat="39.417260" lon="3.183867">
        <ele>143.123</ele>
        <time>2021-09-01T13:48:48Z</time>
      </trkpt>
      <trkpt lat="39.417269" lon="3.183796">
        <ele>143.308</ele>
        <time>2021-09-01T13:48:49Z</time>
      </trkpt>
      <trkpt lat="39.417274" lon="3.183731">
        <ele>143.563</ele>
        <time>2021-09-01T13:48:50Z</time>
      </trkpt>
      <trkpt lat="39.417282" lon="3.183645">
        <ele>143.777</ele>
        <time>2021-09-01T13:48:51Z</time>
      </trkpt>
      <trkpt lat="39.417296" lon="3.183551">
        <ele>143.772</ele>
        <time>2021-09-01T13:48:52Z</time>
      </trkpt>
      <trkpt lat="39.417312" lon="3.183454">
        <ele>143.796</ele>
        <time>2021-09-01T13:48:53Z</time>
      </trkpt>
      <trkpt lat="39.417324" lon="3.183357">
        <ele>143.515</ele>
        <time>2021-09-01T13:48:54Z</time>
      </trkpt>
      <trkpt lat="39.417329" lon="3.183244">
        <ele>143.220</ele>
        <time>2021-09-01T13:48:55Z</time>
      </trkpt>
      <trkpt lat="39.417332" lon="3.183148">
        <ele>142.827</ele>
        <time>2021-09-01T13:48:56Z</time>
      </trkpt>
      <trkpt lat="39.417338" lon="3.183045">
        <ele>142.477</ele>
        <time>2021-09-01T13:48:57Z</time>
      </trkpt>
      <trkpt lat="39.417343" lon="3.182938">
        <ele>142.196</ele>
        <time>2021-09-01T13:48:58Z</time>
      </trkpt>
      <trkpt lat="39.417346" lon="3.182830">
        <ele>141.831</ele>
        <time>2021-09-01T13:48:59Z</time>
      </trkpt>
      <trkpt lat="39.417346" lon="3.182728">
        <ele>141.624</ele>
        <time>2021-09-01T13:49:00Z</time>
      </trkpt>
      <trkpt lat="39.417341" lon="3.182625">
        <ele>141.508</ele>
        <time>2021-09-01T13:49:01Z</time>
      </trkpt>
      <trkpt lat="39.417338" lon="3.182531">
        <ele>141.327</ele>
        <time>2021-09-01T13:49:02Z</time>
      </trkpt>
      <trkpt lat="39.417336" lon="3.182440">
        <ele>141.351</ele>
        <time>2021-09-01T13:49:03Z</time>
      </trkpt>
      <trkpt lat="39.417334" lon="3.182355">
        <ele>141.316</ele>
        <time>2021-09-01T13:49:04Z</time>
      </trkpt>
      <trkpt lat="39.417331" lon="3.182275">
        <ele>141.460</ele>
        <time>2021-09-01T13:49:05Z</time>
      </trkpt>
      <trkpt lat="39.417335" lon="3.182189">
        <ele>141.419</ele>
        <time>2021-09-01T13:49:06Z</time>
      </trkpt>
      <trkpt lat="39.417330" lon="3.182118">
        <ele>141.634</ele>
        <time>2021-09-01T13:49:07Z</time>
      </trkpt>
      <trkpt lat="39.417333" lon="3.182047">
        <ele>141.791</ele>
        <time>2021-09-01T13:49:08Z</time>
      </trkpt>
      <trkpt lat="39.417330" lon="3.181972">
        <ele>141.991</ele>
        <time>2021-09-01T13:49:09Z</time>
      </trkpt>
      <trkpt lat="39.417340" lon="3.181898">
        <ele>142.216</ele>
        <time>2021-09-01T13:49:10Z</time>
      </trkpt>
      <trkpt lat="39.417355" lon="3.181826">
        <ele>142.576</ele>
        <time>2021-09-01T13:49:11Z</time>
      </trkpt>
      <trkpt lat="39.417372" lon="3.181747">
        <ele>142.613</ele>
        <time>2021-09-01T13:49:12Z</time>
      </trkpt>
      <trkpt lat="39.417388" lon="3.181665">
        <ele>142.708</ele>
        <time>2021-09-01T13:49:13Z</time>
      </trkpt>
      <trkpt lat="39.417408" lon="3.181586">
        <ele>142.819</ele>
        <time>2021-09-01T13:49:14Z</time>
      </trkpt>
      <trkpt lat="39.417424" lon="3.181505">
        <ele>142.993</ele>
        <time>2021-09-01T13:49:15Z</time>
      </trkpt>
      <trkpt lat="39.417438" lon="3.181424">
        <ele>142.978</ele>
        <time>2021-09-01T13:49:16Z</time>
      </trkpt>
      <trkpt lat="39.417452" lon="3.181341">
        <ele>142.992</ele>
        <time>2021-09-01T13:49:17Z</time>
      </trkpt>
      <trkpt lat="39.417464" lon="3.181259">
        <ele>142.991</ele>
        <time>2021-09-01T13:49:18Z</time>
      </trkpt>
      <trkpt lat="39.417480" lon="3.181175">
        <ele>142.986</ele>
        <time>2021-09-01T13:49:19Z</time>
      </trkpt>
      <trkpt lat="39.417497" lon="3.181092">
        <ele>142.873</ele>
        <time>2021-09-01T13:49:20Z</time>
      </trkpt>
      <trkpt lat="39.417512" lon="3.181012">
        <ele>142.883</ele>
        <time>2021-09-01T13:49:21Z</time>
      </trkpt>
      <trkpt lat="39.417532" lon="3.180938">
        <ele>142.767</ele>
        <time>2021-09-01T13:49:22Z</time>
      </trkpt>
      <trkpt lat="39.417549" lon="3.180862">
        <ele>142.681</ele>
        <time>2021-09-01T13:49:23Z</time>
      </trkpt>
      <trkpt lat="39.417571" lon="3.180792">
        <ele>142.619</ele>
        <time>2021-09-01T13:49:24Z</time>
      </trkpt>
      <trkpt lat="39.417594" lon="3.180720">
        <ele>142.708</ele>
        <time>2021-09-01T13:49:25Z</time>
      </trkpt>
      <trkpt lat="39.417627" lon="3.180644">
        <ele>142.854</ele>
        <time>2021-09-01T13:49:26Z</time>
      </trkpt>
      <trkpt lat="39.417666" lon="3.180566">
        <ele>143.098</ele>
        <time>2021-09-01T13:49:27Z</time>
      </trkpt>
      <trkpt lat="39.417704" lon="3.180482">
        <ele>143.293</ele>
        <time>2021-09-01T13:49:28Z</time>
      </trkpt>
      <trkpt lat="39.417743" lon="3.180394">
        <ele>143.267</ele>
        <time>2021-09-01T13:49:29Z</time>
      </trkpt>
      <trkpt lat="39.417779" lon="3.180300">
        <ele>143.236</ele>
        <time>2021-09-01T13:49:30Z</time>
      </trkpt>
      <trkpt lat="39.417813" lon="3.180196">
        <ele>142.941</ele>
        <time>2021-09-01T13:49:31Z</time>
      </trkpt>
      <trkpt lat="39.417839" lon="3.180089">
        <ele>142.668</ele>
        <time>2021-09-01T13:49:32Z</time>
      </trkpt>
      <trkpt lat="39.417868" lon="3.179978">
        <ele>142.268</ele>
        <time>2021-09-01T13:49:33Z</time>
      </trkpt>
      <trkpt lat="39.417894" lon="3.179870">
        <ele>141.865</ele>
        <time>2021-09-01T13:49:34Z</time>
      </trkpt>
      <trkpt lat="39.417919" lon="3.179762">
        <ele>141.468</ele>
        <time>2021-09-01T13:49:35Z</time>
      </trkpt>
      <trkpt lat="39.417949" lon="3.179658">
        <ele>141.214</ele>
        <time>2021-09-01T13:49:36Z</time>
      </trkpt>
      <trkpt lat="39.417978" lon="3.179556">
        <ele>141.008</ele>
        <time>2021-09-01T13:49:37Z</time>
      </trkpt>
      <trkpt lat="39.418004" lon="3.179454">
        <ele>141.084</ele>
        <time>2021-09-01T13:49:38Z</time>
      </trkpt>
      <trkpt lat="39.418030" lon="3.179352">
        <ele>140.858</ele>
        <time>2021-09-01T13:49:39Z</time>
      </trkpt>
      <trkpt lat="39.418056" lon="3.179252">
        <ele>140.863</ele>
        <time>2021-09-01T13:49:40Z</time>
      </trkpt>
      <trkpt lat="39.418083" lon="3.179154">
        <ele>140.817</ele>
        <time>2021-09-01T13:49:41Z</time>
      </trkpt>
      <trkpt lat="39.418107" lon="3.179054">
        <ele>140.826</ele>
        <time>2021-09-01T13:49:42Z</time>
      </trkpt>
      <trkpt lat="39.418133" lon="3.178954">
        <ele>140.881</ele>
        <time>2021-09-01T13:49:43Z</time>
      </trkpt>
      <trkpt lat="39.418156" lon="3.178858">
        <ele>140.928</ele>
        <time>2021-09-01T13:49:44Z</time>
      </trkpt>
      <trkpt lat="39.418181" lon="3.178768">
        <ele>140.998</ele>
        <time>2021-09-01T13:49:45Z</time>
      </trkpt>
      <trkpt lat="39.418202" lon="3.178678">
        <ele>140.937</ele>
        <time>2021-09-01T13:49:46Z</time>
      </trkpt>
      <trkpt lat="39.418227" lon="3.178591">
        <ele>141.049</ele>
        <time>2021-09-01T13:49:47Z</time>
      </trkpt>
      <trkpt lat="39.418247" lon="3.178512">
        <ele>141.113</ele>
        <time>2021-09-01T13:49:48Z</time>
      </trkpt>
      <trkpt lat="39.418266" lon="3.178436">
        <ele>141.308</ele>
        <time>2021-09-01T13:49:49Z</time>
      </trkpt>
      <trkpt lat="39.418287" lon="3.178363">
        <ele>141.541</ele>
        <time>2021-09-01T13:49:50Z</time>
      </trkpt>
      <trkpt lat="39.418310" lon="3.178290">
        <ele>141.925</ele>
        <time>2021-09-01T13:49:51Z</time>
      </trkpt>
      <trkpt lat="39.418333" lon="3.178225">
        <ele>142.240</ele>
        <time>2021-09-01T13:49:52Z</time>
      </trkpt>
      <trkpt lat="39.418360" lon="3.178162">
        <ele>142.594</ele>
        <time>2021-09-01T13:49:53Z</time>
      </trkpt>
      <trkpt lat="39.418390" lon="3.178104">
        <ele>142.873</ele>
        <time>2021-09-01T13:49:54Z</time>
      </trkpt>
      <trkpt lat="39.418417" lon="3.178047">
        <ele>143.218</ele>
        <time>2021-09-01T13:49:55Z</time>
      </trkpt>
      <trkpt lat="39.418444" lon="3.177991">
        <ele>143.715</ele>
        <time>2021-09-01T13:49:56Z</time>
      </trkpt>
      <trkpt lat="39.418473" lon="3.177941">
        <ele>144.285</ele>
        <time>2021-09-01T13:49:57Z</time>
      </trkpt>
      <trkpt lat="39.418501" lon="3.177891">
        <ele>144.871</ele>
        <time>2021-09-01T13:49:58Z</time>
      </trkpt>
      <trkpt lat="39.418555" lon="3.177803">
        <ele>146.041</ele>
        <time>2021-09-01T13:50:00Z</time>
      </trkpt>
      <trkpt lat="39.418606" lon="3.177724">
        <ele>147.115</ele>
        <time>2021-09-01T13:50:02Z</time>
      </trkpt>
      <trkpt lat="39.418655" lon="3.177643">
        <ele>148.008</ele>
        <time>2021-09-01T13:50:04Z</time>
      </trkpt>
      <trkpt lat="39.418701" lon="3.177573">
        <ele>148.865</ele>
        <time>2021-09-01T13:50:06Z</time>
      </trkpt>
      <trkpt lat="39.418740" lon="3.177497">
        <ele>149.719</ele>
        <time>2021-09-01T13:50:08Z</time>
      </trkpt>
      <trkpt lat="39.418782" lon="3.177426">
        <ele>150.744</ele>
        <time>2021-09-01T13:50:10Z</time>
      </trkpt>
      <trkpt lat="39.418829" lon="3.177352">
        <ele>151.568</ele>
        <time>2021-09-01T13:50:12Z</time>
      </trkpt>
      <trkpt lat="39.418872" lon="3.177288">
        <ele>152.457</ele>
        <time>2021-09-01T13:50:14Z</time>
      </trkpt>
      <trkpt lat="39.418917" lon="3.177226">
        <ele>153.262</ele>
        <time>2021-09-01T13:50:16Z</time>
      </trkpt>
      <trkpt lat="39.418963" lon="3.177170">
        <ele>154.049</ele>
        <time>2021-09-01T13:50:18Z</time>
      </trkpt>
      <trkpt lat="39.419008" lon="3.177112">
        <ele>154.849</ele>
        <time>2021-09-01T13:50:20Z</time>
      </trkpt>
      <trkpt lat="39.419063" lon="3.177043">
        <ele>155.961</ele>
        <time>2021-09-01T13:50:23Z</time>
      </trkpt>
      <trkpt lat="39.419115" lon="3.176978">
        <ele>156.721</ele>
        <time>2021-09-01T13:50:26Z</time>
      </trkpt>
      <trkpt lat="39.419168" lon="3.176915">
        <ele>157.113</ele>
        <time>2021-09-01T13:50:28Z</time>
      </trkpt>
      <trkpt lat="39.419224" lon="3.176842">
        <ele>157.708</ele>
        <time>2021-09-01T13:50:30Z</time>
      </trkpt>
      <trkpt lat="39.419261" lon="3.176769">
        <ele>157.994</ele>
        <time>2021-09-01T13:50:31Z</time>
      </trkpt>
      <trkpt lat="39.419285" lon="3.176709">
        <ele>158.038</ele>
        <time>2021-09-01T13:50:32Z</time>
      </trkpt>
      <trkpt lat="39.419310" lon="3.176644">
        <ele>158.113</ele>
        <time>2021-09-01T13:50:33Z</time>
      </trkpt>
      <trkpt lat="39.419338" lon="3.176581">
        <ele>158.177</ele>
        <time>2021-09-01T13:50:34Z</time>
      </trkpt>
      <trkpt lat="39.419370" lon="3.176521">
        <ele>158.216</ele>
        <time>2021-09-01T13:50:35Z</time>
      </trkpt>
      <trkpt lat="39.419399" lon="3.176456">
        <ele>158.281</ele>
        <time>2021-09-01T13:50:36Z</time>
      </trkpt>
      <trkpt lat="39.419423" lon="3.176390">
        <ele>158.518</ele>
        <time>2021-09-01T13:50:37Z</time>
      </trkpt>
      <trkpt lat="39.419449" lon="3.176319">
        <ele>158.868</ele>
        <time>2021-09-01T13:50:38Z</time>
      </trkpt>
      <trkpt lat="39.419471" lon="3.176249">
        <ele>159.169</ele>
        <time>2021-09-01T13:50:39Z</time>
      </trkpt>
      <trkpt lat="39.419492" lon="3.176185">
        <ele>159.404</ele>
        <time>2021-09-01T13:50:40Z</time>
      </trkpt>
      <trkpt lat="39.419509" lon="3.176123">
        <ele>159.624</ele>
        <time>2021-09-01T13:50:41Z</time>
      </trkpt>
      <trkpt lat="39.419530" lon="3.176068">
        <ele>159.908</ele>
        <time>2021-09-01T13:50:42Z</time>
      </trkpt>
      <trkpt lat="39.419549" lon="3.176012">
        <ele>160.384</ele>
        <time>2021-09-01T13:50:43Z</time>
      </trkpt>
      <trkpt lat="39.419569" lon="3.175958">
        <ele>160.738</ele>
        <time>2021-09-01T13:50:44Z</time>
      </trkpt>
      <trkpt lat="39.419590" lon="3.175906">
        <ele>161.253</ele>
        <time>2021-09-01T13:50:45Z</time>
      </trkpt>
      <trkpt lat="39.419612" lon="3.175854">
        <ele>161.667</ele>
        <time>2021-09-01T13:50:46Z</time>
      </trkpt>
      <trkpt lat="39.419632" lon="3.175793">
        <ele>162.026</ele>
        <time>2021-09-01T13:50:47Z</time>
      </trkpt>
      <trkpt lat="39.419656" lon="3.175731">
        <ele>162.331</ele>
        <time>2021-09-01T13:50:48Z</time>
      </trkpt>
      <trkpt lat="39.419691" lon="3.175639">
        <ele>163.128</ele>
        <time>2021-09-01T13:50:50Z</time>
      </trkpt>
      <trkpt lat="39.419714" lon="3.175586">
        <ele>163.558</ele>
        <time>2021-09-01T13:50:51Z</time>
      </trkpt>
      <trkpt lat="39.419763" lon="3.175497">
        <ele>164.473</ele>
        <time>2021-09-01T13:50:53Z</time>
      </trkpt>
      <trkpt lat="39.419791" lon="3.175448">
        <ele>164.985</ele>
        <time>2021-09-01T13:50:54Z</time>
      </trkpt>
      <trkpt lat="39.419819" lon="3.175402">
        <ele>165.413</ele>
        <time>2021-09-01T13:50:55Z</time>
      </trkpt>
      <trkpt lat="39.419869" lon="3.175318">
        <ele>166.308</ele>
        <time>2021-09-01T13:50:57Z</time>
      </trkpt>
      <trkpt lat="39.419919" lon="3.175242">
        <ele>167.315</ele>
        <time>2021-09-01T13:50:59Z</time>
      </trkpt>
      <trkpt lat="39.419969" lon="3.175166">
        <ele>168.499</ele>
        <time>2021-09-01T13:51:01Z</time>
      </trkpt>
      <trkpt lat="39.420027" lon="3.175087">
        <ele>169.374</ele>
        <time>2021-09-01T13:51:03Z</time>
      </trkpt>
      <trkpt lat="39.420077" lon="3.174980">
        <ele>170.078</ele>
        <time>2021-09-01T13:51:05Z</time>
      </trkpt>
      <trkpt lat="39.420106" lon="3.174924">
        <ele>170.217</ele>
        <time>2021-09-01T13:51:06Z</time>
      </trkpt>
      <trkpt lat="39.420138" lon="3.174861">
        <ele>170.432</ele>
        <time>2021-09-01T13:51:07Z</time>
      </trkpt>
      <trkpt lat="39.420174" lon="3.174788">
        <ele>170.499</ele>
        <time>2021-09-01T13:51:08Z</time>
      </trkpt>
      <trkpt lat="39.420208" lon="3.174717">
        <ele>170.479</ele>
        <time>2021-09-01T13:51:09Z</time>
      </trkpt>
      <trkpt lat="39.420242" lon="3.174651">
        <ele>170.483</ele>
        <time>2021-09-01T13:51:10Z</time>
      </trkpt>
      <trkpt lat="39.420280" lon="3.174580">
        <ele>170.425</ele>
        <time>2021-09-01T13:51:11Z</time>
      </trkpt>
      <trkpt lat="39.420318" lon="3.174511">
        <ele>170.417</ele>
        <time>2021-09-01T13:51:12Z</time>
      </trkpt>
      <trkpt lat="39.420355" lon="3.174447">
        <ele>170.308</ele>
        <time>2021-09-01T13:51:13Z</time>
      </trkpt>
      <trkpt lat="39.420396" lon="3.174380">
        <ele>170.286</ele>
        <time>2021-09-01T13:51:14Z</time>
      </trkpt>
      <trkpt lat="39.420439" lon="3.174317">
        <ele>170.120</ele>
        <time>2021-09-01T13:51:15Z</time>
      </trkpt>
      <trkpt lat="39.420481" lon="3.174256">
        <ele>170.045</ele>
        <time>2021-09-01T13:51:16Z</time>
      </trkpt>
      <trkpt lat="39.420526" lon="3.174202">
        <ele>170.089</ele>
        <time>2021-09-01T13:51:17Z</time>
      </trkpt>
      <trkpt lat="39.420574" lon="3.174154">
        <ele>170.298</ele>
        <time>2021-09-01T13:51:18Z</time>
      </trkpt>
      <trkpt lat="39.420617" lon="3.174110">
        <ele>170.393</ele>
        <time>2021-09-01T13:51:19Z</time>
      </trkpt>
      <trkpt lat="39.420660" lon="3.174059">
        <ele>170.560</ele>
        <time>2021-09-01T13:51:20Z</time>
      </trkpt>
      <trkpt lat="39.420705" lon="3.174016">
        <ele>170.720</ele>
        <time>2021-09-01T13:51:21Z</time>
      </trkpt>
      <trkpt lat="39.420749" lon="3.173968">
        <ele>170.976</ele>
        <time>2021-09-01T13:51:22Z</time>
      </trkpt>
      <trkpt lat="39.420789" lon="3.173920">
        <ele>171.190</ele>
        <time>2021-09-01T13:51:23Z</time>
      </trkpt>
      <trkpt lat="39.420827" lon="3.173870">
        <ele>171.219</ele>
        <time>2021-09-01T13:51:24Z</time>
      </trkpt>
      <trkpt lat="39.420866" lon="3.173822">
        <ele>171.508</ele>
        <time>2021-09-01T13:51:25Z</time>
      </trkpt>
      <trkpt lat="39.420905" lon="3.173771">
        <ele>171.885</ele>
        <time>2021-09-01T13:51:26Z</time>
      </trkpt>
      <trkpt lat="39.420940" lon="3.173716">
        <ele>172.069</ele>
        <time>2021-09-01T13:51:27Z</time>
      </trkpt>
      <trkpt lat="39.420981" lon="3.173669">
        <ele>172.254</ele>
        <time>2021-09-01T13:51:28Z</time>
      </trkpt>
      <trkpt lat="39.421016" lon="3.173610">
        <ele>172.418</ele>
        <time>2021-09-01T13:51:29Z</time>
      </trkpt>
      <trkpt lat="39.421046" lon="3.173546">
        <ele>172.787</ele>
        <time>2021-09-01T13:51:30Z</time>
      </trkpt>
      <trkpt lat="39.421077" lon="3.173485">
        <ele>172.912</ele>
        <time>2021-09-01T13:51:31Z</time>
      </trkpt>
      <trkpt lat="39.421111" lon="3.173418">
        <ele>173.229</ele>
        <time>2021-09-01T13:51:32Z</time>
      </trkpt>
      <trkpt lat="39.421140" lon="3.173348">
        <ele>173.439</ele>
        <time>2021-09-01T13:51:33Z</time>
      </trkpt>
      <trkpt lat="39.421161" lon="3.173284">
        <ele>173.777</ele>
        <time>2021-09-01T13:51:34Z</time>
      </trkpt>
      <trkpt lat="39.421177" lon="3.173214">
        <ele>174.061</ele>
        <time>2021-09-01T13:51:35Z</time>
      </trkpt>
      <trkpt lat="39.421188" lon="3.173139">
        <ele>174.327</ele>
        <time>2021-09-01T13:51:36Z</time>
      </trkpt>
      <trkpt lat="39.421201" lon="3.173063">
        <ele>174.508</ele>
        <time>2021-09-01T13:51:37Z</time>
      </trkpt>
      <trkpt lat="39.421210" lon="3.172988">
        <ele>174.745</ele>
        <time>2021-09-01T13:51:38Z</time>
      </trkpt>
      <trkpt lat="39.421223" lon="3.172918">
        <ele>174.989</ele>
        <time>2021-09-01T13:51:39Z</time>
      </trkpt>
      <trkpt lat="39.421233" lon="3.172852">
        <ele>175.154</ele>
        <time>2021-09-01T13:51:40Z</time>
      </trkpt>
      <trkpt lat="39.421238" lon="3.172780">
        <ele>175.378</ele>
        <time>2021-09-01T13:51:41Z</time>
      </trkpt>
      <trkpt lat="39.421242" lon="3.172688">
        <ele>175.457</ele>
        <time>2021-09-01T13:51:42Z</time>
      </trkpt>
      <trkpt lat="39.421247" lon="3.172592">
        <ele>175.582</ele>
        <time>2021-09-01T13:51:43Z</time>
      </trkpt>
      <trkpt lat="39.421253" lon="3.172497">
        <ele>175.549</ele>
        <time>2021-09-01T13:51:44Z</time>
      </trkpt>
      <trkpt lat="39.421259" lon="3.172391">
        <ele>175.339</ele>
        <time>2021-09-01T13:51:45Z</time>
      </trkpt>
      <trkpt lat="39.421264" lon="3.172277">
        <ele>175.016</ele>
        <time>2021-09-01T13:51:46Z</time>
      </trkpt>
      <trkpt lat="39.421281" lon="3.172164">
        <ele>174.776</ele>
        <time>2021-09-01T13:51:47Z</time>
      </trkpt>
      <trkpt lat="39.421297" lon="3.172052">
        <ele>174.413</ele>
        <time>2021-09-01T13:51:48Z</time>
      </trkpt>
      <trkpt lat="39.421320" lon="3.171938">
        <ele>174.008</ele>
        <time>2021-09-01T13:51:49Z</time>
      </trkpt>
      <trkpt lat="39.421346" lon="3.171824">
        <ele>173.779</ele>
        <time>2021-09-01T13:51:50Z</time>
      </trkpt>
      <trkpt lat="39.421375" lon="3.171704">
        <ele>173.473</ele>
        <time>2021-09-01T13:51:51Z</time>
      </trkpt>
      <trkpt lat="39.421404" lon="3.171592">
        <ele>172.958</ele>
        <time>2021-09-01T13:51:52Z</time>
      </trkpt>
      <trkpt lat="39.421441" lon="3.171479">
        <ele>172.632</ele>
        <time>2021-09-01T13:51:53Z</time>
      </trkpt>
      <trkpt lat="39.421482" lon="3.171362">
        <ele>172.421</ele>
        <time>2021-09-01T13:51:54Z</time>
      </trkpt>
      <trkpt lat="39.421521" lon="3.171253">
        <ele>172.296</ele>
        <time>2021-09-01T13:51:55Z</time>
      </trkpt>
      <trkpt lat="39.421566" lon="3.171143">
        <ele>172.063</ele>
        <time>2021-09-01T13:51:56Z</time>
      </trkpt>
      <trkpt lat="39.421610" lon="3.171028">
        <ele>171.913</ele>
        <time>2021-09-01T13:51:57Z</time>
      </trkpt>
      <trkpt lat="39.421647" lon="3.170906">
        <ele>171.629</ele>
        <time>2021-09-01T13:51:58Z</time>
      </trkpt>
      <trkpt lat="39.421688" lon="3.170792">
        <ele>171.300</ele>
        <time>2021-09-01T13:51:59Z</time>
      </trkpt>
      <trkpt lat="39.421730" lon="3.170685">
        <ele>171.020</ele>
        <time>2021-09-01T13:52:00Z</time>
      </trkpt>
      <trkpt lat="39.421776" lon="3.170577">
        <ele>170.808</ele>
        <time>2021-09-01T13:52:01Z</time>
      </trkpt>
      <trkpt lat="39.421823" lon="3.170471">
        <ele>170.680</ele>
        <time>2021-09-01T13:52:02Z</time>
      </trkpt>
      <trkpt lat="39.421873" lon="3.170369">
        <ele>170.464</ele>
        <time>2021-09-01T13:52:03Z</time>
      </trkpt>
      <trkpt lat="39.421925" lon="3.170269">
        <ele>170.469</ele>
        <time>2021-09-01T13:52:04Z</time>
      </trkpt>
      <trkpt lat="39.421981" lon="3.170166">
        <ele>170.343</ele>
        <time>2021-09-01T13:52:05Z</time>
      </trkpt>
      <trkpt lat="39.422039" lon="3.170069">
        <ele>170.292</ele>
        <time>2021-09-01T13:52:06Z</time>
      </trkpt>
      <trkpt lat="39.422100" lon="3.169970">
        <ele>170.287</ele>
        <time>2021-09-01T13:52:07Z</time>
      </trkpt>
      <trkpt lat="39.422156" lon="3.169867">
        <ele>170.284</ele>
        <time>2021-09-01T13:52:08Z</time>
      </trkpt>
      <trkpt lat="39.422215" lon="3.169768">
        <ele>170.224</ele>
        <time>2021-09-01T13:52:09Z</time>
      </trkpt>
      <trkpt lat="39.422276" lon="3.169668">
        <ele>170.034</ele>
        <time>2021-09-01T13:52:10Z</time>
      </trkpt>
      <trkpt lat="39.422333" lon="3.169569">
        <ele>169.955</ele>
        <time>2021-09-01T13:52:11Z</time>
      </trkpt>
      <trkpt lat="39.422390" lon="3.169466">
        <ele>169.610</ele>
        <time>2021-09-01T13:52:12Z</time>
      </trkpt>
      <trkpt lat="39.422449" lon="3.169364">
        <ele>169.408</ele>
        <time>2021-09-01T13:52:13Z</time>
      </trkpt>
      <trkpt lat="39.422507" lon="3.169261">
        <ele>169.231</ele>
        <time>2021-09-01T13:52:14Z</time>
      </trkpt>
      <trkpt lat="39.422568" lon="3.169156">
        <ele>169.075</ele>
        <time>2021-09-01T13:52:15Z</time>
      </trkpt>
      <trkpt lat="39.422631" lon="3.169049">
        <ele>168.810</ele>
        <time>2021-09-01T13:52:16Z</time>
      </trkpt>
      <trkpt lat="39.422703" lon="3.168938">
        <ele>168.554</ele>
        <time>2021-09-01T13:52:17Z</time>
      </trkpt>
      <trkpt lat="39.422767" lon="3.168818">
        <ele>167.973</ele>
        <time>2021-09-01T13:52:18Z</time>
      </trkpt>
      <trkpt lat="39.422832" lon="3.168694">
        <ele>167.368</ele>
        <time>2021-09-01T13:52:19Z</time>
      </trkpt>
      <trkpt lat="39.422900" lon="3.168573">
        <ele>166.775</ele>
        <time>2021-09-01T13:52:20Z</time>
      </trkpt>
      <trkpt lat="39.422970" lon="3.168453">
        <ele>166.035</ele>
        <time>2021-09-01T13:52:21Z</time>
      </trkpt>
      <trkpt lat="39.423039" lon="3.168335">
        <ele>165.193</ele>
        <time>2021-09-01T13:52:22Z</time>
      </trkpt>
      <trkpt lat="39.423109" lon="3.168212">
        <ele>164.565</ele>
        <time>2021-09-01T13:52:23Z</time>
      </trkpt>
      <trkpt lat="39.423181" lon="3.168089">
        <ele>164.021</ele>
        <time>2021-09-01T13:52:24Z</time>
      </trkpt>
      <trkpt lat="39.423251" lon="3.167964">
        <ele>163.308</ele>
        <time>2021-09-01T13:52:25Z</time>
      </trkpt>
      <trkpt lat="39.423323" lon="3.167840">
        <ele>162.927</ele>
        <time>2021-09-01T13:52:26Z</time>
      </trkpt>
      <trkpt lat="39.423391" lon="3.167722">
        <ele>162.541</ele>
        <time>2021-09-01T13:52:27Z</time>
      </trkpt>
      <trkpt lat="39.423464" lon="3.167599">
        <ele>162.026</ele>
        <time>2021-09-01T13:52:28Z</time>
      </trkpt>
      <trkpt lat="39.423530" lon="3.167480">
        <ele>161.570</ele>
        <time>2021-09-01T13:52:29Z</time>
      </trkpt>
      <trkpt lat="39.423599" lon="3.167368">
        <ele>161.179</ele>
        <time>2021-09-01T13:52:30Z</time>
      </trkpt>
      <trkpt lat="39.423662" lon="3.167255">
        <ele>160.574</ele>
        <time>2021-09-01T13:52:31Z</time>
      </trkpt>
      <trkpt lat="39.423721" lon="3.167137">
        <ele>160.111</ele>
        <time>2021-09-01T13:52:32Z</time>
      </trkpt>
      <trkpt lat="39.423761" lon="3.167013">
        <ele>159.691</ele>
        <time>2021-09-01T13:52:33Z</time>
      </trkpt>
      <trkpt lat="39.423787" lon="3.166876">
        <ele>159.157</ele>
        <time>2021-09-01T13:52:34Z</time>
      </trkpt>
      <trkpt lat="39.423781" lon="3.166722">
        <ele>158.700</ele>
        <time>2021-09-01T13:52:35Z</time>
      </trkpt>
      <trkpt lat="39.423769" lon="3.166583">
        <ele>158.320</ele>
        <time>2021-09-01T13:52:36Z</time>
      </trkpt>
      <trkpt lat="39.423760" lon="3.166448">
        <ele>157.708</ele>
        <time>2021-09-01T13:52:37Z</time>
      </trkpt>
      <trkpt lat="39.423751" lon="3.166316">
        <ele>157.373</ele>
        <time>2021-09-01T13:52:38Z</time>
      </trkpt>
      <trkpt lat="39.423757" lon="3.166200">
        <ele>156.887</ele>
        <time>2021-09-01T13:52:39Z</time>
      </trkpt>
      <trkpt lat="39.423785" lon="3.166086">
        <ele>156.322</ele>
        <time>2021-09-01T13:52:40Z</time>
      </trkpt>
      <trkpt lat="39.423835" lon="3.165989">
        <ele>155.826</ele>
        <time>2021-09-01T13:52:41Z</time>
      </trkpt>
      <trkpt lat="39.423915" lon="3.165916">
        <ele>155.685</ele>
        <time>2021-09-01T13:52:42Z</time>
      </trkpt>
      <trkpt lat="39.424007" lon="3.165871">
        <ele>155.350</ele>
        <time>2021-09-01T13:52:43Z</time>
      </trkpt>
      <trkpt lat="39.424087" lon="3.165827">
        <ele>155.247</ele>
        <time>2021-09-01T13:52:44Z</time>
      </trkpt>
      <trkpt lat="39.424168" lon="3.165777">
        <ele>155.257</ele>
        <time>2021-09-01T13:52:45Z</time>
      </trkpt>
      <trkpt lat="39.424246" lon="3.165731">
        <ele>155.275</ele>
        <time>2021-09-01T13:52:46Z</time>
      </trkpt>
      <trkpt lat="39.424317" lon="3.165675">
        <ele>155.328</ele>
        <time>2021-09-01T13:52:47Z</time>
      </trkpt>
      <trkpt lat="39.424390" lon="3.165615">
        <ele>155.320</ele>
        <time>2021-09-01T13:52:48Z</time>
      </trkpt>
      <trkpt lat="39.424461" lon="3.165560">
        <ele>155.308</ele>
        <time>2021-09-01T13:52:49Z</time>
      </trkpt>
      <trkpt lat="39.424535" lon="3.165496">
        <ele>155.265</ele>
        <time>2021-09-01T13:52:50Z</time>
      </trkpt>
      <trkpt lat="39.424610" lon="3.165432">
        <ele>155.189</ele>
        <time>2021-09-01T13:52:51Z</time>
      </trkpt>
      <trkpt lat="39.424687" lon="3.165382">
        <ele>154.754</ele>
        <time>2021-09-01T13:52:52Z</time>
      </trkpt>
      <trkpt lat="39.424768" lon="3.165334">
        <ele>154.358</ele>
        <time>2021-09-01T13:52:53Z</time>
      </trkpt>
      <trkpt lat="39.424852" lon="3.165300">
        <ele>154.147</ele>
        <time>2021-09-01T13:52:54Z</time>
      </trkpt>
      <trkpt lat="39.424936" lon="3.165275">
        <ele>153.912</ele>
        <time>2021-09-01T13:52:55Z</time>
      </trkpt>
      <trkpt lat="39.425023" lon="3.165254">
        <ele>153.859</ele>
        <time>2021-09-01T13:52:56Z</time>
      </trkpt>
      <trkpt lat="39.425108" lon="3.165220">
        <ele>153.849</ele>
        <time>2021-09-01T13:52:57Z</time>
      </trkpt>
      <trkpt lat="39.425204" lon="3.165187">
        <ele>153.839</ele>
        <time>2021-09-01T13:52:58Z</time>
      </trkpt>
      <trkpt lat="39.425302" lon="3.165147">
        <ele>153.701</ele>
        <time>2021-09-01T13:52:59Z</time>
      </trkpt>
      <trkpt lat="39.425382" lon="3.165089">
        <ele>153.721</ele>
        <time>2021-09-01T13:53:00Z</time>
      </trkpt>
      <trkpt lat="39.425469" lon="3.165038">
        <ele>153.508</ele>
        <time>2021-09-01T13:53:01Z</time>
      </trkpt>
      <trkpt lat="39.425557" lon="3.164989">
        <ele>153.461</ele>
        <time>2021-09-01T13:53:02Z</time>
      </trkpt>
      <trkpt lat="39.425648" lon="3.164937">
        <ele>153.395</ele>
        <time>2021-09-01T13:53:03Z</time>
      </trkpt>
      <trkpt lat="39.425736" lon="3.164878">
        <ele>152.910</ele>
        <time>2021-09-01T13:53:04Z</time>
      </trkpt>
      <trkpt lat="39.425822" lon="3.164817">
        <ele>152.374</ele>
        <time>2021-09-01T13:53:05Z</time>
      </trkpt>
      <trkpt lat="39.425908" lon="3.164756">
        <ele>151.913</ele>
        <time>2021-09-01T13:53:06Z</time>
      </trkpt>
      <trkpt lat="39.425990" lon="3.164692">
        <ele>151.518</ele>
        <time>2021-09-01T13:53:07Z</time>
      </trkpt>
      <trkpt lat="39.426067" lon="3.164623">
        <ele>151.265</ele>
        <time>2021-09-01T13:53:08Z</time>
      </trkpt>
      <trkpt lat="39.426139" lon="3.164543">
        <ele>151.265</ele>
        <time>2021-09-01T13:53:09Z</time>
      </trkpt>
      <trkpt lat="39.426204" lon="3.164456">
        <ele>151.255</ele>
        <time>2021-09-01T13:53:10Z</time>
      </trkpt>
      <trkpt lat="39.426265" lon="3.164366">
        <ele>151.407</ele>
        <time>2021-09-01T13:53:11Z</time>
      </trkpt>
      <trkpt lat="39.426324" lon="3.164275">
        <ele>151.417</ele>
        <time>2021-09-01T13:53:12Z</time>
      </trkpt>
      <trkpt lat="39.426379" lon="3.164184">
        <ele>151.408</ele>
        <time>2021-09-01T13:53:13Z</time>
      </trkpt>
      <trkpt lat="39.426435" lon="3.164097">
        <ele>151.413</ele>
        <time>2021-09-01T13:53:14Z</time>
      </trkpt>
      <trkpt lat="39.426492" lon="3.164006">
        <ele>151.267</ele>
        <time>2021-09-01T13:53:15Z</time>
      </trkpt>
      <trkpt lat="39.426547" lon="3.163915">
        <ele>150.752</ele>
        <time>2021-09-01T13:53:16Z</time>
      </trkpt>
      <trkpt lat="39.426601" lon="3.163824">
        <ele>150.626</ele>
        <time>2021-09-01T13:53:17Z</time>
      </trkpt>
      <trkpt lat="39.426659" lon="3.163737">
        <ele>150.435</ele>
        <time>2021-09-01T13:53:18Z</time>
      </trkpt>
      <trkpt lat="39.426717" lon="3.163639">
        <ele>150.010</ele>
        <time>2021-09-01T13:53:19Z</time>
      </trkpt>
      <trkpt lat="39.426780" lon="3.163542">
        <ele>149.867</ele>
        <time>2021-09-01T13:53:20Z</time>
      </trkpt>
      <trkpt lat="39.426841" lon="3.163442">
        <ele>149.547</ele>
        <time>2021-09-01T13:53:21Z</time>
      </trkpt>
      <trkpt lat="39.426905" lon="3.163348">
        <ele>149.128</ele>
        <time>2021-09-01T13:53:22Z</time>
      </trkpt>
      <trkpt lat="39.426965" lon="3.163254">
        <ele>148.689</ele>
        <time>2021-09-01T13:53:23Z</time>
      </trkpt>
      <trkpt lat="39.427023" lon="3.163153">
        <ele>148.517</ele>
        <time>2021-09-01T13:53:24Z</time>
      </trkpt>
      <trkpt lat="39.427081" lon="3.163052">
        <ele>148.408</ele>
        <time>2021-09-01T13:53:25Z</time>
      </trkpt>
      <trkpt lat="39.427138" lon="3.162953">
        <ele>148.390</ele>
        <time>2021-09-01T13:53:26Z</time>
      </trkpt>
      <trkpt lat="39.427196" lon="3.162851">
        <ele>148.214</ele>
        <time>2021-09-01T13:53:27Z</time>
      </trkpt>
      <trkpt lat="39.427255" lon="3.162746">
        <ele>148.149</ele>
        <time>2021-09-01T13:53:28Z</time>
      </trkpt>
      <trkpt lat="39.427314" lon="3.162643">
        <ele>148.083</ele>
        <time>2021-09-01T13:53:29Z</time>
      </trkpt>
      <trkpt lat="39.427374" lon="3.162532">
        <ele>147.942</ele>
        <time>2021-09-01T13:53:30Z</time>
      </trkpt>
      <trkpt lat="39.427434" lon="3.162423">
        <ele>147.827</ele>
        <time>2021-09-01T13:53:31Z</time>
      </trkpt>
      <trkpt lat="39.427495" lon="3.162314">
        <ele>147.724</ele>
        <time>2021-09-01T13:53:32Z</time>
      </trkpt>
      <trkpt lat="39.427555" lon="3.162206">
        <ele>147.524</ele>
        <time>2021-09-01T13:53:33Z</time>
      </trkpt>
      <trkpt lat="39.427612" lon="3.162099">
        <ele>147.363</ele>
        <time>2021-09-01T13:53:34Z</time>
      </trkpt>
      <trkpt lat="39.427668" lon="3.161992">
        <ele>147.044</ele>
        <time>2021-09-01T13:53:35Z</time>
      </trkpt>
      <trkpt lat="39.427725" lon="3.161887">
        <ele>146.918</ele>
        <time>2021-09-01T13:53:36Z</time>
      </trkpt>
      <trkpt lat="39.427781" lon="3.161785">
        <ele>146.708</ele>
        <time>2021-09-01T13:53:37Z</time>
      </trkpt>
      <trkpt lat="39.427838" lon="3.161686">
        <ele>146.594</ele>
        <time>2021-09-01T13:53:38Z</time>
      </trkpt>
      <trkpt lat="39.427893" lon="3.161590">
        <ele>146.448</ele>
        <time>2021-09-01T13:53:39Z</time>
      </trkpt>
      <trkpt lat="39.427948" lon="3.161493">
        <ele>146.433</ele>
        <time>2021-09-01T13:53:40Z</time>
      </trkpt>
      <trkpt lat="39.427995" lon="3.161396">
        <ele>146.537</ele>
        <time>2021-09-01T13:53:41Z</time>
      </trkpt>
      <trkpt lat="39.428039" lon="3.161302">
        <ele>146.616</ele>
        <time>2021-09-01T13:53:42Z</time>
      </trkpt>
      <trkpt lat="39.428081" lon="3.161204">
        <ele>146.891</ele>
        <time>2021-09-01T13:53:43Z</time>
      </trkpt>
      <trkpt lat="39.428120" lon="3.161103">
        <ele>146.818</ele>
        <time>2021-09-01T13:53:44Z</time>
      </trkpt>
      <trkpt lat="39.428161" lon="3.161007">
        <ele>146.878</ele>
        <time>2021-09-01T13:53:45Z</time>
      </trkpt>
      <trkpt lat="39.428203" lon="3.160910">
        <ele>146.767</ele>
        <time>2021-09-01T13:53:46Z</time>
      </trkpt>
      <trkpt lat="39.428247" lon="3.160816">
        <ele>146.681</ele>
        <time>2021-09-01T13:53:47Z</time>
      </trkpt>
      <trkpt lat="39.428288" lon="3.160720">
        <ele>146.419</ele>
        <time>2021-09-01T13:53:48Z</time>
      </trkpt>
      <trkpt lat="39.428328" lon="3.160624">
        <ele>146.208</ele>
        <time>2021-09-01T13:53:49Z</time>
      </trkpt>
      <trkpt lat="39.428372" lon="3.160527">
        <ele>146.274</ele>
        <time>2021-09-01T13:53:50Z</time>
      </trkpt>
      <trkpt lat="39.428414" lon="3.160429">
        <ele>146.258</ele>
        <time>2021-09-01T13:53:51Z</time>
      </trkpt>
      <trkpt lat="39.428458" lon="3.160333">
        <ele>146.293</ele>
        <time>2021-09-01T13:53:52Z</time>
      </trkpt>
      <trkpt lat="39.428511" lon="3.160231">
        <ele>146.217</ele>
        <time>2021-09-01T13:53:53Z</time>
      </trkpt>
      <trkpt lat="39.428558" lon="3.160137">
        <ele>146.386</ele>
        <time>2021-09-01T13:53:54Z</time>
      </trkpt>
      <trkpt lat="39.428607" lon="3.160045">
        <ele>146.421</ele>
        <time>2021-09-01T13:53:55Z</time>
      </trkpt>
      <trkpt lat="39.428660" lon="3.159962">
        <ele>146.648</ele>
        <time>2021-09-01T13:53:56Z</time>
      </trkpt>
      <trkpt lat="39.428709" lon="3.159877">
        <ele>146.678</ele>
        <time>2021-09-01T13:53:57Z</time>
      </trkpt>
      <trkpt lat="39.428756" lon="3.159792">
        <ele>146.521</ele>
        <time>2021-09-01T13:53:58Z</time>
      </trkpt>
      <trkpt lat="39.428806" lon="3.159706">
        <ele>146.441</ele>
        <time>2021-09-01T13:53:59Z</time>
      </trkpt>
      <trkpt lat="39.428861" lon="3.159624">
        <ele>146.105</ele>
        <time>2021-09-01T13:54:00Z</time>
      </trkpt>
      <trkpt lat="39.428921" lon="3.159548">
        <ele>145.708</ele>
        <time>2021-09-01T13:54:01Z</time>
      </trkpt>
      <trkpt lat="39.428978" lon="3.159471">
        <ele>145.370</ele>
        <time>2021-09-01T13:54:02Z</time>
      </trkpt>
      <trkpt lat="39.429031" lon="3.159393">
        <ele>145.164</ele>
        <time>2021-09-01T13:54:03Z</time>
      </trkpt>
      <trkpt lat="39.429092" lon="3.159311">
        <ele>144.949</ele>
        <time>2021-09-01T13:54:04Z</time>
      </trkpt>
      <trkpt lat="39.429154" lon="3.159233">
        <ele>144.983</ele>
        <time>2021-09-01T13:54:05Z</time>
      </trkpt>
      <trkpt lat="39.429209" lon="3.159153">
        <ele>144.982</ele>
        <time>2021-09-01T13:54:06Z</time>
      </trkpt>
      <trkpt lat="39.429270" lon="3.159069">
        <ele>144.887</ele>
        <time>2021-09-01T13:54:07Z</time>
      </trkpt>
      <trkpt lat="39.429328" lon="3.158982">
        <ele>144.824</ele>
        <time>2021-09-01T13:54:08Z</time>
      </trkpt>
      <trkpt lat="39.429388" lon="3.158899">
        <ele>144.654</ele>
        <time>2021-09-01T13:54:09Z</time>
      </trkpt>
      <trkpt lat="39.429445" lon="3.158819">
        <ele>144.265</ele>
        <time>2021-09-01T13:54:10Z</time>
      </trkpt>
      <trkpt lat="39.429502" lon="3.158737">
        <ele>143.968</ele>
        <time>2021-09-01T13:54:11Z</time>
      </trkpt>
      <trkpt lat="39.429562" lon="3.158656">
        <ele>143.714</ele>
        <time>2021-09-01T13:54:12Z</time>
      </trkpt>
      <trkpt lat="39.429623" lon="3.158577">
        <ele>143.408</ele>
        <time>2021-09-01T13:54:13Z</time>
      </trkpt>
      <trkpt lat="39.429682" lon="3.158501">
        <ele>143.194</ele>
        <time>2021-09-01T13:54:14Z</time>
      </trkpt>
      <trkpt lat="39.429737" lon="3.158427">
        <ele>142.998</ele>
        <time>2021-09-01T13:54:15Z</time>
      </trkpt>
      <trkpt lat="39.429791" lon="3.158359">
        <ele>142.673</ele>
        <time>2021-09-01T13:54:16Z</time>
      </trkpt>
      <trkpt lat="39.429847" lon="3.158289">
        <ele>142.377</ele>
        <time>2021-09-01T13:54:17Z</time>
      </trkpt>
      <trkpt lat="39.429899" lon="3.158226">
        <ele>142.096</ele>
        <time>2021-09-01T13:54:18Z</time>
      </trkpt>
      <trkpt lat="39.429952" lon="3.158152">
        <ele>141.731</ele>
        <time>2021-09-01T13:54:19Z</time>
      </trkpt>
      <trkpt lat="39.430003" lon="3.158082">
        <ele>141.528</ele>
        <time>2021-09-01T13:54:20Z</time>
      </trkpt>
      <trkpt lat="39.430058" lon="3.158017">
        <ele>141.368</ele>
        <time>2021-09-01T13:54:21Z</time>
      </trkpt>
      <trkpt lat="39.430114" lon="3.157952">
        <ele>141.214</ele>
        <time>2021-09-01T13:54:22Z</time>
      </trkpt>
      <trkpt lat="39.430168" lon="3.157880">
        <ele>141.154</ele>
        <time>2021-09-01T13:54:23Z</time>
      </trkpt>
      <trkpt lat="39.430219" lon="3.157817">
        <ele>141.009</ele>
        <time>2021-09-01T13:54:24Z</time>
      </trkpt>
      <trkpt lat="39.430269" lon="3.157758">
        <ele>140.908</ele>
        <time>2021-09-01T13:54:25Z</time>
      </trkpt>
      <trkpt lat="39.430314" lon="3.157705">
        <ele>140.939</ele>
        <time>2021-09-01T13:54:26Z</time>
      </trkpt>
      <trkpt lat="39.430356" lon="3.157656">
        <ele>140.913</ele>
        <time>2021-09-01T13:54:27Z</time>
      </trkpt>
      <trkpt lat="39.430407" lon="3.157618">
        <ele>140.868</ele>
        <time>2021-09-01T13:54:29Z</time>
      </trkpt>
      <trkpt lat="39.430434" lon="3.157533">
        <ele>139.932</ele>
        <time>2021-09-01T13:54:53Z</time>
      </trkpt>
      <trkpt lat="39.430485" lon="3.157469">
        <ele>140.061</ele>
        <time>2021-09-01T13:54:55Z</time>
      </trkpt>
      <trkpt lat="39.430552" lon="3.157418">
        <ele>140.296</ele>
        <time>2021-09-01T13:54:57Z</time>
      </trkpt>
      <trkpt lat="39.430632" lon="3.157370">
        <ele>140.523</ele>
        <time>2021-09-01T13:54:59Z</time>
      </trkpt>
      <trkpt lat="39.430706" lon="3.157312">
        <ele>140.663</ele>
        <time>2021-09-01T13:55:01Z</time>
      </trkpt>
      <trkpt lat="39.430769" lon="3.157279">
        <ele>140.814</ele>
        <time>2021-09-01T13:55:03Z</time>
      </trkpt>
      <trkpt lat="39.430816" lon="3.157255">
        <ele>141.154</ele>
        <time>2021-09-01T13:55:05Z</time>
      </trkpt>
      <trkpt lat="39.430876" lon="3.157214">
        <ele>141.509</ele>
        <time>2021-09-01T13:55:08Z</time>
      </trkpt>
      <trkpt lat="39.430932" lon="3.157185">
        <ele>141.608</ele>
        <time>2021-09-01T13:55:10Z</time>
      </trkpt>
      <trkpt lat="39.431005" lon="3.157154">
        <ele>142.159</ele>
        <time>2021-09-01T13:55:12Z</time>
      </trkpt>
      <trkpt lat="39.431090" lon="3.157120">
        <ele>142.683</ele>
        <time>2021-09-01T13:55:14Z</time>
      </trkpt>
      <trkpt lat="39.431171" lon="3.157085">
        <ele>143.048</ele>
        <time>2021-09-01T13:55:16Z</time>
      </trkpt>
      <trkpt lat="39.431215" lon="3.157072">
        <ele>143.152</ele>
        <time>2021-09-01T13:55:17Z</time>
      </trkpt>
      <trkpt lat="39.431257" lon="3.157051">
        <ele>143.311</ele>
        <time>2021-09-01T13:55:18Z</time>
      </trkpt>
      <trkpt lat="39.431342" lon="3.157012">
        <ele>143.576</ele>
        <time>2021-09-01T13:55:20Z</time>
      </trkpt>
      <trkpt lat="39.431386" lon="3.156998">
        <ele>143.913</ele>
        <time>2021-09-01T13:55:21Z</time>
      </trkpt>
      <trkpt lat="39.431431" lon="3.156975">
        <ele>144.343</ele>
        <time>2021-09-01T13:55:22Z</time>
      </trkpt>
      <trkpt lat="39.431474" lon="3.156952">
        <ele>144.688</ele>
        <time>2021-09-01T13:55:23Z</time>
      </trkpt>
      <trkpt lat="39.431518" lon="3.156936">
        <ele>145.024</ele>
        <time>2021-09-01T13:55:24Z</time>
      </trkpt>
      <trkpt lat="39.431562" lon="3.156918">
        <ele>145.426</ele>
        <time>2021-09-01T13:55:25Z</time>
      </trkpt>
      <trkpt lat="39.431609" lon="3.156906">
        <ele>145.708</ele>
        <time>2021-09-01T13:55:26Z</time>
      </trkpt>
      <trkpt lat="39.431655" lon="3.156893">
        <ele>145.766</ele>
        <time>2021-09-01T13:55:27Z</time>
      </trkpt>
      <trkpt lat="39.431701" lon="3.156881">
        <ele>145.710</ele>
        <time>2021-09-01T13:55:28Z</time>
      </trkpt>
      <trkpt lat="39.431749" lon="3.156861">
        <ele>145.735</ele>
        <time>2021-09-01T13:55:29Z</time>
      </trkpt>
      <trkpt lat="39.431798" lon="3.156850">
        <ele>145.799</ele>
        <time>2021-09-01T13:55:30Z</time>
      </trkpt>
      <trkpt lat="39.431849" lon="3.156835">
        <ele>145.878</ele>
        <time>2021-09-01T13:55:31Z</time>
      </trkpt>
      <trkpt lat="39.431899" lon="3.156818">
        <ele>145.813</ele>
        <time>2021-09-01T13:55:32Z</time>
      </trkpt>
      <trkpt lat="39.431951" lon="3.156801">
        <ele>146.020</ele>
        <time>2021-09-01T13:55:33Z</time>
      </trkpt>
      <trkpt lat="39.432002" lon="3.156781">
        <ele>146.080</ele>
        <time>2021-09-01T13:55:34Z</time>
      </trkpt>
      <trkpt lat="39.432057" lon="3.156762">
        <ele>145.997</ele>
        <time>2021-09-01T13:55:35Z</time>
      </trkpt>
      <trkpt lat="39.432112" lon="3.156740">
        <ele>145.923</ele>
        <time>2021-09-01T13:55:36Z</time>
      </trkpt>
      <trkpt lat="39.432166" lon="3.156724">
        <ele>145.825</ele>
        <time>2021-09-01T13:55:37Z</time>
      </trkpt>
      <trkpt lat="39.432222" lon="3.156714">
        <ele>145.808</ele>
        <time>2021-09-01T13:55:38Z</time>
      </trkpt>
      <trkpt lat="39.432279" lon="3.156703">
        <ele>145.817</ele>
        <time>2021-09-01T13:55:39Z</time>
      </trkpt>
      <trkpt lat="39.432334" lon="3.156672">
        <ele>145.951</ele>
        <time>2021-09-01T13:55:40Z</time>
      </trkpt>
      <trkpt lat="39.432393" lon="3.156658">
        <ele>145.966</ele>
        <time>2021-09-01T13:55:41Z</time>
      </trkpt>
      <trkpt lat="39.432449" lon="3.156641">
        <ele>145.930</ele>
        <time>2021-09-01T13:55:42Z</time>
      </trkpt>
      <trkpt lat="39.432508" lon="3.156622">
        <ele>146.079</ele>
        <time>2021-09-01T13:55:43Z</time>
      </trkpt>
      <trkpt lat="39.432565" lon="3.156605">
        <ele>146.084</ele>
        <time>2021-09-01T13:55:44Z</time>
      </trkpt>
      <trkpt lat="39.432622" lon="3.156586">
        <ele>146.041</ele>
        <time>2021-09-01T13:55:45Z</time>
      </trkpt>
      <trkpt lat="39.432680" lon="3.156567">
        <ele>146.031</ele>
        <time>2021-09-01T13:55:46Z</time>
      </trkpt>
      <trkpt lat="39.432740" lon="3.156553">
        <ele>146.042</ele>
        <time>2021-09-01T13:55:47Z</time>
      </trkpt>
      <trkpt lat="39.432797" lon="3.156528">
        <ele>146.122</ele>
        <time>2021-09-01T13:55:48Z</time>
      </trkpt>
      <trkpt lat="39.432857" lon="3.156510">
        <ele>146.114</ele>
        <time>2021-09-01T13:55:49Z</time>
      </trkpt>
      <trkpt lat="39.432917" lon="3.156492">
        <ele>146.108</ele>
        <time>2021-09-01T13:55:50Z</time>
      </trkpt>
      <trkpt lat="39.432977" lon="3.156474">
        <ele>146.182</ele>
        <time>2021-09-01T13:55:51Z</time>
      </trkpt>
      <trkpt lat="39.433037" lon="3.156456">
        <ele>146.246</ele>
        <time>2021-09-01T13:55:52Z</time>
      </trkpt>
      <trkpt lat="39.433099" lon="3.156438">
        <ele>146.211</ele>
        <time>2021-09-01T13:55:53Z</time>
      </trkpt>
      <trkpt lat="39.433160" lon="3.156425">
        <ele>146.295</ele>
        <time>2021-09-01T13:55:54Z</time>
      </trkpt>
      <trkpt lat="39.433223" lon="3.156415">
        <ele>146.314</ele>
        <time>2021-09-01T13:55:55Z</time>
      </trkpt>
      <trkpt lat="39.433286" lon="3.156417">
        <ele>146.449</ele>
        <time>2021-09-01T13:55:56Z</time>
      </trkpt>
      <trkpt lat="39.433345" lon="3.156422">
        <ele>146.686</ele>
        <time>2021-09-01T13:55:57Z</time>
      </trkpt>
      <trkpt lat="39.433403" lon="3.156439">
        <ele>146.826</ele>
        <time>2021-09-01T13:55:58Z</time>
      </trkpt>
      <trkpt lat="39.433461" lon="3.156469">
        <ele>147.087</ele>
        <time>2021-09-01T13:55:59Z</time>
      </trkpt>
      <trkpt lat="39.433515" lon="3.156505">
        <ele>147.242</ele>
        <time>2021-09-01T13:56:00Z</time>
      </trkpt>
      <trkpt lat="39.433564" lon="3.156541">
        <ele>147.426</ele>
        <time>2021-09-01T13:56:01Z</time>
      </trkpt>
      <trkpt lat="39.433609" lon="3.156586">
        <ele>147.808</ele>
        <time>2021-09-01T13:56:02Z</time>
      </trkpt>
      <trkpt lat="39.433652" lon="3.156626">
        <ele>148.066</ele>
        <time>2021-09-01T13:56:03Z</time>
      </trkpt>
      <trkpt lat="39.433692" lon="3.156667">
        <ele>148.210</ele>
        <time>2021-09-01T13:56:04Z</time>
      </trkpt>
      <trkpt lat="39.433728" lon="3.156715">
        <ele>148.525</ele>
        <time>2021-09-01T13:56:05Z</time>
      </trkpt>
      <trkpt lat="39.433762" lon="3.156765">
        <ele>148.639</ele>
        <time>2021-09-01T13:56:06Z</time>
      </trkpt>
      <trkpt lat="39.433798" lon="3.156805">
        <ele>148.648</ele>
        <time>2021-09-01T13:56:07Z</time>
      </trkpt>
      <trkpt lat="39.433836" lon="3.156852">
        <ele>148.883</ele>
        <time>2021-09-01T13:56:08Z</time>
      </trkpt>
      <trkpt lat="39.433873" lon="3.156898">
        <ele>148.930</ele>
        <time>2021-09-01T13:56:09Z</time>
      </trkpt>
      <trkpt lat="39.433907" lon="3.156943">
        <ele>148.990</ele>
        <time>2021-09-01T13:56:10Z</time>
      </trkpt>
      <trkpt lat="39.433946" lon="3.156987">
        <ele>148.966</ele>
        <time>2021-09-01T13:56:11Z</time>
      </trkpt>
      <trkpt lat="39.433983" lon="3.157038">
        <ele>149.129</ele>
        <time>2021-09-01T13:56:12Z</time>
      </trkpt>
      <trkpt lat="39.434020" lon="3.157086">
        <ele>149.121</ele>
        <time>2021-09-01T13:56:13Z</time>
      </trkpt>
      <trkpt lat="39.434058" lon="3.157130">
        <ele>149.108</ele>
        <time>2021-09-01T13:56:14Z</time>
      </trkpt>
      <trkpt lat="39.434098" lon="3.157180">
        <ele>149.224</ele>
        <time>2021-09-01T13:56:15Z</time>
      </trkpt>
      <trkpt lat="39.434134" lon="3.157229">
        <ele>149.488</ele>
        <time>2021-09-01T13:56:16Z</time>
      </trkpt>
      <trkpt lat="39.434169" lon="3.157273">
        <ele>149.483</ele>
        <time>2021-09-01T13:56:17Z</time>
      </trkpt>
      <trkpt lat="39.434205" lon="3.157318">
        <ele>149.557</ele>
        <time>2021-09-01T13:56:18Z</time>
      </trkpt>
      <trkpt lat="39.434244" lon="3.157366">
        <ele>149.586</ele>
        <time>2021-09-01T13:56:19Z</time>
      </trkpt>
      <trkpt lat="39.434286" lon="3.157410">
        <ele>149.551</ele>
        <time>2021-09-01T13:56:20Z</time>
      </trkpt>
      <trkpt lat="39.434317" lon="3.157452">
        <ele>149.568</ele>
        <time>2021-09-01T13:56:21Z</time>
      </trkpt>
      <trkpt lat="39.434354" lon="3.157502">
        <ele>149.558</ele>
        <time>2021-09-01T13:56:22Z</time>
      </trkpt>
      <trkpt lat="39.434391" lon="3.157544">
        <ele>149.699</ele>
        <time>2021-09-01T13:56:23Z</time>
      </trkpt>
      <trkpt lat="39.434433" lon="3.157586">
        <ele>149.707</ele>
        <time>2021-09-01T13:56:24Z</time>
      </trkpt>
      <trkpt lat="39.434470" lon="3.157619">
        <ele>149.727</ele>
        <time>2021-09-01T13:56:25Z</time>
      </trkpt>
      <trkpt lat="39.434511" lon="3.157657">
        <ele>149.608</ele>
        <time>2021-09-01T13:56:26Z</time>
      </trkpt>
      <trkpt lat="39.434549" lon="3.157691">
        <ele>149.697</ele>
        <time>2021-09-01T13:56:27Z</time>
      </trkpt>
      <trkpt lat="39.434590" lon="3.157723">
        <ele>149.621</ele>
        <time>2021-09-01T13:56:28Z</time>
      </trkpt>
      <trkpt lat="39.434639" lon="3.157754">
        <ele>149.616</ele>
        <time>2021-09-01T13:56:29Z</time>
      </trkpt>
      <trkpt lat="39.434683" lon="3.157781">
        <ele>149.760</ele>
        <time>2021-09-01T13:56:30Z</time>
      </trkpt>
      <trkpt lat="39.434729" lon="3.157809">
        <ele>149.999</ele>
        <time>2021-09-01T13:56:31Z</time>
      </trkpt>
      <trkpt lat="39.434780" lon="3.157836">
        <ele>150.124</ele>
        <time>2021-09-01T13:56:32Z</time>
      </trkpt>
      <trkpt lat="39.434820" lon="3.157873">
        <ele>150.341</ele>
        <time>2021-09-01T13:56:33Z</time>
      </trkpt>
      <trkpt lat="39.434861" lon="3.157907">
        <ele>150.531</ele>
        <time>2021-09-01T13:56:34Z</time>
      </trkpt>
      <trkpt lat="39.434911" lon="3.157935">
        <ele>150.737</ele>
        <time>2021-09-01T13:56:35Z</time>
      </trkpt>
      <trkpt lat="39.434950" lon="3.157964">
        <ele>150.849</ele>
        <time>2021-09-01T13:56:36Z</time>
      </trkpt>
      <trkpt lat="39.434995" lon="3.157993">
        <ele>151.013</ele>
        <time>2021-09-01T13:56:37Z</time>
      </trkpt>
      <trkpt lat="39.435036" lon="3.158027">
        <ele>151.108</ele>
        <time>2021-09-01T13:56:38Z</time>
      </trkpt>
      <trkpt lat="39.435082" lon="3.158049">
        <ele>151.271</ele>
        <time>2021-09-01T13:56:39Z</time>
      </trkpt>
      <trkpt lat="39.435123" lon="3.158078">
        <ele>151.355</ele>
        <time>2021-09-01T13:56:40Z</time>
      </trkpt>
      <trkpt lat="39.435165" lon="3.158106">
        <ele>151.590</ele>
        <time>2021-09-01T13:56:41Z</time>
      </trkpt>
      <trkpt lat="39.435206" lon="3.158132">
        <ele>151.534</ele>
        <time>2021-09-01T13:56:42Z</time>
      </trkpt>
      <trkpt lat="39.435250" lon="3.158162">
        <ele>151.693</ele>
        <time>2021-09-01T13:56:43Z</time>
      </trkpt>
      <trkpt lat="39.435292" lon="3.158196">
        <ele>151.798</ele>
        <time>2021-09-01T13:56:44Z</time>
      </trkpt>
      <trkpt lat="39.435376" lon="3.158244">
        <ele>151.955</ele>
        <time>2021-09-01T13:56:46Z</time>
      </trkpt>
      <trkpt lat="39.435420" lon="3.158268">
        <ele>152.055</ele>
        <time>2021-09-01T13:56:47Z</time>
      </trkpt>
      <trkpt lat="39.435463" lon="3.158286">
        <ele>152.271</ele>
        <time>2021-09-01T13:56:48Z</time>
      </trkpt>
      <trkpt lat="39.435509" lon="3.158310">
        <ele>152.341</ele>
        <time>2021-09-01T13:56:49Z</time>
      </trkpt>
      <trkpt lat="39.435551" lon="3.158332">
        <ele>152.515</ele>
        <time>2021-09-01T13:56:50Z</time>
      </trkpt>
      <trkpt lat="39.435598" lon="3.158341">
        <ele>152.608</ele>
        <time>2021-09-01T13:56:51Z</time>
      </trkpt>
      <trkpt lat="39.435648" lon="3.158365">
        <ele>152.655</ele>
        <time>2021-09-01T13:56:52Z</time>
      </trkpt>
      <trkpt lat="39.435695" lon="3.158382">
        <ele>152.759</ele>
        <time>2021-09-01T13:56:53Z</time>
      </trkpt>
      <trkpt lat="39.435743" lon="3.158403">
        <ele>152.814</ele>
        <time>2021-09-01T13:56:54Z</time>
      </trkpt>
      <trkpt lat="39.435789" lon="3.158427">
        <ele>152.988</ele>
        <time>2021-09-01T13:56:55Z</time>
      </trkpt>
      <trkpt lat="39.435843" lon="3.158446">
        <ele>153.037</ele>
        <time>2021-09-01T13:56:56Z</time>
      </trkpt>
      <trkpt lat="39.435901" lon="3.158471">
        <ele>153.182</ele>
        <time>2021-09-01T13:56:57Z</time>
      </trkpt>
      <trkpt lat="39.435945" lon="3.158490">
        <ele>153.169</ele>
        <time>2021-09-01T13:56:58Z</time>
      </trkpt>
      <trkpt lat="39.435999" lon="3.158511">
        <ele>153.139</ele>
        <time>2021-09-01T13:56:59Z</time>
      </trkpt>
      <trkpt lat="39.436050" lon="3.158535">
        <ele>153.222</ele>
        <time>2021-09-01T13:57:00Z</time>
      </trkpt>
      <trkpt lat="39.436106" lon="3.158554">
        <ele>153.362</ele>
        <time>2021-09-01T13:57:01Z</time>
      </trkpt>
      <trkpt lat="39.436156" lon="3.158578">
        <ele>153.408</ele>
        <time>2021-09-01T13:57:02Z</time>
      </trkpt>
      <trkpt lat="39.436206" lon="3.158595">
        <ele>153.408</ele>
        <time>2021-09-01T13:57:03Z</time>
      </trkpt>
      <trkpt lat="39.436252" lon="3.158614">
        <ele>153.540</ele>
        <time>2021-09-01T13:57:04Z</time>
      </trkpt>
      <trkpt lat="39.436304" lon="3.158631">
        <ele>153.534</ele>
        <time>2021-09-01T13:57:05Z</time>
      </trkpt>
      <trkpt lat="39.436352" lon="3.158652">
        <ele>153.519</ele>
        <time>2021-09-01T13:57:06Z</time>
      </trkpt>
      <trkpt lat="39.436401" lon="3.158669">
        <ele>153.583</ele>
        <time>2021-09-01T13:57:07Z</time>
      </trkpt>
      <trkpt lat="39.436448" lon="3.158693">
        <ele>153.512</ele>
        <time>2021-09-01T13:57:08Z</time>
      </trkpt>
      <trkpt lat="39.436501" lon="3.158713">
        <ele>153.597</ele>
        <time>2021-09-01T13:57:09Z</time>
      </trkpt>
      <trkpt lat="39.436551" lon="3.158731">
        <ele>153.514</ele>
        <time>2021-09-01T13:57:10Z</time>
      </trkpt>
      <trkpt lat="39.436599" lon="3.158741">
        <ele>153.594</ele>
        <time>2021-09-01T13:57:11Z</time>
      </trkpt>
      <trkpt lat="39.436653" lon="3.158769">
        <ele>153.548</ele>
        <time>2021-09-01T13:57:12Z</time>
      </trkpt>
      <trkpt lat="39.436703" lon="3.158788">
        <ele>153.661</ele>
        <time>2021-09-01T13:57:13Z</time>
      </trkpt>
      <trkpt lat="39.436747" lon="3.158804">
        <ele>153.817</ele>
        <time>2021-09-01T13:57:14Z</time>
      </trkpt>
      <trkpt lat="39.436793" lon="3.158820">
        <ele>153.908</ele>
        <time>2021-09-01T13:57:15Z</time>
      </trkpt>
      <trkpt lat="39.436839" lon="3.158837">
        <ele>154.172</ele>
        <time>2021-09-01T13:57:16Z</time>
      </trkpt>
      <trkpt lat="39.436886" lon="3.158862">
        <ele>154.356</ele>
        <time>2021-09-01T13:57:17Z</time>
      </trkpt>
      <trkpt lat="39.436931" lon="3.158879">
        <ele>154.441</ele>
        <time>2021-09-01T13:57:18Z</time>
      </trkpt>
      <trkpt lat="39.436977" lon="3.158898">
        <ele>154.585</ele>
        <time>2021-09-01T13:57:19Z</time>
      </trkpt>
      <trkpt lat="39.437068" lon="3.158934">
        <ele>154.664</ele>
        <time>2021-09-01T13:57:21Z</time>
      </trkpt>
      <trkpt lat="39.437153" lon="3.158967">
        <ele>154.829</ele>
        <time>2021-09-01T13:57:23Z</time>
      </trkpt>
      <trkpt lat="39.437245" lon="3.158995">
        <ele>155.036</ele>
        <time>2021-09-01T13:57:25Z</time>
      </trkpt>
      <trkpt lat="39.437288" lon="3.159017">
        <ele>155.226</ele>
        <time>2021-09-01T13:57:26Z</time>
      </trkpt>
      <trkpt lat="39.437376" lon="3.159047">
        <ele>155.691</ele>
        <time>2021-09-01T13:57:28Z</time>
      </trkpt>
      <trkpt lat="39.437459" lon="3.159086">
        <ele>156.081</ele>
        <time>2021-09-01T13:57:30Z</time>
      </trkpt>
      <trkpt lat="39.437503" lon="3.159103">
        <ele>156.219</ele>
        <time>2021-09-01T13:57:31Z</time>
      </trkpt>
      <trkpt lat="39.437588" lon="3.159139">
        <ele>156.508</ele>
        <time>2021-09-01T13:57:33Z</time>
      </trkpt>
      <trkpt lat="39.437665" lon="3.159176">
        <ele>156.857</ele>
        <time>2021-09-01T13:57:35Z</time>
      </trkpt>
      <trkpt lat="39.437738" lon="3.159210">
        <ele>157.191</ele>
        <time>2021-09-01T13:57:37Z</time>
      </trkpt>
      <trkpt lat="39.437805" lon="3.159241">
        <ele>157.626</ele>
        <time>2021-09-01T13:57:39Z</time>
      </trkpt>
      <trkpt lat="39.437872" lon="3.159272">
        <ele>158.060</ele>
        <time>2021-09-01T13:57:41Z</time>
      </trkpt>
      <trkpt lat="39.437930" lon="3.159281">
        <ele>158.569</ele>
        <time>2021-09-01T13:57:43Z</time>
      </trkpt>
      <trkpt lat="39.437981" lon="3.159294">
        <ele>159.054</ele>
        <time>2021-09-01T13:57:45Z</time>
      </trkpt>
      <trkpt lat="39.438038" lon="3.159302">
        <ele>159.521</ele>
        <time>2021-09-01T13:57:47Z</time>
      </trkpt>
      <trkpt lat="39.438098" lon="3.159324">
        <ele>160.171</ele>
        <time>2021-09-01T13:57:49Z</time>
      </trkpt>
      <trkpt lat="39.438152" lon="3.159328">
        <ele>160.769</ele>
        <time>2021-09-01T13:57:51Z</time>
      </trkpt>
      <trkpt lat="39.438203" lon="3.159324">
        <ele>161.604</ele>
        <time>2021-09-01T13:57:53Z</time>
      </trkpt>
      <trkpt lat="39.438255" lon="3.159324">
        <ele>162.424</ele>
        <time>2021-09-01T13:57:55Z</time>
      </trkpt>
      <trkpt lat="39.438303" lon="3.159314">
        <ele>163.108</ele>
        <time>2021-09-01T13:57:57Z</time>
      </trkpt>
      <trkpt lat="39.438354" lon="3.159320">
        <ele>163.864</ele>
        <time>2021-09-01T13:57:59Z</time>
      </trkpt>
      <trkpt lat="39.438404" lon="3.159300">
        <ele>164.328</ele>
        <time>2021-09-01T13:58:01Z</time>
      </trkpt>
      <trkpt lat="39.438452" lon="3.159291">
        <ele>164.553</ele>
        <time>2021-09-01T13:58:03Z</time>
      </trkpt>
      <trkpt lat="39.438494" lon="3.159268">
        <ele>164.637</ele>
        <time>2021-09-01T13:58:05Z</time>
      </trkpt>
      <trkpt lat="39.438539" lon="3.159249">
        <ele>165.096</ele>
        <time>2021-09-01T13:58:07Z</time>
      </trkpt>
      <trkpt lat="39.438589" lon="3.159224">
        <ele>165.461</ele>
        <time>2021-09-01T13:58:09Z</time>
      </trkpt>
      <trkpt lat="39.438634" lon="3.159202">
        <ele>165.418</ele>
        <time>2021-09-01T13:58:11Z</time>
      </trkpt>
      <trkpt lat="39.438687" lon="3.159173">
        <ele>165.488</ele>
        <time>2021-09-01T13:58:13Z</time>
      </trkpt>
      <trkpt lat="39.438739" lon="3.159147">
        <ele>165.795</ele>
        <time>2021-09-01T13:58:15Z</time>
      </trkpt>
      <trkpt lat="39.438795" lon="3.159117">
        <ele>166.649</ele>
        <time>2021-09-01T13:58:17Z</time>
      </trkpt>
      <trkpt lat="39.438856" lon="3.159091">
        <ele>167.623</ele>
        <time>2021-09-01T13:58:19Z</time>
      </trkpt>
      <trkpt lat="39.438918" lon="3.159052">
        <ele>168.108</ele>
        <time>2021-09-01T13:58:21Z</time>
      </trkpt>
      <trkpt lat="39.438984" lon="3.159025">
        <ele>168.277</ele>
        <time>2021-09-01T13:58:23Z</time>
      </trkpt>
      <trkpt lat="39.439055" lon="3.158983">
        <ele>168.421</ele>
        <time>2021-09-01T13:58:25Z</time>
      </trkpt>
      <trkpt lat="39.439128" lon="3.158954">
        <ele>168.636</ele>
        <time>2021-09-01T13:58:27Z</time>
      </trkpt>
      <trkpt lat="39.439200" lon="3.158909">
        <ele>168.910</ele>
        <time>2021-09-01T13:58:29Z</time>
      </trkpt>
      <trkpt lat="39.439280" lon="3.158858">
        <ele>169.099</ele>
        <time>2021-09-01T13:58:31Z</time>
      </trkpt>
      <trkpt lat="39.439360" lon="3.158836">
        <ele>169.094</ele>
        <time>2021-09-01T13:58:33Z</time>
      </trkpt>
      <trkpt lat="39.439401" lon="3.158805">
        <ele>168.941</ele>
        <time>2021-09-01T13:58:34Z</time>
      </trkpt>
      <trkpt lat="39.439450" lon="3.158760">
        <ele>168.941</ele>
        <time>2021-09-01T13:58:35Z</time>
      </trkpt>
      <trkpt lat="39.439500" lon="3.158736">
        <ele>168.812</ele>
        <time>2021-09-01T13:58:36Z</time>
      </trkpt>
      <trkpt lat="39.439556" lon="3.158701">
        <ele>168.632</ele>
        <time>2021-09-01T13:58:37Z</time>
      </trkpt>
      <trkpt lat="39.439606" lon="3.158668">
        <ele>168.605</ele>
        <time>2021-09-01T13:58:38Z</time>
      </trkpt>
      <trkpt lat="39.439665" lon="3.158630">
        <ele>168.508</ele>
        <time>2021-09-01T13:58:39Z</time>
      </trkpt>
      <trkpt lat="39.439721" lon="3.158600">
        <ele>168.389</ele>
        <time>2021-09-01T13:58:40Z</time>
      </trkpt>
      <trkpt lat="39.439778" lon="3.158573">
        <ele>168.373</ele>
        <time>2021-09-01T13:58:41Z</time>
      </trkpt>
      <trkpt lat="39.439832" lon="3.158539">
        <ele>168.218</ele>
        <time>2021-09-01T13:58:42Z</time>
      </trkpt>
      <trkpt lat="39.439886" lon="3.158501">
        <ele>168.272</ele>
        <time>2021-09-01T13:58:43Z</time>
      </trkpt>
      <trkpt lat="39.439941" lon="3.158471">
        <ele>168.261</ele>
        <time>2021-09-01T13:58:44Z</time>
      </trkpt>
      <trkpt lat="39.439997" lon="3.158436">
        <ele>168.276</ele>
        <time>2021-09-01T13:58:45Z</time>
      </trkpt>
      <trkpt lat="39.440061" lon="3.158400">
        <ele>168.063</ele>
        <time>2021-09-01T13:58:46Z</time>
      </trkpt>
      <trkpt lat="39.440125" lon="3.158365">
        <ele>167.983</ele>
        <time>2021-09-01T13:58:47Z</time>
      </trkpt>
      <trkpt lat="39.440189" lon="3.158327">
        <ele>167.792</ele>
        <time>2021-09-01T13:58:48Z</time>
      </trkpt>
      <trkpt lat="39.440254" lon="3.158278">
        <ele>167.373</ele>
        <time>2021-09-01T13:58:49Z</time>
      </trkpt>
      <trkpt lat="39.440323" lon="3.158246">
        <ele>166.820</ele>
        <time>2021-09-01T13:58:50Z</time>
      </trkpt>
      <trkpt lat="39.440395" lon="3.158213">
        <ele>166.508</ele>
        <time>2021-09-01T13:58:51Z</time>
      </trkpt>
      <trkpt lat="39.440469" lon="3.158186">
        <ele>166.297</ele>
        <time>2021-09-01T13:58:52Z</time>
      </trkpt>
      <trkpt lat="39.440538" lon="3.158169">
        <ele>165.981</ele>
        <time>2021-09-01T13:58:53Z</time>
      </trkpt>
      <trkpt lat="39.440614" lon="3.158147">
        <ele>165.766</ele>
        <time>2021-09-01T13:58:54Z</time>
      </trkpt>
      <trkpt lat="39.440688" lon="3.158143">
        <ele>165.540</ele>
        <time>2021-09-01T13:58:55Z</time>
      </trkpt>
      <trkpt lat="39.440762" lon="3.158132">
        <ele>165.359</ele>
        <time>2021-09-01T13:58:56Z</time>
      </trkpt>
      <trkpt lat="39.440834" lon="3.158119">
        <ele>165.014</ele>
        <time>2021-09-01T13:58:57Z</time>
      </trkpt>
      <trkpt lat="39.440906" lon="3.158106">
        <ele>164.861</ele>
        <time>2021-09-01T13:58:58Z</time>
      </trkpt>
      <trkpt lat="39.440981" lon="3.158101">
        <ele>164.691</ele>
        <time>2021-09-01T13:58:59Z</time>
      </trkpt>
      <trkpt lat="39.441055" lon="3.158086">
        <ele>164.377</ele>
        <time>2021-09-01T13:59:00Z</time>
      </trkpt>
      <trkpt lat="39.441129" lon="3.158080">
        <ele>164.161</ele>
        <time>2021-09-01T13:59:01Z</time>
      </trkpt>
      <trkpt lat="39.441202" lon="3.158081">
        <ele>163.927</ele>
        <time>2021-09-01T13:59:02Z</time>
      </trkpt>
      <trkpt lat="39.441279" lon="3.158081">
        <ele>163.708</ele>
        <time>2021-09-01T13:59:03Z</time>
      </trkpt>
      <trkpt lat="39.441352" lon="3.158098">
        <ele>163.675</ele>
        <time>2021-09-01T13:59:04Z</time>
      </trkpt>
      <trkpt lat="39.441423" lon="3.158125">
        <ele>163.269</ele>
        <time>2021-09-01T13:59:05Z</time>
      </trkpt>
      <trkpt lat="39.441502" lon="3.158163">
        <ele>162.974</ele>
        <time>2021-09-01T13:59:06Z</time>
      </trkpt>
      <trkpt lat="39.441566" lon="3.158172">
        <ele>162.658</ele>
        <time>2021-09-01T13:59:07Z</time>
      </trkpt>
      <trkpt lat="39.441638" lon="3.158192">
        <ele>162.437</ele>
        <time>2021-09-01T13:59:08Z</time>
      </trkpt>
      <trkpt lat="39.441710" lon="3.158211">
        <ele>162.132</ele>
        <time>2021-09-01T13:59:09Z</time>
      </trkpt>
      <trkpt lat="39.441781" lon="3.158218">
        <ele>162.179</ele>
        <time>2021-09-01T13:59:10Z</time>
      </trkpt>
      <trkpt lat="39.441865" lon="3.158221">
        <ele>162.069</ele>
        <time>2021-09-01T13:59:11Z</time>
      </trkpt>
      <trkpt lat="39.441944" lon="3.158216">
        <ele>162.071</ele>
        <time>2021-09-01T13:59:12Z</time>
      </trkpt>
      <trkpt lat="39.442022" lon="3.158209">
        <ele>161.941</ele>
        <time>2021-09-01T13:59:13Z</time>
      </trkpt>
      <trkpt lat="39.442098" lon="3.158202">
        <ele>161.815</ele>
        <time>2021-09-01T13:59:14Z</time>
      </trkpt>
      <trkpt lat="39.442183" lon="3.158196">
        <ele>161.508</ele>
        <time>2021-09-01T13:59:15Z</time>
      </trkpt>
      <trkpt lat="39.442273" lon="3.158196">
        <ele>161.215</ele>
        <time>2021-09-01T13:59:16Z</time>
      </trkpt>
      <trkpt lat="39.442365" lon="3.158193">
        <ele>160.839</ele>
        <time>2021-09-01T13:59:17Z</time>
      </trkpt>
      <trkpt lat="39.442457" lon="3.158179">
        <ele>160.464</ele>
        <time>2021-09-01T13:59:18Z</time>
      </trkpt>
      <trkpt lat="39.442552" lon="3.158171">
        <ele>160.078</ele>
        <time>2021-09-01T13:59:19Z</time>
      </trkpt>
      <trkpt lat="39.442647" lon="3.158174">
        <ele>159.537</ele>
        <time>2021-09-01T13:59:20Z</time>
      </trkpt>
      <trkpt lat="39.442741" lon="3.158170">
        <ele>159.012</ele>
        <time>2021-09-01T13:59:21Z</time>
      </trkpt>
      <trkpt lat="39.442833" lon="3.158162">
        <ele>158.719</ele>
        <time>2021-09-01T13:59:22Z</time>
      </trkpt>
      <trkpt lat="39.442923" lon="3.158154">
        <ele>158.229</ele>
        <time>2021-09-01T13:59:23Z</time>
      </trkpt>
      <trkpt lat="39.443009" lon="3.158133">
        <ele>157.847</ele>
        <time>2021-09-01T13:59:24Z</time>
      </trkpt>
      <trkpt lat="39.443092" lon="3.158100">
        <ele>157.529</ele>
        <time>2021-09-01T13:59:25Z</time>
      </trkpt>
      <trkpt lat="39.443177" lon="3.158066">
        <ele>157.121</ele>
        <time>2021-09-01T13:59:26Z</time>
      </trkpt>
      <trkpt lat="39.443258" lon="3.158020">
        <ele>156.808</ele>
        <time>2021-09-01T13:59:27Z</time>
      </trkpt>
      <trkpt lat="39.443335" lon="3.157972">
        <ele>156.632</ele>
        <time>2021-09-01T13:59:28Z</time>
      </trkpt>
      <trkpt lat="39.443410" lon="3.157926">
        <ele>156.596</ele>
        <time>2021-09-01T13:59:29Z</time>
      </trkpt>
      <trkpt lat="39.443483" lon="3.157868">
        <ele>156.561</ele>
        <time>2021-09-01T13:59:30Z</time>
      </trkpt>
      <trkpt lat="39.443551" lon="3.157814">
        <ele>156.555</ele>
        <time>2021-09-01T13:59:31Z</time>
      </trkpt>
      <trkpt lat="39.443616" lon="3.157754">
        <ele>156.724</ele>
        <time>2021-09-01T13:59:32Z</time>
      </trkpt>
      <trkpt lat="39.443680" lon="3.157694">
        <ele>156.949</ele>
        <time>2021-09-01T13:59:33Z</time>
      </trkpt>
      <trkpt lat="39.443747" lon="3.157647">
        <ele>157.026</ele>
        <time>2021-09-01T13:59:34Z</time>
      </trkpt>
      <trkpt lat="39.443811" lon="3.157594">
        <ele>157.176</ele>
        <time>2021-09-01T13:59:35Z</time>
      </trkpt>
      <trkpt lat="39.443869" lon="3.157554">
        <ele>157.187</ele>
        <time>2021-09-01T13:59:36Z</time>
      </trkpt>
      <trkpt lat="39.443929" lon="3.157517">
        <ele>157.142</ele>
        <time>2021-09-01T13:59:37Z</time>
      </trkpt>
      <trkpt lat="39.443988" lon="3.157487">
        <ele>157.126</ele>
        <time>2021-09-01T13:59:38Z</time>
      </trkpt>
      <trkpt lat="39.444046" lon="3.157459">
        <ele>157.208</ele>
        <time>2021-09-01T13:59:39Z</time>
      </trkpt>
      <trkpt lat="39.444101" lon="3.157437">
        <ele>157.316</ele>
        <time>2021-09-01T13:59:40Z</time>
      </trkpt>
      <trkpt lat="39.444157" lon="3.157417">
        <ele>157.420</ele>
        <time>2021-09-01T13:59:41Z</time>
      </trkpt>
      <trkpt lat="39.444212" lon="3.157396">
        <ele>157.715</ele>
        <time>2021-09-01T13:59:42Z</time>
      </trkpt>
      <trkpt lat="39.444267" lon="3.157376">
        <ele>157.999</ele>
        <time>2021-09-01T13:59:43Z</time>
      </trkpt>
      <trkpt lat="39.444318" lon="3.157359">
        <ele>158.078</ele>
        <time>2021-09-01T13:59:44Z</time>
      </trkpt>
      <trkpt lat="39.444372" lon="3.157338">
        <ele>158.393</ele>
        <time>2021-09-01T13:59:45Z</time>
      </trkpt>
      <trkpt lat="39.444425" lon="3.157315">
        <ele>158.680</ele>
        <time>2021-09-01T13:59:46Z</time>
      </trkpt>
      <trkpt lat="39.444480" lon="3.157300">
        <ele>158.860</ele>
        <time>2021-09-01T13:59:47Z</time>
      </trkpt>
      <trkpt lat="39.444532" lon="3.157273">
        <ele>158.978</ele>
        <time>2021-09-01T13:59:48Z</time>
      </trkpt>
      <trkpt lat="39.444590" lon="3.157252">
        <ele>159.133</ele>
        <time>2021-09-01T13:59:49Z</time>
      </trkpt>
      <trkpt lat="39.444644" lon="3.157231">
        <ele>159.126</ele>
        <time>2021-09-01T13:59:50Z</time>
      </trkpt>
      <trkpt lat="39.444698" lon="3.157212">
        <ele>159.108</ele>
        <time>2021-09-01T13:59:51Z</time>
      </trkpt>
      <trkpt lat="39.444753" lon="3.157193">
        <ele>159.115</ele>
        <time>2021-09-01T13:59:52Z</time>
      </trkpt>
      <trkpt lat="39.444812" lon="3.157172">
        <ele>159.239</ele>
        <time>2021-09-01T13:59:53Z</time>
      </trkpt>
      <trkpt lat="39.444867" lon="3.157153">
        <ele>159.254</ele>
        <time>2021-09-01T13:59:54Z</time>
      </trkpt>
      <trkpt lat="39.444926" lon="3.157132">
        <ele>159.358</ele>
        <time>2021-09-01T13:59:55Z</time>
      </trkpt>
      <trkpt lat="39.444982" lon="3.157111">
        <ele>159.397</ele>
        <time>2021-09-01T13:59:56Z</time>
      </trkpt>
      <trkpt lat="39.445037" lon="3.157091">
        <ele>159.382</ele>
        <time>2021-09-01T13:59:57Z</time>
      </trkpt>
      <trkpt lat="39.445093" lon="3.157071">
        <ele>159.459</ele>
        <time>2021-09-01T13:59:58Z</time>
      </trkpt>
      <trkpt lat="39.445147" lon="3.157052">
        <ele>159.519</ele>
        <time>2021-09-01T13:59:59Z</time>
      </trkpt>
      <trkpt lat="39.445202" lon="3.157032">
        <ele>159.624</ele>
        <time>2021-09-01T14:00:00Z</time>
      </trkpt>
      <trkpt lat="39.445255" lon="3.157013">
        <ele>159.704</ele>
        <time>2021-09-01T14:00:01Z</time>
      </trkpt>
      <trkpt lat="39.445310" lon="3.156992">
        <ele>159.714</ele>
        <time>2021-09-01T14:00:02Z</time>
      </trkpt>
      <trkpt lat="39.445365" lon="3.156969">
        <ele>159.808</ele>
        <time>2021-09-01T14:00:03Z</time>
      </trkpt>
      <trkpt lat="39.445416" lon="3.156947">
        <ele>159.910</ele>
        <time>2021-09-01T14:00:04Z</time>
      </trkpt>
      <trkpt lat="39.445472" lon="3.156922">
        <ele>160.154</ele>
        <time>2021-09-01T14:00:05Z</time>
      </trkpt>
      <trkpt lat="39.445530" lon="3.156893">
        <ele>160.239</ele>
        <time>2021-09-01T14:00:06Z</time>
      </trkpt>
      <trkpt lat="39.445589" lon="3.156864">
        <ele>160.363</ele>
        <time>2021-09-01T14:00:07Z</time>
      </trkpt>
      <trkpt lat="39.445647" lon="3.156831">
        <ele>160.332</ele>
        <time>2021-09-01T14:00:08Z</time>
      </trkpt>
      <trkpt lat="39.445707" lon="3.156794">
        <ele>160.337</ele>
        <time>2021-09-01T14:00:09Z</time>
      </trkpt>
      <trkpt lat="39.445767" lon="3.156761">
        <ele>160.284</ele>
        <time>2021-09-01T14:00:10Z</time>
      </trkpt>
      <trkpt lat="39.445827" lon="3.156723">
        <ele>160.164</ele>
        <time>2021-09-01T14:00:11Z</time>
      </trkpt>
      <trkpt lat="39.445887" lon="3.156684">
        <ele>160.041</ele>
        <time>2021-09-01T14:00:12Z</time>
      </trkpt>
      <trkpt lat="39.445945" lon="3.156646">
        <ele>159.981</ele>
        <time>2021-09-01T14:00:13Z</time>
      </trkpt>
      <trkpt lat="39.446003" lon="3.156613">
        <ele>159.809</ele>
        <time>2021-09-01T14:00:14Z</time>
      </trkpt>
      <trkpt lat="39.446067" lon="3.156572">
        <ele>159.708</ele>
        <time>2021-09-01T14:00:15Z</time>
      </trkpt>
      <trkpt lat="39.446125" lon="3.156539">
        <ele>159.612</ele>
        <time>2021-09-01T14:00:16Z</time>
      </trkpt>
      <trkpt lat="39.446184" lon="3.156501">
        <ele>159.566</ele>
        <time>2021-09-01T14:00:17Z</time>
      </trkpt>
      <trkpt lat="39.446244" lon="3.156460">
        <ele>159.441</ele>
        <time>2021-09-01T14:00:18Z</time>
      </trkpt>
      <trkpt lat="39.446303" lon="3.156424">
        <ele>159.365</ele>
        <time>2021-09-01T14:00:19Z</time>
      </trkpt>
      <trkpt lat="39.446364" lon="3.156383">
        <ele>159.134</ele>
        <time>2021-09-01T14:00:20Z</time>
      </trkpt>
      <trkpt lat="39.446424" lon="3.156344">
        <ele>158.959</ele>
        <time>2021-09-01T14:00:21Z</time>
      </trkpt>
      <trkpt lat="39.446479" lon="3.156309">
        <ele>158.756</ele>
        <time>2021-09-01T14:00:22Z</time>
      </trkpt>
      <trkpt lat="39.446527" lon="3.156282">
        <ele>158.646</ele>
        <time>2021-09-01T14:00:23Z</time>
      </trkpt>
      <trkpt lat="39.446577" lon="3.156247">
        <ele>158.341</ele>
        <time>2021-09-01T14:00:24Z</time>
      </trkpt>
      <trkpt lat="39.446627" lon="3.156220">
        <ele>158.281</ele>
        <time>2021-09-01T14:00:25Z</time>
      </trkpt>
      <trkpt lat="39.446677" lon="3.156179">
        <ele>158.009</ele>
        <time>2021-09-01T14:00:26Z</time>
      </trkpt>
      <trkpt lat="39.446725" lon="3.156156">
        <ele>157.808</ele>
        <time>2021-09-01T14:00:27Z</time>
      </trkpt>
      <trkpt lat="39.446778" lon="3.156127">
        <ele>157.642</ele>
        <time>2021-09-01T14:00:28Z</time>
      </trkpt>
      <trkpt lat="39.446827" lon="3.156102">
        <ele>157.576</ele>
        <time>2021-09-01T14:00:29Z</time>
      </trkpt>
      <trkpt lat="39.446878" lon="3.156064">
        <ele>157.541</ele>
        <time>2021-09-01T14:00:30Z</time>
      </trkpt>
      <trkpt lat="39.446929" lon="3.156032">
        <ele>157.525</ele>
        <time>2021-09-01T14:00:31Z</time>
      </trkpt>
      <trkpt lat="39.446983" lon="3.155999">
        <ele>157.574</ele>
        <time>2021-09-01T14:00:32Z</time>
      </trkpt>
      <trkpt lat="39.447037" lon="3.155969">
        <ele>157.629</ele>
        <time>2021-09-01T14:00:33Z</time>
      </trkpt>
      <trkpt lat="39.447094" lon="3.155933">
        <ele>157.626</ele>
        <time>2021-09-01T14:00:34Z</time>
      </trkpt>
      <trkpt lat="39.447148" lon="3.155897">
        <ele>157.626</ele>
        <time>2021-09-01T14:00:35Z</time>
      </trkpt>
      <trkpt lat="39.447205" lon="3.155867">
        <ele>157.535</ele>
        <time>2021-09-01T14:00:36Z</time>
      </trkpt>
      <trkpt lat="39.447265" lon="3.155834">
        <ele>157.486</ele>
        <time>2021-09-01T14:00:37Z</time>
      </trkpt>
      <trkpt lat="39.447322" lon="3.155801">
        <ele>157.314</ele>
        <time>2021-09-01T14:00:38Z</time>
      </trkpt>
      <trkpt lat="39.447379" lon="3.155768">
        <ele>157.108</ele>
        <time>2021-09-01T14:00:39Z</time>
      </trkpt>
      <trkpt lat="39.447440" lon="3.155730">
        <ele>157.041</ele>
        <time>2021-09-01T14:00:40Z</time>
      </trkpt>
      <trkpt lat="39.447500" lon="3.155693">
        <ele>156.955</ele>
        <time>2021-09-01T14:00:41Z</time>
      </trkpt>
      <trkpt lat="39.447567" lon="3.155653">
        <ele>156.860</ele>
        <time>2021-09-01T14:00:42Z</time>
      </trkpt>
      <trkpt lat="39.447635" lon="3.155614">
        <ele>156.624</ele>
        <time>2021-09-01T14:00:43Z</time>
      </trkpt>
      <trkpt lat="39.447706" lon="3.155570">
        <ele>156.513</ele>
        <time>2021-09-01T14:00:44Z</time>
      </trkpt>
      <trkpt lat="39.447778" lon="3.155527">
        <ele>156.328</ele>
        <time>2021-09-01T14:00:45Z</time>
      </trkpt>
      <trkpt lat="39.447853" lon="3.155481">
        <ele>156.055</ele>
        <time>2021-09-01T14:00:46Z</time>
      </trkpt>
      <trkpt lat="39.447931" lon="3.155430">
        <ele>155.835</ele>
        <time>2021-09-01T14:00:47Z</time>
      </trkpt>
      <trkpt lat="39.448012" lon="3.155378">
        <ele>155.384</ele>
        <time>2021-09-01T14:00:48Z</time>
      </trkpt>
      <trkpt lat="39.448093" lon="3.155329">
        <ele>155.007</ele>
        <time>2021-09-01T14:00:49Z</time>
      </trkpt>
      <trkpt lat="39.448178" lon="3.155279">
        <ele>154.917</ele>
        <time>2021-09-01T14:00:50Z</time>
      </trkpt>
      <trkpt lat="39.448263" lon="3.155219">
        <ele>154.808</ele>
        <time>2021-09-01T14:00:51Z</time>
      </trkpt>
      <trkpt lat="39.448345" lon="3.155160">
        <ele>154.836</ele>
        <time>2021-09-01T14:00:52Z</time>
      </trkpt>
      <trkpt lat="39.448427" lon="3.155104">
        <ele>154.890</ele>
        <time>2021-09-01T14:00:53Z</time>
      </trkpt>
      <trkpt lat="39.448511" lon="3.155048">
        <ele>154.865</ele>
        <time>2021-09-01T14:00:54Z</time>
      </trkpt>
      <trkpt lat="39.448594" lon="3.154995">
        <ele>154.789</ele>
        <time>2021-09-01T14:00:55Z</time>
      </trkpt>
      <trkpt lat="39.448677" lon="3.154945">
        <ele>154.458</ele>
        <time>2021-09-01T14:00:56Z</time>
      </trkpt>
      <trkpt lat="39.448767" lon="3.154893">
        <ele>154.113</ele>
        <time>2021-09-01T14:00:57Z</time>
      </trkpt>
      <trkpt lat="39.448854" lon="3.154839">
        <ele>153.750</ele>
        <time>2021-09-01T14:00:58Z</time>
      </trkpt>
      <trkpt lat="39.448944" lon="3.154783">
        <ele>153.120</ele>
        <time>2021-09-01T14:00:59Z</time>
      </trkpt>
      <trkpt lat="39.449035" lon="3.154733">
        <ele>152.527</ele>
        <time>2021-09-01T14:01:00Z</time>
      </trkpt>
      <trkpt lat="39.449127" lon="3.154686">
        <ele>151.968</ele>
        <time>2021-09-01T14:01:01Z</time>
      </trkpt>
      <trkpt lat="39.449220" lon="3.154631">
        <ele>151.214</ele>
        <time>2021-09-01T14:01:02Z</time>
      </trkpt>
      <trkpt lat="39.449311" lon="3.154578">
        <ele>150.608</ele>
        <time>2021-09-01T14:01:03Z</time>
      </trkpt>
      <trkpt lat="39.449405" lon="3.154519">
        <ele>150.270</ele>
        <time>2021-09-01T14:01:04Z</time>
      </trkpt>
      <trkpt lat="39.449497" lon="3.154469">
        <ele>149.634</ele>
        <time>2021-09-01T14:01:05Z</time>
      </trkpt>
      <trkpt lat="39.449594" lon="3.154414">
        <ele>149.219</ele>
        <time>2021-09-01T14:01:06Z</time>
      </trkpt>
      <trkpt lat="39.449683" lon="3.154361">
        <ele>148.973</ele>
        <time>2021-09-01T14:01:07Z</time>
      </trkpt>
      <trkpt lat="39.449774" lon="3.154308">
        <ele>148.622</ele>
        <time>2021-09-01T14:01:08Z</time>
      </trkpt>
      <trkpt lat="39.449870" lon="3.154258">
        <ele>148.127</ele>
        <time>2021-09-01T14:01:09Z</time>
      </trkpt>
      <trkpt lat="39.449966" lon="3.154210">
        <ele>147.924</ele>
        <time>2021-09-01T14:01:10Z</time>
      </trkpt>
      <trkpt lat="39.450065" lon="3.154155">
        <ele>147.794</ele>
        <time>2021-09-01T14:01:11Z</time>
      </trkpt>
      <trkpt lat="39.450166" lon="3.154101">
        <ele>147.555</ele>
        <time>2021-09-01T14:01:12Z</time>
      </trkpt>
      <trkpt lat="39.450265" lon="3.154047">
        <ele>147.207</ele>
        <time>2021-09-01T14:01:13Z</time>
      </trkpt>
      <trkpt lat="39.450369" lon="3.154001">
        <ele>147.117</ele>
        <time>2021-09-01T14:01:14Z</time>
      </trkpt>
      <trkpt lat="39.450475" lon="3.153977">
        <ele>146.908</ele>
        <time>2021-09-01T14:01:15Z</time>
      </trkpt>
      <trkpt lat="39.450583" lon="3.153979">
        <ele>146.583</ele>
        <time>2021-09-01T14:01:16Z</time>
      </trkpt>
      <trkpt lat="39.450686" lon="3.154007">
        <ele>146.027</ele>
        <time>2021-09-01T14:01:17Z</time>
      </trkpt>
      <trkpt lat="39.450791" lon="3.154038">
        <ele>145.662</ele>
        <time>2021-09-01T14:01:18Z</time>
      </trkpt>
      <trkpt lat="39.450899" lon="3.154067">
        <ele>145.156</ele>
        <time>2021-09-01T14:01:19Z</time>
      </trkpt>
      <trkpt lat="39.451006" lon="3.154096">
        <ele>144.755</ele>
        <time>2021-09-01T14:01:20Z</time>
      </trkpt>
      <trkpt lat="39.451113" lon="3.154109">
        <ele>144.450</ele>
        <time>2021-09-01T14:01:21Z</time>
      </trkpt>
      <trkpt lat="39.451219" lon="3.154108">
        <ele>144.277</ele>
        <time>2021-09-01T14:01:22Z</time>
      </trkpt>
      <trkpt lat="39.451325" lon="3.154082">
        <ele>144.037</ele>
        <time>2021-09-01T14:01:23Z</time>
      </trkpt>
      <trkpt lat="39.451429" lon="3.154048">
        <ele>144.095</ele>
        <time>2021-09-01T14:01:24Z</time>
      </trkpt>
      <trkpt lat="39.451519" lon="3.153986">
        <ele>144.049</ele>
        <time>2021-09-01T14:01:25Z</time>
      </trkpt>
      <trkpt lat="39.451600" lon="3.153915">
        <ele>144.223</ele>
        <time>2021-09-01T14:01:26Z</time>
      </trkpt>
      <trkpt lat="39.451680" lon="3.153839">
        <ele>144.408</ele>
        <time>2021-09-01T14:01:27Z</time>
      </trkpt>
      <trkpt lat="39.451755" lon="3.153756">
        <ele>144.687</ele>
        <time>2021-09-01T14:01:28Z</time>
      </trkpt>
      <trkpt lat="39.451833" lon="3.153675">
        <ele>144.691</ele>
        <time>2021-09-01T14:01:29Z</time>
      </trkpt>
      <trkpt lat="39.451912" lon="3.153596">
        <ele>144.656</ele>
        <time>2021-09-01T14:01:30Z</time>
      </trkpt>
      <trkpt lat="39.451985" lon="3.153520">
        <ele>144.330</ele>
        <time>2021-09-01T14:01:31Z</time>
      </trkpt>
      <trkpt lat="39.452064" lon="3.153459">
        <ele>143.839</ele>
        <time>2021-09-01T14:01:32Z</time>
      </trkpt>
      <trkpt lat="39.452148" lon="3.153415">
        <ele>143.234</ele>
        <time>2021-09-01T14:01:33Z</time>
      </trkpt>
      <trkpt lat="39.452230" lon="3.153387">
        <ele>143.031</ele>
        <time>2021-09-01T14:01:34Z</time>
      </trkpt>
      <trkpt lat="39.452314" lon="3.153385">
        <ele>142.731</ele>
        <time>2021-09-01T14:01:35Z</time>
      </trkpt>
      <trkpt lat="39.452399" lon="3.153391">
        <ele>142.791</ele>
        <time>2021-09-01T14:01:36Z</time>
      </trkpt>
      <trkpt lat="39.452485" lon="3.153410">
        <ele>142.881</ele>
        <time>2021-09-01T14:01:37Z</time>
      </trkpt>
      <trkpt lat="39.452569" lon="3.153449">
        <ele>142.919</ele>
        <time>2021-09-01T14:01:38Z</time>
      </trkpt>
      <trkpt lat="39.452650" lon="3.153493">
        <ele>143.008</ele>
        <time>2021-09-01T14:01:39Z</time>
      </trkpt>
      <trkpt lat="39.452726" lon="3.153537">
        <ele>143.027</ele>
        <time>2021-09-01T14:01:40Z</time>
      </trkpt>
      <trkpt lat="39.452803" lon="3.153576">
        <ele>142.941</ele>
        <time>2021-09-01T14:01:41Z</time>
      </trkpt>
      <trkpt lat="39.452874" lon="3.153619">
        <ele>142.546</ele>
        <time>2021-09-01T14:01:42Z</time>
      </trkpt>
      <trkpt lat="39.452946" lon="3.153647">
        <ele>142.080</ele>
        <time>2021-09-01T14:01:43Z</time>
      </trkpt>
      <trkpt lat="39.453026" lon="3.153666">
        <ele>141.689</ele>
        <time>2021-09-01T14:01:44Z</time>
      </trkpt>
      <trkpt lat="39.453114" lon="3.153682">
        <ele>141.184</ele>
        <time>2021-09-01T14:01:45Z</time>
      </trkpt>
      <trkpt lat="39.453198" lon="3.153688">
        <ele>140.941</ele>
        <time>2021-09-01T14:01:46Z</time>
      </trkpt>
      <trkpt lat="39.453267" lon="3.153693">
        <ele>140.671</ele>
        <time>2021-09-01T14:01:47Z</time>
      </trkpt>
      <trkpt lat="39.453320" lon="3.153693">
        <ele>140.221</ele>
        <time>2021-09-01T14:01:48Z</time>
      </trkpt>
      <trkpt lat="39.453384" lon="3.153673">
        <ele>138.641</ele>
        <time>2021-09-01T14:01:52Z</time>
      </trkpt>
      <trkpt lat="39.453378" lon="3.153592">
        <ele>138.305</ele>
        <time>2021-09-01T14:01:55Z</time>
      </trkpt>
      <trkpt lat="39.453331" lon="3.153570">
        <ele>138.308</ele>
        <time>2021-09-01T14:01:56Z</time>
      </trkpt>
      <trkpt lat="39.453266" lon="3.153586">
        <ele>138.320</ele>
        <time>2021-09-01T14:01:58Z</time>
      </trkpt>
      <trkpt lat="39.453198" lon="3.153592">
        <ele>138.424</ele>
        <time>2021-09-01T14:02:00Z</time>
      </trkpt>
      <trkpt lat="39.453117" lon="3.153583">
        <ele>138.729</ele>
        <time>2021-09-01T14:02:02Z</time>
      </trkpt>
      <trkpt lat="39.453072" lon="3.153579">
        <ele>138.853</ele>
        <time>2021-09-01T14:02:03Z</time>
      </trkpt>
      <trkpt lat="39.453027" lon="3.153573">
        <ele>139.232</ele>
        <time>2021-09-01T14:02:04Z</time>
      </trkpt>
      <trkpt lat="39.452983" lon="3.153562">
        <ele>139.397</ele>
        <time>2021-09-01T14:02:05Z</time>
      </trkpt>
      <trkpt lat="39.452900" lon="3.153530">
        <ele>139.644</ele>
        <time>2021-09-01T14:02:07Z</time>
      </trkpt>
      <trkpt lat="39.452823" lon="3.153494">
        <ele>139.974</ele>
        <time>2021-09-01T14:02:09Z</time>
      </trkpt>
      <trkpt lat="39.452746" lon="3.153472">
        <ele>140.318</ele>
        <time>2021-09-01T14:02:11Z</time>
      </trkpt>
      <trkpt lat="39.452674" lon="3.153433">
        <ele>140.798</ele>
        <time>2021-09-01T14:02:13Z</time>
      </trkpt>
      <trkpt lat="39.452598" lon="3.153394">
        <ele>141.217</ele>
        <time>2021-09-01T14:02:15Z</time>
      </trkpt>
      <trkpt lat="39.452532" lon="3.153347">
        <ele>141.608</ele>
        <time>2021-09-01T14:02:17Z</time>
      </trkpt>
      <trkpt lat="39.452459" lon="3.153304">
        <ele>142.159</ele>
        <time>2021-09-01T14:02:19Z</time>
      </trkpt>
      <trkpt lat="39.452387" lon="3.153274">
        <ele>142.523</ele>
        <time>2021-09-01T14:02:21Z</time>
      </trkpt>
      <trkpt lat="39.452327" lon="3.153219">
        <ele>142.848</ele>
        <time>2021-09-01T14:02:23Z</time>
      </trkpt>
      <trkpt lat="39.452281" lon="3.153164">
        <ele>143.052</ele>
        <time>2021-09-01T14:02:25Z</time>
      </trkpt>
      <trkpt lat="39.452282" lon="3.153089">
        <ele>143.591</ele>
        <time>2021-09-01T14:02:27Z</time>
      </trkpt>
      <trkpt lat="39.452290" lon="3.153021">
        <ele>143.786</ele>
        <time>2021-09-01T14:02:29Z</time>
      </trkpt>
      <trkpt lat="39.452295" lon="3.152954">
        <ele>143.813</ele>
        <time>2021-09-01T14:02:31Z</time>
      </trkpt>
      <trkpt lat="39.452293" lon="3.152895">
        <ele>144.233</ele>
        <time>2021-09-01T14:02:33Z</time>
      </trkpt>
      <trkpt lat="39.452298" lon="3.152822">
        <ele>144.644</ele>
        <time>2021-09-01T14:02:35Z</time>
      </trkpt>
      <trkpt lat="39.452298" lon="3.152749">
        <ele>144.905</ele>
        <time>2021-09-01T14:02:37Z</time>
      </trkpt>
      <trkpt lat="39.452281" lon="3.152686">
        <ele>145.015</ele>
        <time>2021-09-01T14:02:39Z</time>
      </trkpt>
      <trkpt lat="39.452249" lon="3.152639">
        <ele>145.208</ele>
        <time>2021-09-01T14:02:41Z</time>
      </trkpt>
      <trkpt lat="39.452197" lon="3.152609">
        <ele>145.342</ele>
        <time>2021-09-01T14:02:43Z</time>
      </trkpt>
      <trkpt lat="39.452132" lon="3.152570">
        <ele>145.396</ele>
        <time>2021-09-01T14:02:45Z</time>
      </trkpt>
      <trkpt lat="39.452063" lon="3.152540">
        <ele>145.011</ele>
        <time>2021-09-01T14:02:47Z</time>
      </trkpt>
      <trkpt lat="39.451996" lon="3.152499">
        <ele>144.965</ele>
        <time>2021-09-01T14:02:49Z</time>
      </trkpt>
      <trkpt lat="39.451929" lon="3.152468">
        <ele>144.964</ele>
        <time>2021-09-01T14:02:51Z</time>
      </trkpt>
      <trkpt lat="39.451873" lon="3.152410">
        <ele>145.079</ele>
        <time>2021-09-01T14:02:53Z</time>
      </trkpt>
      <trkpt lat="39.451832" lon="3.152335">
        <ele>145.256</ele>
        <time>2021-09-01T14:02:55Z</time>
      </trkpt>
      <trkpt lat="39.451796" lon="3.152250">
        <ele>145.246</ele>
        <time>2021-09-01T14:02:57Z</time>
      </trkpt>
      <trkpt lat="39.451760" lon="3.152181">
        <ele>145.044</ele>
        <time>2021-09-01T14:02:59Z</time>
      </trkpt>
      <trkpt lat="39.451736" lon="3.152113">
        <ele>144.705</ele>
        <time>2021-09-01T14:03:01Z</time>
      </trkpt>
      <trkpt lat="39.451701" lon="3.152029">
        <ele>144.515</ele>
        <time>2021-09-01T14:03:03Z</time>
      </trkpt>
      <trkpt lat="39.451653" lon="3.151936">
        <ele>144.308</ele>
        <time>2021-09-01T14:03:05Z</time>
      </trkpt>
      <trkpt lat="39.451629" lon="3.151878">
        <ele>144.262</ele>
        <time>2021-09-01T14:03:06Z</time>
      </trkpt>
      <trkpt lat="39.451604" lon="3.151828">
        <ele>144.196</ele>
        <time>2021-09-01T14:03:07Z</time>
      </trkpt>
      <trkpt lat="39.451583" lon="3.151765">
        <ele>144.021</ele>
        <time>2021-09-01T14:03:08Z</time>
      </trkpt>
      <trkpt lat="39.451556" lon="3.151690">
        <ele>143.765</ele>
        <time>2021-09-01T14:03:10Z</time>
      </trkpt>
      <trkpt lat="39.451541" lon="3.151604">
        <ele>142.584</ele>
        <time>2021-09-01T14:04:50Z</time>
      </trkpt>
      <trkpt lat="39.451513" lon="3.151538">
        <ele>142.519</ele>
        <time>2021-09-01T14:05:06Z</time>
      </trkpt>
      <trkpt lat="39.451507" lon="3.151463">
        <ele>142.566</ele>
        <time>2021-09-01T14:05:09Z</time>
      </trkpt>
      <trkpt lat="39.451504" lon="3.151391">
        <ele>142.426</ele>
        <time>2021-09-01T14:05:11Z</time>
      </trkpt>
      <trkpt lat="39.451490" lon="3.151316">
        <ele>142.266</ele>
        <time>2021-09-01T14:05:13Z</time>
      </trkpt>
      <trkpt lat="39.451481" lon="3.151241">
        <ele>141.729</ele>
        <time>2021-09-01T14:05:15Z</time>
      </trkpt>
      <trkpt lat="39.451472" lon="3.151180">
        <ele>141.221</ele>
        <time>2021-09-01T14:05:17Z</time>
      </trkpt>
      <trkpt lat="39.451464" lon="3.151107">
        <ele>141.008</ele>
        <time>2021-09-01T14:05:19Z</time>
      </trkpt>
      <trkpt lat="39.451438" lon="3.151042">
        <ele>141.394</ele>
        <time>2021-09-01T14:05:21Z</time>
      </trkpt>
      <trkpt lat="39.451420" lon="3.150930">
        <ele>141.888</ele>
        <time>2021-09-01T14:05:23Z</time>
      </trkpt>
      <trkpt lat="39.451397" lon="3.150817">
        <ele>142.323</ele>
        <time>2021-09-01T14:05:25Z</time>
      </trkpt>
      <trkpt lat="39.451389" lon="3.150752">
        <ele>142.437</ele>
        <time>2021-09-01T14:05:26Z</time>
      </trkpt>
      <trkpt lat="39.451359" lon="3.150695">
        <ele>142.516</ele>
        <time>2021-09-01T14:05:27Z</time>
      </trkpt>
      <trkpt lat="39.451348" lon="3.150592">
        <ele>142.551</ele>
        <time>2021-09-01T14:05:29Z</time>
      </trkpt>
      <trkpt lat="39.451336" lon="3.150528">
        <ele>142.468</ele>
        <time>2021-09-01T14:05:30Z</time>
      </trkpt>
      <trkpt lat="39.451304" lon="3.150433">
        <ele>142.088</ele>
        <time>2021-09-01T14:05:32Z</time>
      </trkpt>
      <trkpt lat="39.451285" lon="3.150323">
        <ele>141.674</ele>
        <time>2021-09-01T14:05:34Z</time>
      </trkpt>
      <trkpt lat="39.451269" lon="3.150221">
        <ele>141.356</ele>
        <time>2021-09-01T14:05:36Z</time>
      </trkpt>
      <trkpt lat="39.451242" lon="3.150106">
        <ele>141.121</ele>
        <time>2021-09-01T14:05:38Z</time>
      </trkpt>
      <trkpt lat="39.451209" lon="3.150004">
        <ele>140.808</ele>
        <time>2021-09-01T14:05:40Z</time>
      </trkpt>
      <trkpt lat="39.451189" lon="3.149902">
        <ele>140.445</ele>
        <time>2021-09-01T14:05:42Z</time>
      </trkpt>
      <trkpt lat="39.451189" lon="3.149839">
        <ele>140.279</ele>
        <time>2021-09-01T14:05:43Z</time>
      </trkpt>
      <trkpt lat="39.451179" lon="3.149775">
        <ele>140.024</ele>
        <time>2021-09-01T14:05:44Z</time>
      </trkpt>
      <trkpt lat="39.451181" lon="3.149717">
        <ele>139.948</ele>
        <time>2021-09-01T14:05:45Z</time>
      </trkpt>
      <trkpt lat="39.451191" lon="3.149608">
        <ele>139.717</ele>
        <time>2021-09-01T14:05:47Z</time>
      </trkpt>
      <trkpt lat="39.451179" lon="3.149505">
        <ele>139.682</ele>
        <time>2021-09-01T14:05:49Z</time>
      </trkpt>
      <trkpt lat="39.451160" lon="3.149406">
        <ele>139.629</ele>
        <time>2021-09-01T14:05:51Z</time>
      </trkpt>
      <trkpt lat="39.451129" lon="3.149302">
        <ele>139.729</ele>
        <time>2021-09-01T14:05:53Z</time>
      </trkpt>
      <trkpt lat="39.451098" lon="3.149208">
        <ele>139.993</ele>
        <time>2021-09-01T14:05:55Z</time>
      </trkpt>
      <trkpt lat="39.451080" lon="3.149153">
        <ele>140.165</ele>
        <time>2021-09-01T14:05:56Z</time>
      </trkpt>
      <trkpt lat="39.451063" lon="3.149091">
        <ele>140.221</ele>
        <time>2021-09-01T14:05:57Z</time>
      </trkpt>
      <trkpt lat="39.451034" lon="3.148974">
        <ele>140.208</ele>
        <time>2021-09-01T14:05:59Z</time>
      </trkpt>
      <trkpt lat="39.451014" lon="3.148895">
        <ele>140.377</ele>
        <time>2021-09-01T14:06:01Z</time>
      </trkpt>
      <trkpt lat="39.450998" lon="3.148834">
        <ele>140.381</ele>
        <time>2021-09-01T14:06:02Z</time>
      </trkpt>
      <trkpt lat="39.450984" lon="3.148766">
        <ele>140.466</ele>
        <time>2021-09-01T14:06:03Z</time>
      </trkpt>
      <trkpt lat="39.450961" lon="3.148705">
        <ele>140.670</ele>
        <time>2021-09-01T14:06:04Z</time>
      </trkpt>
      <trkpt lat="39.450929" lon="3.148604">
        <ele>140.759</ele>
        <time>2021-09-01T14:06:06Z</time>
      </trkpt>
      <trkpt lat="39.450907" lon="3.148495">
        <ele>140.684</ele>
        <time>2021-09-01T14:06:08Z</time>
      </trkpt>
      <trkpt lat="39.450906" lon="3.148419">
        <ele>140.431</ele>
        <time>2021-09-01T14:06:09Z</time>
      </trkpt>
      <trkpt lat="39.450900" lon="3.148313">
        <ele>140.031</ele>
        <time>2021-09-01T14:06:11Z</time>
      </trkpt>
      <trkpt lat="39.450905" lon="3.148239">
        <ele>139.869</ele>
        <time>2021-09-01T14:06:12Z</time>
      </trkpt>
      <trkpt lat="39.450898" lon="3.148173">
        <ele>139.604</ele>
        <time>2021-09-01T14:06:13Z</time>
      </trkpt>
      <trkpt lat="39.450896" lon="3.148057">
        <ele>139.524</ele>
        <time>2021-09-01T14:06:15Z</time>
      </trkpt>
      <trkpt lat="39.450904" lon="3.147990">
        <ele>139.408</ele>
        <time>2021-09-01T14:06:16Z</time>
      </trkpt>
      <trkpt lat="39.450911" lon="3.147929">
        <ele>139.434</ele>
        <time>2021-09-01T14:06:17Z</time>
      </trkpt>
      <trkpt lat="39.450908" lon="3.147865">
        <ele>139.338</ele>
        <time>2021-09-01T14:06:18Z</time>
      </trkpt>
      <trkpt lat="39.450898" lon="3.147748">
        <ele>139.083</ele>
        <time>2021-09-01T14:06:20Z</time>
      </trkpt>
      <trkpt lat="39.450896" lon="3.147681">
        <ele>138.817</ele>
        <time>2021-09-01T14:06:21Z</time>
      </trkpt>
      <trkpt lat="39.450907" lon="3.147609">
        <ele>138.716</ele>
        <time>2021-09-01T14:06:22Z</time>
      </trkpt>
      <trkpt lat="39.450915" lon="3.147549">
        <ele>138.571</ele>
        <time>2021-09-01T14:06:23Z</time>
      </trkpt>
      <trkpt lat="39.450925" lon="3.147487">
        <ele>138.438</ele>
        <time>2021-09-01T14:06:24Z</time>
      </trkpt>
      <trkpt lat="39.450953" lon="3.147368">
        <ele>138.218</ele>
        <time>2021-09-01T14:06:26Z</time>
      </trkpt>
      <trkpt lat="39.450975" lon="3.147301">
        <ele>138.015</ele>
        <time>2021-09-01T14:06:27Z</time>
      </trkpt>
      <trkpt lat="39.450997" lon="3.147238">
        <ele>137.965</ele>
        <time>2021-09-01T14:06:28Z</time>
      </trkpt>
      <trkpt lat="39.451021" lon="3.147184">
        <ele>137.711</ele>
        <time>2021-09-01T14:06:29Z</time>
      </trkpt>
      <trkpt lat="39.451050" lon="3.147129">
        <ele>137.608</ele>
        <time>2021-09-01T14:06:30Z</time>
      </trkpt>
      <trkpt lat="39.451080" lon="3.147063">
        <ele>137.689</ele>
        <time>2021-09-01T14:06:31Z</time>
      </trkpt>
      <trkpt lat="39.451101" lon="3.146994">
        <ele>137.523</ele>
        <time>2021-09-01T14:06:32Z</time>
      </trkpt>
      <trkpt lat="39.451126" lon="3.146933">
        <ele>137.438</ele>
        <time>2021-09-01T14:06:33Z</time>
      </trkpt>
      <trkpt lat="39.451146" lon="3.146877">
        <ele>137.452</ele>
        <time>2021-09-01T14:06:34Z</time>
      </trkpt>
      <trkpt lat="39.451156" lon="3.146807">
        <ele>137.291</ele>
        <time>2021-09-01T14:06:35Z</time>
      </trkpt>
      <trkpt lat="39.451151" lon="3.146741">
        <ele>137.046</ele>
        <time>2021-09-01T14:06:36Z</time>
      </trkpt>
      <trkpt lat="39.451141" lon="3.146678">
        <ele>136.943</ele>
        <time>2021-09-01T14:06:37Z</time>
      </trkpt>
      <trkpt lat="39.451137" lon="3.146600">
        <ele>136.793</ele>
        <time>2021-09-01T14:06:38Z</time>
      </trkpt>
      <trkpt lat="39.451139" lon="3.146524">
        <ele>136.542</ele>
        <time>2021-09-01T14:06:39Z</time>
      </trkpt>
      <trkpt lat="39.451142" lon="3.146437">
        <ele>136.422</ele>
        <time>2021-09-01T14:06:40Z</time>
      </trkpt>
      <trkpt lat="39.451133" lon="3.146362">
        <ele>136.314</ele>
        <time>2021-09-01T14:06:41Z</time>
      </trkpt>
      <trkpt lat="39.451121" lon="3.146270">
        <ele>136.208</ele>
        <time>2021-09-01T14:06:42Z</time>
      </trkpt>
      <trkpt lat="39.451118" lon="3.146192">
        <ele>136.022</ele>
        <time>2021-09-01T14:06:43Z</time>
      </trkpt>
      <trkpt lat="39.451134" lon="3.146119">
        <ele>135.736</ele>
        <time>2021-09-01T14:06:44Z</time>
      </trkpt>
      <trkpt lat="39.451136" lon="3.145996">
        <ele>135.141</ele>
        <time>2021-09-01T14:06:46Z</time>
      </trkpt>
      <trkpt lat="39.451140" lon="3.145934">
        <ele>134.845</ele>
        <time>2021-09-01T14:06:47Z</time>
      </trkpt>
      <trkpt lat="39.451138" lon="3.145868">
        <ele>134.244</ele>
        <time>2021-09-01T14:06:49Z</time>
      </trkpt>
      <trkpt lat="39.451059" lon="3.145843">
        <ele>133.979</ele>
        <time>2021-09-01T14:06:51Z</time>
      </trkpt>
      <trkpt lat="39.451007" lon="3.145846">
        <ele>133.656</ele>
        <time>2021-09-01T14:06:52Z</time>
      </trkpt>
      <trkpt lat="39.450959" lon="3.145838">
        <ele>133.326</ele>
        <time>2021-09-01T14:06:53Z</time>
      </trkpt>
      <trkpt lat="39.450908" lon="3.145827">
        <ele>133.142</ele>
        <time>2021-09-01T14:06:54Z</time>
      </trkpt>
      <trkpt lat="39.450843" lon="3.145813">
        <ele>132.822</ele>
        <time>2021-09-01T14:06:55Z</time>
      </trkpt>
      <trkpt lat="39.450781" lon="3.145797">
        <ele>132.614</ele>
        <time>2021-09-01T14:06:56Z</time>
      </trkpt>
      <trkpt lat="39.450722" lon="3.145794">
        <ele>132.608</ele>
        <time>2021-09-01T14:06:57Z</time>
      </trkpt>
      <trkpt lat="39.450666" lon="3.145780">
        <ele>132.622</ele>
        <time>2021-09-01T14:06:58Z</time>
      </trkpt>
      <trkpt lat="39.450603" lon="3.145764">
        <ele>132.756</ele>
        <time>2021-09-01T14:06:59Z</time>
      </trkpt>
      <trkpt lat="39.450547" lon="3.145761">
        <ele>132.711</ele>
        <time>2021-09-01T14:07:00Z</time>
      </trkpt>
      <trkpt lat="39.450492" lon="3.145746">
        <ele>132.785</ele>
        <time>2021-09-01T14:07:01Z</time>
      </trkpt>
      <trkpt lat="39.450433" lon="3.145727">
        <ele>132.554</ele>
        <time>2021-09-01T14:07:02Z</time>
      </trkpt>
      <trkpt lat="39.450390" lon="3.145700">
        <ele>132.369</ele>
        <time>2021-09-01T14:07:03Z</time>
      </trkpt>
      <trkpt lat="39.450354" lon="3.145665">
        <ele>131.956</ele>
        <time>2021-09-01T14:07:04Z</time>
      </trkpt>
      <trkpt lat="39.450310" lon="3.145612">
        <ele>131.626</ele>
        <time>2021-09-01T14:07:05Z</time>
      </trkpt>
      <trkpt lat="39.450277" lon="3.145550">
        <ele>131.561</ele>
        <time>2021-09-01T14:07:06Z</time>
      </trkpt>
      <trkpt lat="39.450248" lon="3.145470">
        <ele>131.321</ele>
        <time>2021-09-01T14:07:07Z</time>
      </trkpt>
      <trkpt lat="39.450226" lon="3.145414">
        <ele>131.313</ele>
        <time>2021-09-01T14:07:08Z</time>
      </trkpt>
      <trkpt lat="39.450211" lon="3.145343">
        <ele>131.308</ele>
        <time>2021-09-01T14:07:09Z</time>
      </trkpt>
      <trkpt lat="39.450199" lon="3.145263">
        <ele>131.344</ele>
        <time>2021-09-01T14:07:10Z</time>
      </trkpt>
      <trkpt lat="39.450176" lon="3.145181">
        <ele>131.248</ele>
        <time>2021-09-01T14:07:11Z</time>
      </trkpt>
      <trkpt lat="39.450156" lon="3.145098">
        <ele>130.983</ele>
        <time>2021-09-01T14:07:12Z</time>
      </trkpt>
      <trkpt lat="39.450140" lon="3.145017">
        <ele>130.497</ele>
        <time>2021-09-01T14:07:13Z</time>
      </trkpt>
      <trkpt lat="39.450122" lon="3.144943">
        <ele>129.986</ele>
        <time>2021-09-01T14:07:14Z</time>
      </trkpt>
      <trkpt lat="39.450098" lon="3.144874">
        <ele>129.231</ele>
        <time>2021-09-01T14:07:15Z</time>
      </trkpt>
      <trkpt lat="39.450064" lon="3.144795">
        <ele>128.858</ele>
        <time>2021-09-01T14:07:16Z</time>
      </trkpt>
      <trkpt lat="39.450033" lon="3.144721">
        <ele>128.548</ele>
        <time>2021-09-01T14:07:17Z</time>
      </trkpt>
      <trkpt lat="39.449994" lon="3.144652">
        <ele>128.469</ele>
        <time>2021-09-01T14:07:18Z</time>
      </trkpt>
      <trkpt lat="39.449950" lon="3.144587">
        <ele>128.404</ele>
        <time>2021-09-01T14:07:19Z</time>
      </trkpt>
      <trkpt lat="39.449892" lon="3.144534">
        <ele>128.424</ele>
        <time>2021-09-01T14:07:20Z</time>
      </trkpt>
      <trkpt lat="39.449843" lon="3.144490">
        <ele>128.608</ele>
        <time>2021-09-01T14:07:21Z</time>
      </trkpt>
      <trkpt lat="39.449794" lon="3.144445">
        <ele>128.684</ele>
        <time>2021-09-01T14:07:22Z</time>
      </trkpt>
      <trkpt lat="39.449754" lon="3.144404">
        <ele>128.728</ele>
        <time>2021-09-01T14:07:23Z</time>
      </trkpt>
      <trkpt lat="39.449716" lon="3.144366">
        <ele>128.853</ele>
        <time>2021-09-01T14:07:24Z</time>
      </trkpt>
      <trkpt lat="39.449678" lon="3.144328">
        <ele>128.837</ele>
        <time>2021-09-01T14:07:42Z</time>
      </trkpt>
      <trkpt lat="39.449698" lon="3.144267">
        <ele>128.396</ele>
        <time>2021-09-01T14:08:01Z</time>
      </trkpt>
      <trkpt lat="39.449711" lon="3.144191">
        <ele>127.811</ele>
        <time>2021-09-01T14:08:14Z</time>
      </trkpt>
      <trkpt lat="39.449711" lon="3.144115">
        <ele>127.798</ele>
        <time>2021-09-01T14:08:16Z</time>
      </trkpt>
      <trkpt lat="39.449726" lon="3.144038">
        <ele>127.468</ele>
        <time>2021-09-01T14:08:18Z</time>
      </trkpt>
      <trkpt lat="39.449754" lon="3.143943">
        <ele>127.158</ele>
        <time>2021-09-01T14:08:20Z</time>
      </trkpt>
      <trkpt lat="39.449765" lon="3.143886">
        <ele>126.852</ele>
        <time>2021-09-01T14:08:21Z</time>
      </trkpt>
      <trkpt lat="39.449785" lon="3.143777">
        <ele>126.417</ele>
        <time>2021-09-01T14:08:23Z</time>
      </trkpt>
      <trkpt lat="39.449795" lon="3.143720">
        <ele>126.208</ele>
        <time>2021-09-01T14:08:24Z</time>
      </trkpt>
      <trkpt lat="39.449806" lon="3.143616">
        <ele>125.973</ele>
        <time>2021-09-01T14:08:26Z</time>
      </trkpt>
      <trkpt lat="39.449836" lon="3.143566">
        <ele>125.857</ele>
        <time>2021-09-01T14:08:27Z</time>
      </trkpt>
      <trkpt lat="39.449866" lon="3.143520">
        <ele>125.772</ele>
        <time>2021-09-01T14:08:28Z</time>
      </trkpt>
      <trkpt lat="39.449938" lon="3.143482">
        <ele>125.466</ele>
        <time>2021-09-01T14:08:30Z</time>
      </trkpt>
      <trkpt lat="39.450008" lon="3.143478">
        <ele>125.495</ele>
        <time>2021-09-01T14:08:32Z</time>
      </trkpt>
      <trkpt lat="39.450063" lon="3.143472">
        <ele>125.440</ele>
        <time>2021-09-01T14:08:34Z</time>
      </trkpt>
      <trkpt lat="39.450129" lon="3.143478">
        <ele>125.447</ele>
        <time>2021-09-01T14:08:36Z</time>
      </trkpt>
      <trkpt lat="39.450195" lon="3.143436">
        <ele>125.787</ele>
        <time>2021-09-01T14:08:38Z</time>
      </trkpt>
      <trkpt lat="39.450239" lon="3.143378">
        <ele>126.345</ele>
        <time>2021-09-01T14:08:41Z</time>
      </trkpt>
      <trkpt lat="39.450256" lon="3.143296">
        <ele>126.747</ele>
        <time>2021-09-01T14:08:44Z</time>
      </trkpt>
      <trkpt lat="39.450290" lon="3.143220">
        <ele>127.311</ele>
        <time>2021-09-01T14:08:47Z</time>
      </trkpt>
      <trkpt lat="39.450317" lon="3.143160">
        <ele>127.908</ele>
        <time>2021-09-01T14:08:50Z</time>
      </trkpt>
      <trkpt lat="39.450330" lon="3.143096">
        <ele>128.762</ele>
        <time>2021-09-01T14:08:53Z</time>
      </trkpt>
      <trkpt lat="39.450321" lon="3.143024">
        <ele>129.166</ele>
        <time>2021-09-01T14:08:55Z</time>
      </trkpt>
      <trkpt lat="39.450323" lon="3.142950">
        <ele>129.471</ele>
        <time>2021-09-01T14:08:57Z</time>
      </trkpt>
      <trkpt lat="39.450353" lon="3.142874">
        <ele>129.585</ele>
        <time>2021-09-01T14:08:59Z</time>
      </trkpt>
      <trkpt lat="39.450364" lon="3.142807">
        <ele>129.664</ele>
        <time>2021-09-01T14:09:01Z</time>
      </trkpt>
      <trkpt lat="39.450386" lon="3.142703">
        <ele>129.629</ele>
        <time>2021-09-01T14:09:03Z</time>
      </trkpt>
      <trkpt lat="39.450405" lon="3.142607">
        <ele>129.546</ele>
        <time>2021-09-01T14:09:05Z</time>
      </trkpt>
      <trkpt lat="39.450419" lon="3.142517">
        <ele>129.446</ele>
        <time>2021-09-01T14:09:07Z</time>
      </trkpt>
      <trkpt lat="39.450441" lon="3.142459">
        <ele>129.389</ele>
        <time>2021-09-01T14:09:08Z</time>
      </trkpt>
      <trkpt lat="39.450466" lon="3.142407">
        <ele>129.206</ele>
        <time>2021-09-01T14:09:09Z</time>
      </trkpt>
      <trkpt lat="39.450507" lon="3.142337">
        <ele>129.126</ele>
        <time>2021-09-01T14:09:11Z</time>
      </trkpt>
      <trkpt lat="39.450528" lon="3.142260">
        <ele>128.908</ele>
        <time>2021-09-01T14:09:13Z</time>
      </trkpt>
      <trkpt lat="39.450559" lon="3.142195">
        <ele>128.826</ele>
        <time>2021-09-01T14:09:15Z</time>
      </trkpt>
      <trkpt lat="39.450560" lon="3.142123">
        <ele>128.720</ele>
        <time>2021-09-01T14:09:17Z</time>
      </trkpt>
      <trkpt lat="39.450589" lon="3.142039">
        <ele>128.595</ele>
        <time>2021-09-01T14:09:19Z</time>
      </trkpt>
      <trkpt lat="39.450588" lon="3.141936">
        <ele>128.469</ele>
        <time>2021-09-01T14:09:21Z</time>
      </trkpt>
      <trkpt lat="39.450584" lon="3.141828">
        <ele>128.118</ele>
        <time>2021-09-01T14:09:23Z</time>
      </trkpt>
      <trkpt lat="39.450601" lon="3.141768">
        <ele>127.923</ele>
        <time>2021-09-01T14:09:24Z</time>
      </trkpt>
      <trkpt lat="39.450621" lon="3.141709">
        <ele>127.750</ele>
        <time>2021-09-01T14:09:25Z</time>
      </trkpt>
      <trkpt lat="39.450638" lon="3.141653">
        <ele>127.660</ele>
        <time>2021-09-01T14:09:26Z</time>
      </trkpt>
      <trkpt lat="39.450672" lon="3.141556">
        <ele>127.519</ele>
        <time>2021-09-01T14:09:28Z</time>
      </trkpt>
      <trkpt lat="39.450692" lon="3.141497">
        <ele>127.509</ele>
        <time>2021-09-01T14:09:29Z</time>
      </trkpt>
      <trkpt lat="39.450724" lon="3.141398">
        <ele>127.319</ele>
        <time>2021-09-01T14:09:31Z</time>
      </trkpt>
      <trkpt lat="39.450756" lon="3.141289">
        <ele>126.708</ele>
        <time>2021-09-01T14:09:33Z</time>
      </trkpt>
      <trkpt lat="39.450781" lon="3.141235">
        <ele>126.449</ele>
        <time>2021-09-01T14:09:34Z</time>
      </trkpt>
      <trkpt lat="39.450803" lon="3.141169">
        <ele>126.213</ele>
        <time>2021-09-01T14:09:35Z</time>
      </trkpt>
      <trkpt lat="39.450817" lon="3.141105">
        <ele>126.148</ele>
        <time>2021-09-01T14:09:36Z</time>
      </trkpt>
      <trkpt lat="39.450826" lon="3.141036">
        <ele>126.172</ele>
        <time>2021-09-01T14:09:37Z</time>
      </trkpt>
      <trkpt lat="39.450834" lon="3.140968">
        <ele>126.081</ele>
        <time>2021-09-01T14:09:38Z</time>
      </trkpt>
      <trkpt lat="39.450845" lon="3.140903">
        <ele>125.846</ele>
        <time>2021-09-01T14:09:39Z</time>
      </trkpt>
      <trkpt lat="39.450863" lon="3.140842">
        <ele>125.693</ele>
        <time>2021-09-01T14:09:40Z</time>
      </trkpt>
      <trkpt lat="39.450880" lon="3.140774">
        <ele>125.513</ele>
        <time>2021-09-01T14:09:41Z</time>
      </trkpt>
      <trkpt lat="39.450896" lon="3.140708">
        <ele>125.356</ele>
        <time>2021-09-01T14:09:42Z</time>
      </trkpt>
      <trkpt lat="39.450919" lon="3.140646">
        <ele>125.259</ele>
        <time>2021-09-01T14:09:43Z</time>
      </trkpt>
      <trkpt lat="39.450930" lon="3.140578">
        <ele>125.114</ele>
        <time>2021-09-01T14:09:44Z</time>
      </trkpt>
      <trkpt lat="39.450942" lon="3.140513">
        <ele>125.008</ele>
        <time>2021-09-01T14:09:45Z</time>
      </trkpt>
      <trkpt lat="39.450957" lon="3.140457">
        <ele>124.963</ele>
        <time>2021-09-01T14:09:46Z</time>
      </trkpt>
      <trkpt lat="39.450953" lon="3.140381">
        <ele>124.887</ele>
        <time>2021-09-01T14:09:47Z</time>
      </trkpt>
      <trkpt lat="39.450968" lon="3.140317">
        <ele>124.872</ele>
        <time>2021-09-01T14:09:48Z</time>
      </trkpt>
      <trkpt lat="39.450981" lon="3.140245">
        <ele>124.626</ele>
        <time>2021-09-01T14:09:49Z</time>
      </trkpt>
      <trkpt lat="39.450985" lon="3.140164">
        <ele>124.655</ele>
        <time>2021-09-01T14:09:50Z</time>
      </trkpt>
      <trkpt lat="39.450983" lon="3.140098">
        <ele>124.610</ele>
        <time>2021-09-01T14:09:51Z</time>
      </trkpt>
      <trkpt lat="39.450985" lon="3.140033">
        <ele>124.517</ele>
        <time>2021-09-01T14:09:52Z</time>
      </trkpt>
      <trkpt lat="39.450995" lon="3.139967">
        <ele>124.567</ele>
        <time>2021-09-01T14:09:53Z</time>
      </trkpt>
      <trkpt lat="39.451009" lon="3.139853">
        <ele>124.584</ele>
        <time>2021-09-01T14:09:55Z</time>
      </trkpt>
      <trkpt lat="39.451026" lon="3.139796">
        <ele>124.507</ele>
        <time>2021-09-01T14:09:56Z</time>
      </trkpt>
      <trkpt lat="39.451043" lon="3.139736">
        <ele>124.517</ele>
        <time>2021-09-01T14:09:57Z</time>
      </trkpt>
      <trkpt lat="39.451046" lon="3.139677">
        <ele>124.608</ele>
        <time>2021-09-01T14:09:58Z</time>
      </trkpt>
      <trkpt lat="39.451058" lon="3.139576">
        <ele>124.696</ele>
        <time>2021-09-01T14:10:00Z</time>
      </trkpt>
      <trkpt lat="39.451067" lon="3.139479">
        <ele>124.790</ele>
        <time>2021-09-01T14:10:02Z</time>
      </trkpt>
      <trkpt lat="39.451089" lon="3.139381">
        <ele>124.775</ele>
        <time>2021-09-01T14:10:04Z</time>
      </trkpt>
      <trkpt lat="39.451090" lon="3.139317">
        <ele>124.669</ele>
        <time>2021-09-01T14:10:05Z</time>
      </trkpt>
      <trkpt lat="39.451094" lon="3.139212">
        <ele>124.498</ele>
        <time>2021-09-01T14:10:07Z</time>
      </trkpt>
      <trkpt lat="39.451114" lon="3.139138">
        <ele>123.833</ele>
        <time>2021-09-01T14:10:09Z</time>
      </trkpt>
      <trkpt lat="39.451093" lon="3.139079">
        <ele>123.440</ele>
        <time>2021-09-01T14:10:11Z</time>
      </trkpt>
      <trkpt lat="39.451035" lon="3.139026">
        <ele>122.870</ele>
        <time>2021-09-01T14:10:13Z</time>
      </trkpt>
      <trkpt lat="39.450964" lon="3.138962">
        <ele>122.649</ele>
        <time>2021-09-01T14:10:15Z</time>
      </trkpt>
      <trkpt lat="39.450884" lon="3.138897">
        <ele>122.402</ele>
        <time>2021-09-01T14:10:17Z</time>
      </trkpt>
      <trkpt lat="39.450840" lon="3.138846">
        <ele>122.322</ele>
        <time>2021-09-01T14:10:18Z</time>
      </trkpt>
      <trkpt lat="39.450793" lon="3.138791">
        <ele>122.108</ele>
        <time>2021-09-01T14:10:19Z</time>
      </trkpt>
      <trkpt lat="39.450745" lon="3.138744">
        <ele>121.912</ele>
        <time>2021-09-01T14:10:20Z</time>
      </trkpt>
      <trkpt lat="39.450698" lon="3.138682">
        <ele>121.676</ele>
        <time>2021-09-01T14:10:21Z</time>
      </trkpt>
      <trkpt lat="39.450645" lon="3.138624">
        <ele>121.371</ele>
        <time>2021-09-01T14:10:22Z</time>
      </trkpt>
      <trkpt lat="39.450595" lon="3.138572">
        <ele>121.125</ele>
        <time>2021-09-01T14:10:23Z</time>
      </trkpt>
      <trkpt lat="39.450544" lon="3.138500">
        <ele>121.014</ele>
        <time>2021-09-01T14:10:24Z</time>
      </trkpt>
      <trkpt lat="39.450492" lon="3.138437">
        <ele>120.899</ele>
        <time>2021-09-01T14:10:25Z</time>
      </trkpt>
      <trkpt lat="39.450439" lon="3.138377">
        <ele>120.686</ele>
        <time>2021-09-01T14:10:26Z</time>
      </trkpt>
      <trkpt lat="39.450380" lon="3.138313">
        <ele>120.256</ele>
        <time>2021-09-01T14:10:27Z</time>
      </trkpt>
      <trkpt lat="39.450330" lon="3.138247">
        <ele>119.816</ele>
        <time>2021-09-01T14:10:28Z</time>
      </trkpt>
      <trkpt lat="39.450272" lon="3.138171">
        <ele>119.476</ele>
        <time>2021-09-01T14:10:29Z</time>
      </trkpt>
      <trkpt lat="39.450219" lon="3.138110">
        <ele>118.913</ele>
        <time>2021-09-01T14:10:30Z</time>
      </trkpt>
      <trkpt lat="39.450163" lon="3.138037">
        <ele>118.608</ele>
        <time>2021-09-01T14:10:31Z</time>
      </trkpt>
      <trkpt lat="39.450106" lon="3.137975">
        <ele>118.389</ele>
        <time>2021-09-01T14:10:32Z</time>
      </trkpt>
      <trkpt lat="39.450049" lon="3.137918">
        <ele>118.063</ele>
        <time>2021-09-01T14:10:33Z</time>
      </trkpt>
      <trkpt lat="39.449997" lon="3.137853">
        <ele>117.948</ele>
        <time>2021-09-01T14:10:34Z</time>
      </trkpt>
      <trkpt lat="39.449942" lon="3.137795">
        <ele>117.912</ele>
        <time>2021-09-01T14:10:35Z</time>
      </trkpt>
      <trkpt lat="39.449894" lon="3.137731">
        <ele>117.811</ele>
        <time>2021-09-01T14:10:36Z</time>
      </trkpt>
      <trkpt lat="39.449843" lon="3.137661">
        <ele>117.776</ele>
        <time>2021-09-01T14:10:37Z</time>
      </trkpt>
      <trkpt lat="39.449789" lon="3.137598">
        <ele>117.713</ele>
        <time>2021-09-01T14:10:38Z</time>
      </trkpt>
      <trkpt lat="39.449741" lon="3.137539">
        <ele>117.763</ele>
        <time>2021-09-01T14:10:39Z</time>
      </trkpt>
      <trkpt lat="39.449704" lon="3.137480">
        <ele>117.676</ele>
        <time>2021-09-01T14:10:40Z</time>
      </trkpt>
      <trkpt lat="39.449653" lon="3.137430">
        <ele>117.690</ele>
        <time>2021-09-01T14:10:41Z</time>
      </trkpt>
      <trkpt lat="39.449605" lon="3.137370">
        <ele>117.619</ele>
        <time>2021-09-01T14:10:42Z</time>
      </trkpt>
      <trkpt lat="39.449567" lon="3.137313">
        <ele>117.608</ele>
        <time>2021-09-01T14:10:43Z</time>
      </trkpt>
      <trkpt lat="39.449536" lon="3.137244">
        <ele>117.825</ele>
        <time>2021-09-01T14:10:44Z</time>
      </trkpt>
      <trkpt lat="39.449514" lon="3.137176">
        <ele>117.919</ele>
        <time>2021-09-01T14:10:45Z</time>
      </trkpt>
      <trkpt lat="39.449490" lon="3.137114">
        <ele>118.134</ele>
        <time>2021-09-01T14:10:46Z</time>
      </trkpt>
      <trkpt lat="39.449469" lon="3.137053">
        <ele>118.388</ele>
        <time>2021-09-01T14:10:47Z</time>
      </trkpt>
      <trkpt lat="39.449442" lon="3.137006">
        <ele>118.667</ele>
        <time>2021-09-01T14:10:48Z</time>
      </trkpt>
      <trkpt lat="39.449418" lon="3.136949">
        <ele>118.712</ele>
        <time>2021-09-01T14:10:49Z</time>
      </trkpt>
      <trkpt lat="39.449394" lon="3.136896">
        <ele>118.979</ele>
        <time>2021-09-01T14:10:50Z</time>
      </trkpt>
      <trkpt lat="39.449336" lon="3.136807">
        <ele>119.329</ele>
        <time>2021-09-01T14:10:52Z</time>
      </trkpt>
      <trkpt lat="39.449277" lon="3.136726">
        <ele>119.514</ele>
        <time>2021-09-01T14:10:54Z</time>
      </trkpt>
      <trkpt lat="39.449241" lon="3.136673">
        <ele>119.754</ele>
        <time>2021-09-01T14:10:55Z</time>
      </trkpt>
      <trkpt lat="39.449206" lon="3.136630">
        <ele>119.909</ele>
        <time>2021-09-01T14:10:56Z</time>
      </trkpt>
      <trkpt lat="39.449135" lon="3.136555">
        <ele>120.408</ele>
        <time>2021-09-01T14:10:58Z</time>
      </trkpt>
      <trkpt lat="39.449102" lon="3.136513">
        <ele>120.679</ele>
        <time>2021-09-01T14:10:59Z</time>
      </trkpt>
      <trkpt lat="39.449065" lon="3.136471">
        <ele>120.863</ele>
        <time>2021-09-01T14:11:00Z</time>
      </trkpt>
      <trkpt lat="39.449027" lon="3.136432">
        <ele>120.978</ele>
        <time>2021-09-01T14:11:01Z</time>
      </trkpt>
      <trkpt lat="39.448985" lon="3.136392">
        <ele>121.082</ele>
        <time>2021-09-01T14:11:02Z</time>
      </trkpt>
      <trkpt lat="39.448944" lon="3.136353">
        <ele>121.091</ele>
        <time>2021-09-01T14:11:03Z</time>
      </trkpt>
      <trkpt lat="39.448901" lon="3.136312">
        <ele>121.036</ele>
        <time>2021-09-01T14:11:04Z</time>
      </trkpt>
      <trkpt lat="39.448873" lon="3.136266">
        <ele>121.063</ele>
        <time>2021-09-01T14:11:05Z</time>
      </trkpt>
      <trkpt lat="39.448853" lon="3.136209">
        <ele>121.063</ele>
        <time>2021-09-01T14:11:06Z</time>
      </trkpt>
      <trkpt lat="39.448849" lon="3.136150">
        <ele>121.076</ele>
        <time>2021-09-01T14:11:07Z</time>
      </trkpt>
      <trkpt lat="39.448825" lon="3.136058">
        <ele>121.290</ele>
        <time>2021-09-01T14:11:09Z</time>
      </trkpt>
      <trkpt lat="39.448774" lon="3.135967">
        <ele>121.319</ele>
        <time>2021-09-01T14:11:11Z</time>
      </trkpt>
      <trkpt lat="39.448740" lon="3.135926">
        <ele>121.408</ele>
        <time>2021-09-01T14:11:12Z</time>
      </trkpt>
      <trkpt lat="39.448700" lon="3.135879">
        <ele>121.595</ele>
        <time>2021-09-01T14:11:13Z</time>
      </trkpt>
      <trkpt lat="39.448620" lon="3.135813">
        <ele>121.539</ele>
        <time>2021-09-01T14:11:15Z</time>
      </trkpt>
      <trkpt lat="39.448581" lon="3.135774">
        <ele>121.594</ele>
        <time>2021-09-01T14:11:16Z</time>
      </trkpt>
      <trkpt lat="39.448541" lon="3.135737">
        <ele>121.518</ele>
        <time>2021-09-01T14:11:17Z</time>
      </trkpt>
      <trkpt lat="39.448504" lon="3.135684">
        <ele>121.577</ele>
        <time>2021-09-01T14:11:18Z</time>
      </trkpt>
      <trkpt lat="39.448466" lon="3.135633">
        <ele>121.562</ele>
        <time>2021-09-01T14:11:19Z</time>
      </trkpt>
      <trkpt lat="39.448429" lon="3.135576">
        <ele>121.589</ele>
        <time>2021-09-01T14:11:20Z</time>
      </trkpt>
      <trkpt lat="39.448386" lon="3.135530">
        <ele>121.589</ele>
        <time>2021-09-01T14:11:21Z</time>
      </trkpt>
      <trkpt lat="39.448341" lon="3.135487">
        <ele>121.574</ele>
        <time>2021-09-01T14:11:22Z</time>
      </trkpt>
      <trkpt lat="39.448300" lon="3.135440">
        <ele>121.556</ele>
        <time>2021-09-01T14:11:23Z</time>
      </trkpt>
      <trkpt lat="39.448254" lon="3.135395">
        <ele>121.421</ele>
        <time>2021-09-01T14:11:24Z</time>
      </trkpt>
      <trkpt lat="39.448211" lon="3.135351">
        <ele>121.308</ele>
        <time>2021-09-01T14:11:25Z</time>
      </trkpt>
      <trkpt lat="39.448170" lon="3.135303">
        <ele>121.395</ele>
        <time>2021-09-01T14:11:26Z</time>
      </trkpt>
      <trkpt lat="39.448124" lon="3.135269">
        <ele>121.389</ele>
        <time>2021-09-01T14:11:27Z</time>
      </trkpt>
      <trkpt lat="39.448077" lon="3.135236">
        <ele>121.274</ele>
        <time>2021-09-01T14:11:28Z</time>
      </trkpt>
      <trkpt lat="39.448036" lon="3.135192">
        <ele>121.228</ele>
        <time>2021-09-01T14:11:29Z</time>
      </trkpt>
      <trkpt lat="39.447996" lon="3.135148">
        <ele>121.247</ele>
        <time>2021-09-01T14:11:30Z</time>
      </trkpt>
      <trkpt lat="39.447961" lon="3.135109">
        <ele>121.252</ele>
        <time>2021-09-01T14:11:31Z</time>
      </trkpt>
      <trkpt lat="39.447888" lon="3.135042">
        <ele>120.989</ele>
        <time>2021-09-01T14:11:33Z</time>
      </trkpt>
      <trkpt lat="39.447842" lon="3.134994">
        <ele>120.889</ele>
        <time>2021-09-01T14:11:34Z</time>
      </trkpt>
      <trkpt lat="39.447810" lon="3.134952">
        <ele>120.775</ele>
        <time>2021-09-01T14:11:35Z</time>
      </trkpt>
      <trkpt lat="39.447747" lon="3.134854">
        <ele>120.528</ele>
        <time>2021-09-01T14:11:37Z</time>
      </trkpt>
      <trkpt lat="39.447717" lon="3.134797">
        <ele>120.520</ele>
        <time>2021-09-01T14:11:38Z</time>
      </trkpt>
      <trkpt lat="39.447686" lon="3.134742">
        <ele>120.508</ele>
        <time>2021-09-01T14:11:39Z</time>
      </trkpt>
      <trkpt lat="39.447653" lon="3.134683">
        <ele>120.445</ele>
        <time>2021-09-01T14:11:40Z</time>
      </trkpt>
      <trkpt lat="39.447621" lon="3.134625">
        <ele>120.489</ele>
        <time>2021-09-01T14:11:41Z</time>
      </trkpt>
      <trkpt lat="39.447585" lon="3.134566">
        <ele>120.314</ele>
        <time>2021-09-01T14:11:42Z</time>
      </trkpt>
      <trkpt lat="39.447553" lon="3.134514">
        <ele>120.318</ele>
        <time>2021-09-01T14:11:43Z</time>
      </trkpt>
      <trkpt lat="39.447524" lon="3.134458">
        <ele>120.287</ele>
        <time>2021-09-01T14:11:44Z</time>
      </trkpt>
      <trkpt lat="39.447490" lon="3.134404">
        <ele>120.182</ele>
        <time>2021-09-01T14:11:45Z</time>
      </trkpt>
      <trkpt lat="39.447450" lon="3.134348">
        <ele>120.099</ele>
        <time>2021-09-01T14:11:46Z</time>
      </trkpt>
      <trkpt lat="39.447414" lon="3.134288">
        <ele>119.839</ele>
        <time>2021-09-01T14:11:47Z</time>
      </trkpt>
      <trkpt lat="39.447377" lon="3.134224">
        <ele>119.721</ele>
        <time>2021-09-01T14:11:48Z</time>
      </trkpt>
      <trkpt lat="39.447346" lon="3.134165">
        <ele>119.641</ele>
        <time>2021-09-01T14:11:49Z</time>
      </trkpt>
      <trkpt lat="39.447317" lon="3.134110">
        <ele>119.505</ele>
        <time>2021-09-01T14:11:50Z</time>
      </trkpt>
      <trkpt lat="39.447300" lon="3.134049">
        <ele>119.408</ele>
        <time>2021-09-01T14:11:51Z</time>
      </trkpt>
      <trkpt lat="39.447280" lon="3.133964">
        <ele>119.420</ele>
        <time>2021-09-01T14:11:52Z</time>
      </trkpt>
      <trkpt lat="39.447253" lon="3.133880">
        <ele>119.374</ele>
        <time>2021-09-01T14:11:53Z</time>
      </trkpt>
      <trkpt lat="39.447216" lon="3.133803">
        <ele>119.249</ele>
        <time>2021-09-01T14:11:54Z</time>
      </trkpt>
      <trkpt lat="39.447177" lon="3.133740">
        <ele>119.173</ele>
        <time>2021-09-01T14:11:55Z</time>
      </trkpt>
      <trkpt lat="39.447141" lon="3.133671">
        <ele>119.182</ele>
        <time>2021-09-01T14:11:56Z</time>
      </trkpt>
      <trkpt lat="39.447096" lon="3.133612">
        <ele>119.127</ele>
        <time>2021-09-01T14:11:57Z</time>
      </trkpt>
      <trkpt lat="39.447052" lon="3.133551">
        <ele>119.044</ele>
        <time>2021-09-01T14:11:58Z</time>
      </trkpt>
      <trkpt lat="39.447013" lon="3.133486">
        <ele>119.044</ele>
        <time>2021-09-01T14:11:59Z</time>
      </trkpt>
      <trkpt lat="39.446973" lon="3.133420">
        <ele>119.049</ele>
        <time>2021-09-01T14:12:00Z</time>
      </trkpt>
      <trkpt lat="39.446931" lon="3.133351">
        <ele>118.902</ele>
        <time>2021-09-01T14:12:01Z</time>
      </trkpt>
      <trkpt lat="39.446888" lon="3.133284">
        <ele>118.822</ele>
        <time>2021-09-01T14:12:02Z</time>
      </trkpt>
      <trkpt lat="39.446839" lon="3.133212">
        <ele>118.708</ele>
        <time>2021-09-01T14:12:03Z</time>
      </trkpt>
      <trkpt lat="39.446787" lon="3.133146">
        <ele>118.642</ele>
        <time>2021-09-01T14:12:04Z</time>
      </trkpt>
      <trkpt lat="39.446736" lon="3.133076">
        <ele>118.566</ele>
        <time>2021-09-01T14:12:05Z</time>
      </trkpt>
      <trkpt lat="39.446689" lon="3.133010">
        <ele>118.381</ele>
        <time>2021-09-01T14:12:06Z</time>
      </trkpt>
      <trkpt lat="39.446643" lon="3.132942">
        <ele>118.165</ele>
        <time>2021-09-01T14:12:07Z</time>
      </trkpt>
      <trkpt lat="39.446599" lon="3.132872">
        <ele>117.914</ele>
        <time>2021-09-01T14:12:08Z</time>
      </trkpt>
      <trkpt lat="39.446549" lon="3.132794">
        <ele>117.789</ele>
        <time>2021-09-01T14:12:09Z</time>
      </trkpt>
      <trkpt lat="39.446502" lon="3.132728">
        <ele>117.686</ele>
        <time>2021-09-01T14:12:10Z</time>
      </trkpt>
      <trkpt lat="39.446458" lon="3.132662">
        <ele>117.666</ele>
        <time>2021-09-01T14:12:11Z</time>
      </trkpt>
      <trkpt lat="39.446412" lon="3.132598">
        <ele>117.656</ele>
        <time>2021-09-01T14:12:12Z</time>
      </trkpt>
      <trkpt lat="39.446370" lon="3.132533">
        <ele>117.759</ele>
        <time>2021-09-01T14:12:13Z</time>
      </trkpt>
      <trkpt lat="39.446331" lon="3.132464">
        <ele>117.814</ele>
        <time>2021-09-01T14:12:14Z</time>
      </trkpt>
      <trkpt lat="39.446298" lon="3.132398">
        <ele>117.908</ele>
        <time>2021-09-01T14:12:15Z</time>
      </trkpt>
      <trkpt lat="39.446265" lon="3.132312">
        <ele>118.023</ele>
        <time>2021-09-01T14:12:17Z</time>
      </trkpt>
      <trkpt lat="39.446281" lon="3.132200">
        <ele>118.477</ele>
        <time>2021-09-01T14:12:19Z</time>
      </trkpt>
      <trkpt lat="39.446317" lon="3.132101">
        <ele>118.432</ele>
        <time>2021-09-01T14:12:21Z</time>
      </trkpt>
      <trkpt lat="39.446367" lon="3.132042">
        <ele>118.446</ele>
        <time>2021-09-01T14:12:22Z</time>
      </trkpt>
      <trkpt lat="39.446411" lon="3.131983">
        <ele>118.235</ele>
        <time>2021-09-01T14:12:23Z</time>
      </trkpt>
      <trkpt lat="39.446428" lon="3.131902">
        <ele>118.110</ele>
        <time>2021-09-01T14:12:24Z</time>
      </trkpt>
      <trkpt lat="39.446400" lon="3.131824">
        <ele>118.027</ele>
        <time>2021-09-01T14:12:25Z</time>
      </trkpt>
      <trkpt lat="39.446328" lon="3.131753">
        <ele>117.927</ele>
        <time>2021-09-01T14:12:27Z</time>
      </trkpt>
      <trkpt lat="39.446289" lon="3.131711">
        <ele>117.821</ele>
        <time>2021-09-01T14:12:28Z</time>
      </trkpt>
      <trkpt lat="39.446249" lon="3.131663">
        <ele>117.841</ele>
        <time>2021-09-01T14:12:29Z</time>
      </trkpt>
      <trkpt lat="39.446222" lon="3.131596">
        <ele>117.805</ele>
        <time>2021-09-01T14:12:30Z</time>
      </trkpt>
      <trkpt lat="39.446222" lon="3.131517">
        <ele>117.908</ele>
        <time>2021-09-01T14:12:31Z</time>
      </trkpt>
      <trkpt lat="39.446220" lon="3.131438">
        <ele>117.940</ele>
        <time>2021-09-01T14:12:32Z</time>
      </trkpt>
      <trkpt lat="39.446221" lon="3.131368">
        <ele>117.964</ele>
        <time>2021-09-01T14:12:33Z</time>
      </trkpt>
      <trkpt lat="39.446244" lon="3.131305">
        <ele>117.999</ele>
        <time>2021-09-01T14:12:34Z</time>
      </trkpt>
      <trkpt lat="39.446286" lon="3.131255">
        <ele>117.783</ele>
        <time>2021-09-01T14:12:35Z</time>
      </trkpt>
      <trkpt lat="39.446332" lon="3.131206">
        <ele>117.432</ele>
        <time>2021-09-01T14:12:36Z</time>
      </trkpt>
      <trkpt lat="39.446378" lon="3.131155">
        <ele>117.257</ele>
        <time>2021-09-01T14:12:37Z</time>
      </trkpt>
      <trkpt lat="39.446419" lon="3.131106">
        <ele>117.244</ele>
        <time>2021-09-01T14:12:38Z</time>
      </trkpt>
      <trkpt lat="39.446468" lon="3.131051">
        <ele>117.044</ele>
        <time>2021-09-01T14:12:39Z</time>
      </trkpt>
      <trkpt lat="39.446509" lon="3.130987">
        <ele>116.981</ele>
        <time>2021-09-01T14:12:40Z</time>
      </trkpt>
      <trkpt lat="39.446559" lon="3.130933">
        <ele>116.861</ele>
        <time>2021-09-01T14:12:41Z</time>
      </trkpt>
      <trkpt lat="39.446605" lon="3.130880">
        <ele>116.717</ele>
        <time>2021-09-01T14:12:42Z</time>
      </trkpt>
      <trkpt lat="39.446650" lon="3.130820">
        <ele>116.608</ele>
        <time>2021-09-01T14:12:43Z</time>
      </trkpt>
      <trkpt lat="39.446702" lon="3.130766">
        <ele>116.676</ele>
        <time>2021-09-01T14:12:44Z</time>
      </trkpt>
      <trkpt lat="39.446752" lon="3.130709">
        <ele>116.670</ele>
        <time>2021-09-01T14:12:45Z</time>
      </trkpt>
      <trkpt lat="39.446803" lon="3.130660">
        <ele>116.725</ele>
        <time>2021-09-01T14:12:46Z</time>
      </trkpt>
      <trkpt lat="39.446856" lon="3.130608">
        <ele>116.759</ele>
        <time>2021-09-01T14:12:47Z</time>
      </trkpt>
      <trkpt lat="39.446913" lon="3.130553">
        <ele>116.748</ele>
        <time>2021-09-01T14:12:48Z</time>
      </trkpt>
      <trkpt lat="39.446969" lon="3.130507">
        <ele>116.783</ele>
        <time>2021-09-01T14:12:49Z</time>
      </trkpt>
      <trkpt lat="39.447027" lon="3.130463">
        <ele>116.750</ele>
        <time>2021-09-01T14:12:50Z</time>
      </trkpt>
      <trkpt lat="39.447082" lon="3.130415">
        <ele>116.540</ele>
        <time>2021-09-01T14:12:51Z</time>
      </trkpt>
      <trkpt lat="39.447139" lon="3.130369">
        <ele>116.446</ele>
        <time>2021-09-01T14:12:52Z</time>
      </trkpt>
      <trkpt lat="39.447196" lon="3.130323">
        <ele>116.488</ele>
        <time>2021-09-01T14:12:53Z</time>
      </trkpt>
      <trkpt lat="39.447258" lon="3.130280">
        <ele>116.316</ele>
        <time>2021-09-01T14:12:54Z</time>
      </trkpt>
      <trkpt lat="39.447316" lon="3.130239">
        <ele>116.208</ele>
        <time>2021-09-01T14:12:55Z</time>
      </trkpt>
      <trkpt lat="39.447374" lon="3.130203">
        <ele>116.042</ele>
        <time>2021-09-01T14:12:56Z</time>
      </trkpt>
      <trkpt lat="39.447436" lon="3.130168">
        <ele>116.086</ele>
        <time>2021-09-01T14:12:57Z</time>
      </trkpt>
      <trkpt lat="39.447498" lon="3.130135">
        <ele>115.921</ele>
        <time>2021-09-01T14:12:58Z</time>
      </trkpt>
      <trkpt lat="39.447559" lon="3.130095">
        <ele>115.815</ele>
        <time>2021-09-01T14:12:59Z</time>
      </trkpt>
      <trkpt lat="39.447607" lon="3.130039">
        <ele>115.754</ele>
        <time>2021-09-01T14:13:00Z</time>
      </trkpt>
      <trkpt lat="39.447647" lon="3.129976">
        <ele>115.199</ele>
        <time>2021-09-01T14:13:02Z</time>
      </trkpt>
      <trkpt lat="39.447597" lon="3.129935">
        <ele>113.636</ele>
        <time>2021-09-01T14:13:07Z</time>
      </trkpt>
      <trkpt lat="39.447547" lon="3.129884">
        <ele>113.416</ele>
        <time>2021-09-01T14:13:09Z</time>
      </trkpt>
      <trkpt lat="39.447492" lon="3.129851">
        <ele>113.374</ele>
        <time>2021-09-01T14:13:11Z</time>
      </trkpt>
      <trkpt lat="39.447428" lon="3.129838">
        <ele>113.356</ele>
        <time>2021-09-01T14:13:13Z</time>
      </trkpt>
      <trkpt lat="39.447360" lon="3.129790">
        <ele>113.221</ele>
        <time>2021-09-01T14:13:15Z</time>
      </trkpt>
      <trkpt lat="39.447286" lon="3.129729">
        <ele>112.808</ele>
        <time>2021-09-01T14:13:17Z</time>
      </trkpt>
      <trkpt lat="39.447239" lon="3.129696">
        <ele>112.655</ele>
        <time>2021-09-01T14:13:18Z</time>
      </trkpt>
      <trkpt lat="39.447198" lon="3.129650">
        <ele>112.479</ele>
        <time>2021-09-01T14:13:19Z</time>
      </trkpt>
      <trkpt lat="39.447170" lon="3.129599">
        <ele>112.294</ele>
        <time>2021-09-01T14:13:20Z</time>
      </trkpt>
      <trkpt lat="39.447133" lon="3.129506">
        <ele>111.838</ele>
        <time>2021-09-01T14:13:22Z</time>
      </trkpt>
      <trkpt lat="39.447111" lon="3.129413">
        <ele>111.877</ele>
        <time>2021-09-01T14:13:24Z</time>
      </trkpt>
      <trkpt lat="39.447109" lon="3.129325">
        <ele>111.942</ele>
        <time>2021-09-01T14:13:26Z</time>
      </trkpt>
      <trkpt lat="39.447119" lon="3.129259">
        <ele>111.939</ele>
        <time>2021-09-01T14:13:27Z</time>
      </trkpt>
      <trkpt lat="39.447128" lon="3.129199">
        <ele>111.969</ele>
        <time>2021-09-01T14:13:28Z</time>
      </trkpt>
      <trkpt lat="39.447135" lon="3.129138">
        <ele>111.945</ele>
        <time>2021-09-01T14:13:29Z</time>
      </trkpt>
      <trkpt lat="39.447121" lon="3.129017">
        <ele>111.747</ele>
        <time>2021-09-01T14:13:31Z</time>
      </trkpt>
      <trkpt lat="39.447104" lon="3.128945">
        <ele>111.411</ele>
        <time>2021-09-01T14:13:32Z</time>
      </trkpt>
      <trkpt lat="39.447077" lon="3.128886">
        <ele>111.008</ele>
        <time>2021-09-01T14:13:33Z</time>
      </trkpt>
      <trkpt lat="39.447055" lon="3.128816">
        <ele>110.692</ele>
        <time>2021-09-01T14:13:34Z</time>
      </trkpt>
      <trkpt lat="39.447035" lon="3.128757">
        <ele>110.276</ele>
        <time>2021-09-01T14:13:35Z</time>
      </trkpt>
      <trkpt lat="39.447011" lon="3.128701">
        <ele>109.781</ele>
        <time>2021-09-01T14:13:36Z</time>
      </trkpt>
      <trkpt lat="39.446986" lon="3.128649">
        <ele>109.395</ele>
        <time>2021-09-01T14:13:37Z</time>
      </trkpt>
      <trkpt lat="39.446948" lon="3.128579">
        <ele>108.624</ele>
        <time>2021-09-01T14:13:39Z</time>
      </trkpt>
      <trkpt lat="39.446903" lon="3.128509">
        <ele>107.939</ele>
        <time>2021-09-01T14:13:41Z</time>
      </trkpt>
      <trkpt lat="39.446870" lon="3.128458">
        <ele>107.236</ele>
        <time>2021-09-01T14:13:43Z</time>
      </trkpt>
      <trkpt lat="39.446822" lon="3.128378">
        <ele>106.876</ele>
        <time>2021-09-01T14:13:45Z</time>
      </trkpt>
      <trkpt lat="39.446777" lon="3.128268">
        <ele>106.352</ele>
        <time>2021-09-01T14:13:47Z</time>
      </trkpt>
      <trkpt lat="39.446761" lon="3.128201">
        <ele>106.153</ele>
        <time>2021-09-01T14:13:48Z</time>
      </trkpt>
      <trkpt lat="39.446739" lon="3.128130">
        <ele>105.808</ele>
        <time>2021-09-01T14:13:49Z</time>
      </trkpt>
      <trkpt lat="39.446712" lon="3.128059">
        <ele>105.508</ele>
        <time>2021-09-01T14:13:50Z</time>
      </trkpt>
      <trkpt lat="39.446683" lon="3.127985">
        <ele>105.163</ele>
        <time>2021-09-01T14:13:51Z</time>
      </trkpt>
      <trkpt lat="39.446649" lon="3.127910">
        <ele>104.737</ele>
        <time>2021-09-01T14:13:52Z</time>
      </trkpt>
      <trkpt lat="39.446616" lon="3.127837">
        <ele>104.352</ele>
        <time>2021-09-01T14:13:53Z</time>
      </trkpt>
      <trkpt lat="39.446581" lon="3.127771">
        <ele>103.856</ele>
        <time>2021-09-01T14:13:54Z</time>
      </trkpt>
      <trkpt lat="39.446547" lon="3.127707">
        <ele>103.495</ele>
        <time>2021-09-01T14:13:55Z</time>
      </trkpt>
      <trkpt lat="39.446514" lon="3.127636">
        <ele>103.230</ele>
        <time>2021-09-01T14:13:56Z</time>
      </trkpt>
      <trkpt lat="39.446485" lon="3.127568">
        <ele>103.077</ele>
        <time>2021-09-01T14:13:57Z</time>
      </trkpt>
      <trkpt lat="39.446451" lon="3.127502">
        <ele>102.727</ele>
        <time>2021-09-01T14:13:58Z</time>
      </trkpt>
      <trkpt lat="39.446420" lon="3.127440">
        <ele>102.591</ele>
        <time>2021-09-01T14:13:59Z</time>
      </trkpt>
      <trkpt lat="39.446393" lon="3.127375">
        <ele>102.481</ele>
        <time>2021-09-01T14:14:00Z</time>
      </trkpt>
      <trkpt lat="39.446371" lon="3.127307">
        <ele>102.319</ele>
        <time>2021-09-01T14:14:01Z</time>
      </trkpt>
      <trkpt lat="39.446349" lon="3.127235">
        <ele>102.208</ele>
        <time>2021-09-01T14:14:02Z</time>
      </trkpt>
      <trkpt lat="39.446327" lon="3.127175">
        <ele>102.147</ele>
        <time>2021-09-01T14:14:03Z</time>
      </trkpt>
      <trkpt lat="39.446306" lon="3.127118">
        <ele>102.121</ele>
        <time>2021-09-01T14:14:04Z</time>
      </trkpt>
      <trkpt lat="39.446286" lon="3.127055">
        <ele>102.146</ele>
        <time>2021-09-01T14:14:05Z</time>
      </trkpt>
      <trkpt lat="39.446263" lon="3.126991">
        <ele>102.160</ele>
        <time>2021-09-01T14:14:06Z</time>
      </trkpt>
      <trkpt lat="39.446238" lon="3.126926">
        <ele>102.139</ele>
        <time>2021-09-01T14:14:07Z</time>
      </trkpt>
      <trkpt lat="39.446209" lon="3.126866">
        <ele>102.124</ele>
        <time>2021-09-01T14:14:08Z</time>
      </trkpt>
      <trkpt lat="39.446177" lon="3.126812">
        <ele>102.191</ele>
        <time>2021-09-01T14:14:09Z</time>
      </trkpt>
      <trkpt lat="39.446144" lon="3.126759">
        <ele>102.161</ele>
        <time>2021-09-01T14:14:10Z</time>
      </trkpt>
      <trkpt lat="39.446113" lon="3.126702">
        <ele>102.137</ele>
        <time>2021-09-01T14:14:11Z</time>
      </trkpt>
      <trkpt lat="39.446082" lon="3.126651">
        <ele>102.149</ele>
        <time>2021-09-01T14:14:12Z</time>
      </trkpt>
      <trkpt lat="39.446049" lon="3.126593">
        <ele>102.113</ele>
        <time>2021-09-01T14:14:13Z</time>
      </trkpt>
      <trkpt lat="39.446021" lon="3.126535">
        <ele>102.108</ele>
        <time>2021-09-01T14:14:14Z</time>
      </trkpt>
      <trkpt lat="39.445987" lon="3.126481">
        <ele>102.161</ele>
        <time>2021-09-01T14:14:15Z</time>
      </trkpt>
      <trkpt lat="39.445947" lon="3.126435">
        <ele>102.185</ele>
        <time>2021-09-01T14:14:16Z</time>
      </trkpt>
      <trkpt lat="39.445908" lon="3.126382">
        <ele>102.130</ele>
        <time>2021-09-01T14:14:17Z</time>
      </trkpt>
      <trkpt lat="39.445874" lon="3.126339">
        <ele>102.164</ele>
        <time>2021-09-01T14:14:18Z</time>
      </trkpt>
      <trkpt lat="39.445839" lon="3.126282">
        <ele>102.063</ele>
        <time>2021-09-01T14:14:19Z</time>
      </trkpt>
      <trkpt lat="39.445799" lon="3.126231">
        <ele>102.018</ele>
        <time>2021-09-01T14:14:20Z</time>
      </trkpt>
      <trkpt lat="39.445764" lon="3.126179">
        <ele>101.965</ele>
        <time>2021-09-01T14:14:21Z</time>
      </trkpt>
      <trkpt lat="39.445726" lon="3.126116">
        <ele>101.845</ele>
        <time>2021-09-01T14:14:22Z</time>
      </trkpt>
      <trkpt lat="39.445698" lon="3.126063">
        <ele>101.859</ele>
        <time>2021-09-01T14:14:23Z</time>
      </trkpt>
      <trkpt lat="39.445666" lon="3.126010">
        <ele>101.503</ele>
        <time>2021-09-01T14:14:24Z</time>
      </trkpt>
      <trkpt lat="39.445627" lon="3.125948">
        <ele>101.423</ele>
        <time>2021-09-01T14:14:25Z</time>
      </trkpt>
      <trkpt lat="39.445591" lon="3.125897">
        <ele>101.208</ele>
        <time>2021-09-01T14:14:26Z</time>
      </trkpt>
      <trkpt lat="39.445554" lon="3.125845">
        <ele>100.943</ele>
        <time>2021-09-01T14:14:27Z</time>
      </trkpt>
      <trkpt lat="39.445516" lon="3.125802">
        <ele>100.497</ele>
        <time>2021-09-01T14:14:28Z</time>
      </trkpt>
      <trkpt lat="39.445477" lon="3.125758">
        <ele>100.112</ele>
        <time>2021-09-01T14:14:29Z</time>
      </trkpt>
      <trkpt lat="39.445444" lon="3.125714">
        <ele>99.866</ele>
        <time>2021-09-01T14:14:30Z</time>
      </trkpt>
      <trkpt lat="39.445416" lon="3.125664">
        <ele>99.615</ele>
        <time>2021-09-01T14:14:31Z</time>
      </trkpt>
      <trkpt lat="39.445379" lon="3.125608">
        <ele>99.490</ele>
        <time>2021-09-01T14:14:32Z</time>
      </trkpt>
      <trkpt lat="39.445347" lon="3.125555">
        <ele>99.467</ele>
        <time>2021-09-01T14:14:33Z</time>
      </trkpt>
      <trkpt lat="39.445311" lon="3.125505">
        <ele>99.357</ele>
        <time>2021-09-01T14:14:34Z</time>
      </trkpt>
      <trkpt lat="39.445272" lon="3.125454">
        <ele>99.289</ele>
        <time>2021-09-01T14:14:35Z</time>
      </trkpt>
      <trkpt lat="39.445228" lon="3.125394">
        <ele>99.006</ele>
        <time>2021-09-01T14:14:36Z</time>
      </trkpt>
      <trkpt lat="39.445186" lon="3.125332">
        <ele>98.826</ele>
        <time>2021-09-01T14:14:37Z</time>
      </trkpt>
      <trkpt lat="39.445139" lon="3.125278">
        <ele>98.508</ele>
        <time>2021-09-01T14:14:38Z</time>
      </trkpt>
      <trkpt lat="39.445092" lon="3.125221">
        <ele>98.396</ele>
        <time>2021-09-01T14:14:39Z</time>
      </trkpt>
      <trkpt lat="39.445041" lon="3.125171">
        <ele>97.940</ele>
        <time>2021-09-01T14:14:40Z</time>
      </trkpt>
      <trkpt lat="39.444991" lon="3.125125">
        <ele>97.695</ele>
        <time>2021-09-01T14:14:41Z</time>
      </trkpt>
      <trkpt lat="39.444939" lon="3.125069">
        <ele>97.379</ele>
        <time>2021-09-01T14:14:42Z</time>
      </trkpt>
      <trkpt lat="39.444880" lon="3.125008">
        <ele>97.038</ele>
        <time>2021-09-01T14:14:43Z</time>
      </trkpt>
      <trkpt lat="39.444830" lon="3.124953">
        <ele>96.623</ele>
        <time>2021-09-01T14:14:44Z</time>
      </trkpt>
      <trkpt lat="39.444790" lon="3.124914">
        <ele>96.360</ele>
        <time>2021-09-01T14:14:45Z</time>
      </trkpt>
      <trkpt lat="39.444753" lon="3.124870">
        <ele>96.040</ele>
        <time>2021-09-01T14:14:46Z</time>
      </trkpt>
      <trkpt lat="39.444694" lon="3.124806">
        <ele>95.725</ele>
        <time>2021-09-01T14:14:48Z</time>
      </trkpt>
      <trkpt lat="39.444643" lon="3.124765">
        <ele>95.826</ele>
        <time>2021-09-01T14:14:50Z</time>
      </trkpt>
      <trkpt lat="39.444590" lon="3.124766">
        <ele>96.408</ele>
        <time>2021-09-01T14:14:53Z</time>
      </trkpt>
      <trkpt lat="39.444256" lon="3.123859">
        <ele>107.708</ele>
        <time>2021-09-01T14:15:43Z</time>
      </trkpt>
      <trkpt lat="39.444224" lon="3.123781">
        <ele>108.050</ele>
        <time>2021-09-01T14:15:45Z</time>
      </trkpt>
      <trkpt lat="39.444198" lon="3.123707">
        <ele>108.494</ele>
        <time>2021-09-01T14:15:47Z</time>
      </trkpt>
      <trkpt lat="39.444172" lon="3.123637">
        <ele>108.919</ele>
        <time>2021-09-01T14:15:49Z</time>
      </trkpt>
      <trkpt lat="39.444138" lon="3.123562">
        <ele>109.483</ele>
        <time>2021-09-01T14:15:51Z</time>
      </trkpt>
      <trkpt lat="39.444108" lon="3.123499">
        <ele>109.752</ele>
        <time>2021-09-01T14:15:53Z</time>
      </trkpt>
      <trkpt lat="39.444083" lon="3.123430">
        <ele>109.947</ele>
        <time>2021-09-01T14:15:55Z</time>
      </trkpt>
      <trkpt lat="39.444053" lon="3.123366">
        <ele>110.034</ele>
        <time>2021-09-01T14:15:57Z</time>
      </trkpt>
      <trkpt lat="39.444022" lon="3.123296">
        <ele>110.384</ele>
        <time>2021-09-01T14:15:59Z</time>
      </trkpt>
      <trkpt lat="39.443991" lon="3.123225">
        <ele>110.719</ele>
        <time>2021-09-01T14:16:01Z</time>
      </trkpt>
      <trkpt lat="39.443950" lon="3.123146">
        <ele>111.209</ele>
        <time>2021-09-01T14:16:03Z</time>
      </trkpt>
      <trkpt lat="39.443915" lon="3.123080">
        <ele>111.719</ele>
        <time>2021-09-01T14:16:05Z</time>
      </trkpt>
      <trkpt lat="39.443880" lon="3.123017">
        <ele>112.108</ele>
        <time>2021-09-01T14:16:07Z</time>
      </trkpt>
      <trkpt lat="39.443835" lon="3.122967">
        <ele>112.429</ele>
        <time>2021-09-01T14:16:09Z</time>
      </trkpt>
      <trkpt lat="39.443774" lon="3.122925">
        <ele>112.423</ele>
        <time>2021-09-01T14:16:11Z</time>
      </trkpt>
      <trkpt lat="39.443709" lon="3.122877">
        <ele>112.578</ele>
        <time>2021-09-01T14:16:13Z</time>
      </trkpt>
      <trkpt lat="39.443655" lon="3.122837">
        <ele>112.472</ele>
        <time>2021-09-01T14:16:15Z</time>
      </trkpt>
      <trkpt lat="39.443609" lon="3.122866">
        <ele>112.741</ele>
        <time>2021-09-01T14:16:17Z</time>
      </trkpt>
      <trkpt lat="39.443602" lon="3.122954">
        <ele>112.856</ele>
        <time>2021-09-01T14:16:19Z</time>
      </trkpt>
      <trkpt lat="39.443585" lon="3.123024">
        <ele>112.863</ele>
        <time>2021-09-01T14:16:21Z</time>
      </trkpt>
      <trkpt lat="39.443550" lon="3.123089">
        <ele>112.433</ele>
        <time>2021-09-01T14:16:23Z</time>
      </trkpt>
      <trkpt lat="39.443502" lon="3.123152">
        <ele>112.333</ele>
        <time>2021-09-01T14:16:25Z</time>
      </trkpt>
      <trkpt lat="39.443444" lon="3.123201">
        <ele>112.323</ele>
        <time>2021-09-01T14:16:27Z</time>
      </trkpt>
      <trkpt lat="39.443375" lon="3.123262">
        <ele>112.115</ele>
        <time>2021-09-01T14:16:29Z</time>
      </trkpt>
      <trkpt lat="39.443313" lon="3.123349">
        <ele>112.008</ele>
        <time>2021-09-01T14:16:31Z</time>
      </trkpt>
      <trkpt lat="39.443283" lon="3.123393">
        <ele>111.911</ele>
        <time>2021-09-01T14:16:32Z</time>
      </trkpt>
      <trkpt lat="39.443221" lon="3.123484">
        <ele>111.925</ele>
        <time>2021-09-01T14:16:34Z</time>
      </trkpt>
      <trkpt lat="39.443187" lon="3.123529">
        <ele>111.920</ele>
        <time>2021-09-01T14:16:35Z</time>
      </trkpt>
      <trkpt lat="39.443146" lon="3.123576">
        <ele>111.954</ele>
        <time>2021-09-01T14:16:36Z</time>
      </trkpt>
      <trkpt lat="39.443109" lon="3.123623">
        <ele>112.093</ele>
        <time>2021-09-01T14:16:37Z</time>
      </trkpt>
      <trkpt lat="39.443077" lon="3.123680">
        <ele>112.188</ele>
        <time>2021-09-01T14:16:38Z</time>
      </trkpt>
      <trkpt lat="39.443049" lon="3.123736">
        <ele>112.225</ele>
        <time>2021-09-01T14:16:39Z</time>
      </trkpt>
      <trkpt lat="39.443011" lon="3.123776">
        <ele>112.255</ele>
        <time>2021-09-01T14:16:40Z</time>
      </trkpt>
      <trkpt lat="39.442936" lon="3.123848">
        <ele>112.352</ele>
        <time>2021-09-01T14:16:42Z</time>
      </trkpt>
      <trkpt lat="39.442896" lon="3.123894">
        <ele>112.353</ele>
        <time>2021-09-01T14:16:43Z</time>
      </trkpt>
      <trkpt lat="39.442853" lon="3.123932">
        <ele>112.308</ele>
        <time>2021-09-01T14:16:44Z</time>
      </trkpt>
      <trkpt lat="39.442808" lon="3.123972">
        <ele>112.408</ele>
        <time>2021-09-01T14:16:45Z</time>
      </trkpt>
      <trkpt lat="39.442765" lon="3.124013">
        <ele>112.413</ele>
        <time>2021-09-01T14:16:46Z</time>
      </trkpt>
      <trkpt lat="39.442721" lon="3.124054">
        <ele>112.547</ele>
        <time>2021-09-01T14:16:47Z</time>
      </trkpt>
      <trkpt lat="39.442677" lon="3.124101">
        <ele>112.592</ele>
        <time>2021-09-01T14:16:48Z</time>
      </trkpt>
      <trkpt lat="39.442632" lon="3.124140">
        <ele>112.696</ele>
        <time>2021-09-01T14:16:49Z</time>
      </trkpt>
      <trkpt lat="39.442589" lon="3.124182">
        <ele>112.635</ele>
        <time>2021-09-01T14:16:50Z</time>
      </trkpt>
      <trkpt lat="39.442549" lon="3.124222">
        <ele>112.780</ele>
        <time>2021-09-01T14:16:51Z</time>
      </trkpt>
      <trkpt lat="39.442507" lon="3.124262">
        <ele>112.747</ele>
        <time>2021-09-01T14:16:52Z</time>
      </trkpt>
      <trkpt lat="39.442462" lon="3.124303">
        <ele>112.857</ele>
        <time>2021-09-01T14:16:53Z</time>
      </trkpt>
      <trkpt lat="39.442422" lon="3.124343">
        <ele>112.889</ele>
        <time>2021-09-01T14:16:54Z</time>
      </trkpt>
      <trkpt lat="39.442382" lon="3.124384">
        <ele>112.806</ele>
        <time>2021-09-01T14:16:55Z</time>
      </trkpt>
      <trkpt lat="39.442342" lon="3.124419">
        <ele>112.826</ele>
        <time>2021-09-01T14:16:56Z</time>
      </trkpt>
      <trkpt lat="39.442306" lon="3.124455">
        <ele>112.808</ele>
        <time>2021-09-01T14:16:57Z</time>
      </trkpt>
      <trkpt lat="39.442268" lon="3.124490">
        <ele>112.716</ele>
        <time>2021-09-01T14:16:58Z</time>
      </trkpt>
      <trkpt lat="39.442227" lon="3.124529">
        <ele>112.710</ele>
        <time>2021-09-01T14:16:59Z</time>
      </trkpt>
      <trkpt lat="39.442190" lon="3.124565">
        <ele>112.655</ele>
        <time>2021-09-01T14:17:00Z</time>
      </trkpt>
      <trkpt lat="39.442152" lon="3.124599">
        <ele>112.559</ele>
        <time>2021-09-01T14:17:01Z</time>
      </trkpt>
      <trkpt lat="39.442080" lon="3.124673">
        <ele>112.448</ele>
        <time>2021-09-01T14:17:03Z</time>
      </trkpt>
      <trkpt lat="39.442042" lon="3.124713">
        <ele>112.443</ele>
        <time>2021-09-01T14:17:04Z</time>
      </trkpt>
      <trkpt lat="39.442005" lon="3.124753">
        <ele>112.520</ele>
        <time>2021-09-01T14:17:05Z</time>
      </trkpt>
      <trkpt lat="39.441969" lon="3.124796">
        <ele>112.630</ele>
        <time>2021-09-01T14:17:06Z</time>
      </trkpt>
      <trkpt lat="39.441932" lon="3.124842">
        <ele>112.755</ele>
        <time>2021-09-01T14:17:07Z</time>
      </trkpt>
      <trkpt lat="39.441894" lon="3.124879">
        <ele>112.807</ele>
        <time>2021-09-01T14:17:08Z</time>
      </trkpt>
      <trkpt lat="39.441857" lon="3.124917">
        <ele>112.917</ele>
        <time>2021-09-01T14:17:09Z</time>
      </trkpt>
      <trkpt lat="39.441816" lon="3.124958">
        <ele>113.008</ele>
        <time>2021-09-01T14:17:10Z</time>
      </trkpt>
      <trkpt lat="39.441777" lon="3.125000">
        <ele>113.263</ele>
        <time>2021-09-01T14:17:11Z</time>
      </trkpt>
      <trkpt lat="39.441738" lon="3.125042">
        <ele>113.347</ele>
        <time>2021-09-01T14:17:12Z</time>
      </trkpt>
      <trkpt lat="39.441701" lon="3.125081">
        <ele>113.412</ele>
        <time>2021-09-01T14:17:13Z</time>
      </trkpt>
      <trkpt lat="39.441662" lon="3.125117">
        <ele>113.596</ele>
        <time>2021-09-01T14:17:14Z</time>
      </trkpt>
      <trkpt lat="39.441584" lon="3.125135">
        <ele>113.645</ele>
        <time>2021-09-01T14:17:16Z</time>
      </trkpt>
      <trkpt lat="39.441507" lon="3.125080">
        <ele>113.630</ele>
        <time>2021-09-01T14:17:18Z</time>
      </trkpt>
      <trkpt lat="39.441470" lon="3.125047">
        <ele>113.647</ele>
        <time>2021-09-01T14:17:19Z</time>
      </trkpt>
      <trkpt lat="39.441431" lon="3.125013">
        <ele>113.677</ele>
        <time>2021-09-01T14:17:20Z</time>
      </trkpt>
      <trkpt lat="39.441391" lon="3.124977">
        <ele>113.794</ele>
        <time>2021-09-01T14:17:21Z</time>
      </trkpt>
      <trkpt lat="39.441352" lon="3.124943">
        <ele>113.857</ele>
        <time>2021-09-01T14:17:22Z</time>
      </trkpt>
      <trkpt lat="39.441315" lon="3.124908">
        <ele>113.822</ele>
        <time>2021-09-01T14:17:23Z</time>
      </trkpt>
      <trkpt lat="39.441278" lon="3.124867">
        <ele>113.808</ele>
        <time>2021-09-01T14:17:24Z</time>
      </trkpt>
      <trkpt lat="39.441240" lon="3.124832">
        <ele>113.887</ele>
        <time>2021-09-01T14:17:25Z</time>
      </trkpt>
      <trkpt lat="39.441201" lon="3.124796">
        <ele>113.911</ele>
        <time>2021-09-01T14:17:26Z</time>
      </trkpt>
      <trkpt lat="39.441162" lon="3.124764">
        <ele>113.936</ele>
        <time>2021-09-01T14:17:27Z</time>
      </trkpt>
      <trkpt lat="39.441123" lon="3.124728">
        <ele>113.910</ele>
        <time>2021-09-01T14:17:28Z</time>
      </trkpt>
      <trkpt lat="39.441084" lon="3.124691">
        <ele>114.179</ele>
        <time>2021-09-01T14:17:29Z</time>
      </trkpt>
      <trkpt lat="39.441047" lon="3.124656">
        <ele>114.224</ele>
        <time>2021-09-01T14:17:30Z</time>
      </trkpt>
      <trkpt lat="39.440972" lon="3.124601">
        <ele>114.751</ele>
        <time>2021-09-01T14:17:32Z</time>
      </trkpt>
      <trkpt lat="39.440907" lon="3.124547">
        <ele>114.971</ele>
        <time>2021-09-01T14:17:34Z</time>
      </trkpt>
      <trkpt lat="39.440842" lon="3.124485">
        <ele>115.377</ele>
        <time>2021-09-01T14:17:36Z</time>
      </trkpt>
      <trkpt lat="39.440767" lon="3.124425">
        <ele>115.461</ele>
        <time>2021-09-01T14:17:38Z</time>
      </trkpt>
      <trkpt lat="39.440696" lon="3.124359">
        <ele>115.427</ele>
        <time>2021-09-01T14:17:40Z</time>
      </trkpt>
      <trkpt lat="39.440626" lon="3.124298">
        <ele>115.508</ele>
        <time>2021-09-01T14:17:42Z</time>
      </trkpt>
      <trkpt lat="39.440560" lon="3.124232">
        <ele>115.985</ele>
        <time>2021-09-01T14:17:44Z</time>
      </trkpt>
      <trkpt lat="39.440487" lon="3.124172">
        <ele>116.329</ele>
        <time>2021-09-01T14:17:46Z</time>
      </trkpt>
      <trkpt lat="39.440431" lon="3.124116">
        <ele>116.594</ele>
        <time>2021-09-01T14:17:48Z</time>
      </trkpt>
      <trkpt lat="39.440371" lon="3.124071">
        <ele>116.518</ele>
        <time>2021-09-01T14:17:50Z</time>
      </trkpt>
      <trkpt lat="39.440299" lon="3.124109">
        <ele>116.187</ele>
        <time>2021-09-01T14:17:52Z</time>
      </trkpt>
      <trkpt lat="39.440253" lon="3.124201">
        <ele>115.792</ele>
        <time>2021-09-01T14:17:54Z</time>
      </trkpt>
      <trkpt lat="39.440201" lon="3.124298">
        <ele>115.619</ele>
        <time>2021-09-01T14:17:56Z</time>
      </trkpt>
      <trkpt lat="39.440168" lon="3.124351">
        <ele>115.649</ele>
        <time>2021-09-01T14:17:57Z</time>
      </trkpt>
      <trkpt lat="39.440134" lon="3.124403">
        <ele>115.771</ele>
        <time>2021-09-01T14:17:58Z</time>
      </trkpt>
      <trkpt lat="39.440101" lon="3.124453">
        <ele>115.841</ele>
        <time>2021-09-01T14:17:59Z</time>
      </trkpt>
      <trkpt lat="39.440072" lon="3.124507">
        <ele>116.015</ele>
        <time>2021-09-01T14:18:00Z</time>
      </trkpt>
      <trkpt lat="39.440044" lon="3.124562">
        <ele>116.108</ele>
        <time>2021-09-01T14:18:01Z</time>
      </trkpt>
      <trkpt lat="39.440015" lon="3.124613">
        <ele>116.215</ele>
        <time>2021-09-01T14:18:02Z</time>
      </trkpt>
      <trkpt lat="39.439980" lon="3.124663">
        <ele>116.289</ele>
        <time>2021-09-01T14:18:03Z</time>
      </trkpt>
      <trkpt lat="39.439950" lon="3.124715">
        <ele>116.214</ele>
        <time>2021-09-01T14:18:04Z</time>
      </trkpt>
      <trkpt lat="39.439914" lon="3.124765">
        <ele>116.128</ele>
        <time>2021-09-01T14:18:05Z</time>
      </trkpt>
      <trkpt lat="39.439880" lon="3.124816">
        <ele>115.987</ele>
        <time>2021-09-01T14:18:06Z</time>
      </trkpt>
      <trkpt lat="39.439844" lon="3.124869">
        <ele>115.752</ele>
        <time>2021-09-01T14:18:07Z</time>
      </trkpt>
      <trkpt lat="39.439807" lon="3.124914">
        <ele>115.629</ele>
        <time>2021-09-01T14:18:08Z</time>
      </trkpt>
      <trkpt lat="39.439774" lon="3.124958">
        <ele>115.559</ele>
        <time>2021-09-01T14:18:09Z</time>
      </trkpt>
      <trkpt lat="39.439712" lon="3.125040">
        <ele>115.521</ele>
        <time>2021-09-01T14:18:11Z</time>
      </trkpt>
      <trkpt lat="39.439643" lon="3.125117">
        <ele>115.441</ele>
        <time>2021-09-01T14:18:13Z</time>
      </trkpt>
      <trkpt lat="39.439607" lon="3.125157">
        <ele>115.405</ele>
        <time>2021-09-01T14:18:14Z</time>
      </trkpt>
      <trkpt lat="39.439542" lon="3.125240">
        <ele>115.408</ele>
        <time>2021-09-01T14:18:16Z</time>
      </trkpt>
      <trkpt lat="39.439507" lon="3.125284">
        <ele>115.430</ele>
        <time>2021-09-01T14:18:17Z</time>
      </trkpt>
      <trkpt lat="39.439476" lon="3.125332">
        <ele>115.544</ele>
        <time>2021-09-01T14:18:18Z</time>
      </trkpt>
      <trkpt lat="39.439425" lon="3.125422">
        <ele>115.659</ele>
        <time>2021-09-01T14:18:20Z</time>
      </trkpt>
      <trkpt lat="39.439375" lon="3.125511">
        <ele>115.853</ele>
        <time>2021-09-01T14:18:22Z</time>
      </trkpt>
      <trkpt lat="39.439334" lon="3.125605">
        <ele>115.942</ele>
        <time>2021-09-01T14:18:24Z</time>
      </trkpt>
      <trkpt lat="39.439280" lon="3.125696">
        <ele>116.167</ele>
        <time>2021-09-01T14:18:26Z</time>
      </trkpt>
      <trkpt lat="39.439221" lon="3.125779">
        <ele>116.324</ele>
        <time>2021-09-01T14:18:28Z</time>
      </trkpt>
      <trkpt lat="39.439188" lon="3.125826">
        <ele>116.424</ele>
        <time>2021-09-01T14:18:29Z</time>
      </trkpt>
      <trkpt lat="39.439159" lon="3.125875">
        <ele>116.454</ele>
        <time>2021-09-01T14:18:30Z</time>
      </trkpt>
      <trkpt lat="39.439108" lon="3.125971">
        <ele>116.656</ele>
        <time>2021-09-01T14:18:32Z</time>
      </trkpt>
      <trkpt lat="39.439055" lon="3.126044">
        <ele>116.811</ele>
        <time>2021-09-01T14:18:34Z</time>
      </trkpt>
      <trkpt lat="39.439007" lon="3.126117">
        <ele>117.008</ele>
        <time>2021-09-01T14:18:36Z</time>
      </trkpt>
      <trkpt lat="39.438959" lon="3.126196">
        <ele>117.173</ele>
        <time>2021-09-01T14:18:38Z</time>
      </trkpt>
      <trkpt lat="39.438912" lon="3.126282">
        <ele>117.287</ele>
        <time>2021-09-01T14:18:40Z</time>
      </trkpt>
      <trkpt lat="39.438875" lon="3.126351">
        <ele>117.332</ele>
        <time>2021-09-01T14:18:42Z</time>
      </trkpt>
      <trkpt lat="39.438881" lon="3.126437">
        <ele>117.636</ele>
        <time>2021-09-01T14:18:44Z</time>
      </trkpt>
      <trkpt lat="39.438914" lon="3.126509">
        <ele>118.025</ele>
        <time>2021-09-01T14:18:46Z</time>
      </trkpt>
      <trkpt lat="39.438952" lon="3.126576">
        <ele>118.220</ele>
        <time>2021-09-01T14:18:48Z</time>
      </trkpt>
      <trkpt lat="39.438992" lon="3.126650">
        <ele>118.597</ele>
        <time>2021-09-01T14:18:50Z</time>
      </trkpt>
      <trkpt lat="39.439038" lon="3.126721">
        <ele>118.867</ele>
        <time>2021-09-01T14:18:52Z</time>
      </trkpt>
      <trkpt lat="39.439082" lon="3.126788">
        <ele>119.293</ele>
        <time>2021-09-01T14:18:54Z</time>
      </trkpt>
      <trkpt lat="39.439114" lon="3.126862">
        <ele>119.565</ele>
        <time>2021-09-01T14:18:56Z</time>
      </trkpt>
      <trkpt lat="39.439115" lon="3.126949">
        <ele>119.621</ele>
        <time>2021-09-01T14:18:58Z</time>
      </trkpt>
      <trkpt lat="39.439065" lon="3.127027">
        <ele>119.608</ele>
        <time>2021-09-01T14:19:00Z</time>
      </trkpt>
      <trkpt lat="39.439021" lon="3.127086">
        <ele>119.627</ele>
        <time>2021-09-01T14:19:02Z</time>
      </trkpt>
      <trkpt lat="39.438980" lon="3.127160">
        <ele>119.861</ele>
        <time>2021-09-01T14:19:04Z</time>
      </trkpt>
      <trkpt lat="39.438939" lon="3.127241">
        <ele>120.246</ele>
        <time>2021-09-01T14:19:06Z</time>
      </trkpt>
      <trkpt lat="39.438895" lon="3.127319">
        <ele>120.330</ele>
        <time>2021-09-01T14:19:08Z</time>
      </trkpt>
      <trkpt lat="39.438855" lon="3.127406">
        <ele>120.439</ele>
        <time>2021-09-01T14:19:10Z</time>
      </trkpt>
      <trkpt lat="39.438813" lon="3.127487">
        <ele>120.614</ele>
        <time>2021-09-01T14:19:12Z</time>
      </trkpt>
      <trkpt lat="39.438780" lon="3.127571">
        <ele>120.871</ele>
        <time>2021-09-01T14:19:14Z</time>
      </trkpt>
      <trkpt lat="39.438733" lon="3.127669">
        <ele>120.811</ele>
        <time>2021-09-01T14:19:16Z</time>
      </trkpt>
      <trkpt lat="39.438702" lon="3.127715">
        <ele>120.738</ele>
        <time>2021-09-01T14:19:17Z</time>
      </trkpt>
      <trkpt lat="39.438638" lon="3.127803">
        <ele>120.470</ele>
        <time>2021-09-01T14:19:19Z</time>
      </trkpt>
      <trkpt lat="39.438605" lon="3.127845">
        <ele>120.417</ele>
        <time>2021-09-01T14:19:20Z</time>
      </trkpt>
      <trkpt lat="39.438544" lon="3.127938">
        <ele>120.208</ele>
        <time>2021-09-01T14:19:22Z</time>
      </trkpt>
      <trkpt lat="39.438510" lon="3.127981">
        <ele>120.111</ele>
        <time>2021-09-01T14:19:23Z</time>
      </trkpt>
      <trkpt lat="39.438475" lon="3.128025">
        <ele>120.015</ele>
        <time>2021-09-01T14:19:24Z</time>
      </trkpt>
      <trkpt lat="39.438445" lon="3.128070">
        <ele>119.810</ele>
        <time>2021-09-01T14:19:25Z</time>
      </trkpt>
      <trkpt lat="39.438418" lon="3.128118">
        <ele>119.614</ele>
        <time>2021-09-01T14:19:26Z</time>
      </trkpt>
      <trkpt lat="39.438390" lon="3.128167">
        <ele>119.693</ele>
        <time>2021-09-01T14:19:27Z</time>
      </trkpt>
      <trkpt lat="39.438365" lon="3.128218">
        <ele>119.678</ele>
        <time>2021-09-01T14:19:28Z</time>
      </trkpt>
      <trkpt lat="39.438343" lon="3.128271">
        <ele>119.655</ele>
        <time>2021-09-01T14:19:29Z</time>
      </trkpt>
      <trkpt lat="39.438307" lon="3.128356">
        <ele>119.745</ele>
        <time>2021-09-01T14:19:31Z</time>
      </trkpt>
      <trkpt lat="39.438228" lon="3.128375">
        <ele>119.772</ele>
        <time>2021-09-01T14:19:33Z</time>
      </trkpt>
      <trkpt lat="39.438179" lon="3.128356">
        <ele>119.613</ele>
        <time>2021-09-01T14:19:34Z</time>
      </trkpt>
      <trkpt lat="39.438133" lon="3.128345">
        <ele>119.514</ele>
        <time>2021-09-01T14:19:35Z</time>
      </trkpt>
      <trkpt lat="39.438085" lon="3.128345">
        <ele>119.508</ele>
        <time>2021-09-01T14:19:36Z</time>
      </trkpt>
      <trkpt lat="39.438035" lon="3.128342">
        <ele>119.485</ele>
        <time>2021-09-01T14:19:37Z</time>
      </trkpt>
      <trkpt lat="39.437987" lon="3.128333">
        <ele>119.499</ele>
        <time>2021-09-01T14:19:38Z</time>
      </trkpt>
      <trkpt lat="39.437940" lon="3.128321">
        <ele>119.434</ele>
        <time>2021-09-01T14:19:39Z</time>
      </trkpt>
      <trkpt lat="39.437895" lon="3.128317">
        <ele>119.368</ele>
        <time>2021-09-01T14:19:40Z</time>
      </trkpt>
      <trkpt lat="39.437805" lon="3.128312">
        <ele>119.197</ele>
        <time>2021-09-01T14:19:42Z</time>
      </trkpt>
      <trkpt lat="39.437758" lon="3.128306">
        <ele>119.082</ele>
        <time>2021-09-01T14:19:43Z</time>
      </trkpt>
      <trkpt lat="39.437676" lon="3.128292">
        <ele>118.839</ele>
        <time>2021-09-01T14:19:45Z</time>
      </trkpt>
      <trkpt lat="39.437598" lon="3.128292">
        <ele>118.619</ele>
        <time>2021-09-01T14:19:47Z</time>
      </trkpt>
      <trkpt lat="39.437528" lon="3.128302">
        <ele>118.577</ele>
        <time>2021-09-01T14:19:49Z</time>
      </trkpt>
      <trkpt lat="39.437515" lon="3.128397">
        <ele>118.561</ele>
        <time>2021-09-01T14:19:51Z</time>
      </trkpt>
      <trkpt lat="39.437521" lon="3.128505">
        <ele>118.527</ele>
        <time>2021-09-01T14:19:53Z</time>
      </trkpt>
      <trkpt lat="39.437519" lon="3.128621">
        <ele>118.708</ele>
        <time>2021-09-01T14:19:55Z</time>
      </trkpt>
      <trkpt lat="39.437514" lon="3.128736">
        <ele>119.065</ele>
        <time>2021-09-01T14:19:57Z</time>
      </trkpt>
      <trkpt lat="39.437507" lon="3.128797">
        <ele>119.179</ele>
        <time>2021-09-01T14:19:58Z</time>
      </trkpt>
      <trkpt lat="39.437497" lon="3.128859">
        <ele>119.174</ele>
        <time>2021-09-01T14:19:59Z</time>
      </trkpt>
      <trkpt lat="39.437493" lon="3.128922">
        <ele>119.188</ele>
        <time>2021-09-01T14:20:00Z</time>
      </trkpt>
      <trkpt lat="39.437489" lon="3.128982">
        <ele>119.137</ele>
        <time>2021-09-01T14:20:01Z</time>
      </trkpt>
      <trkpt lat="39.437478" lon="3.129095">
        <ele>119.392</ele>
        <time>2021-09-01T14:20:03Z</time>
      </trkpt>
      <trkpt lat="39.437473" lon="3.129208">
        <ele>119.439</ele>
        <time>2021-09-01T14:20:05Z</time>
      </trkpt>
      <trkpt lat="39.437467" lon="3.129269">
        <ele>119.549</ele>
        <time>2021-09-01T14:20:06Z</time>
      </trkpt>
      <trkpt lat="39.437463" lon="3.129334">
        <ele>119.524</ele>
        <time>2021-09-01T14:20:07Z</time>
      </trkpt>
      <trkpt lat="39.437456" lon="3.129392">
        <ele>119.404</ele>
        <time>2021-09-01T14:20:08Z</time>
      </trkpt>
      <trkpt lat="39.437450" lon="3.129457">
        <ele>119.314</ele>
        <time>2021-09-01T14:20:09Z</time>
      </trkpt>
      <trkpt lat="39.437447" lon="3.129516">
        <ele>119.308</ele>
        <time>2021-09-01T14:20:10Z</time>
      </trkpt>
      <trkpt lat="39.437445" lon="3.129583">
        <ele>119.310</ele>
        <time>2021-09-01T14:20:11Z</time>
      </trkpt>
      <trkpt lat="39.437440" lon="3.129642">
        <ele>119.254</ele>
        <time>2021-09-01T14:20:12Z</time>
      </trkpt>
      <trkpt lat="39.437436" lon="3.129707">
        <ele>119.249</ele>
        <time>2021-09-01T14:20:13Z</time>
      </trkpt>
      <trkpt lat="39.437431" lon="3.129768">
        <ele>119.353</ele>
        <time>2021-09-01T14:20:14Z</time>
      </trkpt>
      <trkpt lat="39.437426" lon="3.129828">
        <ele>119.362</ele>
        <time>2021-09-01T14:20:15Z</time>
      </trkpt>
      <trkpt lat="39.437426" lon="3.129892">
        <ele>119.567</ele>
        <time>2021-09-01T14:20:16Z</time>
      </trkpt>
      <trkpt lat="39.437416" lon="3.130005">
        <ele>119.844</ele>
        <time>2021-09-01T14:20:18Z</time>
      </trkpt>
      <trkpt lat="39.437407" lon="3.130121">
        <ele>120.084</ele>
        <time>2021-09-01T14:20:20Z</time>
      </trkpt>
      <trkpt lat="39.437399" lon="3.130234">
        <ele>120.072</ele>
        <time>2021-09-01T14:20:22Z</time>
      </trkpt>
      <trkpt lat="39.437388" lon="3.130339">
        <ele>120.613</ele>
        <time>2021-09-01T14:20:24Z</time>
      </trkpt>
      <trkpt lat="39.437377" lon="3.130450">
        <ele>120.914</ele>
        <time>2021-09-01T14:20:26Z</time>
      </trkpt>
      <trkpt lat="39.437372" lon="3.130514">
        <ele>120.908</ele>
        <time>2021-09-01T14:20:27Z</time>
      </trkpt>
      <trkpt lat="39.437371" lon="3.130583">
        <ele>120.965</ele>
        <time>2021-09-01T14:20:28Z</time>
      </trkpt>
      <trkpt lat="39.437360" lon="3.130644">
        <ele>120.529</ele>
        <time>2021-09-01T14:20:29Z</time>
      </trkpt>
      <trkpt lat="39.437353" lon="3.130702">
        <ele>120.294</ele>
        <time>2021-09-01T14:20:30Z</time>
      </trkpt>
      <trkpt lat="39.437352" lon="3.130765">
        <ele>120.078</ele>
        <time>2021-09-01T14:20:31Z</time>
      </trkpt>
      <trkpt lat="39.437345" lon="3.130829">
        <ele>120.097</ele>
        <time>2021-09-01T14:20:32Z</time>
      </trkpt>
      <trkpt lat="39.437337" lon="3.130893">
        <ele>120.052</ele>
        <time>2021-09-01T14:20:33Z</time>
      </trkpt>
      <trkpt lat="39.437332" lon="3.130956">
        <ele>120.019</ele>
        <time>2021-09-01T14:20:34Z</time>
      </trkpt>
      <trkpt lat="39.437327" lon="3.131015">
        <ele>120.049</ele>
        <time>2021-09-01T14:20:35Z</time>
      </trkpt>
      <trkpt lat="39.437322" lon="3.131080">
        <ele>120.074</ele>
        <time>2021-09-01T14:20:36Z</time>
      </trkpt>
      <trkpt lat="39.437316" lon="3.131142">
        <ele>120.056</ele>
        <time>2021-09-01T14:20:37Z</time>
      </trkpt>
      <trkpt lat="39.437312" lon="3.131203">
        <ele>120.121</ele>
        <time>2021-09-01T14:20:38Z</time>
      </trkpt>
      <trkpt lat="39.437310" lon="3.131265">
        <ele>120.108</ele>
        <time>2021-09-01T14:20:39Z</time>
      </trkpt>
      <trkpt lat="39.437308" lon="3.131324">
        <ele>120.285</ele>
        <time>2021-09-01T14:20:40Z</time>
      </trkpt>
      <trkpt lat="39.437302" lon="3.131384">
        <ele>120.349</ele>
        <time>2021-09-01T14:20:41Z</time>
      </trkpt>
      <trkpt lat="39.437295" lon="3.131442">
        <ele>120.394</ele>
        <time>2021-09-01T14:20:42Z</time>
      </trkpt>
      <trkpt lat="39.437295" lon="3.131501">
        <ele>120.488</ele>
        <time>2021-09-01T14:20:43Z</time>
      </trkpt>
      <trkpt lat="39.437295" lon="3.131602">
        <ele>120.837</ele>
        <time>2021-09-01T14:20:45Z</time>
      </trkpt>
      <trkpt lat="39.437291" lon="3.131664">
        <ele>121.072</ele>
        <time>2021-09-01T14:20:46Z</time>
      </trkpt>
      <trkpt lat="39.437287" lon="3.131728">
        <ele>121.299</ele>
        <time>2021-09-01T14:20:47Z</time>
      </trkpt>
      <trkpt lat="39.437280" lon="3.131788">
        <ele>121.569</ele>
        <time>2021-09-01T14:20:48Z</time>
      </trkpt>
      <trkpt lat="39.437277" lon="3.131847">
        <ele>121.564</ele>
        <time>2021-09-01T14:20:49Z</time>
      </trkpt>
      <trkpt lat="39.437272" lon="3.131913">
        <ele>121.506</ele>
        <time>2021-09-01T14:20:50Z</time>
      </trkpt>
      <trkpt lat="39.437269" lon="3.131977">
        <ele>121.416</ele>
        <time>2021-09-01T14:20:51Z</time>
      </trkpt>
      <trkpt lat="39.437264" lon="3.132042">
        <ele>121.208</ele>
        <time>2021-09-01T14:20:52Z</time>
      </trkpt>
      <trkpt lat="39.437258" lon="3.132103">
        <ele>121.044</ele>
        <time>2021-09-01T14:20:53Z</time>
      </trkpt>
      <trkpt lat="39.437256" lon="3.132172">
        <ele>120.998</ele>
        <time>2021-09-01T14:20:54Z</time>
      </trkpt>
      <trkpt lat="39.437244" lon="3.132243">
        <ele>120.973</ele>
        <time>2021-09-01T14:20:55Z</time>
      </trkpt>
      <trkpt lat="39.437238" lon="3.132313">
        <ele>120.957</ele>
        <time>2021-09-01T14:20:56Z</time>
      </trkpt>
      <trkpt lat="39.437234" lon="3.132382">
        <ele>120.996</ele>
        <time>2021-09-01T14:20:57Z</time>
      </trkpt>
      <trkpt lat="39.437223" lon="3.132446">
        <ele>120.991</ele>
        <time>2021-09-01T14:20:58Z</time>
      </trkpt>
      <trkpt lat="39.437215" lon="3.132549">
        <ele>121.038</ele>
        <time>2021-09-01T14:21:00Z</time>
      </trkpt>
      <trkpt lat="39.437204" lon="3.132653">
        <ele>121.188</ele>
        <time>2021-09-01T14:21:02Z</time>
      </trkpt>
      <trkpt lat="39.437195" lon="3.132758">
        <ele>121.196</ele>
        <time>2021-09-01T14:21:04Z</time>
      </trkpt>
      <trkpt lat="39.437188" lon="3.132831">
        <ele>121.131</ele>
        <time>2021-09-01T14:21:06Z</time>
      </trkpt>
      <trkpt lat="39.437139" lon="3.132844">
        <ele>121.024</ele>
        <time>2021-09-01T14:21:09Z</time>
      </trkpt>
      <trkpt lat="39.437092" lon="3.132780">
        <ele>121.008</ele>
        <time>2021-09-01T14:21:11Z</time>
      </trkpt>
      <trkpt lat="39.437053" lon="3.132707">
        <ele>121.057</ele>
        <time>2021-09-01T14:21:13Z</time>
      </trkpt>
      <trkpt lat="39.437010" lon="3.132638">
        <ele>121.091</ele>
        <time>2021-09-01T14:21:15Z</time>
      </trkpt>
      <trkpt lat="39.436952" lon="3.132548">
        <ele>120.966</ele>
        <time>2021-09-01T14:21:17Z</time>
      </trkpt>
      <trkpt lat="39.436926" lon="3.132500">
        <ele>120.830</ele>
        <time>2021-09-01T14:21:18Z</time>
      </trkpt>
      <trkpt lat="39.436893" lon="3.132455">
        <ele>120.789</ele>
        <time>2021-09-01T14:21:19Z</time>
      </trkpt>
      <trkpt lat="39.436843" lon="3.132354">
        <ele>120.674</ele>
        <time>2021-09-01T14:21:21Z</time>
      </trkpt>
      <trkpt lat="39.436822" lon="3.132290">
        <ele>120.521</ele>
        <time>2021-09-01T14:21:22Z</time>
      </trkpt>
      <trkpt lat="39.436802" lon="3.132228">
        <ele>120.591</ele>
        <time>2021-09-01T14:21:23Z</time>
      </trkpt>
      <trkpt lat="39.436776" lon="3.132174">
        <ele>120.567</ele>
        <time>2021-09-01T14:21:24Z</time>
      </trkpt>
      <trkpt lat="39.436754" lon="3.132122">
        <ele>120.581</ele>
        <time>2021-09-01T14:21:25Z</time>
      </trkpt>
      <trkpt lat="39.436740" lon="3.132064">
        <ele>120.519</ele>
        <time>2021-09-01T14:21:26Z</time>
      </trkpt>
      <trkpt lat="39.436725" lon="3.132000">
        <ele>120.508</ele>
        <time>2021-09-01T14:21:27Z</time>
      </trkpt>
      <trkpt lat="39.436717" lon="3.131920">
        <ele>120.484</ele>
        <time>2021-09-01T14:21:28Z</time>
      </trkpt>
      <trkpt lat="39.436703" lon="3.131859">
        <ele>120.468</ele>
        <time>2021-09-01T14:21:29Z</time>
      </trkpt>
      <trkpt lat="39.436692" lon="3.131801">
        <ele>120.413</ele>
        <time>2021-09-01T14:21:30Z</time>
      </trkpt>
      <trkpt lat="39.436680" lon="3.131737">
        <ele>120.497</ele>
        <time>2021-09-01T14:21:31Z</time>
      </trkpt>
      <trkpt lat="39.436668" lon="3.131674">
        <ele>120.476</ele>
        <time>2021-09-01T14:21:32Z</time>
      </trkpt>
      <trkpt lat="39.436657" lon="3.131605">
        <ele>120.411</ele>
        <time>2021-09-01T14:21:33Z</time>
      </trkpt>
      <trkpt lat="39.436645" lon="3.131532">
        <ele>120.358</ele>
        <time>2021-09-01T14:21:34Z</time>
      </trkpt>
      <trkpt lat="39.436634" lon="3.131458">
        <ele>120.088</ele>
        <time>2021-09-01T14:21:35Z</time>
      </trkpt>
      <trkpt lat="39.436631" lon="3.131382">
        <ele>119.766</ele>
        <time>2021-09-01T14:21:36Z</time>
      </trkpt>
      <trkpt lat="39.436622" lon="3.131319">
        <ele>119.529</ele>
        <time>2021-09-01T14:21:37Z</time>
      </trkpt>
      <trkpt lat="39.436607" lon="3.131259">
        <ele>119.321</ele>
        <time>2021-09-01T14:21:38Z</time>
      </trkpt>
      <trkpt lat="39.436591" lon="3.131186">
        <ele>119.208</ele>
        <time>2021-09-01T14:21:39Z</time>
      </trkpt>
      <trkpt lat="39.436574" lon="3.131110">
        <ele>119.234</ele>
        <time>2021-09-01T14:21:40Z</time>
      </trkpt>
      <trkpt lat="39.436555" lon="3.131034">
        <ele>119.398</ele>
        <time>2021-09-01T14:21:41Z</time>
      </trkpt>
      <trkpt lat="39.436534" lon="3.130963">
        <ele>119.463</ele>
        <time>2021-09-01T14:21:42Z</time>
      </trkpt>
      <trkpt lat="39.436520" lon="3.130898">
        <ele>119.487</ele>
        <time>2021-09-01T14:21:43Z</time>
      </trkpt>
      <trkpt lat="39.436499" lon="3.130838">
        <ele>119.376</ele>
        <time>2021-09-01T14:21:44Z</time>
      </trkpt>
      <trkpt lat="39.436485" lon="3.130769">
        <ele>119.161</ele>
        <time>2021-09-01T14:21:45Z</time>
      </trkpt>
      <trkpt lat="39.436468" lon="3.130695">
        <ele>118.938</ele>
        <time>2021-09-01T14:21:46Z</time>
      </trkpt>
      <trkpt lat="39.436457" lon="3.130623">
        <ele>118.838</ele>
        <time>2021-09-01T14:21:47Z</time>
      </trkpt>
      <trkpt lat="39.436446" lon="3.130541">
        <ele>118.724</ele>
        <time>2021-09-01T14:21:48Z</time>
      </trkpt>
      <trkpt lat="39.436434" lon="3.130470">
        <ele>118.604</ele>
        <time>2021-09-01T14:21:49Z</time>
      </trkpt>
      <trkpt lat="39.436417" lon="3.130393">
        <ele>118.614</ele>
        <time>2021-09-01T14:21:50Z</time>
      </trkpt>
      <trkpt lat="39.436402" lon="3.130319">
        <ele>118.508</ele>
        <time>2021-09-01T14:21:51Z</time>
      </trkpt>
      <trkpt lat="39.436387" lon="3.130249">
        <ele>118.490</ele>
        <time>2021-09-01T14:21:52Z</time>
      </trkpt>
      <trkpt lat="39.436376" lon="3.130185">
        <ele>118.314</ele>
        <time>2021-09-01T14:21:53Z</time>
      </trkpt>
      <trkpt lat="39.436359" lon="3.130113">
        <ele>118.289</ele>
        <time>2021-09-01T14:21:54Z</time>
      </trkpt>
      <trkpt lat="39.436341" lon="3.130040">
        <ele>118.133</ele>
        <time>2021-09-01T14:21:55Z</time>
      </trkpt>
      <trkpt lat="39.436322" lon="3.129960">
        <ele>118.142</ele>
        <time>2021-09-01T14:21:56Z</time>
      </trkpt>
      <trkpt lat="39.436299" lon="3.129884">
        <ele>118.047</ele>
        <time>2021-09-01T14:21:57Z</time>
      </trkpt>
      <trkpt lat="39.436279" lon="3.129809">
        <ele>117.984</ele>
        <time>2021-09-01T14:21:58Z</time>
      </trkpt>
      <trkpt lat="39.436261" lon="3.129741">
        <ele>117.874</ele>
        <time>2021-09-01T14:21:59Z</time>
      </trkpt>
      <trkpt lat="39.436242" lon="3.129671">
        <ele>117.714</ele>
        <time>2021-09-01T14:22:00Z</time>
      </trkpt>
      <trkpt lat="39.436221" lon="3.129604">
        <ele>117.554</ele>
        <time>2021-09-01T14:22:01Z</time>
      </trkpt>
      <trkpt lat="39.436204" lon="3.129542">
        <ele>117.209</ele>
        <time>2021-09-01T14:22:02Z</time>
      </trkpt>
      <trkpt lat="39.436185" lon="3.129483">
        <ele>117.008</ele>
        <time>2021-09-01T14:22:03Z</time>
      </trkpt>
      <trkpt lat="39.436164" lon="3.129423">
        <ele>116.899</ele>
        <time>2021-09-01T14:22:04Z</time>
      </trkpt>
      <trkpt lat="39.436142" lon="3.129366">
        <ele>116.723</ele>
        <time>2021-09-01T14:22:05Z</time>
      </trkpt>
      <trkpt lat="39.436120" lon="3.129307">
        <ele>116.638</ele>
        <time>2021-09-01T14:22:06Z</time>
      </trkpt>
      <trkpt lat="39.436096" lon="3.129254">
        <ele>116.632</ele>
        <time>2021-09-01T14:22:07Z</time>
      </trkpt>
      <trkpt lat="39.436072" lon="3.129195">
        <ele>116.621</ele>
        <time>2021-09-01T14:22:08Z</time>
      </trkpt>
      <trkpt lat="39.436060" lon="3.129135">
        <ele>116.596</ele>
        <time>2021-09-01T14:22:09Z</time>
      </trkpt>
      <trkpt lat="39.436055" lon="3.129076">
        <ele>116.583</ele>
        <time>2021-09-01T14:22:10Z</time>
      </trkpt>
      <trkpt lat="39.436043" lon="3.129018">
        <ele>116.453</ele>
        <time>2021-09-01T14:22:11Z</time>
      </trkpt>
      <trkpt lat="39.436037" lon="3.128959">
        <ele>116.447</ele>
        <time>2021-09-01T14:22:12Z</time>
      </trkpt>
      <trkpt lat="39.436040" lon="3.128889">
        <ele>116.329</ele>
        <time>2021-09-01T14:22:13Z</time>
      </trkpt>
      <trkpt lat="39.436039" lon="3.128821">
        <ele>116.221</ele>
        <time>2021-09-01T14:22:14Z</time>
      </trkpt>
      <trkpt lat="39.436036" lon="3.128757">
        <ele>116.108</ele>
        <time>2021-09-01T14:22:15Z</time>
      </trkpt>
      <trkpt lat="39.436036" lon="3.128694">
        <ele>116.082</ele>
        <time>2021-09-01T14:22:16Z</time>
      </trkpt>
      <trkpt lat="39.436041" lon="3.128629">
        <ele>115.846</ele>
        <time>2021-09-01T14:22:17Z</time>
      </trkpt>
      <trkpt lat="39.436045" lon="3.128571">
        <ele>115.731</ele>
        <time>2021-09-01T14:22:18Z</time>
      </trkpt>
      <trkpt lat="39.436050" lon="3.128512">
        <ele>115.745</ele>
        <time>2021-09-01T14:22:19Z</time>
      </trkpt>
      <trkpt lat="39.436054" lon="3.128451">
        <ele>115.664</ele>
        <time>2021-09-01T14:22:20Z</time>
      </trkpt>
      <trkpt lat="39.436055" lon="3.128388">
        <ele>115.649</ele>
        <time>2021-09-01T14:22:21Z</time>
      </trkpt>
      <trkpt lat="39.436060" lon="3.128324">
        <ele>115.556</ele>
        <time>2021-09-01T14:22:22Z</time>
      </trkpt>
      <trkpt lat="39.436054" lon="3.128266">
        <ele>115.516</ele>
        <time>2021-09-01T14:22:23Z</time>
      </trkpt>
      <trkpt lat="39.436026" lon="3.128209">
        <ele>115.448</ele>
        <time>2021-09-01T14:22:24Z</time>
      </trkpt>
      <trkpt lat="39.435986" lon="3.128166">
        <ele>115.361</ele>
        <time>2021-09-01T14:22:25Z</time>
      </trkpt>
      <trkpt lat="39.435942" lon="3.128121">
        <ele>115.317</ele>
        <time>2021-09-01T14:22:26Z</time>
      </trkpt>
      <trkpt lat="39.435898" lon="3.128079">
        <ele>115.208</ele>
        <time>2021-09-01T14:22:27Z</time>
      </trkpt>
      <trkpt lat="39.435852" lon="3.128030">
        <ele>115.162</ele>
        <time>2021-09-01T14:22:28Z</time>
      </trkpt>
      <trkpt lat="39.435810" lon="3.127981">
        <ele>115.056</ele>
        <time>2021-09-01T14:22:29Z</time>
      </trkpt>
      <trkpt lat="39.435767" lon="3.127932">
        <ele>115.091</ele>
        <time>2021-09-01T14:22:30Z</time>
      </trkpt>
      <trkpt lat="39.435723" lon="3.127883">
        <ele>114.945</ele>
        <time>2021-09-01T14:22:31Z</time>
      </trkpt>
      <trkpt lat="39.435674" lon="3.127835">
        <ele>114.714</ele>
        <time>2021-09-01T14:22:32Z</time>
      </trkpt>
      <trkpt lat="39.435623" lon="3.127790">
        <ele>114.649</ele>
        <time>2021-09-01T14:22:33Z</time>
      </trkpt>
      <trkpt lat="39.435572" lon="3.127746">
        <ele>114.486</ele>
        <time>2021-09-01T14:22:34Z</time>
      </trkpt>
      <trkpt lat="39.435515" lon="3.127706">
        <ele>114.256</ele>
        <time>2021-09-01T14:22:35Z</time>
      </trkpt>
      <trkpt lat="39.435458" lon="3.127656">
        <ele>114.093</ele>
        <time>2021-09-01T14:22:36Z</time>
      </trkpt>
      <trkpt lat="39.435399" lon="3.127608">
        <ele>113.965</ele>
        <time>2021-09-01T14:22:37Z</time>
      </trkpt>
      <trkpt lat="39.435338" lon="3.127562">
        <ele>113.721</ele>
        <time>2021-09-01T14:22:38Z</time>
      </trkpt>
      <trkpt lat="39.435275" lon="3.127511">
        <ele>113.508</ele>
        <time>2021-09-01T14:22:39Z</time>
      </trkpt>
      <trkpt lat="39.435212" lon="3.127453">
        <ele>113.377</ele>
        <time>2021-09-01T14:22:40Z</time>
      </trkpt>
      <trkpt lat="39.435152" lon="3.127396">
        <ele>113.181</ele>
        <time>2021-09-01T14:22:41Z</time>
      </trkpt>
      <trkpt lat="39.435096" lon="3.127351">
        <ele>112.846</ele>
        <time>2021-09-01T14:22:42Z</time>
      </trkpt>
      <trkpt lat="39.435042" lon="3.127304">
        <ele>112.630</ele>
        <time>2021-09-01T14:22:43Z</time>
      </trkpt>
      <trkpt lat="39.434987" lon="3.127254">
        <ele>112.559</ele>
        <time>2021-09-01T14:22:44Z</time>
      </trkpt>
      <trkpt lat="39.434934" lon="3.127203">
        <ele>112.494</ele>
        <time>2021-09-01T14:22:45Z</time>
      </trkpt>
      <trkpt lat="39.434878" lon="3.127153">
        <ele>112.221</ele>
        <time>2021-09-01T14:22:46Z</time>
      </trkpt>
      <trkpt lat="39.434824" lon="3.127099">
        <ele>112.191</ele>
        <time>2021-09-01T14:22:47Z</time>
      </trkpt>
      <trkpt lat="39.434764" lon="3.127051">
        <ele>112.011</ele>
        <time>2021-09-01T14:22:48Z</time>
      </trkpt>
      <trkpt lat="39.434705" lon="3.127005">
        <ele>112.021</ele>
        <time>2021-09-01T14:22:49Z</time>
      </trkpt>
      <trkpt lat="39.434645" lon="3.126963">
        <ele>111.903</ele>
        <time>2021-09-01T14:22:50Z</time>
      </trkpt>
      <trkpt lat="39.434588" lon="3.126914">
        <ele>111.808</ele>
        <time>2021-09-01T14:22:51Z</time>
      </trkpt>
      <trkpt lat="39.434530" lon="3.126858">
        <ele>111.689</ele>
        <time>2021-09-01T14:22:52Z</time>
      </trkpt>
      <trkpt lat="39.434464" lon="3.126804">
        <ele>111.133</ele>
        <time>2021-09-01T14:22:53Z</time>
      </trkpt>
      <trkpt lat="39.434401" lon="3.126745">
        <ele>110.698</ele>
        <time>2021-09-01T14:22:54Z</time>
      </trkpt>
      <trkpt lat="39.434342" lon="3.126700">
        <ele>110.162</ele>
        <time>2021-09-01T14:22:55Z</time>
      </trkpt>
      <trkpt lat="39.434286" lon="3.126642">
        <ele>109.561</ele>
        <time>2021-09-01T14:22:56Z</time>
      </trkpt>
      <trkpt lat="39.434227" lon="3.126589">
        <ele>109.046</ele>
        <time>2021-09-01T14:22:57Z</time>
      </trkpt>
      <trkpt lat="39.434167" lon="3.126538">
        <ele>108.953</ele>
        <time>2021-09-01T14:22:58Z</time>
      </trkpt>
      <trkpt lat="39.434109" lon="3.126492">
        <ele>108.563</ele>
        <time>2021-09-01T14:22:59Z</time>
      </trkpt>
      <trkpt lat="39.434046" lon="3.126442">
        <ele>108.333</ele>
        <time>2021-09-01T14:23:00Z</time>
      </trkpt>
      <trkpt lat="39.433982" lon="3.126401">
        <ele>108.123</ele>
        <time>2021-09-01T14:23:01Z</time>
      </trkpt>
      <trkpt lat="39.433922" lon="3.126350">
        <ele>108.015</ele>
        <time>2021-09-01T14:23:02Z</time>
      </trkpt>
      <trkpt lat="39.433852" lon="3.126297">
        <ele>107.708</ele>
        <time>2021-09-01T14:23:03Z</time>
      </trkpt>
      <trkpt lat="39.433790" lon="3.126239">
        <ele>107.341</ele>
        <time>2021-09-01T14:23:04Z</time>
      </trkpt>
      <trkpt lat="39.433726" lon="3.126188">
        <ele>106.715</ele>
        <time>2021-09-01T14:23:05Z</time>
      </trkpt>
      <trkpt lat="39.433670" lon="3.126124">
        <ele>106.120</ele>
        <time>2021-09-01T14:23:06Z</time>
      </trkpt>
      <trkpt lat="39.433608" lon="3.126064">
        <ele>105.234</ele>
        <time>2021-09-01T14:23:07Z</time>
      </trkpt>
      <trkpt lat="39.433545" lon="3.126005">
        <ele>104.213</ele>
        <time>2021-09-01T14:23:08Z</time>
      </trkpt>
      <trkpt lat="39.433486" lon="3.125951">
        <ele>103.358</ele>
        <time>2021-09-01T14:23:09Z</time>
      </trkpt>
      <trkpt lat="39.433428" lon="3.125905">
        <ele>102.575</ele>
        <time>2021-09-01T14:23:10Z</time>
      </trkpt>
      <trkpt lat="39.433364" lon="3.125883">
        <ele>101.665</ele>
        <time>2021-09-01T14:23:11Z</time>
      </trkpt>
      <trkpt lat="39.433295" lon="3.125885">
        <ele>100.963</ele>
        <time>2021-09-01T14:23:12Z</time>
      </trkpt>
      <trkpt lat="39.433223" lon="3.125880">
        <ele>100.344</ele>
        <time>2021-09-01T14:23:13Z</time>
      </trkpt>
      <trkpt lat="39.433149" lon="3.125862">
        <ele>99.818</ele>
        <time>2021-09-01T14:23:14Z</time>
      </trkpt>
      <trkpt lat="39.433077" lon="3.125847">
        <ele>99.308</ele>
        <time>2021-09-01T14:23:15Z</time>
      </trkpt>
      <trkpt lat="39.433006" lon="3.125835">
        <ele>99.114</ele>
        <time>2021-09-01T14:23:16Z</time>
      </trkpt>
      <trkpt lat="39.432938" lon="3.125818">
        <ele>99.058</ele>
        <time>2021-09-01T14:23:17Z</time>
      </trkpt>
      <trkpt lat="39.432870" lon="3.125813">
        <ele>98.883</ele>
        <time>2021-09-01T14:23:18Z</time>
      </trkpt>
      <trkpt lat="39.432800" lon="3.125824">
        <ele>98.737</ele>
        <time>2021-09-01T14:23:19Z</time>
      </trkpt>
      <trkpt lat="39.432734" lon="3.125820">
        <ele>98.756</ele>
        <time>2021-09-01T14:23:20Z</time>
      </trkpt>
      <trkpt lat="39.432674" lon="3.125806">
        <ele>98.631</ele>
        <time>2021-09-01T14:23:21Z</time>
      </trkpt>
      <trkpt lat="39.432619" lon="3.125780">
        <ele>98.698</ele>
        <time>2021-09-01T14:23:22Z</time>
      </trkpt>
      <trkpt lat="39.432569" lon="3.125743">
        <ele>98.678</ele>
        <time>2021-09-01T14:23:23Z</time>
      </trkpt>
      <trkpt lat="39.432509" lon="3.125682">
        <ele>98.614</ele>
        <time>2021-09-01T14:23:25Z</time>
      </trkpt>
      <trkpt lat="39.432472" lon="3.125639">
        <ele>98.754</ele>
        <time>2021-09-01T14:23:27Z</time>
      </trkpt>
      <trkpt lat="39.432413" lon="3.125603">
        <ele>99.309</ele>
        <time>2021-09-01T14:23:30Z</time>
      </trkpt>
      <trkpt lat="39.432367" lon="3.125587">
        <ele>99.808</ele>
        <time>2021-09-01T14:23:32Z</time>
      </trkpt>
      <trkpt lat="39.432315" lon="3.125566">
        <ele>100.279</ele>
        <time>2021-09-01T14:23:34Z</time>
      </trkpt>
      <trkpt lat="39.432271" lon="3.125545">
        <ele>100.723</ele>
        <time>2021-09-01T14:23:36Z</time>
      </trkpt>
      <trkpt lat="39.432209" lon="3.125526">
        <ele>101.528</ele>
        <time>2021-09-01T14:23:39Z</time>
      </trkpt>
      <trkpt lat="39.432154" lon="3.125505">
        <ele>101.982</ele>
        <time>2021-09-01T14:23:41Z</time>
      </trkpt>
      <trkpt lat="39.432103" lon="3.125489">
        <ele>102.331</ele>
        <time>2021-09-01T14:23:43Z</time>
      </trkpt>
      <trkpt lat="39.432043" lon="3.125473">
        <ele>102.546</ele>
        <time>2021-09-01T14:23:45Z</time>
      </trkpt>
      <trkpt lat="39.431960" lon="3.125461">
        <ele>102.713</ele>
        <time>2021-09-01T14:23:47Z</time>
      </trkpt>
      <trkpt lat="39.431911" lon="3.125471">
        <ele>102.763</ele>
        <time>2021-09-01T14:23:48Z</time>
      </trkpt>
      <trkpt lat="39.431867" lon="3.125488">
        <ele>102.675</ele>
        <time>2021-09-01T14:23:49Z</time>
      </trkpt>
      <trkpt lat="39.431816" lon="3.125505">
        <ele>102.528</ele>
        <time>2021-09-01T14:23:50Z</time>
      </trkpt>
      <trkpt lat="39.431762" lon="3.125508">
        <ele>102.220</ele>
        <time>2021-09-01T14:23:51Z</time>
      </trkpt>
      <trkpt lat="39.431698" lon="3.125495">
        <ele>101.708</ele>
        <time>2021-09-01T14:23:52Z</time>
      </trkpt>
      <trkpt lat="39.431633" lon="3.125468">
        <ele>100.875</ele>
        <time>2021-09-01T14:23:53Z</time>
      </trkpt>
      <trkpt lat="39.431562" lon="3.125416">
        <ele>99.979</ele>
        <time>2021-09-01T14:23:54Z</time>
      </trkpt>
      <trkpt lat="39.431492" lon="3.125365">
        <ele>98.834</ele>
        <time>2021-09-01T14:23:55Z</time>
      </trkpt>
      <trkpt lat="39.431423" lon="3.125320">
        <ele>97.998</ele>
        <time>2021-09-01T14:23:56Z</time>
      </trkpt>
      <trkpt lat="39.431354" lon="3.125279">
        <ele>97.367</ele>
        <time>2021-09-01T14:23:57Z</time>
      </trkpt>
      <trkpt lat="39.431279" lon="3.125241">
        <ele>97.012</ele>
        <time>2021-09-01T14:23:58Z</time>
      </trkpt>
      <trkpt lat="39.431204" lon="3.125203">
        <ele>96.989</ele>
        <time>2021-09-01T14:23:59Z</time>
      </trkpt>
      <trkpt lat="39.431131" lon="3.125165">
        <ele>96.899</ele>
        <time>2021-09-01T14:24:00Z</time>
      </trkpt>
      <trkpt lat="39.431060" lon="3.125130">
        <ele>96.554</ele>
        <time>2021-09-01T14:24:01Z</time>
      </trkpt>
      <trkpt lat="39.430988" lon="3.125094">
        <ele>96.156</ele>
        <time>2021-09-01T14:24:02Z</time>
      </trkpt>
      <trkpt lat="39.430918" lon="3.125062">
        <ele>96.011</ele>
        <time>2021-09-01T14:24:03Z</time>
      </trkpt>
      <trkpt lat="39.430850" lon="3.125033">
        <ele>96.008</ele>
        <time>2021-09-01T14:24:04Z</time>
      </trkpt>
      <trkpt lat="39.430785" lon="3.125004">
        <ele>96.043</ele>
        <time>2021-09-01T14:24:05Z</time>
      </trkpt>
      <trkpt lat="39.430717" lon="3.124986">
        <ele>96.247</ele>
        <time>2021-09-01T14:24:06Z</time>
      </trkpt>
      <trkpt lat="39.430657" lon="3.124967">
        <ele>96.372</ele>
        <time>2021-09-01T14:24:07Z</time>
      </trkpt>
      <trkpt lat="39.430601" lon="3.124957">
        <ele>96.486</ele>
        <time>2021-09-01T14:24:08Z</time>
      </trkpt>
      <trkpt lat="39.430549" lon="3.124949">
        <ele>96.555</ele>
        <time>2021-09-01T14:24:09Z</time>
      </trkpt>
      <trkpt lat="39.430500" lon="3.124942">
        <ele>96.630</ele>
        <time>2021-09-01T14:24:10Z</time>
      </trkpt>
      <trkpt lat="39.430450" lon="3.124929">
        <ele>96.897</ele>
        <time>2021-09-01T14:24:11Z</time>
      </trkpt>
      <trkpt lat="39.430403" lon="3.124913">
        <ele>96.927</ele>
        <time>2021-09-01T14:24:12Z</time>
      </trkpt>
      <trkpt lat="39.430360" lon="3.124890">
        <ele>97.013</ele>
        <time>2021-09-01T14:24:13Z</time>
      </trkpt>
      <trkpt lat="39.430315" lon="3.124867">
        <ele>97.243</ele>
        <time>2021-09-01T14:24:14Z</time>
      </trkpt>
      <trkpt lat="39.430266" lon="3.124831">
        <ele>97.407</ele>
        <time>2021-09-01T14:24:15Z</time>
      </trkpt>
      <trkpt lat="39.430217" lon="3.124795">
        <ele>97.508</ele>
        <time>2021-09-01T14:24:16Z</time>
      </trkpt>
      <trkpt lat="39.430186" lon="3.124747">
        <ele>97.759</ele>
        <time>2021-09-01T14:24:17Z</time>
      </trkpt>
      <trkpt lat="39.430162" lon="3.124690">
        <ele>97.783</ele>
        <time>2021-09-01T14:24:18Z</time>
      </trkpt>
      <trkpt lat="39.430144" lon="3.124627">
        <ele>97.758</ele>
        <time>2021-09-01T14:24:19Z</time>
      </trkpt>
      <trkpt lat="39.430123" lon="3.124564">
        <ele>97.512</ele>
        <time>2021-09-01T14:24:20Z</time>
      </trkpt>
      <trkpt lat="39.430095" lon="3.124501">
        <ele>97.431</ele>
        <time>2021-09-01T14:24:21Z</time>
      </trkpt>
      <trkpt lat="39.430075" lon="3.124437">
        <ele>97.236</ele>
        <time>2021-09-01T14:24:22Z</time>
      </trkpt>
      <trkpt lat="39.430051" lon="3.124375">
        <ele>97.133</ele>
        <time>2021-09-01T14:24:23Z</time>
      </trkpt>
      <trkpt lat="39.430026" lon="3.124311">
        <ele>97.113</ele>
        <time>2021-09-01T14:24:24Z</time>
      </trkpt>
      <trkpt lat="39.430005" lon="3.124248">
        <ele>97.156</ele>
        <time>2021-09-01T14:24:25Z</time>
      </trkpt>
      <trkpt lat="39.429980" lon="3.124181">
        <ele>97.159</ele>
        <time>2021-09-01T14:24:26Z</time>
      </trkpt>
      <trkpt lat="39.429952" lon="3.124110">
        <ele>97.014</ele>
        <time>2021-09-01T14:24:27Z</time>
      </trkpt>
      <trkpt lat="39.429924" lon="3.124046">
        <ele>96.908</ele>
        <time>2021-09-01T14:24:28Z</time>
      </trkpt>
      <trkpt lat="39.429900" lon="3.123987">
        <ele>96.733</ele>
        <time>2021-09-01T14:24:29Z</time>
      </trkpt>
      <trkpt lat="39.429877" lon="3.123921">
        <ele>96.487</ele>
        <time>2021-09-01T14:24:30Z</time>
      </trkpt>
      <trkpt lat="39.429828" lon="3.123832">
        <ele>96.142</ele>
        <time>2021-09-01T14:24:32Z</time>
      </trkpt>
      <trkpt lat="39.429758" lon="3.123815">
        <ele>96.076</ele>
        <time>2021-09-01T14:24:34Z</time>
      </trkpt>
      <trkpt lat="39.429688" lon="3.123869">
        <ele>96.135</ele>
        <time>2021-09-01T14:24:36Z</time>
      </trkpt>
      <trkpt lat="39.429613" lon="3.123919">
        <ele>96.180</ele>
        <time>2021-09-01T14:24:38Z</time>
      </trkpt>
      <trkpt lat="39.429534" lon="3.123975">
        <ele>96.297</ele>
        <time>2021-09-01T14:24:40Z</time>
      </trkpt>
      <trkpt lat="39.429494" lon="3.124004">
        <ele>96.477</ele>
        <time>2021-09-01T14:24:41Z</time>
      </trkpt>
      <trkpt lat="39.429424" lon="3.124059">
        <ele>96.712</ele>
        <time>2021-09-01T14:24:43Z</time>
      </trkpt>
      <trkpt lat="39.429357" lon="3.124098">
        <ele>97.032</ele>
        <time>2021-09-01T14:24:45Z</time>
      </trkpt>
      <trkpt lat="39.429294" lon="3.124126">
        <ele>97.105</ele>
        <time>2021-09-01T14:24:47Z</time>
      </trkpt>
      <trkpt lat="39.429240" lon="3.124107">
        <ele>97.108</ele>
        <time>2021-09-01T14:24:49Z</time>
      </trkpt>
      <trkpt lat="39.429190" lon="3.124045">
        <ele>97.179</ele>
        <time>2021-09-01T14:24:51Z</time>
      </trkpt>
      <trkpt lat="39.429125" lon="3.123985">
        <ele>97.063</ele>
        <time>2021-09-01T14:24:53Z</time>
      </trkpt>
      <trkpt lat="39.429053" lon="3.123921">
        <ele>96.598</ele>
        <time>2021-09-01T14:24:55Z</time>
      </trkpt>
      <trkpt lat="39.429021" lon="3.123866">
        <ele>96.242</ele>
        <time>2021-09-01T14:24:56Z</time>
      </trkpt>
      <trkpt lat="39.428985" lon="3.123801">
        <ele>95.911</ele>
        <time>2021-09-01T14:24:57Z</time>
      </trkpt>
      <trkpt lat="39.428948" lon="3.123741">
        <ele>95.546</ele>
        <time>2021-09-01T14:24:58Z</time>
      </trkpt>
      <trkpt lat="39.428915" lon="3.123696">
        <ele>95.143</ele>
        <time>2021-09-01T14:24:59Z</time>
      </trkpt>
      <trkpt lat="39.428858" lon="3.123670">
        <ele>94.453</ele>
        <time>2021-09-01T14:25:01Z</time>
      </trkpt>
      <trkpt lat="39.428806" lon="3.123682">
        <ele>94.541</ele>
        <time>2021-09-01T14:25:03Z</time>
      </trkpt>
      <trkpt lat="39.428754" lon="3.123701">
        <ele>95.181</ele>
        <time>2021-09-01T14:25:05Z</time>
      </trkpt>
      <trkpt lat="39.428701" lon="3.123724">
        <ele>95.609</ele>
        <time>2021-09-01T14:25:07Z</time>
      </trkpt>
      <trkpt lat="39.428651" lon="3.123762">
        <ele>95.908</ele>
        <time>2021-09-01T14:25:09Z</time>
      </trkpt>
      <trkpt lat="39.428600" lon="3.123783">
        <ele>96.362</ele>
        <time>2021-09-01T14:25:11Z</time>
      </trkpt>
      <trkpt lat="39.428553" lon="3.123800">
        <ele>96.886</ele>
        <time>2021-09-01T14:25:13Z</time>
      </trkpt>
      <trkpt lat="39.428508" lon="3.123824">
        <ele>97.271</ele>
        <time>2021-09-01T14:25:15Z</time>
      </trkpt>
      <trkpt lat="39.428463" lon="3.123840">
        <ele>97.655</ele>
        <time>2021-09-01T14:25:17Z</time>
      </trkpt>
      <trkpt lat="39.428419" lon="3.123866">
        <ele>97.984</ele>
        <time>2021-09-01T14:25:19Z</time>
      </trkpt>
      <trkpt lat="39.428371" lon="3.123886">
        <ele>98.339</ele>
        <time>2021-09-01T14:25:21Z</time>
      </trkpt>
      <trkpt lat="39.428306" lon="3.123895">
        <ele>98.786</ele>
        <time>2021-09-01T14:25:24Z</time>
      </trkpt>
      <trkpt lat="39.428250" lon="3.123869">
        <ele>99.256</ele>
        <time>2021-09-01T14:25:27Z</time>
      </trkpt>
      <trkpt lat="39.428211" lon="3.123837">
        <ele>99.224</ele>
        <time>2021-09-01T14:25:29Z</time>
      </trkpt>
      <trkpt lat="39.428183" lon="3.123766">
        <ele>99.604</ele>
        <time>2021-09-01T14:25:32Z</time>
      </trkpt>
      <trkpt lat="39.428170" lon="3.123710">
        <ele>100.014</ele>
        <time>2021-09-01T14:25:34Z</time>
      </trkpt>
      <trkpt lat="39.428161" lon="3.123647">
        <ele>100.508</ele>
        <time>2021-09-01T14:25:36Z</time>
      </trkpt>
      <trkpt lat="39.428150" lon="3.123585">
        <ele>100.990</ele>
        <time>2021-09-01T14:25:38Z</time>
      </trkpt>
      <trkpt lat="39.428138" lon="3.123505">
        <ele>101.654</ele>
        <time>2021-09-01T14:25:41Z</time>
      </trkpt>
      <trkpt lat="39.428116" lon="3.123424">
        <ele>102.449</ele>
        <time>2021-09-01T14:25:44Z</time>
      </trkpt>
      <trkpt lat="39.428099" lon="3.123354">
        <ele>103.113</ele>
        <time>2021-09-01T14:25:47Z</time>
      </trkpt>
      <trkpt lat="39.428073" lon="3.123274">
        <ele>103.842</ele>
        <time>2021-09-01T14:25:50Z</time>
      </trkpt>
      <trkpt lat="39.428054" lon="3.123210">
        <ele>104.687</ele>
        <time>2021-09-01T14:25:53Z</time>
      </trkpt>
      <trkpt lat="39.428029" lon="3.123145">
        <ele>105.764</ele>
        <time>2021-09-01T14:25:56Z</time>
      </trkpt>
      <trkpt lat="39.428009" lon="3.123088">
        <ele>106.544</ele>
        <time>2021-09-01T14:25:59Z</time>
      </trkpt>
      <trkpt lat="39.427981" lon="3.122950">
        <ele>107.955</ele>
        <time>2021-09-01T14:26:04Z</time>
      </trkpt>
      <trkpt lat="39.427965" lon="3.122872">
        <ele>108.607</ele>
        <time>2021-09-01T14:26:07Z</time>
      </trkpt>
      <trkpt lat="39.427972" lon="3.122805">
        <ele>109.017</ele>
        <time>2021-09-01T14:26:09Z</time>
      </trkpt>
      <trkpt lat="39.427978" lon="3.122738">
        <ele>109.208</ele>
        <time>2021-09-01T14:26:11Z</time>
      </trkpt>
      <trkpt lat="39.427983" lon="3.122651">
        <ele>109.363</ele>
        <time>2021-09-01T14:26:13Z</time>
      </trkpt>
      <trkpt lat="39.428004" lon="3.122546">
        <ele>109.257</ele>
        <time>2021-09-01T14:26:15Z</time>
      </trkpt>
      <trkpt lat="39.428015" lon="3.122446">
        <ele>109.062</ele>
        <time>2021-09-01T14:26:17Z</time>
      </trkpt>
      <trkpt lat="39.428018" lon="3.122383">
        <ele>108.886</ele>
        <time>2021-09-01T14:26:18Z</time>
      </trkpt>
      <trkpt lat="39.428026" lon="3.122309">
        <ele>108.695</ele>
        <time>2021-09-01T14:26:19Z</time>
      </trkpt>
      <trkpt lat="39.428033" lon="3.122231">
        <ele>108.260</ele>
        <time>2021-09-01T14:26:20Z</time>
      </trkpt>
      <trkpt lat="39.428045" lon="3.122158">
        <ele>107.957</ele>
        <time>2021-09-01T14:26:21Z</time>
      </trkpt>
      <trkpt lat="39.428056" lon="3.122078">
        <ele>107.637</ele>
        <time>2021-09-01T14:26:22Z</time>
      </trkpt>
      <trkpt lat="39.428064" lon="3.121996">
        <ele>107.296</ele>
        <time>2021-09-01T14:26:23Z</time>
      </trkpt>
      <trkpt lat="39.428068" lon="3.121917">
        <ele>106.931</ele>
        <time>2021-09-01T14:26:24Z</time>
      </trkpt>
      <trkpt lat="39.428081" lon="3.121833">
        <ele>106.524</ele>
        <time>2021-09-01T14:26:25Z</time>
      </trkpt>
      <trkpt lat="39.428093" lon="3.121743">
        <ele>106.108</ele>
        <time>2021-09-01T14:26:26Z</time>
      </trkpt>
      <trkpt lat="39.428100" lon="3.121654">
        <ele>105.997</ele>
        <time>2021-09-01T14:26:27Z</time>
      </trkpt>
      <trkpt lat="39.428106" lon="3.121562">
        <ele>105.571</ele>
        <time>2021-09-01T14:26:28Z</time>
      </trkpt>
      <trkpt lat="39.428109" lon="3.121476">
        <ele>105.296</ele>
        <time>2021-09-01T14:26:29Z</time>
      </trkpt>
      <trkpt lat="39.428121" lon="3.121376">
        <ele>105.020</ele>
        <time>2021-09-01T14:26:30Z</time>
      </trkpt>
      <trkpt lat="39.428134" lon="3.121295">
        <ele>104.659</ele>
        <time>2021-09-01T14:26:31Z</time>
      </trkpt>
      <trkpt lat="39.428141" lon="3.121220">
        <ele>104.164</ele>
        <time>2021-09-01T14:26:32Z</time>
      </trkpt>
      <trkpt lat="39.428144" lon="3.121155">
        <ele>103.651</ele>
        <time>2021-09-01T14:26:33Z</time>
      </trkpt>
      <trkpt lat="39.428136" lon="3.121090">
        <ele>103.121</ele>
        <time>2021-09-01T14:26:34Z</time>
      </trkpt>
      <trkpt lat="39.428110" lon="3.121025">
        <ele>102.536</ele>
        <time>2021-09-01T14:26:35Z</time>
      </trkpt>
      <trkpt lat="39.428074" lon="3.120958">
        <ele>102.117</ele>
        <time>2021-09-01T14:26:36Z</time>
      </trkpt>
      <trkpt lat="39.428046" lon="3.120889">
        <ele>101.718</ele>
        <time>2021-09-01T14:26:37Z</time>
      </trkpt>
      <trkpt lat="39.428028" lon="3.120835">
        <ele>101.508</ele>
        <time>2021-09-01T14:26:38Z</time>
      </trkpt>
      <trkpt lat="39.428017" lon="3.120735">
        <ele>101.081</ele>
        <time>2021-09-01T14:26:40Z</time>
      </trkpt>
      <trkpt lat="39.428068" lon="3.120634">
        <ele>100.465</ele>
        <time>2021-09-01T14:26:42Z</time>
      </trkpt>
      <trkpt lat="39.428110" lon="3.120607">
        <ele>100.140</ele>
        <time>2021-09-01T14:26:43Z</time>
      </trkpt>
      <trkpt lat="39.428156" lon="3.120568">
        <ele>99.834</ele>
        <time>2021-09-01T14:26:44Z</time>
      </trkpt>
      <trkpt lat="39.428207" lon="3.120525">
        <ele>99.593</ele>
        <time>2021-09-01T14:26:45Z</time>
      </trkpt>
      <trkpt lat="39.428258" lon="3.120477">
        <ele>99.338</ele>
        <time>2021-09-01T14:26:46Z</time>
      </trkpt>
      <trkpt lat="39.428308" lon="3.120431">
        <ele>99.035</ele>
        <time>2021-09-01T14:26:47Z</time>
      </trkpt>
      <trkpt lat="39.428358" lon="3.120370">
        <ele>98.975</ele>
        <time>2021-09-01T14:26:48Z</time>
      </trkpt>
      <trkpt lat="39.428407" lon="3.120315">
        <ele>98.782</ele>
        <time>2021-09-01T14:26:49Z</time>
      </trkpt>
      <trkpt lat="39.428456" lon="3.120263">
        <ele>98.543</ele>
        <time>2021-09-01T14:26:50Z</time>
      </trkpt>
      <trkpt lat="39.428506" lon="3.120212">
        <ele>98.317</ele>
        <time>2021-09-01T14:26:51Z</time>
      </trkpt>
      <trkpt lat="39.428552" lon="3.120163">
        <ele>98.208</ele>
        <time>2021-09-01T14:26:52Z</time>
      </trkpt>
      <trkpt lat="39.428598" lon="3.120111">
        <ele>98.076</ele>
        <time>2021-09-01T14:26:53Z</time>
      </trkpt>
      <trkpt lat="39.428645" lon="3.120063">
        <ele>97.840</ele>
        <time>2021-09-01T14:26:54Z</time>
      </trkpt>
      <trkpt lat="39.428695" lon="3.120018">
        <ele>97.565</ele>
        <time>2021-09-01T14:26:55Z</time>
      </trkpt>
      <trkpt lat="39.428744" lon="3.119972">
        <ele>97.449</ele>
        <time>2021-09-01T14:26:56Z</time>
      </trkpt>
      <trkpt lat="39.428793" lon="3.119925">
        <ele>97.328</ele>
        <time>2021-09-01T14:26:57Z</time>
      </trkpt>
      <trkpt lat="39.428842" lon="3.119879">
        <ele>97.343</ele>
        <time>2021-09-01T14:26:58Z</time>
      </trkpt>
      <trkpt lat="39.428893" lon="3.119830">
        <ele>97.480</ele>
        <time>2021-09-01T14:26:59Z</time>
      </trkpt>
      <trkpt lat="39.428944" lon="3.119781">
        <ele>97.580</ele>
        <time>2021-09-01T14:27:00Z</time>
      </trkpt>
      <trkpt lat="39.428993" lon="3.119737">
        <ele>97.532</ele>
        <time>2021-09-01T14:27:01Z</time>
      </trkpt>
      <trkpt lat="39.429041" lon="3.119683">
        <ele>97.492</ele>
        <time>2021-09-01T14:27:02Z</time>
      </trkpt>
      <trkpt lat="39.429091" lon="3.119634">
        <ele>97.211</ele>
        <time>2021-09-01T14:27:03Z</time>
      </trkpt>
      <trkpt lat="39.429142" lon="3.119587">
        <ele>97.008</ele>
        <time>2021-09-01T14:27:04Z</time>
      </trkpt>
      <trkpt lat="39.429194" lon="3.119536">
        <ele>96.961</ele>
        <time>2021-09-01T14:27:05Z</time>
      </trkpt>
      <trkpt lat="39.429244" lon="3.119492">
        <ele>96.615</ele>
        <time>2021-09-01T14:27:06Z</time>
      </trkpt>
      <trkpt lat="39.429291" lon="3.119443">
        <ele>96.410</ele>
        <time>2021-09-01T14:27:07Z</time>
      </trkpt>
      <trkpt lat="39.429339" lon="3.119399">
        <ele>96.244</ele>
        <time>2021-09-01T14:27:08Z</time>
      </trkpt>
      <trkpt lat="39.429386" lon="3.119349">
        <ele>96.033</ele>
        <time>2021-09-01T14:27:09Z</time>
      </trkpt>
      <trkpt lat="39.429431" lon="3.119306">
        <ele>95.838</ele>
        <time>2021-09-01T14:27:10Z</time>
      </trkpt>
      <trkpt lat="39.429471" lon="3.119270">
        <ele>95.725</ele>
        <time>2021-09-01T14:27:11Z</time>
      </trkpt>
      <trkpt lat="39.429536" lon="3.119198">
        <ele>95.525</ele>
        <time>2021-09-01T14:27:13Z</time>
      </trkpt>
      <trkpt lat="39.429579" lon="3.119151">
        <ele>95.445</ele>
        <time>2021-09-01T14:27:15Z</time>
      </trkpt>
      <trkpt lat="39.429638" lon="3.119151">
        <ele>95.347</ele>
        <time>2021-09-01T14:27:17Z</time>
      </trkpt>
      <trkpt lat="39.429698" lon="3.119176">
        <ele>95.211</ele>
        <time>2021-09-01T14:27:19Z</time>
      </trkpt>
      <trkpt lat="39.429766" lon="3.119178">
        <ele>95.008</ele>
        <time>2021-09-01T14:27:21Z</time>
      </trkpt>
      <trkpt lat="39.429847" lon="3.119140">
        <ele>94.762</ele>
        <time>2021-09-01T14:27:23Z</time>
      </trkpt>
      <trkpt lat="39.429894" lon="3.119119">
        <ele>94.496</ele>
        <time>2021-09-01T14:27:24Z</time>
      </trkpt>
      <trkpt lat="39.429947" lon="3.119089">
        <ele>94.271</ele>
        <time>2021-09-01T14:27:25Z</time>
      </trkpt>
      <trkpt lat="39.429991" lon="3.119057">
        <ele>93.625</ele>
        <time>2021-09-01T14:27:26Z</time>
      </trkpt>
      <trkpt lat="39.430034" lon="3.119002">
        <ele>93.134</ele>
        <time>2021-09-01T14:27:27Z</time>
      </trkpt>
      <trkpt lat="39.430065" lon="3.118942">
        <ele>92.469</ele>
        <time>2021-09-01T14:27:28Z</time>
      </trkpt>
      <trkpt lat="39.430096" lon="3.118878">
        <ele>91.876</ele>
        <time>2021-09-01T14:27:29Z</time>
      </trkpt>
      <trkpt lat="39.430129" lon="3.118813">
        <ele>91.386</ele>
        <time>2021-09-01T14:27:30Z</time>
      </trkpt>
      <trkpt lat="39.430158" lon="3.118741">
        <ele>91.045</ele>
        <time>2021-09-01T14:27:31Z</time>
      </trkpt>
      <trkpt lat="39.430190" lon="3.118676">
        <ele>90.747</ele>
        <time>2021-09-01T14:27:32Z</time>
      </trkpt>
      <trkpt lat="39.430222" lon="3.118611">
        <ele>90.411</ele>
        <time>2021-09-01T14:27:33Z</time>
      </trkpt>
      <trkpt lat="39.430253" lon="3.118539">
        <ele>90.208</ele>
        <time>2021-09-01T14:27:34Z</time>
      </trkpt>
      <trkpt lat="39.430288" lon="3.118468">
        <ele>89.832</ele>
        <time>2021-09-01T14:27:35Z</time>
      </trkpt>
      <trkpt lat="39.430324" lon="3.118398">
        <ele>89.496</ele>
        <time>2021-09-01T14:27:36Z</time>
      </trkpt>
      <trkpt lat="39.430358" lon="3.118325">
        <ele>89.281</ele>
        <time>2021-09-01T14:27:37Z</time>
      </trkpt>
      <trkpt lat="39.430396" lon="3.118246">
        <ele>89.055</ele>
        <time>2021-09-01T14:27:38Z</time>
      </trkpt>
      <trkpt lat="39.430437" lon="3.118173">
        <ele>88.924</ele>
        <time>2021-09-01T14:27:39Z</time>
      </trkpt>
      <trkpt lat="39.430473" lon="3.118098">
        <ele>88.969</ele>
        <time>2021-09-01T14:27:40Z</time>
      </trkpt>
      <trkpt lat="39.430508" lon="3.118023">
        <ele>88.826</ele>
        <time>2021-09-01T14:27:41Z</time>
      </trkpt>
      <trkpt lat="39.430545" lon="3.117948">
        <ele>88.796</ele>
        <time>2021-09-01T14:27:42Z</time>
      </trkpt>
      <trkpt lat="39.430583" lon="3.117869">
        <ele>88.613</ele>
        <time>2021-09-01T14:27:43Z</time>
      </trkpt>
      <trkpt lat="39.430617" lon="3.117791">
        <ele>88.643</ele>
        <time>2021-09-01T14:27:44Z</time>
      </trkpt>
      <trkpt lat="39.430650" lon="3.117717">
        <ele>88.507</ele>
        <time>2021-09-01T14:27:45Z</time>
      </trkpt>
      <trkpt lat="39.430676" lon="3.117643">
        <ele>88.408</ele>
        <time>2021-09-01T14:27:46Z</time>
      </trkpt>
      <trkpt lat="39.430708" lon="3.117577">
        <ele>88.499</ele>
        <time>2021-09-01T14:27:47Z</time>
      </trkpt>
      <trkpt lat="39.430744" lon="3.117521">
        <ele>88.343</ele>
        <time>2021-09-01T14:27:48Z</time>
      </trkpt>
      <trkpt lat="39.430778" lon="3.117471">
        <ele>88.328</ele>
        <time>2021-09-01T14:27:49Z</time>
      </trkpt>
      <trkpt lat="39.430834" lon="3.117388">
        <ele>87.992</ele>
        <time>2021-09-01T14:27:51Z</time>
      </trkpt>
      <trkpt lat="39.430885" lon="3.117300">
        <ele>87.351</ele>
        <time>2021-09-01T14:27:53Z</time>
      </trkpt>
      <trkpt lat="39.430909" lon="3.117249">
        <ele>86.856</ele>
        <time>2021-09-01T14:27:54Z</time>
      </trkpt>
      <trkpt lat="39.430933" lon="3.117200">
        <ele>86.453</ele>
        <time>2021-09-01T14:27:55Z</time>
      </trkpt>
      <trkpt lat="39.430957" lon="3.117140">
        <ele>86.133</ele>
        <time>2021-09-01T14:27:56Z</time>
      </trkpt>
      <trkpt lat="39.431005" lon="3.117082">
        <ele>85.788</ele>
        <time>2021-09-01T14:27:57Z</time>
      </trkpt>
      <trkpt lat="39.431054" lon="3.117028">
        <ele>85.424</ele>
        <time>2021-09-01T14:27:58Z</time>
      </trkpt>
      <trkpt lat="39.431102" lon="3.116985">
        <ele>85.226</ele>
        <time>2021-09-01T14:27:59Z</time>
      </trkpt>
      <trkpt lat="39.431159" lon="3.116955">
        <ele>85.108</ele>
        <time>2021-09-01T14:28:00Z</time>
      </trkpt>
      <trkpt lat="39.431222" lon="3.116926">
        <ele>84.966</ele>
        <time>2021-09-01T14:28:01Z</time>
      </trkpt>
      <trkpt lat="39.431285" lon="3.116895">
        <ele>84.980</ele>
        <time>2021-09-01T14:28:02Z</time>
      </trkpt>
      <trkpt lat="39.431336" lon="3.116865">
        <ele>84.965</ele>
        <time>2021-09-01T14:28:03Z</time>
      </trkpt>
      <trkpt lat="39.431420" lon="3.116826">
        <ele>85.089</ele>
        <time>2021-09-01T14:28:05Z</time>
      </trkpt>
      <trkpt lat="39.431493" lon="3.116786">
        <ele>85.348</ele>
        <time>2021-09-01T14:28:07Z</time>
      </trkpt>
      <trkpt lat="39.431565" lon="3.116741">
        <ele>85.663</ele>
        <time>2021-09-01T14:28:09Z</time>
      </trkpt>
      <trkpt lat="39.431639" lon="3.116707">
        <ele>86.060</ele>
        <time>2021-09-01T14:28:11Z</time>
      </trkpt>
      <trkpt lat="39.431715" lon="3.116662">
        <ele>86.210</ele>
        <time>2021-09-01T14:28:13Z</time>
      </trkpt>
      <trkpt lat="39.431788" lon="3.116631">
        <ele>86.559</ele>
        <time>2021-09-01T14:28:15Z</time>
      </trkpt>
      <trkpt lat="39.431857" lon="3.116600">
        <ele>86.703</ele>
        <time>2021-09-01T14:28:17Z</time>
      </trkpt>
      <trkpt lat="39.431914" lon="3.116560">
        <ele>87.223</ele>
        <time>2021-09-01T14:28:20Z</time>
      </trkpt>
      <trkpt lat="39.431965" lon="3.116530">
        <ele>87.808</ele>
        <time>2021-09-01T14:28:23Z</time>
      </trkpt>
      <trkpt lat="39.432072" lon="3.116474">
        <ele>88.873</ele>
        <time>2021-09-01T14:28:29Z</time>
      </trkpt>
      <trkpt lat="39.432114" lon="3.116449">
        <ele>89.187</ele>
        <time>2021-09-01T14:28:31Z</time>
      </trkpt>
      <trkpt lat="39.432178" lon="3.116418">
        <ele>89.552</ele>
        <time>2021-09-01T14:28:34Z</time>
      </trkpt>
      <trkpt lat="39.432238" lon="3.116392">
        <ele>89.986</ele>
        <time>2021-09-01T14:28:37Z</time>
      </trkpt>
      <trkpt lat="39.432284" lon="3.116384">
        <ele>90.285</ele>
        <time>2021-09-01T14:28:39Z</time>
      </trkpt>
      <trkpt lat="39.432331" lon="3.116363">
        <ele>90.580</ele>
        <time>2021-09-01T14:28:41Z</time>
      </trkpt>
      <trkpt lat="39.432379" lon="3.116338">
        <ele>90.717</ele>
        <time>2021-09-01T14:28:43Z</time>
      </trkpt>
      <trkpt lat="39.432440" lon="3.116296">
        <ele>90.757</ele>
        <time>2021-09-01T14:28:45Z</time>
      </trkpt>
      <trkpt lat="39.432505" lon="3.116271">
        <ele>90.597</ele>
        <time>2021-09-01T14:28:47Z</time>
      </trkpt>
      <trkpt lat="39.432569" lon="3.116238">
        <ele>90.223</ele>
        <time>2021-09-01T14:28:49Z</time>
      </trkpt>
      <trkpt lat="39.432637" lon="3.116207">
        <ele>90.025</ele>
        <time>2021-09-01T14:28:51Z</time>
      </trkpt>
      <trkpt lat="39.432702" lon="3.116174">
        <ele>90.008</ele>
        <time>2021-09-01T14:28:53Z</time>
      </trkpt>
      <trkpt lat="39.432768" lon="3.116145">
        <ele>89.947</ele>
        <time>2021-09-01T14:28:55Z</time>
      </trkpt>
      <trkpt lat="39.432821" lon="3.116105">
        <ele>89.981</ele>
        <time>2021-09-01T14:28:57Z</time>
      </trkpt>
      <trkpt lat="39.432837" lon="3.116036">
        <ele>89.986</ele>
        <time>2021-09-01T14:28:59Z</time>
      </trkpt>
      <trkpt lat="39.432828" lon="3.115964">
        <ele>90.080</ele>
        <time>2021-09-01T14:29:01Z</time>
      </trkpt>
      <trkpt lat="39.432813" lon="3.115871">
        <ele>89.939</ele>
        <time>2021-09-01T14:29:03Z</time>
      </trkpt>
      <trkpt lat="39.432805" lon="3.115811">
        <ele>89.844</ele>
        <time>2021-09-01T14:29:04Z</time>
      </trkpt>
      <trkpt lat="39.432801" lon="3.115751">
        <ele>89.761</ele>
        <time>2021-09-01T14:29:05Z</time>
      </trkpt>
      <trkpt lat="39.432799" lon="3.115688">
        <ele>89.631</ele>
        <time>2021-09-01T14:29:06Z</time>
      </trkpt>
      <trkpt lat="39.432789" lon="3.115573">
        <ele>89.485</ele>
        <time>2021-09-01T14:29:08Z</time>
      </trkpt>
      <trkpt lat="39.432786" lon="3.115512">
        <ele>89.389</ele>
        <time>2021-09-01T14:29:09Z</time>
      </trkpt>
      <trkpt lat="39.432777" lon="3.115453">
        <ele>89.217</ele>
        <time>2021-09-01T14:29:10Z</time>
      </trkpt>
      <trkpt lat="39.432770" lon="3.115384">
        <ele>89.108</ele>
        <time>2021-09-01T14:29:11Z</time>
      </trkpt>
      <trkpt lat="39.432765" lon="3.115317">
        <ele>89.056</ele>
        <time>2021-09-01T14:29:12Z</time>
      </trkpt>
      <trkpt lat="39.432754" lon="3.115249">
        <ele>88.980</ele>
        <time>2021-09-01T14:29:13Z</time>
      </trkpt>
      <trkpt lat="39.432756" lon="3.115175">
        <ele>88.885</ele>
        <time>2021-09-01T14:29:14Z</time>
      </trkpt>
      <trkpt lat="39.432752" lon="3.115107">
        <ele>88.729</ele>
        <time>2021-09-01T14:29:15Z</time>
      </trkpt>
      <trkpt lat="39.432743" lon="3.115050">
        <ele>88.688</ele>
        <time>2021-09-01T14:29:16Z</time>
      </trkpt>
      <trkpt lat="39.432739" lon="3.114982">
        <ele>88.643</ele>
        <time>2021-09-01T14:29:17Z</time>
      </trkpt>
      <trkpt lat="39.432731" lon="3.114912">
        <ele>88.590</ele>
        <time>2021-09-01T14:29:18Z</time>
      </trkpt>
      <trkpt lat="39.432723" lon="3.114849">
        <ele>88.570</ele>
        <time>2021-09-01T14:29:19Z</time>
      </trkpt>
      <trkpt lat="39.432720" lon="3.114778">
        <ele>88.354</ele>
        <time>2021-09-01T14:29:20Z</time>
      </trkpt>
      <trkpt lat="39.432716" lon="3.114711">
        <ele>88.156</ele>
        <time>2021-09-01T14:29:21Z</time>
      </trkpt>
      <trkpt lat="39.432710" lon="3.114652">
        <ele>87.911</ele>
        <time>2021-09-01T14:29:22Z</time>
      </trkpt>
      <trkpt lat="39.432707" lon="3.114592">
        <ele>87.908</ele>
        <time>2021-09-01T14:29:23Z</time>
      </trkpt>
      <trkpt lat="39.432764" lon="3.114501">
        <ele>87.793</ele>
        <time>2021-09-01T14:29:25Z</time>
      </trkpt>
      <trkpt lat="39.432817" lon="3.114466">
        <ele>87.847</ele>
        <time>2021-09-01T14:29:27Z</time>
      </trkpt>
      <trkpt lat="39.432837" lon="3.114409">
        <ele>88.122</ele>
        <time>2021-09-01T14:29:29Z</time>
      </trkpt>
      <trkpt lat="39.432858" lon="3.114355">
        <ele>88.616</ele>
        <time>2021-09-01T14:29:31Z</time>
      </trkpt>
      <trkpt lat="39.432888" lon="3.114307">
        <ele>89.245</ele>
        <time>2021-09-01T14:29:33Z</time>
      </trkpt>
      <trkpt lat="39.432896" lon="3.114226">
        <ele>90.240</ele>
        <time>2021-09-01T14:29:36Z</time>
      </trkpt>
      <trkpt lat="39.432869" lon="3.114166">
        <ele>90.737</ele>
        <time>2021-09-01T14:29:38Z</time>
      </trkpt>
      <trkpt lat="39.432849" lon="3.114092">
        <ele>91.297</ele>
        <time>2021-09-01T14:29:40Z</time>
      </trkpt>
      <trkpt lat="39.432828" lon="3.114016">
        <ele>91.529</ele>
        <time>2021-09-01T14:29:42Z</time>
      </trkpt>
      <trkpt lat="39.432830" lon="3.113940">
        <ele>91.700</ele>
        <time>2021-09-01T14:29:44Z</time>
      </trkpt>
      <trkpt lat="39.432873" lon="3.113885">
        <ele>91.820</ele>
        <time>2021-09-01T14:29:46Z</time>
      </trkpt>
      <trkpt lat="39.432930" lon="3.113844">
        <ele>92.008</ele>
        <time>2021-09-01T14:29:48Z</time>
      </trkpt>
      <trkpt lat="39.432990" lon="3.113798">
        <ele>92.310</ele>
        <time>2021-09-01T14:29:50Z</time>
      </trkpt>
      <trkpt lat="39.433047" lon="3.113746">
        <ele>92.484</ele>
        <time>2021-09-01T14:29:52Z</time>
      </trkpt>
      <trkpt lat="39.433102" lon="3.113685">
        <ele>92.679</ele>
        <time>2021-09-01T14:29:54Z</time>
      </trkpt>
      <trkpt lat="39.433144" lon="3.113612">
        <ele>92.793</ele>
        <time>2021-09-01T14:29:56Z</time>
      </trkpt>
      <trkpt lat="39.433186" lon="3.113558">
        <ele>92.722</ele>
        <time>2021-09-01T14:29:58Z</time>
      </trkpt>
      <trkpt lat="39.433212" lon="3.113508">
        <ele>92.687</ele>
        <time>2021-09-01T14:30:00Z</time>
      </trkpt>
      <trkpt lat="39.433228" lon="3.113434">
        <ele>92.464</ele>
        <time>2021-09-01T14:30:02Z</time>
      </trkpt>
      <trkpt lat="39.433251" lon="3.113352">
        <ele>92.144</ele>
        <time>2021-09-01T14:30:04Z</time>
      </trkpt>
      <trkpt lat="39.433285" lon="3.113267">
        <ele>92.081</ele>
        <time>2021-09-01T14:30:06Z</time>
      </trkpt>
      <trkpt lat="39.433317" lon="3.113178">
        <ele>91.961</ele>
        <time>2021-09-01T14:30:08Z</time>
      </trkpt>
      <trkpt lat="39.433339" lon="3.113080">
        <ele>91.917</ele>
        <time>2021-09-01T14:30:10Z</time>
      </trkpt>
      <trkpt lat="39.433381" lon="3.112998">
        <ele>91.908</ele>
        <time>2021-09-01T14:30:12Z</time>
      </trkpt>
      <trkpt lat="39.433412" lon="3.112911">
        <ele>91.896</ele>
        <time>2021-09-01T14:30:14Z</time>
      </trkpt>
      <trkpt lat="39.433429" lon="3.112854">
        <ele>91.860</ele>
        <time>2021-09-01T14:30:15Z</time>
      </trkpt>
      <trkpt lat="39.433443" lon="3.112794">
        <ele>91.835</ele>
        <time>2021-09-01T14:30:16Z</time>
      </trkpt>
      <trkpt lat="39.433476" lon="3.112687">
        <ele>91.899</ele>
        <time>2021-09-01T14:30:18Z</time>
      </trkpt>
      <trkpt lat="39.433494" lon="3.112627">
        <ele>91.818</ele>
        <time>2021-09-01T14:30:19Z</time>
      </trkpt>
      <trkpt lat="39.433513" lon="3.112573">
        <ele>91.883</ele>
        <time>2021-09-01T14:30:20Z</time>
      </trkpt>
      <trkpt lat="39.433531" lon="3.112516">
        <ele>91.990</ele>
        <time>2021-09-01T14:30:21Z</time>
      </trkpt>
      <trkpt lat="39.433569" lon="3.112414">
        <ele>91.980</ele>
        <time>2021-09-01T14:30:23Z</time>
      </trkpt>
      <trkpt lat="39.433601" lon="3.112314">
        <ele>91.976</ele>
        <time>2021-09-01T14:30:25Z</time>
      </trkpt>
      <trkpt lat="39.433629" lon="3.112227">
        <ele>91.990</ele>
        <time>2021-09-01T14:30:27Z</time>
      </trkpt>
      <trkpt lat="39.433661" lon="3.112135">
        <ele>91.919</ele>
        <time>2021-09-01T14:30:29Z</time>
      </trkpt>
      <trkpt lat="39.433692" lon="3.112030">
        <ele>91.908</ele>
        <time>2021-09-01T14:30:31Z</time>
      </trkpt>
      <trkpt lat="39.433719" lon="3.111932">
        <ele>91.955</ele>
        <time>2021-09-01T14:30:33Z</time>
      </trkpt>
      <trkpt lat="39.433755" lon="3.111845">
        <ele>92.069</ele>
        <time>2021-09-01T14:30:35Z</time>
      </trkpt>
      <trkpt lat="39.433785" lon="3.111752">
        <ele>91.994</ele>
        <time>2021-09-01T14:30:37Z</time>
      </trkpt>
      <trkpt lat="39.433802" lon="3.111695">
        <ele>91.958</ele>
        <time>2021-09-01T14:30:38Z</time>
      </trkpt>
      <trkpt lat="39.433815" lon="3.111639">
        <ele>91.817</ele>
        <time>2021-09-01T14:30:39Z</time>
      </trkpt>
      <trkpt lat="39.433830" lon="3.111580">
        <ele>91.682</ele>
        <time>2021-09-01T14:30:40Z</time>
      </trkpt>
      <trkpt lat="39.433860" lon="3.111483">
        <ele>91.489</ele>
        <time>2021-09-01T14:30:42Z</time>
      </trkpt>
      <trkpt lat="39.433904" lon="3.111386">
        <ele>91.239</ele>
        <time>2021-09-01T14:30:44Z</time>
      </trkpt>
      <trkpt lat="39.433928" lon="3.111329">
        <ele>91.177</ele>
        <time>2021-09-01T14:30:45Z</time>
      </trkpt>
      <trkpt lat="39.433953" lon="3.111272">
        <ele>91.061</ele>
        <time>2021-09-01T14:30:46Z</time>
      </trkpt>
      <trkpt lat="39.433970" lon="3.111212">
        <ele>90.927</ele>
        <time>2021-09-01T14:30:47Z</time>
      </trkpt>
      <trkpt lat="39.433993" lon="3.111149">
        <ele>90.708</ele>
        <time>2021-09-01T14:30:48Z</time>
      </trkpt>
      <trkpt lat="39.434009" lon="3.111084">
        <ele>90.585</ele>
        <time>2021-09-01T14:30:49Z</time>
      </trkpt>
      <trkpt lat="39.434015" lon="3.111015">
        <ele>90.339</ele>
        <time>2021-09-01T14:30:50Z</time>
      </trkpt>
      <trkpt lat="39.434003" lon="3.110943">
        <ele>90.164</ele>
        <time>2021-09-01T14:30:51Z</time>
      </trkpt>
      <trkpt lat="39.433977" lon="3.110874">
        <ele>89.918</ele>
        <time>2021-09-01T14:30:52Z</time>
      </trkpt>
      <trkpt lat="39.433951" lon="3.110803">
        <ele>89.737</ele>
        <time>2021-09-01T14:30:53Z</time>
      </trkpt>
      <trkpt lat="39.433927" lon="3.110738">
        <ele>89.592</ele>
        <time>2021-09-01T14:30:54Z</time>
      </trkpt>
      <trkpt lat="39.433898" lon="3.110676">
        <ele>89.449</ele>
        <time>2021-09-01T14:30:55Z</time>
      </trkpt>
      <trkpt lat="39.433867" lon="3.110607">
        <ele>89.379</ele>
        <time>2021-09-01T14:30:56Z</time>
      </trkpt>
      <trkpt lat="39.433844" lon="3.110537">
        <ele>89.294</ele>
        <time>2021-09-01T14:30:57Z</time>
      </trkpt>
      <trkpt lat="39.433821" lon="3.110469">
        <ele>89.057</ele>
        <time>2021-09-01T14:30:58Z</time>
      </trkpt>
      <trkpt lat="39.433759" lon="3.110431">
        <ele>88.622</ele>
        <time>2021-09-01T14:31:00Z</time>
      </trkpt>
      <trkpt lat="39.433677" lon="3.110454">
        <ele>88.208</ele>
        <time>2021-09-01T14:31:02Z</time>
      </trkpt>
      <trkpt lat="39.433632" lon="3.110490">
        <ele>88.197</ele>
        <time>2021-09-01T14:31:03Z</time>
      </trkpt>
      <trkpt lat="39.433584" lon="3.110523">
        <ele>88.071</ele>
        <time>2021-09-01T14:31:04Z</time>
      </trkpt>
      <trkpt lat="39.433533" lon="3.110552">
        <ele>88.076</ele>
        <time>2021-09-01T14:31:05Z</time>
      </trkpt>
      <trkpt lat="39.433482" lon="3.110581">
        <ele>87.870</ele>
        <time>2021-09-01T14:31:06Z</time>
      </trkpt>
      <trkpt lat="39.433431" lon="3.110614">
        <ele>87.849</ele>
        <time>2021-09-01T14:31:07Z</time>
      </trkpt>
      <trkpt lat="39.433378" lon="3.110647">
        <ele>87.864</ele>
        <time>2021-09-01T14:31:08Z</time>
      </trkpt>
      <trkpt lat="39.433327" lon="3.110685">
        <ele>87.711</ele>
        <time>2021-09-01T14:31:09Z</time>
      </trkpt>
      <trkpt lat="39.433277" lon="3.110716">
        <ele>87.781</ele>
        <time>2021-09-01T14:31:10Z</time>
      </trkpt>
      <trkpt lat="39.433223" lon="3.110743">
        <ele>87.713</ele>
        <time>2021-09-01T14:31:11Z</time>
      </trkpt>
      <trkpt lat="39.433173" lon="3.110773">
        <ele>87.543</ele>
        <time>2021-09-01T14:31:12Z</time>
      </trkpt>
      <trkpt lat="39.433122" lon="3.110803">
        <ele>87.207</ele>
        <time>2021-09-01T14:31:13Z</time>
      </trkpt>
      <trkpt lat="39.433071" lon="3.110834">
        <ele>87.108</ele>
        <time>2021-09-01T14:31:14Z</time>
      </trkpt>
      <trkpt lat="39.433016" lon="3.110861">
        <ele>86.839</ele>
        <time>2021-09-01T14:31:15Z</time>
      </trkpt>
      <trkpt lat="39.432961" lon="3.110890">
        <ele>86.673</ele>
        <time>2021-09-01T14:31:16Z</time>
      </trkpt>
      <trkpt lat="39.432898" lon="3.110899">
        <ele>86.468</ele>
        <time>2021-09-01T14:31:17Z</time>
      </trkpt>
      <trkpt lat="39.432839" lon="3.110888">
        <ele>86.262</ele>
        <time>2021-09-01T14:31:18Z</time>
      </trkpt>
      <trkpt lat="39.432781" lon="3.110865">
        <ele>85.931</ele>
        <time>2021-09-01T14:31:19Z</time>
      </trkpt>
      <trkpt lat="39.432717" lon="3.110836">
        <ele>85.656</ele>
        <time>2021-09-01T14:31:20Z</time>
      </trkpt>
      <trkpt lat="39.432650" lon="3.110808">
        <ele>85.373</ele>
        <time>2021-09-01T14:31:21Z</time>
      </trkpt>
      <trkpt lat="39.432582" lon="3.110782">
        <ele>85.013</ele>
        <time>2021-09-01T14:31:22Z</time>
      </trkpt>
      <trkpt lat="39.432512" lon="3.110754">
        <ele>84.683</ele>
        <time>2021-09-01T14:31:23Z</time>
      </trkpt>
      <trkpt lat="39.432438" lon="3.110723">
        <ele>84.325</ele>
        <time>2021-09-01T14:31:24Z</time>
      </trkpt>
      <trkpt lat="39.432367" lon="3.110686">
        <ele>83.917</ele>
        <time>2021-09-01T14:31:25Z</time>
      </trkpt>
      <trkpt lat="39.432301" lon="3.110640">
        <ele>83.608</ele>
        <time>2021-09-01T14:31:26Z</time>
      </trkpt>
      <trkpt lat="39.432234" lon="3.110590">
        <ele>83.376</ele>
        <time>2021-09-01T14:31:27Z</time>
      </trkpt>
      <trkpt lat="39.432174" lon="3.110532">
        <ele>83.060</ele>
        <time>2021-09-01T14:31:28Z</time>
      </trkpt>
      <trkpt lat="39.432118" lon="3.110465">
        <ele>82.945</ele>
        <time>2021-09-01T14:31:29Z</time>
      </trkpt>
      <trkpt lat="39.432065" lon="3.110393">
        <ele>82.819</ele>
        <time>2021-09-01T14:31:30Z</time>
      </trkpt>
      <trkpt lat="39.432012" lon="3.110319">
        <ele>82.638</ele>
        <time>2021-09-01T14:31:31Z</time>
      </trkpt>
      <trkpt lat="39.431957" lon="3.110243">
        <ele>82.563</ele>
        <time>2021-09-01T14:31:32Z</time>
      </trkpt>
      <trkpt lat="39.431900" lon="3.110164">
        <ele>82.310</ele>
        <time>2021-09-01T14:31:33Z</time>
      </trkpt>
      <trkpt lat="39.431842" lon="3.110084">
        <ele>82.070</ele>
        <time>2021-09-01T14:31:34Z</time>
      </trkpt>
      <trkpt lat="39.431781" lon="3.110006">
        <ele>81.782</ele>
        <time>2021-09-01T14:31:35Z</time>
      </trkpt>
      <trkpt lat="39.431715" lon="3.109933">
        <ele>81.443</ele>
        <time>2021-09-01T14:31:36Z</time>
      </trkpt>
      <trkpt lat="39.431652" lon="3.109854">
        <ele>81.117</ele>
        <time>2021-09-01T14:31:37Z</time>
      </trkpt>
      <trkpt lat="39.431586" lon="3.109768">
        <ele>80.908</ele>
        <time>2021-09-01T14:31:38Z</time>
      </trkpt>
      <trkpt lat="39.431528" lon="3.109678">
        <ele>80.556</ele>
        <time>2021-09-01T14:31:39Z</time>
      </trkpt>
      <trkpt lat="39.431475" lon="3.109582">
        <ele>80.130</ele>
        <time>2021-09-01T14:31:40Z</time>
      </trkpt>
      <trkpt lat="39.431425" lon="3.109480">
        <ele>79.725</ele>
        <time>2021-09-01T14:31:41Z</time>
      </trkpt>
      <trkpt lat="39.431378" lon="3.109375">
        <ele>79.319</ele>
        <time>2021-09-01T14:31:42Z</time>
      </trkpt>
      <trkpt lat="39.431342" lon="3.109264">
        <ele>78.958</ele>
        <time>2021-09-01T14:31:43Z</time>
      </trkpt>
      <trkpt lat="39.431307" lon="3.109158">
        <ele>78.673</ele>
        <time>2021-09-01T14:31:44Z</time>
      </trkpt>
      <trkpt lat="39.431271" lon="3.109051">
        <ele>78.520</ele>
        <time>2021-09-01T14:31:45Z</time>
      </trkpt>
      <trkpt lat="39.431223" lon="3.108955">
        <ele>78.570</ele>
        <time>2021-09-01T14:31:46Z</time>
      </trkpt>
      <trkpt lat="39.431171" lon="3.108876">
        <ele>78.547</ele>
        <time>2021-09-01T14:31:47Z</time>
      </trkpt>
      <trkpt lat="39.431110" lon="3.108807">
        <ele>78.529</ele>
        <time>2021-09-01T14:31:48Z</time>
      </trkpt>
      <trkpt lat="39.431048" lon="3.108756">
        <ele>78.621</ele>
        <time>2021-09-01T14:31:49Z</time>
      </trkpt>
      <trkpt lat="39.430986" lon="3.108713">
        <ele>78.808</ele>
        <time>2021-09-01T14:31:50Z</time>
      </trkpt>
      <trkpt lat="39.430922" lon="3.108667">
        <ele>79.082</ele>
        <time>2021-09-01T14:31:51Z</time>
      </trkpt>
      <trkpt lat="39.430872" lon="3.108601">
        <ele>79.226</ele>
        <time>2021-09-01T14:31:52Z</time>
      </trkpt>
      <trkpt lat="39.430826" lon="3.108524">
        <ele>79.431</ele>
        <time>2021-09-01T14:31:53Z</time>
      </trkpt>
      <trkpt lat="39.430779" lon="3.108437">
        <ele>79.645</ele>
        <time>2021-09-01T14:31:54Z</time>
      </trkpt>
      <trkpt lat="39.430736" lon="3.108348">
        <ele>79.624</ele>
        <time>2021-09-01T14:31:55Z</time>
      </trkpt>
      <trkpt lat="39.430694" lon="3.108248">
        <ele>79.619</ele>
        <time>2021-09-01T14:31:56Z</time>
      </trkpt>
      <trkpt lat="39.430643" lon="3.108160">
        <ele>79.476</ele>
        <time>2021-09-01T14:31:57Z</time>
      </trkpt>
      <trkpt lat="39.430592" lon="3.108070">
        <ele>79.076</ele>
        <time>2021-09-01T14:31:58Z</time>
      </trkpt>
      <trkpt lat="39.430531" lon="3.107982">
        <ele>78.673</ele>
        <time>2021-09-01T14:31:59Z</time>
      </trkpt>
      <trkpt lat="39.430464" lon="3.107897">
        <ele>78.285</ele>
        <time>2021-09-01T14:32:00Z</time>
      </trkpt>
      <trkpt lat="39.430400" lon="3.107813">
        <ele>77.813</ele>
        <time>2021-09-01T14:32:01Z</time>
      </trkpt>
      <trkpt lat="39.430334" lon="3.107733">
        <ele>77.508</ele>
        <time>2021-09-01T14:32:02Z</time>
      </trkpt>
      <trkpt lat="39.430260" lon="3.107673">
        <ele>77.365</ele>
        <time>2021-09-01T14:32:03Z</time>
      </trkpt>
      <trkpt lat="39.430177" lon="3.107641">
        <ele>77.259</ele>
        <time>2021-09-01T14:32:04Z</time>
      </trkpt>
      <trkpt lat="39.430098" lon="3.107648">
        <ele>77.294</ele>
        <time>2021-09-01T14:32:05Z</time>
      </trkpt>
      <trkpt lat="39.430027" lon="3.107678">
        <ele>77.338</ele>
        <time>2021-09-01T14:32:06Z</time>
      </trkpt>
      <trkpt lat="39.429969" lon="3.107721">
        <ele>77.667</ele>
        <time>2021-09-01T14:32:07Z</time>
      </trkpt>
      <trkpt lat="39.429914" lon="3.107762">
        <ele>78.052</ele>
        <time>2021-09-01T14:32:08Z</time>
      </trkpt>
      <trkpt lat="39.429864" lon="3.107797">
        <ele>78.359</ele>
        <time>2021-09-01T14:32:09Z</time>
      </trkpt>
      <trkpt lat="39.429817" lon="3.107835">
        <ele>78.629</ele>
        <time>2021-09-01T14:32:10Z</time>
      </trkpt>
      <trkpt lat="39.429771" lon="3.107869">
        <ele>78.766</ele>
        <time>2021-09-01T14:32:11Z</time>
      </trkpt>
      <trkpt lat="39.429723" lon="3.107892">
        <ele>78.829</ele>
        <time>2021-09-01T14:32:12Z</time>
      </trkpt>
      <trkpt lat="39.429671" lon="3.107897">
        <ele>78.821</ele>
        <time>2021-09-01T14:32:13Z</time>
      </trkpt>
      <trkpt lat="39.429616" lon="3.107877">
        <ele>78.808</ele>
        <time>2021-09-01T14:32:14Z</time>
      </trkpt>
      <trkpt lat="39.429570" lon="3.107863">
        <ele>78.884</ele>
        <time>2021-09-01T14:32:15Z</time>
      </trkpt>
      <trkpt lat="39.429522" lon="3.107844">
        <ele>78.898</ele>
        <time>2021-09-01T14:32:16Z</time>
      </trkpt>
      <trkpt lat="39.429474" lon="3.107831">
        <ele>78.963</ele>
        <time>2021-09-01T14:32:17Z</time>
      </trkpt>
      <trkpt lat="39.429389" lon="3.107807">
        <ele>79.237</ele>
        <time>2021-09-01T14:32:19Z</time>
      </trkpt>
      <trkpt lat="39.429300" lon="3.107779">
        <ele>79.596</ele>
        <time>2021-09-01T14:32:21Z</time>
      </trkpt>
      <trkpt lat="39.429255" lon="3.107767">
        <ele>79.781</ele>
        <time>2021-09-01T14:32:22Z</time>
      </trkpt>
      <trkpt lat="39.429210" lon="3.107752">
        <ele>79.858</ele>
        <time>2021-09-01T14:32:23Z</time>
      </trkpt>
      <trkpt lat="39.429130" lon="3.107723">
        <ele>80.218</ele>
        <time>2021-09-01T14:32:25Z</time>
      </trkpt>
      <trkpt lat="39.429087" lon="3.107709">
        <ele>80.324</ele>
        <time>2021-09-01T14:32:26Z</time>
      </trkpt>
      <trkpt lat="39.428999" lon="3.107721">
        <ele>80.704</ele>
        <time>2021-09-01T14:32:28Z</time>
      </trkpt>
      <trkpt lat="39.428949" lon="3.107737">
        <ele>80.814</ele>
        <time>2021-09-01T14:32:29Z</time>
      </trkpt>
      <trkpt lat="39.428859" lon="3.107750">
        <ele>81.108</ele>
        <time>2021-09-01T14:32:31Z</time>
      </trkpt>
      <trkpt lat="39.428810" lon="3.107734">
        <ele>81.130</ele>
        <time>2021-09-01T14:32:32Z</time>
      </trkpt>
      <trkpt lat="39.428770" lon="3.107697">
        <ele>81.124</ele>
        <time>2021-09-01T14:32:33Z</time>
      </trkpt>
      <trkpt lat="39.428741" lon="3.107646">
        <ele>81.199</ele>
        <time>2021-09-01T14:32:34Z</time>
      </trkpt>
      <trkpt lat="39.428725" lon="3.107578">
        <ele>81.123</ele>
        <time>2021-09-01T14:32:35Z</time>
      </trkpt>
      <trkpt lat="39.428708" lon="3.107512">
        <ele>80.942</ele>
        <time>2021-09-01T14:32:36Z</time>
      </trkpt>
      <trkpt lat="39.428681" lon="3.107440">
        <ele>80.737</ele>
        <time>2021-09-01T14:32:37Z</time>
      </trkpt>
      <trkpt lat="39.428656" lon="3.107368">
        <ele>80.484</ele>
        <time>2021-09-01T14:32:38Z</time>
      </trkpt>
      <trkpt lat="39.428632" lon="3.107301">
        <ele>80.374</ele>
        <time>2021-09-01T14:32:39Z</time>
      </trkpt>
      <trkpt lat="39.428610" lon="3.107234">
        <ele>80.056</ele>
        <time>2021-09-01T14:32:40Z</time>
      </trkpt>
      <trkpt lat="39.428587" lon="3.107169">
        <ele>79.859</ele>
        <time>2021-09-01T14:32:41Z</time>
      </trkpt>
      <trkpt lat="39.428565" lon="3.107102">
        <ele>79.614</ele>
        <time>2021-09-01T14:32:42Z</time>
      </trkpt>
      <trkpt lat="39.428538" lon="3.107030">
        <ele>79.508</ele>
        <time>2021-09-01T14:32:43Z</time>
      </trkpt>
      <trkpt lat="39.428514" lon="3.106958">
        <ele>79.323</ele>
        <time>2021-09-01T14:32:44Z</time>
      </trkpt>
      <trkpt lat="39.428494" lon="3.106903">
        <ele>79.277</ele>
        <time>2021-09-01T14:32:45Z</time>
      </trkpt>
      <trkpt lat="39.428457" lon="3.106821">
        <ele>78.862</ele>
        <time>2021-09-01T14:32:47Z</time>
      </trkpt>
      <trkpt lat="39.428413" lon="3.106754">
        <ele>78.356</ele>
        <time>2021-09-01T14:32:49Z</time>
      </trkpt>
      <trkpt lat="39.428348" lon="3.106765">
        <ele>77.955</ele>
        <time>2021-09-01T14:32:51Z</time>
      </trkpt>
      <trkpt lat="39.428299" lon="3.106835">
        <ele>77.920</ele>
        <time>2021-09-01T14:32:53Z</time>
      </trkpt>
      <trkpt lat="39.428252" lon="3.106902">
        <ele>78.087</ele>
        <time>2021-09-01T14:32:55Z</time>
      </trkpt>
      <trkpt lat="39.428195" lon="3.106981">
        <ele>78.387</ele>
        <time>2021-09-01T14:32:57Z</time>
      </trkpt>
      <trkpt lat="39.428139" lon="3.107062">
        <ele>78.472</ele>
        <time>2021-09-01T14:32:59Z</time>
      </trkpt>
      <trkpt lat="39.428072" lon="3.107139">
        <ele>78.613</ele>
        <time>2021-09-01T14:33:01Z</time>
      </trkpt>
      <trkpt lat="39.428035" lon="3.107178">
        <ele>78.614</ele>
        <time>2021-09-01T14:33:02Z</time>
      </trkpt>
      <trkpt lat="39.427999" lon="3.107215">
        <ele>78.608</ele>
        <time>2021-09-01T14:33:03Z</time>
      </trkpt>
      <trkpt lat="39.427934" lon="3.107290">
        <ele>78.995</ele>
        <time>2021-09-01T14:33:05Z</time>
      </trkpt>
      <trkpt lat="39.427869" lon="3.107350">
        <ele>79.159</ele>
        <time>2021-09-01T14:33:07Z</time>
      </trkpt>
      <trkpt lat="39.427811" lon="3.107406">
        <ele>79.214</ele>
        <time>2021-09-01T14:33:09Z</time>
      </trkpt>
      <trkpt lat="39.427757" lon="3.107466">
        <ele>79.458</ele>
        <time>2021-09-01T14:33:11Z</time>
      </trkpt>
      <trkpt lat="39.427713" lon="3.107520">
        <ele>79.777</ele>
        <time>2021-09-01T14:33:13Z</time>
      </trkpt>
      <trkpt lat="39.427663" lon="3.107558">
        <ele>80.122</ele>
        <time>2021-09-01T14:33:15Z</time>
      </trkpt>
      <trkpt lat="39.427611" lon="3.107583">
        <ele>80.699</ele>
        <time>2021-09-01T14:33:17Z</time>
      </trkpt>
      <trkpt lat="39.427561" lon="3.107596">
        <ele>81.039</ele>
        <time>2021-09-01T14:33:19Z</time>
      </trkpt>
      <trkpt lat="39.427497" lon="3.107599">
        <ele>81.473</ele>
        <time>2021-09-01T14:33:21Z</time>
      </trkpt>
      <trkpt lat="39.427427" lon="3.107603">
        <ele>82.085</ele>
        <time>2021-09-01T14:33:23Z</time>
      </trkpt>
      <trkpt lat="39.427360" lon="3.107614">
        <ele>82.413</ele>
        <time>2021-09-01T14:33:25Z</time>
      </trkpt>
      <trkpt lat="39.427300" lon="3.107644">
        <ele>82.508</ele>
        <time>2021-09-01T14:33:27Z</time>
      </trkpt>
      <trkpt lat="39.427241" lon="3.107691">
        <ele>82.395</ele>
        <time>2021-09-01T14:33:29Z</time>
      </trkpt>
      <trkpt lat="39.427179" lon="3.107751">
        <ele>82.389</ele>
        <time>2021-09-01T14:33:31Z</time>
      </trkpt>
      <trkpt lat="39.427115" lon="3.107804">
        <ele>82.164</ele>
        <time>2021-09-01T14:33:33Z</time>
      </trkpt>
      <trkpt lat="39.427052" lon="3.107856">
        <ele>82.068</ele>
        <time>2021-09-01T14:33:35Z</time>
      </trkpt>
      <trkpt lat="39.426986" lon="3.107894">
        <ele>81.917</ele>
        <time>2021-09-01T14:33:37Z</time>
      </trkpt>
      <trkpt lat="39.426921" lon="3.107931">
        <ele>81.972</ele>
        <time>2021-09-01T14:33:39Z</time>
      </trkpt>
      <trkpt lat="39.426862" lon="3.108000">
        <ele>82.099</ele>
        <time>2021-09-01T14:33:41Z</time>
      </trkpt>
      <trkpt lat="39.426838" lon="3.108049">
        <ele>82.189</ele>
        <time>2021-09-01T14:33:42Z</time>
      </trkpt>
      <trkpt lat="39.426821" lon="3.108152">
        <ele>82.217</ele>
        <time>2021-09-01T14:33:44Z</time>
      </trkpt>
      <trkpt lat="39.426828" lon="3.108254">
        <ele>82.487</ele>
        <time>2021-09-01T14:33:46Z</time>
      </trkpt>
      <trkpt lat="39.426789" lon="3.108343">
        <ele>82.615</ele>
        <time>2021-09-01T14:33:48Z</time>
      </trkpt>
      <trkpt lat="39.426704" lon="3.108367">
        <ele>82.708</ele>
        <time>2021-09-01T14:33:50Z</time>
      </trkpt>
      <trkpt lat="39.426627" lon="3.108382">
        <ele>82.699</ele>
        <time>2021-09-01T14:33:52Z</time>
      </trkpt>
      <trkpt lat="39.426544" lon="3.108403">
        <ele>82.453</ele>
        <time>2021-09-01T14:33:54Z</time>
      </trkpt>
      <trkpt lat="39.426464" lon="3.108415">
        <ele>82.348</ele>
        <time>2021-09-01T14:33:56Z</time>
      </trkpt>
      <trkpt lat="39.426404" lon="3.108380">
        <ele>82.292</ele>
        <time>2021-09-01T14:33:58Z</time>
      </trkpt>
      <trkpt lat="39.426366" lon="3.108286">
        <ele>81.831</ele>
        <time>2021-09-01T14:34:00Z</time>
      </trkpt>
      <trkpt lat="39.426348" lon="3.108227">
        <ele>81.566</ele>
        <time>2021-09-01T14:34:01Z</time>
      </trkpt>
      <trkpt lat="39.426325" lon="3.108166">
        <ele>81.333</ele>
        <time>2021-09-01T14:34:02Z</time>
      </trkpt>
      <trkpt lat="39.426307" lon="3.108098">
        <ele>81.193</ele>
        <time>2021-09-01T14:34:03Z</time>
      </trkpt>
      <trkpt lat="39.426289" lon="3.108034">
        <ele>80.914</ele>
        <time>2021-09-01T14:34:04Z</time>
      </trkpt>
      <trkpt lat="39.426267" lon="3.107969">
        <ele>80.754</ele>
        <time>2021-09-01T14:34:05Z</time>
      </trkpt>
      <trkpt lat="39.426245" lon="3.107893">
        <ele>80.609</ele>
        <time>2021-09-01T14:34:06Z</time>
      </trkpt>
      <trkpt lat="39.426224" lon="3.107820">
        <ele>80.508</ele>
        <time>2021-09-01T14:34:07Z</time>
      </trkpt>
      <trkpt lat="39.426201" lon="3.107749">
        <ele>80.379</ele>
        <time>2021-09-01T14:34:08Z</time>
      </trkpt>
      <trkpt lat="39.426175" lon="3.107683">
        <ele>80.253</ele>
        <time>2021-09-01T14:34:09Z</time>
      </trkpt>
      <trkpt lat="39.426150" lon="3.107617">
        <ele>80.268</ele>
        <time>2021-09-01T14:34:10Z</time>
      </trkpt>
      <trkpt lat="39.426124" lon="3.107549">
        <ele>80.052</ele>
        <time>2021-09-01T14:34:11Z</time>
      </trkpt>
      <trkpt lat="39.426097" lon="3.107485">
        <ele>79.961</ele>
        <time>2021-09-01T14:34:12Z</time>
      </trkpt>
      <trkpt lat="39.426071" lon="3.107422">
        <ele>79.956</ele>
        <time>2021-09-01T14:34:13Z</time>
      </trkpt>
      <trkpt lat="39.426052" lon="3.107357">
        <ele>79.813</ele>
        <time>2021-09-01T14:34:14Z</time>
      </trkpt>
      <trkpt lat="39.426027" lon="3.107291">
        <ele>79.863</ele>
        <time>2021-09-01T14:34:15Z</time>
      </trkpt>
      <trkpt lat="39.426003" lon="3.107227">
        <ele>79.743</ele>
        <time>2021-09-01T14:34:16Z</time>
      </trkpt>
      <trkpt lat="39.425976" lon="3.107165">
        <ele>79.764</ele>
        <time>2021-09-01T14:34:17Z</time>
      </trkpt>
      <trkpt lat="39.425952" lon="3.107096">
        <ele>79.610</ele>
        <time>2021-09-01T14:34:18Z</time>
      </trkpt>
      <trkpt lat="39.425928" lon="3.107028">
        <ele>79.508</ele>
        <time>2021-09-01T14:34:19Z</time>
      </trkpt>
      <trkpt lat="39.425903" lon="3.106962">
        <ele>79.532</ele>
        <time>2021-09-01T14:34:20Z</time>
      </trkpt>
      <trkpt lat="39.425876" lon="3.106897">
        <ele>79.536</ele>
        <time>2021-09-01T14:34:21Z</time>
      </trkpt>
      <trkpt lat="39.425851" lon="3.106831">
        <ele>79.431</ele>
        <time>2021-09-01T14:34:22Z</time>
      </trkpt>
      <trkpt lat="39.425827" lon="3.106766">
        <ele>79.465</ele>
        <time>2021-09-01T14:34:23Z</time>
      </trkpt>
      <trkpt lat="39.425804" lon="3.106700">
        <ele>79.374</ele>
        <time>2021-09-01T14:34:24Z</time>
      </trkpt>
      <trkpt lat="39.425781" lon="3.106633">
        <ele>79.219</ele>
        <time>2021-09-01T14:34:25Z</time>
      </trkpt>
      <trkpt lat="39.425760" lon="3.106564">
        <ele>79.216</ele>
        <time>2021-09-01T14:34:26Z</time>
      </trkpt>
      <trkpt lat="39.425740" lon="3.106498">
        <ele>79.026</ele>
        <time>2021-09-01T14:34:27Z</time>
      </trkpt>
      <trkpt lat="39.425718" lon="3.106430">
        <ele>79.099</ele>
        <time>2021-09-01T14:34:28Z</time>
      </trkpt>
      <trkpt lat="39.425693" lon="3.106360">
        <ele>78.807</ele>
        <time>2021-09-01T14:34:29Z</time>
      </trkpt>
      <trkpt lat="39.425667" lon="3.106292">
        <ele>78.727</ele>
        <time>2021-09-01T14:34:30Z</time>
      </trkpt>
      <trkpt lat="39.425640" lon="3.106221">
        <ele>78.608</ele>
        <time>2021-09-01T14:34:31Z</time>
      </trkpt>
      <trkpt lat="39.425614" lon="3.106150">
        <ele>78.687</ele>
        <time>2021-09-01T14:34:32Z</time>
      </trkpt>
      <trkpt lat="39.425584" lon="3.106075">
        <ele>78.541</ele>
        <time>2021-09-01T14:34:33Z</time>
      </trkpt>
      <trkpt lat="39.425550" lon="3.106006">
        <ele>78.426</ele>
        <time>2021-09-01T14:34:34Z</time>
      </trkpt>
      <trkpt lat="39.425509" lon="3.105940">
        <ele>78.390</ele>
        <time>2021-09-01T14:34:35Z</time>
      </trkpt>
      <trkpt lat="39.425461" lon="3.105881">
        <ele>78.399</ele>
        <time>2021-09-01T14:34:36Z</time>
      </trkpt>
      <trkpt lat="39.425416" lon="3.105822">
        <ele>78.134</ele>
        <time>2021-09-01T14:34:37Z</time>
      </trkpt>
      <trkpt lat="39.425370" lon="3.105769">
        <ele>78.061</ele>
        <time>2021-09-01T14:34:38Z</time>
      </trkpt>
      <trkpt lat="39.425325" lon="3.105714">
        <ele>78.031</ele>
        <time>2021-09-01T14:34:39Z</time>
      </trkpt>
      <trkpt lat="39.425282" lon="3.105661">
        <ele>77.999</ele>
        <time>2021-09-01T14:34:40Z</time>
      </trkpt>
      <trkpt lat="39.425237" lon="3.105614">
        <ele>77.907</ele>
        <time>2021-09-01T14:34:41Z</time>
      </trkpt>
      <trkpt lat="39.425194" lon="3.105568">
        <ele>77.827</ele>
        <time>2021-09-01T14:34:42Z</time>
      </trkpt>
      <trkpt lat="39.425152" lon="3.105520">
        <ele>77.808</ele>
        <time>2021-09-01T14:34:43Z</time>
      </trkpt>
      <trkpt lat="39.425112" lon="3.105476">
        <ele>77.867</ele>
        <time>2021-09-01T14:34:44Z</time>
      </trkpt>
      <trkpt lat="39.425071" lon="3.105429">
        <ele>77.721</ele>
        <time>2021-09-01T14:34:45Z</time>
      </trkpt>
      <trkpt lat="39.425025" lon="3.105393">
        <ele>77.616</ele>
        <time>2021-09-01T14:34:46Z</time>
      </trkpt>
      <trkpt lat="39.424977" lon="3.105363">
        <ele>77.690</ele>
        <time>2021-09-01T14:34:47Z</time>
      </trkpt>
      <trkpt lat="39.424927" lon="3.105336">
        <ele>77.779</ele>
        <time>2021-09-01T14:34:48Z</time>
      </trkpt>
      <trkpt lat="39.424880" lon="3.105321">
        <ele>77.774</ele>
        <time>2021-09-01T14:34:49Z</time>
      </trkpt>
      <trkpt lat="39.424832" lon="3.105311">
        <ele>77.881</ele>
        <time>2021-09-01T14:34:50Z</time>
      </trkpt>
      <trkpt lat="39.424782" lon="3.105318">
        <ele>77.871</ele>
        <time>2021-09-01T14:34:51Z</time>
      </trkpt>
      <trkpt lat="39.424734" lon="3.105303">
        <ele>78.046</ele>
        <time>2021-09-01T14:34:52Z</time>
      </trkpt>
      <trkpt lat="39.424650" lon="3.105262">
        <ele>78.388</ele>
        <time>2021-09-01T14:34:54Z</time>
      </trkpt>
      <trkpt lat="39.424576" lon="3.105245">
        <ele>78.816</ele>
        <time>2021-09-01T14:34:56Z</time>
      </trkpt>
      <trkpt lat="39.424508" lon="3.105246">
        <ele>79.208</ele>
        <time>2021-09-01T14:34:58Z</time>
      </trkpt>
      <trkpt lat="39.424453" lon="3.105240">
        <ele>79.652</ele>
        <time>2021-09-01T14:35:00Z</time>
      </trkpt>
      <trkpt lat="39.424397" lon="3.105240">
        <ele>80.046</ele>
        <time>2021-09-01T14:35:02Z</time>
      </trkpt>
      <trkpt lat="39.424347" lon="3.105219">
        <ele>80.471</ele>
        <time>2021-09-01T14:35:04Z</time>
      </trkpt>
      <trkpt lat="39.424304" lon="3.105188">
        <ele>80.895</ele>
        <time>2021-09-01T14:35:06Z</time>
      </trkpt>
      <trkpt lat="39.424252" lon="3.105144">
        <ele>81.534</ele>
        <time>2021-09-01T14:35:09Z</time>
      </trkpt>
      <trkpt lat="39.424209" lon="3.105104">
        <ele>82.039</ele>
        <time>2021-09-01T14:35:11Z</time>
      </trkpt>
      <trkpt lat="39.424167" lon="3.105064">
        <ele>82.616</ele>
        <time>2021-09-01T14:35:13Z</time>
      </trkpt>
      <trkpt lat="39.424132" lon="3.105024">
        <ele>83.186</ele>
        <time>2021-09-01T14:35:15Z</time>
      </trkpt>
      <trkpt lat="39.424092" lon="3.104959">
        <ele>83.899</ele>
        <time>2021-09-01T14:35:18Z</time>
      </trkpt>
      <trkpt lat="39.424061" lon="3.104908">
        <ele>83.907</ele>
        <time>2021-09-01T14:35:20Z</time>
      </trkpt>
      <trkpt lat="39.424024" lon="3.104850">
        <ele>83.927</ele>
        <time>2021-09-01T14:35:22Z</time>
      </trkpt>
      <trkpt lat="39.423978" lon="3.104775">
        <ele>83.708</ele>
        <time>2021-09-01T14:35:24Z</time>
      </trkpt>
      <trkpt lat="39.423947" lon="3.104710">
        <ele>83.717</ele>
        <time>2021-09-01T14:35:26Z</time>
      </trkpt>
      <trkpt lat="39.423908" lon="3.104648">
        <ele>83.691</ele>
        <time>2021-09-01T14:35:28Z</time>
      </trkpt>
      <trkpt lat="39.423864" lon="3.104575">
        <ele>83.646</ele>
        <time>2021-09-01T14:35:30Z</time>
      </trkpt>
      <trkpt lat="39.423820" lon="3.104508">
        <ele>83.520</ele>
        <time>2021-09-01T14:35:32Z</time>
      </trkpt>
      <trkpt lat="39.423766" lon="3.104439">
        <ele>83.579</ele>
        <time>2021-09-01T14:35:34Z</time>
      </trkpt>
      <trkpt lat="39.423728" lon="3.104399">
        <ele>83.434</ele>
        <time>2021-09-01T14:35:35Z</time>
      </trkpt>
      <trkpt lat="39.423687" lon="3.104361">
        <ele>83.451</ele>
        <time>2021-09-01T14:35:36Z</time>
      </trkpt>
      <trkpt lat="39.423640" lon="3.104324">
        <ele>83.271</ele>
        <time>2021-09-01T14:35:37Z</time>
      </trkpt>
      <trkpt lat="39.423595" lon="3.104282">
        <ele>83.165</ele>
        <time>2021-09-01T14:35:38Z</time>
      </trkpt>
      <trkpt lat="39.423552" lon="3.104243">
        <ele>82.968</ele>
        <time>2021-09-01T14:35:39Z</time>
      </trkpt>
      <trkpt lat="39.423504" lon="3.104205">
        <ele>82.714</ele>
        <time>2021-09-01T14:35:40Z</time>
      </trkpt>
      <trkpt lat="39.423460" lon="3.104171">
        <ele>82.508</ele>
        <time>2021-09-01T14:35:41Z</time>
      </trkpt>
      <trkpt lat="39.423418" lon="3.104136">
        <ele>82.244</ele>
        <time>2021-09-01T14:35:42Z</time>
      </trkpt>
      <trkpt lat="39.423375" lon="3.104097">
        <ele>82.068</ele>
        <time>2021-09-01T14:35:43Z</time>
      </trkpt>
      <trkpt lat="39.423329" lon="3.104065">
        <ele>81.923</ele>
        <time>2021-09-01T14:35:44Z</time>
      </trkpt>
      <trkpt lat="39.423292" lon="3.104031">
        <ele>81.747</ele>
        <time>2021-09-01T14:35:45Z</time>
      </trkpt>
      <trkpt lat="39.423227" lon="3.103968">
        <ele>81.466</ele>
        <time>2021-09-01T14:35:47Z</time>
      </trkpt>
      <trkpt lat="39.423159" lon="3.103924">
        <ele>81.371</ele>
        <time>2021-09-01T14:35:49Z</time>
      </trkpt>
      <trkpt lat="39.423090" lon="3.103880">
        <ele>81.388</ele>
        <time>2021-09-01T14:35:51Z</time>
      </trkpt>
      <trkpt lat="39.423022" lon="3.103836">
        <ele>81.328</ele>
        <time>2021-09-01T14:35:53Z</time>
      </trkpt>
      <trkpt lat="39.422968" lon="3.103786">
        <ele>81.516</ele>
        <time>2021-09-01T14:35:55Z</time>
      </trkpt>
      <trkpt lat="39.422944" lon="3.103701">
        <ele>81.776</ele>
        <time>2021-09-01T14:35:57Z</time>
      </trkpt>
      <trkpt lat="39.422929" lon="3.103610">
        <ele>81.913</ele>
        <time>2021-09-01T14:35:59Z</time>
      </trkpt>
      <trkpt lat="39.422912" lon="3.103515">
        <ele>81.908</ele>
        <time>2021-09-01T14:36:01Z</time>
      </trkpt>
      <trkpt lat="39.422889" lon="3.103426">
        <ele>81.989</ele>
        <time>2021-09-01T14:36:03Z</time>
      </trkpt>
      <trkpt lat="39.422880" lon="3.103369">
        <ele>81.933</ele>
        <time>2021-09-01T14:36:04Z</time>
      </trkpt>
      <trkpt lat="39.422861" lon="3.103257">
        <ele>81.948</ele>
        <time>2021-09-01T14:36:06Z</time>
      </trkpt>
      <trkpt lat="39.422847" lon="3.103199">
        <ele>81.732</ele>
        <time>2021-09-01T14:36:07Z</time>
      </trkpt>
      <trkpt lat="39.422847" lon="3.103139">
        <ele>81.641</ele>
        <time>2021-09-01T14:36:08Z</time>
      </trkpt>
      <trkpt lat="39.422840" lon="3.103081">
        <ele>81.546</ele>
        <time>2021-09-01T14:36:09Z</time>
      </trkpt>
      <trkpt lat="39.422827" lon="3.103024">
        <ele>81.343</ele>
        <time>2021-09-01T14:36:10Z</time>
      </trkpt>
      <trkpt lat="39.422816" lon="3.102965">
        <ele>81.333</ele>
        <time>2021-09-01T14:36:11Z</time>
      </trkpt>
      <trkpt lat="39.422799" lon="3.102850">
        <ele>81.352</ele>
        <time>2021-09-01T14:36:13Z</time>
      </trkpt>
      <trkpt lat="39.422784" lon="3.102740">
        <ele>81.453</ele>
        <time>2021-09-01T14:36:15Z</time>
      </trkpt>
      <trkpt lat="39.422766" lon="3.102625">
        <ele>81.408</ele>
        <time>2021-09-01T14:36:17Z</time>
      </trkpt>
      <trkpt lat="39.422749" lon="3.102523">
        <ele>81.608</ele>
        <time>2021-09-01T14:36:19Z</time>
      </trkpt>
      <trkpt lat="39.422730" lon="3.102428">
        <ele>81.943</ele>
        <time>2021-09-01T14:36:21Z</time>
      </trkpt>
      <trkpt lat="39.422715" lon="3.102343">
        <ele>82.397</ele>
        <time>2021-09-01T14:36:23Z</time>
      </trkpt>
      <trkpt lat="39.422702" lon="3.102264">
        <ele>82.762</ele>
        <time>2021-09-01T14:36:25Z</time>
      </trkpt>
      <trkpt lat="39.422681" lon="3.102189">
        <ele>83.176</ele>
        <time>2021-09-01T14:36:27Z</time>
      </trkpt>
      <trkpt lat="39.422666" lon="3.102117">
        <ele>83.545</ele>
        <time>2021-09-01T14:36:29Z</time>
      </trkpt>
      <trkpt lat="39.422649" lon="3.102052">
        <ele>83.860</ele>
        <time>2021-09-01T14:36:31Z</time>
      </trkpt>
      <trkpt lat="39.422635" lon="3.101983">
        <ele>84.127</ele>
        <time>2021-09-01T14:36:33Z</time>
      </trkpt>
      <trkpt lat="39.422631" lon="3.101904">
        <ele>84.537</ele>
        <time>2021-09-01T14:36:35Z</time>
      </trkpt>
      <trkpt lat="39.422617" lon="3.101826">
        <ele>85.073</ele>
        <time>2021-09-01T14:36:37Z</time>
      </trkpt>
      <trkpt lat="39.422600" lon="3.101746">
        <ele>85.485</ele>
        <time>2021-09-01T14:36:39Z</time>
      </trkpt>
      <trkpt lat="39.422585" lon="3.101674">
        <ele>85.713</ele>
        <time>2021-09-01T14:36:41Z</time>
      </trkpt>
      <trkpt lat="39.422569" lon="3.101607">
        <ele>85.908</ele>
        <time>2021-09-01T14:36:43Z</time>
      </trkpt>
      <trkpt lat="39.422555" lon="3.101546">
        <ele>86.385</ele>
        <time>2021-09-01T14:36:45Z</time>
      </trkpt>
      <trkpt lat="39.422546" lon="3.101476">
        <ele>86.799</ele>
        <time>2021-09-01T14:36:47Z</time>
      </trkpt>
      <trkpt lat="39.422531" lon="3.101406">
        <ele>86.944</ele>
        <time>2021-09-01T14:36:49Z</time>
      </trkpt>
      <trkpt lat="39.422523" lon="3.101343">
        <ele>87.268</ele>
        <time>2021-09-01T14:36:51Z</time>
      </trkpt>
      <trkpt lat="39.422500" lon="3.101269">
        <ele>87.517</ele>
        <time>2021-09-01T14:36:53Z</time>
      </trkpt>
      <trkpt lat="39.422454" lon="3.101207">
        <ele>87.932</ele>
        <time>2021-09-01T14:36:55Z</time>
      </trkpt>
      <trkpt lat="39.422423" lon="3.101140">
        <ele>88.379</ele>
        <time>2021-09-01T14:36:57Z</time>
      </trkpt>
      <trkpt lat="39.422406" lon="3.101049">
        <ele>88.779</ele>
        <time>2021-09-01T14:36:59Z</time>
      </trkpt>
      <trkpt lat="39.422389" lon="3.100952">
        <ele>88.822</ele>
        <time>2021-09-01T14:37:01Z</time>
      </trkpt>
      <trkpt lat="39.422378" lon="3.100850">
        <ele>88.962</ele>
        <time>2021-09-01T14:37:03Z</time>
      </trkpt>
      <trkpt lat="39.422371" lon="3.100751">
        <ele>88.808</ele>
        <time>2021-09-01T14:37:05Z</time>
      </trkpt>
      <trkpt lat="39.422355" lon="3.100661">
        <ele>88.808</ele>
        <time>2021-09-01T14:37:07Z</time>
      </trkpt>
      <trkpt lat="39.422294" lon="3.100606">
        <ele>88.790</ele>
        <time>2021-09-01T14:37:09Z</time>
      </trkpt>
      <trkpt lat="39.422207" lon="3.100641">
        <ele>88.644</ele>
        <time>2021-09-01T14:37:11Z</time>
      </trkpt>
      <trkpt lat="39.422143" lon="3.100689">
        <ele>88.759</ele>
        <time>2021-09-01T14:37:13Z</time>
      </trkpt>
      <trkpt lat="39.422085" lon="3.100728">
        <ele>89.073</ele>
        <time>2021-09-01T14:37:15Z</time>
      </trkpt>
      <trkpt lat="39.422028" lon="3.100766">
        <ele>89.332</ele>
        <time>2021-09-01T14:37:17Z</time>
      </trkpt>
      <trkpt lat="39.421966" lon="3.100809">
        <ele>89.517</ele>
        <time>2021-09-01T14:37:19Z</time>
      </trkpt>
      <trkpt lat="39.421897" lon="3.100853">
        <ele>89.644</ele>
        <time>2021-09-01T14:37:21Z</time>
      </trkpt>
      <trkpt lat="39.421828" lon="3.100897">
        <ele>89.894</ele>
        <time>2021-09-01T14:37:23Z</time>
      </trkpt>
      <trkpt lat="39.421763" lon="3.100937">
        <ele>89.954</ele>
        <time>2021-09-01T14:37:25Z</time>
      </trkpt>
      <trkpt lat="39.421697" lon="3.100989">
        <ele>90.056</ele>
        <time>2021-09-01T14:37:27Z</time>
      </trkpt>
      <trkpt lat="39.421631" lon="3.101045">
        <ele>90.111</ele>
        <time>2021-09-01T14:37:29Z</time>
      </trkpt>
      <trkpt lat="39.421556" lon="3.101097">
        <ele>90.108</ele>
        <time>2021-09-01T14:37:31Z</time>
      </trkpt>
      <trkpt lat="39.421513" lon="3.101118">
        <ele>90.263</ele>
        <time>2021-09-01T14:37:32Z</time>
      </trkpt>
      <trkpt lat="39.421438" lon="3.101172">
        <ele>90.347</ele>
        <time>2021-09-01T14:37:34Z</time>
      </trkpt>
      <trkpt lat="39.421398" lon="3.101202">
        <ele>90.352</ele>
        <time>2021-09-01T14:37:35Z</time>
      </trkpt>
      <trkpt lat="39.421354" lon="3.101227">
        <ele>90.326</ele>
        <time>2021-09-01T14:37:36Z</time>
      </trkpt>
      <trkpt lat="39.421271" lon="3.101274">
        <ele>90.395</ele>
        <time>2021-09-01T14:37:38Z</time>
      </trkpt>
      <trkpt lat="39.421224" lon="3.101307">
        <ele>90.380</ele>
        <time>2021-09-01T14:37:39Z</time>
      </trkpt>
      <trkpt lat="39.421182" lon="3.101338">
        <ele>90.477</ele>
        <time>2021-09-01T14:37:40Z</time>
      </trkpt>
      <trkpt lat="39.421136" lon="3.101365">
        <ele>90.477</ele>
        <time>2021-09-01T14:37:41Z</time>
      </trkpt>
      <trkpt lat="39.421096" lon="3.101396">
        <ele>90.491</ele>
        <time>2021-09-01T14:37:42Z</time>
      </trkpt>
      <trkpt lat="39.421057" lon="3.101424">
        <ele>90.481</ele>
        <time>2021-09-01T14:37:43Z</time>
      </trkpt>
      <trkpt lat="39.421014" lon="3.101445">
        <ele>90.419</ele>
        <time>2021-09-01T14:37:44Z</time>
      </trkpt>
      <trkpt lat="39.420940" lon="3.101491">
        <ele>90.508</ele>
        <time>2021-09-01T14:37:46Z</time>
      </trkpt>
      <trkpt lat="39.420865" lon="3.101558">
        <ele>90.577</ele>
        <time>2021-09-01T14:37:48Z</time>
      </trkpt>
      <trkpt lat="39.420825" lon="3.101589">
        <ele>90.591</ele>
        <time>2021-09-01T14:37:49Z</time>
      </trkpt>
      <trkpt lat="39.420783" lon="3.101621">
        <ele>90.576</ele>
        <time>2021-09-01T14:37:50Z</time>
      </trkpt>
      <trkpt lat="39.420740" lon="3.101651">
        <ele>90.550</ele>
        <time>2021-09-01T14:37:51Z</time>
      </trkpt>
      <trkpt lat="39.420694" lon="3.101674">
        <ele>90.549</ele>
        <time>2021-09-01T14:37:52Z</time>
      </trkpt>
      <trkpt lat="39.420643" lon="3.101704">
        <ele>90.574</ele>
        <time>2021-09-01T14:37:53Z</time>
      </trkpt>
      <trkpt lat="39.420595" lon="3.101729">
        <ele>90.531</ele>
        <time>2021-09-01T14:37:54Z</time>
      </trkpt>
      <trkpt lat="39.420553" lon="3.101758">
        <ele>90.581</ele>
        <time>2021-09-01T14:37:55Z</time>
      </trkpt>
      <trkpt lat="39.420511" lon="3.101787">
        <ele>90.526</ele>
        <time>2021-09-01T14:37:56Z</time>
      </trkpt>
      <trkpt lat="39.420473" lon="3.101822">
        <ele>90.647</ele>
        <time>2021-09-01T14:37:57Z</time>
      </trkpt>
      <trkpt lat="39.420430" lon="3.101845">
        <ele>90.611</ele>
        <time>2021-09-01T14:37:58Z</time>
      </trkpt>
      <trkpt lat="39.420384" lon="3.101874">
        <ele>90.608</ele>
        <time>2021-09-01T14:37:59Z</time>
      </trkpt>
      <trkpt lat="39.420341" lon="3.101905">
        <ele>90.660</ele>
        <time>2021-09-01T14:38:00Z</time>
      </trkpt>
      <trkpt lat="39.420299" lon="3.101933">
        <ele>90.684</ele>
        <time>2021-09-01T14:38:01Z</time>
      </trkpt>
      <trkpt lat="39.420260" lon="3.101964">
        <ele>90.679</ele>
        <time>2021-09-01T14:38:02Z</time>
      </trkpt>
      <trkpt lat="39.420180" lon="3.102017">
        <ele>90.863</ele>
        <time>2021-09-01T14:38:04Z</time>
      </trkpt>
      <trkpt lat="39.420099" lon="3.102068">
        <ele>91.072</ele>
        <time>2021-09-01T14:38:06Z</time>
      </trkpt>
      <trkpt lat="39.420020" lon="3.102117">
        <ele>91.147</ele>
        <time>2021-09-01T14:38:08Z</time>
      </trkpt>
      <trkpt lat="39.419946" lon="3.102174">
        <ele>91.224</ele>
        <time>2021-09-01T14:38:10Z</time>
      </trkpt>
      <trkpt lat="39.419857" lon="3.102185">
        <ele>91.414</ele>
        <time>2021-09-01T14:38:12Z</time>
      </trkpt>
      <trkpt lat="39.419773" lon="3.102183">
        <ele>91.485</ele>
        <time>2021-09-01T14:38:14Z</time>
      </trkpt>
      <trkpt lat="39.419698" lon="3.102241">
        <ele>91.489</ele>
        <time>2021-09-01T14:38:16Z</time>
      </trkpt>
      <trkpt lat="39.419624" lon="3.102300">
        <ele>91.417</ele>
        <time>2021-09-01T14:38:18Z</time>
      </trkpt>
      <trkpt lat="39.419582" lon="3.102331">
        <ele>91.408</ele>
        <time>2021-09-01T14:38:19Z</time>
      </trkpt>
      <trkpt lat="39.419534" lon="3.102358">
        <ele>91.326</ele>
        <time>2021-09-01T14:38:20Z</time>
      </trkpt>
      <trkpt lat="39.419486" lon="3.102390">
        <ele>91.330</ele>
        <time>2021-09-01T14:38:21Z</time>
      </trkpt>
      <trkpt lat="39.419439" lon="3.102417">
        <ele>91.235</ele>
        <time>2021-09-01T14:38:22Z</time>
      </trkpt>
      <trkpt lat="39.419395" lon="3.102447">
        <ele>91.279</ele>
        <time>2021-09-01T14:38:23Z</time>
      </trkpt>
      <trkpt lat="39.419347" lon="3.102477">
        <ele>91.378</ele>
        <time>2021-09-01T14:38:24Z</time>
      </trkpt>
      <trkpt lat="39.419306" lon="3.102507">
        <ele>91.413</ele>
        <time>2021-09-01T14:38:25Z</time>
      </trkpt>
      <trkpt lat="39.419265" lon="3.102539">
        <ele>91.680</ele>
        <time>2021-09-01T14:38:26Z</time>
      </trkpt>
      <trkpt lat="39.419183" lon="3.102580">
        <ele>91.710</ele>
        <time>2021-09-01T14:38:28Z</time>
      </trkpt>
      <trkpt lat="39.419142" lon="3.102607">
        <ele>91.758</ele>
        <time>2021-09-01T14:38:29Z</time>
      </trkpt>
      <trkpt lat="39.419100" lon="3.102634">
        <ele>91.652</ele>
        <time>2021-09-01T14:38:30Z</time>
      </trkpt>
      <trkpt lat="39.419050" lon="3.102663">
        <ele>91.417</ele>
        <time>2021-09-01T14:38:31Z</time>
      </trkpt>
      <trkpt lat="39.419008" lon="3.102692">
        <ele>91.408</ele>
        <time>2021-09-01T14:38:32Z</time>
      </trkpt>
      <trkpt lat="39.418935" lon="3.102750">
        <ele>91.483</ele>
        <time>2021-09-01T14:38:34Z</time>
      </trkpt>
      <trkpt lat="39.418865" lon="3.102811">
        <ele>91.637</ele>
        <time>2021-09-01T14:38:36Z</time>
      </trkpt>
      <trkpt lat="39.418807" lon="3.102866">
        <ele>92.132</ele>
        <time>2021-09-01T14:38:38Z</time>
      </trkpt>
      <trkpt lat="39.418746" lon="3.102903">
        <ele>92.586</ele>
        <time>2021-09-01T14:38:40Z</time>
      </trkpt>
      <trkpt lat="39.418689" lon="3.102940">
        <ele>92.695</ele>
        <time>2021-09-01T14:38:42Z</time>
      </trkpt>
      <trkpt lat="39.418636" lon="3.102989">
        <ele>92.790</ele>
        <time>2021-09-01T14:38:44Z</time>
      </trkpt>
      <trkpt lat="39.418597" lon="3.103073">
        <ele>92.897</ele>
        <time>2021-09-01T14:38:46Z</time>
      </trkpt>
      <trkpt lat="39.418553" lon="3.103145">
        <ele>92.937</ele>
        <time>2021-09-01T14:38:48Z</time>
      </trkpt>
      <trkpt lat="39.418487" lon="3.103202">
        <ele>92.719</ele>
        <time>2021-09-01T14:38:50Z</time>
      </trkpt>
      <trkpt lat="39.418417" lon="3.103253">
        <ele>92.609</ele>
        <time>2021-09-01T14:38:52Z</time>
      </trkpt>
      <trkpt lat="39.418359" lon="3.103322">
        <ele>92.719</ele>
        <time>2021-09-01T14:38:54Z</time>
      </trkpt>
      <trkpt lat="39.418301" lon="3.103389">
        <ele>93.008</ele>
        <time>2021-09-01T14:38:56Z</time>
      </trkpt>
      <trkpt lat="39.418237" lon="3.103464">
        <ele>93.319</ele>
        <time>2021-09-01T14:38:58Z</time>
      </trkpt>
      <trkpt lat="39.418200" lon="3.103501">
        <ele>93.483</ele>
        <time>2021-09-01T14:38:59Z</time>
      </trkpt>
      <trkpt lat="39.418165" lon="3.103542">
        <ele>93.478</ele>
        <time>2021-09-01T14:39:00Z</time>
      </trkpt>
      <trkpt lat="39.418101" lon="3.103608">
        <ele>93.842</ele>
        <time>2021-09-01T14:39:02Z</time>
      </trkpt>
      <trkpt lat="39.418043" lon="3.103673">
        <ele>94.061</ele>
        <time>2021-09-01T14:39:04Z</time>
      </trkpt>
      <trkpt lat="39.417995" lon="3.103718">
        <ele>94.346</ele>
        <time>2021-09-01T14:39:06Z</time>
      </trkpt>
      <trkpt lat="39.417947" lon="3.103758">
        <ele>94.333</ele>
        <time>2021-09-01T14:39:08Z</time>
      </trkpt>
      <trkpt lat="39.417897" lon="3.103765">
        <ele>94.393</ele>
        <time>2021-09-01T14:39:10Z</time>
      </trkpt>
      <trkpt lat="39.417846" lon="3.103748">
        <ele>94.651</ele>
        <time>2021-09-01T14:39:12Z</time>
      </trkpt>
      <trkpt lat="39.417791" lon="3.103733">
        <ele>94.901</ele>
        <time>2021-09-01T14:39:14Z</time>
      </trkpt>
      <trkpt lat="39.417731" lon="3.103690">
        <ele>95.111</ele>
        <time>2021-09-01T14:39:16Z</time>
      </trkpt>
      <trkpt lat="39.417667" lon="3.103648">
        <ele>95.108</ele>
        <time>2021-09-01T14:39:18Z</time>
      </trkpt>
      <trkpt lat="39.417600" lon="3.103613">
        <ele>95.053</ele>
        <time>2021-09-01T14:39:20Z</time>
      </trkpt>
      <trkpt lat="39.417525" lon="3.103568">
        <ele>95.187</ele>
        <time>2021-09-01T14:39:22Z</time>
      </trkpt>
      <trkpt lat="39.417458" lon="3.103520">
        <ele>95.352</ele>
        <time>2021-09-01T14:39:24Z</time>
      </trkpt>
      <trkpt lat="39.417385" lon="3.103481">
        <ele>95.566</ele>
        <time>2021-09-01T14:39:26Z</time>
      </trkpt>
      <trkpt lat="39.417342" lon="3.103463">
        <ele>95.595</ele>
        <time>2021-09-01T14:39:27Z</time>
      </trkpt>
      <trkpt lat="39.417299" lon="3.103445">
        <ele>95.590</ele>
        <time>2021-09-01T14:39:28Z</time>
      </trkpt>
      <trkpt lat="39.417218" lon="3.103413">
        <ele>95.567</ele>
        <time>2021-09-01T14:39:30Z</time>
      </trkpt>
      <trkpt lat="39.417134" lon="3.103388">
        <ele>95.427</ele>
        <time>2021-09-01T14:39:32Z</time>
      </trkpt>
      <trkpt lat="39.417050" lon="3.103361">
        <ele>95.472</ele>
        <time>2021-09-01T14:39:34Z</time>
      </trkpt>
      <trkpt lat="39.417005" lon="3.103346">
        <ele>95.413</ele>
        <time>2021-09-01T14:39:35Z</time>
      </trkpt>
      <trkpt lat="39.416958" lon="3.103324">
        <ele>95.414</ele>
        <time>2021-09-01T14:39:36Z</time>
      </trkpt>
      <trkpt lat="39.416914" lon="3.103302">
        <ele>95.408</ele>
        <time>2021-09-01T14:39:37Z</time>
      </trkpt>
      <trkpt lat="39.416871" lon="3.103273">
        <ele>95.375</ele>
        <time>2021-09-01T14:39:38Z</time>
      </trkpt>
      <trkpt lat="39.416828" lon="3.103240">
        <ele>95.239</ele>
        <time>2021-09-01T14:39:39Z</time>
      </trkpt>
      <trkpt lat="39.416788" lon="3.103208">
        <ele>95.194</ele>
        <time>2021-09-01T14:39:40Z</time>
      </trkpt>
      <trkpt lat="39.416749" lon="3.103172">
        <ele>95.158</ele>
        <time>2021-09-01T14:39:41Z</time>
      </trkpt>
      <trkpt lat="39.416711" lon="3.103134">
        <ele>95.047</ele>
        <time>2021-09-01T14:39:42Z</time>
      </trkpt>
      <trkpt lat="39.416673" lon="3.103092">
        <ele>95.072</ele>
        <time>2021-09-01T14:39:43Z</time>
      </trkpt>
      <trkpt lat="39.416634" lon="3.103045">
        <ele>95.049</ele>
        <time>2021-09-01T14:39:44Z</time>
      </trkpt>
      <trkpt lat="39.416595" lon="3.103001">
        <ele>95.059</ele>
        <time>2021-09-01T14:39:45Z</time>
      </trkpt>
      <trkpt lat="39.416557" lon="3.102963">
        <ele>95.336</ele>
        <time>2021-09-01T14:39:46Z</time>
      </trkpt>
      <trkpt lat="39.416522" lon="3.102922">
        <ele>95.517</ele>
        <time>2021-09-01T14:39:47Z</time>
      </trkpt>
      <trkpt lat="39.416487" lon="3.102881">
        <ele>95.718</ele>
        <time>2021-09-01T14:39:48Z</time>
      </trkpt>
      <trkpt lat="39.416453" lon="3.102837">
        <ele>95.908</ele>
        <time>2021-09-01T14:39:49Z</time>
      </trkpt>
      <trkpt lat="39.416415" lon="3.102797">
        <ele>96.011</ele>
        <time>2021-09-01T14:39:50Z</time>
      </trkpt>
      <trkpt lat="39.416377" lon="3.102752">
        <ele>96.115</ele>
        <time>2021-09-01T14:39:51Z</time>
      </trkpt>
      <trkpt lat="39.416339" lon="3.102707">
        <ele>96.120</ele>
        <time>2021-09-01T14:39:52Z</time>
      </trkpt>
      <trkpt lat="39.416304" lon="3.102663">
        <ele>96.144</ele>
        <time>2021-09-01T14:39:53Z</time>
      </trkpt>
      <trkpt lat="39.416237" lon="3.102586">
        <ele>96.253</ele>
        <time>2021-09-01T14:39:55Z</time>
      </trkpt>
      <trkpt lat="39.416171" lon="3.102521">
        <ele>96.348</ele>
        <time>2021-09-01T14:39:57Z</time>
      </trkpt>
      <trkpt lat="39.416139" lon="3.102472">
        <ele>96.465</ele>
        <time>2021-09-01T14:39:58Z</time>
      </trkpt>
      <trkpt lat="39.416105" lon="3.102429">
        <ele>96.545</ele>
        <time>2021-09-01T14:39:59Z</time>
      </trkpt>
      <trkpt lat="39.416066" lon="3.102386">
        <ele>96.582</ele>
        <time>2021-09-01T14:40:00Z</time>
      </trkpt>
      <trkpt lat="39.416033" lon="3.102344">
        <ele>96.443</ele>
        <time>2021-09-01T14:40:01Z</time>
      </trkpt>
      <trkpt lat="39.415997" lon="3.102296">
        <ele>96.417</ele>
        <time>2021-09-01T14:40:02Z</time>
      </trkpt>
      <trkpt lat="39.415961" lon="3.102258">
        <ele>96.408</ele>
        <time>2021-09-01T14:40:03Z</time>
      </trkpt>
      <trkpt lat="39.415924" lon="3.102222">
        <ele>96.486</ele>
        <time>2021-09-01T14:40:04Z</time>
      </trkpt>
      <trkpt lat="39.415892" lon="3.102178">
        <ele>96.470</ele>
        <time>2021-09-01T14:40:05Z</time>
      </trkpt>
      <trkpt lat="39.415859" lon="3.102134">
        <ele>96.465</ele>
        <time>2021-09-01T14:40:06Z</time>
      </trkpt>
      <trkpt lat="39.415822" lon="3.102087">
        <ele>96.419</ele>
        <time>2021-09-01T14:40:07Z</time>
      </trkpt>
      <trkpt lat="39.415778" lon="3.102042">
        <ele>96.368</ele>
        <time>2021-09-01T14:40:08Z</time>
      </trkpt>
      <trkpt lat="39.415742" lon="3.101987">
        <ele>96.193</ele>
        <time>2021-09-01T14:40:09Z</time>
      </trkpt>
      <trkpt lat="39.415710" lon="3.101932">
        <ele>96.080</ele>
        <time>2021-09-01T14:40:10Z</time>
      </trkpt>
      <trkpt lat="39.415683" lon="3.101871">
        <ele>95.730</ele>
        <time>2021-09-01T14:40:11Z</time>
      </trkpt>
      <trkpt lat="39.415653" lon="3.101800">
        <ele>95.522</ele>
        <time>2021-09-01T14:40:12Z</time>
      </trkpt>
      <trkpt lat="39.415624" lon="3.101725">
        <ele>95.362</ele>
        <time>2021-09-01T14:40:13Z</time>
      </trkpt>
      <trkpt lat="39.415599" lon="3.101648">
        <ele>95.108</ele>
        <time>2021-09-01T14:40:14Z</time>
      </trkpt>
      <trkpt lat="39.415573" lon="3.101576">
        <ele>94.808</ele>
        <time>2021-09-01T14:40:15Z</time>
      </trkpt>
      <trkpt lat="39.415555" lon="3.101497">
        <ele>94.720</ele>
        <time>2021-09-01T14:40:16Z</time>
      </trkpt>
      <trkpt lat="39.415540" lon="3.101411">
        <ele>94.484</ele>
        <time>2021-09-01T14:40:17Z</time>
      </trkpt>
      <trkpt lat="39.415517" lon="3.101326">
        <ele>94.299</ele>
        <time>2021-09-01T14:40:18Z</time>
      </trkpt>
      <trkpt lat="39.415490" lon="3.101243">
        <ele>93.983</ele>
        <time>2021-09-01T14:40:19Z</time>
      </trkpt>
      <trkpt lat="39.415457" lon="3.101172">
        <ele>93.632</ele>
        <time>2021-09-01T14:40:20Z</time>
      </trkpt>
      <trkpt lat="39.415415" lon="3.101095">
        <ele>93.347</ele>
        <time>2021-09-01T14:40:21Z</time>
      </trkpt>
      <trkpt lat="39.415370" lon="3.101021">
        <ele>93.134</ele>
        <time>2021-09-01T14:40:22Z</time>
      </trkpt>
      <trkpt lat="39.415317" lon="3.100951">
        <ele>92.914</ele>
        <time>2021-09-01T14:40:23Z</time>
      </trkpt>
      <trkpt lat="39.415270" lon="3.100881">
        <ele>92.812</ele>
        <time>2021-09-01T14:40:24Z</time>
      </trkpt>
      <trkpt lat="39.415222" lon="3.100809">
        <ele>92.632</ele>
        <time>2021-09-01T14:40:25Z</time>
      </trkpt>
      <trkpt lat="39.415181" lon="3.100740">
        <ele>92.605</ele>
        <time>2021-09-01T14:40:26Z</time>
      </trkpt>
      <trkpt lat="39.415142" lon="3.100663">
        <ele>92.608</ele>
        <time>2021-09-01T14:40:27Z</time>
      </trkpt>
      <trkpt lat="39.415100" lon="3.100588">
        <ele>92.519</ele>
        <time>2021-09-01T14:40:28Z</time>
      </trkpt>
      <trkpt lat="39.415059" lon="3.100510">
        <ele>92.433</ele>
        <time>2021-09-01T14:40:29Z</time>
      </trkpt>
      <trkpt lat="39.415007" lon="3.100446">
        <ele>92.338</ele>
        <time>2021-09-01T14:40:30Z</time>
      </trkpt>
      <trkpt lat="39.414950" lon="3.100388">
        <ele>92.022</ele>
        <time>2021-09-01T14:40:31Z</time>
      </trkpt>
      <trkpt lat="39.414890" lon="3.100335">
        <ele>91.731</ele>
        <time>2021-09-01T14:40:32Z</time>
      </trkpt>
      <trkpt lat="39.414832" lon="3.100287">
        <ele>91.486</ele>
        <time>2021-09-01T14:40:33Z</time>
      </trkpt>
      <trkpt lat="39.414772" lon="3.100233">
        <ele>91.063</ele>
        <time>2021-09-01T14:40:34Z</time>
      </trkpt>
      <trkpt lat="39.414704" lon="3.100179">
        <ele>90.753</ele>
        <time>2021-09-01T14:40:35Z</time>
      </trkpt>
      <trkpt lat="39.414635" lon="3.100128">
        <ele>90.555</ele>
        <time>2021-09-01T14:40:36Z</time>
      </trkpt>
      <trkpt lat="39.414569" lon="3.100092">
        <ele>90.307</ele>
        <time>2021-09-01T14:40:37Z</time>
      </trkpt>
      <trkpt lat="39.414499" lon="3.100066">
        <ele>90.117</ele>
        <time>2021-09-01T14:40:38Z</time>
      </trkpt>
      <trkpt lat="39.414427" lon="3.100050">
        <ele>90.008</ele>
        <time>2021-09-01T14:40:39Z</time>
      </trkpt>
      <trkpt lat="39.414357" lon="3.100033">
        <ele>89.943</ele>
        <time>2021-09-01T14:40:40Z</time>
      </trkpt>
      <trkpt lat="39.414286" lon="3.100033">
        <ele>89.917</ele>
        <time>2021-09-01T14:40:41Z</time>
      </trkpt>
      <trkpt lat="39.414215" lon="3.100032">
        <ele>89.842</ele>
        <time>2021-09-01T14:40:42Z</time>
      </trkpt>
      <trkpt lat="39.414146" lon="3.100029">
        <ele>89.826</ele>
        <time>2021-09-01T14:40:43Z</time>
      </trkpt>
      <trkpt lat="39.414079" lon="3.100040">
        <ele>89.795</ele>
        <time>2021-09-01T14:40:44Z</time>
      </trkpt>
      <trkpt lat="39.414008" lon="3.100038">
        <ele>89.650</ele>
        <time>2021-09-01T14:40:45Z</time>
      </trkpt>
      <trkpt lat="39.413925" lon="3.100052">
        <ele>89.377</ele>
        <time>2021-09-01T14:40:46Z</time>
      </trkpt>
      <trkpt lat="39.413843" lon="3.100053">
        <ele>89.137</ele>
        <time>2021-09-01T14:40:47Z</time>
      </trkpt>
      <trkpt lat="39.413769" lon="3.100056">
        <ele>88.859</ele>
        <time>2021-09-01T14:40:48Z</time>
      </trkpt>
      <trkpt lat="39.413698" lon="3.100065">
        <ele>88.603</ele>
        <time>2021-09-01T14:40:49Z</time>
      </trkpt>
      <trkpt lat="39.413628" lon="3.100078">
        <ele>88.523</ele>
        <time>2021-09-01T14:40:50Z</time>
      </trkpt>
      <trkpt lat="39.413554" lon="3.100091">
        <ele>88.308</ele>
        <time>2021-09-01T14:40:51Z</time>
      </trkpt>
      <trkpt lat="39.413476" lon="3.100082">
        <ele>88.143</ele>
        <time>2021-09-01T14:40:52Z</time>
      </trkpt>
      <trkpt lat="39.413401" lon="3.100063">
        <ele>87.937</ele>
        <time>2021-09-01T14:40:53Z</time>
      </trkpt>
      <trkpt lat="39.413334" lon="3.100039">
        <ele>87.852</ele>
        <time>2021-09-01T14:40:54Z</time>
      </trkpt>
      <trkpt lat="39.413268" lon="3.100022">
        <ele>87.726</ele>
        <time>2021-09-01T14:40:55Z</time>
      </trkpt>
      <trkpt lat="39.413197" lon="3.100004">
        <ele>87.655</ele>
        <time>2021-09-01T14:40:56Z</time>
      </trkpt>
      <trkpt lat="39.413129" lon="3.099979">
        <ele>87.450</ele>
        <time>2021-09-01T14:40:57Z</time>
      </trkpt>
      <trkpt lat="39.413064" lon="3.099952">
        <ele>87.347</ele>
        <time>2021-09-01T14:40:58Z</time>
      </trkpt>
      <trkpt lat="39.413000" lon="3.099919">
        <ele>87.187</ele>
        <time>2021-09-01T14:40:59Z</time>
      </trkpt>
      <trkpt lat="39.412940" lon="3.099875">
        <ele>86.798</ele>
        <time>2021-09-01T14:41:00Z</time>
      </trkpt>
      <trkpt lat="39.412881" lon="3.099835">
        <ele>86.315</ele>
        <time>2021-09-01T14:41:01Z</time>
      </trkpt>
      <trkpt lat="39.412822" lon="3.099789">
        <ele>86.126</ele>
        <time>2021-09-01T14:41:02Z</time>
      </trkpt>
      <trkpt lat="39.412759" lon="3.099742">
        <ele>86.108</ele>
        <time>2021-09-01T14:41:03Z</time>
      </trkpt>
      <trkpt lat="39.412699" lon="3.099695">
        <ele>85.917</ele>
        <time>2021-09-01T14:41:04Z</time>
      </trkpt>
      <trkpt lat="39.412637" lon="3.099654">
        <ele>85.841</ele>
        <time>2021-09-01T14:41:05Z</time>
      </trkpt>
      <trkpt lat="39.412583" lon="3.099618">
        <ele>85.766</ele>
        <time>2021-09-01T14:41:06Z</time>
      </trkpt>
      <trkpt lat="39.412527" lon="3.099587">
        <ele>85.540</ele>
        <time>2021-09-01T14:41:07Z</time>
      </trkpt>
      <trkpt lat="39.412470" lon="3.099573">
        <ele>85.139</ele>
        <time>2021-09-01T14:41:08Z</time>
      </trkpt>
      <trkpt lat="39.412407" lon="3.099571">
        <ele>85.044</ele>
        <time>2021-09-01T14:41:09Z</time>
      </trkpt>
      <trkpt lat="39.412343" lon="3.099574">
        <ele>84.591</ele>
        <time>2021-09-01T14:41:10Z</time>
      </trkpt>
      <trkpt lat="39.412281" lon="3.099574">
        <ele>84.241</ele>
        <time>2021-09-01T14:41:11Z</time>
      </trkpt>
      <trkpt lat="39.412231" lon="3.099566">
        <ele>83.813</ele>
        <time>2021-09-01T14:41:12Z</time>
      </trkpt>
      <trkpt lat="39.412170" lon="3.099523">
        <ele>82.943</ele>
        <time>2021-09-01T14:41:14Z</time>
      </trkpt>
      <trkpt lat="39.412144" lon="3.099453">
        <ele>82.407</ele>
        <time>2021-09-01T14:41:16Z</time>
      </trkpt>
      <trkpt lat="39.412118" lon="3.099366">
        <ele>82.008</ele>
        <time>2021-09-01T14:41:18Z</time>
      </trkpt>
      <trkpt lat="39.412098" lon="3.099314">
        <ele>81.929</ele>
        <time>2021-09-01T14:41:19Z</time>
      </trkpt>
      <trkpt lat="39.412077" lon="3.099260">
        <ele>81.843</ele>
        <time>2021-09-01T14:41:20Z</time>
      </trkpt>
      <trkpt lat="39.412097" lon="3.099559">
        <ele>81.888</ele>
        <time>2021-09-01T14:41:40Z</time>
      </trkpt>
      <trkpt lat="39.412028" lon="3.099532">
        <ele>81.132</ele>
        <time>2021-09-01T14:41:42Z</time>
      </trkpt>
      <trkpt lat="39.411953" lon="3.099510">
        <ele>80.431</ele>
        <time>2021-09-01T14:41:44Z</time>
      </trkpt>
      <trkpt lat="39.411906" lon="3.099504">
        <ele>80.486</ele>
        <time>2021-09-01T14:41:45Z</time>
      </trkpt>
      <trkpt lat="39.411861" lon="3.099493">
        <ele>80.793</ele>
        <time>2021-09-01T14:41:46Z</time>
      </trkpt>
      <trkpt lat="39.411769" lon="3.099453">
        <ele>81.033</ele>
        <time>2021-09-01T14:41:48Z</time>
      </trkpt>
      <trkpt lat="39.411724" lon="3.099414">
        <ele>81.071</ele>
        <time>2021-09-01T14:41:49Z</time>
      </trkpt>
      <trkpt lat="39.411683" lon="3.099375">
        <ele>80.841</ele>
        <time>2021-09-01T14:41:50Z</time>
      </trkpt>
      <trkpt lat="39.411639" lon="3.099330">
        <ele>80.515</ele>
        <time>2021-09-01T14:41:51Z</time>
      </trkpt>
      <trkpt lat="39.411589" lon="3.099294">
        <ele>80.208</ele>
        <time>2021-09-01T14:41:52Z</time>
      </trkpt>
      <trkpt lat="39.411537" lon="3.099248">
        <ele>79.945</ele>
        <time>2021-09-01T14:41:53Z</time>
      </trkpt>
      <trkpt lat="39.411490" lon="3.099199">
        <ele>79.799</ele>
        <time>2021-09-01T14:41:54Z</time>
      </trkpt>
      <trkpt lat="39.411445" lon="3.099147">
        <ele>79.464</ele>
        <time>2021-09-01T14:41:55Z</time>
      </trkpt>
      <trkpt lat="39.411399" lon="3.099092">
        <ele>79.048</ele>
        <time>2021-09-01T14:41:56Z</time>
      </trkpt>
      <trkpt lat="39.411361" lon="3.099040">
        <ele>78.717</ele>
        <time>2021-09-01T14:41:57Z</time>
      </trkpt>
      <trkpt lat="39.411327" lon="3.098976">
        <ele>78.562</ele>
        <time>2021-09-01T14:41:58Z</time>
      </trkpt>
      <trkpt lat="39.411294" lon="3.098916">
        <ele>78.429</ele>
        <time>2021-09-01T14:41:59Z</time>
      </trkpt>
      <trkpt lat="39.411264" lon="3.098850">
        <ele>78.419</ele>
        <time>2021-09-01T14:42:00Z</time>
      </trkpt>
      <trkpt lat="39.411236" lon="3.098785">
        <ele>78.491</ele>
        <time>2021-09-01T14:42:01Z</time>
      </trkpt>
      <trkpt lat="39.411211" lon="3.098719">
        <ele>78.481</ele>
        <time>2021-09-01T14:42:02Z</time>
      </trkpt>
      <trkpt lat="39.411192" lon="3.098650">
        <ele>78.419</ele>
        <time>2021-09-01T14:42:03Z</time>
      </trkpt>
      <trkpt lat="39.411175" lon="3.098563">
        <ele>78.308</ele>
        <time>2021-09-01T14:42:05Z</time>
      </trkpt>
      <trkpt lat="39.411187" lon="3.098496">
        <ele>78.137</ele>
        <time>2021-09-01T14:42:07Z</time>
      </trkpt>
      <trkpt lat="39.411213" lon="3.098421">
        <ele>78.181</ele>
        <time>2021-09-01T14:42:09Z</time>
      </trkpt>
      <trkpt lat="39.411243" lon="3.098353">
        <ele>78.486</ele>
        <time>2021-09-01T14:42:11Z</time>
      </trkpt>
      <trkpt lat="39.411262" lon="3.098271">
        <ele>78.720</ele>
        <time>2021-09-01T14:42:13Z</time>
      </trkpt>
      <trkpt lat="39.411237" lon="3.098175">
        <ele>79.089</ele>
        <time>2021-09-01T14:42:15Z</time>
      </trkpt>
      <trkpt lat="39.411212" lon="3.098076">
        <ele>79.254</ele>
        <time>2021-09-01T14:42:17Z</time>
      </trkpt>
      <trkpt lat="39.411202" lon="3.097968">
        <ele>79.251</ele>
        <time>2021-09-01T14:42:19Z</time>
      </trkpt>
      <trkpt lat="39.411184" lon="3.097855">
        <ele>79.181</ele>
        <time>2021-09-01T14:42:21Z</time>
      </trkpt>
      <trkpt lat="39.411163" lon="3.097736">
        <ele>79.065</ele>
        <time>2021-09-01T14:42:23Z</time>
      </trkpt>
      <trkpt lat="39.411150" lon="3.097663">
        <ele>78.968</ele>
        <time>2021-09-01T14:42:24Z</time>
      </trkpt>
      <trkpt lat="39.411138" lon="3.097581">
        <ele>78.714</ele>
        <time>2021-09-01T14:42:25Z</time>
      </trkpt>
      <trkpt lat="39.411122" lon="3.097496">
        <ele>78.608</ele>
        <time>2021-09-01T14:42:26Z</time>
      </trkpt>
      <trkpt lat="39.411113" lon="3.097407">
        <ele>78.374</ele>
        <time>2021-09-01T14:42:27Z</time>
      </trkpt>
      <trkpt lat="39.411103" lon="3.097314">
        <ele>78.078</ele>
        <time>2021-09-01T14:42:28Z</time>
      </trkpt>
      <trkpt lat="39.411088" lon="3.097221">
        <ele>77.893</ele>
        <time>2021-09-01T14:42:29Z</time>
      </trkpt>
      <trkpt lat="39.411076" lon="3.097122">
        <ele>77.467</ele>
        <time>2021-09-01T14:42:30Z</time>
      </trkpt>
      <trkpt lat="39.411067" lon="3.097026">
        <ele>77.096</ele>
        <time>2021-09-01T14:42:31Z</time>
      </trkpt>
      <trkpt lat="39.411057" lon="3.096930">
        <ele>76.741</ele>
        <time>2021-09-01T14:42:32Z</time>
      </trkpt>
      <trkpt lat="39.411052" lon="3.096830">
        <ele>76.438</ele>
        <time>2021-09-01T14:42:33Z</time>
      </trkpt>
      <trkpt lat="39.411044" lon="3.096737">
        <ele>76.188</ele>
        <time>2021-09-01T14:42:34Z</time>
      </trkpt>
      <trkpt lat="39.411034" lon="3.096653">
        <ele>75.969</ele>
        <time>2021-09-01T14:42:35Z</time>
      </trkpt>
      <trkpt lat="39.411028" lon="3.096571">
        <ele>75.804</ele>
        <time>2021-09-01T14:42:36Z</time>
      </trkpt>
      <trkpt lat="39.411019" lon="3.096483">
        <ele>75.624</ele>
        <time>2021-09-01T14:42:37Z</time>
      </trkpt>
      <trkpt lat="39.411007" lon="3.096396">
        <ele>75.308</ele>
        <time>2021-09-01T14:42:38Z</time>
      </trkpt>
      <trkpt lat="39.410994" lon="3.096314">
        <ele>75.084</ele>
        <time>2021-09-01T14:42:39Z</time>
      </trkpt>
      <trkpt lat="39.410980" lon="3.096239">
        <ele>74.638</ele>
        <time>2021-09-01T14:42:40Z</time>
      </trkpt>
      <trkpt lat="39.410972" lon="3.096159">
        <ele>74.313</ele>
        <time>2021-09-01T14:42:41Z</time>
      </trkpt>
      <trkpt lat="39.410969" lon="3.096077">
        <ele>74.037</ele>
        <time>2021-09-01T14:42:42Z</time>
      </trkpt>
      <trkpt lat="39.410966" lon="3.095994">
        <ele>73.856</ele>
        <time>2021-09-01T14:42:43Z</time>
      </trkpt>
      <trkpt lat="39.410957" lon="3.095913">
        <ele>73.611</ele>
        <time>2021-09-01T14:42:44Z</time>
      </trkpt>
      <trkpt lat="39.410955" lon="3.095844">
        <ele>73.358</ele>
        <time>2021-09-01T14:42:45Z</time>
      </trkpt>
      <trkpt lat="39.411003" lon="3.095731">
        <ele>72.658</ele>
        <time>2021-09-01T14:42:47Z</time>
      </trkpt>
      <trkpt lat="39.411053" lon="3.095676">
        <ele>72.423</ele>
        <time>2021-09-01T14:42:48Z</time>
      </trkpt>
      <trkpt lat="39.411088" lon="3.095635">
        <ele>72.383</ele>
        <time>2021-09-01T14:42:49Z</time>
      </trkpt>
      <trkpt lat="39.411141" lon="3.095543">
        <ele>72.111</ele>
        <time>2021-09-01T14:42:51Z</time>
      </trkpt>
      <trkpt lat="39.411172" lon="3.095497">
        <ele>72.108</ele>
        <time>2021-09-01T14:42:52Z</time>
      </trkpt>
      <trkpt lat="39.411212" lon="3.095452">
        <ele>72.250</ele>
        <time>2021-09-01T14:42:53Z</time>
      </trkpt>
      <trkpt lat="39.411246" lon="3.095401">
        <ele>72.224</ele>
        <time>2021-09-01T14:42:54Z</time>
      </trkpt>
      <trkpt lat="39.411276" lon="3.095352">
        <ele>72.279</ele>
        <time>2021-09-01T14:42:55Z</time>
      </trkpt>
      <trkpt lat="39.411309" lon="3.095308">
        <ele>72.293</ele>
        <time>2021-09-01T14:42:56Z</time>
      </trkpt>
      <trkpt lat="39.411365" lon="3.095228">
        <ele>72.252</ele>
        <time>2021-09-01T14:42:58Z</time>
      </trkpt>
      <trkpt lat="39.411407" lon="3.095165">
        <ele>72.437</ele>
        <time>2021-09-01T14:43:00Z</time>
      </trkpt>
      <trkpt lat="39.411453" lon="3.095112">
        <ele>72.844</ele>
        <time>2021-09-01T14:43:02Z</time>
      </trkpt>
      <trkpt lat="39.411501" lon="3.095081">
        <ele>73.334</ele>
        <time>2021-09-01T14:43:04Z</time>
      </trkpt>
      <trkpt lat="39.411544" lon="3.095054">
        <ele>73.581</ele>
        <time>2021-09-01T14:43:06Z</time>
      </trkpt>
      <trkpt lat="39.411602" lon="3.095012">
        <ele>73.661</ele>
        <time>2021-09-01T14:43:08Z</time>
      </trkpt>
      <trkpt lat="39.411658" lon="3.094990">
        <ele>73.817</ele>
        <time>2021-09-01T14:43:10Z</time>
      </trkpt>
      <trkpt lat="39.411701" lon="3.094958">
        <ele>74.108</ele>
        <time>2021-09-01T14:43:12Z</time>
      </trkpt>
      <trkpt lat="39.411743" lon="3.094924">
        <ele>74.726</ele>
        <time>2021-09-01T14:43:14Z</time>
      </trkpt>
      <trkpt lat="39.411799" lon="3.094882">
        <ele>75.250</ele>
        <time>2021-09-01T14:43:16Z</time>
      </trkpt>
      <trkpt lat="39.411845" lon="3.094837">
        <ele>75.595</ele>
        <time>2021-09-01T14:43:18Z</time>
      </trkpt>
      <trkpt lat="39.411898" lon="3.094793">
        <ele>75.839</ele>
        <time>2021-09-01T14:43:20Z</time>
      </trkpt>
      <trkpt lat="39.411948" lon="3.094750">
        <ele>76.098</ele>
        <time>2021-09-01T14:43:22Z</time>
      </trkpt>
      <trkpt lat="39.411999" lon="3.094702">
        <ele>76.283</ele>
        <time>2021-09-01T14:43:24Z</time>
      </trkpt>
      <trkpt lat="39.412040" lon="3.094656">
        <ele>76.490</ele>
        <time>2021-09-01T14:43:26Z</time>
      </trkpt>
      <trkpt lat="39.412076" lon="3.094601">
        <ele>76.560</ele>
        <time>2021-09-01T14:43:28Z</time>
      </trkpt>
      <trkpt lat="39.412113" lon="3.094541">
        <ele>76.764</ele>
        <time>2021-09-01T14:43:30Z</time>
      </trkpt>
      <trkpt lat="39.412143" lon="3.094481">
        <ele>77.006</ele>
        <time>2021-09-01T14:43:32Z</time>
      </trkpt>
      <trkpt lat="39.412178" lon="3.094419">
        <ele>77.316</ele>
        <time>2021-09-01T14:43:34Z</time>
      </trkpt>
      <trkpt lat="39.412207" lon="3.094344">
        <ele>77.608</ele>
        <time>2021-09-01T14:43:36Z</time>
      </trkpt>
      <trkpt lat="39.412232" lon="3.094265">
        <ele>77.734</ele>
        <time>2021-09-01T14:43:38Z</time>
      </trkpt>
      <trkpt lat="39.412243" lon="3.094183">
        <ele>77.618</ele>
        <time>2021-09-01T14:43:40Z</time>
      </trkpt>
      <trkpt lat="39.412240" lon="3.094109">
        <ele>77.653</ele>
        <time>2021-09-01T14:43:42Z</time>
      </trkpt>
      <trkpt lat="39.412225" lon="3.094029">
        <ele>77.757</ele>
        <time>2021-09-01T14:43:44Z</time>
      </trkpt>
      <trkpt lat="39.412203" lon="3.093932">
        <ele>77.836</ele>
        <time>2021-09-01T14:43:46Z</time>
      </trkpt>
      <trkpt lat="39.412181" lon="3.093825">
        <ele>77.921</ele>
        <time>2021-09-01T14:43:48Z</time>
      </trkpt>
      <trkpt lat="39.412174" lon="3.093709">
        <ele>77.978</ele>
        <time>2021-09-01T14:43:50Z</time>
      </trkpt>
      <trkpt lat="39.412176" lon="3.093594">
        <ele>78.098</ele>
        <time>2021-09-01T14:43:52Z</time>
      </trkpt>
      <trkpt lat="39.412181" lon="3.093484">
        <ele>78.177</ele>
        <time>2021-09-01T14:43:54Z</time>
      </trkpt>
      <trkpt lat="39.412199" lon="3.093372">
        <ele>78.161</ele>
        <time>2021-09-01T14:43:56Z</time>
      </trkpt>
      <trkpt lat="39.412200" lon="3.093308">
        <ele>78.127</ele>
        <time>2021-09-01T14:43:57Z</time>
      </trkpt>
      <trkpt lat="39.412209" lon="3.093251">
        <ele>78.208</ele>
        <time>2021-09-01T14:43:58Z</time>
      </trkpt>
      <trkpt lat="39.412186" lon="3.093138">
        <ele>78.355</ele>
        <time>2021-09-01T14:44:00Z</time>
      </trkpt>
      <trkpt lat="39.412159" lon="3.093090">
        <ele>78.329</ele>
        <time>2021-09-01T14:44:01Z</time>
      </trkpt>
      <trkpt lat="39.412139" lon="3.093031">
        <ele>78.584</ele>
        <time>2021-09-01T14:44:02Z</time>
      </trkpt>
      <trkpt lat="39.412118" lon="3.092972">
        <ele>78.598</ele>
        <time>2021-09-01T14:44:03Z</time>
      </trkpt>
      <trkpt lat="39.412101" lon="3.092912">
        <ele>78.617</ele>
        <time>2021-09-01T14:44:04Z</time>
      </trkpt>
      <trkpt lat="39.412086" lon="3.092852">
        <ele>78.672</ele>
        <time>2021-09-01T14:44:05Z</time>
      </trkpt>
      <trkpt lat="39.412065" lon="3.092798">
        <ele>78.659</ele>
        <time>2021-09-01T14:44:06Z</time>
      </trkpt>
      <trkpt lat="39.412045" lon="3.092741">
        <ele>78.699</ele>
        <time>2021-09-01T14:44:07Z</time>
      </trkpt>
      <trkpt lat="39.412025" lon="3.092688">
        <ele>78.573</ele>
        <time>2021-09-01T14:44:08Z</time>
      </trkpt>
      <trkpt lat="39.412008" lon="3.092633">
        <ele>78.585</ele>
        <time>2021-09-01T14:44:09Z</time>
      </trkpt>
      <trkpt lat="39.411987" lon="3.092576">
        <ele>78.513</ele>
        <time>2021-09-01T14:44:10Z</time>
      </trkpt>
      <trkpt lat="39.411958" lon="3.092521">
        <ele>78.508</ele>
        <time>2021-09-01T14:44:11Z</time>
      </trkpt>
      <trkpt lat="39.411928" lon="3.092460">
        <ele>78.525</ele>
        <time>2021-09-01T14:44:12Z</time>
      </trkpt>
      <trkpt lat="39.411899" lon="3.092401">
        <ele>78.449</ele>
        <time>2021-09-01T14:44:13Z</time>
      </trkpt>
      <trkpt lat="39.411868" lon="3.092340">
        <ele>78.394</ele>
        <time>2021-09-01T14:44:14Z</time>
      </trkpt>
      <trkpt lat="39.411837" lon="3.092280">
        <ele>78.248</ele>
        <time>2021-09-01T14:44:15Z</time>
      </trkpt>
      <trkpt lat="39.411807" lon="3.092219">
        <ele>77.977</ele>
        <time>2021-09-01T14:44:16Z</time>
      </trkpt>
      <trkpt lat="39.411781" lon="3.092158">
        <ele>77.642</ele>
        <time>2021-09-01T14:44:17Z</time>
      </trkpt>
      <trkpt lat="39.411747" lon="3.092098">
        <ele>77.469</ele>
        <time>2021-09-01T14:44:18Z</time>
      </trkpt>
      <trkpt lat="39.411712" lon="3.092043">
        <ele>77.169</ele>
        <time>2021-09-01T14:44:19Z</time>
      </trkpt>
      <trkpt lat="39.411674" lon="3.091982">
        <ele>76.872</ele>
        <time>2021-09-01T14:44:20Z</time>
      </trkpt>
      <trkpt lat="39.411636" lon="3.091920">
        <ele>76.613</ele>
        <time>2021-09-01T14:44:21Z</time>
      </trkpt>
      <trkpt lat="39.411596" lon="3.091860">
        <ele>76.414</ele>
        <time>2021-09-01T14:44:22Z</time>
      </trkpt>
      <trkpt lat="39.411555" lon="3.091803">
        <ele>76.208</ele>
        <time>2021-09-01T14:44:23Z</time>
      </trkpt>
      <trkpt lat="39.411515" lon="3.091746">
        <ele>76.025</ele>
        <time>2021-09-01T14:44:24Z</time>
      </trkpt>
      <trkpt lat="39.411472" lon="3.091685">
        <ele>75.879</ele>
        <time>2021-09-01T14:44:25Z</time>
      </trkpt>
      <trkpt lat="39.411432" lon="3.091619">
        <ele>75.574</ele>
        <time>2021-09-01T14:44:26Z</time>
      </trkpt>
      <trkpt lat="39.411386" lon="3.091556">
        <ele>75.358</ele>
        <time>2021-09-01T14:44:27Z</time>
      </trkpt>
      <trkpt lat="39.411338" lon="3.091493">
        <ele>75.057</ele>
        <time>2021-09-01T14:44:28Z</time>
      </trkpt>
      <trkpt lat="39.411291" lon="3.091439">
        <ele>74.742</ele>
        <time>2021-09-01T14:44:29Z</time>
      </trkpt>
      <trkpt lat="39.411240" lon="3.091383">
        <ele>74.529</ele>
        <time>2021-09-01T14:44:30Z</time>
      </trkpt>
      <trkpt lat="39.411196" lon="3.091312">
        <ele>74.469</ele>
        <time>2021-09-01T14:44:31Z</time>
      </trkpt>
      <trkpt lat="39.411155" lon="3.091235">
        <ele>74.265</ele>
        <time>2021-09-01T14:44:32Z</time>
      </trkpt>
      <trkpt lat="39.411113" lon="3.091164">
        <ele>74.268</ele>
        <time>2021-09-01T14:44:33Z</time>
      </trkpt>
      <trkpt lat="39.411068" lon="3.091102">
        <ele>74.014</ele>
        <time>2021-09-01T14:44:34Z</time>
      </trkpt>
      <trkpt lat="39.411014" lon="3.091045">
        <ele>74.008</ele>
        <time>2021-09-01T14:44:35Z</time>
      </trkpt>
      <trkpt lat="39.410969" lon="3.090983">
        <ele>73.824</ele>
        <time>2021-09-01T14:44:36Z</time>
      </trkpt>
      <trkpt lat="39.410929" lon="3.090909">
        <ele>73.778</ele>
        <time>2021-09-01T14:44:37Z</time>
      </trkpt>
      <trkpt lat="39.410888" lon="3.090840">
        <ele>73.533</ele>
        <time>2021-09-01T14:44:38Z</time>
      </trkpt>
      <trkpt lat="39.410862" lon="3.090761">
        <ele>73.417</ele>
        <time>2021-09-01T14:44:39Z</time>
      </trkpt>
      <trkpt lat="39.410835" lon="3.090679">
        <ele>73.166</ele>
        <time>2021-09-01T14:44:40Z</time>
      </trkpt>
      <trkpt lat="39.410807" lon="3.090599">
        <ele>73.081</ele>
        <time>2021-09-01T14:44:41Z</time>
      </trkpt>
      <trkpt lat="39.410763" lon="3.090544">
        <ele>72.888</ele>
        <time>2021-09-01T14:44:42Z</time>
      </trkpt>
      <trkpt lat="39.410711" lon="3.090506">
        <ele>72.628</ele>
        <time>2021-09-01T14:44:43Z</time>
      </trkpt>
      <trkpt lat="39.410647" lon="3.090471">
        <ele>72.485</ele>
        <time>2021-09-01T14:44:44Z</time>
      </trkpt>
      <trkpt lat="39.410576" lon="3.090460">
        <ele>72.289</ele>
        <time>2021-09-01T14:44:45Z</time>
      </trkpt>
      <trkpt lat="39.410494" lon="3.090464">
        <ele>72.117</ele>
        <time>2021-09-01T14:44:46Z</time>
      </trkpt>
      <trkpt lat="39.410427" lon="3.090477">
        <ele>71.908</ele>
        <time>2021-09-01T14:44:47Z</time>
      </trkpt>
      <trkpt lat="39.410358" lon="3.090493">
        <ele>71.756</ele>
        <time>2021-09-01T14:44:48Z</time>
      </trkpt>
      <trkpt lat="39.410294" lon="3.090486">
        <ele>71.440</ele>
        <time>2021-09-01T14:44:49Z</time>
      </trkpt>
      <trkpt lat="39.410239" lon="3.090445">
        <ele>71.295</ele>
        <time>2021-09-01T14:44:50Z</time>
      </trkpt>
      <trkpt lat="39.410189" lon="3.090381">
        <ele>71.089</ele>
        <time>2021-09-01T14:44:51Z</time>
      </trkpt>
      <trkpt lat="39.410144" lon="3.090327">
        <ele>70.748</ele>
        <time>2021-09-01T14:44:52Z</time>
      </trkpt>
      <trkpt lat="39.410096" lon="3.090278">
        <ele>70.543</ele>
        <time>2021-09-01T14:44:53Z</time>
      </trkpt>
      <trkpt lat="39.410053" lon="3.090225">
        <ele>70.280</ele>
        <time>2021-09-01T14:44:54Z</time>
      </trkpt>
      <trkpt lat="39.410006" lon="3.090172">
        <ele>70.060</ele>
        <time>2021-09-01T14:44:55Z</time>
      </trkpt>
      <trkpt lat="39.409962" lon="3.090120">
        <ele>69.892</ele>
        <time>2021-09-01T14:44:56Z</time>
      </trkpt>
      <trkpt lat="39.409915" lon="3.090082">
        <ele>69.873</ele>
        <time>2021-09-01T14:44:57Z</time>
      </trkpt>
      <trkpt lat="39.409868" lon="3.090052">
        <ele>69.820</ele>
        <time>2021-09-01T14:44:58Z</time>
      </trkpt>
      <trkpt lat="39.409819" lon="3.090027">
        <ele>69.908</ele>
        <time>2021-09-01T14:44:59Z</time>
      </trkpt>
      <trkpt lat="39.409774" lon="3.089999">
        <ele>69.967</ele>
        <time>2021-09-01T14:45:00Z</time>
      </trkpt>
      <trkpt lat="39.409733" lon="3.089957">
        <ele>69.891</ele>
        <time>2021-09-01T14:45:01Z</time>
      </trkpt>
      <trkpt lat="39.409692" lon="3.089907">
        <ele>69.726</ele>
        <time>2021-09-01T14:45:02Z</time>
      </trkpt>
      <trkpt lat="39.409657" lon="3.089846">
        <ele>69.770</ele>
        <time>2021-09-01T14:45:03Z</time>
      </trkpt>
      <trkpt lat="39.409629" lon="3.089774">
        <ele>69.619</ele>
        <time>2021-09-01T14:45:04Z</time>
      </trkpt>
      <trkpt lat="39.409594" lon="3.089709">
        <ele>69.634</ele>
        <time>2021-09-01T14:45:05Z</time>
      </trkpt>
      <trkpt lat="39.409557" lon="3.089646">
        <ele>69.821</ele>
        <time>2021-09-01T14:45:06Z</time>
      </trkpt>
      <trkpt lat="39.409521" lon="3.089590">
        <ele>69.911</ele>
        <time>2021-09-01T14:45:07Z</time>
      </trkpt>
      <trkpt lat="39.409485" lon="3.089530">
        <ele>69.928</ele>
        <time>2021-09-01T14:45:08Z</time>
      </trkpt>
      <trkpt lat="39.409447" lon="3.089467">
        <ele>69.989</ele>
        <time>2021-09-01T14:45:09Z</time>
      </trkpt>
      <trkpt lat="39.409408" lon="3.089403">
        <ele>69.817</ele>
        <time>2021-09-01T14:45:10Z</time>
      </trkpt>
      <trkpt lat="39.409374" lon="3.089338">
        <ele>69.508</ele>
        <time>2021-09-01T14:45:11Z</time>
      </trkpt>
      <trkpt lat="39.409339" lon="3.089278">
        <ele>69.190</ele>
        <time>2021-09-01T14:45:12Z</time>
      </trkpt>
      <trkpt lat="39.409303" lon="3.089211">
        <ele>68.784</ele>
        <time>2021-09-01T14:45:13Z</time>
      </trkpt>
      <trkpt lat="39.409268" lon="3.089147">
        <ele>68.329</ele>
        <time>2021-09-01T14:45:14Z</time>
      </trkpt>
      <trkpt lat="39.409231" lon="3.089083">
        <ele>68.023</ele>
        <time>2021-09-01T14:45:15Z</time>
      </trkpt>
      <trkpt lat="39.409198" lon="3.089026">
        <ele>67.922</ele>
        <time>2021-09-01T14:45:16Z</time>
      </trkpt>
      <trkpt lat="39.409166" lon="3.088972">
        <ele>67.997</ele>
        <time>2021-09-01T14:45:17Z</time>
      </trkpt>
      <trkpt lat="39.409114" lon="3.088883">
        <ele>67.834</ele>
        <time>2021-09-01T14:45:19Z</time>
      </trkpt>
      <trkpt lat="39.409064" lon="3.088802">
        <ele>67.514</ele>
        <time>2021-09-01T14:45:21Z</time>
      </trkpt>
      <trkpt lat="39.409029" lon="3.088738">
        <ele>67.147</ele>
        <time>2021-09-01T14:45:23Z</time>
      </trkpt>
      <trkpt lat="39.408993" lon="3.088685">
        <ele>66.929</ele>
        <time>2021-09-01T14:45:25Z</time>
      </trkpt>
      <trkpt lat="39.408866" lon="3.088544">
        <ele>66.621</ele>
        <time>2021-09-01T14:46:18Z</time>
      </trkpt>
      <trkpt lat="39.408820" lon="3.088524">
        <ele>66.808</ele>
        <time>2021-09-01T14:46:20Z</time>
      </trkpt>
      <trkpt lat="39.408767" lon="3.088503">
        <ele>67.032</ele>
        <time>2021-09-01T14:46:22Z</time>
      </trkpt>
      <trkpt lat="39.408713" lon="3.088488">
        <ele>67.076</ele>
        <time>2021-09-01T14:46:24Z</time>
      </trkpt>
      <trkpt lat="39.408655" lon="3.088480">
        <ele>66.731</ele>
        <time>2021-09-01T14:46:26Z</time>
      </trkpt>
      <trkpt lat="39.408594" lon="3.088471">
        <ele>66.635</ele>
        <time>2021-09-01T14:46:28Z</time>
      </trkpt>
      <trkpt lat="39.408524" lon="3.088462">
        <ele>66.424</ele>
        <time>2021-09-01T14:46:30Z</time>
      </trkpt>
      <trkpt lat="39.408452" lon="3.088448">
        <ele>66.139</ele>
        <time>2021-09-01T14:46:32Z</time>
      </trkpt>
      <trkpt lat="39.408377" lon="3.088417">
        <ele>65.726</ele>
        <time>2021-09-01T14:46:34Z</time>
      </trkpt>
      <trkpt lat="39.408296" lon="3.088374">
        <ele>64.966</ele>
        <time>2021-09-01T14:46:36Z</time>
      </trkpt>
      <trkpt lat="39.408249" lon="3.088357">
        <ele>64.556</ele>
        <time>2021-09-01T14:46:37Z</time>
      </trkpt>
      <trkpt lat="39.408199" lon="3.088340">
        <ele>64.159</ele>
        <time>2021-09-01T14:46:38Z</time>
      </trkpt>
      <trkpt lat="39.408147" lon="3.088330">
        <ele>63.714</ele>
        <time>2021-09-01T14:46:39Z</time>
      </trkpt>
      <trkpt lat="39.408097" lon="3.088319">
        <ele>63.308</ele>
        <time>2021-09-01T14:46:40Z</time>
      </trkpt>
      <trkpt lat="39.408013" lon="3.088300">
        <ele>63.043</ele>
        <time>2021-09-01T14:46:42Z</time>
      </trkpt>
      <trkpt lat="39.407951" lon="3.088293">
        <ele>63.037</ele>
        <time>2021-09-01T14:46:44Z</time>
      </trkpt>
      <trkpt lat="39.407903" lon="3.088300">
        <ele>63.432</ele>
        <time>2021-09-01T14:46:46Z</time>
      </trkpt>
      <trkpt lat="39.407844" lon="3.088340">
        <ele>64.086</ele>
        <time>2021-09-01T14:46:49Z</time>
      </trkpt>
      <trkpt lat="39.407810" lon="3.088389">
        <ele>64.455</ele>
        <time>2021-09-01T14:46:51Z</time>
      </trkpt>
      <trkpt lat="39.407776" lon="3.088439">
        <ele>64.610</ele>
        <time>2021-09-01T14:46:53Z</time>
      </trkpt>
      <trkpt lat="39.407724" lon="3.088485">
        <ele>64.867</ele>
        <time>2021-09-01T14:46:55Z</time>
      </trkpt>
      <trkpt lat="39.407677" lon="3.088477">
        <ele>64.887</ele>
        <time>2021-09-01T14:46:57Z</time>
      </trkpt>
      <trkpt lat="39.407660" lon="3.088192">
        <ele>65.036</ele>
        <time>2021-09-01T14:47:05Z</time>
      </trkpt>
      <trkpt lat="39.407667" lon="3.088082">
        <ele>64.917</ele>
        <time>2021-09-01T14:47:07Z</time>
      </trkpt>
      <trkpt lat="39.407665" lon="3.087973">
        <ele>64.818</ele>
        <time>2021-09-01T14:47:09Z</time>
      </trkpt>
      <trkpt lat="39.407661" lon="3.087872">
        <ele>64.908</ele>
        <time>2021-09-01T14:47:11Z</time>
      </trkpt>
      <trkpt lat="39.407651" lon="3.087762">
        <ele>64.621</ele>
        <time>2021-09-01T14:47:13Z</time>
      </trkpt>
      <trkpt lat="39.407636" lon="3.087650">
        <ele>64.225</ele>
        <time>2021-09-01T14:47:15Z</time>
      </trkpt>
      <trkpt lat="39.407619" lon="3.087547">
        <ele>64.140</ele>
        <time>2021-09-01T14:47:17Z</time>
      </trkpt>
      <trkpt lat="39.407606" lon="3.087487">
        <ele>64.234</ele>
        <time>2021-09-01T14:47:18Z</time>
      </trkpt>
      <trkpt lat="39.407599" lon="3.087428">
        <ele>64.243</ele>
        <time>2021-09-01T14:47:19Z</time>
      </trkpt>
      <trkpt lat="39.407587" lon="3.087368">
        <ele>64.228</ele>
        <time>2021-09-01T14:47:20Z</time>
      </trkpt>
      <trkpt lat="39.407574" lon="3.087306">
        <ele>64.245</ele>
        <time>2021-09-01T14:47:21Z</time>
      </trkpt>
      <trkpt lat="39.407561" lon="3.087245">
        <ele>64.225</ele>
        <time>2021-09-01T14:47:22Z</time>
      </trkpt>
      <trkpt lat="39.407540" lon="3.087136">
        <ele>64.346</ele>
        <time>2021-09-01T14:47:24Z</time>
      </trkpt>
      <trkpt lat="39.407520" lon="3.087043">
        <ele>64.488</ele>
        <time>2021-09-01T14:47:26Z</time>
      </trkpt>
      <trkpt lat="39.407509" lon="3.086942">
        <ele>64.416</ele>
        <time>2021-09-01T14:47:28Z</time>
      </trkpt>
      <trkpt lat="39.407501" lon="3.086833">
        <ele>64.308</ele>
        <time>2021-09-01T14:47:30Z</time>
      </trkpt>
      <trkpt lat="39.407498" lon="3.086723">
        <ele>64.262</ele>
        <time>2021-09-01T14:47:32Z</time>
      </trkpt>
      <trkpt lat="39.407501" lon="3.086607">
        <ele>64.486</ele>
        <time>2021-09-01T14:47:34Z</time>
      </trkpt>
      <trkpt lat="39.407503" lon="3.086547">
        <ele>64.411</ele>
        <time>2021-09-01T14:47:35Z</time>
      </trkpt>
      <trkpt lat="39.407506" lon="3.086487">
        <ele>64.465</ele>
        <time>2021-09-01T14:47:36Z</time>
      </trkpt>
      <trkpt lat="39.407517" lon="3.086427">
        <ele>64.394</ele>
        <time>2021-09-01T14:47:37Z</time>
      </trkpt>
      <trkpt lat="39.407533" lon="3.086371">
        <ele>64.349</ele>
        <time>2021-09-01T14:47:38Z</time>
      </trkpt>
      <trkpt lat="39.407546" lon="3.086315">
        <ele>64.346</ele>
        <time>2021-09-01T14:47:39Z</time>
      </trkpt>
      <trkpt lat="39.407581" lon="3.086205">
        <ele>64.266</ele>
        <time>2021-09-01T14:47:41Z</time>
      </trkpt>
      <trkpt lat="39.407596" lon="3.086140">
        <ele>64.256</ele>
        <time>2021-09-01T14:47:42Z</time>
      </trkpt>
      <trkpt lat="39.407607" lon="3.086082">
        <ele>64.259</ele>
        <time>2021-09-01T14:47:43Z</time>
      </trkpt>
      <trkpt lat="39.407621" lon="3.086026">
        <ele>64.114</ele>
        <time>2021-09-01T14:47:44Z</time>
      </trkpt>
      <trkpt lat="39.407653" lon="3.085924">
        <ele>63.808</ele>
        <time>2021-09-01T14:47:46Z</time>
      </trkpt>
      <trkpt lat="39.407692" lon="3.085826">
        <ele>63.693</ele>
        <time>2021-09-01T14:47:48Z</time>
      </trkpt>
      <trkpt lat="39.407709" lon="3.085721">
        <ele>63.357</ele>
        <time>2021-09-01T14:47:50Z</time>
      </trkpt>
      <trkpt lat="39.407726" lon="3.085621">
        <ele>63.072</ele>
        <time>2021-09-01T14:47:52Z</time>
      </trkpt>
      <trkpt lat="39.407740" lon="3.085538">
        <ele>62.756</ele>
        <time>2021-09-01T14:47:54Z</time>
      </trkpt>
      <trkpt lat="39.407790" lon="3.085336">
        <ele>60.975</ele>
        <time>2021-09-01T14:48:43Z</time>
      </trkpt>
      <trkpt lat="39.407804" lon="3.085280">
        <ele>60.980</ele>
        <time>2021-09-01T14:48:45Z</time>
      </trkpt>
      <trkpt lat="39.407814" lon="3.085219">
        <ele>60.947</ele>
        <time>2021-09-01T14:48:47Z</time>
      </trkpt>
      <trkpt lat="39.407825" lon="3.085145">
        <ele>60.997</ele>
        <time>2021-09-01T14:48:49Z</time>
      </trkpt>
      <trkpt lat="39.407838" lon="3.085080">
        <ele>61.012</ele>
        <time>2021-09-01T14:48:51Z</time>
      </trkpt>
      <trkpt lat="39.407856" lon="3.085010">
        <ele>60.932</ele>
        <time>2021-09-01T14:48:53Z</time>
      </trkpt>
      <trkpt lat="39.407879" lon="3.084929">
        <ele>60.805</ele>
        <time>2021-09-01T14:48:55Z</time>
      </trkpt>
      <trkpt lat="39.407900" lon="3.084841">
        <ele>60.708</ele>
        <time>2021-09-01T14:48:57Z</time>
      </trkpt>
      <trkpt lat="39.407925" lon="3.084756">
        <ele>60.569</ele>
        <time>2021-09-01T14:48:59Z</time>
      </trkpt>
      <trkpt lat="39.407942" lon="3.084694">
        <ele>60.283</ele>
        <time>2021-09-01T14:49:01Z</time>
      </trkpt>
      <trkpt lat="39.407963" lon="3.084613">
        <ele>59.788</ele>
        <time>2021-09-01T14:49:04Z</time>
      </trkpt>
      <trkpt lat="39.407969" lon="3.084547">
        <ele>59.532</ele>
        <time>2021-09-01T14:49:06Z</time>
      </trkpt>
      <trkpt lat="39.407969" lon="3.084474">
        <ele>59.471</ele>
        <time>2021-09-01T14:49:08Z</time>
      </trkpt>
      <trkpt lat="39.407951" lon="3.084410">
        <ele>59.366</ele>
        <time>2021-09-01T14:49:10Z</time>
      </trkpt>
      <trkpt lat="39.407924" lon="3.084346">
        <ele>59.353</ele>
        <time>2021-09-01T14:49:12Z</time>
      </trkpt>
      <trkpt lat="39.407883" lon="3.084281">
        <ele>59.393</ele>
        <time>2021-09-01T14:49:14Z</time>
      </trkpt>
      <trkpt lat="39.407876" lon="3.084197">
        <ele>59.349</ele>
        <time>2021-09-01T14:49:16Z</time>
      </trkpt>
      <trkpt lat="39.407902" lon="3.084140">
        <ele>59.202</ele>
        <time>2021-09-01T14:49:17Z</time>
      </trkpt>
      <trkpt lat="39.407936" lon="3.084098">
        <ele>59.222</ele>
        <time>2021-09-01T14:49:18Z</time>
      </trkpt>
      <trkpt lat="39.407994" lon="3.084020">
        <ele>59.108</ele>
        <time>2021-09-01T14:49:20Z</time>
      </trkpt>
      <trkpt lat="39.408050" lon="3.083951">
        <ele>58.852</ele>
        <time>2021-09-01T14:49:22Z</time>
      </trkpt>
      <trkpt lat="39.408104" lon="3.083875">
        <ele>58.526</ele>
        <time>2021-09-01T14:49:24Z</time>
      </trkpt>
      <trkpt lat="39.408136" lon="3.083828">
        <ele>58.371</ele>
        <time>2021-09-01T14:49:25Z</time>
      </trkpt>
      <trkpt lat="39.408197" lon="3.083745">
        <ele>57.915</ele>
        <time>2021-09-01T14:49:27Z</time>
      </trkpt>
      <trkpt lat="39.408228" lon="3.083690">
        <ele>57.764</ele>
        <time>2021-09-01T14:49:28Z</time>
      </trkpt>
      <trkpt lat="39.408264" lon="3.083637">
        <ele>57.539</ele>
        <time>2021-09-01T14:49:29Z</time>
      </trkpt>
      <trkpt lat="39.408303" lon="3.083597">
        <ele>57.376</ele>
        <time>2021-09-01T14:49:30Z</time>
      </trkpt>
      <trkpt lat="39.408337" lon="3.083554">
        <ele>57.226</ele>
        <time>2021-09-01T14:49:31Z</time>
      </trkpt>
      <trkpt lat="39.408375" lon="3.083506">
        <ele>57.076</ele>
        <time>2021-09-01T14:49:32Z</time>
      </trkpt>
      <trkpt lat="39.408410" lon="3.083453">
        <ele>56.990</ele>
        <time>2021-09-01T14:49:33Z</time>
      </trkpt>
      <trkpt lat="39.408445" lon="3.083403">
        <ele>56.819</ele>
        <time>2021-09-01T14:49:34Z</time>
      </trkpt>
      <trkpt lat="39.408482" lon="3.083354">
        <ele>56.808</ele>
        <time>2021-09-01T14:49:35Z</time>
      </trkpt>
      <trkpt lat="39.408516" lon="3.083309">
        <ele>56.855</ele>
        <time>2021-09-01T14:49:36Z</time>
      </trkpt>
      <trkpt lat="39.408557" lon="3.083260">
        <ele>56.639</ele>
        <time>2021-09-01T14:49:37Z</time>
      </trkpt>
      <trkpt lat="39.408593" lon="3.083209">
        <ele>56.614</ele>
        <time>2021-09-01T14:49:38Z</time>
      </trkpt>
      <trkpt lat="39.408629" lon="3.083165">
        <ele>56.448</ele>
        <time>2021-09-01T14:49:39Z</time>
      </trkpt>
      <trkpt lat="39.408690" lon="3.083080">
        <ele>56.017</ele>
        <time>2021-09-01T14:49:41Z</time>
      </trkpt>
      <trkpt lat="39.408722" lon="3.083037">
        <ele>55.972</ele>
        <time>2021-09-01T14:49:42Z</time>
      </trkpt>
      <trkpt lat="39.408793" lon="3.082956">
        <ele>55.729</ele>
        <time>2021-09-01T14:49:44Z</time>
      </trkpt>
      <trkpt lat="39.408830" lon="3.082915">
        <ele>55.589</ele>
        <time>2021-09-01T14:49:45Z</time>
      </trkpt>
      <trkpt lat="39.408895" lon="3.082831">
        <ele>55.315</ele>
        <time>2021-09-01T14:49:47Z</time>
      </trkpt>
      <trkpt lat="39.408934" lon="3.082788">
        <ele>55.165</ele>
        <time>2021-09-01T14:49:48Z</time>
      </trkpt>
      <trkpt lat="39.408968" lon="3.082742">
        <ele>55.111</ele>
        <time>2021-09-01T14:49:49Z</time>
      </trkpt>
      <trkpt lat="39.409008" lon="3.082704">
        <ele>55.108</ele>
        <time>2021-09-01T14:49:50Z</time>
      </trkpt>
      <trkpt lat="39.409051" lon="3.082658">
        <ele>55.219</ele>
        <time>2021-09-01T14:49:51Z</time>
      </trkpt>
      <trkpt lat="39.409087" lon="3.082613">
        <ele>55.443</ele>
        <time>2021-09-01T14:49:52Z</time>
      </trkpt>
      <trkpt lat="39.409124" lon="3.082572">
        <ele>55.618</ele>
        <time>2021-09-01T14:49:53Z</time>
      </trkpt>
      <trkpt lat="39.409160" lon="3.082527">
        <ele>55.792</ele>
        <time>2021-09-01T14:49:54Z</time>
      </trkpt>
      <trkpt lat="39.409194" lon="3.082485">
        <ele>55.951</ele>
        <time>2021-09-01T14:49:55Z</time>
      </trkpt>
      <trkpt lat="39.409253" lon="3.082402">
        <ele>56.376</ele>
        <time>2021-09-01T14:49:57Z</time>
      </trkpt>
      <trkpt lat="39.409316" lon="3.082324">
        <ele>56.993</ele>
        <time>2021-09-01T14:49:59Z</time>
      </trkpt>
      <trkpt lat="39.409387" lon="3.082252">
        <ele>57.533</ele>
        <time>2021-09-01T14:50:01Z</time>
      </trkpt>
      <trkpt lat="39.409422" lon="3.082209">
        <ele>57.727</ele>
        <time>2021-09-01T14:50:02Z</time>
      </trkpt>
      <trkpt lat="39.409461" lon="3.082164">
        <ele>57.968</ele>
        <time>2021-09-01T14:50:03Z</time>
      </trkpt>
      <trkpt lat="39.409492" lon="3.082122">
        <ele>58.014</ele>
        <time>2021-09-01T14:50:04Z</time>
      </trkpt>
      <trkpt lat="39.409549" lon="3.082049">
        <ele>58.208</ele>
        <time>2021-09-01T14:50:06Z</time>
      </trkpt>
      <trkpt lat="39.409602" lon="3.081981">
        <ele>58.370</ele>
        <time>2021-09-01T14:50:08Z</time>
      </trkpt>
      <trkpt lat="39.409660" lon="3.081915">
        <ele>58.384</ele>
        <time>2021-09-01T14:50:10Z</time>
      </trkpt>
      <trkpt lat="39.409722" lon="3.081842">
        <ele>58.439</ele>
        <time>2021-09-01T14:50:12Z</time>
      </trkpt>
      <trkpt lat="39.409800" lon="3.081769">
        <ele>58.523</ele>
        <time>2021-09-01T14:50:14Z</time>
      </trkpt>
      <trkpt lat="39.409841" lon="3.081737">
        <ele>58.562</ele>
        <time>2021-09-01T14:50:15Z</time>
      </trkpt>
      <trkpt lat="39.409876" lon="3.081682">
        <ele>58.677</ele>
        <time>2021-09-01T14:50:16Z</time>
      </trkpt>
      <trkpt lat="39.409909" lon="3.081635">
        <ele>58.754</ele>
        <time>2021-09-01T14:50:17Z</time>
      </trkpt>
      <trkpt lat="39.409941" lon="3.081585">
        <ele>58.784</ele>
        <time>2021-09-01T14:50:18Z</time>
      </trkpt>
      <trkpt lat="39.409979" lon="3.081541">
        <ele>58.797</ele>
        <time>2021-09-01T14:50:19Z</time>
      </trkpt>
      <trkpt lat="39.410016" lon="3.081500">
        <ele>58.723</ele>
        <time>2021-09-01T14:50:20Z</time>
      </trkpt>
      <trkpt lat="39.410055" lon="3.081458">
        <ele>58.625</ele>
        <time>2021-09-01T14:50:21Z</time>
      </trkpt>
      <trkpt lat="39.410090" lon="3.081408">
        <ele>58.608</ele>
        <time>2021-09-01T14:50:22Z</time>
      </trkpt>
      <trkpt lat="39.410126" lon="3.081364">
        <ele>58.537</ele>
        <time>2021-09-01T14:50:23Z</time>
      </trkpt>
      <trkpt lat="39.410161" lon="3.081319">
        <ele>58.551</ele>
        <time>2021-09-01T14:50:24Z</time>
      </trkpt>
      <trkpt lat="39.410196" lon="3.081275">
        <ele>58.476</ele>
        <time>2021-09-01T14:50:25Z</time>
      </trkpt>
      <trkpt lat="39.410225" lon="3.081224">
        <ele>58.420</ele>
        <time>2021-09-01T14:50:26Z</time>
      </trkpt>
      <trkpt lat="39.410261" lon="3.081173">
        <ele>58.369</ele>
        <time>2021-09-01T14:50:27Z</time>
      </trkpt>
      <trkpt lat="39.410297" lon="3.081124">
        <ele>58.394</ele>
        <time>2021-09-01T14:50:28Z</time>
      </trkpt>
      <trkpt lat="39.410324" lon="3.081076">
        <ele>58.311</ele>
        <time>2021-09-01T14:50:29Z</time>
      </trkpt>
      <trkpt lat="39.410361" lon="3.081029">
        <ele>58.231</ele>
        <time>2021-09-01T14:50:30Z</time>
      </trkpt>
      <trkpt lat="39.410392" lon="3.080984">
        <ele>58.292</ele>
        <time>2021-09-01T14:50:31Z</time>
      </trkpt>
      <trkpt lat="39.410428" lon="3.080937">
        <ele>58.273</ele>
        <time>2021-09-01T14:50:32Z</time>
      </trkpt>
      <trkpt lat="39.410462" lon="3.080883">
        <ele>58.220</ele>
        <time>2021-09-01T14:50:33Z</time>
      </trkpt>
      <trkpt lat="39.410493" lon="3.080836">
        <ele>58.208</ele>
        <time>2021-09-01T14:50:34Z</time>
      </trkpt>
      <trkpt lat="39.410521" lon="3.080788">
        <ele>58.217</ele>
        <time>2021-09-01T14:50:35Z</time>
      </trkpt>
      <trkpt lat="39.410545" lon="3.080738">
        <ele>58.181</ele>
        <time>2021-09-01T14:50:36Z</time>
      </trkpt>
      <trkpt lat="39.410578" lon="3.080697">
        <ele>58.136</ele>
        <time>2021-09-01T14:50:37Z</time>
      </trkpt>
      <trkpt lat="39.410615" lon="3.080653">
        <ele>58.010</ele>
        <time>2021-09-01T14:50:38Z</time>
      </trkpt>
      <trkpt lat="39.410652" lon="3.080611">
        <ele>57.919</ele>
        <time>2021-09-01T14:50:39Z</time>
      </trkpt>
      <trkpt lat="39.410686" lon="3.080569">
        <ele>57.814</ele>
        <time>2021-09-01T14:50:40Z</time>
      </trkpt>
      <trkpt lat="39.410720" lon="3.080519">
        <ele>57.681</ele>
        <time>2021-09-01T14:50:41Z</time>
      </trkpt>
      <trkpt lat="39.410760" lon="3.080465">
        <ele>57.421</ele>
        <time>2021-09-01T14:50:42Z</time>
      </trkpt>
      <trkpt lat="39.410797" lon="3.080422">
        <ele>57.341</ele>
        <time>2021-09-01T14:50:43Z</time>
      </trkpt>
      <trkpt lat="39.410838" lon="3.080377">
        <ele>57.181</ele>
        <time>2021-09-01T14:50:44Z</time>
      </trkpt>
      <trkpt lat="39.410877" lon="3.080332">
        <ele>57.009</ele>
        <time>2021-09-01T14:50:45Z</time>
      </trkpt>
      <trkpt lat="39.410913" lon="3.080279">
        <ele>56.808</ele>
        <time>2021-09-01T14:50:46Z</time>
      </trkpt>
      <trkpt lat="39.410955" lon="3.080229">
        <ele>56.752</ele>
        <time>2021-09-01T14:50:47Z</time>
      </trkpt>
      <trkpt lat="39.410996" lon="3.080180">
        <ele>56.746</ele>
        <time>2021-09-01T14:50:48Z</time>
      </trkpt>
      <trkpt lat="39.411040" lon="3.080132">
        <ele>56.531</ele>
        <time>2021-09-01T14:50:49Z</time>
      </trkpt>
      <trkpt lat="39.411078" lon="3.080079">
        <ele>56.455</ele>
        <time>2021-09-01T14:50:50Z</time>
      </trkpt>
      <trkpt lat="39.411118" lon="3.080032">
        <ele>56.394</ele>
        <time>2021-09-01T14:50:51Z</time>
      </trkpt>
      <trkpt lat="39.411157" lon="3.079990">
        <ele>56.279</ele>
        <time>2021-09-01T14:50:52Z</time>
      </trkpt>
      <trkpt lat="39.411195" lon="3.079944">
        <ele>55.966</ele>
        <time>2021-09-01T14:50:53Z</time>
      </trkpt>
      <trkpt lat="39.411237" lon="3.079896">
        <ele>55.876</ele>
        <time>2021-09-01T14:50:54Z</time>
      </trkpt>
      <trkpt lat="39.411279" lon="3.079847">
        <ele>55.794</ele>
        <time>2021-09-01T14:50:55Z</time>
      </trkpt>
      <trkpt lat="39.411320" lon="3.079803">
        <ele>55.657</ele>
        <time>2021-09-01T14:50:56Z</time>
      </trkpt>
      <trkpt lat="39.411367" lon="3.079764">
        <ele>55.522</ele>
        <time>2021-09-01T14:50:57Z</time>
      </trkpt>
      <trkpt lat="39.411417" lon="3.079722">
        <ele>55.508</ele>
        <time>2021-09-01T14:50:58Z</time>
      </trkpt>
      <trkpt lat="39.411468" lon="3.079682">
        <ele>55.487</ele>
        <time>2021-09-01T14:50:59Z</time>
      </trkpt>
      <trkpt lat="39.411519" lon="3.079642">
        <ele>55.211</ele>
        <time>2021-09-01T14:51:00Z</time>
      </trkpt>
      <trkpt lat="39.411570" lon="3.079600">
        <ele>55.166</ele>
        <time>2021-09-01T14:51:01Z</time>
      </trkpt>
      <trkpt lat="39.411613" lon="3.079558">
        <ele>55.040</ele>
        <time>2021-09-01T14:51:02Z</time>
      </trkpt>
      <trkpt lat="39.411658" lon="3.079512">
        <ele>54.989</ele>
        <time>2021-09-01T14:51:03Z</time>
      </trkpt>
      <trkpt lat="39.411702" lon="3.079464">
        <ele>54.864</ele>
        <time>2021-09-01T14:51:04Z</time>
      </trkpt>
      <trkpt lat="39.411754" lon="3.079417">
        <ele>54.781</ele>
        <time>2021-09-01T14:51:05Z</time>
      </trkpt>
      <trkpt lat="39.411800" lon="3.079372">
        <ele>54.631</ele>
        <time>2021-09-01T14:51:06Z</time>
      </trkpt>
      <trkpt lat="39.411844" lon="3.079328">
        <ele>54.592</ele>
        <time>2021-09-01T14:51:07Z</time>
      </trkpt>
      <trkpt lat="39.411889" lon="3.079282">
        <ele>54.473</ele>
        <time>2021-09-01T14:51:08Z</time>
      </trkpt>
      <trkpt lat="39.411933" lon="3.079234">
        <ele>54.320</ele>
        <time>2021-09-01T14:51:09Z</time>
      </trkpt>
      <trkpt lat="39.411982" lon="3.079190">
        <ele>54.308</ele>
        <time>2021-09-01T14:51:10Z</time>
      </trkpt>
      <trkpt lat="39.412022" lon="3.079143">
        <ele>54.197</ele>
        <time>2021-09-01T14:51:11Z</time>
      </trkpt>
      <trkpt lat="39.412063" lon="3.079104">
        <ele>54.131</ele>
        <time>2021-09-01T14:51:12Z</time>
      </trkpt>
      <trkpt lat="39.412107" lon="3.079060">
        <ele>54.036</ele>
        <time>2021-09-01T14:51:13Z</time>
      </trkpt>
      <trkpt lat="39.412148" lon="3.079014">
        <ele>53.990</ele>
        <time>2021-09-01T14:51:14Z</time>
      </trkpt>
      <trkpt lat="39.412188" lon="3.078971">
        <ele>53.839</ele>
        <time>2021-09-01T14:51:15Z</time>
      </trkpt>
      <trkpt lat="39.412224" lon="3.078917">
        <ele>53.714</ele>
        <time>2021-09-01T14:51:16Z</time>
      </trkpt>
      <trkpt lat="39.412255" lon="3.078851">
        <ele>53.681</ele>
        <time>2021-09-01T14:51:17Z</time>
      </trkpt>
      <trkpt lat="39.412293" lon="3.078788">
        <ele>53.551</ele>
        <time>2021-09-01T14:51:18Z</time>
      </trkpt>
      <trkpt lat="39.412332" lon="3.078743">
        <ele>53.326</ele>
        <time>2021-09-01T14:51:19Z</time>
      </trkpt>
      <trkpt lat="39.412376" lon="3.078692">
        <ele>53.147</ele>
        <time>2021-09-01T14:51:20Z</time>
      </trkpt>
      <trkpt lat="39.412421" lon="3.078659">
        <ele>53.011</ele>
        <time>2021-09-01T14:51:21Z</time>
      </trkpt>
      <trkpt lat="39.412467" lon="3.078621">
        <ele>52.908</ele>
        <time>2021-09-01T14:51:22Z</time>
      </trkpt>
      <trkpt lat="39.412518" lon="3.078585">
        <ele>52.850</ele>
        <time>2021-09-01T14:51:23Z</time>
      </trkpt>
      <trkpt lat="39.412575" lon="3.078557">
        <ele>52.754</ele>
        <time>2021-09-01T14:51:24Z</time>
      </trkpt>
      <trkpt lat="39.412631" lon="3.078517">
        <ele>52.529</ele>
        <time>2021-09-01T14:51:25Z</time>
      </trkpt>
      <trkpt lat="39.412681" lon="3.078486">
        <ele>52.353</ele>
        <time>2021-09-01T14:51:26Z</time>
      </trkpt>
      <trkpt lat="39.412737" lon="3.078461">
        <ele>52.132</ele>
        <time>2021-09-01T14:51:27Z</time>
      </trkpt>
      <trkpt lat="39.412789" lon="3.078431">
        <ele>51.917</ele>
        <time>2021-09-01T14:51:28Z</time>
      </trkpt>
      <trkpt lat="39.412837" lon="3.078395">
        <ele>51.774</ele>
        <time>2021-09-01T14:51:29Z</time>
      </trkpt>
      <trkpt lat="39.412886" lon="3.078353">
        <ele>51.614</ele>
        <time>2021-09-01T14:51:30Z</time>
      </trkpt>
      <trkpt lat="39.412941" lon="3.078309">
        <ele>51.415</ele>
        <time>2021-09-01T14:51:31Z</time>
      </trkpt>
      <trkpt lat="39.413002" lon="3.078267">
        <ele>51.365</ele>
        <time>2021-09-01T14:51:32Z</time>
      </trkpt>
      <trkpt lat="39.413051" lon="3.078219">
        <ele>51.111</ele>
        <time>2021-09-01T14:51:33Z</time>
      </trkpt>
      <trkpt lat="39.413099" lon="3.078176">
        <ele>51.108</ele>
        <time>2021-09-01T14:51:34Z</time>
      </trkpt>
      <trkpt lat="39.413151" lon="3.078133">
        <ele>51.219</ele>
        <time>2021-09-01T14:51:35Z</time>
      </trkpt>
      <trkpt lat="39.413195" lon="3.078087">
        <ele>51.283</ele>
        <time>2021-09-01T14:51:36Z</time>
      </trkpt>
      <trkpt lat="39.413239" lon="3.078048">
        <ele>51.268</ele>
        <time>2021-09-01T14:51:37Z</time>
      </trkpt>
      <trkpt lat="39.413287" lon="3.078000">
        <ele>51.122</ele>
        <time>2021-09-01T14:51:38Z</time>
      </trkpt>
      <trkpt lat="39.413329" lon="3.077958">
        <ele>51.151</ele>
        <time>2021-09-01T14:51:39Z</time>
      </trkpt>
      <trkpt lat="39.413368" lon="3.077914">
        <ele>50.996</ele>
        <time>2021-09-01T14:51:40Z</time>
      </trkpt>
      <trkpt lat="39.413405" lon="3.077867">
        <ele>50.723</ele>
        <time>2021-09-01T14:51:41Z</time>
      </trkpt>
      <trkpt lat="39.413451" lon="3.077825">
        <ele>50.613</ele>
        <time>2021-09-01T14:51:42Z</time>
      </trkpt>
      <trkpt lat="39.413497" lon="3.077788">
        <ele>50.512</ele>
        <time>2021-09-01T14:51:43Z</time>
      </trkpt>
      <trkpt lat="39.413539" lon="3.077757">
        <ele>50.432</ele>
        <time>2021-09-01T14:51:44Z</time>
      </trkpt>
      <trkpt lat="39.413585" lon="3.077726">
        <ele>50.405</ele>
        <time>2021-09-01T14:51:45Z</time>
      </trkpt>
      <trkpt lat="39.413635" lon="3.077697">
        <ele>50.408</ele>
        <time>2021-09-01T14:51:46Z</time>
      </trkpt>
      <trkpt lat="39.413688" lon="3.077683">
        <ele>50.369</ele>
        <time>2021-09-01T14:51:47Z</time>
      </trkpt>
      <trkpt lat="39.413740" lon="3.077666">
        <ele>50.353</ele>
        <time>2021-09-01T14:51:48Z</time>
      </trkpt>
      <trkpt lat="39.413792" lon="3.077641">
        <ele>50.258</ele>
        <time>2021-09-01T14:51:49Z</time>
      </trkpt>
      <trkpt lat="39.413842" lon="3.077620">
        <ele>50.052</ele>
        <time>2021-09-01T14:51:50Z</time>
      </trkpt>
      <trkpt lat="39.413892" lon="3.077590">
        <ele>49.831</ele>
        <time>2021-09-01T14:51:51Z</time>
      </trkpt>
      <trkpt lat="39.413940" lon="3.077553">
        <ele>49.766</ele>
        <time>2021-09-01T14:51:52Z</time>
      </trkpt>
      <trkpt lat="39.413985" lon="3.077522">
        <ele>49.553</ele>
        <time>2021-09-01T14:51:53Z</time>
      </trkpt>
      <trkpt lat="39.414030" lon="3.077486">
        <ele>49.463</ele>
        <time>2021-09-01T14:51:54Z</time>
      </trkpt>
      <trkpt lat="39.414076" lon="3.077449">
        <ele>49.375</ele>
        <time>2021-09-01T14:51:55Z</time>
      </trkpt>
      <trkpt lat="39.414128" lon="3.077416">
        <ele>49.328</ele>
        <time>2021-09-01T14:51:56Z</time>
      </trkpt>
      <trkpt lat="39.414177" lon="3.077379">
        <ele>49.220</ele>
        <time>2021-09-01T14:51:57Z</time>
      </trkpt>
      <trkpt lat="39.414225" lon="3.077337">
        <ele>49.208</ele>
        <time>2021-09-01T14:51:58Z</time>
      </trkpt>
      <trkpt lat="39.414274" lon="3.077299">
        <ele>49.115</ele>
        <time>2021-09-01T14:51:59Z</time>
      </trkpt>
      <trkpt lat="39.414318" lon="3.077261">
        <ele>49.069</ele>
        <time>2021-09-01T14:52:00Z</time>
      </trkpt>
      <trkpt lat="39.414361" lon="3.077222">
        <ele>48.944</ele>
        <time>2021-09-01T14:52:01Z</time>
      </trkpt>
      <trkpt lat="39.414408" lon="3.077184">
        <ele>48.898</ele>
        <time>2021-09-01T14:52:02Z</time>
      </trkpt>
      <trkpt lat="39.414454" lon="3.077145">
        <ele>48.797</ele>
        <time>2021-09-01T14:52:03Z</time>
      </trkpt>
      <trkpt lat="39.414499" lon="3.077107">
        <ele>48.612</ele>
        <time>2021-09-01T14:52:04Z</time>
      </trkpt>
      <trkpt lat="39.414539" lon="3.077068">
        <ele>48.629</ele>
        <time>2021-09-01T14:52:05Z</time>
      </trkpt>
      <trkpt lat="39.414580" lon="3.077027">
        <ele>48.589</ele>
        <time>2021-09-01T14:52:06Z</time>
      </trkpt>
      <trkpt lat="39.414622" lon="3.076990">
        <ele>48.442</ele>
        <time>2021-09-01T14:52:07Z</time>
      </trkpt>
      <trkpt lat="39.414669" lon="3.076965">
        <ele>48.322</ele>
        <time>2021-09-01T14:52:08Z</time>
      </trkpt>
      <trkpt lat="39.414715" lon="3.076954">
        <ele>48.214</ele>
        <time>2021-09-01T14:52:09Z</time>
      </trkpt>
      <trkpt lat="39.414763" lon="3.076955">
        <ele>48.108</ele>
        <time>2021-09-01T14:52:10Z</time>
      </trkpt>
      <trkpt lat="39.414813" lon="3.076950">
        <ele>48.012</ele>
        <time>2021-09-01T14:52:11Z</time>
      </trkpt>
      <trkpt lat="39.414869" lon="3.076958">
        <ele>47.946</ele>
        <time>2021-09-01T14:52:12Z</time>
      </trkpt>
      <trkpt lat="39.414934" lon="3.076976">
        <ele>47.831</ele>
        <time>2021-09-01T14:52:13Z</time>
      </trkpt>
      <trkpt lat="39.414990" lon="3.076984">
        <ele>47.745</ele>
        <time>2021-09-01T14:52:14Z</time>
      </trkpt>
      <trkpt lat="39.415046" lon="3.076989">
        <ele>47.724</ele>
        <time>2021-09-01T14:52:15Z</time>
      </trkpt>
      <trkpt lat="39.415101" lon="3.076997">
        <ele>47.799</ele>
        <time>2021-09-01T14:52:16Z</time>
      </trkpt>
      <trkpt lat="39.415159" lon="3.076998">
        <ele>47.716</ele>
        <time>2021-09-01T14:52:17Z</time>
      </trkpt>
      <trkpt lat="39.415213" lon="3.077003">
        <ele>47.726</ele>
        <time>2021-09-01T14:52:18Z</time>
      </trkpt>
      <trkpt lat="39.415265" lon="3.077009">
        <ele>47.848</ele>
        <time>2021-09-01T14:52:19Z</time>
      </trkpt>
      <trkpt lat="39.415315" lon="3.077015">
        <ele>47.861</ele>
        <time>2021-09-01T14:52:20Z</time>
      </trkpt>
      <trkpt lat="39.415364" lon="3.077020">
        <ele>47.717</ele>
        <time>2021-09-01T14:52:21Z</time>
      </trkpt>
      <trkpt lat="39.415443" lon="3.077011">
        <ele>47.608</ele>
        <time>2021-09-01T14:52:23Z</time>
      </trkpt>
      <trkpt lat="39.415526" lon="3.076996">
        <ele>47.722</ele>
        <time>2021-09-01T14:52:25Z</time>
      </trkpt>
      <trkpt lat="39.415616" lon="3.077001">
        <ele>47.816</ele>
        <time>2021-09-01T14:52:27Z</time>
      </trkpt>
      <trkpt lat="39.415663" lon="3.077001">
        <ele>47.891</ele>
        <time>2021-09-01T14:52:28Z</time>
      </trkpt>
      <trkpt lat="39.415713" lon="3.076999">
        <ele>47.875</ele>
        <time>2021-09-01T14:52:29Z</time>
      </trkpt>
      <trkpt lat="39.415765" lon="3.076999">
        <ele>47.844</ele>
        <time>2021-09-01T14:52:30Z</time>
      </trkpt>
      <trkpt lat="39.415816" lon="3.077001">
        <ele>47.899</ele>
        <time>2021-09-01T14:52:31Z</time>
      </trkpt>
      <trkpt lat="39.415866" lon="3.076999">
        <ele>47.896</ele>
        <time>2021-09-01T14:52:32Z</time>
      </trkpt>
      <trkpt lat="39.415918" lon="3.076998">
        <ele>47.866</ele>
        <time>2021-09-01T14:52:33Z</time>
      </trkpt>
      <trkpt lat="39.415970" lon="3.076999">
        <ele>47.849</ele>
        <time>2021-09-01T14:52:34Z</time>
      </trkpt>
      <trkpt lat="39.416023" lon="3.076999">
        <ele>47.702</ele>
        <time>2021-09-01T14:52:35Z</time>
      </trkpt>
      <trkpt lat="39.416079" lon="3.076996">
        <ele>47.722</ele>
        <time>2021-09-01T14:52:36Z</time>
      </trkpt>
      <trkpt lat="39.416137" lon="3.076999">
        <ele>47.708</ele>
        <time>2021-09-01T14:52:37Z</time>
      </trkpt>
      <trkpt lat="39.416192" lon="3.077002">
        <ele>47.742</ele>
        <time>2021-09-01T14:52:38Z</time>
      </trkpt>
      <trkpt lat="39.416250" lon="3.076997">
        <ele>47.766</ele>
        <time>2021-09-01T14:52:39Z</time>
      </trkpt>
      <trkpt lat="39.416306" lon="3.076999">
        <ele>47.711</ele>
        <time>2021-09-01T14:52:40Z</time>
      </trkpt>
      <trkpt lat="39.416361" lon="3.076996">
        <ele>47.865</ele>
        <time>2021-09-01T14:52:41Z</time>
      </trkpt>
      <trkpt lat="39.416417" lon="3.076996">
        <ele>47.854</ele>
        <time>2021-09-01T14:52:42Z</time>
      </trkpt>
      <trkpt lat="39.416473" lon="3.076993">
        <ele>47.819</ele>
        <time>2021-09-01T14:52:43Z</time>
      </trkpt>
      <trkpt lat="39.416530" lon="3.076988">
        <ele>47.896</ele>
        <time>2021-09-01T14:52:44Z</time>
      </trkpt>
      <trkpt lat="39.416580" lon="3.076983">
        <ele>47.836</ele>
        <time>2021-09-01T14:52:45Z</time>
      </trkpt>
      <trkpt lat="39.416634" lon="3.076976">
        <ele>47.654</ele>
        <time>2021-09-01T14:52:46Z</time>
      </trkpt>
      <trkpt lat="39.416694" lon="3.076976">
        <ele>47.556</ele>
        <time>2021-09-01T14:52:47Z</time>
      </trkpt>
      <trkpt lat="39.416756" lon="3.076977">
        <ele>47.311</ele>
        <time>2021-09-01T14:52:48Z</time>
      </trkpt>
      <trkpt lat="39.416813" lon="3.076976">
        <ele>47.108</ele>
        <time>2021-09-01T14:52:49Z</time>
      </trkpt>
      <trkpt lat="39.416872" lon="3.076974">
        <ele>46.983</ele>
        <time>2021-09-01T14:52:50Z</time>
      </trkpt>
      <trkpt lat="39.416933" lon="3.076968">
        <ele>46.777</ele>
        <time>2021-09-01T14:52:51Z</time>
      </trkpt>
      <trkpt lat="39.416996" lon="3.076969">
        <ele>46.642</ele>
        <time>2021-09-01T14:52:52Z</time>
      </trkpt>
      <trkpt lat="39.417050" lon="3.076971">
        <ele>46.496</ele>
        <time>2021-09-01T14:52:53Z</time>
      </trkpt>
      <trkpt lat="39.417111" lon="3.076968">
        <ele>46.325</ele>
        <time>2021-09-01T14:52:54Z</time>
      </trkpt>
      <trkpt lat="39.417175" lon="3.076975">
        <ele>46.360</ele>
        <time>2021-09-01T14:52:55Z</time>
      </trkpt>
      <trkpt lat="39.417237" lon="3.076978">
        <ele>46.377</ele>
        <time>2021-09-01T14:52:56Z</time>
      </trkpt>
      <trkpt lat="39.417291" lon="3.076978">
        <ele>46.327</ele>
        <time>2021-09-01T14:52:57Z</time>
      </trkpt>
      <trkpt lat="39.417343" lon="3.076978">
        <ele>46.479</ele>
        <time>2021-09-01T14:52:58Z</time>
      </trkpt>
      <trkpt lat="39.417395" lon="3.076982">
        <ele>46.405</ele>
        <time>2021-09-01T14:52:59Z</time>
      </trkpt>
      <trkpt lat="39.417445" lon="3.076986">
        <ele>46.425</ele>
        <time>2021-09-01T14:53:00Z</time>
      </trkpt>
      <trkpt lat="39.417497" lon="3.076985">
        <ele>46.408</ele>
        <time>2021-09-01T14:53:01Z</time>
      </trkpt>
      <trkpt lat="39.417544" lon="3.076980">
        <ele>46.455</ele>
        <time>2021-09-01T14:53:02Z</time>
      </trkpt>
      <trkpt lat="39.417590" lon="3.076971">
        <ele>46.429</ele>
        <time>2021-09-01T14:53:03Z</time>
      </trkpt>
      <trkpt lat="39.417639" lon="3.076961">
        <ele>46.414</ele>
        <time>2021-09-01T14:53:04Z</time>
      </trkpt>
      <trkpt lat="39.417690" lon="3.076957">
        <ele>46.468</ele>
        <time>2021-09-01T14:53:05Z</time>
      </trkpt>
      <trkpt lat="39.417736" lon="3.076960">
        <ele>46.557</ele>
        <time>2021-09-01T14:53:06Z</time>
      </trkpt>
      <trkpt lat="39.417822" lon="3.076956">
        <ele>46.612</ele>
        <time>2021-09-01T14:53:08Z</time>
      </trkpt>
      <trkpt lat="39.417883" lon="3.076969">
        <ele>46.789</ele>
        <time>2021-09-01T14:53:10Z</time>
      </trkpt>
      <trkpt lat="39.417935" lon="3.076960">
        <ele>46.769</ele>
        <time>2021-09-01T14:53:12Z</time>
      </trkpt>
      <trkpt lat="39.417995" lon="3.076943">
        <ele>47.073</ele>
        <time>2021-09-01T14:53:15Z</time>
      </trkpt>
      <trkpt lat="39.418033" lon="3.076911">
        <ele>47.185</ele>
        <time>2021-09-01T14:53:17Z</time>
      </trkpt>
      <trkpt lat="39.418069" lon="3.076875">
        <ele>47.313</ele>
        <time>2021-09-01T14:53:19Z</time>
      </trkpt>
      <trkpt lat="39.418114" lon="3.076840">
        <ele>47.508</ele>
        <time>2021-09-01T14:53:21Z</time>
      </trkpt>
      <trkpt lat="39.418158" lon="3.076790">
        <ele>47.525</ele>
        <time>2021-09-01T14:53:23Z</time>
      </trkpt>
      <trkpt lat="39.418194" lon="3.076706">
        <ele>47.329</ele>
        <time>2021-09-01T14:53:25Z</time>
      </trkpt>
      <trkpt lat="39.418239" lon="3.076625">
        <ele>47.154</ele>
        <time>2021-09-01T14:53:27Z</time>
      </trkpt>
      <trkpt lat="39.418300" lon="3.076547">
        <ele>46.938</ele>
        <time>2021-09-01T14:53:29Z</time>
      </trkpt>
      <trkpt lat="39.418349" lon="3.076455">
        <ele>46.737</ele>
        <time>2021-09-01T14:53:31Z</time>
      </trkpt>
      <trkpt lat="39.418376" lon="3.076406">
        <ele>46.592</ele>
        <time>2021-09-01T14:53:32Z</time>
      </trkpt>
      <trkpt lat="39.418406" lon="3.076352">
        <ele>46.499</ele>
        <time>2021-09-01T14:53:33Z</time>
      </trkpt>
      <trkpt lat="39.418439" lon="3.076296">
        <ele>46.219</ele>
        <time>2021-09-01T14:53:34Z</time>
      </trkpt>
      <trkpt lat="39.418469" lon="3.076241">
        <ele>45.916</ele>
        <time>2021-09-01T14:53:35Z</time>
      </trkpt>
      <trkpt lat="39.418495" lon="3.076182">
        <ele>45.876</ele>
        <time>2021-09-01T14:53:36Z</time>
      </trkpt>
      <trkpt lat="39.418526" lon="3.076123">
        <ele>45.613</ele>
        <time>2021-09-01T14:53:37Z</time>
      </trkpt>
      <trkpt lat="39.418557" lon="3.076065">
        <ele>45.508</ele>
        <time>2021-09-01T14:53:38Z</time>
      </trkpt>
      <trkpt lat="39.418588" lon="3.076006">
        <ele>45.519</ele>
        <time>2021-09-01T14:53:39Z</time>
      </trkpt>
      <trkpt lat="39.418617" lon="3.075953">
        <ele>45.483</ele>
        <time>2021-09-01T14:53:40Z</time>
      </trkpt>
      <trkpt lat="39.418642" lon="3.075898">
        <ele>45.388</ele>
        <time>2021-09-01T14:53:41Z</time>
      </trkpt>
      <trkpt lat="39.418670" lon="3.075842">
        <ele>45.142</ele>
        <time>2021-09-01T14:53:42Z</time>
      </trkpt>
      <trkpt lat="39.418697" lon="3.075792">
        <ele>45.021</ele>
        <time>2021-09-01T14:53:43Z</time>
      </trkpt>
      <trkpt lat="39.418723" lon="3.075736">
        <ele>44.866</ele>
        <time>2021-09-01T14:53:44Z</time>
      </trkpt>
      <trkpt lat="39.418743" lon="3.075682">
        <ele>44.643</ele>
        <time>2021-09-01T14:53:45Z</time>
      </trkpt>
      <trkpt lat="39.418793" lon="3.075587">
        <ele>44.553</ele>
        <time>2021-09-01T14:53:47Z</time>
      </trkpt>
      <trkpt lat="39.418836" lon="3.075484">
        <ele>44.282</ele>
        <time>2021-09-01T14:53:49Z</time>
      </trkpt>
      <trkpt lat="39.418854" lon="3.075431">
        <ele>44.243</ele>
        <time>2021-09-01T14:53:50Z</time>
      </trkpt>
      <trkpt lat="39.418881" lon="3.075381">
        <ele>44.117</ele>
        <time>2021-09-01T14:53:51Z</time>
      </trkpt>
      <trkpt lat="39.418924" lon="3.075282">
        <ele>44.008</ele>
        <time>2021-09-01T14:53:53Z</time>
      </trkpt>
      <trkpt lat="39.418946" lon="3.075228">
        <ele>43.966</ele>
        <time>2021-09-01T14:53:54Z</time>
      </trkpt>
      <trkpt lat="39.418965" lon="3.075172">
        <ele>43.930</ele>
        <time>2021-09-01T14:53:55Z</time>
      </trkpt>
      <trkpt lat="39.418989" lon="3.075117">
        <ele>43.835</ele>
        <time>2021-09-01T14:53:56Z</time>
      </trkpt>
      <trkpt lat="39.419010" lon="3.075059">
        <ele>43.829</ele>
        <time>2021-09-01T14:53:57Z</time>
      </trkpt>
      <trkpt lat="39.419033" lon="3.075006">
        <ele>43.618</ele>
        <time>2021-09-01T14:53:58Z</time>
      </trkpt>
      <trkpt lat="39.419053" lon="3.074954">
        <ele>43.553</ele>
        <time>2021-09-01T14:53:59Z</time>
      </trkpt>
      <trkpt lat="39.419074" lon="3.074900">
        <ele>43.440</ele>
        <time>2021-09-01T14:54:00Z</time>
      </trkpt>
      <trkpt lat="39.419101" lon="3.074853">
        <ele>43.230</ele>
        <time>2021-09-01T14:54:01Z</time>
      </trkpt>
      <trkpt lat="39.419131" lon="3.074806">
        <ele>43.138</ele>
        <time>2021-09-01T14:54:02Z</time>
      </trkpt>
      <trkpt lat="39.419169" lon="3.074771">
        <ele>42.970</ele>
        <time>2021-09-01T14:54:03Z</time>
      </trkpt>
      <trkpt lat="39.419254" lon="3.074755">
        <ele>42.717</ele>
        <time>2021-09-01T14:54:05Z</time>
      </trkpt>
      <trkpt lat="39.419338" lon="3.074736">
        <ele>42.508</ele>
        <time>2021-09-01T14:54:07Z</time>
      </trkpt>
      <trkpt lat="39.419421" lon="3.074710">
        <ele>42.511</ele>
        <time>2021-09-01T14:54:09Z</time>
      </trkpt>
      <trkpt lat="39.419473" lon="3.074689">
        <ele>42.515</ele>
        <time>2021-09-01T14:54:10Z</time>
      </trkpt>
      <trkpt lat="39.419526" lon="3.074667">
        <ele>42.560</ele>
        <time>2021-09-01T14:54:11Z</time>
      </trkpt>
      <trkpt lat="39.419576" lon="3.074648">
        <ele>42.574</ele>
        <time>2021-09-01T14:54:12Z</time>
      </trkpt>
      <trkpt lat="39.419626" lon="3.074630">
        <ele>42.543</ele>
        <time>2021-09-01T14:54:13Z</time>
      </trkpt>
      <trkpt lat="39.419673" lon="3.074604">
        <ele>42.598</ele>
        <time>2021-09-01T14:54:14Z</time>
      </trkpt>
      <trkpt lat="39.419714" lon="3.074578">
        <ele>42.525</ele>
        <time>2021-09-01T14:54:15Z</time>
      </trkpt>
      <trkpt lat="39.419759" lon="3.074558">
        <ele>42.445</ele>
        <time>2021-09-01T14:54:16Z</time>
      </trkpt>
      <trkpt lat="39.419803" lon="3.074538">
        <ele>42.391</ele>
        <time>2021-09-01T14:54:17Z</time>
      </trkpt>
      <trkpt lat="39.419849" lon="3.074517">
        <ele>42.281</ele>
        <time>2021-09-01T14:54:18Z</time>
      </trkpt>
      <trkpt lat="39.419892" lon="3.074498">
        <ele>42.019</ele>
        <time>2021-09-01T14:54:19Z</time>
      </trkpt>
      <trkpt lat="39.419938" lon="3.074472">
        <ele>41.908</ele>
        <time>2021-09-01T14:54:20Z</time>
      </trkpt>
      <trkpt lat="39.419983" lon="3.074447">
        <ele>41.847</ele>
        <time>2021-09-01T14:54:21Z</time>
      </trkpt>
      <trkpt lat="39.420032" lon="3.074419">
        <ele>41.781</ele>
        <time>2021-09-01T14:54:22Z</time>
      </trkpt>
      <trkpt lat="39.420081" lon="3.074396">
        <ele>41.696</ele>
        <time>2021-09-01T14:54:23Z</time>
      </trkpt>
      <trkpt lat="39.420127" lon="3.074374">
        <ele>41.560</ele>
        <time>2021-09-01T14:54:24Z</time>
      </trkpt>
      <trkpt lat="39.420173" lon="3.074352">
        <ele>41.329</ele>
        <time>2021-09-01T14:54:25Z</time>
      </trkpt>
      <trkpt lat="39.420258" lon="3.074309">
        <ele>41.124</ele>
        <time>2021-09-01T14:54:27Z</time>
      </trkpt>
      <trkpt lat="39.420300" lon="3.074285">
        <ele>41.051</ele>
        <time>2021-09-01T14:54:28Z</time>
      </trkpt>
      <trkpt lat="39.420376" lon="3.074231">
        <ele>40.941</ele>
        <time>2021-09-01T14:54:30Z</time>
      </trkpt>
      <trkpt lat="39.420440" lon="3.074158">
        <ele>40.715</ele>
        <time>2021-09-01T14:54:32Z</time>
      </trkpt>
      <trkpt lat="39.420457" lon="3.074099">
        <ele>40.565</ele>
        <time>2021-09-01T14:54:33Z</time>
      </trkpt>
      <trkpt lat="39.420461" lon="3.074038">
        <ele>40.411</ele>
        <time>2021-09-01T14:54:34Z</time>
      </trkpt>
      <trkpt lat="39.420464" lon="3.073979">
        <ele>40.308</ele>
        <time>2021-09-01T14:54:35Z</time>
      </trkpt>
      <trkpt lat="39.420476" lon="3.073919">
        <ele>40.229</ele>
        <time>2021-09-01T14:54:36Z</time>
      </trkpt>
      <trkpt lat="39.420485" lon="3.073852">
        <ele>40.163</ele>
        <time>2021-09-01T14:54:37Z</time>
      </trkpt>
      <trkpt lat="39.420492" lon="3.073791">
        <ele>40.068</ele>
        <time>2021-09-01T14:54:38Z</time>
      </trkpt>
      <trkpt lat="39.420498" lon="3.073731">
        <ele>39.972</ele>
        <time>2021-09-01T14:54:39Z</time>
      </trkpt>
      <trkpt lat="39.420511" lon="3.073667">
        <ele>39.821</ele>
        <time>2021-09-01T14:54:40Z</time>
      </trkpt>
      <trkpt lat="39.420519" lon="3.073608">
        <ele>39.726</ele>
        <time>2021-09-01T14:54:41Z</time>
      </trkpt>
      <trkpt lat="39.420542" lon="3.073498">
        <ele>39.423</ele>
        <time>2021-09-01T14:54:43Z</time>
      </trkpt>
      <trkpt lat="39.420582" lon="3.073403">
        <ele>39.353</ele>
        <time>2021-09-01T14:54:45Z</time>
      </trkpt>
      <trkpt lat="39.420646" lon="3.073360">
        <ele>39.118</ele>
        <time>2021-09-01T14:54:47Z</time>
      </trkpt>
      <trkpt lat="39.420731" lon="3.073385">
        <ele>39.198</ele>
        <time>2021-09-01T14:54:49Z</time>
      </trkpt>
      <trkpt lat="39.420818" lon="3.073376">
        <ele>39.117</ele>
        <time>2021-09-01T14:54:51Z</time>
      </trkpt>
      <trkpt lat="39.420901" lon="3.073374">
        <ele>39.108</ele>
        <time>2021-09-01T14:54:53Z</time>
      </trkpt>
      <trkpt lat="39.420971" lon="3.073373">
        <ele>39.149</ele>
        <time>2021-09-01T14:54:55Z</time>
      </trkpt>
      <trkpt lat="39.421017" lon="3.073323">
        <ele>39.173</ele>
        <time>2021-09-01T14:54:57Z</time>
      </trkpt>
      <trkpt lat="39.421006" lon="3.073242">
        <ele>39.038</ele>
        <time>2021-09-01T14:54:59Z</time>
      </trkpt>
      <trkpt lat="39.420987" lon="3.073149">
        <ele>38.992</ele>
        <time>2021-09-01T14:55:01Z</time>
      </trkpt>
      <trkpt lat="39.420976" lon="3.073038">
        <ele>38.931</ele>
        <time>2021-09-01T14:55:03Z</time>
      </trkpt>
      <trkpt lat="39.420971" lon="3.072976">
        <ele>38.926</ele>
        <time>2021-09-01T14:55:04Z</time>
      </trkpt>
      <trkpt lat="39.420966" lon="3.072914">
        <ele>38.933</ele>
        <time>2021-09-01T14:55:05Z</time>
      </trkpt>
      <trkpt lat="39.420968" lon="3.072854">
        <ele>38.923</ele>
        <time>2021-09-01T14:55:06Z</time>
      </trkpt>
      <trkpt lat="39.420954" lon="3.072745">
        <ele>39.092</ele>
        <time>2021-09-01T14:55:08Z</time>
      </trkpt>
      <trkpt lat="39.420949" lon="3.072685">
        <ele>39.173</ele>
        <time>2021-09-01T14:55:09Z</time>
      </trkpt>
      <trkpt lat="39.420935" lon="3.072571">
        <ele>39.120</ele>
        <time>2021-09-01T14:55:11Z</time>
      </trkpt>
      <trkpt lat="39.420929" lon="3.072513">
        <ele>39.008</ele>
        <time>2021-09-01T14:55:12Z</time>
      </trkpt>
      <trkpt lat="39.420926" lon="3.072437">
        <ele>39.047</ele>
        <time>2021-09-01T14:55:13Z</time>
      </trkpt>
      <trkpt lat="39.420920" lon="3.072367">
        <ele>38.931</ele>
        <time>2021-09-01T14:55:14Z</time>
      </trkpt>
      <trkpt lat="39.420916" lon="3.072293">
        <ele>38.956</ele>
        <time>2021-09-01T14:55:15Z</time>
      </trkpt>
      <trkpt lat="39.420910" lon="3.072220">
        <ele>38.960</ele>
        <time>2021-09-01T14:55:16Z</time>
      </trkpt>
      <trkpt lat="39.420905" lon="3.072149">
        <ele>38.989</ele>
        <time>2021-09-01T14:55:17Z</time>
      </trkpt>
      <trkpt lat="39.420897" lon="3.072077">
        <ele>38.914</ele>
        <time>2021-09-01T14:55:18Z</time>
      </trkpt>
      <trkpt lat="39.420887" lon="3.072003">
        <ele>38.981</ele>
        <time>2021-09-01T14:55:19Z</time>
      </trkpt>
      <trkpt lat="39.420880" lon="3.071927">
        <ele>38.961</ele>
        <time>2021-09-01T14:55:20Z</time>
      </trkpt>
      <trkpt lat="39.420874" lon="3.071856">
        <ele>38.827</ele>
        <time>2021-09-01T14:55:21Z</time>
      </trkpt>
      <trkpt lat="39.420869" lon="3.071786">
        <ele>38.868</ele>
        <time>2021-09-01T14:55:22Z</time>
      </trkpt>
      <trkpt lat="39.420868" lon="3.071712">
        <ele>38.714</ele>
        <time>2021-09-01T14:55:23Z</time>
      </trkpt>
      <trkpt lat="39.420872" lon="3.071639">
        <ele>38.708</ele>
        <time>2021-09-01T14:55:24Z</time>
      </trkpt>
      <trkpt lat="39.420881" lon="3.071564">
        <ele>38.670</ele>
        <time>2021-09-01T14:55:25Z</time>
      </trkpt>
      <trkpt lat="39.420894" lon="3.071485">
        <ele>38.644</ele>
        <time>2021-09-01T14:55:26Z</time>
      </trkpt>
      <trkpt lat="39.420908" lon="3.071411">
        <ele>38.739</ele>
        <time>2021-09-01T14:55:27Z</time>
      </trkpt>
      <trkpt lat="39.420919" lon="3.071332">
        <ele>38.793</ele>
        <time>2021-09-01T14:55:28Z</time>
      </trkpt>
      <trkpt lat="39.420927" lon="3.071258">
        <ele>38.792</ele>
        <time>2021-09-01T14:55:29Z</time>
      </trkpt>
      <trkpt lat="39.420940" lon="3.071179">
        <ele>38.717</ele>
        <time>2021-09-01T14:55:30Z</time>
      </trkpt>
      <trkpt lat="39.420949" lon="3.071100">
        <ele>38.774</ele>
        <time>2021-09-01T14:55:31Z</time>
      </trkpt>
      <trkpt lat="39.420959" lon="3.071023">
        <ele>38.654</ele>
        <time>2021-09-01T14:55:32Z</time>
      </trkpt>
      <trkpt lat="39.420971" lon="3.070941">
        <ele>38.561</ele>
        <time>2021-09-01T14:55:33Z</time>
      </trkpt>
      <trkpt lat="39.420984" lon="3.070865">
        <ele>38.321</ele>
        <time>2021-09-01T14:55:34Z</time>
      </trkpt>
      <trkpt lat="39.420993" lon="3.070788">
        <ele>38.213</ele>
        <time>2021-09-01T14:55:35Z</time>
      </trkpt>
      <trkpt lat="39.421001" lon="3.070713">
        <ele>38.008</ele>
        <time>2021-09-01T14:55:36Z</time>
      </trkpt>
      <trkpt lat="39.421014" lon="3.070638">
        <ele>37.934</ele>
        <time>2021-09-01T14:55:37Z</time>
      </trkpt>
      <trkpt lat="39.421027" lon="3.070559">
        <ele>37.818</ele>
        <time>2021-09-01T14:55:38Z</time>
      </trkpt>
      <trkpt lat="39.421041" lon="3.070479">
        <ele>37.883</ele>
        <time>2021-09-01T14:55:39Z</time>
      </trkpt>
      <trkpt lat="39.421048" lon="3.070403">
        <ele>37.817</ele>
        <time>2021-09-01T14:55:40Z</time>
      </trkpt>
      <trkpt lat="39.421058" lon="3.070316">
        <ele>37.866</ele>
        <time>2021-09-01T14:55:41Z</time>
      </trkpt>
      <trkpt lat="39.421069" lon="3.070235">
        <ele>37.831</ele>
        <time>2021-09-01T14:55:42Z</time>
      </trkpt>
      <trkpt lat="39.421081" lon="3.070154">
        <ele>37.868</ele>
        <time>2021-09-01T14:55:43Z</time>
      </trkpt>
      <trkpt lat="39.421092" lon="3.070073">
        <ele>37.838</ele>
        <time>2021-09-01T14:55:44Z</time>
      </trkpt>
      <trkpt lat="39.421104" lon="3.069992">
        <ele>37.777</ele>
        <time>2021-09-01T14:55:45Z</time>
      </trkpt>
      <trkpt lat="39.421117" lon="3.069911">
        <ele>37.761</ele>
        <time>2021-09-01T14:55:46Z</time>
      </trkpt>
      <trkpt lat="39.421130" lon="3.069830">
        <ele>37.827</ele>
        <time>2021-09-01T14:55:47Z</time>
      </trkpt>
      <trkpt lat="39.421142" lon="3.069750">
        <ele>37.808</ele>
        <time>2021-09-01T14:55:48Z</time>
      </trkpt>
      <trkpt lat="39.421156" lon="3.069671">
        <ele>37.815</ele>
        <time>2021-09-01T14:55:49Z</time>
      </trkpt>
      <trkpt lat="39.421164" lon="3.069592">
        <ele>37.759</ele>
        <time>2021-09-01T14:55:50Z</time>
      </trkpt>
      <trkpt lat="39.421176" lon="3.069513">
        <ele>37.744</ele>
        <time>2021-09-01T14:55:51Z</time>
      </trkpt>
      <trkpt lat="39.421188" lon="3.069434">
        <ele>37.528</ele>
        <time>2021-09-01T14:55:52Z</time>
      </trkpt>
      <trkpt lat="39.421204" lon="3.069354">
        <ele>37.517</ele>
        <time>2021-09-01T14:55:53Z</time>
      </trkpt>
      <trkpt lat="39.421220" lon="3.069271">
        <ele>37.352</ele>
        <time>2021-09-01T14:55:54Z</time>
      </trkpt>
      <trkpt lat="39.421236" lon="3.069187">
        <ele>37.299</ele>
        <time>2021-09-01T14:55:55Z</time>
      </trkpt>
      <trkpt lat="39.421252" lon="3.069106">
        <ele>37.259</ele>
        <time>2021-09-01T14:55:56Z</time>
      </trkpt>
      <trkpt lat="39.421274" lon="3.069021">
        <ele>37.148</ele>
        <time>2021-09-01T14:55:57Z</time>
      </trkpt>
      <trkpt lat="39.421293" lon="3.068939">
        <ele>37.061</ele>
        <time>2021-09-01T14:55:58Z</time>
      </trkpt>
      <trkpt lat="39.421317" lon="3.068854">
        <ele>37.017</ele>
        <time>2021-09-01T14:55:59Z</time>
      </trkpt>
      <trkpt lat="39.421339" lon="3.068765">
        <ele>36.908</ele>
        <time>2021-09-01T14:56:00Z</time>
      </trkpt>
      <trkpt lat="39.421360" lon="3.068681">
        <ele>36.992</ele>
        <time>2021-09-01T14:56:01Z</time>
      </trkpt>
      <trkpt lat="39.421384" lon="3.068595">
        <ele>36.936</ele>
        <time>2021-09-01T14:56:02Z</time>
      </trkpt>
      <trkpt lat="39.421406" lon="3.068508">
        <ele>36.911</ele>
        <time>2021-09-01T14:56:03Z</time>
      </trkpt>
      <trkpt lat="39.421422" lon="3.068420">
        <ele>36.915</ele>
        <time>2021-09-01T14:56:04Z</time>
      </trkpt>
      <trkpt lat="39.421445" lon="3.068329">
        <ele>36.924</ele>
        <time>2021-09-01T14:56:05Z</time>
      </trkpt>
      <trkpt lat="39.421467" lon="3.068242">
        <ele>36.939</ele>
        <time>2021-09-01T14:56:06Z</time>
      </trkpt>
      <trkpt lat="39.421488" lon="3.068154">
        <ele>36.986</ele>
        <time>2021-09-01T14:56:07Z</time>
      </trkpt>
      <trkpt lat="39.421509" lon="3.068064">
        <ele>36.836</ele>
        <time>2021-09-01T14:56:08Z</time>
      </trkpt>
      <trkpt lat="39.421531" lon="3.067974">
        <ele>36.866</ele>
        <time>2021-09-01T14:56:09Z</time>
      </trkpt>
      <trkpt lat="39.421553" lon="3.067884">
        <ele>36.729</ele>
        <time>2021-09-01T14:56:10Z</time>
      </trkpt>
      <trkpt lat="39.421573" lon="3.067794">
        <ele>36.621</ele>
        <time>2021-09-01T14:56:11Z</time>
      </trkpt>
      <trkpt lat="39.421594" lon="3.067707">
        <ele>36.508</ele>
        <time>2021-09-01T14:56:12Z</time>
      </trkpt>
      <trkpt lat="39.421614" lon="3.067618">
        <ele>36.454</ele>
        <time>2021-09-01T14:56:13Z</time>
      </trkpt>
      <trkpt lat="39.421634" lon="3.067528">
        <ele>36.468</ele>
        <time>2021-09-01T14:56:14Z</time>
      </trkpt>
      <trkpt lat="39.421656" lon="3.067441">
        <ele>36.443</ele>
        <time>2021-09-01T14:56:15Z</time>
      </trkpt>
      <trkpt lat="39.421682" lon="3.067351">
        <ele>36.447</ele>
        <time>2021-09-01T14:56:16Z</time>
      </trkpt>
      <trkpt lat="39.421708" lon="3.067262">
        <ele>36.486</ele>
        <time>2021-09-01T14:56:17Z</time>
      </trkpt>
      <trkpt lat="39.421730" lon="3.067174">
        <ele>36.561</ele>
        <time>2021-09-01T14:56:18Z</time>
      </trkpt>
      <trkpt lat="39.421755" lon="3.067085">
        <ele>36.518</ele>
        <time>2021-09-01T14:56:19Z</time>
      </trkpt>
      <trkpt lat="39.421786" lon="3.067000">
        <ele>36.438</ele>
        <time>2021-09-01T14:56:20Z</time>
      </trkpt>
      <trkpt lat="39.421810" lon="3.066911">
        <ele>36.381</ele>
        <time>2021-09-01T14:56:21Z</time>
      </trkpt>
      <trkpt lat="39.421833" lon="3.066818">
        <ele>36.261</ele>
        <time>2021-09-01T14:56:22Z</time>
      </trkpt>
      <trkpt lat="39.421859" lon="3.066729">
        <ele>36.117</ele>
        <time>2021-09-01T14:56:23Z</time>
      </trkpt>
      <trkpt lat="39.421884" lon="3.066647">
        <ele>36.008</ele>
        <time>2021-09-01T14:56:24Z</time>
      </trkpt>
      <trkpt lat="39.421910" lon="3.066562">
        <ele>35.966</ele>
        <time>2021-09-01T14:56:25Z</time>
      </trkpt>
      <trkpt lat="39.421937" lon="3.066479">
        <ele>35.830</ele>
        <time>2021-09-01T14:56:26Z</time>
      </trkpt>
      <trkpt lat="39.421974" lon="3.066394">
        <ele>35.775</ele>
        <time>2021-09-01T14:56:27Z</time>
      </trkpt>
      <trkpt lat="39.422007" lon="3.066309">
        <ele>35.779</ele>
        <time>2021-09-01T14:56:28Z</time>
      </trkpt>
      <trkpt lat="39.422041" lon="3.066219">
        <ele>35.658</ele>
        <time>2021-09-01T14:56:29Z</time>
      </trkpt>
      <trkpt lat="39.422075" lon="3.066134">
        <ele>35.693</ele>
        <time>2021-09-01T14:56:30Z</time>
      </trkpt>
      <trkpt lat="39.422109" lon="3.066047">
        <ele>35.680</ele>
        <time>2021-09-01T14:56:31Z</time>
      </trkpt>
      <trkpt lat="39.422140" lon="3.065959">
        <ele>35.770</ele>
        <time>2021-09-01T14:56:32Z</time>
      </trkpt>
      <trkpt lat="39.422166" lon="3.065870">
        <ele>35.735</ele>
        <time>2021-09-01T14:56:33Z</time>
      </trkpt>
      <trkpt lat="39.422198" lon="3.065786">
        <ele>35.786</ele>
        <time>2021-09-01T14:56:34Z</time>
      </trkpt>
      <trkpt lat="39.422230" lon="3.065700">
        <ele>35.614</ele>
        <time>2021-09-01T14:56:35Z</time>
      </trkpt>
      <trkpt lat="39.422260" lon="3.065615">
        <ele>35.608</ele>
        <time>2021-09-01T14:56:36Z</time>
      </trkpt>
      <trkpt lat="39.422292" lon="3.065527">
        <ele>35.591</ele>
        <time>2021-09-01T14:56:37Z</time>
      </trkpt>
      <trkpt lat="39.422326" lon="3.065442">
        <ele>35.535</ele>
        <time>2021-09-01T14:56:38Z</time>
      </trkpt>
      <trkpt lat="39.422359" lon="3.065355">
        <ele>35.540</ele>
        <time>2021-09-01T14:56:39Z</time>
      </trkpt>
      <trkpt lat="39.422386" lon="3.065268">
        <ele>35.494</ele>
        <time>2021-09-01T14:56:40Z</time>
      </trkpt>
      <trkpt lat="39.422415" lon="3.065178">
        <ele>35.493</ele>
        <time>2021-09-01T14:56:41Z</time>
      </trkpt>
      <trkpt lat="39.422445" lon="3.065093">
        <ele>35.548</ele>
        <time>2021-09-01T14:56:42Z</time>
      </trkpt>
      <trkpt lat="39.422476" lon="3.065011">
        <ele>35.535</ele>
        <time>2021-09-01T14:56:43Z</time>
      </trkpt>
      <trkpt lat="39.422499" lon="3.064923">
        <ele>35.435</ele>
        <time>2021-09-01T14:56:44Z</time>
      </trkpt>
      <trkpt lat="39.422523" lon="3.064838">
        <ele>35.456</ele>
        <time>2021-09-01T14:56:45Z</time>
      </trkpt>
      <trkpt lat="39.422545" lon="3.064752">
        <ele>35.459</ele>
        <time>2021-09-01T14:56:46Z</time>
      </trkpt>
      <trkpt lat="39.422572" lon="3.064666">
        <ele>35.314</ele>
        <time>2021-09-01T14:56:47Z</time>
      </trkpt>
      <trkpt lat="39.422593" lon="3.064576">
        <ele>35.208</ele>
        <time>2021-09-01T14:56:48Z</time>
      </trkpt>
      <trkpt lat="39.422621" lon="3.064489">
        <ele>35.253</ele>
        <time>2021-09-01T14:56:49Z</time>
      </trkpt>
      <trkpt lat="39.422644" lon="3.064404">
        <ele>35.157</ele>
        <time>2021-09-01T14:56:50Z</time>
      </trkpt>
      <trkpt lat="39.422663" lon="3.064319">
        <ele>35.192</ele>
        <time>2021-09-01T14:56:51Z</time>
      </trkpt>
      <trkpt lat="39.422682" lon="3.064232">
        <ele>35.016</ele>
        <time>2021-09-01T14:56:52Z</time>
      </trkpt>
      <trkpt lat="39.422701" lon="3.064143">
        <ele>35.025</ele>
        <time>2021-09-01T14:56:53Z</time>
      </trkpt>
      <trkpt lat="39.422719" lon="3.064056">
        <ele>35.060</ele>
        <time>2021-09-01T14:56:54Z</time>
      </trkpt>
      <trkpt lat="39.422739" lon="3.063967">
        <ele>34.977</ele>
        <time>2021-09-01T14:56:55Z</time>
      </trkpt>
      <trkpt lat="39.422762" lon="3.063880">
        <ele>34.917</ele>
        <time>2021-09-01T14:56:56Z</time>
      </trkpt>
      <trkpt lat="39.422782" lon="3.063795">
        <ele>34.912</ele>
        <time>2021-09-01T14:56:57Z</time>
      </trkpt>
      <trkpt lat="39.422800" lon="3.063706">
        <ele>34.832</ele>
        <time>2021-09-01T14:56:58Z</time>
      </trkpt>
      <trkpt lat="39.422815" lon="3.063619">
        <ele>34.805</ele>
        <time>2021-09-01T14:56:59Z</time>
      </trkpt>
      <trkpt lat="39.422837" lon="3.063533">
        <ele>34.708</ele>
        <time>2021-09-01T14:57:00Z</time>
      </trkpt>
      <trkpt lat="39.422859" lon="3.063443">
        <ele>34.789</ele>
        <time>2021-09-01T14:57:01Z</time>
      </trkpt>
      <trkpt lat="39.422881" lon="3.063359">
        <ele>34.693</ele>
        <time>2021-09-01T14:57:02Z</time>
      </trkpt>
      <trkpt lat="39.422903" lon="3.063268">
        <ele>34.618</ele>
        <time>2021-09-01T14:57:03Z</time>
      </trkpt>
      <trkpt lat="39.422928" lon="3.063182">
        <ele>34.632</ele>
        <time>2021-09-01T14:57:04Z</time>
      </trkpt>
      <trkpt lat="39.422947" lon="3.063092">
        <ele>34.711</ele>
        <time>2021-09-01T14:57:05Z</time>
      </trkpt>
      <trkpt lat="39.422967" lon="3.063001">
        <ele>34.826</ele>
        <time>2021-09-01T14:57:06Z</time>
      </trkpt>
      <trkpt lat="39.422983" lon="3.062909">
        <ele>34.993</ele>
        <time>2021-09-01T14:57:07Z</time>
      </trkpt>
      <trkpt lat="39.423002" lon="3.062824">
        <ele>35.083</ele>
        <time>2021-09-01T14:57:08Z</time>
      </trkpt>
      <trkpt lat="39.423024" lon="3.062731">
        <ele>35.162</ele>
        <time>2021-09-01T14:57:09Z</time>
      </trkpt>
      <trkpt lat="39.423043" lon="3.062644">
        <ele>35.183</ele>
        <time>2021-09-01T14:57:10Z</time>
      </trkpt>
      <trkpt lat="39.423061" lon="3.062557">
        <ele>35.011</ele>
        <time>2021-09-01T14:57:11Z</time>
      </trkpt>
      <trkpt lat="39.423082" lon="3.062471">
        <ele>35.008</ele>
        <time>2021-09-01T14:57:12Z</time>
      </trkpt>
      <trkpt lat="39.423100" lon="3.062381">
        <ele>34.964</ele>
        <time>2021-09-01T14:57:13Z</time>
      </trkpt>
      <trkpt lat="39.423119" lon="3.062294">
        <ele>34.838</ele>
        <time>2021-09-01T14:57:14Z</time>
      </trkpt>
      <trkpt lat="39.423136" lon="3.062206">
        <ele>34.633</ele>
        <time>2021-09-01T14:57:15Z</time>
      </trkpt>
      <trkpt lat="39.423153" lon="3.062121">
        <ele>34.567</ele>
        <time>2021-09-01T14:57:16Z</time>
      </trkpt>
      <trkpt lat="39.423172" lon="3.062034">
        <ele>34.556</ele>
        <time>2021-09-01T14:57:17Z</time>
      </trkpt>
      <trkpt lat="39.423191" lon="3.061946">
        <ele>34.471</ele>
        <time>2021-09-01T14:57:18Z</time>
      </trkpt>
      <trkpt lat="39.423215" lon="3.061865">
        <ele>34.398</ele>
        <time>2021-09-01T14:57:19Z</time>
      </trkpt>
      <trkpt lat="39.423240" lon="3.061782">
        <ele>34.368</ele>
        <time>2021-09-01T14:57:20Z</time>
      </trkpt>
      <trkpt lat="39.423265" lon="3.061704">
        <ele>34.382</ele>
        <time>2021-09-01T14:57:21Z</time>
      </trkpt>
      <trkpt lat="39.423290" lon="3.061620">
        <ele>34.443</ele>
        <time>2021-09-01T14:57:22Z</time>
      </trkpt>
      <trkpt lat="39.423314" lon="3.061539">
        <ele>34.417</ele>
        <time>2021-09-01T14:57:23Z</time>
      </trkpt>
      <trkpt lat="39.423339" lon="3.061466">
        <ele>34.408</ele>
        <time>2021-09-01T14:57:24Z</time>
      </trkpt>
      <trkpt lat="39.423361" lon="3.061386">
        <ele>34.546</ele>
        <time>2021-09-01T14:57:25Z</time>
      </trkpt>
      <trkpt lat="39.423384" lon="3.061304">
        <ele>34.510</ele>
        <time>2021-09-01T14:57:26Z</time>
      </trkpt>
      <trkpt lat="39.423407" lon="3.061223">
        <ele>34.495</ele>
        <time>2021-09-01T14:57:27Z</time>
      </trkpt>
      <trkpt lat="39.423428" lon="3.061142">
        <ele>34.369</ele>
        <time>2021-09-01T14:57:28Z</time>
      </trkpt>
      <trkpt lat="39.423449" lon="3.061065">
        <ele>34.288</ele>
        <time>2021-09-01T14:57:29Z</time>
      </trkpt>
      <trkpt lat="39.423471" lon="3.060988">
        <ele>34.123</ele>
        <time>2021-09-01T14:57:30Z</time>
      </trkpt>
      <trkpt lat="39.423492" lon="3.060913">
        <ele>34.040</ele>
        <time>2021-09-01T14:57:31Z</time>
      </trkpt>
      <trkpt lat="39.423511" lon="3.060836">
        <ele>34.050</ele>
        <time>2021-09-01T14:57:32Z</time>
      </trkpt>
      <trkpt lat="39.423528" lon="3.060762">
        <ele>34.065</ele>
        <time>2021-09-01T14:57:33Z</time>
      </trkpt>
      <trkpt lat="39.423553" lon="3.060679">
        <ele>34.068</ele>
        <time>2021-09-01T14:57:34Z</time>
      </trkpt>
      <trkpt lat="39.423578" lon="3.060607">
        <ele>34.114</ele>
        <time>2021-09-01T14:57:35Z</time>
      </trkpt>
      <trkpt lat="39.423604" lon="3.060537">
        <ele>34.108</ele>
        <time>2021-09-01T14:57:36Z</time>
      </trkpt>
      <trkpt lat="39.423637" lon="3.060462">
        <ele>34.244</ele>
        <time>2021-09-01T14:57:37Z</time>
      </trkpt>
      <trkpt lat="39.423664" lon="3.060381">
        <ele>34.398</ele>
        <time>2021-09-01T14:57:38Z</time>
      </trkpt>
      <trkpt lat="39.423687" lon="3.060298">
        <ele>34.383</ele>
        <time>2021-09-01T14:57:39Z</time>
      </trkpt>
      <trkpt lat="39.423717" lon="3.060215">
        <ele>34.297</ele>
        <time>2021-09-01T14:57:40Z</time>
      </trkpt>
      <trkpt lat="39.423749" lon="3.060134">
        <ele>34.276</ele>
        <time>2021-09-01T14:57:41Z</time>
      </trkpt>
      <trkpt lat="39.423778" lon="3.060053">
        <ele>34.241</ele>
        <time>2021-09-01T14:57:42Z</time>
      </trkpt>
      <trkpt lat="39.423807" lon="3.059972">
        <ele>34.188</ele>
        <time>2021-09-01T14:57:43Z</time>
      </trkpt>
      <trkpt lat="39.423836" lon="3.059901">
        <ele>34.158</ele>
        <time>2021-09-01T14:57:44Z</time>
      </trkpt>
      <trkpt lat="39.423875" lon="3.059822">
        <ele>34.112</ele>
        <time>2021-09-01T14:57:45Z</time>
      </trkpt>
      <trkpt lat="39.423918" lon="3.059745">
        <ele>34.032</ele>
        <time>2021-09-01T14:57:46Z</time>
      </trkpt>
      <trkpt lat="39.423957" lon="3.059673">
        <ele>34.005</ele>
        <time>2021-09-01T14:57:47Z</time>
      </trkpt>
      <trkpt lat="39.423995" lon="3.059598">
        <ele>34.108</ele>
        <time>2021-09-01T14:57:48Z</time>
      </trkpt>
      <trkpt lat="39.424031" lon="3.059525">
        <ele>34.179</ele>
        <time>2021-09-01T14:57:49Z</time>
      </trkpt>
      <trkpt lat="39.424070" lon="3.059454">
        <ele>34.163</ele>
        <time>2021-09-01T14:57:50Z</time>
      </trkpt>
      <trkpt lat="39.424104" lon="3.059388">
        <ele>34.068</ele>
        <time>2021-09-01T14:57:51Z</time>
      </trkpt>
      <trkpt lat="39.424143" lon="3.059316">
        <ele>33.912</ele>
        <time>2021-09-01T14:57:52Z</time>
      </trkpt>
      <trkpt lat="39.424181" lon="3.059247">
        <ele>33.761</ele>
        <time>2021-09-01T14:57:53Z</time>
      </trkpt>
      <trkpt lat="39.424218" lon="3.059175">
        <ele>33.686</ele>
        <time>2021-09-01T14:57:54Z</time>
      </trkpt>
      <trkpt lat="39.424260" lon="3.059103">
        <ele>33.563</ele>
        <time>2021-09-01T14:57:55Z</time>
      </trkpt>
      <trkpt lat="39.424295" lon="3.059032">
        <ele>33.543</ele>
        <time>2021-09-01T14:57:56Z</time>
      </trkpt>
      <trkpt lat="39.424334" lon="3.058964">
        <ele>33.471</ele>
        <time>2021-09-01T14:57:57Z</time>
      </trkpt>
      <trkpt lat="39.424370" lon="3.058891">
        <ele>33.441</ele>
        <time>2021-09-01T14:57:58Z</time>
      </trkpt>
      <trkpt lat="39.424408" lon="3.058821">
        <ele>33.415</ele>
        <time>2021-09-01T14:57:59Z</time>
      </trkpt>
      <trkpt lat="39.424443" lon="3.058745">
        <ele>33.508</ele>
        <time>2021-09-01T14:58:00Z</time>
      </trkpt>
      <trkpt lat="39.424478" lon="3.058669">
        <ele>33.555</ele>
        <time>2021-09-01T14:58:01Z</time>
      </trkpt>
      <trkpt lat="39.424513" lon="3.058592">
        <ele>33.669</ele>
        <time>2021-09-01T14:58:02Z</time>
      </trkpt>
      <trkpt lat="39.424550" lon="3.058524">
        <ele>33.634</ele>
        <time>2021-09-01T14:58:03Z</time>
      </trkpt>
      <trkpt lat="39.424586" lon="3.058453">
        <ele>33.718</ele>
        <time>2021-09-01T14:58:04Z</time>
      </trkpt>
      <trkpt lat="39.424619" lon="3.058378">
        <ele>33.787</ele>
        <time>2021-09-01T14:58:05Z</time>
      </trkpt>
      <trkpt lat="39.424655" lon="3.058304">
        <ele>33.792</ele>
        <time>2021-09-01T14:58:06Z</time>
      </trkpt>
      <trkpt lat="39.424689" lon="3.058230">
        <ele>33.749</ele>
        <time>2021-09-01T14:58:07Z</time>
      </trkpt>
      <trkpt lat="39.424724" lon="3.058158">
        <ele>33.789</ele>
        <time>2021-09-01T14:58:08Z</time>
      </trkpt>
      <trkpt lat="39.424763" lon="3.058087">
        <ele>33.663</ele>
        <time>2021-09-01T14:58:09Z</time>
      </trkpt>
      <trkpt lat="39.424796" lon="3.058014">
        <ele>33.644</ele>
        <time>2021-09-01T14:58:10Z</time>
      </trkpt>
      <trkpt lat="39.424829" lon="3.057940">
        <ele>33.518</ele>
        <time>2021-09-01T14:58:11Z</time>
      </trkpt>
      <trkpt lat="39.424865" lon="3.057865">
        <ele>33.508</ele>
        <time>2021-09-01T14:58:12Z</time>
      </trkpt>
      <trkpt lat="39.424901" lon="3.057793">
        <ele>33.524</ele>
        <time>2021-09-01T14:58:13Z</time>
      </trkpt>
      <trkpt lat="39.424937" lon="3.057720">
        <ele>33.588</ele>
        <time>2021-09-01T14:58:14Z</time>
      </trkpt>
      <trkpt lat="39.424975" lon="3.057650">
        <ele>33.513</ele>
        <time>2021-09-01T14:58:15Z</time>
      </trkpt>
      <trkpt lat="39.425016" lon="3.057580">
        <ele>33.787</ele>
        <time>2021-09-01T14:58:16Z</time>
      </trkpt>
      <trkpt lat="39.425054" lon="3.057510">
        <ele>33.726</ele>
        <time>2021-09-01T14:58:17Z</time>
      </trkpt>
      <trkpt lat="39.425093" lon="3.057439">
        <ele>33.791</ele>
        <time>2021-09-01T14:58:18Z</time>
      </trkpt>
      <trkpt lat="39.425134" lon="3.057370">
        <ele>33.648</ele>
        <time>2021-09-01T14:58:19Z</time>
      </trkpt>
      <trkpt lat="39.425175" lon="3.057299">
        <ele>33.568</ele>
        <time>2021-09-01T14:58:20Z</time>
      </trkpt>
      <trkpt lat="39.425215" lon="3.057230">
        <ele>33.322</ele>
        <time>2021-09-01T14:58:21Z</time>
      </trkpt>
      <trkpt lat="39.425256" lon="3.057160">
        <ele>33.362</ele>
        <time>2021-09-01T14:58:22Z</time>
      </trkpt>
      <trkpt lat="39.425295" lon="3.057089">
        <ele>33.308</ele>
        <time>2021-09-01T14:58:23Z</time>
      </trkpt>
      <trkpt lat="39.425335" lon="3.057020">
        <ele>33.408</ele>
        <time>2021-09-01T14:58:24Z</time>
      </trkpt>
      <trkpt lat="39.425380" lon="3.056953">
        <ele>33.410</ele>
        <time>2021-09-01T14:58:25Z</time>
      </trkpt>
      <trkpt lat="39.425424" lon="3.056886">
        <ele>33.474</ele>
        <time>2021-09-01T14:58:26Z</time>
      </trkpt>
      <trkpt lat="39.425464" lon="3.056818">
        <ele>33.549</ele>
        <time>2021-09-01T14:58:27Z</time>
      </trkpt>
      <trkpt lat="39.425502" lon="3.056750">
        <ele>33.513</ele>
        <time>2021-09-01T14:58:28Z</time>
      </trkpt>
      <trkpt lat="39.425541" lon="3.056680">
        <ele>33.562</ele>
        <time>2021-09-01T14:58:29Z</time>
      </trkpt>
      <trkpt lat="39.425579" lon="3.056612">
        <ele>33.517</ele>
        <time>2021-09-01T14:58:30Z</time>
      </trkpt>
      <trkpt lat="39.425618" lon="3.056549">
        <ele>33.514</ele>
        <time>2021-09-01T14:58:31Z</time>
      </trkpt>
      <trkpt lat="39.425663" lon="3.056480">
        <ele>33.594</ele>
        <time>2021-09-01T14:58:32Z</time>
      </trkpt>
      <trkpt lat="39.425704" lon="3.056415">
        <ele>33.674</ele>
        <time>2021-09-01T14:58:33Z</time>
      </trkpt>
      <trkpt lat="39.425748" lon="3.056351">
        <ele>33.656</ele>
        <time>2021-09-01T14:58:34Z</time>
      </trkpt>
      <trkpt lat="39.425790" lon="3.056283">
        <ele>33.621</ele>
        <time>2021-09-01T14:58:35Z</time>
      </trkpt>
      <trkpt lat="39.425834" lon="3.056215">
        <ele>33.508</ele>
        <time>2021-09-01T14:58:36Z</time>
      </trkpt>
      <trkpt lat="39.425876" lon="3.056149">
        <ele>33.485</ele>
        <time>2021-09-01T14:58:37Z</time>
      </trkpt>
      <trkpt lat="39.425920" lon="3.056084">
        <ele>33.349</ele>
        <time>2021-09-01T14:58:38Z</time>
      </trkpt>
      <trkpt lat="39.425962" lon="3.056018">
        <ele>33.234</ele>
        <time>2021-09-01T14:58:39Z</time>
      </trkpt>
      <trkpt lat="39.426004" lon="3.055952">
        <ele>33.128</ele>
        <time>2021-09-01T14:58:40Z</time>
      </trkpt>
      <trkpt lat="39.426045" lon="3.055886">
        <ele>33.177</ele>
        <time>2021-09-01T14:58:41Z</time>
      </trkpt>
      <trkpt lat="39.426087" lon="3.055816">
        <ele>33.112</ele>
        <time>2021-09-01T14:58:42Z</time>
      </trkpt>
      <trkpt lat="39.426123" lon="3.055754">
        <ele>33.129</ele>
        <time>2021-09-01T14:58:43Z</time>
      </trkpt>
      <trkpt lat="39.426166" lon="3.055684">
        <ele>33.199</ele>
        <time>2021-09-01T14:58:44Z</time>
      </trkpt>
      <trkpt lat="39.426209" lon="3.055616">
        <ele>33.171</ele>
        <time>2021-09-01T14:58:45Z</time>
      </trkpt>
      <trkpt lat="39.426249" lon="3.055550">
        <ele>33.141</ele>
        <time>2021-09-01T14:58:46Z</time>
      </trkpt>
      <trkpt lat="39.426291" lon="3.055483">
        <ele>33.115</ele>
        <time>2021-09-01T14:58:47Z</time>
      </trkpt>
      <trkpt lat="39.426335" lon="3.055415">
        <ele>33.108</ele>
        <time>2021-09-01T14:58:48Z</time>
      </trkpt>
      <trkpt lat="39.426384" lon="3.055352">
        <ele>33.165</ele>
        <time>2021-09-01T14:58:49Z</time>
      </trkpt>
      <trkpt lat="39.426430" lon="3.055287">
        <ele>33.199</ele>
        <time>2021-09-01T14:58:50Z</time>
      </trkpt>
      <trkpt lat="39.426471" lon="3.055213">
        <ele>33.294</ele>
        <time>2021-09-01T14:58:51Z</time>
      </trkpt>
      <trkpt lat="39.426515" lon="3.055145">
        <ele>33.238</ele>
        <time>2021-09-01T14:58:52Z</time>
      </trkpt>
      <trkpt lat="39.426559" lon="3.055076">
        <ele>33.267</ele>
        <time>2021-09-01T14:58:53Z</time>
      </trkpt>
      <trkpt lat="39.426602" lon="3.055007">
        <ele>33.342</ele>
        <time>2021-09-01T14:58:54Z</time>
      </trkpt>
      <trkpt lat="39.426649" lon="3.054940">
        <ele>33.379</ele>
        <time>2021-09-01T14:58:55Z</time>
      </trkpt>
      <trkpt lat="39.426691" lon="3.054873">
        <ele>33.479</ele>
        <time>2021-09-01T14:58:56Z</time>
      </trkpt>
      <trkpt lat="39.426738" lon="3.054803">
        <ele>33.551</ele>
        <time>2021-09-01T14:58:57Z</time>
      </trkpt>
      <trkpt lat="39.426780" lon="3.054737">
        <ele>33.601</ele>
        <time>2021-09-01T14:58:58Z</time>
      </trkpt>
      <trkpt lat="39.426822" lon="3.054667">
        <ele>33.611</ele>
        <time>2021-09-01T14:58:59Z</time>
      </trkpt>
      <trkpt lat="39.426863" lon="3.054593">
        <ele>33.608</ele>
        <time>2021-09-01T14:59:00Z</time>
      </trkpt>
      <trkpt lat="39.426904" lon="3.054518">
        <ele>33.523</ele>
        <time>2021-09-01T14:59:01Z</time>
      </trkpt>
      <trkpt lat="39.426950" lon="3.054454">
        <ele>33.487</ele>
        <time>2021-09-01T14:59:02Z</time>
      </trkpt>
      <trkpt lat="39.426992" lon="3.054383">
        <ele>33.332</ele>
        <time>2021-09-01T14:59:03Z</time>
      </trkpt>
      <trkpt lat="39.427035" lon="3.054320">
        <ele>33.366</ele>
        <time>2021-09-01T14:59:04Z</time>
      </trkpt>
      <trkpt lat="39.427078" lon="3.054247">
        <ele>33.285</ele>
        <time>2021-09-01T14:59:05Z</time>
      </trkpt>
      <trkpt lat="39.427120" lon="3.054179">
        <ele>33.210</ele>
        <time>2021-09-01T14:59:06Z</time>
      </trkpt>
      <trkpt lat="39.427162" lon="3.054111">
        <ele>33.377</ele>
        <time>2021-09-01T14:59:07Z</time>
      </trkpt>
      <trkpt lat="39.427204" lon="3.054044">
        <ele>33.347</ele>
        <time>2021-09-01T14:59:08Z</time>
      </trkpt>
      <trkpt lat="39.427247" lon="3.053978">
        <ele>33.381</ele>
        <time>2021-09-01T14:59:09Z</time>
      </trkpt>
      <trkpt lat="39.427287" lon="3.053907">
        <ele>33.361</ele>
        <time>2021-09-01T14:59:10Z</time>
      </trkpt>
      <trkpt lat="39.427331" lon="3.053838">
        <ele>33.317</ele>
        <time>2021-09-01T14:59:11Z</time>
      </trkpt>
      <trkpt lat="39.427373" lon="3.053765">
        <ele>33.308</ele>
        <time>2021-09-01T14:59:12Z</time>
      </trkpt>
      <trkpt lat="39.427420" lon="3.053692">
        <ele>33.226</ele>
        <time>2021-09-01T14:59:13Z</time>
      </trkpt>
      <trkpt lat="39.427463" lon="3.053618">
        <ele>33.230</ele>
        <time>2021-09-01T14:59:14Z</time>
      </trkpt>
      <trkpt lat="39.427506" lon="3.053551">
        <ele>33.385</ele>
        <time>2021-09-01T14:59:15Z</time>
      </trkpt>
      <trkpt lat="39.427552" lon="3.053486">
        <ele>33.329</ele>
        <time>2021-09-01T14:59:16Z</time>
      </trkpt>
      <trkpt lat="39.427590" lon="3.053411">
        <ele>33.338</ele>
        <time>2021-09-01T14:59:17Z</time>
      </trkpt>
      <trkpt lat="39.427630" lon="3.053335">
        <ele>33.313</ele>
        <time>2021-09-01T14:59:18Z</time>
      </trkpt>
      <trkpt lat="39.427673" lon="3.053268">
        <ele>33.310</ele>
        <time>2021-09-01T14:59:19Z</time>
      </trkpt>
      <trkpt lat="39.427711" lon="3.053183">
        <ele>33.320</ele>
        <time>2021-09-01T14:59:20Z</time>
      </trkpt>
      <trkpt lat="39.427755" lon="3.053117">
        <ele>33.321</ele>
        <time>2021-09-01T14:59:21Z</time>
      </trkpt>
      <trkpt lat="39.427797" lon="3.053039">
        <ele>33.341</ele>
        <time>2021-09-01T14:59:22Z</time>
      </trkpt>
      <trkpt lat="39.427840" lon="3.052974">
        <ele>33.305</ele>
        <time>2021-09-01T14:59:23Z</time>
      </trkpt>
      <trkpt lat="39.427881" lon="3.052908">
        <ele>33.108</ele>
        <time>2021-09-01T14:59:24Z</time>
      </trkpt>
      <trkpt lat="39.427926" lon="3.052837">
        <ele>33.040</ele>
        <time>2021-09-01T14:59:25Z</time>
      </trkpt>
      <trkpt lat="39.427972" lon="3.052772">
        <ele>32.964</ele>
        <time>2021-09-01T14:59:26Z</time>
      </trkpt>
      <trkpt lat="39.428014" lon="3.052697">
        <ele>32.769</ele>
        <time>2021-09-01T14:59:27Z</time>
      </trkpt>
      <trkpt lat="39.428057" lon="3.052620">
        <ele>32.613</ele>
        <time>2021-09-01T14:59:28Z</time>
      </trkpt>
      <trkpt lat="39.428100" lon="3.052550">
        <ele>32.682</ele>
        <time>2021-09-01T14:59:29Z</time>
      </trkpt>
      <trkpt lat="39.428141" lon="3.052485">
        <ele>32.577</ele>
        <time>2021-09-01T14:59:30Z</time>
      </trkpt>
      <trkpt lat="39.428181" lon="3.052406">
        <ele>32.564</ele>
        <time>2021-09-01T14:59:31Z</time>
      </trkpt>
      <trkpt lat="39.428221" lon="3.052342">
        <ele>32.494</ele>
        <time>2021-09-01T14:59:32Z</time>
      </trkpt>
      <trkpt lat="39.428263" lon="3.052259">
        <ele>32.291</ele>
        <time>2021-09-01T14:59:33Z</time>
      </trkpt>
      <trkpt lat="39.428307" lon="3.052184">
        <ele>32.081</ele>
        <time>2021-09-01T14:59:34Z</time>
      </trkpt>
      <trkpt lat="39.428341" lon="3.052101">
        <ele>31.719</ele>
        <time>2021-09-01T14:59:35Z</time>
      </trkpt>
      <trkpt lat="39.428371" lon="3.052012">
        <ele>31.508</ele>
        <time>2021-09-01T14:59:36Z</time>
      </trkpt>
      <trkpt lat="39.428381" lon="3.051916">
        <ele>31.367</ele>
        <time>2021-09-01T14:59:37Z</time>
      </trkpt>
      <trkpt lat="39.428389" lon="3.051820">
        <ele>31.371</ele>
        <time>2021-09-01T14:59:38Z</time>
      </trkpt>
      <trkpt lat="39.428396" lon="3.051727">
        <ele>31.356</ele>
        <time>2021-09-01T14:59:39Z</time>
      </trkpt>
      <trkpt lat="39.428408" lon="3.051635">
        <ele>31.340</ele>
        <time>2021-09-01T14:59:40Z</time>
      </trkpt>
      <trkpt lat="39.428420" lon="3.051545">
        <ele>31.339</ele>
        <time>2021-09-01T14:59:41Z</time>
      </trkpt>
      <trkpt lat="39.428433" lon="3.051448">
        <ele>31.214</ele>
        <time>2021-09-01T14:59:42Z</time>
      </trkpt>
      <trkpt lat="39.428448" lon="3.051357">
        <ele>31.161</ele>
        <time>2021-09-01T14:59:43Z</time>
      </trkpt>
      <trkpt lat="39.428459" lon="3.051260">
        <ele>31.031</ele>
        <time>2021-09-01T14:59:44Z</time>
      </trkpt>
      <trkpt lat="39.428473" lon="3.051165">
        <ele>30.955</ele>
        <time>2021-09-01T14:59:45Z</time>
      </trkpt>
      <trkpt lat="39.428487" lon="3.051074">
        <ele>30.707</ele>
        <time>2021-09-01T14:59:46Z</time>
      </trkpt>
      <trkpt lat="39.428500" lon="3.050978">
        <ele>30.617</ele>
        <time>2021-09-01T14:59:47Z</time>
      </trkpt>
      <trkpt lat="39.428511" lon="3.050882">
        <ele>30.508</ele>
        <time>2021-09-01T14:59:48Z</time>
      </trkpt>
      <trkpt lat="39.428523" lon="3.050787">
        <ele>30.363</ele>
        <time>2021-09-01T14:59:49Z</time>
      </trkpt>
      <trkpt lat="39.428537" lon="3.050690">
        <ele>30.167</ele>
        <time>2021-09-01T14:59:50Z</time>
      </trkpt>
      <trkpt lat="39.428551" lon="3.050593">
        <ele>29.962</ele>
        <time>2021-09-01T14:59:51Z</time>
      </trkpt>
      <trkpt lat="39.428567" lon="3.050498">
        <ele>29.766</ele>
        <time>2021-09-01T14:59:52Z</time>
      </trkpt>
      <trkpt lat="39.428578" lon="3.050403">
        <ele>29.555</ele>
        <time>2021-09-01T14:59:53Z</time>
      </trkpt>
      <trkpt lat="39.428585" lon="3.050303">
        <ele>29.440</ele>
        <time>2021-09-01T14:59:54Z</time>
      </trkpt>
      <trkpt lat="39.428598" lon="3.050205">
        <ele>29.357</ele>
        <time>2021-09-01T14:59:55Z</time>
      </trkpt>
      <trkpt lat="39.428609" lon="3.050109">
        <ele>29.357</ele>
        <time>2021-09-01T14:59:56Z</time>
      </trkpt>
      <trkpt lat="39.428625" lon="3.050009">
        <ele>29.283</ele>
        <time>2021-09-01T14:59:57Z</time>
      </trkpt>
      <trkpt lat="39.428637" lon="3.049913">
        <ele>29.125</ele>
        <time>2021-09-01T14:59:58Z</time>
      </trkpt>
      <trkpt lat="39.428651" lon="3.049815">
        <ele>29.117</ele>
        <time>2021-09-01T14:59:59Z</time>
      </trkpt>
      <trkpt lat="39.428660" lon="3.049718">
        <ele>29.008</ele>
        <time>2021-09-01T15:00:00Z</time>
      </trkpt>
      <trkpt lat="39.428674" lon="3.049619">
        <ele>28.966</ele>
        <time>2021-09-01T15:00:01Z</time>
      </trkpt>
      <trkpt lat="39.428689" lon="3.049521">
        <ele>28.810</ele>
        <time>2021-09-01T15:00:02Z</time>
      </trkpt>
      <trkpt lat="39.428701" lon="3.049422">
        <ele>28.725</ele>
        <time>2021-09-01T15:00:03Z</time>
      </trkpt>
      <trkpt lat="39.428713" lon="3.049323">
        <ele>28.789</ele>
        <time>2021-09-01T15:00:04Z</time>
      </trkpt>
      <trkpt lat="39.428729" lon="3.049222">
        <ele>28.618</ele>
        <time>2021-09-01T15:00:05Z</time>
      </trkpt>
      <trkpt lat="39.428743" lon="3.049123">
        <ele>28.563</ele>
        <time>2021-09-01T15:00:06Z</time>
      </trkpt>
      <trkpt lat="39.428757" lon="3.049020">
        <ele>28.470</ele>
        <time>2021-09-01T15:00:07Z</time>
      </trkpt>
      <trkpt lat="39.428773" lon="3.048923">
        <ele>28.470</ele>
        <time>2021-09-01T15:00:08Z</time>
      </trkpt>
      <trkpt lat="39.428788" lon="3.048818">
        <ele>28.451</ele>
        <time>2021-09-01T15:00:09Z</time>
      </trkpt>
      <trkpt lat="39.428802" lon="3.048723">
        <ele>28.301</ele>
        <time>2021-09-01T15:00:10Z</time>
      </trkpt>
      <trkpt lat="39.428814" lon="3.048622">
        <ele>28.211</ele>
        <time>2021-09-01T15:00:11Z</time>
      </trkpt>
      <trkpt lat="39.428827" lon="3.048528">
        <ele>28.108</ele>
        <time>2021-09-01T15:00:12Z</time>
      </trkpt>
      <trkpt lat="39.428839" lon="3.048435">
        <ele>27.913</ele>
        <time>2021-09-01T15:00:13Z</time>
      </trkpt>
      <trkpt lat="39.428853" lon="3.048343">
        <ele>27.937</ele>
        <time>2021-09-01T15:00:14Z</time>
      </trkpt>
      <trkpt lat="39.428866" lon="3.048248">
        <ele>27.742</ele>
        <time>2021-09-01T15:00:15Z</time>
      </trkpt>
      <trkpt lat="39.428878" lon="3.048154">
        <ele>27.796</ele>
        <time>2021-09-01T15:00:16Z</time>
      </trkpt>
      <trkpt lat="39.428892" lon="3.048060">
        <ele>27.735</ele>
        <time>2021-09-01T15:00:17Z</time>
      </trkpt>
      <trkpt lat="39.428903" lon="3.047961">
        <ele>27.740</ele>
        <time>2021-09-01T15:00:18Z</time>
      </trkpt>
      <trkpt lat="39.428916" lon="3.047860">
        <ele>27.757</ele>
        <time>2021-09-01T15:00:19Z</time>
      </trkpt>
      <trkpt lat="39.428928" lon="3.047760">
        <ele>27.727</ele>
        <time>2021-09-01T15:00:20Z</time>
      </trkpt>
      <trkpt lat="39.428939" lon="3.047660">
        <ele>27.741</ele>
        <time>2021-09-01T15:00:21Z</time>
      </trkpt>
      <trkpt lat="39.428951" lon="3.047562">
        <ele>27.781</ele>
        <time>2021-09-01T15:00:22Z</time>
      </trkpt>
      <trkpt lat="39.428964" lon="3.047462">
        <ele>27.709</ele>
        <time>2021-09-01T15:00:23Z</time>
      </trkpt>
      <trkpt lat="39.428978" lon="3.047360">
        <ele>27.708</ele>
        <time>2021-09-01T15:00:24Z</time>
      </trkpt>
      <trkpt lat="39.428991" lon="3.047262">
        <ele>27.782</ele>
        <time>2021-09-01T15:00:25Z</time>
      </trkpt>
      <trkpt lat="39.429005" lon="3.047162">
        <ele>27.626</ele>
        <time>2021-09-01T15:00:26Z</time>
      </trkpt>
      <trkpt lat="39.429020" lon="3.047063">
        <ele>27.671</ele>
        <time>2021-09-01T15:00:27Z</time>
      </trkpt>
      <trkpt lat="39.429034" lon="3.046970">
        <ele>27.495</ele>
        <time>2021-09-01T15:00:28Z</time>
      </trkpt>
      <trkpt lat="39.429042" lon="3.046869">
        <ele>27.374</ele>
        <time>2021-09-01T15:00:29Z</time>
      </trkpt>
      <trkpt lat="39.429055" lon="3.046773">
        <ele>27.219</ele>
        <time>2021-09-01T15:00:30Z</time>
      </trkpt>
      <trkpt lat="39.429068" lon="3.046675">
        <ele>27.146</ele>
        <time>2021-09-01T15:00:31Z</time>
      </trkpt>
      <trkpt lat="39.429079" lon="3.046580">
        <ele>27.096</ele>
        <time>2021-09-01T15:00:32Z</time>
      </trkpt>
      <trkpt lat="39.429092" lon="3.046482">
        <ele>27.084</ele>
        <time>2021-09-01T15:00:33Z</time>
      </trkpt>
      <trkpt lat="39.429102" lon="3.046392">
        <ele>26.907</ele>
        <time>2021-09-01T15:00:34Z</time>
      </trkpt>
      <trkpt lat="39.429112" lon="3.046299">
        <ele>26.817</ele>
        <time>2021-09-01T15:00:35Z</time>
      </trkpt>
      <trkpt lat="39.429124" lon="3.046200">
        <ele>26.708</ele>
        <time>2021-09-01T15:00:36Z</time>
      </trkpt>
      <trkpt lat="39.429134" lon="3.046104">
        <ele>26.696</ele>
        <time>2021-09-01T15:00:37Z</time>
      </trkpt>
      <trkpt lat="39.429146" lon="3.046003">
        <ele>26.680</ele>
        <time>2021-09-01T15:00:38Z</time>
      </trkpt>
      <trkpt lat="39.429159" lon="3.045902">
        <ele>26.635</ele>
        <time>2021-09-01T15:00:39Z</time>
      </trkpt>
      <trkpt lat="39.429175" lon="3.045799">
        <ele>26.639</ele>
        <time>2021-09-01T15:00:40Z</time>
      </trkpt>
      <trkpt lat="39.429185" lon="3.045701">
        <ele>26.658</ele>
        <time>2021-09-01T15:00:41Z</time>
      </trkpt>
      <trkpt lat="39.429197" lon="3.045601">
        <ele>26.613</ele>
        <time>2021-09-01T15:00:42Z</time>
      </trkpt>
      <trkpt lat="39.429206" lon="3.045502">
        <ele>26.550</ele>
        <time>2021-09-01T15:00:43Z</time>
      </trkpt>
      <trkpt lat="39.429216" lon="3.045403">
        <ele>26.360</ele>
        <time>2021-09-01T15:00:44Z</time>
      </trkpt>
      <trkpt lat="39.429226" lon="3.045303">
        <ele>26.295</ele>
        <time>2021-09-01T15:00:45Z</time>
      </trkpt>
      <trkpt lat="39.429239" lon="3.045205">
        <ele>26.149</ele>
        <time>2021-09-01T15:00:46Z</time>
      </trkpt>
      <trkpt lat="39.429251" lon="3.045107">
        <ele>25.923</ele>
        <time>2021-09-01T15:00:47Z</time>
      </trkpt>
      <trkpt lat="39.429261" lon="3.045007">
        <ele>25.808</ele>
        <time>2021-09-01T15:00:48Z</time>
      </trkpt>
      <trkpt lat="39.429273" lon="3.044906">
        <ele>25.617</ele>
        <time>2021-09-01T15:00:49Z</time>
      </trkpt>
      <trkpt lat="39.429285" lon="3.044805">
        <ele>25.511</ele>
        <time>2021-09-01T15:00:50Z</time>
      </trkpt>
      <trkpt lat="39.429298" lon="3.044704">
        <ele>25.536</ele>
        <time>2021-09-01T15:00:51Z</time>
      </trkpt>
      <trkpt lat="39.429311" lon="3.044604">
        <ele>25.510</ele>
        <time>2021-09-01T15:00:52Z</time>
      </trkpt>
      <trkpt lat="39.429324" lon="3.044505">
        <ele>25.519</ele>
        <time>2021-09-01T15:00:53Z</time>
      </trkpt>
      <trkpt lat="39.429336" lon="3.044408">
        <ele>25.524</ele>
        <time>2021-09-01T15:00:54Z</time>
      </trkpt>
      <trkpt lat="39.429354" lon="3.044309">
        <ele>25.511</ele>
        <time>2021-09-01T15:00:55Z</time>
      </trkpt>
      <trkpt lat="39.429380" lon="3.044210">
        <ele>25.581</ele>
        <time>2021-09-01T15:00:56Z</time>
      </trkpt>
      <trkpt lat="39.429425" lon="3.044126">
        <ele>25.598</ele>
        <time>2021-09-01T15:00:57Z</time>
      </trkpt>
      <trkpt lat="39.429476" lon="3.044052">
        <ele>25.415</ele>
        <time>2021-09-01T15:00:58Z</time>
      </trkpt>
      <trkpt lat="39.429528" lon="3.043974">
        <ele>25.426</ele>
        <time>2021-09-01T15:00:59Z</time>
      </trkpt>
      <trkpt lat="39.429578" lon="3.043896">
        <ele>25.308</ele>
        <time>2021-09-01T15:01:00Z</time>
      </trkpt>
      <trkpt lat="39.429628" lon="3.043820">
        <ele>25.227</ele>
        <time>2021-09-01T15:01:01Z</time>
      </trkpt>
      <trkpt lat="39.429675" lon="3.043740">
        <ele>25.181</ele>
        <time>2021-09-01T15:01:02Z</time>
      </trkpt>
      <trkpt lat="39.429716" lon="3.043657">
        <ele>25.076</ele>
        <time>2021-09-01T15:01:03Z</time>
      </trkpt>
      <trkpt lat="39.429744" lon="3.043568">
        <ele>24.920</ele>
        <time>2021-09-01T15:01:04Z</time>
      </trkpt>
      <trkpt lat="39.429764" lon="3.043470">
        <ele>24.899</ele>
        <time>2021-09-01T15:01:05Z</time>
      </trkpt>
      <trkpt lat="39.429773" lon="3.043374">
        <ele>24.744</ele>
        <time>2021-09-01T15:01:06Z</time>
      </trkpt>
      <trkpt lat="39.429780" lon="3.043272">
        <ele>24.641</ele>
        <time>2021-09-01T15:01:07Z</time>
      </trkpt>
      <trkpt lat="39.429781" lon="3.043175">
        <ele>24.561</ele>
        <time>2021-09-01T15:01:08Z</time>
      </trkpt>
      <trkpt lat="39.429779" lon="3.043079">
        <ele>24.489</ele>
        <time>2021-09-01T15:01:09Z</time>
      </trkpt>
      <trkpt lat="39.429778" lon="3.042982">
        <ele>24.406</ele>
        <time>2021-09-01T15:01:10Z</time>
      </trkpt>
      <trkpt lat="39.429774" lon="3.042883">
        <ele>24.426</ele>
        <time>2021-09-01T15:01:11Z</time>
      </trkpt>
      <trkpt lat="39.429768" lon="3.042786">
        <ele>24.408</ele>
        <time>2021-09-01T15:01:12Z</time>
      </trkpt>
      <trkpt lat="39.429759" lon="3.042691">
        <ele>24.346</ele>
        <time>2021-09-01T15:01:13Z</time>
      </trkpt>
      <trkpt lat="39.429756" lon="3.042600">
        <ele>24.380</ele>
        <time>2021-09-01T15:01:14Z</time>
      </trkpt>
      <trkpt lat="39.429748" lon="3.042505">
        <ele>24.375</ele>
        <time>2021-09-01T15:01:15Z</time>
      </trkpt>
      <trkpt lat="39.429740" lon="3.042409">
        <ele>24.399</ele>
        <time>2021-09-01T15:01:16Z</time>
      </trkpt>
      <trkpt lat="39.429733" lon="3.042313">
        <ele>24.278</ele>
        <time>2021-09-01T15:01:17Z</time>
      </trkpt>
      <trkpt lat="39.429724" lon="3.042216">
        <ele>24.173</ele>
        <time>2021-09-01T15:01:18Z</time>
      </trkpt>
      <trkpt lat="39.429717" lon="3.042117">
        <ele>24.060</ele>
        <time>2021-09-01T15:01:19Z</time>
      </trkpt>
      <trkpt lat="39.429708" lon="3.042020">
        <ele>23.950</ele>
        <time>2021-09-01T15:01:20Z</time>
      </trkpt>
      <trkpt lat="39.429703" lon="3.041920">
        <ele>23.991</ele>
        <time>2021-09-01T15:01:21Z</time>
      </trkpt>
      <trkpt lat="39.429696" lon="3.041825">
        <ele>23.981</ele>
        <time>2021-09-01T15:01:22Z</time>
      </trkpt>
      <trkpt lat="39.429690" lon="3.041733">
        <ele>23.919</ele>
        <time>2021-09-01T15:01:23Z</time>
      </trkpt>
      <trkpt lat="39.429682" lon="3.041638">
        <ele>23.808</ele>
        <time>2021-09-01T15:01:24Z</time>
      </trkpt>
      <trkpt lat="39.429675" lon="3.041544">
        <ele>23.837</ele>
        <time>2021-09-01T15:01:25Z</time>
      </trkpt>
      <trkpt lat="39.429670" lon="3.041451">
        <ele>23.851</ele>
        <time>2021-09-01T15:01:26Z</time>
      </trkpt>
      <trkpt lat="39.429662" lon="3.041359">
        <ele>23.816</ele>
        <time>2021-09-01T15:01:27Z</time>
      </trkpt>
      <trkpt lat="39.429657" lon="3.041268">
        <ele>23.820</ele>
        <time>2021-09-01T15:01:28Z</time>
      </trkpt>
      <trkpt lat="39.429657" lon="3.041173">
        <ele>23.879</ele>
        <time>2021-09-01T15:01:29Z</time>
      </trkpt>
      <trkpt lat="39.429662" lon="3.041077">
        <ele>23.814</ele>
        <time>2021-09-01T15:01:30Z</time>
      </trkpt>
      <trkpt lat="39.429672" lon="3.040987">
        <ele>23.771</ele>
        <time>2021-09-01T15:01:31Z</time>
      </trkpt>
      <trkpt lat="39.429685" lon="3.040894">
        <ele>23.691</ele>
        <time>2021-09-01T15:01:32Z</time>
      </trkpt>
      <trkpt lat="39.429699" lon="3.040804">
        <ele>23.569</ele>
        <time>2021-09-01T15:01:33Z</time>
      </trkpt>
      <trkpt lat="39.429713" lon="3.040712">
        <ele>23.504</ele>
        <time>2021-09-01T15:01:34Z</time>
      </trkpt>
      <trkpt lat="39.429735" lon="3.040622">
        <ele>23.424</ele>
        <time>2021-09-01T15:01:35Z</time>
      </trkpt>
      <trkpt lat="39.429755" lon="3.040529">
        <ele>23.408</ele>
        <time>2021-09-01T15:01:36Z</time>
      </trkpt>
      <trkpt lat="39.429777" lon="3.040439">
        <ele>23.354</ele>
        <time>2021-09-01T15:01:37Z</time>
      </trkpt>
      <trkpt lat="39.429803" lon="3.040346">
        <ele>23.398</ele>
        <time>2021-09-01T15:01:38Z</time>
      </trkpt>
      <trkpt lat="39.429825" lon="3.040258">
        <ele>23.293</ele>
        <time>2021-09-01T15:01:39Z</time>
      </trkpt>
      <trkpt lat="39.429843" lon="3.040166">
        <ele>23.167</ele>
        <time>2021-09-01T15:01:40Z</time>
      </trkpt>
      <trkpt lat="39.429865" lon="3.040074">
        <ele>23.176</ele>
        <time>2021-09-01T15:01:41Z</time>
      </trkpt>
      <trkpt lat="39.429888" lon="3.039981">
        <ele>23.131</ele>
        <time>2021-09-01T15:01:42Z</time>
      </trkpt>
      <trkpt lat="39.429909" lon="3.039892">
        <ele>23.128</ele>
        <time>2021-09-01T15:01:43Z</time>
      </trkpt>
      <trkpt lat="39.429933" lon="3.039799">
        <ele>23.168</ele>
        <time>2021-09-01T15:01:44Z</time>
      </trkpt>
      <trkpt lat="39.429955" lon="3.039705">
        <ele>23.199</ele>
        <time>2021-09-01T15:01:45Z</time>
      </trkpt>
      <trkpt lat="39.429977" lon="3.039612">
        <ele>23.007</ele>
        <time>2021-09-01T15:01:46Z</time>
      </trkpt>
      <trkpt lat="39.430000" lon="3.039521">
        <ele>22.927</ele>
        <time>2021-09-01T15:01:47Z</time>
      </trkpt>
      <trkpt lat="39.430020" lon="3.039425">
        <ele>22.808</ele>
        <time>2021-09-01T15:01:48Z</time>
      </trkpt>
      <trkpt lat="39.430045" lon="3.039330">
        <ele>22.797</ele>
        <time>2021-09-01T15:01:49Z</time>
      </trkpt>
      <trkpt lat="39.430067" lon="3.039238">
        <ele>22.751</ele>
        <time>2021-09-01T15:01:50Z</time>
      </trkpt>
      <trkpt lat="39.430087" lon="3.039144">
        <ele>22.726</ele>
        <time>2021-09-01T15:01:51Z</time>
      </trkpt>
      <trkpt lat="39.430109" lon="3.039049">
        <ele>22.880</ele>
        <time>2021-09-01T15:01:52Z</time>
      </trkpt>
      <trkpt lat="39.430134" lon="3.038954">
        <ele>22.959</ele>
        <time>2021-09-01T15:01:53Z</time>
      </trkpt>
      <trkpt lat="39.430158" lon="3.038859">
        <ele>23.194</ele>
        <time>2021-09-01T15:01:54Z</time>
      </trkpt>
      <trkpt lat="39.430180" lon="3.038765">
        <ele>23.161</ele>
        <time>2021-09-01T15:01:55Z</time>
      </trkpt>
      <trkpt lat="39.430206" lon="3.038672">
        <ele>23.231</ele>
        <time>2021-09-01T15:01:56Z</time>
      </trkpt>
      <trkpt lat="39.430231" lon="3.038578">
        <ele>23.289</ele>
        <time>2021-09-01T15:01:57Z</time>
      </trkpt>
      <trkpt lat="39.430251" lon="3.038485">
        <ele>23.206</ele>
        <time>2021-09-01T15:01:58Z</time>
      </trkpt>
      <trkpt lat="39.430274" lon="3.038390">
        <ele>23.126</ele>
        <time>2021-09-01T15:01:59Z</time>
      </trkpt>
      <trkpt lat="39.430300" lon="3.038297">
        <ele>23.108</ele>
        <time>2021-09-01T15:02:00Z</time>
      </trkpt>
      <trkpt lat="39.430324" lon="3.038204">
        <ele>23.066</ele>
        <time>2021-09-01T15:02:01Z</time>
      </trkpt>
      <trkpt lat="39.430346" lon="3.038111">
        <ele>22.950</ele>
        <time>2021-09-01T15:02:02Z</time>
      </trkpt>
      <trkpt lat="39.430367" lon="3.038017">
        <ele>22.855</ele>
        <time>2021-09-01T15:02:03Z</time>
      </trkpt>
      <trkpt lat="39.430389" lon="3.037923">
        <ele>22.729</ele>
        <time>2021-09-01T15:02:04Z</time>
      </trkpt>
      <trkpt lat="39.430411" lon="3.037830">
        <ele>22.778</ele>
        <time>2021-09-01T15:02:05Z</time>
      </trkpt>
      <trkpt lat="39.430434" lon="3.037736">
        <ele>22.823</ele>
        <time>2021-09-01T15:02:06Z</time>
      </trkpt>
      <trkpt lat="39.430457" lon="3.037641">
        <ele>22.840</ele>
        <time>2021-09-01T15:02:07Z</time>
      </trkpt>
      <trkpt lat="39.430477" lon="3.037549">
        <ele>22.890</ele>
        <time>2021-09-01T15:02:08Z</time>
      </trkpt>
      <trkpt lat="39.430504" lon="3.037457">
        <ele>22.838</ele>
        <time>2021-09-01T15:02:09Z</time>
      </trkpt>
      <trkpt lat="39.430528" lon="3.037362">
        <ele>22.870</ele>
        <time>2021-09-01T15:02:10Z</time>
      </trkpt>
      <trkpt lat="39.430552" lon="3.037268">
        <ele>22.817</ele>
        <time>2021-09-01T15:02:11Z</time>
      </trkpt>
      <trkpt lat="39.430575" lon="3.037177">
        <ele>22.908</ele>
        <time>2021-09-01T15:02:12Z</time>
      </trkpt>
      <trkpt lat="39.430601" lon="3.037085">
        <ele>23.061</ele>
        <time>2021-09-01T15:02:13Z</time>
      </trkpt>
      <trkpt lat="39.430625" lon="3.036993">
        <ele>23.055</ele>
        <time>2021-09-01T15:02:14Z</time>
      </trkpt>
      <trkpt lat="39.430649" lon="3.036902">
        <ele>23.130</ele>
        <time>2021-09-01T15:02:15Z</time>
      </trkpt>
      <trkpt lat="39.430674" lon="3.036813">
        <ele>23.124</ele>
        <time>2021-09-01T15:02:16Z</time>
      </trkpt>
      <trkpt lat="39.430698" lon="3.036724">
        <ele>23.193</ele>
        <time>2021-09-01T15:02:17Z</time>
      </trkpt>
      <trkpt lat="39.430724" lon="3.036631">
        <ele>23.178</ele>
        <time>2021-09-01T15:02:18Z</time>
      </trkpt>
      <trkpt lat="39.430747" lon="3.036541">
        <ele>23.125</ele>
        <time>2021-09-01T15:02:19Z</time>
      </trkpt>
      <trkpt lat="39.430773" lon="3.036452">
        <ele>23.195</ele>
        <time>2021-09-01T15:02:20Z</time>
      </trkpt>
      <trkpt lat="39.430797" lon="3.036363">
        <ele>23.192</ele>
        <time>2021-09-01T15:02:21Z</time>
      </trkpt>
      <trkpt lat="39.430821" lon="3.036273">
        <ele>23.173</ele>
        <time>2021-09-01T15:02:22Z</time>
      </trkpt>
      <trkpt lat="39.430846" lon="3.036184">
        <ele>23.020</ele>
        <time>2021-09-01T15:02:23Z</time>
      </trkpt>
      <trkpt lat="39.430871" lon="3.036094">
        <ele>23.008</ele>
        <time>2021-09-01T15:02:24Z</time>
      </trkpt>
      <trkpt lat="39.430895" lon="3.036006">
        <ele>22.967</ele>
        <time>2021-09-01T15:02:25Z</time>
      </trkpt>
      <trkpt lat="39.430919" lon="3.035917">
        <ele>22.961</ele>
        <time>2021-09-01T15:02:26Z</time>
      </trkpt>
      <trkpt lat="39.430943" lon="3.035830">
        <ele>22.886</ele>
        <time>2021-09-01T15:02:27Z</time>
      </trkpt>
      <trkpt lat="39.430969" lon="3.035744">
        <ele>22.870</ele>
        <time>2021-09-01T15:02:28Z</time>
      </trkpt>
      <trkpt lat="39.430995" lon="3.035660">
        <ele>22.899</ele>
        <time>2021-09-01T15:02:29Z</time>
      </trkpt>
      <trkpt lat="39.431020" lon="3.035574">
        <ele>22.814</ele>
        <time>2021-09-01T15:02:30Z</time>
      </trkpt>
      <trkpt lat="39.431045" lon="3.035487">
        <ele>22.861</ele>
        <time>2021-09-01T15:02:31Z</time>
      </trkpt>
      <trkpt lat="39.431070" lon="3.035401">
        <ele>22.851</ele>
        <time>2021-09-01T15:02:32Z</time>
      </trkpt>
      <trkpt lat="39.431095" lon="3.035315">
        <ele>22.846</ele>
        <time>2021-09-01T15:02:33Z</time>
      </trkpt>
      <trkpt lat="39.431122" lon="3.035229">
        <ele>22.888</ele>
        <time>2021-09-01T15:02:34Z</time>
      </trkpt>
      <trkpt lat="39.431147" lon="3.035143">
        <ele>22.916</ele>
        <time>2021-09-01T15:02:35Z</time>
      </trkpt>
      <trkpt lat="39.431173" lon="3.035057">
        <ele>22.908</ele>
        <time>2021-09-01T15:02:36Z</time>
      </trkpt>
      <trkpt lat="39.431196" lon="3.034969">
        <ele>22.952</ele>
        <time>2021-09-01T15:02:37Z</time>
      </trkpt>
      <trkpt lat="39.431221" lon="3.034882">
        <ele>22.996</ele>
        <time>2021-09-01T15:02:38Z</time>
      </trkpt>
      <trkpt lat="39.431245" lon="3.034800">
        <ele>22.951</ele>
        <time>2021-09-01T15:02:39Z</time>
      </trkpt>
      <trkpt lat="39.431271" lon="3.034720">
        <ele>22.915</ele>
        <time>2021-09-01T15:02:40Z</time>
      </trkpt>
      <trkpt lat="39.431297" lon="3.034639">
        <ele>22.894</ele>
        <time>2021-09-01T15:02:41Z</time>
      </trkpt>
      <trkpt lat="39.431320" lon="3.034560">
        <ele>22.729</ele>
        <time>2021-09-01T15:02:42Z</time>
      </trkpt>
      <trkpt lat="39.431348" lon="3.034481">
        <ele>22.756</ele>
        <time>2021-09-01T15:02:43Z</time>
      </trkpt>
      <trkpt lat="39.431371" lon="3.034400">
        <ele>22.736</ele>
        <time>2021-09-01T15:02:44Z</time>
      </trkpt>
      <trkpt lat="39.431395" lon="3.034318">
        <ele>22.898</ele>
        <time>2021-09-01T15:02:45Z</time>
      </trkpt>
      <trkpt lat="39.431418" lon="3.034237">
        <ele>22.915</ele>
        <time>2021-09-01T15:02:46Z</time>
      </trkpt>
      <trkpt lat="39.431441" lon="3.034158">
        <ele>23.026</ele>
        <time>2021-09-01T15:02:47Z</time>
      </trkpt>
      <trkpt lat="39.431464" lon="3.034081">
        <ele>23.008</ele>
        <time>2021-09-01T15:02:48Z</time>
      </trkpt>
      <trkpt lat="39.431489" lon="3.034006">
        <ele>23.157</ele>
        <time>2021-09-01T15:02:49Z</time>
      </trkpt>
      <trkpt lat="39.431511" lon="3.033929">
        <ele>23.151</ele>
        <time>2021-09-01T15:02:50Z</time>
      </trkpt>
      <trkpt lat="39.431536" lon="3.033851">
        <ele>23.076</ele>
        <time>2021-09-01T15:02:51Z</time>
      </trkpt>
      <trkpt lat="39.431559" lon="3.033770">
        <ele>23.090</ele>
        <time>2021-09-01T15:02:52Z</time>
      </trkpt>
      <trkpt lat="39.431581" lon="3.033689">
        <ele>23.069</ele>
        <time>2021-09-01T15:02:53Z</time>
      </trkpt>
      <trkpt lat="39.431595" lon="3.033605">
        <ele>23.024</ele>
        <time>2021-09-01T15:02:54Z</time>
      </trkpt>
      <trkpt lat="39.431603" lon="3.033519">
        <ele>22.931</ele>
        <time>2021-09-01T15:02:55Z</time>
      </trkpt>
      <trkpt lat="39.431605" lon="3.033434">
        <ele>22.911</ele>
        <time>2021-09-01T15:02:56Z</time>
      </trkpt>
      <trkpt lat="39.431604" lon="3.033347">
        <ele>22.985</ele>
        <time>2021-09-01T15:02:57Z</time>
      </trkpt>
      <trkpt lat="39.431605" lon="3.033262">
        <ele>23.089</ele>
        <time>2021-09-01T15:02:58Z</time>
      </trkpt>
      <trkpt lat="39.431606" lon="3.033177">
        <ele>23.017</ele>
        <time>2021-09-01T15:02:59Z</time>
      </trkpt>
      <trkpt lat="39.431607" lon="3.033093">
        <ele>23.108</ele>
        <time>2021-09-01T15:03:00Z</time>
      </trkpt>
      <trkpt lat="39.431607" lon="3.033006">
        <ele>23.286</ele>
        <time>2021-09-01T15:03:01Z</time>
      </trkpt>
      <trkpt lat="39.431610" lon="3.032921">
        <ele>23.370</ele>
        <time>2021-09-01T15:03:02Z</time>
      </trkpt>
      <trkpt lat="39.431611" lon="3.032839">
        <ele>23.465</ele>
        <time>2021-09-01T15:03:03Z</time>
      </trkpt>
      <trkpt lat="39.431612" lon="3.032752">
        <ele>23.519</ele>
        <time>2021-09-01T15:03:04Z</time>
      </trkpt>
      <trkpt lat="39.431613" lon="3.032666">
        <ele>23.628</ele>
        <time>2021-09-01T15:03:05Z</time>
      </trkpt>
      <trkpt lat="39.431612" lon="3.032579">
        <ele>23.753</ele>
        <time>2021-09-01T15:03:06Z</time>
      </trkpt>
      <trkpt lat="39.431612" lon="3.032490">
        <ele>23.890</ele>
        <time>2021-09-01T15:03:07Z</time>
      </trkpt>
      <trkpt lat="39.431613" lon="3.032405">
        <ele>24.050</ele>
        <time>2021-09-01T15:03:08Z</time>
      </trkpt>
      <trkpt lat="39.431617" lon="3.032322">
        <ele>24.127</ele>
        <time>2021-09-01T15:03:09Z</time>
      </trkpt>
      <trkpt lat="39.431622" lon="3.032237">
        <ele>24.268</ele>
        <time>2021-09-01T15:03:10Z</time>
      </trkpt>
      <trkpt lat="39.431626" lon="3.032152">
        <ele>24.314</ele>
        <time>2021-09-01T15:03:11Z</time>
      </trkpt>
      <trkpt lat="39.431633" lon="3.032067">
        <ele>24.408</ele>
        <time>2021-09-01T15:03:12Z</time>
      </trkpt>
      <trkpt lat="39.431637" lon="3.031982">
        <ele>24.420</ele>
        <time>2021-09-01T15:03:13Z</time>
      </trkpt>
      <trkpt lat="39.431643" lon="3.031897">
        <ele>24.474</ele>
        <time>2021-09-01T15:03:14Z</time>
      </trkpt>
      <trkpt lat="39.431653" lon="3.031813">
        <ele>24.469</ele>
        <time>2021-09-01T15:03:15Z</time>
      </trkpt>
      <trkpt lat="39.431663" lon="3.031728">
        <ele>24.563</ele>
        <time>2021-09-01T15:03:16Z</time>
      </trkpt>
      <trkpt lat="39.431669" lon="3.031645">
        <ele>24.532</ele>
        <time>2021-09-01T15:03:17Z</time>
      </trkpt>
      <trkpt lat="39.431676" lon="3.031562">
        <ele>24.587</ele>
        <time>2021-09-01T15:03:18Z</time>
      </trkpt>
      <trkpt lat="39.431683" lon="3.031479">
        <ele>24.574</ele>
        <time>2021-09-01T15:03:19Z</time>
      </trkpt>
      <trkpt lat="39.431691" lon="3.031396">
        <ele>24.654</ele>
        <time>2021-09-01T15:03:20Z</time>
      </trkpt>
      <trkpt lat="39.431701" lon="3.031314">
        <ele>24.746</ele>
        <time>2021-09-01T15:03:21Z</time>
      </trkpt>
      <trkpt lat="39.431710" lon="3.031228">
        <ele>24.888</ele>
        <time>2021-09-01T15:03:22Z</time>
      </trkpt>
      <trkpt lat="39.431717" lon="3.031149">
        <ele>24.916</ele>
        <time>2021-09-01T15:03:23Z</time>
      </trkpt>
      <trkpt lat="39.431722" lon="3.031064">
        <ele>25.008</ele>
        <time>2021-09-01T15:03:24Z</time>
      </trkpt>
      <trkpt lat="39.431731" lon="3.030991">
        <ele>25.142</ele>
        <time>2021-09-01T15:03:25Z</time>
      </trkpt>
      <trkpt lat="39.431739" lon="3.030913">
        <ele>25.246</ele>
        <time>2021-09-01T15:03:26Z</time>
      </trkpt>
      <trkpt lat="39.431747" lon="3.030834">
        <ele>25.231</ele>
        <time>2021-09-01T15:03:27Z</time>
      </trkpt>
      <trkpt lat="39.431753" lon="3.030753">
        <ele>25.325</ele>
        <time>2021-09-01T15:03:28Z</time>
      </trkpt>
      <trkpt lat="39.431761" lon="3.030672">
        <ele>25.364</ele>
        <time>2021-09-01T15:03:29Z</time>
      </trkpt>
      <trkpt lat="39.431768" lon="3.030591">
        <ele>25.329</ele>
        <time>2021-09-01T15:03:30Z</time>
      </trkpt>
      <trkpt lat="39.431781" lon="3.030512">
        <ele>25.336</ele>
        <time>2021-09-01T15:03:31Z</time>
      </trkpt>
      <trkpt lat="39.431796" lon="3.030440">
        <ele>25.426</ele>
        <time>2021-09-01T15:03:32Z</time>
      </trkpt>
      <trkpt lat="39.431808" lon="3.030369">
        <ele>25.424</ele>
        <time>2021-09-01T15:03:33Z</time>
      </trkpt>
      <trkpt lat="39.431816" lon="3.030294">
        <ele>25.504</ele>
        <time>2021-09-01T15:03:34Z</time>
      </trkpt>
      <trkpt lat="39.431829" lon="3.030219">
        <ele>25.614</ele>
        <time>2021-09-01T15:03:35Z</time>
      </trkpt>
      <trkpt lat="39.431843" lon="3.030142">
        <ele>25.708</ele>
        <time>2021-09-01T15:03:36Z</time>
      </trkpt>
      <trkpt lat="39.431855" lon="3.030069">
        <ele>25.740</ele>
        <time>2021-09-01T15:03:37Z</time>
      </trkpt>
      <trkpt lat="39.431870" lon="3.029998">
        <ele>25.774</ele>
        <time>2021-09-01T15:03:38Z</time>
      </trkpt>
      <trkpt lat="39.431887" lon="3.029926">
        <ele>25.729</ele>
        <time>2021-09-01T15:03:39Z</time>
      </trkpt>
      <trkpt lat="39.431898" lon="3.029847">
        <ele>25.713</ele>
        <time>2021-09-01T15:03:40Z</time>
      </trkpt>
      <trkpt lat="39.431915" lon="3.029770">
        <ele>25.632</ele>
        <time>2021-09-01T15:03:41Z</time>
      </trkpt>
      <trkpt lat="39.431920" lon="3.029694">
        <ele>25.647</ele>
        <time>2021-09-01T15:03:42Z</time>
      </trkpt>
      <trkpt lat="39.431936" lon="3.029623">
        <ele>25.784</ele>
        <time>2021-09-01T15:03:43Z</time>
      </trkpt>
      <trkpt lat="39.431950" lon="3.029550">
        <ele>25.834</ele>
        <time>2021-09-01T15:03:44Z</time>
      </trkpt>
      <trkpt lat="39.431959" lon="3.029475">
        <ele>25.974</ele>
        <time>2021-09-01T15:03:45Z</time>
      </trkpt>
      <trkpt lat="39.431974" lon="3.029403">
        <ele>26.056</ele>
        <time>2021-09-01T15:03:46Z</time>
      </trkpt>
      <trkpt lat="39.431984" lon="3.029340">
        <ele>26.121</ele>
        <time>2021-09-01T15:03:47Z</time>
      </trkpt>
      <trkpt lat="39.431999" lon="3.029260">
        <ele>26.108</ele>
        <time>2021-09-01T15:03:48Z</time>
      </trkpt>
      <trkpt lat="39.432013" lon="3.029179">
        <ele>26.215</ele>
        <time>2021-09-01T15:03:49Z</time>
      </trkpt>
      <trkpt lat="39.432027" lon="3.029100">
        <ele>26.249</ele>
        <time>2021-09-01T15:03:50Z</time>
      </trkpt>
      <trkpt lat="39.432041" lon="3.029019">
        <ele>26.264</ele>
        <time>2021-09-01T15:03:51Z</time>
      </trkpt>
      <trkpt lat="39.432052" lon="3.028937">
        <ele>26.268</ele>
        <time>2021-09-01T15:03:52Z</time>
      </trkpt>
      <trkpt lat="39.432063" lon="3.028857">
        <ele>26.347</ele>
        <time>2021-09-01T15:03:53Z</time>
      </trkpt>
      <trkpt lat="39.432072" lon="3.028775">
        <ele>26.442</ele>
        <time>2021-09-01T15:03:54Z</time>
      </trkpt>
      <trkpt lat="39.432084" lon="3.028691">
        <ele>26.579</ele>
        <time>2021-09-01T15:03:55Z</time>
      </trkpt>
      <trkpt lat="39.432100" lon="3.028607">
        <ele>26.689</ele>
        <time>2021-09-01T15:03:56Z</time>
      </trkpt>
      <trkpt lat="39.432117" lon="3.028526">
        <ele>26.776</ele>
        <time>2021-09-01T15:03:57Z</time>
      </trkpt>
      <trkpt lat="39.432134" lon="3.028445">
        <ele>26.890</ele>
        <time>2021-09-01T15:03:58Z</time>
      </trkpt>
      <trkpt lat="39.432150" lon="3.028365">
        <ele>26.819</ele>
        <time>2021-09-01T15:03:59Z</time>
      </trkpt>
      <trkpt lat="39.432171" lon="3.028286">
        <ele>26.808</ele>
        <time>2021-09-01T15:04:00Z</time>
      </trkpt>
      <trkpt lat="39.432191" lon="3.028212">
        <ele>26.835</ele>
        <time>2021-09-01T15:04:01Z</time>
      </trkpt>
      <trkpt lat="39.432212" lon="3.028130">
        <ele>26.939</ele>
        <time>2021-09-01T15:04:02Z</time>
      </trkpt>
      <trkpt lat="39.432234" lon="3.028053">
        <ele>26.944</ele>
        <time>2021-09-01T15:04:03Z</time>
      </trkpt>
      <trkpt lat="39.432256" lon="3.027973">
        <ele>27.018</ele>
        <time>2021-09-01T15:04:04Z</time>
      </trkpt>
      <trkpt lat="39.432283" lon="3.027894">
        <ele>27.167</ele>
        <time>2021-09-01T15:04:05Z</time>
      </trkpt>
      <trkpt lat="39.432312" lon="3.027819">
        <ele>27.262</ele>
        <time>2021-09-01T15:04:06Z</time>
      </trkpt>
      <trkpt lat="39.432339" lon="3.027741">
        <ele>27.249</ele>
        <time>2021-09-01T15:04:07Z</time>
      </trkpt>
      <trkpt lat="39.432370" lon="3.027670">
        <ele>27.339</ele>
        <time>2021-09-01T15:04:08Z</time>
      </trkpt>
      <trkpt lat="39.432404" lon="3.027602">
        <ele>27.316</ele>
        <time>2021-09-01T15:04:09Z</time>
      </trkpt>
      <trkpt lat="39.432441" lon="3.027537">
        <ele>27.576</ele>
        <time>2021-09-01T15:04:10Z</time>
      </trkpt>
      <trkpt lat="39.432482" lon="3.027478">
        <ele>27.613</ele>
        <time>2021-09-01T15:04:11Z</time>
      </trkpt>
      <trkpt lat="39.432532" lon="3.027428">
        <ele>27.708</ele>
        <time>2021-09-01T15:04:12Z</time>
      </trkpt>
      <trkpt lat="39.432578" lon="3.027366">
        <ele>27.959</ele>
        <time>2021-09-01T15:04:13Z</time>
      </trkpt>
      <trkpt lat="39.432626" lon="3.027317">
        <ele>28.143</ele>
        <time>2021-09-01T15:04:14Z</time>
      </trkpt>
      <trkpt lat="39.432673" lon="3.027264">
        <ele>28.318</ele>
        <time>2021-09-01T15:04:15Z</time>
      </trkpt>
      <trkpt lat="39.432719" lon="3.027226">
        <ele>28.552</ele>
        <time>2021-09-01T15:04:16Z</time>
      </trkpt>
      <trkpt lat="39.432772" lon="3.027184">
        <ele>28.791</ele>
        <time>2021-09-01T15:04:17Z</time>
      </trkpt>
      <trkpt lat="39.432819" lon="3.027132">
        <ele>28.936</ele>
        <time>2021-09-01T15:04:18Z</time>
      </trkpt>
      <trkpt lat="39.432854" lon="3.027076">
        <ele>29.133</ele>
        <time>2021-09-01T15:04:19Z</time>
      </trkpt>
      <trkpt lat="39.432874" lon="3.027012">
        <ele>29.263</ele>
        <time>2021-09-01T15:04:20Z</time>
      </trkpt>
      <trkpt lat="39.432883" lon="3.026945">
        <ele>29.381</ele>
        <time>2021-09-01T15:04:21Z</time>
      </trkpt>
      <trkpt lat="39.432901" lon="3.026867">
        <ele>29.461</ele>
        <time>2021-09-01T15:04:22Z</time>
      </trkpt>
      <trkpt lat="39.432926" lon="3.026791">
        <ele>29.617</ele>
        <time>2021-09-01T15:04:23Z</time>
      </trkpt>
      <trkpt lat="39.432951" lon="3.026720">
        <ele>29.708</ele>
        <time>2021-09-01T15:04:24Z</time>
      </trkpt>
      <trkpt lat="39.432980" lon="3.026643">
        <ele>29.936</ele>
        <time>2021-09-01T15:04:25Z</time>
      </trkpt>
      <trkpt lat="39.433011" lon="3.026575">
        <ele>30.080</ele>
        <time>2021-09-01T15:04:26Z</time>
      </trkpt>
      <trkpt lat="39.433041" lon="3.026508">
        <ele>30.295</ele>
        <time>2021-09-01T15:04:27Z</time>
      </trkpt>
      <trkpt lat="39.433070" lon="3.026448">
        <ele>30.289</ele>
        <time>2021-09-01T15:04:28Z</time>
      </trkpt>
      <trkpt lat="39.433096" lon="3.026386">
        <ele>30.298</ele>
        <time>2021-09-01T15:04:29Z</time>
      </trkpt>
      <trkpt lat="39.433120" lon="3.026323">
        <ele>30.263</ele>
        <time>2021-09-01T15:04:30Z</time>
      </trkpt>
      <trkpt lat="39.433143" lon="3.026259">
        <ele>30.160</ele>
        <time>2021-09-01T15:04:31Z</time>
      </trkpt>
      <trkpt lat="39.433163" lon="3.026204">
        <ele>30.020</ele>
        <time>2021-09-01T15:04:32Z</time>
      </trkpt>
      <trkpt lat="39.433181" lon="3.026144">
        <ele>30.086</ele>
        <time>2021-09-01T15:04:33Z</time>
      </trkpt>
      <trkpt lat="39.433201" lon="3.026081">
        <ele>30.060</ele>
        <time>2021-09-01T15:04:34Z</time>
      </trkpt>
      <trkpt lat="39.433225" lon="3.026016">
        <ele>30.026</ele>
        <time>2021-09-01T15:04:35Z</time>
      </trkpt>
      <trkpt lat="39.433250" lon="3.025949">
        <ele>30.108</ele>
        <time>2021-09-01T15:04:36Z</time>
      </trkpt>
      <trkpt lat="39.433272" lon="3.025878">
        <ele>30.286</ele>
        <time>2021-09-01T15:04:37Z</time>
      </trkpt>
      <trkpt lat="39.433294" lon="3.025806">
        <ele>30.370</ele>
        <time>2021-09-01T15:04:38Z</time>
      </trkpt>
      <trkpt lat="39.433323" lon="3.025740">
        <ele>30.435</ele>
        <time>2021-09-01T15:04:39Z</time>
      </trkpt>
      <trkpt lat="39.433347" lon="3.025665">
        <ele>30.539</ele>
        <time>2021-09-01T15:04:40Z</time>
      </trkpt>
      <trkpt lat="39.433367" lon="3.025587">
        <ele>30.778</ele>
        <time>2021-09-01T15:04:41Z</time>
      </trkpt>
      <trkpt lat="39.433391" lon="3.025511">
        <ele>30.853</ele>
        <time>2021-09-01T15:04:42Z</time>
      </trkpt>
      <trkpt lat="39.433413" lon="3.025432">
        <ele>31.010</ele>
        <time>2021-09-01T15:04:43Z</time>
      </trkpt>
      <trkpt lat="39.433438" lon="3.025355">
        <ele>31.140</ele>
        <time>2021-09-01T15:04:44Z</time>
      </trkpt>
      <trkpt lat="39.433465" lon="3.025276">
        <ele>31.237</ele>
        <time>2021-09-01T15:04:45Z</time>
      </trkpt>
      <trkpt lat="39.433492" lon="3.025199">
        <ele>31.349</ele>
        <time>2021-09-01T15:04:46Z</time>
      </trkpt>
      <trkpt lat="39.433518" lon="3.025121">
        <ele>31.413</ele>
        <time>2021-09-01T15:04:47Z</time>
      </trkpt>
      <trkpt lat="39.433542" lon="3.025041">
        <ele>31.408</ele>
        <time>2021-09-01T15:04:48Z</time>
      </trkpt>
      <trkpt lat="39.433571" lon="3.024964">
        <ele>31.561</ele>
        <time>2021-09-01T15:04:49Z</time>
      </trkpt>
      <trkpt lat="39.433596" lon="3.024884">
        <ele>31.665</ele>
        <time>2021-09-01T15:04:50Z</time>
      </trkpt>
      <trkpt lat="39.433623" lon="3.024806">
        <ele>31.660</ele>
        <time>2021-09-01T15:04:51Z</time>
      </trkpt>
      <trkpt lat="39.433650" lon="3.024728">
        <ele>31.634</ele>
        <time>2021-09-01T15:04:52Z</time>
      </trkpt>
      <trkpt lat="39.433675" lon="3.024649">
        <ele>31.743</ele>
        <time>2021-09-01T15:04:53Z</time>
      </trkpt>
      <trkpt lat="39.433702" lon="3.024573">
        <ele>31.728</ele>
        <time>2021-09-01T15:04:54Z</time>
      </trkpt>
      <trkpt lat="39.433728" lon="3.024493">
        <ele>31.845</ele>
        <time>2021-09-01T15:04:55Z</time>
      </trkpt>
      <trkpt lat="39.433755" lon="3.024417">
        <ele>31.925</ele>
        <time>2021-09-01T15:04:56Z</time>
      </trkpt>
      <trkpt lat="39.433781" lon="3.024338">
        <ele>32.054</ele>
        <time>2021-09-01T15:04:57Z</time>
      </trkpt>
      <trkpt lat="39.433806" lon="3.024258">
        <ele>32.156</ele>
        <time>2021-09-01T15:04:58Z</time>
      </trkpt>
      <trkpt lat="39.433834" lon="3.024183">
        <ele>32.211</ele>
        <time>2021-09-01T15:04:59Z</time>
      </trkpt>
      <trkpt lat="39.433861" lon="3.024105">
        <ele>32.308</ele>
        <time>2021-09-01T15:05:00Z</time>
      </trkpt>
      <trkpt lat="39.433888" lon="3.024028">
        <ele>32.473</ele>
        <time>2021-09-01T15:05:01Z</time>
      </trkpt>
      <trkpt lat="39.433913" lon="3.023949">
        <ele>32.427</ele>
        <time>2021-09-01T15:05:02Z</time>
      </trkpt>
      <trkpt lat="39.433938" lon="3.023871">
        <ele>32.522</ele>
        <time>2021-09-01T15:05:03Z</time>
      </trkpt>
      <trkpt lat="39.433964" lon="3.023792">
        <ele>32.636</ele>
        <time>2021-09-01T15:05:04Z</time>
      </trkpt>
      <trkpt lat="39.433992" lon="3.023711">
        <ele>32.725</ele>
        <time>2021-09-01T15:05:05Z</time>
      </trkpt>
      <trkpt lat="39.434017" lon="3.023631">
        <ele>32.760</ele>
        <time>2021-09-01T15:05:06Z</time>
      </trkpt>
      <trkpt lat="39.434043" lon="3.023550">
        <ele>32.837</ele>
        <time>2021-09-01T15:05:07Z</time>
      </trkpt>
      <trkpt lat="39.434070" lon="3.023470">
        <ele>32.897</ele>
        <time>2021-09-01T15:05:08Z</time>
      </trkpt>
      <trkpt lat="39.434096" lon="3.023394">
        <ele>32.892</ele>
        <time>2021-09-01T15:05:09Z</time>
      </trkpt>
      <trkpt lat="39.434122" lon="3.023315">
        <ele>32.873</ele>
        <time>2021-09-01T15:05:10Z</time>
      </trkpt>
      <trkpt lat="39.434148" lon="3.023239">
        <ele>32.920</ele>
        <time>2021-09-01T15:05:11Z</time>
      </trkpt>
      <trkpt lat="39.434171" lon="3.023163">
        <ele>32.908</ele>
        <time>2021-09-01T15:05:12Z</time>
      </trkpt>
      <trkpt lat="39.434194" lon="3.023088">
        <ele>33.077</ele>
        <time>2021-09-01T15:05:13Z</time>
      </trkpt>
      <trkpt lat="39.434218" lon="3.023013">
        <ele>33.121</ele>
        <time>2021-09-01T15:05:14Z</time>
      </trkpt>
      <trkpt lat="39.434242" lon="3.022941">
        <ele>33.216</ele>
        <time>2021-09-01T15:05:15Z</time>
      </trkpt>
      <trkpt lat="39.434266" lon="3.022868">
        <ele>33.370</ele>
        <time>2021-09-01T15:05:16Z</time>
      </trkpt>
      <trkpt lat="39.434292" lon="3.022793">
        <ele>33.379</ele>
        <time>2021-09-01T15:05:17Z</time>
      </trkpt>
      <trkpt lat="39.434316" lon="3.022717">
        <ele>33.534</ele>
        <time>2021-09-01T15:05:18Z</time>
      </trkpt>
      <trkpt lat="39.434343" lon="3.022641">
        <ele>33.651</ele>
        <time>2021-09-01T15:05:19Z</time>
      </trkpt>
      <trkpt lat="39.434366" lon="3.022565">
        <ele>33.711</ele>
        <time>2021-09-01T15:05:20Z</time>
      </trkpt>
      <trkpt lat="39.434392" lon="3.022485">
        <ele>33.849</ele>
        <time>2021-09-01T15:05:21Z</time>
      </trkpt>
      <trkpt lat="39.434419" lon="3.022410">
        <ele>33.802</ele>
        <time>2021-09-01T15:05:22Z</time>
      </trkpt>
      <trkpt lat="39.434445" lon="3.022333">
        <ele>33.922</ele>
        <time>2021-09-01T15:05:23Z</time>
      </trkpt>
      <trkpt lat="39.434471" lon="3.022256">
        <ele>33.908</ele>
        <time>2021-09-01T15:05:24Z</time>
      </trkpt>
      <trkpt lat="39.434496" lon="3.022177">
        <ele>34.082</ele>
        <time>2021-09-01T15:05:25Z</time>
      </trkpt>
      <trkpt lat="39.434521" lon="3.022098">
        <ele>34.156</ele>
        <time>2021-09-01T15:05:26Z</time>
      </trkpt>
      <trkpt lat="39.434548" lon="3.022019">
        <ele>34.261</ele>
        <time>2021-09-01T15:05:27Z</time>
      </trkpt>
      <trkpt lat="39.434574" lon="3.021938">
        <ele>34.325</ele>
        <time>2021-09-01T15:05:28Z</time>
      </trkpt>
      <trkpt lat="39.434602" lon="3.021860">
        <ele>34.454</ele>
        <time>2021-09-01T15:05:29Z</time>
      </trkpt>
      <trkpt lat="39.434632" lon="3.021781">
        <ele>34.499</ele>
        <time>2021-09-01T15:05:30Z</time>
      </trkpt>
      <trkpt lat="39.434662" lon="3.021709">
        <ele>34.486</ele>
        <time>2021-09-01T15:05:31Z</time>
      </trkpt>
      <trkpt lat="39.434687" lon="3.021632">
        <ele>34.446</ele>
        <time>2021-09-01T15:05:32Z</time>
      </trkpt>
      <trkpt lat="39.434711" lon="3.021558">
        <ele>34.494</ele>
        <time>2021-09-01T15:05:33Z</time>
      </trkpt>
      <trkpt lat="39.434735" lon="3.021479">
        <ele>34.457</ele>
        <time>2021-09-01T15:05:34Z</time>
      </trkpt>
      <trkpt lat="39.434762" lon="3.021401">
        <ele>34.422</ele>
        <time>2021-09-01T15:05:35Z</time>
      </trkpt>
      <trkpt lat="39.434789" lon="3.021325">
        <ele>34.408</ele>
        <time>2021-09-01T15:05:36Z</time>
      </trkpt>
      <trkpt lat="39.434816" lon="3.021249">
        <ele>34.537</ele>
        <time>2021-09-01T15:05:37Z</time>
      </trkpt>
      <trkpt lat="39.434842" lon="3.021173">
        <ele>34.781</ele>
        <time>2021-09-01T15:05:38Z</time>
      </trkpt>
      <trkpt lat="39.434866" lon="3.021096">
        <ele>34.976</ele>
        <time>2021-09-01T15:05:39Z</time>
      </trkpt>
      <trkpt lat="39.434890" lon="3.021014">
        <ele>35.070</ele>
        <time>2021-09-01T15:05:40Z</time>
      </trkpt>
      <trkpt lat="39.434917" lon="3.020936">
        <ele>35.249</ele>
        <time>2021-09-01T15:05:41Z</time>
      </trkpt>
      <trkpt lat="39.434942" lon="3.020858">
        <ele>35.594</ele>
        <time>2021-09-01T15:05:42Z</time>
      </trkpt>
      <trkpt lat="39.434956" lon="3.020785">
        <ele>35.641</ele>
        <time>2021-09-01T15:05:43Z</time>
      </trkpt>
      <trkpt lat="39.434978" lon="3.020709">
        <ele>35.741</ele>
        <time>2021-09-01T15:05:44Z</time>
      </trkpt>
      <trkpt lat="39.435003" lon="3.020630">
        <ele>35.752</ele>
        <time>2021-09-01T15:05:45Z</time>
      </trkpt>
      <trkpt lat="39.435037" lon="3.020552">
        <ele>35.753</ele>
        <time>2021-09-01T15:05:46Z</time>
      </trkpt>
      <trkpt lat="39.435059" lon="3.020483">
        <ele>35.608</ele>
        <time>2021-09-01T15:05:47Z</time>
      </trkpt>
      <trkpt lat="39.435081" lon="3.020405">
        <ele>35.608</ele>
        <time>2021-09-01T15:05:48Z</time>
      </trkpt>
      <trkpt lat="39.435104" lon="3.020334">
        <ele>35.653</ele>
        <time>2021-09-01T15:05:49Z</time>
      </trkpt>
      <trkpt lat="39.435124" lon="3.020266">
        <ele>35.697</ele>
        <time>2021-09-01T15:05:50Z</time>
      </trkpt>
      <trkpt lat="39.435144" lon="3.020199">
        <ele>35.762</ele>
        <time>2021-09-01T15:05:51Z</time>
      </trkpt>
      <trkpt lat="39.435169" lon="3.020130">
        <ele>35.766</ele>
        <time>2021-09-01T15:05:52Z</time>
      </trkpt>
      <trkpt lat="39.435194" lon="3.020067">
        <ele>35.815</ele>
        <time>2021-09-01T15:05:53Z</time>
      </trkpt>
      <trkpt lat="39.435217" lon="3.020009">
        <ele>35.850</ele>
        <time>2021-09-01T15:05:54Z</time>
      </trkpt>
      <trkpt lat="39.435244" lon="3.019950">
        <ele>35.927</ele>
        <time>2021-09-01T15:05:55Z</time>
      </trkpt>
      <trkpt lat="39.435270" lon="3.019898">
        <ele>36.077</ele>
        <time>2021-09-01T15:05:56Z</time>
      </trkpt>
      <trkpt lat="39.435301" lon="3.019850">
        <ele>36.098</ele>
        <time>2021-09-01T15:05:57Z</time>
      </trkpt>
      <trkpt lat="39.435330" lon="3.019803">
        <ele>36.115</ele>
        <time>2021-09-01T15:05:58Z</time>
      </trkpt>
      <trkpt lat="39.435390" lon="3.019716">
        <ele>36.226</ele>
        <time>2021-09-01T15:06:00Z</time>
      </trkpt>
      <trkpt lat="39.435392" lon="3.019618">
        <ele>36.208</ele>
        <time>2021-09-01T15:06:02Z</time>
      </trkpt>
      <trkpt lat="39.435358" lon="3.019578">
        <ele>36.247</ele>
        <time>2021-09-01T15:06:03Z</time>
      </trkpt>
      <trkpt lat="39.435309" lon="3.019550">
        <ele>36.261</ele>
        <time>2021-09-01T15:06:04Z</time>
      </trkpt>
      <trkpt lat="39.435258" lon="3.019567">
        <ele>36.236</ele>
        <time>2021-09-01T15:06:05Z</time>
      </trkpt>
      <trkpt lat="39.435206" lon="3.019607">
        <ele>36.270</ele>
        <time>2021-09-01T15:06:06Z</time>
      </trkpt>
      <trkpt lat="39.435131" lon="3.019654">
        <ele>36.379</ele>
        <time>2021-09-01T15:06:08Z</time>
      </trkpt>
      <trkpt lat="39.435059" lon="3.019599">
        <ele>36.494</ele>
        <time>2021-09-01T15:06:10Z</time>
      </trkpt>
      <trkpt lat="39.435019" lon="3.019570">
        <ele>36.591</ele>
        <time>2021-09-01T15:06:11Z</time>
      </trkpt>
      <trkpt lat="39.434975" lon="3.019550">
        <ele>36.681</ele>
        <time>2021-09-01T15:06:12Z</time>
      </trkpt>
      <trkpt lat="39.434900" lon="3.019519">
        <ele>36.798</ele>
        <time>2021-09-01T15:06:14Z</time>
      </trkpt>
      <trkpt lat="39.434847" lon="3.019509">
        <ele>36.715</ele>
        <time>2021-09-01T15:06:15Z</time>
      </trkpt>
      <trkpt lat="39.434793" lon="3.019493">
        <ele>36.626</ele>
        <time>2021-09-01T15:06:16Z</time>
      </trkpt>
      <trkpt lat="39.434745" lon="3.019474">
        <ele>36.508</ele>
        <time>2021-09-01T15:06:17Z</time>
      </trkpt>
      <trkpt lat="39.434687" lon="3.019463">
        <ele>36.427</ele>
        <time>2021-09-01T15:06:18Z</time>
      </trkpt>
      <trkpt lat="39.434631" lon="3.019451">
        <ele>36.381</ele>
        <time>2021-09-01T15:06:19Z</time>
      </trkpt>
      <trkpt lat="39.434573" lon="3.019427">
        <ele>36.336</ele>
        <time>2021-09-01T15:06:20Z</time>
      </trkpt>
      <trkpt lat="39.434521" lon="3.019404">
        <ele>36.230</ele>
        <time>2021-09-01T15:06:21Z</time>
      </trkpt>
      <trkpt lat="39.434468" lon="3.019384">
        <ele>36.239</ele>
        <time>2021-09-01T15:06:22Z</time>
      </trkpt>
      <trkpt lat="39.434418" lon="3.019368">
        <ele>36.234</ele>
        <time>2021-09-01T15:06:23Z</time>
      </trkpt>
      <trkpt lat="39.434370" lon="3.019358">
        <ele>36.281</ele>
        <time>2021-09-01T15:06:24Z</time>
      </trkpt>
      <trkpt lat="39.434322" lon="3.019345">
        <ele>36.281</ele>
        <time>2021-09-01T15:06:25Z</time>
      </trkpt>
      <trkpt lat="39.434273" lon="3.019335">
        <ele>36.291</ele>
        <time>2021-09-01T15:06:26Z</time>
      </trkpt>
      <trkpt lat="39.434219" lon="3.019312">
        <ele>36.281</ele>
        <time>2021-09-01T15:06:27Z</time>
      </trkpt>
      <trkpt lat="39.434168" lon="3.019296">
        <ele>36.319</ele>
        <time>2021-09-01T15:06:28Z</time>
      </trkpt>
      <trkpt lat="39.434113" lon="3.019274">
        <ele>36.308</ele>
        <time>2021-09-01T15:06:29Z</time>
      </trkpt>
      <trkpt lat="39.434062" lon="3.019261">
        <ele>36.387</ele>
        <time>2021-09-01T15:06:30Z</time>
      </trkpt>
      <trkpt lat="39.434014" lon="3.019245">
        <ele>36.341</ele>
        <time>2021-09-01T15:06:31Z</time>
      </trkpt>
      <trkpt lat="39.433967" lon="3.019228">
        <ele>36.316</ele>
        <time>2021-09-01T15:06:32Z</time>
      </trkpt>
      <trkpt lat="39.433894" lon="3.019200">
        <ele>36.150</ele>
        <time>2021-09-01T15:06:34Z</time>
      </trkpt>
      <trkpt lat="39.433839" lon="3.019185">
        <ele>35.869</ele>
        <time>2021-09-01T15:06:36Z</time>
      </trkpt>
      <trkpt lat="39.433772" lon="3.019171">
        <ele>35.444</ele>
        <time>2021-09-01T15:06:38Z</time>
      </trkpt>
      <trkpt lat="39.433695" lon="3.019148">
        <ele>35.311</ele>
        <time>2021-09-01T15:06:40Z</time>
      </trkpt>
      <trkpt lat="39.433653" lon="3.019120">
        <ele>35.311</ele>
        <time>2021-09-01T15:06:41Z</time>
      </trkpt>
      <trkpt lat="39.433606" lon="3.019111">
        <ele>35.417</ele>
        <time>2021-09-01T15:06:42Z</time>
      </trkpt>
      <trkpt lat="39.433524" lon="3.019101">
        <ele>35.487</ele>
        <time>2021-09-01T15:06:44Z</time>
      </trkpt>
      <trkpt lat="39.433438" lon="3.019086">
        <ele>35.415</ele>
        <time>2021-09-01T15:06:46Z</time>
      </trkpt>
      <trkpt lat="39.433386" lon="3.019073">
        <ele>35.408</ele>
        <time>2021-09-01T15:06:47Z</time>
      </trkpt>
      <trkpt lat="39.433333" lon="3.019066">
        <ele>35.539</ele>
        <time>2021-09-01T15:06:48Z</time>
      </trkpt>
      <trkpt lat="39.433287" lon="3.019057">
        <ele>35.523</ele>
        <time>2021-09-01T15:06:49Z</time>
      </trkpt>
      <trkpt lat="39.433217" lon="3.019038">
        <ele>35.528</ele>
        <time>2021-09-01T15:06:51Z</time>
      </trkpt>
      <trkpt lat="39.433153" lon="3.019004">
        <ele>35.232</ele>
        <time>2021-09-01T15:06:53Z</time>
      </trkpt>
      <trkpt lat="39.566860" lon="2.648490">
        <ele>10.058</ele>
        <time>2020-01-27T08:32:02Z</time>
      </trkpt>
      <trkpt lat="39.566840" lon="2.648370">
        <ele>9.052</ele>
        <time>2020-01-27T08:32:22Z</time>
      </trkpt>
      <trkpt lat="39.566720" lon="2.648330">
        <ele>9.017</ele>
        <time>2020-01-27T08:32:42Z</time>
      </trkpt>
      <trkpt lat="39.567080" lon="2.646260">
        <ele>3.008</ele>
        <time>2020-01-27T08:33:02Z</time>
      </trkpt>
      <trkpt lat="39.566840" lon="2.646100">
        <ele>3.039</ele>
        <time>2020-01-27T08:33:22Z</time>
      </trkpt>
      <trkpt lat="39.566750" lon="2.645880">
        <ele>3.070</ele>
        <time>2020-01-27T08:33:42Z</time>
      </trkpt>
      <trkpt lat="39.567110" lon="2.645550">
        <ele>3.084</ele>
        <time>2020-01-27T08:34:02Z</time>
      </trkpt>
      <trkpt lat="39.567080" lon="2.645510">
        <ele>3.021</ele>
        <time>2020-01-27T08:34:22Z</time>
      </trkpt>
      <trkpt lat="39.567110" lon="2.645470">
        <ele>3.086</ele>
        <time>2020-01-27T08:34:42Z</time>
      </trkpt>
      <trkpt lat="39.567150" lon="2.645520">
        <ele>3.042</ele>
        <time>2020-01-27T08:35:02Z</time>
      </trkpt>
      <trkpt lat="39.567240" lon="2.645450">
        <ele>3.020</ele>
        <time>2020-01-27T08:35:22Z</time>
      </trkpt>
      <trkpt lat="39.567290" lon="2.645350">
        <ele>3.063</ele>
        <time>2020-01-27T08:35:42Z</time>
      </trkpt>
      <trkpt lat="39.568650" lon="2.643300">
        <ele>3.076</ele>
        <time>2020-01-27T08:36:02Z</time>
      </trkpt>
      <trkpt lat="39.568590" lon="2.643230">
        <ele>3.090</ele>
        <time>2020-01-27T08:36:22Z</time>
      </trkpt>
      <trkpt lat="39.568560" lon="2.643130">
        <ele>3.019</ele>
        <time>2020-01-27T08:36:42Z</time>
      </trkpt>
      <trkpt lat="39.568830" lon="2.642720">
        <ele>3.008</ele>
        <time>2020-01-27T08:37:02Z</time>
      </trkpt>
      <trkpt lat="39.569050" lon="2.642310">
        <ele>3.061</ele>
        <time>2020-01-27T08:37:22Z</time>
      </trkpt>
      <trkpt lat="39.569210" lon="2.641840">
        <ele>3.082</ele>
        <time>2020-01-27T08:37:42Z</time>
      </trkpt>
      <trkpt lat="39.569410" lon="2.641110">
        <ele>2.076</ele>
        <time>2020-01-27T08:38:02Z</time>
      </trkpt>
      <trkpt lat="39.569460" lon="2.640840">
        <ele>2.063</ele>
        <time>2020-01-27T08:38:22Z</time>
      </trkpt>
      <trkpt lat="39.569490" lon="2.640540">
        <ele>2.078</ele>
        <time>2020-01-27T08:38:42Z</time>
      </trkpt>
      <trkpt lat="39.569490" lon="2.640300">
        <ele>2.014</ele>
        <time>2020-01-27T08:39:02Z</time>
      </trkpt>
      <trkpt lat="39.569440" lon="2.639570">
        <ele>2.052</ele>
        <time>2020-01-27T08:39:22Z</time>
      </trkpt>
      <trkpt lat="39.569380" lon="2.639030">
        <ele>4.025</ele>
        <time>2020-01-27T08:39:42Z</time>
      </trkpt>
      <trkpt lat="39.569230" lon="2.638190">
        <ele>6.088</ele>
        <time>2020-01-27T08:40:02Z</time>
      </trkpt>
      <trkpt lat="39.569150" lon="2.637680">
        <ele>7.024</ele>
        <time>2020-01-27T08:40:22Z</time>
      </trkpt>
      <trkpt lat="39.569240" lon="2.637560">
        <ele>8.026</ele>
        <time>2020-01-27T08:40:42Z</time>
      </trkpt>
      <trkpt lat="39.569300" lon="2.637400">
        <ele>8.008</ele>
        <time>2020-01-27T08:41:02Z</time>
      </trkpt>
      <trkpt lat="39.569440" lon="2.636840">
        <ele>7.092</ele>
        <time>2020-01-27T08:41:22Z</time>
      </trkpt>
      <trkpt lat="39.569370" lon="2.635720">
        <ele>5.073</ele>
        <time>2020-01-27T08:41:42Z</time>
      </trkpt>
      <trkpt lat="39.569350" lon="2.635560">
        <ele>4.037</ele>
        <time>2020-01-27T08:42:02Z</time>
      </trkpt>
      <trkpt lat="39.569310" lon="2.635440">
        <ele>4.024</ele>
        <time>2020-01-27T08:42:22Z</time>
      </trkpt>
      <trkpt lat="39.569050" lon="2.635080">
        <ele>3.039</ele>
        <time>2020-01-27T08:42:42Z</time>
      </trkpt>
      <trkpt lat="39.568970" lon="2.635020">
        <ele>3.015</ele>
        <time>2020-01-27T08:43:02Z</time>
      </trkpt>
      <trkpt lat="39.568920" lon="2.635020">
        <ele>3.063</ele>
        <time>2020-01-27T08:43:22Z</time>
      </trkpt>
      <trkpt lat="39.568890" lon="2.634730">
        <ele>4.086</ele>
        <time>2020-01-27T08:43:42Z</time>
      </trkpt>
      <trkpt lat="39.568950" lon="2.634670">
        <ele>4.043</ele>
        <time>2020-01-27T08:44:02Z</time>
      </trkpt>
      <trkpt lat="39.568950" lon="2.634670">
        <ele>4.064</ele>
        <time>2020-01-27T08:44:22Z</time>
      </trkpt>
      <trkpt lat="39.570190" lon="2.633490">
        <ele>15.010</ele>
        <time>2020-01-27T08:44:42Z</time>
      </trkpt>
      <trkpt lat="39.570270" lon="2.633270">
        <ele>16.008</ele>
        <time>2020-01-27T08:45:02Z</time>
      </trkpt>
      <trkpt lat="39.570030" lon="2.632860">
        <ele>17.018</ele>
        <time>2020-01-27T08:45:22Z</time>
      </trkpt>
      <trkpt lat="39.570480" lon="2.632460">
        <ele>19.019</ele>
        <time>2020-01-27T08:45:42Z</time>
      </trkpt>
      <trkpt lat="39.570540" lon="2.631560">
        <ele>21.013</ele>
        <time>2020-01-27T08:46:02Z</time>
      </trkpt>
      <trkpt lat="39.570650" lon="2.630450">
        <ele>22.010</ele>
        <time>2020-01-27T08:46:22Z</time>
      </trkpt>
      <trkpt lat="39.570570" lon="2.628490">
        <ele>25.095</ele>
        <time>2020-01-27T08:46:42Z</time>
      </trkpt>
      <trkpt lat="39.570630" lon="2.627750">
        <ele>28.051</ele>
        <time>2020-01-27T08:47:02Z</time>
      </trkpt>
      <trkpt lat="39.570700" lon="2.627330">
        <ele>29.069</ele>
        <time>2020-01-27T08:47:22Z</time>
      </trkpt>
      <trkpt lat="39.570990" lon="2.626350">
        <ele>33.092</ele>
        <time>2020-01-27T08:47:42Z</time>
      </trkpt>
      <trkpt lat="39.571470" lon="2.624870">
        <ele>39.074</ele>
        <time>2020-01-27T08:48:02Z</time>
      </trkpt>
      <trkpt lat="39.571710" lon="2.623660">
        <ele>44.056</ele>
        <time>2020-01-27T08:48:22Z</time>
      </trkpt>
      <trkpt lat="39.572060" lon="2.621310">
        <ele>51.021</ele>
        <time>2020-01-27T08:48:42Z</time>
      </trkpt>
      <trkpt lat="39.572060" lon="2.620960">
        <ele>52.008</ele>
        <time>2020-01-27T08:49:02Z</time>
      </trkpt>
      <trkpt lat="39.572090" lon="2.620790">
        <ele>53.081</ele>
        <time>2020-01-27T08:49:22Z</time>
      </trkpt>
      <trkpt lat="39.572150" lon="2.620590">
        <ele>53.022</ele>
        <time>2020-01-27T08:49:42Z</time>
      </trkpt>
      <trkpt lat="39.572220" lon="2.620560">
        <ele>54.046</ele>
        <time>2020-01-27T08:50:02Z</time>
      </trkpt>
      <trkpt lat="39.572220" lon="2.620570">
        <ele>54.093</ele>
        <time>2020-01-27T08:50:22Z</time>
      </trkpt>
      <trkpt lat="39.572300" lon="2.620480">
        <ele>54.078</ele>
        <time>2020-01-27T08:50:42Z</time>
      </trkpt>
      <trkpt lat="39.572350" lon="2.620390">
        <ele>54.054</ele>
        <time>2020-01-27T08:51:02Z</time>
      </trkpt>
      <trkpt lat="39.572370" lon="2.620290">
        <ele>55.022</ele>
        <time>2020-01-27T08:51:22Z</time>
      </trkpt>
      <trkpt lat="39.572350" lon="2.620180">
        <ele>55.055</ele>
        <time>2020-01-27T08:51:42Z</time>
      </trkpt>
      <trkpt lat="39.572320" lon="2.620080">
        <ele>55.039</ele>
        <time>2020-01-27T08:52:02Z</time>
      </trkpt>
      <trkpt lat="39.572270" lon="2.620000">
        <ele>56.001</ele>
        <time>2020-01-27T08:52:22Z</time>
      </trkpt>
      <trkpt lat="39.572250" lon="2.619900">
        <ele>56.021</ele>
        <time>2020-01-27T08:52:42Z</time>
      </trkpt>
      <trkpt lat="39.572250" lon="2.619730">
        <ele>56.008</ele>
        <time>2020-01-27T08:53:02Z</time>
      </trkpt>
      <trkpt lat="39.572340" lon="2.619330">
        <ele>58.097</ele>
        <time>2020-01-27T08:53:22Z</time>
      </trkpt>
      <trkpt lat="39.572540" lon="2.618560">
        <ele>60.038</ele>
        <time>2020-01-27T08:53:42Z</time>
      </trkpt>
      <trkpt lat="39.572930" lon="2.617200">
        <ele>64.092</ele>
        <time>2020-01-27T08:54:02Z</time>
      </trkpt>
      <trkpt lat="39.573180" lon="2.616640">
        <ele>65.089</ele>
        <time>2020-01-27T08:54:22Z</time>
      </trkpt>
      <trkpt lat="39.573220" lon="2.616510">
        <ele>65.014</ele>
        <time>2020-01-27T08:54:42Z</time>
      </trkpt>
      <trkpt lat="39.573290" lon="2.616190">
        <ele>66.040</ele>
        <time>2020-01-27T08:55:02Z</time>
      </trkpt>
      <trkpt lat="39.573400" lon="2.615220">
        <ele>67.058</ele>
        <time>2020-01-27T08:55:22Z</time>
      </trkpt>
      <trkpt lat="39.573520" lon="2.614460">
        <ele>67.081</ele>
        <time>2020-01-27T08:55:42Z</time>
      </trkpt>
      <trkpt lat="39.573750" lon="2.613240">
        <ele>68.036</ele>
        <time>2020-01-27T08:56:02Z</time>
      </trkpt>
      <trkpt lat="39.573900" lon="2.612560">
        <ele>69.017</ele>
        <time>2020-01-27T08:56:22Z</time>
      </trkpt>
      <trkpt lat="39.573960" lon="2.612380">
        <ele>70.018</ele>
        <time>2020-01-27T08:56:42Z</time>
      </trkpt>
      <trkpt lat="39.574050" lon="2.612360">
        <ele>70.008</ele>
        <time>2020-01-27T08:57:02Z</time>
      </trkpt>
      <trkpt lat="39.574120" lon="2.612300">
        <ele>70.047</ele>
        <time>2020-01-27T08:57:22Z</time>
      </trkpt>
      <trkpt lat="39.574180" lon="2.612210">
        <ele>70.068</ele>
        <time>2020-01-27T08:57:42Z</time>
      </trkpt>
      <trkpt lat="39.574210" lon="2.612100">
        <ele>71.092</ele>
        <time>2020-01-27T08:58:02Z</time>
      </trkpt>
      <trkpt lat="39.574210" lon="2.611990">
        <ele>71.029</ele>
        <time>2020-01-27T08:58:22Z</time>
      </trkpt>
      <trkpt lat="39.574190" lon="2.611900">
        <ele>71.084</ele>
        <time>2020-01-27T08:58:42Z</time>
      </trkpt>
      <trkpt lat="39.574160" lon="2.611830">
        <ele>71.070</ele>
        <time>2020-01-27T08:59:02Z</time>
      </trkpt>
      <trkpt lat="39.574080" lon="2.611740">
        <ele>71.048</ele>
        <time>2020-01-27T08:59:22Z</time>
      </trkpt>
      <trkpt lat="39.574070" lon="2.611340">
        <ele>72.051</ele>
        <time>2020-01-27T08:59:42Z</time>
      </trkpt>
      <trkpt lat="39.574200" lon="2.610530">
        <ele>74.081</ele>
        <time>2020-01-27T09:00:02Z</time>
      </trkpt>
      <trkpt lat="39.574250" lon="2.610380">
        <ele>75.061</ele>
        <time>2020-01-27T09:00:22Z</time>
      </trkpt>
      <trkpt lat="39.574340" lon="2.610370">
        <ele>75.017</ele>
        <time>2020-01-27T09:00:42Z</time>
      </trkpt>
      <trkpt lat="39.574410" lon="2.610320">
        <ele>75.008</ele>
        <time>2020-01-27T09:01:02Z</time>
      </trkpt>
      <trkpt lat="39.574470" lon="2.610240">
        <ele>75.082</ele>
        <time>2020-01-27T09:01:22Z</time>
      </trkpt>
      <trkpt lat="39.574510" lon="2.610150">
        <ele>76.073</ele>
        <time>2020-01-27T09:01:42Z</time>
      </trkpt>
      <trkpt lat="39.574520" lon="2.610080">
        <ele>76.077</ele>
        <time>2020-01-27T09:02:02Z</time>
      </trkpt>
      <trkpt lat="39.574510" lon="2.609990">
        <ele>76.044</ele>
        <time>2020-01-27T09:02:22Z</time>
      </trkpt>
      <trkpt lat="39.574490" lon="2.609900">
        <ele>76.079</ele>
        <time>2020-01-27T09:02:42Z</time>
      </trkpt>
      <trkpt lat="39.574450" lon="2.609830">
        <ele>77.045</ele>
        <time>2020-01-27T09:03:02Z</time>
      </trkpt>
      <trkpt lat="39.574400" lon="2.609770">
        <ele>77.093</ele>
        <time>2020-01-27T09:03:22Z</time>
      </trkpt>
      <trkpt lat="39.574320" lon="2.609740">
        <ele>77.026</ele>
        <time>2020-01-27T09:03:42Z</time>
      </trkpt>
      <trkpt lat="39.574290" lon="2.609360">
        <ele>78.028</ele>
        <time>2020-01-27T09:04:02Z</time>
      </trkpt>
      <trkpt lat="39.574320" lon="2.608770">
        <ele>80.089</ele>
        <time>2020-01-27T09:04:22Z</time>
      </trkpt>
      <trkpt lat="39.574330" lon="2.608770">
        <ele>80.017</ele>
        <time>2020-01-27T09:04:42Z</time>
      </trkpt>
      <trkpt lat="39.574320" lon="2.608070">
        <ele>83.008</ele>
        <time>2020-01-27T09:05:02Z</time>
      </trkpt>
      <trkpt lat="39.574220" lon="2.607560">
        <ele>86.016</ele>
        <time>2020-01-27T09:05:22Z</time>
      </trkpt>
      <trkpt lat="39.574050" lon="2.606990">
        <ele>88.067</ele>
        <time>2020-01-27T09:05:42Z</time>
      </trkpt>
      <trkpt lat="39.573940" lon="2.606760">
        <ele>90.081</ele>
        <time>2020-01-27T09:06:02Z</time>
      </trkpt>
      <trkpt lat="39.573930" lon="2.606650">
        <ele>90.038</ele>
        <time>2020-01-27T09:06:22Z</time>
      </trkpt>
      <trkpt lat="39.574000" lon="2.606290">
        <ele>92.093</ele>
        <time>2020-01-27T09:06:42Z</time>
      </trkpt>
      <trkpt lat="39.574110" lon="2.606020">
        <ele>93.049</ele>
        <time>2020-01-27T09:07:02Z</time>
      </trkpt>
      <trkpt lat="39.574160" lon="2.605830">
        <ele>93.037</ele>
        <time>2020-01-27T09:07:22Z</time>
      </trkpt>
      <trkpt lat="39.574270" lon="2.605460">
        <ele>94.040</ele>
        <time>2020-01-27T09:07:42Z</time>
      </trkpt>
      <trkpt lat="39.574340" lon="2.605040">
        <ele>96.019</ele>
        <time>2020-01-27T09:08:02Z</time>
      </trkpt>
      <trkpt lat="39.574410" lon="2.604810">
        <ele>96.009</ele>
        <time>2020-01-27T09:08:22Z</time>
      </trkpt>
      <trkpt lat="39.574610" lon="2.604260">
        <ele>98.019</ele>
        <time>2020-01-27T09:08:42Z</time>
      </trkpt>
      <trkpt lat="39.574760" lon="2.603700">
        <ele>99.008</ele>
        <time>2020-01-27T09:09:02Z</time>
      </trkpt>
      <trkpt lat="39.574830" lon="2.603000">
        <ele>95.055</ele>
        <time>2020-01-27T09:09:22Z</time>
      </trkpt>
      <trkpt lat="39.574940" lon="2.602600">
        <ele>93.046</ele>
        <time>2020-01-27T09:09:42Z</time>
      </trkpt>
      <trkpt lat="39.575010" lon="2.602440">
        <ele>93.070</ele>
        <time>2020-01-27T09:10:02Z</time>
      </trkpt>
      <trkpt lat="39.575140" lon="2.602310">
        <ele>92.027</ele>
        <time>2020-01-27T09:10:22Z</time>
      </trkpt>
      <trkpt lat="39.575410" lon="2.602150">
        <ele>90.042</ele>
        <time>2020-01-27T09:10:42Z</time>
      </trkpt>
      <trkpt lat="39.575580" lon="2.601950">
        <ele>89.068</ele>
        <time>2020-01-27T09:11:02Z</time>
      </trkpt>
      <trkpt lat="39.576080" lon="2.600470">
        <ele>91.076</ele>
        <time>2020-01-27T09:11:22Z</time>
      </trkpt>
      <trkpt lat="39.576140" lon="2.600210">
        <ele>92.059</ele>
        <time>2020-01-27T09:11:42Z</time>
      </trkpt>
      <trkpt lat="39.576230" lon="2.599630">
        <ele>94.095</ele>
        <time>2020-01-27T09:12:02Z</time>
      </trkpt>
      <trkpt lat="39.576130" lon="2.599040">
        <ele>95.049</ele>
        <time>2020-01-27T09:12:22Z</time>
      </trkpt>
      <trkpt lat="39.576060" lon="2.598690">
        <ele>97.023</ele>
        <time>2020-01-27T09:12:42Z</time>
      </trkpt>
      <trkpt lat="39.576050" lon="2.598090">
        <ele>99.008</ele>
        <time>2020-01-27T09:13:02Z</time>
      </trkpt>
      <trkpt lat="39.576080" lon="2.597810">
        <ele>100.033</ele>
        <time>2020-01-27T09:13:22Z</time>
      </trkpt>
      <trkpt lat="39.576090" lon="2.597480">
        <ele>101.054</ele>
        <time>2020-01-27T09:13:42Z</time>
      </trkpt>
      <trkpt lat="39.576050" lon="2.596960">
        <ele>102.058</ele>
        <time>2020-01-27T09:14:02Z</time>
      </trkpt>
      <trkpt lat="39.576090" lon="2.596820">
        <ele>103.045</ele>
        <time>2020-01-27T09:14:22Z</time>
      </trkpt>
      <trkpt lat="39.576220" lon="2.596540">
        <ele>105.030</ele>
        <time>2020-01-27T09:14:42Z</time>
      </trkpt>
      <trkpt lat="39.576400" lon="2.596180">
        <ele>108.066</ele>
        <time>2020-01-27T09:15:02Z</time>
      </trkpt>
      <trkpt lat="39.576490" lon="2.596100">
        <ele>109.054</ele>
        <time>2020-01-27T09:15:22Z</time>
      </trkpt>
      <trkpt lat="39.576570" lon="2.596120">
        <ele>109.017</ele>
        <time>2020-01-27T09:15:42Z</time>
      </trkpt>
      <trkpt lat="39.576680" lon="2.596240">
        <ele>111.092</ele>
        <time>2020-01-27T09:16:02Z</time>
      </trkpt>
      <trkpt lat="39.576750" lon="2.596360">
        <ele>112.073</ele>
        <time>2020-01-27T09:16:22Z</time>
      </trkpt>
      <trkpt lat="39.576800" lon="2.596390">
        <ele>112.020</ele>
        <time>2020-01-27T09:16:42Z</time>
      </trkpt>
      <trkpt lat="39.576840" lon="2.596360">
        <ele>113.008</ele>
        <time>2020-01-27T09:17:02Z</time>
      </trkpt>
      <trkpt lat="39.576830" lon="2.596260">
        <ele>113.053</ele>
        <time>2020-01-27T09:17:22Z</time>
      </trkpt>
      <trkpt lat="39.576710" lon="2.595970">
        <ele>115.014</ele>
        <time>2020-01-27T09:17:42Z</time>
      </trkpt>
      <trkpt lat="39.576410" lon="2.595130">
        <ele>122.058</ele>
        <time>2020-01-27T09:18:02Z</time>
      </trkpt>
      <trkpt lat="39.576260" lon="2.594810">
        <ele>124.045</ele>
        <time>2020-01-27T09:18:22Z</time>
      </trkpt>
      <trkpt lat="39.576120" lon="2.594680">
        <ele>125.030</ele>
        <time>2020-01-27T09:18:42Z</time>
      </trkpt>
      <trkpt lat="39.575960" lon="2.594610">
        <ele>126.096</ele>
        <time>2020-01-27T09:19:02Z</time>
      </trkpt>
      <trkpt lat="39.575690" lon="2.594580">
        <ele>128.014</ele>
        <time>2020-01-27T09:19:22Z</time>
      </trkpt>
      <trkpt lat="39.575600" lon="2.594540">
        <ele>129.047</ele>
        <time>2020-01-27T09:19:42Z</time>
      </trkpt>
      <trkpt lat="39.575590" lon="2.594450">
        <ele>129.056</ele>
        <time>2020-01-27T09:20:02Z</time>
      </trkpt>
      <trkpt lat="39.575650" lon="2.594330">
        <ele>130.059</ele>
        <time>2020-01-27T09:20:22Z</time>
      </trkpt>
      <trkpt lat="39.576000" lon="2.594030">
        <ele>133.014</ele>
        <time>2020-01-27T09:20:42Z</time>
      </trkpt>
      <trkpt lat="39.576150" lon="2.593990">
        <ele>134.008</ele>
        <time>2020-01-27T09:21:02Z</time>
      </trkpt>
      <trkpt lat="39.576390" lon="2.593880">
        <ele>136.029</ele>
        <time>2020-01-27T09:21:22Z</time>
      </trkpt>
      <trkpt lat="39.576760" lon="2.593430">
        <ele>138.090</ele>
        <time>2020-01-27T09:21:42Z</time>
      </trkpt>
      <trkpt lat="39.576870" lon="2.593020">
        <ele>140.064</ele>
        <time>2020-01-27T09:22:02Z</time>
      </trkpt>
      <trkpt lat="39.576920" lon="2.592970">
        <ele>140.091</ele>
        <time>2020-01-27T09:22:22Z</time>
      </trkpt>
      <trkpt lat="39.576960" lon="2.592990">
        <ele>140.046</ele>
        <time>2020-01-27T09:22:42Z</time>
      </trkpt>
      <trkpt lat="39.577020" lon="2.593050">
        <ele>141.072</ele>
        <time>2020-01-27T09:23:02Z</time>
      </trkpt>
      <trkpt lat="39.577030" lon="2.593150">
        <ele>141.080</ele>
        <time>2020-01-27T09:23:22Z</time>
      </trkpt>
      <trkpt lat="39.577070" lon="2.593270">
        <ele>141.053</ele>
        <time>2020-01-27T09:23:42Z</time>
      </trkpt>
      <trkpt lat="39.577170" lon="2.593290">
        <ele>142.068</ele>
        <time>2020-01-27T09:24:02Z</time>
      </trkpt>
      <trkpt lat="39.577220" lon="2.593230">
        <ele>142.042</ele>
        <time>2020-01-27T09:24:22Z</time>
      </trkpt>
      <trkpt lat="39.577270" lon="2.593160">
        <ele>143.026</ele>
        <time>2020-01-27T09:24:42Z</time>
      </trkpt>
      <trkpt lat="39.577280" lon="2.592970">
        <ele>143.008</ele>
        <time>2020-01-27T09:25:02Z</time>
      </trkpt>
      <trkpt lat="39.577250" lon="2.592750">
        <ele>144.050</ele>
        <time>2020-01-27T09:25:22Z</time>
      </trkpt>
      <trkpt lat="39.577230" lon="2.592490">
        <ele>145.071</ele>
        <time>2020-01-27T09:25:42Z</time>
      </trkpt>
      <trkpt lat="39.577490" lon="2.590930">
        <ele>152.015</ele>
        <time>2020-01-27T09:26:02Z</time>
      </trkpt>
      <trkpt lat="39.577570" lon="2.590830">
        <ele>153.072</ele>
        <time>2020-01-27T09:26:22Z</time>
      </trkpt>
      <trkpt lat="39.577960" lon="2.590110">
        <ele>157.037</ele>
        <time>2020-01-27T09:26:42Z</time>
      </trkpt>
      <trkpt lat="39.578190" lon="2.589770">
        <ele>157.083</ele>
        <time>2020-01-27T09:27:02Z</time>
      </trkpt>
      <trkpt lat="39.579170" lon="2.587340">
        <ele>156.071</ele>
        <time>2020-01-27T09:27:22Z</time>
      </trkpt>
      <trkpt lat="39.579200" lon="2.586660">
        <ele>158.094</ele>
        <time>2020-01-27T09:27:42Z</time>
      </trkpt>
      <trkpt lat="39.579280" lon="2.586140">
        <ele>160.076</ele>
        <time>2020-01-27T09:28:02Z</time>
      </trkpt>
      <trkpt lat="39.579420" lon="2.585710">
        <ele>162.090</ele>
        <time>2020-01-27T09:28:22Z</time>
      </trkpt>
      <trkpt lat="39.580020" lon="2.584060">
        <ele>173.019</ele>
        <time>2020-01-27T09:28:42Z</time>
      </trkpt>
      <trkpt lat="39.580090" lon="2.583960">
        <ele>174.008</ele>
        <time>2020-01-27T09:29:02Z</time>
      </trkpt>
      <trkpt lat="39.580180" lon="2.583860">
        <ele>175.041</ele>
        <time>2020-01-27T09:29:22Z</time>
      </trkpt>
      <trkpt lat="39.580300" lon="2.583810">
        <ele>177.072</ele>
        <time>2020-01-27T09:29:42Z</time>
      </trkpt>
      <trkpt lat="39.580600" lon="2.583790">
        <ele>179.056</ele>
        <time>2020-01-27T09:30:02Z</time>
      </trkpt>
      <trkpt lat="39.580700" lon="2.583740">
        <ele>180.033</ele>
        <time>2020-01-27T09:30:22Z</time>
      </trkpt>
      <trkpt lat="39.580760" lon="2.583670">
        <ele>181.098</ele>
        <time>2020-01-27T09:30:42Z</time>
      </trkpt>
      <trkpt lat="39.580810" lon="2.583400">
        <ele>183.064</ele>
        <time>2020-01-27T09:31:02Z</time>
      </trkpt>
      <trkpt lat="39.580850" lon="2.582820">
        <ele>186.022</ele>
        <time>2020-01-27T09:31:22Z</time>
      </trkpt>
      <trkpt lat="39.580950" lon="2.582030">
        <ele>191.065</ele>
        <time>2020-01-27T09:31:42Z</time>
      </trkpt>
      <trkpt lat="39.580980" lon="2.581210">
        <ele>196.057</ele>
        <time>2020-01-27T09:32:02Z</time>
      </trkpt>
      <trkpt lat="39.580870" lon="2.580660">
        <ele>199.000</ele>
        <time>2020-01-27T09:32:22Z</time>
      </trkpt>
      <trkpt lat="39.580800" lon="2.580010">
        <ele>205.020</ele>
        <time>2020-01-27T09:32:42Z</time>
      </trkpt>
      <trkpt lat="39.580790" lon="2.579540">
        <ele>209.008</ele>
        <time>2020-01-27T09:33:02Z</time>
      </trkpt>
      <trkpt lat="39.580700" lon="2.579200">
        <ele>212.099</ele>
        <time>2020-01-27T09:33:22Z</time>
      </trkpt>
      <trkpt lat="39.580510" lon="2.578770">
        <ele>216.040</ele>
        <time>2020-01-27T09:33:42Z</time>
      </trkpt>
      <trkpt lat="39.580400" lon="2.578650">
        <ele>217.014</ele>
        <time>2020-01-27T09:34:02Z</time>
      </trkpt>
      <trkpt lat="39.580230" lon="2.578520">
        <ele>220.071</ele>
        <time>2020-01-27T09:34:22Z</time>
      </trkpt>
      <trkpt lat="39.580230" lon="2.578430">
        <ele>220.096</ele>
        <time>2020-01-27T09:34:42Z</time>
      </trkpt>
      <trkpt lat="39.580300" lon="2.578340">
        <ele>221.072</ele>
        <time>2020-01-27T09:35:02Z</time>
      </trkpt>
      <trkpt lat="39.580400" lon="2.578330">
        <ele>222.030</ele>
        <time>2020-01-27T09:35:22Z</time>
      </trkpt>
      <trkpt lat="39.580570" lon="2.578380">
        <ele>224.053</ele>
        <time>2020-01-27T09:35:42Z</time>
      </trkpt>
      <trkpt lat="39.580630" lon="2.578340">
        <ele>224.052</ele>
        <time>2020-01-27T09:36:02Z</time>
      </trkpt>
      <trkpt lat="39.580670" lon="2.578220">
        <ele>225.053</ele>
        <time>2020-01-27T09:36:22Z</time>
      </trkpt>
      <trkpt lat="39.580620" lon="2.578110">
        <ele>226.008</ele>
        <time>2020-01-27T09:36:42Z</time>
      </trkpt>
      <trkpt lat="39.580500" lon="2.578040">
        <ele>227.008</ele>
        <time>2020-01-27T09:37:02Z</time>
      </trkpt>
      <trkpt lat="39.580430" lon="2.577950">
        <ele>228.069</ele>
        <time>2020-01-27T09:37:22Z</time>
      </trkpt>
      <trkpt lat="39.580140" lon="2.577750">
        <ele>231.090</ele>
        <time>2020-01-27T09:37:42Z</time>
      </trkpt>
      <trkpt lat="39.579760" lon="2.577610">
        <ele>235.074</ele>
        <time>2020-01-27T09:38:02Z</time>
      </trkpt>
      <trkpt lat="39.579660" lon="2.577630">
        <ele>236.041</ele>
        <time>2020-01-27T09:38:22Z</time>
      </trkpt>
      <trkpt lat="39.579460" lon="2.577820">
        <ele>238.046</ele>
        <time>2020-01-27T09:38:42Z</time>
      </trkpt>
      <trkpt lat="39.579390" lon="2.577930">
        <ele>239.032</ele>
        <time>2020-01-27T09:39:02Z</time>
      </trkpt>
      <trkpt lat="39.579360" lon="2.578260">
        <ele>240.090</ele>
        <time>2020-01-27T09:39:22Z</time>
      </trkpt>
      <trkpt lat="39.579350" lon="2.578470">
        <ele>241.093</ele>
        <time>2020-01-27T09:39:42Z</time>
      </trkpt>
      <trkpt lat="39.579400" lon="2.579040">
        <ele>242.059</ele>
        <time>2020-01-27T09:40:02Z</time>
      </trkpt>
      <trkpt lat="39.579380" lon="2.579110">
        <ele>243.003</ele>
        <time>2020-01-27T09:40:22Z</time>
      </trkpt>
      <trkpt lat="39.579310" lon="2.579110">
        <ele>243.023</ele>
        <time>2020-01-27T09:40:42Z</time>
      </trkpt>
      <trkpt lat="39.579140" lon="2.578960">
        <ele>244.008</ele>
        <time>2020-01-27T09:41:02Z</time>
      </trkpt>
      <trkpt lat="39.579050" lon="2.578960">
        <ele>244.029</ele>
        <time>2020-01-27T09:41:22Z</time>
      </trkpt>
      <trkpt lat="39.578860" lon="2.579050">
        <ele>245.010</ele>
        <time>2020-01-27T09:41:42Z</time>
      </trkpt>
      <trkpt lat="39.578710" lon="2.579090">
        <ele>245.074</ele>
        <time>2020-01-27T09:42:02Z</time>
      </trkpt>
      <trkpt lat="39.578660" lon="2.579050">
        <ele>246.011</ele>
        <time>2020-01-27T09:42:22Z</time>
      </trkpt>
      <trkpt lat="39.578690" lon="2.578940">
        <ele>246.066</ele>
        <time>2020-01-27T09:42:42Z</time>
      </trkpt>
      <trkpt lat="39.578770" lon="2.578900">
        <ele>246.012</ele>
        <time>2020-01-27T09:43:02Z</time>
      </trkpt>
      <trkpt lat="39.578890" lon="2.578800">
        <ele>248.090</ele>
        <time>2020-01-27T09:43:22Z</time>
      </trkpt>
      <trkpt lat="39.578920" lon="2.578640">
        <ele>250.053</ele>
        <time>2020-01-27T09:43:42Z</time>
      </trkpt>
      <trkpt lat="39.578920" lon="2.578510">
        <ele>251.078</ele>
        <time>2020-01-27T09:44:02Z</time>
      </trkpt>
      <trkpt lat="39.578900" lon="2.578350">
        <ele>253.033</ele>
        <time>2020-01-27T09:44:22Z</time>
      </trkpt>
      <trkpt lat="39.578810" lon="2.578020">
        <ele>256.026</ele>
        <time>2020-01-27T09:44:42Z</time>
      </trkpt>
      <trkpt lat="39.578910" lon="2.577140">
        <ele>266.008</ele>
        <time>2020-01-27T09:45:02Z</time>
      </trkpt>
      <trkpt lat="39.579090" lon="2.576560">
        <ele>272.091</ele>
        <time>2020-01-27T09:45:22Z</time>
      </trkpt>
      <trkpt lat="39.579150" lon="2.576230">
        <ele>275.042</ele>
        <time>2020-01-27T09:45:42Z</time>
      </trkpt>
      <trkpt lat="39.579060" lon="2.575790">
        <ele>277.096</ele>
        <time>2020-01-27T09:46:02Z</time>
      </trkpt>
      <trkpt lat="39.579070" lon="2.575670">
        <ele>277.023</ele>
        <time>2020-01-27T09:46:22Z</time>
      </trkpt>
      <trkpt lat="39.579120" lon="2.575570">
        <ele>277.028</ele>
        <time>2020-01-27T09:46:42Z</time>
      </trkpt>
      <trkpt lat="39.579170" lon="2.575540">
        <ele>278.064</ele>
        <time>2020-01-27T09:47:02Z</time>
      </trkpt>
      <trkpt lat="39.579240" lon="2.575580">
        <ele>278.042</ele>
        <time>2020-01-27T09:47:22Z</time>
      </trkpt>
      <trkpt lat="39.579440" lon="2.575730">
        <ele>279.095</ele>
        <time>2020-01-27T09:47:42Z</time>
      </trkpt>
      <trkpt lat="39.579580" lon="2.575950">
        <ele>280.014</ele>
        <time>2020-01-27T09:48:02Z</time>
      </trkpt>
      <trkpt lat="39.579660" lon="2.576030">
        <ele>280.054</ele>
        <time>2020-01-27T09:48:22Z</time>
      </trkpt>
      <trkpt lat="39.579750" lon="2.576100">
        <ele>281.009</ele>
        <time>2020-01-27T09:48:42Z</time>
      </trkpt>
      <trkpt lat="39.579850" lon="2.576110">
        <ele>281.008</ele>
        <time>2020-01-27T09:49:02Z</time>
      </trkpt>
      <trkpt lat="39.579980" lon="2.576070">
        <ele>282.075</ele>
        <time>2020-01-27T09:49:22Z</time>
      </trkpt>
      <trkpt lat="39.580100" lon="2.575970">
        <ele>283.096</ele>
        <time>2020-01-27T09:49:42Z</time>
      </trkpt>
      <trkpt lat="39.580180" lon="2.575850">
        <ele>283.020</ele>
        <time>2020-01-27T09:50:02Z</time>
      </trkpt>
      <trkpt lat="39.580240" lon="2.575690">
        <ele>284.077</ele>
        <time>2020-01-27T09:50:22Z</time>
      </trkpt>
      <trkpt lat="39.580250" lon="2.575590">
        <ele>284.092</ele>
        <time>2020-01-27T09:50:42Z</time>
      </trkpt>
      <trkpt lat="39.580220" lon="2.575530">
        <ele>284.098</ele>
        <time>2020-01-27T09:51:02Z</time>
      </trkpt>
      <trkpt lat="39.580180" lon="2.575530">
        <ele>284.036</ele>
        <time>2020-01-27T09:51:22Z</time>
      </trkpt>
      <trkpt lat="39.580120" lon="2.575580">
        <ele>285.059</ele>
        <time>2020-01-27T09:51:42Z</time>
      </trkpt>
      <trkpt lat="39.580010" lon="2.575790">
        <ele>285.067</ele>
        <time>2020-01-27T09:52:02Z</time>
      </trkpt>
      <trkpt lat="39.579950" lon="2.575880">
        <ele>286.081</ele>
        <time>2020-01-27T09:52:22Z</time>
      </trkpt>
      <trkpt lat="39.579890" lon="2.575900">
        <ele>286.019</ele>
        <time>2020-01-27T09:52:42Z</time>
      </trkpt>
      <trkpt lat="39.579810" lon="2.575890">
        <ele>286.008</ele>
        <time>2020-01-27T09:53:02Z</time>
      </trkpt>
      <trkpt lat="39.579730" lon="2.575770">
        <ele>287.090</ele>
        <time>2020-01-27T09:53:22Z</time>
      </trkpt>
      <trkpt lat="39.579520" lon="2.575380">
        <ele>288.031</ele>
        <time>2020-01-27T09:53:42Z</time>
      </trkpt>
      <trkpt lat="39.579290" lon="2.575000">
        <ele>290.055</ele>
        <time>2020-01-27T09:54:02Z</time>
      </trkpt>
      <trkpt lat="39.579320" lon="2.574950">
        <ele>290.032</ele>
        <time>2020-01-27T09:54:22Z</time>
      </trkpt>
      <trkpt lat="39.579360" lon="2.574940">
        <ele>290.057</ele>
        <time>2020-01-27T09:54:42Z</time>
      </trkpt>
      <trkpt lat="39.579550" lon="2.575210">
        <ele>291.083</ele>
        <time>2020-01-27T09:55:02Z</time>
      </trkpt>
      <trkpt lat="39.579620" lon="2.575260">
        <ele>292.021</ele>
        <time>2020-01-27T09:55:22Z</time>
      </trkpt>
      <trkpt lat="39.579700" lon="2.575290">
        <ele>292.034</ele>
        <time>2020-01-27T09:55:42Z</time>
      </trkpt>
      <trkpt lat="39.579790" lon="2.575300">
        <ele>293.061</ele>
        <time>2020-01-27T09:56:02Z</time>
      </trkpt>
      <trkpt lat="39.580190" lon="2.575200">
        <ele>298.021</ele>
        <time>2020-01-27T09:56:22Z</time>
      </trkpt>
      <trkpt lat="39.580470" lon="2.575170">
        <ele>301.013</ele>
        <time>2020-01-27T09:56:42Z</time>
      </trkpt>
      <trkpt lat="39.580700" lon="2.575120">
        <ele>303.008</ele>
        <time>2020-01-27T09:57:02Z</time>
      </trkpt>
      <trkpt lat="39.580840" lon="2.575200">
        <ele>305.030</ele>
        <time>2020-01-27T09:57:22Z</time>
      </trkpt>
      <trkpt lat="39.580920" lon="2.575300">
        <ele>306.021</ele>
        <time>2020-01-27T09:57:42Z</time>
      </trkpt>
      <trkpt lat="39.581000" lon="2.575370">
        <ele>307.025</ele>
        <time>2020-01-27T09:58:02Z</time>
      </trkpt>
      <trkpt lat="39.581060" lon="2.575340">
        <ele>308.012</ele>
        <time>2020-01-27T09:58:22Z</time>
      </trkpt>
      <trkpt lat="39.581030" lon="2.575230">
        <ele>309.067</ele>
        <time>2020-01-27T09:58:42Z</time>
      </trkpt>
      <trkpt lat="39.580800" lon="2.574890">
        <ele>313.093</ele>
        <time>2020-01-27T09:59:02Z</time>
      </trkpt>
      <trkpt lat="39.580580" lon="2.574660">
        <ele>315.011</ele>
        <time>2020-01-27T09:59:22Z</time>
      </trkpt>
      <trkpt lat="39.580630" lon="2.574510">
        <ele>316.074</ele>
        <time>2020-01-27T09:59:42Z</time>
      </trkpt>
      <trkpt lat="39.580700" lon="2.574480">
        <ele>316.046</ele>
        <time>2020-01-27T10:00:02Z</time>
      </trkpt>
      <trkpt lat="39.580760" lon="2.574480">
        <ele>317.088</ele>
        <time>2020-01-27T10:00:22Z</time>
      </trkpt>
      <trkpt lat="39.580850" lon="2.574550">
        <ele>317.016</ele>
        <time>2020-01-27T10:00:42Z</time>
      </trkpt>
      <trkpt lat="39.581080" lon="2.574830">
        <ele>319.008</ele>
        <time>2020-01-27T10:01:02Z</time>
      </trkpt>
      <trkpt lat="39.581140" lon="2.574850">
        <ele>320.038</ele>
        <time>2020-01-27T10:01:22Z</time>
      </trkpt>
      <trkpt lat="39.581190" lon="2.574770">
        <ele>320.019</ele>
        <time>2020-01-27T10:01:42Z</time>
      </trkpt>
      <trkpt lat="39.581150" lon="2.574680">
        <ele>321.033</ele>
        <time>2020-01-27T10:02:02Z</time>
      </trkpt>
      <trkpt lat="39.580830" lon="2.574310">
        <ele>323.020</ele>
        <time>2020-01-27T10:02:22Z</time>
      </trkpt>
      <trkpt lat="39.580570" lon="2.574170">
        <ele>325.045</ele>
        <time>2020-01-27T10:02:42Z</time>
      </trkpt>
      <trkpt lat="39.580530" lon="2.574080">
        <ele>326.011</ele>
        <time>2020-01-27T10:03:02Z</time>
      </trkpt>
      <trkpt lat="39.580570" lon="2.573620">
        <ele>327.059</ele>
        <time>2020-01-27T10:03:22Z</time>
      </trkpt>
      <trkpt lat="39.580450" lon="2.573120">
        <ele>327.012</ele>
        <time>2020-01-27T10:03:42Z</time>
      </trkpt>
      <trkpt lat="39.580300" lon="2.572650">
        <ele>328.042</ele>
        <time>2020-01-27T10:04:02Z</time>
      </trkpt>
      <trkpt lat="39.580060" lon="2.571780">
        <ele>328.022</ele>
        <time>2020-01-27T10:04:22Z</time>
      </trkpt>
      <trkpt lat="39.579920" lon="2.571120">
        <ele>331.014</ele>
        <time>2020-01-27T10:04:42Z</time>
      </trkpt>
      <trkpt lat="39.579890" lon="2.570600">
        <ele>335.008</ele>
        <time>2020-01-27T10:05:02Z</time>
      </trkpt>
      <trkpt lat="39.580290" lon="2.570000">
        <ele>340.018</ele>
        <time>2020-01-27T10:05:22Z</time>
      </trkpt>
      <trkpt lat="39.580350" lon="2.569920">
        <ele>341.059</ele>
        <time>2020-01-27T10:05:42Z</time>
      </trkpt>
      <trkpt lat="39.580350" lon="2.569810">
        <ele>342.033</ele>
        <time>2020-01-27T10:06:02Z</time>
      </trkpt>
      <trkpt lat="39.580200" lon="2.569530">
        <ele>344.070</ele>
        <time>2020-01-27T10:06:22Z</time>
      </trkpt>
      <trkpt lat="39.579880" lon="2.569190">
        <ele>348.035</ele>
        <time>2020-01-27T10:06:42Z</time>
      </trkpt>
      <trkpt lat="39.579870" lon="2.569040">
        <ele>349.031</ele>
        <time>2020-01-27T10:07:02Z</time>
      </trkpt>
      <trkpt lat="39.579900" lon="2.568930">
        <ele>349.079</ele>
        <time>2020-01-27T10:07:22Z</time>
      </trkpt>
      <trkpt lat="39.580060" lon="2.568810">
        <ele>350.042</ele>
        <time>2020-01-27T10:07:42Z</time>
      </trkpt>
      <trkpt lat="39.580270" lon="2.568700">
        <ele>351.074</ele>
        <time>2020-01-27T10:08:02Z</time>
      </trkpt>
      <trkpt lat="39.580670" lon="2.568450">
        <ele>354.056</ele>
        <time>2020-01-27T10:08:22Z</time>
      </trkpt>
      <trkpt lat="39.580870" lon="2.568200">
        <ele>355.021</ele>
        <time>2020-01-27T10:08:42Z</time>
      </trkpt>
      <trkpt lat="39.581250" lon="2.567390">
        <ele>359.008</ele>
        <time>2020-01-27T10:09:02Z</time>
      </trkpt>
      <trkpt lat="39.581320" lon="2.566710">
        <ele>364.061</ele>
        <time>2020-01-27T10:09:22Z</time>
      </trkpt>
      <trkpt lat="39.581290" lon="2.566380">
        <ele>366.052</ele>
        <time>2020-01-27T10:09:42Z</time>
      </trkpt>
      <trkpt lat="39.581340" lon="2.565880">
        <ele>369.026</ele>
        <time>2020-01-27T10:10:02Z</time>
      </trkpt>
      <trkpt lat="39.581620" lon="2.565110">
        <ele>375.093</ele>
        <time>2020-01-27T10:10:22Z</time>
      </trkpt>
      <trkpt lat="39.581680" lon="2.564750">
        <ele>375.048</ele>
        <time>2020-01-27T10:10:42Z</time>
      </trkpt>
      <trkpt lat="39.581780" lon="2.564390">
        <ele>374.084</ele>
        <time>2020-01-27T10:11:02Z</time>
      </trkpt>
      <trkpt lat="39.581930" lon="2.564190">
        <ele>373.092</ele>
        <time>2020-01-27T10:11:22Z</time>
      </trkpt>
      <trkpt lat="39.582000" lon="2.564050">
        <ele>373.075</ele>
        <time>2020-01-27T10:11:42Z</time>
      </trkpt>
      <trkpt lat="39.581940" lon="2.563780">
        <ele>372.094</ele>
        <time>2020-01-27T10:12:02Z</time>
      </trkpt>
      <trkpt lat="39.581920" lon="2.563550">
        <ele>372.057</ele>
        <time>2020-01-27T10:12:22Z</time>
      </trkpt>
      <trkpt lat="39.582050" lon="2.563140">
        <ele>371.022</ele>
        <time>2020-01-27T10:12:42Z</time>
      </trkpt>
      <trkpt lat="39.582180" lon="2.562780">
        <ele>370.008</ele>
        <time>2020-01-27T10:13:02Z</time>
      </trkpt>
      <trkpt lat="39.582270" lon="2.562630">
        <ele>369.083</ele>
        <time>2020-01-27T10:13:22Z</time>
      </trkpt>
      <trkpt lat="39.582440" lon="2.562490">
        <ele>369.054</ele>
        <time>2020-01-27T10:13:42Z</time>
      </trkpt>
      <trkpt lat="39.582460" lon="2.562440">
        <ele>369.088</ele>
        <time>2020-01-27T10:14:02Z</time>
      </trkpt>
      <trkpt lat="39.582450" lon="2.562390">
        <ele>369.065</ele>
        <time>2020-01-27T10:14:22Z</time>
      </trkpt>
      <trkpt lat="39.582350" lon="2.562390">
        <ele>369.030</ele>
        <time>2020-01-27T10:14:42Z</time>
      </trkpt>
      <trkpt lat="39.582250" lon="2.562460">
        <ele>368.026</ele>
        <time>2020-01-27T10:15:02Z</time>
      </trkpt>
      <trkpt lat="39.582160" lon="2.562560">
        <ele>368.054</ele>
        <time>2020-01-27T10:15:22Z</time>
      </trkpt>
      <trkpt lat="39.581790" lon="2.562770">
        <ele>367.097</ele>
        <time>2020-01-27T10:15:42Z</time>
      </trkpt>
      <trkpt lat="39.581660" lon="2.562790">
        <ele>367.072</ele>
        <time>2020-01-27T10:16:02Z</time>
      </trkpt>
      <trkpt lat="39.581270" lon="2.562780">
        <ele>366.013</ele>
        <time>2020-01-27T10:16:22Z</time>
      </trkpt>
      <trkpt lat="39.580790" lon="2.562680">
        <ele>364.014</ele>
        <time>2020-01-27T10:16:42Z</time>
      </trkpt>
      <trkpt lat="39.580390" lon="2.562470">
        <ele>361.008</ele>
        <time>2020-01-27T10:17:02Z</time>
      </trkpt>
      <trkpt lat="39.580350" lon="2.562400">
        <ele>360.041</ele>
        <time>2020-01-27T10:17:22Z</time>
      </trkpt>
      <trkpt lat="39.580330" lon="2.562290">
        <ele>359.052</ele>
        <time>2020-01-27T10:17:42Z</time>
      </trkpt>
      <trkpt lat="39.580370" lon="2.562210">
        <ele>359.066</ele>
        <time>2020-01-27T10:18:02Z</time>
      </trkpt>
      <trkpt lat="39.580430" lon="2.562130">
        <ele>358.043</ele>
        <time>2020-01-27T10:18:22Z</time>
      </trkpt>
      <trkpt lat="39.580710" lon="2.561870">
        <ele>355.078</ele>
        <time>2020-01-27T10:18:42Z</time>
      </trkpt>
      <trkpt lat="39.581020" lon="2.561620">
        <ele>352.074</ele>
        <time>2020-01-27T10:19:02Z</time>
      </trkpt>
      <trkpt lat="39.581070" lon="2.561520">
        <ele>351.082</ele>
        <time>2020-01-27T10:19:22Z</time>
      </trkpt>
      <trkpt lat="39.581050" lon="2.561340">
        <ele>350.045</ele>
        <time>2020-01-27T10:19:42Z</time>
      </trkpt>
      <trkpt lat="39.581080" lon="2.561260">
        <ele>349.054</ele>
        <time>2020-01-27T10:20:02Z</time>
      </trkpt>
      <trkpt lat="39.581130" lon="2.561280">
        <ele>348.056</ele>
        <time>2020-01-27T10:20:22Z</time>
      </trkpt>
      <trkpt lat="39.581170" lon="2.561340">
        <ele>348.011</ele>
        <time>2020-01-27T10:20:42Z</time>
      </trkpt>
      <trkpt lat="39.581150" lon="2.561610">
        <ele>346.008</ele>
        <time>2020-01-27T10:21:02Z</time>
      </trkpt>
      <trkpt lat="39.581050" lon="2.561840">
        <ele>345.089</ele>
        <time>2020-01-27T10:21:22Z</time>
      </trkpt>
      <trkpt lat="39.580950" lon="2.562010">
        <ele>345.080</ele>
        <time>2020-01-27T10:21:42Z</time>
      </trkpt>
      <trkpt lat="39.580950" lon="2.562080">
        <ele>345.034</ele>
        <time>2020-01-27T10:22:02Z</time>
      </trkpt>
      <trkpt lat="39.580970" lon="2.562200">
        <ele>344.041</ele>
        <time>2020-01-27T10:22:22Z</time>
      </trkpt>
      <trkpt lat="39.581160" lon="2.562270">
        <ele>343.046</ele>
        <time>2020-01-27T10:22:42Z</time>
      </trkpt>
      <trkpt lat="39.581360" lon="2.562240">
        <ele>343.042</ele>
        <time>2020-01-27T10:23:02Z</time>
      </trkpt>
      <trkpt lat="39.581640" lon="2.562150">
        <ele>342.060</ele>
        <time>2020-01-27T10:23:22Z</time>
      </trkpt>
      <trkpt lat="39.581740" lon="2.562060">
        <ele>341.063</ele>
        <time>2020-01-27T10:23:42Z</time>
      </trkpt>
      <trkpt lat="39.581870" lon="2.561880">
        <ele>340.081</ele>
        <time>2020-01-27T10:24:02Z</time>
      </trkpt>
      <trkpt lat="39.582090" lon="2.561640">
        <ele>339.061</ele>
        <time>2020-01-27T10:24:22Z</time>
      </trkpt>
      <trkpt lat="39.582440" lon="2.561460">
        <ele>337.017</ele>
        <time>2020-01-27T10:24:42Z</time>
      </trkpt>
      <trkpt lat="39.582490" lon="2.561280">
        <ele>335.008</ele>
        <time>2020-01-27T10:25:02Z</time>
      </trkpt>
      <trkpt lat="39.582490" lon="2.561110">
        <ele>334.062</ele>
        <time>2020-01-27T10:25:22Z</time>
      </trkpt>
      <trkpt lat="39.582400" lon="2.560730">
        <ele>332.093</ele>
        <time>2020-01-27T10:25:42Z</time>
      </trkpt>
      <trkpt lat="39.582410" lon="2.560610">
        <ele>331.017</ele>
        <time>2020-01-27T10:26:02Z</time>
      </trkpt>
      <trkpt lat="39.582580" lon="2.560450">
        <ele>329.054</ele>
        <time>2020-01-27T10:26:22Z</time>
      </trkpt>
      <trkpt lat="39.582760" lon="2.560370">
        <ele>327.059</ele>
        <time>2020-01-27T10:26:42Z</time>
      </trkpt>
      <trkpt lat="39.582980" lon="2.560250">
        <ele>325.045</ele>
        <time>2020-01-27T10:27:02Z</time>
      </trkpt>
      <trkpt lat="39.583270" lon="2.560120">
        <ele>322.033</ele>
        <time>2020-01-27T10:27:22Z</time>
      </trkpt>
      <trkpt lat="39.583530" lon="2.560140">
        <ele>320.056</ele>
        <time>2020-01-27T10:27:42Z</time>
      </trkpt>
      <trkpt lat="39.583620" lon="2.560190">
        <ele>320.013</ele>
        <time>2020-01-27T10:28:02Z</time>
      </trkpt>
      <trkpt lat="39.584030" lon="2.560310">
        <ele>320.043</ele>
        <time>2020-01-27T10:28:22Z</time>
      </trkpt>
      <trkpt lat="39.584280" lon="2.560380">
        <ele>319.007</ele>
        <time>2020-01-27T10:28:42Z</time>
      </trkpt>
      <trkpt lat="39.584710" lon="2.560430">
        <ele>319.008</ele>
        <time>2020-01-27T10:29:02Z</time>
      </trkpt>
      <trkpt lat="39.584880" lon="2.560470">
        <ele>318.045</ele>
        <time>2020-01-27T10:29:22Z</time>
      </trkpt>
      <trkpt lat="39.584960" lon="2.560600">
        <ele>318.056</ele>
        <time>2020-01-27T10:29:42Z</time>
      </trkpt>
      <trkpt lat="39.585030" lon="2.560950">
        <ele>318.060</ele>
        <time>2020-01-27T10:30:02Z</time>
      </trkpt>
      <trkpt lat="39.585110" lon="2.561110">
        <ele>318.027</ele>
        <time>2020-01-27T10:30:22Z</time>
      </trkpt>
      <trkpt lat="39.585230" lon="2.561190">
        <ele>317.062</ele>
        <time>2020-01-27T10:30:42Z</time>
      </trkpt>
      <trkpt lat="39.585620" lon="2.561220">
        <ele>315.018</ele>
        <time>2020-01-27T10:31:02Z</time>
      </trkpt>
      <trkpt lat="39.586020" lon="2.561470">
        <ele>312.046</ele>
        <time>2020-01-27T10:31:22Z</time>
      </trkpt>
      <trkpt lat="39.586200" lon="2.561810">
        <ele>310.099</ele>
        <time>2020-01-27T10:31:42Z</time>
      </trkpt>
      <trkpt lat="39.586320" lon="2.561770">
        <ele>309.085</ele>
        <time>2020-01-27T10:32:02Z</time>
      </trkpt>
      <trkpt lat="39.586370" lon="2.561600">
        <ele>309.089</ele>
        <time>2020-01-27T10:32:22Z</time>
      </trkpt>
      <trkpt lat="39.586360" lon="2.561400">
        <ele>308.017</ele>
        <time>2020-01-27T10:32:42Z</time>
      </trkpt>
      <trkpt lat="39.586380" lon="2.561240">
        <ele>307.008</ele>
        <time>2020-01-27T10:33:02Z</time>
      </trkpt>
      <trkpt lat="39.586460" lon="2.561080">
        <ele>306.012</ele>
        <time>2020-01-27T10:33:22Z</time>
      </trkpt>
      <trkpt lat="39.586730" lon="2.560710">
        <ele>304.083</ele>
        <time>2020-01-27T10:33:42Z</time>
      </trkpt>
      <trkpt lat="39.586860" lon="2.560490">
        <ele>303.047</ele>
        <time>2020-01-27T10:34:02Z</time>
      </trkpt>
      <trkpt lat="39.587030" lon="2.560270">
        <ele>302.074</ele>
        <time>2020-01-27T10:34:22Z</time>
      </trkpt>
      <trkpt lat="39.587030" lon="2.560180">
        <ele>301.049</ele>
        <time>2020-01-27T10:34:42Z</time>
      </trkpt>
      <trkpt lat="39.586980" lon="2.560120">
        <ele>301.045</ele>
        <time>2020-01-27T10:35:02Z</time>
      </trkpt>
      <trkpt lat="39.586920" lon="2.560130">
        <ele>301.023</ele>
        <time>2020-01-27T10:35:22Z</time>
      </trkpt>
      <trkpt lat="39.586840" lon="2.560200">
        <ele>300.026</ele>
        <time>2020-01-27T10:35:42Z</time>
      </trkpt>
      <trkpt lat="39.586630" lon="2.560510">
        <ele>299.038</ele>
        <time>2020-01-27T10:36:02Z</time>
      </trkpt>
      <trkpt lat="39.586510" lon="2.560610">
        <ele>298.070</ele>
        <time>2020-01-27T10:36:22Z</time>
      </trkpt>
      <trkpt lat="39.586430" lon="2.560590">
        <ele>298.017</ele>
        <time>2020-01-27T10:36:42Z</time>
      </trkpt>
      <trkpt lat="39.586380" lon="2.560550">
        <ele>297.008</ele>
        <time>2020-01-27T10:37:02Z</time>
      </trkpt>
      <trkpt lat="39.586280" lon="2.560290">
        <ele>296.077</ele>
        <time>2020-01-27T10:37:22Z</time>
      </trkpt>
      <trkpt lat="39.586220" lon="2.560230">
        <ele>296.058</ele>
        <time>2020-01-27T10:37:42Z</time>
      </trkpt>
      <trkpt lat="39.586040" lon="2.560140">
        <ele>295.032</ele>
        <time>2020-01-27T10:38:02Z</time>
      </trkpt>
      <trkpt lat="39.585930" lon="2.560040">
        <ele>294.089</ele>
        <time>2020-01-27T10:38:22Z</time>
      </trkpt>
      <trkpt lat="39.585920" lon="2.559870">
        <ele>293.074</ele>
        <time>2020-01-27T10:38:42Z</time>
      </trkpt>
      <trkpt lat="39.585970" lon="2.559800">
        <ele>292.030</ele>
        <time>2020-01-27T10:39:02Z</time>
      </trkpt>
      <trkpt lat="39.586060" lon="2.559790">
        <ele>291.098</ele>
        <time>2020-01-27T10:39:22Z</time>
      </trkpt>
      <trkpt lat="39.586110" lon="2.559990">
        <ele>290.021</ele>
        <time>2020-01-27T10:39:42Z</time>
      </trkpt>
      <trkpt lat="39.586200" lon="2.560030">
        <ele>290.022</ele>
        <time>2020-01-27T10:40:02Z</time>
      </trkpt>
      <trkpt lat="39.586300" lon="2.560030">
        <ele>289.062</ele>
        <time>2020-01-27T10:40:22Z</time>
      </trkpt>
      <trkpt lat="39.586420" lon="2.559920">
        <ele>288.008</ele>
        <time>2020-01-27T10:40:42Z</time>
      </trkpt>
      <trkpt lat="39.586480" lon="2.559790">
        <ele>287.008</ele>
        <time>2020-01-27T10:41:02Z</time>
      </trkpt>
      <trkpt lat="39.586510" lon="2.559630">
        <ele>286.046</ele>
        <time>2020-01-27T10:41:22Z</time>
      </trkpt>
      <trkpt lat="39.586460" lon="2.559350">
        <ele>284.017</ele>
        <time>2020-01-27T10:41:42Z</time>
      </trkpt>
      <trkpt lat="39.586450" lon="2.559080">
        <ele>283.011</ele>
        <time>2020-01-27T10:42:02Z</time>
      </trkpt>
      <trkpt lat="39.586460" lon="2.558820">
        <ele>281.038</ele>
        <time>2020-01-27T10:42:22Z</time>
      </trkpt>
      <trkpt lat="39.586500" lon="2.558510">
        <ele>280.053</ele>
        <time>2020-01-27T10:42:42Z</time>
      </trkpt>
      <trkpt lat="39.586570" lon="2.558240">
        <ele>278.029</ele>
        <time>2020-01-27T10:43:02Z</time>
      </trkpt>
      <trkpt lat="39.586970" lon="2.557600">
        <ele>274.017</ele>
        <time>2020-01-27T10:43:22Z</time>
      </trkpt>
      <trkpt lat="39.586950" lon="2.557090">
        <ele>271.010</ele>
        <time>2020-01-27T10:43:42Z</time>
      </trkpt>
      <trkpt lat="39.587050" lon="2.556830">
        <ele>269.042</ele>
        <time>2020-01-27T10:44:02Z</time>
      </trkpt>
      <trkpt lat="39.587160" lon="2.556680">
        <ele>268.022</ele>
        <time>2020-01-27T10:44:22Z</time>
      </trkpt>
      <trkpt lat="39.587290" lon="2.556570">
        <ele>267.014</ele>
        <time>2020-01-27T10:44:42Z</time>
      </trkpt>
      <trkpt lat="39.587420" lon="2.556510">
        <ele>266.008</ele>
        <time>2020-01-27T10:45:02Z</time>
      </trkpt>
      <trkpt lat="39.587560" lon="2.556480">
        <ele>266.038</ele>
        <time>2020-01-27T10:45:22Z</time>
      </trkpt>
      <trkpt lat="39.587750" lon="2.556490">
        <ele>266.079</ele>
        <time>2020-01-27T10:45:42Z</time>
      </trkpt>
      <trkpt lat="39.588370" lon="2.556570">
        <ele>266.083</ele>
        <time>2020-01-27T10:46:02Z</time>
      </trkpt>
      <trkpt lat="39.589420" lon="2.556620">
        <ele>264.090</ele>
        <time>2020-01-27T10:46:22Z</time>
      </trkpt>
      <trkpt lat="39.589600" lon="2.556530">
        <ele>263.025</ele>
        <time>2020-01-27T10:46:42Z</time>
      </trkpt>
      <trkpt lat="39.589930" lon="2.556040">
        <ele>259.081</ele>
        <time>2020-01-27T10:47:02Z</time>
      </trkpt>
      <trkpt lat="39.589860" lon="2.555870">
        <ele>257.079</ele>
        <time>2020-01-27T10:47:22Z</time>
      </trkpt>
      <trkpt lat="39.589840" lon="2.555620">
        <ele>256.082</ele>
        <time>2020-01-27T10:47:42Z</time>
      </trkpt>
      <trkpt lat="39.589880" lon="2.555390">
        <ele>254.031</ele>
        <time>2020-01-27T10:48:02Z</time>
      </trkpt>
      <trkpt lat="39.590050" lon="2.554870">
        <ele>251.061</ele>
        <time>2020-01-27T10:48:22Z</time>
      </trkpt>
      <trkpt lat="39.590100" lon="2.554580">
        <ele>249.007</ele>
        <time>2020-01-27T10:48:42Z</time>
      </trkpt>
      <trkpt lat="39.590090" lon="2.554320">
        <ele>247.008</ele>
        <time>2020-01-27T10:49:02Z</time>
      </trkpt>
      <trkpt lat="39.590060" lon="2.554050">
        <ele>246.067</ele>
        <time>2020-01-27T10:49:22Z</time>
      </trkpt>
      <trkpt lat="39.589620" lon="2.552850">
        <ele>240.098</ele>
        <time>2020-01-27T10:49:42Z</time>
      </trkpt>
      <trkpt lat="39.589500" lon="2.552630">
        <ele>239.092</ele>
        <time>2020-01-27T10:50:02Z</time>
      </trkpt>
      <trkpt lat="39.589410" lon="2.552600">
        <ele>238.069</ele>
        <time>2020-01-27T10:50:22Z</time>
      </trkpt>
      <trkpt lat="39.588940" lon="2.552690">
        <ele>235.054</ele>
        <time>2020-01-27T10:50:42Z</time>
      </trkpt>
      <trkpt lat="39.588770" lon="2.552750">
        <ele>234.090</ele>
        <time>2020-01-27T10:51:02Z</time>
      </trkpt>
      <trkpt lat="39.588320" lon="2.553020">
        <ele>232.068</ele>
        <time>2020-01-27T10:51:22Z</time>
      </trkpt>
      <trkpt lat="39.588070" lon="2.553240">
        <ele>231.041</ele>
        <time>2020-01-27T10:51:42Z</time>
      </trkpt>
      <trkpt lat="39.587950" lon="2.553420">
        <ele>230.078</ele>
        <time>2020-01-27T10:52:02Z</time>
      </trkpt>
      <trkpt lat="39.587900" lon="2.553670">
        <ele>229.033</ele>
        <time>2020-01-27T10:52:22Z</time>
      </trkpt>
      <trkpt lat="39.587870" lon="2.554040">
        <ele>228.026</ele>
        <time>2020-01-27T10:52:42Z</time>
      </trkpt>
      <trkpt lat="39.587730" lon="2.554300">
        <ele>227.008</ele>
        <time>2020-01-27T10:53:02Z</time>
      </trkpt>
      <trkpt lat="39.587560" lon="2.554410">
        <ele>226.021</ele>
        <time>2020-01-27T10:53:22Z</time>
      </trkpt>
      <trkpt lat="39.587330" lon="2.554400">
        <ele>225.052</ele>
        <time>2020-01-27T10:53:42Z</time>
      </trkpt>
      <trkpt lat="39.587250" lon="2.554340">
        <ele>224.026</ele>
        <time>2020-01-27T10:54:02Z</time>
      </trkpt>
      <trkpt lat="39.587180" lon="2.554230">
        <ele>224.073</ele>
        <time>2020-01-27T10:54:22Z</time>
      </trkpt>
      <trkpt lat="39.586990" lon="2.553370">
        <ele>220.088</ele>
        <time>2020-01-27T10:54:42Z</time>
      </trkpt>
      <trkpt lat="39.587050" lon="2.552880">
        <ele>219.054</ele>
        <time>2020-01-27T10:55:02Z</time>
      </trkpt>
      <trkpt lat="39.587160" lon="2.552210">
        <ele>216.062</ele>
        <time>2020-01-27T10:55:22Z</time>
      </trkpt>
      <trkpt lat="39.587160" lon="2.552050">
        <ele>216.045</ele>
        <time>2020-01-27T10:55:42Z</time>
      </trkpt>
      <trkpt lat="39.586580" lon="2.551290">
        <ele>212.043</ele>
        <time>2020-01-27T10:56:02Z</time>
      </trkpt>
      <trkpt lat="39.586620" lon="2.551130">
        <ele>212.064</ele>
        <time>2020-01-27T10:56:22Z</time>
      </trkpt>
      <trkpt lat="39.586760" lon="2.551050">
        <ele>211.010</ele>
        <time>2020-01-27T10:56:42Z</time>
      </trkpt>
      <trkpt lat="39.586980" lon="2.551220">
        <ele>210.008</ele>
        <time>2020-01-27T10:57:02Z</time>
      </trkpt>
      <trkpt lat="39.587170" lon="2.551330">
        <ele>209.058</ele>
        <time>2020-01-27T10:57:22Z</time>
      </trkpt>
      <trkpt lat="39.587320" lon="2.551370">
        <ele>209.099</ele>
        <time>2020-01-27T10:57:42Z</time>
      </trkpt>
      <trkpt lat="39.587460" lon="2.551290">
        <ele>208.093</ele>
        <time>2020-01-27T10:58:02Z</time>
      </trkpt>
      <trkpt lat="39.587510" lon="2.551190">
        <ele>208.090</ele>
        <time>2020-01-27T10:58:22Z</time>
      </trkpt>
      <trkpt lat="39.587570" lon="2.550850">
        <ele>207.035</ele>
        <time>2020-01-27T10:58:42Z</time>
      </trkpt>
      <trkpt lat="39.587580" lon="2.550520">
        <ele>206.061</ele>
        <time>2020-01-27T10:59:02Z</time>
      </trkpt>
      <trkpt lat="39.587530" lon="2.550230">
        <ele>206.059</ele>
        <time>2020-01-27T10:59:22Z</time>
      </trkpt>
      <trkpt lat="39.587430" lon="2.549960">
        <ele>205.012</ele>
        <time>2020-01-27T10:59:42Z</time>
      </trkpt>
      <trkpt lat="39.586990" lon="2.549450">
        <ele>203.052</ele>
        <time>2020-01-27T11:00:02Z</time>
      </trkpt>
      <trkpt lat="39.586770" lon="2.549230">
        <ele>203.053</ele>
        <time>2020-01-27T11:00:22Z</time>
      </trkpt>
      <trkpt lat="39.586050" lon="2.548770">
        <ele>199.008</ele>
        <time>2020-01-27T11:00:42Z</time>
      </trkpt>
      <trkpt lat="39.585950" lon="2.548660">
        <ele>199.008</ele>
        <time>2020-01-27T11:01:02Z</time>
      </trkpt>
      <trkpt lat="39.585900" lon="2.548550">
        <ele>198.019</ele>
        <time>2020-01-27T11:01:22Z</time>
      </trkpt>
      <trkpt lat="39.585710" lon="2.547190">
        <ele>194.020</ele>
        <time>2020-01-27T11:01:42Z</time>
      </trkpt>
      <trkpt lat="39.585540" lon="2.546290">
        <ele>193.024</ele>
        <time>2020-01-27T11:02:02Z</time>
      </trkpt>
      <trkpt lat="39.585480" lon="2.546030">
        <ele>193.081</ele>
        <time>2020-01-27T11:02:22Z</time>
      </trkpt>
      <trkpt lat="39.585420" lon="2.545890">
        <ele>192.026</ele>
        <time>2020-01-27T11:02:42Z</time>
      </trkpt>
      <trkpt lat="39.585270" lon="2.545730">
        <ele>192.052</ele>
        <time>2020-01-27T11:03:02Z</time>
      </trkpt>
      <trkpt lat="39.585080" lon="2.545580">
        <ele>191.040</ele>
        <time>2020-01-27T11:03:22Z</time>
      </trkpt>
      <trkpt lat="39.584230" lon="2.544750">
        <ele>189.073</ele>
        <time>2020-01-27T11:03:42Z</time>
      </trkpt>
      <trkpt lat="39.584070" lon="2.544810">
        <ele>189.087</ele>
        <time>2020-01-27T11:04:02Z</time>
      </trkpt>
      <trkpt lat="39.583660" lon="2.545470">
        <ele>188.042</ele>
        <time>2020-01-27T11:04:22Z</time>
      </trkpt>
      <trkpt lat="39.583390" lon="2.545710">
        <ele>187.026</ele>
        <time>2020-01-27T11:04:42Z</time>
      </trkpt>
      <trkpt lat="39.583120" lon="2.545760">
        <ele>187.008</ele>
        <time>2020-01-27T11:05:02Z</time>
      </trkpt>
      <trkpt lat="39.582890" lon="2.545560">
        <ele>186.062</ele>
        <time>2020-01-27T11:05:22Z</time>
      </trkpt>
      <trkpt lat="39.582580" lon="2.545080">
        <ele>184.063</ele>
        <time>2020-01-27T11:05:42Z</time>
      </trkpt>
      <trkpt lat="39.582120" lon="2.544150">
        <ele>182.057</ele>
        <time>2020-01-27T11:06:02Z</time>
      </trkpt>
      <trkpt lat="39.581550" lon="2.543270">
        <ele>180.024</ele>
        <time>2020-01-27T11:06:22Z</time>
      </trkpt>
      <trkpt lat="39.581450" lon="2.543180">
        <ele>180.039</ele>
        <time>2020-01-27T11:06:42Z</time>
      </trkpt>
      <trkpt lat="39.581320" lon="2.543140">
        <ele>180.045</ele>
        <time>2020-01-27T11:07:02Z</time>
      </trkpt>
      <trkpt lat="39.581200" lon="2.543260">
        <ele>180.013</ele>
        <time>2020-01-27T11:07:22Z</time>
      </trkpt>
      <trkpt lat="39.580990" lon="2.543820">
        <ele>179.026</ele>
        <time>2020-01-27T11:07:42Z</time>
      </trkpt>
      <trkpt lat="39.580890" lon="2.543950">
        <ele>179.033</ele>
        <time>2020-01-27T11:08:02Z</time>
      </trkpt>
      <trkpt lat="39.580770" lon="2.543990">
        <ele>179.023</ele>
        <time>2020-01-27T11:08:22Z</time>
      </trkpt>
      <trkpt lat="39.580200" lon="2.543660">
        <ele>178.015</ele>
        <time>2020-01-27T11:08:42Z</time>
      </trkpt>
      <trkpt lat="39.579950" lon="2.543430">
        <ele>176.008</ele>
        <time>2020-01-27T11:09:02Z</time>
      </trkpt>
      <trkpt lat="39.579750" lon="2.543390">
        <ele>175.027</ele>
        <time>2020-01-27T11:09:22Z</time>
      </trkpt>
      <trkpt lat="39.579620" lon="2.543510">
        <ele>175.098</ele>
        <time>2020-01-27T11:09:42Z</time>
      </trkpt>
      <trkpt lat="39.579570" lon="2.543680">
        <ele>174.022</ele>
        <time>2020-01-27T11:10:02Z</time>
      </trkpt>
      <trkpt lat="39.579590" lon="2.544150">
        <ele>173.059</ele>
        <time>2020-01-27T11:10:22Z</time>
      </trkpt>
      <trkpt lat="39.579450" lon="2.544350">
        <ele>172.044</ele>
        <time>2020-01-27T11:10:42Z</time>
      </trkpt>
      <trkpt lat="39.579190" lon="2.544450">
        <ele>170.030</ele>
        <time>2020-01-27T11:11:02Z</time>
      </trkpt>
      <trkpt lat="39.579020" lon="2.544420">
        <ele>170.098</ele>
        <time>2020-01-27T11:11:22Z</time>
      </trkpt>
      <trkpt lat="39.578870" lon="2.544300">
        <ele>169.091</ele>
        <time>2020-01-27T11:11:42Z</time>
      </trkpt>
      <trkpt lat="39.578640" lon="2.544280">
        <ele>168.059</ele>
        <time>2020-01-27T11:12:02Z</time>
      </trkpt>
      <trkpt lat="39.578430" lon="2.544310">
        <ele>167.003</ele>
        <time>2020-01-27T11:12:22Z</time>
      </trkpt>
      <trkpt lat="39.578170" lon="2.544460">
        <ele>167.023</ele>
        <time>2020-01-27T11:12:42Z</time>
      </trkpt>
      <trkpt lat="39.577770" lon="2.544610">
        <ele>165.008</ele>
        <time>2020-01-27T11:13:02Z</time>
      </trkpt>
      <trkpt lat="39.577420" lon="2.544720">
        <ele>164.069</ele>
        <time>2020-01-27T11:13:22Z</time>
      </trkpt>
      <trkpt lat="39.577250" lon="2.544700">
        <ele>163.050</ele>
        <time>2020-01-27T11:13:42Z</time>
      </trkpt>
      <trkpt lat="39.577110" lon="2.544550">
        <ele>163.084</ele>
        <time>2020-01-27T11:14:02Z</time>
      </trkpt>
      <trkpt lat="39.577030" lon="2.544330">
        <ele>163.071</ele>
        <time>2020-01-27T11:14:22Z</time>
      </trkpt>
      <trkpt lat="39.576940" lon="2.543750">
        <ele>163.046</ele>
        <time>2020-01-27T11:14:42Z</time>
      </trkpt>
      <trkpt lat="39.576770" lon="2.543120">
        <ele>164.052</ele>
        <time>2020-01-27T11:15:02Z</time>
      </trkpt>
      <trkpt lat="39.576460" lon="2.542300">
        <ele>164.090</ele>
        <time>2020-01-27T11:15:22Z</time>
      </trkpt>
      <trkpt lat="39.575730" lon="2.541450">
        <ele>160.073</ele>
        <time>2020-01-27T11:15:42Z</time>
      </trkpt>
      <trkpt lat="39.575520" lon="2.541030">
        <ele>157.011</ele>
        <time>2020-01-27T11:16:02Z</time>
      </trkpt>
      <trkpt lat="39.574700" lon="2.540100">
        <ele>150.021</ele>
        <time>2020-01-27T11:16:22Z</time>
      </trkpt>
      <trkpt lat="39.573740" lon="2.538190">
        <ele>143.003</ele>
        <time>2020-01-27T11:16:42Z</time>
      </trkpt>
      <trkpt lat="39.573600" lon="2.537990">
        <ele>142.008</ele>
        <time>2020-01-27T11:17:02Z</time>
      </trkpt>
      <trkpt lat="39.573150" lon="2.537570">
        <ele>141.095</ele>
        <time>2020-01-27T11:17:22Z</time>
      </trkpt>
      <trkpt lat="39.572330" lon="2.537050">
        <ele>139.016</ele>
        <time>2020-01-27T11:17:42Z</time>
      </trkpt>
      <trkpt lat="39.571900" lon="2.536720">
        <ele>138.070</ele>
        <time>2020-01-27T11:18:02Z</time>
      </trkpt>
      <trkpt lat="39.571460" lon="2.536310">
        <ele>137.087</ele>
        <time>2020-01-27T11:18:22Z</time>
      </trkpt>
      <trkpt lat="39.571100" lon="2.535790">
        <ele>136.092</ele>
        <time>2020-01-27T11:18:42Z</time>
      </trkpt>
      <trkpt lat="39.570990" lon="2.535720">
        <ele>136.038</ele>
        <time>2020-01-27T11:19:02Z</time>
      </trkpt>
      <trkpt lat="39.570860" lon="2.535710">
        <ele>136.016</ele>
        <time>2020-01-27T11:19:22Z</time>
      </trkpt>
      <trkpt lat="39.570310" lon="2.535910">
        <ele>135.069</ele>
        <time>2020-01-27T11:19:42Z</time>
      </trkpt>
      <trkpt lat="39.569970" lon="2.535930">
        <ele>133.038</ele>
        <time>2020-01-27T11:20:02Z</time>
      </trkpt>
      <trkpt lat="39.569790" lon="2.535860">
        <ele>132.070</ele>
        <time>2020-01-27T11:20:22Z</time>
      </trkpt>
      <trkpt lat="39.568700" lon="2.535060">
        <ele>124.017</ele>
        <time>2020-01-27T11:20:42Z</time>
      </trkpt>
      <trkpt lat="39.568590" lon="2.534970">
        <ele>123.008</ele>
        <time>2020-01-27T11:21:02Z</time>
      </trkpt>
      <trkpt lat="39.568560" lon="2.534850">
        <ele>123.037</ele>
        <time>2020-01-27T11:21:22Z</time>
      </trkpt>
      <trkpt lat="39.568560" lon="2.534720">
        <ele>123.078</ele>
        <time>2020-01-27T11:21:42Z</time>
      </trkpt>
      <trkpt lat="39.568610" lon="2.534580">
        <ele>123.052</ele>
        <time>2020-01-27T11:22:02Z</time>
      </trkpt>
      <trkpt lat="39.568910" lon="2.534170">
        <ele>124.039</ele>
        <time>2020-01-27T11:22:22Z</time>
      </trkpt>
      <trkpt lat="39.569030" lon="2.533840">
        <ele>125.064</ele>
        <time>2020-01-27T11:22:42Z</time>
      </trkpt>
      <trkpt lat="39.569080" lon="2.533070">
        <ele>126.020</ele>
        <time>2020-01-27T11:23:02Z</time>
      </trkpt>
      <trkpt lat="39.569050" lon="2.532850">
        <ele>127.028</ele>
        <time>2020-01-27T11:23:22Z</time>
      </trkpt>
      <trkpt lat="39.568780" lon="2.532300">
        <ele>127.021</ele>
        <time>2020-01-27T11:23:42Z</time>
      </trkpt>
      <trkpt lat="39.568360" lon="2.530320">
        <ele>123.029</ele>
        <time>2020-01-27T11:24:02Z</time>
      </trkpt>
      <trkpt lat="39.567990" lon="2.528830">
        <ele>122.000</ele>
        <time>2020-01-27T11:24:22Z</time>
      </trkpt>
      <trkpt lat="39.566870" lon="2.526560">
        <ele>121.020</ele>
        <time>2020-01-27T11:24:42Z</time>
      </trkpt>
      <trkpt lat="39.566810" lon="2.526330">
        <ele>121.008</ele>
        <time>2020-01-27T11:25:02Z</time>
      </trkpt>
      <trkpt lat="39.566740" lon="2.524690">
        <ele>121.056</ele>
        <time>2020-01-27T11:25:22Z</time>
      </trkpt>
      <trkpt lat="39.567030" lon="2.523620">
        <ele>121.077</ele>
        <time>2020-01-27T11:25:42Z</time>
      </trkpt>
      <trkpt lat="39.567030" lon="2.523250">
        <ele>121.011</ele>
        <time>2020-01-27T11:26:02Z</time>
      </trkpt>
      <trkpt lat="39.566890" lon="2.522810">
        <ele>121.088</ele>
        <time>2020-01-27T11:26:22Z</time>
      </trkpt>
      <trkpt lat="39.566460" lon="2.522110">
        <ele>122.013</ele>
        <time>2020-01-27T11:26:42Z</time>
      </trkpt>
      <trkpt lat="39.566160" lon="2.520650">
        <ele>124.019</ele>
        <time>2020-01-27T11:27:02Z</time>
      </trkpt>
      <trkpt lat="39.566030" lon="2.520130">
        <ele>124.027</ele>
        <time>2020-01-27T11:27:22Z</time>
      </trkpt>
      <trkpt lat="39.566120" lon="2.518770">
        <ele>120.030</ele>
        <time>2020-01-27T11:27:42Z</time>
      </trkpt>
      <trkpt lat="39.566270" lon="2.517070">
        <ele>119.072</ele>
        <time>2020-01-27T11:28:02Z</time>
      </trkpt>
      <trkpt lat="39.566530" lon="2.515840">
        <ele>122.013</ele>
        <time>2020-01-27T11:28:22Z</time>
      </trkpt>
      <trkpt lat="39.566470" lon="2.514550">
        <ele>124.014</ele>
        <time>2020-01-27T11:28:42Z</time>
      </trkpt>
      <trkpt lat="39.566170" lon="2.510140">
        <ele>125.008</ele>
        <time>2020-01-27T11:29:02Z</time>
      </trkpt>
      <trkpt lat="39.565760" lon="2.510230">
        <ele>126.051</ele>
        <time>2020-01-27T11:29:22Z</time>
      </trkpt>
      <trkpt lat="39.565590" lon="2.508970">
        <ele>128.062</ele>
        <time>2020-01-27T11:29:42Z</time>
      </trkpt>
      <trkpt lat="39.566080" lon="2.508660">
        <ele>130.056</ele>
        <time>2020-01-27T11:30:02Z</time>
      </trkpt>
      <trkpt lat="39.566110" lon="2.508600">
        <ele>130.033</ele>
        <time>2020-01-27T11:30:22Z</time>
      </trkpt>
      <trkpt lat="39.566150" lon="2.508160">
        <ele>130.018</ele>
        <time>2020-01-27T11:30:42Z</time>
      </trkpt>
      <trkpt lat="39.565740" lon="2.508070">
        <ele>130.074</ele>
        <time>2020-01-27T11:31:02Z</time>
      </trkpt>
      <trkpt lat="39.565680" lon="2.507970">
        <ele>129.022</ele>
        <time>2020-01-27T11:31:22Z</time>
      </trkpt>
      <trkpt lat="39.565830" lon="2.506950">
        <ele>128.045</ele>
        <time>2020-01-27T11:31:42Z</time>
      </trkpt>
      <trkpt lat="39.566190" lon="2.506940">
        <ele>127.076</ele>
        <time>2020-01-27T11:32:02Z</time>
      </trkpt>
      <trkpt lat="39.566140" lon="2.506710">
        <ele>127.090</ele>
        <time>2020-01-27T11:32:22Z</time>
      </trkpt>
      <trkpt lat="39.566180" lon="2.506710">
        <ele>127.019</ele>
        <time>2020-01-27T11:32:42Z</time>
      </trkpt>
      <trkpt lat="39.566180" lon="2.506720">
        <ele>127.008</ele>
        <time>2020-01-27T11:33:02Z</time>
      </trkpt>
      <trkpt lat="39.567020" lon="2.506720">
        <ele>123.091</ele>
        <time>2020-01-27T11:33:22Z</time>
      </trkpt>
      <trkpt lat="39.567090" lon="2.506200">
        <ele>122.032</ele>
        <time>2020-01-27T11:33:42Z</time>
      </trkpt>
      <trkpt lat="39.567090" lon="2.505850">
        <ele>121.066</ele>
        <time>2020-01-27T11:34:02Z</time>
      </trkpt>
      <trkpt lat="39.567070" lon="2.505530">
        <ele>120.053</ele>
        <time>2020-01-27T11:34:22Z</time>
      </trkpt>
      <trkpt lat="39.567010" lon="2.505050">
        <ele>118.048</ele>
        <time>2020-01-27T11:34:42Z</time>
      </trkpt>
      <trkpt lat="39.567030" lon="2.504820">
        <ele>118.044</ele>
        <time>2020-01-27T11:35:02Z</time>
      </trkpt>
      <trkpt lat="39.565250" lon="2.503930">
        <ele>112.032</ele>
        <time>2020-01-27T11:35:22Z</time>
      </trkpt>
      <trkpt lat="39.565770" lon="2.500690">
        <ele>104.085</ele>
        <time>2020-01-27T11:35:42Z</time>
      </trkpt>
      <trkpt lat="39.566340" lon="2.496930">
        <ele>97.068</ele>
        <time>2020-01-27T11:36:02Z</time>
      </trkpt>
      <trkpt lat="39.566210" lon="2.496880">
        <ele>97.042</ele>
        <time>2020-01-27T11:36:22Z</time>
      </trkpt>
      <trkpt lat="39.566320" lon="2.496430">
        <ele>95.026</ele>
        <time>2020-01-27T11:36:42Z</time>
      </trkpt>
      <trkpt lat="39.566300" lon="2.496270">
        <ele>95.008</ele>
        <time>2020-01-27T11:37:02Z</time>
      </trkpt>
      <trkpt lat="39.566340" lon="2.496160">
        <ele>95.070</ele>
        <time>2020-01-27T11:37:22Z</time>
      </trkpt>
      <trkpt lat="39.566400" lon="2.496090">
        <ele>94.091</ele>
        <time>2020-01-27T11:37:42Z</time>
      </trkpt>
      <trkpt lat="39.566320" lon="2.495950">
        <ele>94.035</ele>
        <time>2020-01-27T11:38:02Z</time>
      </trkpt>
      <trkpt lat="39.566720" lon="2.494550">
        <ele>90.082</ele>
        <time>2020-01-27T11:38:22Z</time>
      </trkpt>
      <trkpt lat="39.567400" lon="2.493040">
        <ele>88.037</ele>
        <time>2020-01-27T11:38:42Z</time>
      </trkpt>
      <trkpt lat="39.567480" lon="2.492750">
        <ele>88.043</ele>
        <time>2020-01-27T11:39:02Z</time>
      </trkpt>
      <trkpt lat="39.567930" lon="2.491840">
        <ele>88.091</ele>
        <time>2020-01-27T11:39:22Z</time>
      </trkpt>
      <trkpt lat="39.568470" lon="2.490710">
        <ele>85.064</ele>
        <time>2020-01-27T11:39:42Z</time>
      </trkpt>
      <trkpt lat="39.568690" lon="2.490050">
        <ele>84.096</ele>
        <time>2020-01-27T11:40:02Z</time>
      </trkpt>
      <trkpt lat="39.568830" lon="2.489160">
        <ele>85.031</ele>
        <time>2020-01-27T11:40:22Z</time>
      </trkpt>
      <trkpt lat="39.569040" lon="2.488070">
        <ele>91.024</ele>
        <time>2020-01-27T11:40:42Z</time>
      </trkpt>
      <trkpt lat="39.569190" lon="2.487100">
        <ele>96.008</ele>
        <time>2020-01-27T11:41:02Z</time>
      </trkpt>
      <trkpt lat="39.569300" lon="2.486580">
        <ele>96.083</ele>
        <time>2020-01-27T11:41:22Z</time>
      </trkpt>
      <trkpt lat="39.569480" lon="2.486130">
        <ele>95.064</ele>
        <time>2020-01-27T11:41:42Z</time>
      </trkpt>
      <trkpt lat="39.570650" lon="2.484080">
        <ele>89.078</ele>
        <time>2020-01-27T11:42:02Z</time>
      </trkpt>
      <trkpt lat="39.571560" lon="2.482550">
        <ele>84.095</ele>
        <time>2020-01-27T11:42:22Z</time>
      </trkpt>
      <trkpt lat="39.572330" lon="2.481190">
        <ele>88.090</ele>
        <time>2020-01-27T11:42:42Z</time>
      </trkpt>
      <trkpt lat="39.572740" lon="2.480610">
        <ele>90.076</ele>
        <time>2020-01-27T11:43:02Z</time>
      </trkpt>
      <trkpt lat="39.573120" lon="2.479830">
        <ele>93.084</ele>
        <time>2020-01-27T11:43:22Z</time>
      </trkpt>
      <trkpt lat="39.573420" lon="2.479350">
        <ele>94.057</ele>
        <time>2020-01-27T11:43:42Z</time>
      </trkpt>
      <trkpt lat="39.573670" lon="2.478820">
        <ele>96.098</ele>
        <time>2020-01-27T11:44:02Z</time>
      </trkpt>
      <trkpt lat="39.574040" lon="2.478310">
        <ele>98.015</ele>
        <time>2020-01-27T11:44:22Z</time>
      </trkpt>
      <trkpt lat="39.574470" lon="2.478080">
        <ele>99.026</ele>
        <time>2020-01-27T11:44:42Z</time>
      </trkpt>
      <trkpt lat="39.575250" lon="2.477910">
        <ele>100.008</ele>
        <time>2020-01-27T11:45:02Z</time>
      </trkpt>
      <trkpt lat="39.575890" lon="2.477170">
        <ele>102.073</ele>
        <time>2020-01-27T11:45:22Z</time>
      </trkpt>
      <trkpt lat="39.576010" lon="2.477000">
        <ele>102.094</ele>
        <time>2020-01-27T11:45:42Z</time>
      </trkpt>
      <trkpt lat="39.576120" lon="2.476740">
        <ele>103.018</ele>
        <time>2020-01-27T11:46:02Z</time>
      </trkpt>
      <trkpt lat="39.576630" lon="2.474110">
        <ele>111.065</ele>
        <time>2020-01-27T11:46:22Z</time>
      </trkpt>
      <trkpt lat="39.576760" lon="2.473310">
        <ele>115.020</ele>
        <time>2020-01-27T11:46:42Z</time>
      </trkpt>
      <trkpt lat="39.576860" lon="2.472930">
        <ele>118.056</ele>
        <time>2020-01-27T11:47:02Z</time>
      </trkpt>
      <trkpt lat="39.577070" lon="2.472350">
        <ele>121.044</ele>
        <time>2020-01-27T11:47:22Z</time>
      </trkpt>
      <trkpt lat="39.577110" lon="2.472140">
        <ele>121.087</ele>
        <time>2020-01-27T11:47:42Z</time>
      </trkpt>
      <trkpt lat="39.577200" lon="2.471990">
        <ele>121.015</ele>
        <time>2020-01-27T11:48:02Z</time>
      </trkpt>
      <trkpt lat="39.577400" lon="2.471780">
        <ele>122.065</ele>
        <time>2020-01-27T11:48:22Z</time>
      </trkpt>
      <trkpt lat="39.578060" lon="2.471140">
        <ele>123.011</ele>
        <time>2020-01-27T11:48:42Z</time>
      </trkpt>
      <trkpt lat="39.578480" lon="2.470270">
        <ele>125.008</ele>
        <time>2020-01-27T11:49:02Z</time>
      </trkpt>
      <trkpt lat="39.578720" lon="2.470010">
        <ele>126.065</ele>
        <time>2020-01-27T11:49:22Z</time>
      </trkpt>
      <trkpt lat="39.579410" lon="2.469080">
        <ele>129.016</ele>
        <time>2020-01-27T11:49:42Z</time>
      </trkpt>
      <trkpt lat="39.579420" lon="2.468950">
        <ele>129.070</ele>
        <time>2020-01-27T11:50:02Z</time>
      </trkpt>
      <trkpt lat="39.579820" lon="2.468050">
        <ele>133.017</ele>
        <time>2020-01-27T11:50:22Z</time>
      </trkpt>
      <trkpt lat="39.579820" lon="2.468050">
        <ele>133.022</ele>
        <time>2020-01-27T11:50:42Z</time>
      </trkpt>
      <trkpt lat="39.580050" lon="2.467540">
        <ele>135.068</ele>
        <time>2020-01-27T11:51:02Z</time>
      </trkpt>
      <trkpt lat="39.580620" lon="2.466580">
        <ele>139.026</ele>
        <time>2020-01-27T11:51:22Z</time>
      </trkpt>
      <trkpt lat="39.581120" lon="2.465820">
        <ele>145.019</ele>
        <time>2020-01-27T11:51:42Z</time>
      </trkpt>
      <trkpt lat="39.581150" lon="2.465650">
        <ele>146.096</ele>
        <time>2020-01-27T11:52:02Z</time>
      </trkpt>
      <trkpt lat="39.581110" lon="2.465550">
        <ele>146.031</ele>
        <time>2020-01-27T11:52:22Z</time>
      </trkpt>
      <trkpt lat="39.580730" lon="2.465130">
        <ele>150.024</ele>
        <time>2020-01-27T11:52:42Z</time>
      </trkpt>
      <trkpt lat="39.580730" lon="2.464990">
        <ele>151.008</ele>
        <time>2020-01-27T11:53:02Z</time>
      </trkpt>
      <trkpt lat="39.580830" lon="2.464900">
        <ele>152.093</ele>
        <time>2020-01-27T11:53:22Z</time>
      </trkpt>
      <trkpt lat="39.581080" lon="2.465080">
        <ele>155.074</ele>
        <time>2020-01-27T11:53:42Z</time>
      </trkpt>
      <trkpt lat="39.581210" lon="2.465010">
        <ele>156.088</ele>
        <time>2020-01-27T11:54:02Z</time>
      </trkpt>
      <trkpt lat="39.581160" lon="2.464690">
        <ele>157.085</ele>
        <time>2020-01-27T11:54:22Z</time>
      </trkpt>
      <trkpt lat="39.581250" lon="2.464350">
        <ele>158.050</ele>
        <time>2020-01-27T11:54:42Z</time>
      </trkpt>
      <trkpt lat="39.581400" lon="2.464020">
        <ele>159.046</ele>
        <time>2020-01-27T11:55:02Z</time>
      </trkpt>
      <trkpt lat="39.581650" lon="2.463670">
        <ele>161.074</ele>
        <time>2020-01-27T11:55:22Z</time>
      </trkpt>
      <trkpt lat="39.581850" lon="2.463530">
        <ele>162.047</ele>
        <time>2020-01-27T11:55:42Z</time>
      </trkpt>
      <trkpt lat="39.582490" lon="2.463580">
        <ele>164.074</ele>
        <time>2020-01-27T11:56:02Z</time>
      </trkpt>
      <trkpt lat="39.582540" lon="2.463460">
        <ele>165.056</ele>
        <time>2020-01-27T11:56:22Z</time>
      </trkpt>
      <trkpt lat="39.582470" lon="2.463020">
        <ele>166.021</ele>
        <time>2020-01-27T11:56:42Z</time>
      </trkpt>
      <trkpt lat="39.582490" lon="2.462980">
        <ele>166.008</ele>
        <time>2020-01-27T11:57:02Z</time>
      </trkpt>
      <trkpt lat="39.582530" lon="2.462930">
        <ele>167.041</ele>
        <time>2020-01-27T11:57:22Z</time>
      </trkpt>
      <trkpt lat="39.583630" lon="2.462210">
        <ele>172.062</ele>
        <time>2020-01-27T11:57:42Z</time>
      </trkpt>
      <trkpt lat="39.583790" lon="2.462080">
        <ele>173.016</ele>
        <time>2020-01-27T11:58:02Z</time>
      </trkpt>
      <trkpt lat="39.583790" lon="2.461940">
        <ele>173.093</ele>
        <time>2020-01-27T11:58:22Z</time>
      </trkpt>
      <trkpt lat="39.583570" lon="2.460990">
        <ele>179.088</ele>
        <time>2020-01-27T11:58:42Z</time>
      </trkpt>
      <trkpt lat="39.583400" lon="2.460360">
        <ele>183.034</ele>
        <time>2020-01-27T11:59:02Z</time>
      </trkpt>
      <trkpt lat="39.582970" lon="2.459550">
        <ele>188.062</ele>
        <time>2020-01-27T11:59:22Z</time>
      </trkpt>
      <trkpt lat="39.582870" lon="2.459310">
        <ele>190.095</ele>
        <time>2020-01-27T11:59:42Z</time>
      </trkpt>
      <trkpt lat="39.582790" lon="2.459050">
        <ele>192.073</ele>
        <time>2020-01-27T12:00:02Z</time>
      </trkpt>
      <trkpt lat="39.582450" lon="2.458440">
        <ele>197.085</ele>
        <time>2020-01-27T12:00:22Z</time>
      </trkpt>
      <trkpt lat="39.582180" lon="2.457940">
        <ele>201.013</ele>
        <time>2020-01-27T12:00:42Z</time>
      </trkpt>
      <trkpt lat="39.581960" lon="2.457760">
        <ele>204.008</ele>
        <time>2020-01-27T12:01:02Z</time>
      </trkpt>
      <trkpt lat="39.581560" lon="2.457560">
        <ele>207.031</ele>
        <time>2020-01-27T12:01:22Z</time>
      </trkpt>
      <trkpt lat="39.581010" lon="2.457450">
        <ele>210.092</ele>
        <time>2020-01-27T12:01:42Z</time>
      </trkpt>
      <trkpt lat="39.580640" lon="2.457280">
        <ele>212.056</ele>
        <time>2020-01-27T12:02:02Z</time>
      </trkpt>
      <trkpt lat="39.580310" lon="2.456950">
        <ele>214.013</ele>
        <time>2020-01-27T12:02:22Z</time>
      </trkpt>
      <trkpt lat="39.579630" lon="2.456400">
        <ele>217.088</ele>
        <time>2020-01-27T12:02:42Z</time>
      </trkpt>
      <trkpt lat="39.579020" lon="2.455960">
        <ele>217.064</ele>
        <time>2020-01-27T12:03:02Z</time>
      </trkpt>
      <trkpt lat="39.578480" lon="2.455490">
        <ele>218.042</ele>
        <time>2020-01-27T12:03:22Z</time>
      </trkpt>
      <trkpt lat="39.578200" lon="2.455220">
        <ele>218.075</ele>
        <time>2020-01-27T12:03:42Z</time>
      </trkpt>
      <trkpt lat="39.578180" lon="2.455150">
        <ele>218.067</ele>
        <time>2020-01-27T12:04:02Z</time>
      </trkpt>
      <trkpt lat="39.578250" lon="2.455120">
        <ele>219.081</ele>
        <time>2020-01-27T12:04:22Z</time>
      </trkpt>
      <trkpt lat="39.578510" lon="2.455340">
        <ele>220.019</ele>
        <time>2020-01-27T12:04:42Z</time>
      </trkpt>
      <trkpt lat="39.578990" lon="2.455660">
        <ele>223.008</ele>
        <time>2020-01-27T12:05:02Z</time>
      </trkpt>
      <trkpt lat="39.579410" lon="2.455860">
        <ele>225.040</ele>
        <time>2020-01-27T12:05:22Z</time>
      </trkpt>
      <trkpt lat="39.579680" lon="2.456010">
        <ele>227.061</ele>
        <time>2020-01-27T12:05:42Z</time>
      </trkpt>
      <trkpt lat="39.579840" lon="2.455990">
        <ele>227.025</ele>
        <time>2020-01-27T12:06:02Z</time>
      </trkpt>
      <trkpt lat="39.579960" lon="2.455730">
        <ele>229.062</ele>
        <time>2020-01-27T12:06:22Z</time>
      </trkpt>
      <trkpt lat="39.580430" lon="2.455660">
        <ele>229.027</ele>
        <time>2020-01-27T12:06:42Z</time>
      </trkpt>
      <trkpt lat="39.581040" lon="2.455310">
        <ele>230.093</ele>
        <time>2020-01-27T12:07:02Z</time>
      </trkpt>
      <trkpt lat="39.581270" lon="2.455330">
        <ele>230.051</ele>
        <time>2020-01-27T12:07:22Z</time>
      </trkpt>
      <trkpt lat="39.582580" lon="2.455700">
        <ele>228.084</ele>
        <time>2020-01-27T12:07:42Z</time>
      </trkpt>
      <trkpt lat="39.583250" lon="2.456230">
        <ele>226.062</ele>
        <time>2020-01-27T12:08:02Z</time>
      </trkpt>
      <trkpt lat="39.583670" lon="2.456400">
        <ele>225.083</ele>
        <time>2020-01-27T12:08:22Z</time>
      </trkpt>
      <trkpt lat="39.584440" lon="2.456860">
        <ele>224.011</ele>
        <time>2020-01-27T12:08:42Z</time>
      </trkpt>
      <trkpt lat="39.584690" lon="2.457060">
        <ele>223.008</ele>
        <time>2020-01-27T12:09:02Z</time>
      </trkpt>
      <trkpt lat="39.584910" lon="2.457280">
        <ele>223.040</ele>
        <time>2020-01-27T12:09:22Z</time>
      </trkpt>
      <trkpt lat="39.584980" lon="2.457300">
        <ele>223.071</ele>
        <time>2020-01-27T12:09:42Z</time>
      </trkpt>
      <trkpt lat="39.585080" lon="2.457310">
        <ele>223.045</ele>
        <time>2020-01-27T12:10:02Z</time>
      </trkpt>
      <trkpt lat="39.585160" lon="2.457250">
        <ele>223.082</ele>
        <time>2020-01-27T12:10:22Z</time>
      </trkpt>
      <trkpt lat="39.585240" lon="2.457150">
        <ele>223.057</ele>
        <time>2020-01-27T12:10:42Z</time>
      </trkpt>
      <trkpt lat="39.585320" lon="2.456880">
        <ele>223.063</ele>
        <time>2020-01-27T12:11:02Z</time>
      </trkpt>
      <trkpt lat="39.585480" lon="2.456500">
        <ele>222.071</ele>
        <time>2020-01-27T12:11:22Z</time>
      </trkpt>
      <trkpt lat="39.585880" lon="2.455810">
        <ele>221.054</ele>
        <time>2020-01-27T12:11:42Z</time>
      </trkpt>
      <trkpt lat="39.585920" lon="2.455610">
        <ele>220.018</ele>
        <time>2020-01-27T12:12:02Z</time>
      </trkpt>
      <trkpt lat="39.585900" lon="2.455430">
        <ele>220.098</ele>
        <time>2020-01-27T12:12:22Z</time>
      </trkpt>
      <trkpt lat="39.585820" lon="2.455280">
        <ele>220.017</ele>
        <time>2020-01-27T12:12:42Z</time>
      </trkpt>
      <trkpt lat="39.585460" lon="2.454730">
        <ele>219.008</ele>
        <time>2020-01-27T12:13:02Z</time>
      </trkpt>
      <trkpt lat="39.585010" lon="2.454180">
        <ele>218.035</ele>
        <time>2020-01-27T12:13:22Z</time>
      </trkpt>
      <trkpt lat="39.584750" lon="2.453700">
        <ele>218.056</ele>
        <time>2020-01-27T12:13:42Z</time>
      </trkpt>
      <trkpt lat="39.584700" lon="2.453340">
        <ele>217.010</ele>
        <time>2020-01-27T12:14:02Z</time>
      </trkpt>
      <trkpt lat="39.584720" lon="2.453140">
        <ele>217.027</ele>
        <time>2020-01-27T12:14:22Z</time>
      </trkpt>
      <trkpt lat="39.584830" lon="2.452990">
        <ele>217.062</ele>
        <time>2020-01-27T12:14:42Z</time>
      </trkpt>
      <trkpt lat="39.585050" lon="2.452970">
        <ele>217.048</ele>
        <time>2020-01-27T12:15:02Z</time>
      </trkpt>
      <trkpt lat="39.585340" lon="2.453010">
        <ele>217.016</ele>
        <time>2020-01-27T12:15:22Z</time>
      </trkpt>
      <trkpt lat="39.585630" lon="2.453020">
        <ele>215.069</ele>
        <time>2020-01-27T12:15:42Z</time>
      </trkpt>
      <trkpt lat="39.585860" lon="2.452940">
        <ele>213.088</ele>
        <time>2020-01-27T12:16:02Z</time>
      </trkpt>
      <trkpt lat="39.586070" lon="2.452720">
        <ele>211.024</ele>
        <time>2020-01-27T12:16:22Z</time>
      </trkpt>
      <trkpt lat="39.586270" lon="2.452290">
        <ele>209.026</ele>
        <time>2020-01-27T12:16:42Z</time>
      </trkpt>
      <trkpt lat="39.586520" lon="2.452010">
        <ele>207.008</ele>
        <time>2020-01-27T12:17:02Z</time>
      </trkpt>
      <trkpt lat="39.586920" lon="2.451780">
        <ele>204.062</ele>
        <time>2020-01-27T12:17:22Z</time>
      </trkpt>
      <trkpt lat="39.587120" lon="2.451570">
        <ele>203.023</ele>
        <time>2020-01-27T12:17:42Z</time>
      </trkpt>
      <trkpt lat="39.587290" lon="2.451290">
        <ele>203.077</ele>
        <time>2020-01-27T12:18:02Z</time>
      </trkpt>
      <trkpt lat="39.587880" lon="2.450210">
        <ele>202.074</ele>
        <time>2020-01-27T12:18:22Z</time>
      </trkpt>
      <trkpt lat="39.588020" lon="2.450040">
        <ele>202.069</ele>
        <time>2020-01-27T12:18:42Z</time>
      </trkpt>
      <trkpt lat="39.588180" lon="2.449900">
        <ele>202.035</ele>
        <time>2020-01-27T12:19:02Z</time>
      </trkpt>
      <trkpt lat="39.588290" lon="2.449720">
        <ele>201.083</ele>
        <time>2020-01-27T12:19:22Z</time>
      </trkpt>
      <trkpt lat="39.588480" lon="2.449200">
        <ele>201.046</ele>
        <time>2020-01-27T12:19:42Z</time>
      </trkpt>
      <trkpt lat="39.588710" lon="2.448900">
        <ele>201.072</ele>
        <time>2020-01-27T12:20:02Z</time>
      </trkpt>
      <trkpt lat="39.589010" lon="2.448600">
        <ele>201.013</ele>
        <time>2020-01-27T12:20:22Z</time>
      </trkpt>
      <trkpt lat="39.590280" lon="2.447430">
        <ele>202.014</ele>
        <time>2020-01-27T12:20:42Z</time>
      </trkpt>
      <trkpt lat="39.590620" lon="2.447240">
        <ele>202.008</ele>
        <time>2020-01-27T12:21:02Z</time>
      </trkpt>
      <trkpt lat="39.590820" lon="2.447060">
        <ele>202.011</ele>
        <time>2020-01-27T12:21:22Z</time>
      </trkpt>
      <trkpt lat="39.591750" lon="2.445900">
        <ele>207.032</ele>
        <time>2020-01-27T12:21:42Z</time>
      </trkpt>
      <trkpt lat="39.591820" lon="2.445750">
        <ele>207.026</ele>
        <time>2020-01-27T12:22:02Z</time>
      </trkpt>
      <trkpt lat="39.591890" lon="2.445130">
        <ele>210.023</ele>
        <time>2020-01-27T12:22:22Z</time>
      </trkpt>
      <trkpt lat="39.591880" lon="2.444880">
        <ele>211.018</ele>
        <time>2020-01-27T12:22:42Z</time>
      </trkpt>
      <trkpt lat="39.591750" lon="2.444550">
        <ele>212.024</ele>
        <time>2020-01-27T12:23:02Z</time>
      </trkpt>
      <trkpt lat="39.591570" lon="2.444180">
        <ele>214.052</ele>
        <time>2020-01-27T12:23:22Z</time>
      </trkpt>
      <trkpt lat="39.591160" lon="2.443560">
        <ele>217.095</ele>
        <time>2020-01-27T12:23:42Z</time>
      </trkpt>
      <trkpt lat="39.591070" lon="2.443220">
        <ele>219.011</ele>
        <time>2020-01-27T12:24:02Z</time>
      </trkpt>
      <trkpt lat="39.590930" lon="2.442960">
        <ele>220.021</ele>
        <time>2020-01-27T12:24:22Z</time>
      </trkpt>
      <trkpt lat="39.590720" lon="2.442820">
        <ele>221.003</ele>
        <time>2020-01-27T12:24:42Z</time>
      </trkpt>
      <trkpt lat="39.590140" lon="2.442690">
        <ele>224.008</ele>
        <time>2020-01-27T12:25:02Z</time>
      </trkpt>
      <trkpt lat="39.589490" lon="2.442360">
        <ele>224.045</ele>
        <time>2020-01-27T12:25:22Z</time>
      </trkpt>
      <trkpt lat="39.589320" lon="2.442190">
        <ele>224.016</ele>
        <time>2020-01-27T12:25:42Z</time>
      </trkpt>
      <trkpt lat="39.589220" lon="2.442020">
        <ele>224.040</ele>
        <time>2020-01-27T12:26:02Z</time>
      </trkpt>
      <trkpt lat="39.589150" lon="2.441840">
        <ele>223.027</ele>
        <time>2020-01-27T12:26:22Z</time>
      </trkpt>
      <trkpt lat="39.588990" lon="2.441130">
        <ele>223.042</ele>
        <time>2020-01-27T12:26:42Z</time>
      </trkpt>
      <trkpt lat="39.588890" lon="2.440840">
        <ele>223.098</ele>
        <time>2020-01-27T12:27:02Z</time>
      </trkpt>
      <trkpt lat="39.588710" lon="2.440570">
        <ele>222.066</ele>
        <time>2020-01-27T12:27:22Z</time>
      </trkpt>
      <trkpt lat="39.588080" lon="2.439880">
        <ele>218.069</ele>
        <time>2020-01-27T12:27:42Z</time>
      </trkpt>
      <trkpt lat="39.587480" lon="2.439050">
        <ele>215.097</ele>
        <time>2020-01-27T12:28:02Z</time>
      </trkpt>
      <trkpt lat="39.587250" lon="2.438810">
        <ele>213.023</ele>
        <time>2020-01-27T12:28:22Z</time>
      </trkpt>
      <trkpt lat="39.587210" lon="2.438740">
        <ele>212.025</ele>
        <time>2020-01-27T12:28:42Z</time>
      </trkpt>
      <trkpt lat="39.587210" lon="2.438690">
        <ele>212.008</ele>
        <time>2020-01-27T12:29:02Z</time>
      </trkpt>
      <trkpt lat="39.587240" lon="2.438630">
        <ele>211.073</ele>
        <time>2020-01-27T12:29:22Z</time>
      </trkpt>
      <trkpt lat="39.587280" lon="2.438600">
        <ele>210.054</ele>
        <time>2020-01-27T12:29:42Z</time>
      </trkpt>
      <trkpt lat="39.587450" lon="2.438780">
        <ele>208.068</ele>
        <time>2020-01-27T12:30:02Z</time>
      </trkpt>
      <trkpt lat="39.587570" lon="2.438840">
        <ele>207.095</ele>
        <time>2020-01-27T12:30:22Z</time>
      </trkpt>
      <trkpt lat="39.587650" lon="2.438800">
        <ele>206.050</ele>
        <time>2020-01-27T12:30:42Z</time>
      </trkpt>
      <trkpt lat="39.587680" lon="2.438730">
        <ele>205.056</ele>
        <time>2020-01-27T12:31:02Z</time>
      </trkpt>
      <trkpt lat="39.587690" lon="2.438630">
        <ele>204.094</ele>
        <time>2020-01-27T12:31:22Z</time>
      </trkpt>
      <trkpt lat="39.587670" lon="2.438450">
        <ele>203.027</ele>
        <time>2020-01-27T12:31:42Z</time>
      </trkpt>
      <trkpt lat="39.587500" lon="2.437680">
        <ele>196.094</ele>
        <time>2020-01-27T12:32:02Z</time>
      </trkpt>
      <trkpt lat="39.587290" lon="2.437240">
        <ele>193.057</ele>
        <time>2020-01-27T12:32:22Z</time>
      </trkpt>
      <trkpt lat="39.587190" lon="2.436910">
        <ele>193.022</ele>
        <time>2020-01-27T12:32:42Z</time>
      </trkpt>
      <trkpt lat="39.587210" lon="2.436610">
        <ele>193.008</ele>
        <time>2020-01-27T12:33:02Z</time>
      </trkpt>
      <trkpt lat="39.587250" lon="2.436530">
        <ele>193.023</ele>
        <time>2020-01-27T12:33:22Z</time>
      </trkpt>
      <trkpt lat="39.587330" lon="2.436450">
        <ele>193.044</ele>
        <time>2020-01-27T12:33:42Z</time>
      </trkpt>
      <trkpt lat="39.587420" lon="2.436460">
        <ele>193.048</ele>
        <time>2020-01-27T12:34:02Z</time>
      </trkpt>
      <trkpt lat="39.587490" lon="2.436500">
        <ele>193.025</ele>
        <time>2020-01-27T12:34:22Z</time>
      </trkpt>
      <trkpt lat="39.587580" lon="2.436630">
        <ele>194.010</ele>
        <time>2020-01-27T12:34:42Z</time>
      </trkpt>
      <trkpt lat="39.587670" lon="2.436800">
        <ele>194.056</ele>
        <time>2020-01-27T12:35:02Z</time>
      </trkpt>
      <trkpt lat="39.587870" lon="2.436990">
        <ele>194.044</ele>
        <time>2020-01-27T12:35:22Z</time>
      </trkpt>
      <trkpt lat="39.587990" lon="2.437040">
        <ele>194.027</ele>
        <time>2020-01-27T12:35:42Z</time>
      </trkpt>
      <trkpt lat="39.588100" lon="2.437030">
        <ele>194.084</ele>
        <time>2020-01-27T12:36:02Z</time>
      </trkpt>
      <trkpt lat="39.588170" lon="2.436980">
        <ele>194.007</ele>
        <time>2020-01-27T12:36:22Z</time>
      </trkpt>
      <trkpt lat="39.588200" lon="2.436910">
        <ele>194.017</ele>
        <time>2020-01-27T12:36:42Z</time>
      </trkpt>
      <trkpt lat="39.588190" lon="2.436750">
        <ele>194.008</ele>
        <time>2020-01-27T12:37:02Z</time>
      </trkpt>
      <trkpt lat="39.588150" lon="2.436550">
        <ele>194.052</ele>
        <time>2020-01-27T12:37:22Z</time>
      </trkpt>
      <trkpt lat="39.588120" lon="2.436200">
        <ele>192.053</ele>
        <time>2020-01-27T12:37:42Z</time>
      </trkpt>
      <trkpt lat="39.588140" lon="2.435830">
        <ele>191.057</ele>
        <time>2020-01-27T12:38:02Z</time>
      </trkpt>
      <trkpt lat="39.588100" lon="2.435260">
        <ele>189.024</ele>
        <time>2020-01-27T12:38:22Z</time>
      </trkpt>
      <trkpt lat="39.588060" lon="2.434980">
        <ele>187.059</ele>
        <time>2020-01-27T12:38:42Z</time>
      </trkpt>
      <trkpt lat="39.588080" lon="2.434840">
        <ele>187.065</ele>
        <time>2020-01-27T12:39:02Z</time>
      </trkpt>
      <trkpt lat="39.588200" lon="2.434760">
        <ele>186.013</ele>
        <time>2020-01-27T12:39:22Z</time>
      </trkpt>
      <trkpt lat="39.588340" lon="2.434760">
        <ele>185.086</ele>
        <time>2020-01-27T12:39:42Z</time>
      </trkpt>
      <trkpt lat="39.588500" lon="2.434710">
        <ele>184.081</ele>
        <time>2020-01-27T12:40:02Z</time>
      </trkpt>
      <trkpt lat="39.588640" lon="2.434530">
        <ele>183.061</ele>
        <time>2020-01-27T12:40:22Z</time>
      </trkpt>
      <trkpt lat="39.588750" lon="2.434320">
        <ele>181.017</ele>
        <time>2020-01-27T12:40:42Z</time>
      </trkpt>
      <trkpt lat="39.588720" lon="2.434120">
        <ele>179.008</ele>
        <time>2020-01-27T12:41:02Z</time>
      </trkpt>
      <trkpt lat="39.588640" lon="2.433840">
        <ele>176.012</ele>
        <time>2020-01-27T12:41:22Z</time>
      </trkpt>
      <trkpt lat="39.588640" lon="2.433840">
        <ele>176.063</ele>
        <time>2020-01-27T12:41:42Z</time>
      </trkpt>
      <trkpt lat="39.588600" lon="2.433760">
        <ele>175.087</ele>
        <time>2020-01-27T12:42:02Z</time>
      </trkpt>
      <trkpt lat="39.588590" lon="2.433440">
        <ele>172.074</ele>
        <time>2020-01-27T12:42:22Z</time>
      </trkpt>
      <trkpt lat="39.588730" lon="2.433180">
        <ele>169.029</ele>
        <time>2020-01-27T12:42:42Z</time>
      </trkpt>
      <trkpt lat="39.589080" lon="2.432880">
        <ele>164.085</ele>
        <time>2020-01-27T12:43:02Z</time>
      </trkpt>
      <trkpt lat="39.589310" lon="2.432750">
        <ele>161.023</ele>
        <time>2020-01-27T12:43:22Z</time>
      </trkpt>
      <trkpt lat="39.589430" lon="2.432740">
        <ele>159.066</ele>
        <time>2020-01-27T12:43:42Z</time>
      </trkpt>
      <trkpt lat="39.589470" lon="2.432690">
        <ele>158.067</ele>
        <time>2020-01-27T12:44:02Z</time>
      </trkpt>
      <trkpt lat="39.589450" lon="2.432600">
        <ele>158.081</ele>
        <time>2020-01-27T12:44:22Z</time>
      </trkpt>
      <trkpt lat="39.589380" lon="2.432570">
        <ele>158.019</ele>
        <time>2020-01-27T12:44:42Z</time>
      </trkpt>
      <trkpt lat="39.589160" lon="2.432690">
        <ele>157.008</ele>
        <time>2020-01-27T12:45:02Z</time>
      </trkpt>
      <trkpt lat="39.588570" lon="2.433070">
        <ele>154.050</ele>
        <time>2020-01-27T12:45:22Z</time>
      </trkpt>
      <trkpt lat="39.588440" lon="2.433200">
        <ele>153.091</ele>
        <time>2020-01-27T12:45:42Z</time>
      </trkpt>
      <trkpt lat="39.588400" lon="2.433530">
        <ele>152.055</ele>
        <time>2020-01-27T12:46:02Z</time>
      </trkpt>
      <trkpt lat="39.588410" lon="2.433800">
        <ele>151.082</ele>
        <time>2020-01-27T12:46:22Z</time>
      </trkpt>
      <trkpt lat="39.588360" lon="2.433900">
        <ele>151.087</ele>
        <time>2020-01-27T12:46:42Z</time>
      </trkpt>
      <trkpt lat="39.588260" lon="2.433960">
        <ele>150.043</ele>
        <time>2020-01-27T12:47:02Z</time>
      </trkpt>
      <trkpt lat="39.588130" lon="2.433950">
        <ele>150.021</ele>
        <time>2020-01-27T12:47:22Z</time>
      </trkpt>
      <trkpt lat="39.587880" lon="2.433840">
        <ele>148.014</ele>
        <time>2020-01-27T12:47:42Z</time>
      </trkpt>
      <trkpt lat="39.587630" lon="2.433780">
        <ele>147.019</ele>
        <time>2020-01-27T12:48:02Z</time>
      </trkpt>
      <trkpt lat="39.587480" lon="2.433820">
        <ele>146.009</ele>
        <time>2020-01-27T12:48:22Z</time>
      </trkpt>
      <trkpt lat="39.587410" lon="2.434010">
        <ele>146.019</ele>
        <time>2020-01-27T12:48:42Z</time>
      </trkpt>
      <trkpt lat="39.587430" lon="2.434120">
        <ele>145.008</ele>
        <time>2020-01-27T12:49:02Z</time>
      </trkpt>
      <trkpt lat="39.587550" lon="2.434450">
        <ele>144.085</ele>
        <time>2020-01-27T12:49:22Z</time>
      </trkpt>
      <trkpt lat="39.587590" lon="2.434630">
        <ele>143.056</ele>
        <time>2020-01-27T12:49:42Z</time>
      </trkpt>
      <trkpt lat="39.587590" lon="2.434770">
        <ele>142.040</ele>
        <time>2020-01-27T12:50:02Z</time>
      </trkpt>
      <trkpt lat="39.587510" lon="2.434850">
        <ele>142.047</ele>
        <time>2020-01-27T12:50:22Z</time>
      </trkpt>
      <trkpt lat="39.587420" lon="2.434840">
        <ele>141.012</ele>
        <time>2020-01-27T12:50:42Z</time>
      </trkpt>
      <trkpt lat="39.587310" lon="2.434740">
        <ele>141.098</ele>
        <time>2020-01-27T12:51:02Z</time>
      </trkpt>
      <trkpt lat="39.587110" lon="2.434630">
        <ele>140.076</ele>
        <time>2020-01-27T12:51:22Z</time>
      </trkpt>
      <trkpt lat="39.586510" lon="2.434470">
        <ele>137.029</ele>
        <time>2020-01-27T12:51:42Z</time>
      </trkpt>
      <trkpt lat="39.586350" lon="2.434500">
        <ele>137.089</ele>
        <time>2020-01-27T12:52:02Z</time>
      </trkpt>
      <trkpt lat="39.586280" lon="2.434580">
        <ele>136.006</ele>
        <time>2020-01-27T12:52:22Z</time>
      </trkpt>
      <trkpt lat="39.586070" lon="2.435500">
        <ele>133.026</ele>
        <time>2020-01-27T12:52:42Z</time>
      </trkpt>
      <trkpt lat="39.586020" lon="2.435630">
        <ele>133.008</ele>
        <time>2020-01-27T12:53:02Z</time>
      </trkpt>
      <trkpt lat="39.585940" lon="2.435700">
        <ele>133.042</ele>
        <time>2020-01-27T12:53:22Z</time>
      </trkpt>
      <trkpt lat="39.585810" lon="2.435650">
        <ele>132.063</ele>
        <time>2020-01-27T12:53:42Z</time>
      </trkpt>
      <trkpt lat="39.585600" lon="2.435380">
        <ele>131.047</ele>
        <time>2020-01-27T12:54:02Z</time>
      </trkpt>
      <trkpt lat="39.585450" lon="2.435130">
        <ele>129.024</ele>
        <time>2020-01-27T12:54:22Z</time>
      </trkpt>
      <trkpt lat="39.585420" lon="2.435000">
        <ele>129.039</ele>
        <time>2020-01-27T12:54:42Z</time>
      </trkpt>
      <trkpt lat="39.585440" lon="2.434750">
        <ele>128.015</ele>
        <time>2020-01-27T12:55:02Z</time>
      </trkpt>
      <trkpt lat="39.585490" lon="2.434470">
        <ele>126.093</ele>
        <time>2020-01-27T12:55:22Z</time>
      </trkpt>
      <trkpt lat="39.585500" lon="2.434280">
        <ele>126.036</ele>
        <time>2020-01-27T12:55:42Z</time>
      </trkpt>
      <trkpt lat="39.585440" lon="2.434160">
        <ele>125.033</ele>
        <time>2020-01-27T12:56:02Z</time>
      </trkpt>
      <trkpt lat="39.585330" lon="2.434080">
        <ele>124.023</ele>
        <time>2020-01-27T12:56:22Z</time>
      </trkpt>
      <trkpt lat="39.585000" lon="2.434070">
        <ele>123.015</ele>
        <time>2020-01-27T12:56:42Z</time>
      </trkpt>
      <trkpt lat="39.584700" lon="2.434020">
        <ele>121.008</ele>
        <time>2020-01-27T12:57:02Z</time>
      </trkpt>
      <trkpt lat="39.584530" lon="2.433880">
        <ele>120.067</ele>
        <time>2020-01-27T12:57:22Z</time>
      </trkpt>
      <trkpt lat="39.584050" lon="2.433370">
        <ele>117.048</ele>
        <time>2020-01-27T12:57:42Z</time>
      </trkpt>
      <trkpt lat="39.583760" lon="2.432800">
        <ele>114.092</ele>
        <time>2020-01-27T12:58:02Z</time>
      </trkpt>
      <trkpt lat="39.583560" lon="2.432540">
        <ele>112.099</ele>
        <time>2020-01-27T12:58:22Z</time>
      </trkpt>
      <trkpt lat="39.583480" lon="2.432500">
        <ele>112.044</ele>
        <time>2020-01-27T12:58:42Z</time>
      </trkpt>
      <trkpt lat="39.583050" lon="2.432600">
        <ele>109.080</ele>
        <time>2020-01-27T12:59:02Z</time>
      </trkpt>
      <trkpt lat="39.582830" lon="2.432630">
        <ele>107.098</ele>
        <time>2020-01-27T12:59:22Z</time>
      </trkpt>
      <trkpt lat="39.582530" lon="2.432550">
        <ele>105.011</ele>
        <time>2020-01-27T12:59:42Z</time>
      </trkpt>
      <trkpt lat="39.582200" lon="2.432360">
        <ele>102.023</ele>
        <time>2020-01-27T13:00:02Z</time>
      </trkpt>
      <trkpt lat="39.581780" lon="2.431990">
        <ele>97.083</ele>
        <time>2020-01-27T13:00:22Z</time>
      </trkpt>
      <trkpt lat="39.581330" lon="2.431460">
        <ele>93.011</ele>
        <time>2020-01-27T13:00:42Z</time>
      </trkpt>
      <trkpt lat="39.581100" lon="2.431290">
        <ele>93.008</ele>
        <time>2020-01-27T13:01:02Z</time>
      </trkpt>
      <trkpt lat="39.580850" lon="2.431170">
        <ele>93.026</ele>
        <time>2020-01-27T13:01:22Z</time>
      </trkpt>
      <trkpt lat="39.579900" lon="2.430890">
        <ele>94.017</ele>
        <time>2020-01-27T13:01:42Z</time>
      </trkpt>
      <trkpt lat="39.579660" lon="2.430760">
        <ele>94.051</ele>
        <time>2020-01-27T13:02:02Z</time>
      </trkpt>
      <trkpt lat="39.579430" lon="2.430570">
        <ele>95.018</ele>
        <time>2020-01-27T13:02:22Z</time>
      </trkpt>
      <trkpt lat="39.579160" lon="2.430190">
        <ele>95.053</ele>
        <time>2020-01-27T13:02:42Z</time>
      </trkpt>
      <trkpt lat="39.578920" lon="2.429770">
        <ele>95.099</ele>
        <time>2020-01-27T13:03:02Z</time>
      </trkpt>
      <trkpt lat="39.578800" lon="2.429300">
        <ele>95.067</ele>
        <time>2020-01-27T13:03:22Z</time>
      </trkpt>
      <trkpt lat="39.578730" lon="2.428740">
        <ele>95.050</ele>
        <time>2020-01-27T13:03:42Z</time>
      </trkpt>
      <trkpt lat="39.578650" lon="2.428430">
        <ele>95.094</ele>
        <time>2020-01-27T13:04:02Z</time>
      </trkpt>
      <trkpt lat="39.578390" lon="2.428140">
        <ele>95.057</ele>
        <time>2020-01-27T13:04:22Z</time>
      </trkpt>
      <trkpt lat="39.578080" lon="2.427690">
        <ele>95.022</ele>
        <time>2020-01-27T13:04:42Z</time>
      </trkpt>
      <trkpt lat="39.578050" lon="2.427590">
        <ele>95.008</ele>
        <time>2020-01-27T13:05:02Z</time>
      </trkpt>
      <trkpt lat="39.577950" lon="2.426930">
        <ele>95.023</ele>
        <time>2020-01-27T13:05:22Z</time>
      </trkpt>
      <trkpt lat="39.577480" lon="2.426200">
        <ele>95.034</ele>
        <time>2020-01-27T13:05:42Z</time>
      </trkpt>
      <trkpt lat="39.577420" lon="2.426040">
        <ele>94.078</ele>
        <time>2020-01-27T13:06:02Z</time>
      </trkpt>
      <trkpt lat="39.577320" lon="2.425120">
        <ele>92.055</ele>
        <time>2020-01-27T13:06:22Z</time>
      </trkpt>
      <trkpt lat="39.577220" lon="2.424750">
        <ele>92.080</ele>
        <time>2020-01-27T13:06:42Z</time>
      </trkpt>
      <trkpt lat="39.577220" lon="2.424660">
        <ele>92.056</ele>
        <time>2020-01-27T13:07:02Z</time>
      </trkpt>
      <trkpt lat="39.577200" lon="2.424590">
        <ele>91.064</ele>
        <time>2020-01-27T13:07:22Z</time>
      </trkpt>
      <trkpt lat="39.577230" lon="2.424440">
        <ele>91.027</ele>
        <time>2020-01-27T13:07:42Z</time>
      </trkpt>
      <trkpt lat="39.577390" lon="2.424290">
        <ele>91.026</ele>
        <time>2020-01-27T13:08:02Z</time>
      </trkpt>
      <trkpt lat="39.577510" lon="2.424150">
        <ele>90.047</ele>
        <time>2020-01-27T13:08:22Z</time>
      </trkpt>
      <trkpt lat="39.577550" lon="2.423990">
        <ele>90.011</ele>
        <time>2020-01-27T13:08:42Z</time>
      </trkpt>
      <trkpt lat="39.577520" lon="2.423800">
        <ele>90.008</ele>
        <time>2020-01-27T13:09:02Z</time>
      </trkpt>
      <trkpt lat="39.577460" lon="2.423580">
        <ele>90.096</ele>
        <time>2020-01-27T13:09:22Z</time>
      </trkpt>
      <trkpt lat="39.576680" lon="2.421930">
        <ele>90.017</ele>
        <time>2020-01-27T13:09:42Z</time>
      </trkpt>
      <trkpt lat="39.576730" lon="2.421480">
        <ele>90.051</ele>
        <time>2020-01-27T13:10:02Z</time>
      </trkpt>
      <trkpt lat="39.576860" lon="2.421250">
        <ele>90.018</ele>
        <time>2020-01-27T13:10:22Z</time>
      </trkpt>
      <trkpt lat="39.576950" lon="2.421020">
        <ele>90.043</ele>
        <time>2020-01-27T13:10:42Z</time>
      </trkpt>
      <trkpt lat="39.577160" lon="2.420910">
        <ele>91.099</ele>
        <time>2020-01-27T13:11:02Z</time>
      </trkpt>
      <trkpt lat="39.577230" lon="2.420930">
        <ele>91.037</ele>
        <time>2020-01-27T13:11:22Z</time>
      </trkpt>
      <trkpt lat="39.577260" lon="2.420600">
        <ele>91.070</ele>
        <time>2020-01-27T13:11:42Z</time>
      </trkpt>
      <trkpt lat="39.577240" lon="2.420430">
        <ele>92.015</ele>
        <time>2020-01-27T13:12:02Z</time>
      </trkpt>
      <trkpt lat="39.577210" lon="2.420320">
        <ele>92.065</ele>
        <time>2020-01-27T13:12:22Z</time>
      </trkpt>
      <trkpt lat="39.577150" lon="2.420240">
        <ele>92.011</ele>
        <time>2020-01-27T13:12:42Z</time>
      </trkpt>
      <trkpt lat="39.577060" lon="2.420030">
        <ele>92.008</ele>
        <time>2020-01-27T13:13:02Z</time>
      </trkpt>
      <trkpt lat="39.576930" lon="2.419330">
        <ele>93.065</ele>
        <time>2020-01-27T13:13:22Z</time>
      </trkpt>
      <trkpt lat="39.576780" lon="2.418690">
        <ele>90.086</ele>
        <time>2020-01-27T13:13:42Z</time>
      </trkpt>
      <trkpt lat="39.576720" lon="2.418360">
        <ele>88.080</ele>
        <time>2020-01-27T13:14:02Z</time>
      </trkpt>
      <trkpt lat="39.576780" lon="2.418100">
        <ele>86.017</ele>
        <time>2020-01-27T13:14:22Z</time>
      </trkpt>
      <trkpt lat="39.576850" lon="2.417880">
        <ele>84.082</ele>
        <time>2020-01-27T13:14:42Z</time>
      </trkpt>
      <trkpt lat="39.576770" lon="2.417820">
        <ele>84.028</ele>
        <time>2020-01-27T13:15:02Z</time>
      </trkpt>
      <trkpt lat="39.576730" lon="2.417630">
        <ele>82.076</ele>
        <time>2020-01-27T13:15:22Z</time>
      </trkpt>
      <trkpt lat="39.576870" lon="2.417040">
        <ele>79.039</ele>
        <time>2020-01-27T13:15:42Z</time>
      </trkpt>
      <trkpt lat="39.576880" lon="2.416930">
        <ele>78.082</ele>
        <time>2020-01-27T13:16:02Z</time>
      </trkpt>
      <trkpt lat="39.577160" lon="2.416340">
        <ele>76.043</ele>
        <time>2020-01-27T13:16:22Z</time>
      </trkpt>
      <trkpt lat="39.577490" lon="2.415410">
        <ele>73.017</ele>
        <time>2020-01-27T13:16:42Z</time>
      </trkpt>
      <trkpt lat="39.577510" lon="2.415250">
        <ele>72.008</ele>
        <time>2020-01-27T13:17:02Z</time>
      </trkpt>
      <trkpt lat="39.577480" lon="2.415000">
        <ele>71.072</ele>
        <time>2020-01-27T13:17:22Z</time>
      </trkpt>
      <trkpt lat="39.577280" lon="2.414290">
        <ele>70.013</ele>
        <time>2020-01-27T13:17:42Z</time>
      </trkpt>
      <trkpt lat="39.577230" lon="2.413070">
        <ele>71.057</ele>
        <time>2020-01-27T13:18:02Z</time>
      </trkpt>
      <trkpt lat="39.577170" lon="2.412890">
        <ele>71.084</ele>
        <time>2020-01-27T13:18:22Z</time>
      </trkpt>
      <trkpt lat="39.576890" lon="2.412540">
        <ele>72.029</ele>
        <time>2020-01-27T13:18:42Z</time>
      </trkpt>
      <trkpt lat="39.576440" lon="2.411790">
        <ele>73.095</ele>
        <time>2020-01-27T13:19:02Z</time>
      </trkpt>
      <trkpt lat="39.575770" lon="2.411080">
        <ele>73.093</ele>
        <time>2020-01-27T13:19:22Z</time>
      </trkpt>
      <trkpt lat="39.575130" lon="2.410240">
        <ele>73.016</ele>
        <time>2020-01-27T13:19:42Z</time>
      </trkpt>
      <trkpt lat="39.574860" lon="2.409460">
        <ele>76.065</ele>
        <time>2020-01-27T13:20:02Z</time>
      </trkpt>
      <trkpt lat="39.574340" lon="2.407760">
        <ele>84.068</ele>
        <time>2020-01-27T13:20:22Z</time>
      </trkpt>
      <trkpt lat="39.574080" lon="2.406010">
        <ele>96.014</ele>
        <time>2020-01-27T13:20:42Z</time>
      </trkpt>
      <trkpt lat="39.573970" lon="2.404810">
        <ele>102.008</ele>
        <time>2020-01-27T13:21:02Z</time>
      </trkpt>
      <trkpt lat="39.573860" lon="2.403180">
        <ele>109.040</ele>
        <time>2020-01-27T13:21:22Z</time>
      </trkpt>
      <trkpt lat="39.573670" lon="2.401710">
        <ele>116.061</ele>
        <time>2020-01-27T13:21:42Z</time>
      </trkpt>
      <trkpt lat="39.573780" lon="2.401480">
        <ele>118.085</ele>
        <time>2020-01-27T13:22:02Z</time>
      </trkpt>
      <trkpt lat="39.573900" lon="2.401360">
        <ele>119.022</ele>
        <time>2020-01-27T13:22:22Z</time>
      </trkpt>
      <trkpt lat="39.574120" lon="2.401180">
        <ele>121.087</ele>
        <time>2020-01-27T13:22:42Z</time>
      </trkpt>
      <trkpt lat="39.574310" lon="2.401120">
        <ele>122.023</ele>
        <time>2020-01-27T13:23:02Z</time>
      </trkpt>
      <trkpt lat="39.575040" lon="2.401120">
        <ele>128.031</ele>
        <time>2020-01-27T13:23:22Z</time>
      </trkpt>
      <trkpt lat="39.575350" lon="2.400960">
        <ele>130.084</ele>
        <time>2020-01-27T13:23:42Z</time>
      </trkpt>
      <trkpt lat="39.575690" lon="2.400610">
        <ele>133.011</ele>
        <time>2020-01-27T13:24:02Z</time>
      </trkpt>
      <trkpt lat="39.575740" lon="2.400510">
        <ele>134.021</ele>
        <time>2020-01-27T13:24:22Z</time>
      </trkpt>
      <trkpt lat="39.575810" lon="2.399000">
        <ele>140.003</ele>
        <time>2020-01-27T13:24:42Z</time>
      </trkpt>
      <trkpt lat="39.575880" lon="2.398900">
        <ele>139.008</ele>
        <time>2020-01-27T13:25:02Z</time>
      </trkpt>
      <trkpt lat="39.576170" lon="2.398850">
        <ele>138.025</ele>
        <time>2020-01-27T13:25:22Z</time>
      </trkpt>
      <trkpt lat="39.576380" lon="2.398850">
        <ele>137.016</ele>
        <time>2020-01-27T13:25:42Z</time>
      </trkpt>
      <trkpt lat="39.576520" lon="2.399020">
        <ele>137.090</ele>
        <time>2020-01-27T13:26:02Z</time>
      </trkpt>
      <trkpt lat="39.576700" lon="2.399520">
        <ele>135.037</ele>
        <time>2020-01-27T13:26:22Z</time>
      </trkpt>
      <trkpt lat="39.576890" lon="2.399740">
        <ele>134.072</ele>
        <time>2020-01-27T13:26:42Z</time>
      </trkpt>
      <trkpt lat="39.577320" lon="2.399850">
        <ele>132.098</ele>
        <time>2020-01-27T13:27:02Z</time>
      </trkpt>
      <trkpt lat="39.577620" lon="2.399830">
        <ele>128.046</ele>
        <time>2020-01-27T13:27:22Z</time>
      </trkpt>
      <trkpt lat="39.577790" lon="2.399750">
        <ele>126.049</ele>
        <time>2020-01-27T13:27:42Z</time>
      </trkpt>
      <trkpt lat="39.577910" lon="2.399650">
        <ele>124.021</ele>
        <time>2020-01-27T13:28:02Z</time>
      </trkpt>
      <trkpt lat="39.578010" lon="2.399330">
        <ele>121.041</ele>
        <time>2020-01-27T13:28:22Z</time>
      </trkpt>
      <trkpt lat="39.578090" lon="2.398830">
        <ele>116.005</ele>
        <time>2020-01-27T13:28:42Z</time>
      </trkpt>
      <trkpt lat="39.578140" lon="2.398740">
        <ele>115.008</ele>
        <time>2020-01-27T13:29:02Z</time>
      </trkpt>
      <trkpt lat="39.578650" lon="2.398390">
        <ele>109.066</ele>
        <time>2020-01-27T13:29:22Z</time>
      </trkpt>
      <trkpt lat="39.578770" lon="2.398390">
        <ele>108.077</ele>
        <time>2020-01-27T13:29:42Z</time>
      </trkpt>
      <trkpt lat="39.578880" lon="2.398370">
        <ele>107.021</ele>
        <time>2020-01-27T13:30:02Z</time>
      </trkpt>
      <trkpt lat="39.578920" lon="2.398310">
        <ele>106.058</ele>
        <time>2020-01-27T13:30:22Z</time>
      </trkpt>
      <trkpt lat="39.578900" lon="2.398200">
        <ele>106.093</ele>
        <time>2020-01-27T13:30:42Z</time>
      </trkpt>
      <trkpt lat="39.578860" lon="2.398160">
        <ele>105.039</ele>
        <time>2020-01-27T13:31:02Z</time>
      </trkpt>
      <trkpt lat="39.578790" lon="2.398120">
        <ele>105.097</ele>
        <time>2020-01-27T13:31:22Z</time>
      </trkpt>
      <trkpt lat="39.578590" lon="2.398130">
        <ele>103.090</ele>
        <time>2020-01-27T13:31:42Z</time>
      </trkpt>
      <trkpt lat="39.578420" lon="2.398230">
        <ele>101.035</ele>
        <time>2020-01-27T13:32:02Z</time>
      </trkpt>
      <trkpt lat="39.578360" lon="2.398190">
        <ele>101.086</ele>
        <time>2020-01-27T13:32:22Z</time>
      </trkpt>
      <trkpt lat="39.578380" lon="2.398090">
        <ele>100.014</ele>
        <time>2020-01-27T13:32:42Z</time>
      </trkpt>
      <trkpt lat="39.578650" lon="2.397880">
        <ele>97.008</ele>
        <time>2020-01-27T13:33:02Z</time>
      </trkpt>
      <trkpt lat="39.578740" lon="2.397850">
        <ele>97.017</ele>
        <time>2020-01-27T13:33:22Z</time>
      </trkpt>
      <trkpt lat="39.579030" lon="2.397820">
        <ele>94.058</ele>
        <time>2020-01-27T13:33:42Z</time>
      </trkpt>
      <trkpt lat="39.579110" lon="2.397780">
        <ele>94.092</ele>
        <time>2020-01-27T13:34:02Z</time>
      </trkpt>
      <trkpt lat="39.578870" lon="2.396530">
        <ele>87.079</ele>
        <time>2020-01-27T13:34:22Z</time>
      </trkpt>
      <trkpt lat="39.578840" lon="2.396140">
        <ele>86.054</ele>
        <time>2020-01-27T13:34:42Z</time>
      </trkpt>
      <trkpt lat="39.578830" lon="2.395310">
        <ele>82.070</ele>
        <time>2020-01-27T13:35:02Z</time>
      </trkpt>
      <trkpt lat="39.578580" lon="2.393390">
        <ele>75.078</ele>
        <time>2020-01-27T13:35:22Z</time>
      </trkpt>
      <trkpt lat="39.578390" lon="2.392120">
        <ele>71.021</ele>
        <time>2020-01-27T13:35:42Z</time>
      </trkpt>
      <trkpt lat="39.578180" lon="2.391060">
        <ele>69.035</ele>
        <time>2020-01-27T13:36:02Z</time>
      </trkpt>
      <trkpt lat="39.577950" lon="2.390750">
        <ele>68.086</ele>
        <time>2020-01-27T13:36:22Z</time>
      </trkpt>
      <trkpt lat="39.577880" lon="2.390590">
        <ele>68.014</ele>
        <time>2020-01-27T13:36:42Z</time>
      </trkpt>
      <trkpt lat="39.577830" lon="2.390310">
        <ele>67.008</ele>
        <time>2020-01-27T13:37:02Z</time>
      </trkpt>
      <trkpt lat="39.577880" lon="2.390040">
        <ele>67.097</ele>
        <time>2020-01-27T13:37:22Z</time>
      </trkpt>
      <trkpt lat="39.577920" lon="2.389980">
        <ele>67.048</ele>
        <time>2020-01-27T13:37:42Z</time>
      </trkpt>
      <trkpt lat="39.577940" lon="2.389910">
        <ele>67.022</ele>
        <time>2020-01-27T13:38:02Z</time>
      </trkpt>
      <trkpt lat="39.577940" lon="2.389840">
        <ele>67.029</ele>
        <time>2020-01-27T13:38:22Z</time>
      </trkpt>
      <trkpt lat="39.577920" lon="2.389770">
        <ele>67.044</ele>
        <time>2020-01-27T13:38:42Z</time>
      </trkpt>
      <trkpt lat="39.577890" lon="2.389710">
        <ele>67.060</ele>
        <time>2020-01-27T13:39:02Z</time>
      </trkpt>
      <trkpt lat="39.577840" lon="2.389680">
        <ele>67.098</ele>
        <time>2020-01-27T13:39:22Z</time>
      </trkpt>
      <trkpt lat="39.577720" lon="2.389390">
        <ele>68.051</ele>
        <time>2020-01-27T13:39:42Z</time>
      </trkpt>
      <trkpt lat="39.577470" lon="2.387630">
        <ele>71.012</ele>
        <time>2020-01-27T13:40:02Z</time>
      </trkpt>
      <trkpt lat="39.577420" lon="2.387240">
        <ele>72.032</ele>
        <time>2020-01-27T13:40:22Z</time>
      </trkpt>
      <trkpt lat="39.577380" lon="2.385640">
        <ele>73.005</ele>
        <time>2020-01-27T13:40:42Z</time>
      </trkpt>
      <trkpt lat="39.577490" lon="2.384130">
        <ele>78.008</ele>
        <time>2020-01-27T13:41:02Z</time>
      </trkpt>
      <trkpt lat="39.577540" lon="2.383860">
        <ele>80.075</ele>
        <time>2020-01-27T13:41:22Z</time>
      </trkpt>
      <trkpt lat="39.577630" lon="2.383690">
        <ele>81.046</ele>
        <time>2020-01-27T13:41:42Z</time>
      </trkpt>
      <trkpt lat="39.577800" lon="2.383520">
        <ele>83.020</ele>
        <time>2020-01-27T13:42:02Z</time>
      </trkpt>
      <trkpt lat="39.577890" lon="2.383470">
        <ele>84.097</ele>
        <time>2020-01-27T13:42:22Z</time>
      </trkpt>
      <trkpt lat="39.578270" lon="2.383420">
        <ele>87.062</ele>
        <time>2020-01-27T13:42:42Z</time>
      </trkpt>
      <trkpt lat="39.578340" lon="2.383340">
        <ele>87.078</ele>
        <time>2020-01-27T13:43:02Z</time>
      </trkpt>
      <trkpt lat="39.578340" lon="2.383250">
        <ele>88.076</ele>
        <time>2020-01-27T13:43:22Z</time>
      </trkpt>
      <trkpt lat="39.578300" lon="2.383080">
        <ele>89.019</ele>
        <time>2020-01-27T13:43:42Z</time>
      </trkpt>
      <trkpt lat="39.578300" lon="2.382940">
        <ele>90.063</ele>
        <time>2020-01-27T13:44:02Z</time>
      </trkpt>
      <trkpt lat="39.578350" lon="2.382820">
        <ele>91.044</ele>
        <time>2020-01-27T13:44:22Z</time>
      </trkpt>
      <trkpt lat="39.578670" lon="2.382240">
        <ele>94.018</ele>
        <time>2020-01-27T13:44:42Z</time>
      </trkpt>
      <trkpt lat="39.578980" lon="2.381720">
        <ele>98.008</ele>
        <time>2020-01-27T13:45:02Z</time>
      </trkpt>
      <trkpt lat="39.579090" lon="2.381660">
        <ele>99.020</ele>
        <time>2020-01-27T13:45:22Z</time>
      </trkpt>
      <trkpt lat="39.579410" lon="2.381620">
        <ele>101.021</ele>
        <time>2020-01-27T13:45:42Z</time>
      </trkpt>
      <trkpt lat="39.579610" lon="2.381680">
        <ele>102.075</ele>
        <time>2020-01-27T13:46:02Z</time>
      </trkpt>
      <trkpt lat="39.579770" lon="2.381800">
        <ele>104.032</ele>
        <time>2020-01-27T13:46:22Z</time>
      </trkpt>
      <trkpt lat="39.579850" lon="2.381790">
        <ele>104.097</ele>
        <time>2020-01-27T13:46:42Z</time>
      </trkpt>
      <trkpt lat="39.579900" lon="2.381690">
        <ele>105.093</ele>
        <time>2020-01-27T13:47:02Z</time>
      </trkpt>
      <trkpt lat="39.579890" lon="2.381610">
        <ele>105.021</ele>
        <time>2020-01-27T13:47:22Z</time>
      </trkpt>
      <trkpt lat="39.579700" lon="2.381220">
        <ele>108.034</ele>
        <time>2020-01-27T13:47:42Z</time>
      </trkpt>
      <trkpt lat="39.579660" lon="2.381110">
        <ele>109.061</ele>
        <time>2020-01-27T13:48:02Z</time>
      </trkpt>
      <trkpt lat="39.579650" lon="2.380890">
        <ele>110.021</ele>
        <time>2020-01-27T13:48:22Z</time>
      </trkpt>
      <trkpt lat="39.579720" lon="2.380620">
        <ele>112.013</ele>
        <time>2020-01-27T13:48:42Z</time>
      </trkpt>
      <trkpt lat="39.580030" lon="2.379810">
        <ele>117.008</ele>
        <time>2020-01-27T13:49:02Z</time>
      </trkpt>
      <trkpt lat="39.580240" lon="2.379310">
        <ele>120.040</ele>
        <time>2020-01-27T13:49:22Z</time>
      </trkpt>
      <trkpt lat="39.580270" lon="2.379210">
        <ele>120.021</ele>
        <time>2020-01-27T13:49:42Z</time>
      </trkpt>
      <trkpt lat="39.580250" lon="2.379060">
        <ele>121.045</ele>
        <time>2020-01-27T13:50:02Z</time>
      </trkpt>
      <trkpt lat="39.580220" lon="2.378960">
        <ele>121.062</ele>
        <time>2020-01-27T13:50:22Z</time>
      </trkpt>
      <trkpt lat="39.580160" lon="2.378890">
        <ele>122.047</ele>
        <time>2020-01-27T13:50:42Z</time>
      </trkpt>
      <trkpt lat="39.579790" lon="2.378540">
        <ele>125.013</ele>
        <time>2020-01-27T13:51:02Z</time>
      </trkpt>
      <trkpt lat="39.579550" lon="2.378360">
        <ele>126.011</ele>
        <time>2020-01-27T13:51:22Z</time>
      </trkpt>
      <trkpt lat="39.579500" lon="2.378280">
        <ele>127.074</ele>
        <time>2020-01-27T13:51:42Z</time>
      </trkpt>
      <trkpt lat="39.579490" lon="2.378200">
        <ele>127.078</ele>
        <time>2020-01-27T13:52:02Z</time>
      </trkpt>
      <trkpt lat="39.579540" lon="2.378150">
        <ele>127.033</ele>
        <time>2020-01-27T13:52:22Z</time>
      </trkpt>
      <trkpt lat="39.579640" lon="2.378180">
        <ele>128.026</ele>
        <time>2020-01-27T13:52:42Z</time>
      </trkpt>
      <trkpt lat="39.579830" lon="2.378370">
        <ele>129.008</ele>
        <time>2020-01-27T13:53:02Z</time>
      </trkpt>
      <trkpt lat="39.579920" lon="2.378410">
        <ele>130.021</ele>
        <time>2020-01-27T13:53:22Z</time>
      </trkpt>
      <trkpt lat="39.580020" lon="2.378380">
        <ele>130.012</ele>
        <time>2020-01-27T13:53:42Z</time>
      </trkpt>
      <trkpt lat="39.580100" lon="2.378340">
        <ele>130.096</ele>
        <time>2020-01-27T13:54:02Z</time>
      </trkpt>
      <trkpt lat="39.580200" lon="2.378250">
        <ele>130.093</ele>
        <time>2020-01-27T13:54:22Z</time>
      </trkpt>
      <trkpt lat="39.580260" lon="2.378160">
        <ele>130.068</ele>
        <time>2020-01-27T13:54:42Z</time>
      </trkpt>
      <trkpt lat="39.580300" lon="2.377990">
        <ele>129.024</ele>
        <time>2020-01-27T13:55:02Z</time>
      </trkpt>
      <trkpt lat="39.580270" lon="2.377050">
        <ele>127.072</ele>
        <time>2020-01-27T13:55:22Z</time>
      </trkpt>
      <trkpt lat="39.580280" lon="2.376730">
        <ele>126.055</ele>
        <time>2020-01-27T13:55:42Z</time>
      </trkpt>
      <trkpt lat="39.580310" lon="2.376400">
        <ele>126.094</ele>
        <time>2020-01-27T13:56:02Z</time>
      </trkpt>
      <trkpt lat="39.580290" lon="2.376290">
        <ele>125.057</ele>
        <time>2020-01-27T13:56:22Z</time>
      </trkpt>
      <trkpt lat="39.580140" lon="2.375910">
        <ele>124.022</ele>
        <time>2020-01-27T13:56:42Z</time>
      </trkpt>
      <trkpt lat="39.580080" lon="2.375620">
        <ele>122.008</ele>
        <time>2020-01-27T13:57:02Z</time>
      </trkpt>
      <trkpt lat="39.580070" lon="2.375070">
        <ele>119.023</ele>
        <time>2020-01-27T13:57:22Z</time>
      </trkpt>
      <trkpt lat="39.580040" lon="2.374770">
        <ele>117.094</ele>
        <time>2020-01-27T13:57:42Z</time>
      </trkpt>
      <trkpt lat="39.579960" lon="2.374200">
        <ele>114.028</ele>
        <time>2020-01-27T13:58:02Z</time>
      </trkpt>
      <trkpt lat="39.579990" lon="2.373920">
        <ele>113.085</ele>
        <time>2020-01-27T13:58:22Z</time>
      </trkpt>
      <trkpt lat="39.580000" lon="2.373720">
        <ele>111.030</ele>
        <time>2020-01-27T13:58:42Z</time>
      </trkpt>
      <trkpt lat="39.579920" lon="2.373510">
        <ele>110.016</ele>
        <time>2020-01-27T13:59:02Z</time>
      </trkpt>
      <trkpt lat="39.579790" lon="2.373300">
        <ele>108.094</ele>
        <time>2020-01-27T13:59:22Z</time>
      </trkpt>
      <trkpt lat="39.579710" lon="2.373100">
        <ele>107.067</ele>
        <time>2020-01-27T13:59:42Z</time>
      </trkpt>
      <trkpt lat="39.579710" lon="2.372910">
        <ele>105.015</ele>
        <time>2020-01-27T14:00:02Z</time>
      </trkpt>
      <trkpt lat="39.579760" lon="2.372550">
        <ele>102.065</ele>
        <time>2020-01-27T14:00:22Z</time>
      </trkpt>
      <trkpt lat="39.579760" lon="2.372350">
        <ele>101.011</ele>
        <time>2020-01-27T14:00:42Z</time>
      </trkpt>
      <trkpt lat="39.579650" lon="2.371970">
        <ele>98.008</ele>
        <time>2020-01-27T14:01:02Z</time>
      </trkpt>
      <trkpt lat="39.579600" lon="2.371510">
        <ele>94.055</ele>
        <time>2020-01-27T14:01:22Z</time>
      </trkpt>
      <trkpt lat="39.579550" lon="2.371330">
        <ele>93.026</ele>
        <time>2020-01-27T14:01:42Z</time>
      </trkpt>
      <trkpt lat="39.579460" lon="2.371130">
        <ele>91.090</ele>
        <time>2020-01-27T14:02:02Z</time>
      </trkpt>
      <trkpt lat="39.579340" lon="2.370990">
        <ele>89.077</ele>
        <time>2020-01-27T14:02:22Z</time>
      </trkpt>
      <trkpt lat="39.579180" lon="2.370910">
        <ele>88.032</ele>
        <time>2020-01-27T14:02:42Z</time>
      </trkpt>
      <trkpt lat="39.579020" lon="2.370790">
        <ele>86.028</ele>
        <time>2020-01-27T14:03:02Z</time>
      </trkpt>
      <trkpt lat="39.578960" lon="2.370640">
        <ele>85.046</ele>
        <time>2020-01-27T14:03:22Z</time>
      </trkpt>
      <trkpt lat="39.578990" lon="2.370500">
        <ele>84.099</ele>
        <time>2020-01-27T14:03:42Z</time>
      </trkpt>
      <trkpt lat="39.579120" lon="2.370360">
        <ele>82.033</ele>
        <time>2020-01-27T14:04:02Z</time>
      </trkpt>
      <trkpt lat="39.579340" lon="2.370180">
        <ele>80.023</ele>
        <time>2020-01-27T14:04:22Z</time>
      </trkpt>
      <trkpt lat="39.579360" lon="2.370090">
        <ele>79.015</ele>
        <time>2020-01-27T14:04:42Z</time>
      </trkpt>
      <trkpt lat="39.579320" lon="2.369980">
        <ele>78.008</ele>
        <time>2020-01-27T14:05:02Z</time>
      </trkpt>
      <trkpt lat="39.579220" lon="2.369960">
        <ele>77.087</ele>
        <time>2020-01-27T14:05:22Z</time>
      </trkpt>
      <trkpt lat="39.579030" lon="2.370050">
        <ele>75.088</ele>
        <time>2020-01-27T14:05:42Z</time>
      </trkpt>
      <trkpt lat="39.578780" lon="2.370090">
        <ele>73.032</ele>
        <time>2020-01-27T14:06:02Z</time>
      </trkpt>
      <trkpt lat="39.578360" lon="2.370070">
        <ele>69.049</ele>
        <time>2020-01-27T14:06:22Z</time>
      </trkpt>
      <trkpt lat="39.578210" lon="2.369980">
        <ele>67.044</ele>
        <time>2020-01-27T14:06:42Z</time>
      </trkpt>
      <trkpt lat="39.578100" lon="2.369760">
        <ele>65.080</ele>
        <time>2020-01-27T14:07:02Z</time>
      </trkpt>
      <trkpt lat="39.578020" lon="2.369510">
        <ele>63.038</ele>
        <time>2020-01-27T14:07:22Z</time>
      </trkpt>
      <trkpt lat="39.577970" lon="2.369250">
        <ele>61.021</ele>
        <time>2020-01-27T14:07:42Z</time>
      </trkpt>
      <trkpt lat="39.578030" lon="2.368280">
        <ele>54.038</ele>
        <time>2020-01-27T14:08:02Z</time>
      </trkpt>
      <trkpt lat="39.577950" lon="2.367560">
        <ele>49.070</ele>
        <time>2020-01-27T14:08:22Z</time>
      </trkpt>
      <trkpt lat="39.577940" lon="2.367020">
        <ele>47.017</ele>
        <time>2020-01-27T14:08:42Z</time>
      </trkpt>
      <trkpt lat="39.577960" lon="2.366780">
        <ele>46.008</ele>
        <time>2020-01-27T14:09:02Z</time>
      </trkpt>
      <trkpt lat="39.578010" lon="2.366470">
        <ele>45.037</ele>
        <time>2020-01-27T14:09:22Z</time>
      </trkpt>
      <trkpt lat="39.578120" lon="2.366000">
        <ele>43.038</ele>
        <time>2020-01-27T14:09:42Z</time>
      </trkpt>
      <trkpt lat="39.578220" lon="2.365700">
        <ele>41.092</ele>
        <time>2020-01-27T14:10:02Z</time>
      </trkpt>
      <trkpt lat="39.578850" lon="2.364520">
        <ele>41.089</ele>
        <time>2020-01-27T14:10:22Z</time>
      </trkpt>
      <trkpt lat="39.578940" lon="2.364280">
        <ele>41.064</ele>
        <time>2020-01-27T14:10:42Z</time>
      </trkpt>
      <trkpt lat="39.579010" lon="2.364020">
        <ele>41.070</ele>
        <time>2020-01-27T14:11:02Z</time>
      </trkpt>
      <trkpt lat="39.579110" lon="2.363360">
        <ele>42.028</ele>
        <time>2020-01-27T14:11:22Z</time>
      </trkpt>
      <trkpt lat="39.579110" lon="2.363280">
        <ele>42.041</ele>
        <time>2020-01-27T14:11:42Z</time>
      </trkpt>
      <trkpt lat="39.579050" lon="2.363090">
        <ele>42.014</ele>
        <time>2020-01-27T14:12:02Z</time>
      </trkpt>
      <trkpt lat="39.578840" lon="2.362790">
        <ele>41.054</ele>
        <time>2020-01-27T14:12:22Z</time>
      </trkpt>
      <trkpt lat="39.578650" lon="2.362410">
        <ele>39.009</ele>
        <time>2020-01-27T14:12:42Z</time>
      </trkpt>
      <trkpt lat="39.578530" lon="2.362130">
        <ele>37.008</ele>
        <time>2020-01-27T14:13:02Z</time>
      </trkpt>
      <trkpt lat="39.578460" lon="2.361910">
        <ele>36.065</ele>
        <time>2020-01-27T14:13:22Z</time>
      </trkpt>
      <trkpt lat="39.578430" lon="2.361770">
        <ele>35.086</ele>
        <time>2020-01-27T14:13:42Z</time>
      </trkpt>
      <trkpt lat="39.578360" lon="2.361300">
        <ele>33.080</ele>
        <time>2020-01-27T14:14:02Z</time>
      </trkpt>
      <trkpt lat="39.578290" lon="2.361140">
        <ele>32.027</ele>
        <time>2020-01-27T14:14:22Z</time>
      </trkpt>
      <trkpt lat="39.578190" lon="2.360940">
        <ele>31.032</ele>
        <time>2020-01-27T14:14:42Z</time>
      </trkpt>
      <trkpt lat="39.578080" lon="2.360640">
        <ele>29.018</ele>
        <time>2020-01-27T14:15:02Z</time>
      </trkpt>
      <trkpt lat="39.578000" lon="2.360270">
        <ele>29.076</ele>
        <time>2020-01-27T14:15:22Z</time>
      </trkpt>
      <trkpt lat="39.577930" lon="2.360020">
        <ele>28.019</ele>
        <time>2020-01-27T14:15:42Z</time>
      </trkpt>
      <trkpt lat="39.577800" lon="2.359660">
        <ele>27.043</ele>
        <time>2020-01-27T14:16:02Z</time>
      </trkpt>
      <trkpt lat="39.577750" lon="2.359390">
        <ele>26.064</ele>
        <time>2020-01-27T14:16:22Z</time>
      </trkpt>
      <trkpt lat="39.577740" lon="2.359190">
        <ele>26.010</ele>
        <time>2020-01-27T14:16:42Z</time>
      </trkpt>
      <trkpt lat="39.577770" lon="2.359070">
        <ele>26.008</ele>
        <time>2020-01-27T14:17:02Z</time>
      </trkpt>
      <trkpt lat="39.577880" lon="2.358940">
        <ele>25.098</ele>
        <time>2020-01-27T14:17:22Z</time>
      </trkpt>
      <trkpt lat="39.578060" lon="2.358910">
        <ele>25.029</ele>
        <time>2020-01-27T14:17:42Z</time>
      </trkpt>
      <trkpt lat="39.578210" lon="2.358820">
        <ele>24.043</ele>
        <time>2020-01-27T14:18:02Z</time>
      </trkpt>
      <trkpt lat="39.578300" lon="2.358680">
        <ele>24.020</ele>
        <time>2020-01-27T14:18:22Z</time>
      </trkpt>
      <trkpt lat="39.578340" lon="2.358520">
        <ele>23.085</ele>
        <time>2020-01-27T14:18:42Z</time>
      </trkpt>
      <trkpt lat="39.578330" lon="2.358380">
        <ele>23.081</ele>
        <time>2020-01-27T14:19:02Z</time>
      </trkpt>
      <trkpt lat="39.578160" lon="2.357980">
        <ele>22.039</ele>
        <time>2020-01-27T14:19:22Z</time>
      </trkpt>
      <trkpt lat="39.577980" lon="2.357350">
        <ele>20.092</ele>
        <time>2020-01-27T14:19:42Z</time>
      </trkpt>
      <trkpt lat="39.577940" lon="2.357040">
        <ele>20.083</ele>
        <time>2020-01-27T14:20:02Z</time>
      </trkpt>
      <trkpt lat="39.577710" lon="2.356360">
        <ele>18.025</ele>
        <time>2020-01-27T14:20:22Z</time>
      </trkpt>
      <trkpt lat="39.577680" lon="2.356220">
        <ele>18.017</ele>
        <time>2020-01-27T14:20:42Z</time>
      </trkpt>
      <trkpt lat="39.577890" lon="2.355430">
        <ele>15.008</ele>
        <time>2020-01-27T14:21:02Z</time>
      </trkpt>
      <trkpt lat="39.577920" lon="2.355200">
        <ele>14.062</ele>
        <time>2020-01-27T14:21:22Z</time>
      </trkpt>
      <trkpt lat="39.578010" lon="2.354820">
        <ele>13.083</ele>
        <time>2020-01-27T14:21:42Z</time>
      </trkpt>
      <trkpt lat="39.578030" lon="2.354660">
        <ele>12.077</ele>
        <time>2020-01-27T14:22:02Z</time>
      </trkpt>
      <trkpt lat="39.578040" lon="2.354500">
        <ele>12.034</ele>
        <time>2020-01-27T14:22:22Z</time>
      </trkpt>
      <trkpt lat="39.578010" lon="2.354370">
        <ele>11.069</ele>
        <time>2020-01-27T14:22:42Z</time>
      </trkpt>
      <trkpt lat="39.578290" lon="2.353770">
        <ele>9.015</ele>
        <time>2020-01-27T14:23:02Z</time>
      </trkpt>
      <trkpt lat="39.578600" lon="2.352820">
        <ele>9.023</ele>
        <time>2020-01-27T14:23:22Z</time>
      </trkpt>
      <trkpt lat="39.578710" lon="2.352420">
        <ele>9.056</ele>
        <time>2020-01-27T14:23:42Z</time>
      </trkpt>
      <trkpt lat="39.579010" lon="2.351140">
        <ele>8.036</ele>
        <time>2020-01-27T14:24:02Z</time>
      </trkpt>
      <trkpt lat="39.579110" lon="2.350610">
        <ele>8.017</ele>
        <time>2020-01-27T14:24:22Z</time>
      </trkpt>
      <trkpt lat="39.579140" lon="2.350560">
        <ele>8.018</ele>
        <time>2020-01-27T14:24:42Z</time>
      </trkpt>
      <trkpt lat="39.579170" lon="2.350520">
        <ele>8.008</ele>
        <time>2020-01-27T14:25:02Z</time>
      </trkpt>
      <trkpt lat="39.579400" lon="2.350480">
        <ele>8.027</ele>
        <time>2020-01-27T14:25:22Z</time>
      </trkpt>
      <trkpt lat="39.579660" lon="2.350470">
        <ele>8.018</ele>
        <time>2020-01-27T14:25:42Z</time>
      </trkpt>
      <trkpt lat="39.579670" lon="2.350180">
        <ele>8.092</ele>
        <time>2020-01-27T14:26:02Z</time>
      </trkpt>
      <trkpt lat="39.579770" lon="2.350100">
        <ele>8.049</ele>
        <time>2020-01-27T14:26:22Z</time>
      </trkpt>
      <trkpt lat="39.579920" lon="2.350070">
        <ele>8.024</ele>
        <time>2020-01-27T14:26:42Z</time>
      </trkpt>
      <trkpt lat="39.581190" lon="2.350170">
        <ele>7.090</ele>
        <time>2020-01-27T14:27:02Z</time>
      </trkpt>
      <trkpt lat="39.581310" lon="2.350150">
        <ele>7.048</ele>
        <time>2020-01-27T14:27:22Z</time>
      </trkpt>
      <trkpt lat="39.581900" lon="2.349820">
        <ele>6.021</ele>
        <time>2020-01-27T14:27:42Z</time>
      </trkpt>
      <trkpt lat="39.582350" lon="2.349490">
        <ele>5.079</ele>
        <time>2020-01-27T14:28:02Z</time>
      </trkpt>
      <trkpt lat="39.582730" lon="2.349160">
        <ele>5.005</ele>
        <time>2020-01-27T14:28:22Z</time>
      </trkpt>
      <trkpt lat="39.582860" lon="2.349360">
        <ele>5.025</ele>
        <time>2020-01-27T14:28:42Z</time>
      </trkpt>
      <trkpt lat="39.582950" lon="2.349280">
        <ele>5.008</ele>
        <time>2020-01-27T14:29:02Z</time>
      </trkpt>
      <trkpt lat="39.583080" lon="2.349520">
        <ele>5.021</ele>
        <time>2020-01-27T14:29:22Z</time>
      </trkpt>
      <trkpt lat="39.583140" lon="2.349490">
        <ele>5.022</ele>
        <time>2020-01-27T14:29:42Z</time>
      </trkpt>
      <trkpt lat="39.583370" lon="2.349310">
        <ele>5.026</ele>
        <time>2020-01-27T14:30:02Z</time>
      </trkpt>
      <trkpt lat="39.583370" lon="2.349310">
        <ele>5.073</ele>
        <time>2020-01-27T14:30:22Z</time>
      </trkpt>
      <trkpt lat="39.583140" lon="2.349490">
        <ele>5.088</ele>
        <time>2020-01-27T14:30:42Z</time>
      </trkpt>
      <trkpt lat="39.583080" lon="2.349520">
        <ele>5.044</ele>
        <time>2020-01-27T14:31:02Z</time>
      </trkpt>
      <trkpt lat="39.582950" lon="2.349280">
        <ele>5.042</ele>
        <time>2020-01-27T14:31:22Z</time>
      </trkpt>
      <trkpt lat="39.582860" lon="2.349360">
        <ele>5.055</ele>
        <time>2020-01-27T14:31:42Z</time>
      </trkpt>
      <trkpt lat="39.582730" lon="2.349160">
        <ele>5.022</ele>
        <time>2020-01-27T14:32:02Z</time>
      </trkpt>
      <trkpt lat="39.582350" lon="2.349490">
        <ele>5.062</ele>
        <time>2020-01-27T14:32:22Z</time>
      </trkpt>
      <trkpt lat="39.581900" lon="2.349820">
        <ele>6.008</ele>
        <time>2020-01-27T14:32:42Z</time>
      </trkpt>
      <trkpt lat="39.581310" lon="2.350150">
        <ele>7.008</ele>
        <time>2020-01-27T14:33:02Z</time>
      </trkpt>
      <trkpt lat="39.581190" lon="2.350170">
        <ele>7.096</ele>
        <time>2020-01-27T14:33:22Z</time>
      </trkpt>
      <trkpt lat="39.579920" lon="2.350070">
        <ele>12.077</ele>
        <time>2020-01-27T14:33:42Z</time>
      </trkpt>
      <trkpt lat="39.579770" lon="2.350100">
        <ele>13.021</ele>
        <time>2020-01-27T14:34:02Z</time>
      </trkpt>
      <trkpt lat="39.579670" lon="2.350180">
        <ele>13.088</ele>
        <time>2020-01-27T14:34:22Z</time>
      </trkpt>
      <trkpt lat="39.579660" lon="2.350470">
        <ele>14.043</ele>
        <time>2020-01-27T14:34:42Z</time>
      </trkpt>
      <trkpt lat="39.579350" lon="2.351780">
        <ele>17.029</ele>
        <time>2020-01-27T14:35:02Z</time>
      </trkpt>
      <trkpt lat="39.579040" lon="2.353030">
        <ele>20.037</ele>
        <time>2020-01-27T14:35:22Z</time>
      </trkpt>
      <trkpt lat="39.579010" lon="2.353270">
        <ele>20.080</ele>
        <time>2020-01-27T14:35:42Z</time>
      </trkpt>
      <trkpt lat="39.578990" lon="2.353460">
        <ele>20.094</ele>
        <time>2020-01-27T14:36:02Z</time>
      </trkpt>
      <trkpt lat="39.579200" lon="2.354360">
        <ele>18.057</ele>
        <time>2020-01-27T14:36:22Z</time>
      </trkpt>
      <trkpt lat="39.579140" lon="2.355060">
        <ele>15.022</ele>
        <time>2020-01-27T14:36:42Z</time>
      </trkpt>
      <trkpt lat="39.579080" lon="2.355220">
        <ele>15.008</ele>
        <time>2020-01-27T14:37:02Z</time>
      </trkpt>
      <trkpt lat="39.578980" lon="2.355290">
        <ele>14.043</ele>
        <time>2020-01-27T14:37:22Z</time>
      </trkpt>
      <trkpt lat="39.578540" lon="2.355370">
        <ele>13.074</ele>
        <time>2020-01-27T14:37:42Z</time>
      </trkpt>
      <trkpt lat="39.578470" lon="2.355350">
        <ele>13.018</ele>
        <time>2020-01-27T14:38:02Z</time>
      </trkpt>
      <trkpt lat="39.578450" lon="2.355250">
        <ele>13.085</ele>
        <time>2020-01-27T14:38:22Z</time>
      </trkpt>
      <trkpt lat="39.578470" lon="2.354840">
        <ele>13.090</ele>
        <time>2020-01-27T14:38:42Z</time>
      </trkpt>
      <trkpt lat="39.578440" lon="2.354270">
        <ele>13.056</ele>
        <time>2020-01-27T14:39:02Z</time>
      </trkpt>
      <trkpt lat="39.578360" lon="2.353930">
        <ele>13.074</ele>
        <time>2020-01-27T14:39:22Z</time>
      </trkpt>
      <trkpt lat="39.578290" lon="2.353770">
        <ele>13.057</ele>
        <time>2020-01-27T14:39:42Z</time>
      </trkpt>
      <trkpt lat="39.578010" lon="2.354370">
        <ele>13.083</ele>
        <time>2020-01-27T14:40:02Z</time>
      </trkpt>
      <trkpt lat="39.578040" lon="2.354500">
        <ele>13.025</ele>
        <time>2020-01-27T14:40:22Z</time>
      </trkpt>
      <trkpt lat="39.578030" lon="2.354670">
        <ele>14.017</ele>
        <time>2020-01-27T14:40:42Z</time>
      </trkpt>
      <trkpt lat="39.578010" lon="2.354830">
        <ele>14.008</ele>
        <time>2020-01-27T14:41:02Z</time>
      </trkpt>
      <trkpt lat="39.577920" lon="2.355210">
        <ele>16.052</ele>
        <time>2020-01-27T14:41:22Z</time>
      </trkpt>
      <trkpt lat="39.577890" lon="2.355440">
        <ele>17.013</ele>
        <time>2020-01-27T14:41:42Z</time>
      </trkpt>
      <trkpt lat="39.577680" lon="2.356230">
        <ele>20.047</ele>
        <time>2020-01-27T14:42:02Z</time>
      </trkpt>
      <trkpt lat="39.577710" lon="2.356370">
        <ele>21.074</ele>
        <time>2020-01-27T14:42:22Z</time>
      </trkpt>
      <trkpt lat="39.577940" lon="2.357050">
        <ele>24.099</ele>
        <time>2020-01-27T14:42:42Z</time>
      </trkpt>
      <trkpt lat="39.577980" lon="2.357360">
        <ele>25.015</ele>
        <time>2020-01-27T14:43:02Z</time>
      </trkpt>
      <trkpt lat="39.578160" lon="2.357990">
        <ele>25.053</ele>
        <time>2020-01-27T14:43:22Z</time>
      </trkpt>
      <trkpt lat="39.578330" lon="2.358390">
        <ele>25.066</ele>
        <time>2020-01-27T14:43:42Z</time>
      </trkpt>
      <trkpt lat="39.578340" lon="2.358530">
        <ele>25.017</ele>
        <time>2020-01-27T14:44:02Z</time>
      </trkpt>
      <trkpt lat="39.578300" lon="2.358690">
        <ele>25.087</ele>
        <time>2020-01-27T14:44:22Z</time>
      </trkpt>
      <trkpt lat="39.578210" lon="2.358830">
        <ele>25.015</ele>
        <time>2020-01-27T14:44:42Z</time>
      </trkpt>
      <trkpt lat="39.578060" lon="2.358910">
        <ele>25.008</ele>
        <time>2020-01-27T14:45:02Z</time>
      </trkpt>
      <trkpt lat="39.577880" lon="2.358950">
        <ele>25.035</ele>
        <time>2020-01-27T14:45:22Z</time>
      </trkpt>
      <trkpt lat="39.577770" lon="2.359080">
        <ele>25.086</ele>
        <time>2020-01-27T14:45:42Z</time>
      </trkpt>
      <trkpt lat="39.577740" lon="2.359200">
        <ele>25.050</ele>
        <time>2020-01-27T14:46:02Z</time>
      </trkpt>
      <trkpt lat="39.577750" lon="2.359400">
        <ele>27.097</ele>
        <time>2020-01-27T14:46:22Z</time>
      </trkpt>
      <trkpt lat="39.577800" lon="2.359670">
        <ele>28.042</ele>
        <time>2020-01-27T14:46:42Z</time>
      </trkpt>
      <trkpt lat="39.577930" lon="2.360030">
        <ele>31.078</ele>
        <time>2020-01-27T14:47:02Z</time>
      </trkpt>
      <trkpt lat="39.578000" lon="2.360280">
        <ele>32.096</ele>
        <time>2020-01-27T14:47:22Z</time>
      </trkpt>
      <trkpt lat="39.578080" lon="2.360650">
        <ele>35.039</ele>
        <time>2020-01-27T14:47:42Z</time>
      </trkpt>
      <trkpt lat="39.578190" lon="2.360940">
        <ele>37.084</ele>
        <time>2020-01-27T14:48:02Z</time>
      </trkpt>
      <trkpt lat="39.578290" lon="2.361140">
        <ele>38.007</ele>
        <time>2020-01-27T14:48:22Z</time>
      </trkpt>
      <trkpt lat="39.578360" lon="2.361310">
        <ele>39.017</ele>
        <time>2020-01-27T14:48:42Z</time>
      </trkpt>
      <trkpt lat="39.578430" lon="2.361780">
        <ele>41.008</ele>
        <time>2020-01-27T14:49:02Z</time>
      </trkpt>
      <trkpt lat="39.578460" lon="2.361920">
        <ele>41.062</ele>
        <time>2020-01-27T14:49:22Z</time>
      </trkpt>
      <trkpt lat="39.578530" lon="2.362140">
        <ele>41.083</ele>
        <time>2020-01-27T14:49:42Z</time>
      </trkpt>
      <trkpt lat="39.578650" lon="2.362420">
        <ele>41.047</ele>
        <time>2020-01-27T14:50:02Z</time>
      </trkpt>
      <trkpt lat="39.578840" lon="2.362790">
        <ele>40.024</ele>
        <time>2020-01-27T14:50:22Z</time>
      </trkpt>
      <trkpt lat="39.579050" lon="2.363100">
        <ele>40.069</ele>
        <time>2020-01-27T14:50:42Z</time>
      </trkpt>
      <trkpt lat="39.579110" lon="2.363290">
        <ele>39.025</ele>
        <time>2020-01-27T14:51:02Z</time>
      </trkpt>
      <trkpt lat="39.579110" lon="2.363370">
        <ele>39.093</ele>
        <time>2020-01-27T14:51:22Z</time>
      </trkpt>
      <trkpt lat="39.579010" lon="2.364030">
        <ele>39.056</ele>
        <time>2020-01-27T14:51:42Z</time>
      </trkpt>
      <trkpt lat="39.578940" lon="2.364290">
        <ele>40.094</ele>
        <time>2020-01-27T14:52:02Z</time>
      </trkpt>
      <trkpt lat="39.578850" lon="2.364530">
        <ele>41.057</ele>
        <time>2020-01-27T14:52:22Z</time>
      </trkpt>
      <trkpt lat="39.578220" lon="2.365710">
        <ele>48.022</ele>
        <time>2020-01-27T14:52:42Z</time>
      </trkpt>
      <trkpt lat="39.578120" lon="2.366010">
        <ele>49.008</ele>
        <time>2020-01-27T14:53:02Z</time>
      </trkpt>
      <trkpt lat="39.578010" lon="2.366480">
        <ele>51.043</ele>
        <time>2020-01-27T14:53:22Z</time>
      </trkpt>
      <trkpt lat="39.577960" lon="2.366780">
        <ele>52.074</ele>
        <time>2020-01-27T14:53:42Z</time>
      </trkpt>
      <trkpt lat="39.577940" lon="2.367030">
        <ele>54.088</ele>
        <time>2020-01-27T14:54:02Z</time>
      </trkpt>
      <trkpt lat="39.577950" lon="2.367570">
        <ele>56.015</ele>
        <time>2020-01-27T14:54:22Z</time>
      </trkpt>
      <trkpt lat="39.578030" lon="2.368290">
        <ele>59.030</ele>
        <time>2020-01-27T14:54:42Z</time>
      </trkpt>
      <trkpt lat="39.577970" lon="2.369260">
        <ele>64.016</ele>
        <time>2020-01-27T14:55:02Z</time>
      </trkpt>
      <trkpt lat="39.578020" lon="2.369520">
        <ele>65.094</ele>
        <time>2020-01-27T14:55:22Z</time>
      </trkpt>
      <trkpt lat="39.578100" lon="2.369770">
        <ele>67.027</ele>
        <time>2020-01-27T14:55:42Z</time>
      </trkpt>
      <trkpt lat="39.578210" lon="2.369990">
        <ele>68.073</ele>
        <time>2020-01-27T14:56:02Z</time>
      </trkpt>
      <trkpt lat="39.578360" lon="2.370080">
        <ele>70.085</ele>
        <time>2020-01-27T14:56:22Z</time>
      </trkpt>
      <trkpt lat="39.578780" lon="2.370090">
        <ele>73.013</ele>
        <time>2020-01-27T14:56:42Z</time>
      </trkpt>
      <trkpt lat="39.579030" lon="2.370050">
        <ele>75.008</ele>
        <time>2020-01-27T14:57:02Z</time>
      </trkpt>
      <trkpt lat="39.579220" lon="2.369960">
        <ele>77.091</ele>
        <time>2020-01-27T14:57:22Z</time>
      </trkpt>
      <trkpt lat="39.579320" lon="2.369980">
        <ele>77.022</ele>
        <time>2020-01-27T14:57:42Z</time>
      </trkpt>
      <trkpt lat="39.579360" lon="2.370090">
        <ele>78.076</ele>
        <time>2020-01-27T14:58:02Z</time>
      </trkpt>
      <trkpt lat="39.579340" lon="2.370180">
        <ele>79.023</ele>
        <time>2020-01-27T14:58:22Z</time>
      </trkpt>
      <trkpt lat="39.579120" lon="2.370360">
        <ele>82.068</ele>
        <time>2020-01-27T14:58:42Z</time>
      </trkpt>
      <trkpt lat="39.578990" lon="2.370500">
        <ele>84.044</ele>
        <time>2020-01-27T14:59:02Z</time>
      </trkpt>
      <trkpt lat="39.578960" lon="2.370640">
        <ele>85.062</ele>
        <time>2020-01-27T14:59:22Z</time>
      </trkpt>
      <trkpt lat="39.579020" lon="2.370790">
        <ele>86.035</ele>
        <time>2020-01-27T14:59:42Z</time>
      </trkpt>
      <trkpt lat="39.579180" lon="2.370910">
        <ele>88.023</ele>
        <time>2020-01-27T15:00:02Z</time>
      </trkpt>
      <trkpt lat="39.579340" lon="2.370990">
        <ele>90.083</ele>
        <time>2020-01-27T15:00:22Z</time>
      </trkpt>
      <trkpt lat="39.579460" lon="2.371130">
        <ele>92.011</ele>
        <time>2020-01-27T15:00:42Z</time>
      </trkpt>
      <trkpt lat="39.579550" lon="2.371330">
        <ele>94.008</ele>
        <time>2020-01-27T15:01:02Z</time>
      </trkpt>
      <trkpt lat="39.579600" lon="2.371510">
        <ele>96.026</ele>
        <time>2020-01-27T15:01:22Z</time>
      </trkpt>
      <trkpt lat="39.579650" lon="2.371980">
        <ele>100.037</ele>
        <time>2020-01-27T15:01:42Z</time>
      </trkpt>
      <trkpt lat="39.579760" lon="2.372360">
        <ele>102.011</ele>
        <time>2020-01-27T15:02:02Z</time>
      </trkpt>
      <trkpt lat="39.579760" lon="2.372560">
        <ele>103.078</ele>
        <time>2020-01-27T15:02:22Z</time>
      </trkpt>
      <trkpt lat="39.579710" lon="2.372920">
        <ele>105.093</ele>
        <time>2020-01-27T15:02:42Z</time>
      </trkpt>
      <trkpt lat="39.579710" lon="2.373110">
        <ele>107.079</ele>
        <time>2020-01-27T15:03:02Z</time>
      </trkpt>
      <trkpt lat="39.579790" lon="2.373310">
        <ele>108.077</ele>
        <time>2020-01-27T15:03:22Z</time>
      </trkpt>
      <trkpt lat="39.579920" lon="2.373520">
        <ele>110.050</ele>
        <time>2020-01-27T15:03:42Z</time>
      </trkpt>
      <trkpt lat="39.580000" lon="2.373730">
        <ele>111.077</ele>
        <time>2020-01-27T15:04:02Z</time>
      </trkpt>
      <trkpt lat="39.579990" lon="2.373930">
        <ele>112.061</ele>
        <time>2020-01-27T15:04:22Z</time>
      </trkpt>
      <trkpt lat="39.579960" lon="2.374210">
        <ele>114.027</ele>
        <time>2020-01-27T15:04:42Z</time>
      </trkpt>
      <trkpt lat="39.580040" lon="2.374770">
        <ele>118.008</ele>
        <time>2020-01-27T15:05:02Z</time>
      </trkpt>
      <trkpt lat="39.580070" lon="2.375070">
        <ele>120.011</ele>
        <time>2020-01-27T15:05:22Z</time>
      </trkpt>
      <trkpt lat="39.580080" lon="2.375620">
        <ele>123.092</ele>
        <time>2020-01-27T15:05:42Z</time>
      </trkpt>
      <trkpt lat="39.580140" lon="2.375910">
        <ele>125.046</ele>
        <time>2020-01-27T15:06:02Z</time>
      </trkpt>
      <trkpt lat="39.580290" lon="2.376290">
        <ele>128.033</ele>
        <time>2020-01-27T15:06:22Z</time>
      </trkpt>
      <trkpt lat="39.580310" lon="2.376400">
        <ele>129.078</ele>
        <time>2020-01-27T15:06:42Z</time>
      </trkpt>
      <trkpt lat="39.580280" lon="2.376730">
        <ele>131.014</ele>
        <time>2020-01-27T15:07:02Z</time>
      </trkpt>
      <trkpt lat="39.580270" lon="2.377060">
        <ele>132.032</ele>
        <time>2020-01-27T15:07:22Z</time>
      </trkpt>
      <trkpt lat="39.580300" lon="2.378000">
        <ele>128.085</ele>
        <time>2020-01-27T15:07:42Z</time>
      </trkpt>
      <trkpt lat="39.580260" lon="2.378160">
        <ele>127.038</ele>
        <time>2020-01-27T15:08:02Z</time>
      </trkpt>
      <trkpt lat="39.580200" lon="2.378250">
        <ele>127.070</ele>
        <time>2020-01-27T15:08:22Z</time>
      </trkpt>
      <trkpt lat="39.580100" lon="2.378340">
        <ele>126.017</ele>
        <time>2020-01-27T15:08:42Z</time>
      </trkpt>
      <trkpt lat="39.580020" lon="2.378380">
        <ele>125.008</ele>
        <time>2020-01-27T15:09:02Z</time>
      </trkpt>
      <trkpt lat="39.579920" lon="2.378410">
        <ele>125.067</ele>
        <time>2020-01-27T15:09:22Z</time>
      </trkpt>
      <trkpt lat="39.579830" lon="2.378370">
        <ele>124.028</ele>
        <time>2020-01-27T15:09:42Z</time>
      </trkpt>
      <trkpt lat="39.579640" lon="2.378180">
        <ele>123.062</ele>
        <time>2020-01-27T15:10:02Z</time>
      </trkpt>
      <trkpt lat="39.579530" lon="2.378150">
        <ele>122.099</ele>
        <time>2020-01-27T15:10:22Z</time>
      </trkpt>
      <trkpt lat="39.579480" lon="2.378200">
        <ele>122.014</ele>
        <time>2020-01-27T15:10:42Z</time>
      </trkpt>
      <trkpt lat="39.579490" lon="2.378280">
        <ele>121.090</ele>
        <time>2020-01-27T15:11:02Z</time>
      </trkpt>
      <trkpt lat="39.579550" lon="2.378360">
        <ele>121.018</ele>
        <time>2020-01-27T15:11:22Z</time>
      </trkpt>
      <trkpt lat="39.579780" lon="2.378540">
        <ele>120.021</ele>
        <time>2020-01-27T15:11:42Z</time>
      </trkpt>
      <trkpt lat="39.580150" lon="2.378890">
        <ele>117.065</ele>
        <time>2020-01-27T15:12:02Z</time>
      </trkpt>
      <trkpt lat="39.580210" lon="2.378960">
        <ele>117.068</ele>
        <time>2020-01-27T15:12:22Z</time>
      </trkpt>
      <trkpt lat="39.580240" lon="2.379060">
        <ele>116.014</ele>
        <time>2020-01-27T15:12:42Z</time>
      </trkpt>
      <trkpt lat="39.580260" lon="2.379210">
        <ele>116.008</ele>
        <time>2020-01-27T15:13:02Z</time>
      </trkpt>
      <trkpt lat="39.580230" lon="2.379310">
        <ele>116.020</ele>
        <time>2020-01-27T15:13:22Z</time>
      </trkpt>
      <trkpt lat="39.580020" lon="2.379810">
        <ele>113.041</ele>
        <time>2020-01-27T15:13:42Z</time>
      </trkpt>
      <trkpt lat="39.579710" lon="2.380620">
        <ele>109.095</ele>
        <time>2020-01-27T15:14:02Z</time>
      </trkpt>
      <trkpt lat="39.579640" lon="2.380890">
        <ele>107.052</ele>
        <time>2020-01-27T15:14:22Z</time>
      </trkpt>
      <trkpt lat="39.579650" lon="2.381110">
        <ele>106.067</ele>
        <time>2020-01-27T15:14:42Z</time>
      </trkpt>
      <trkpt lat="39.579690" lon="2.381220">
        <ele>105.073</ele>
        <time>2020-01-27T15:15:02Z</time>
      </trkpt>
      <trkpt lat="39.579590" lon="2.381350">
        <ele>104.071</ele>
        <time>2020-01-27T15:15:22Z</time>
      </trkpt>
      <trkpt lat="39.579530" lon="2.381580">
        <ele>102.074</ele>
        <time>2020-01-27T15:15:42Z</time>
      </trkpt>
      <trkpt lat="39.579600" lon="2.381680">
        <ele>101.093</ele>
        <time>2020-01-27T15:16:02Z</time>
      </trkpt>
      <trkpt lat="39.579400" lon="2.381620">
        <ele>99.065</ele>
        <time>2020-01-27T15:16:22Z</time>
      </trkpt>
      <trkpt lat="39.579080" lon="2.381660">
        <ele>96.021</ele>
        <time>2020-01-27T15:16:42Z</time>
      </trkpt>
      <trkpt lat="39.578970" lon="2.381720">
        <ele>95.008</ele>
        <time>2020-01-27T15:17:02Z</time>
      </trkpt>
      <trkpt lat="39.578660" lon="2.382240">
        <ele>90.033</ele>
        <time>2020-01-27T15:17:22Z</time>
      </trkpt>
      <trkpt lat="39.578340" lon="2.382820">
        <ele>86.044</ele>
        <time>2020-01-27T15:17:42Z</time>
      </trkpt>
      <trkpt lat="39.578290" lon="2.382940">
        <ele>85.078</ele>
        <time>2020-01-27T15:18:02Z</time>
      </trkpt>
      <trkpt lat="39.578290" lon="2.383080">
        <ele>85.075</ele>
        <time>2020-01-27T15:18:22Z</time>
      </trkpt>
      <trkpt lat="39.578330" lon="2.383250">
        <ele>84.070</ele>
        <time>2020-01-27T15:18:42Z</time>
      </trkpt>
      <trkpt lat="39.578330" lon="2.383340">
        <ele>83.056</ele>
        <time>2020-01-27T15:19:02Z</time>
      </trkpt>
      <trkpt lat="39.578260" lon="2.383420">
        <ele>82.074</ele>
        <time>2020-01-27T15:19:22Z</time>
      </trkpt>
      <trkpt lat="39.577880" lon="2.383470">
        <ele>80.037</ele>
        <time>2020-01-27T15:19:42Z</time>
      </trkpt>
      <trkpt lat="39.577790" lon="2.383520">
        <ele>79.011</ele>
        <time>2020-01-27T15:20:02Z</time>
      </trkpt>
      <trkpt lat="39.577620" lon="2.383690">
        <ele>77.021</ele>
        <time>2020-01-27T15:20:22Z</time>
      </trkpt>
      <trkpt lat="39.577530" lon="2.383860">
        <ele>76.003</ele>
        <time>2020-01-27T15:20:42Z</time>
      </trkpt>
      <trkpt lat="39.577480" lon="2.384130">
        <ele>76.008</ele>
        <time>2020-01-27T15:21:02Z</time>
      </trkpt>
      <trkpt lat="39.577370" lon="2.385640">
        <ele>72.075</ele>
        <time>2020-01-27T15:21:22Z</time>
      </trkpt>
      <trkpt lat="39.577410" lon="2.387240">
        <ele>69.026</ele>
        <time>2020-01-27T15:21:42Z</time>
      </trkpt>
      <trkpt lat="39.577710" lon="2.389400">
        <ele>67.050</ele>
        <time>2020-01-27T15:22:02Z</time>
      </trkpt>
      <trkpt lat="39.577670" lon="2.389700">
        <ele>67.047</ele>
        <time>2020-01-27T15:22:22Z</time>
      </trkpt>
      <trkpt lat="39.577620" lon="2.389780">
        <ele>67.012</ele>
        <time>2020-01-27T15:22:42Z</time>
      </trkpt>
      <trkpt lat="39.577610" lon="2.389840">
        <ele>67.038</ele>
        <time>2020-01-27T15:23:02Z</time>
      </trkpt>
      <trkpt lat="39.577620" lon="2.389970">
        <ele>68.096</ele>
        <time>2020-01-27T15:23:22Z</time>
      </trkpt>
      <trkpt lat="39.577650" lon="2.390020">
        <ele>68.019</ele>
        <time>2020-01-27T15:23:42Z</time>
      </trkpt>
      <trkpt lat="39.577710" lon="2.390070">
        <ele>68.024</ele>
        <time>2020-01-27T15:24:02Z</time>
      </trkpt>
      <trkpt lat="39.577820" lon="2.390310">
        <ele>68.004</ele>
        <time>2020-01-27T15:24:22Z</time>
      </trkpt>
      <trkpt lat="39.577870" lon="2.390590">
        <ele>68.014</ele>
        <time>2020-01-27T15:24:42Z</time>
      </trkpt>
      <trkpt lat="39.577940" lon="2.390750">
        <ele>69.008</ele>
        <time>2020-01-27T15:25:02Z</time>
      </trkpt>
      <trkpt lat="39.578170" lon="2.391060">
        <ele>69.056</ele>
        <time>2020-01-27T15:25:22Z</time>
      </trkpt>
      <trkpt lat="39.578380" lon="2.392120">
        <ele>72.017</ele>
        <time>2020-01-27T15:25:42Z</time>
      </trkpt>
      <trkpt lat="39.578570" lon="2.393390">
        <ele>77.011</ele>
        <time>2020-01-27T15:26:02Z</time>
      </trkpt>
      <trkpt lat="39.578820" lon="2.395310">
        <ele>84.028</ele>
        <time>2020-01-27T15:26:22Z</time>
      </trkpt>
      <trkpt lat="39.578840" lon="2.396140">
        <ele>88.053</ele>
        <time>2020-01-27T15:26:42Z</time>
      </trkpt>
      <trkpt lat="39.578870" lon="2.396530">
        <ele>89.049</ele>
        <time>2020-01-27T15:27:02Z</time>
      </trkpt>
      <trkpt lat="39.579110" lon="2.397780">
        <ele>97.087</ele>
        <time>2020-01-27T15:27:22Z</time>
      </trkpt>
      <trkpt lat="39.579030" lon="2.397820">
        <ele>97.070</ele>
        <time>2020-01-27T15:27:42Z</time>
      </trkpt>
      <trkpt lat="39.578740" lon="2.397850">
        <ele>100.024</ele>
        <time>2020-01-27T15:28:02Z</time>
      </trkpt>
      <trkpt lat="39.578650" lon="2.397880">
        <ele>100.004</ele>
        <time>2020-01-27T15:28:22Z</time>
      </trkpt>
      <trkpt lat="39.578380" lon="2.398090">
        <ele>103.014</ele>
        <time>2020-01-27T15:28:42Z</time>
      </trkpt>
      <trkpt lat="39.578360" lon="2.398190">
        <ele>103.008</ele>
        <time>2020-01-27T15:29:02Z</time>
      </trkpt>
      <trkpt lat="39.578420" lon="2.398230">
        <ele>104.056</ele>
        <time>2020-01-27T15:29:22Z</time>
      </trkpt>
      <trkpt lat="39.578590" lon="2.398130">
        <ele>106.067</ele>
        <time>2020-01-27T15:29:42Z</time>
      </trkpt>
      <trkpt lat="39.578790" lon="2.398120">
        <ele>108.021</ele>
        <time>2020-01-27T15:30:02Z</time>
      </trkpt>
      <trkpt lat="39.578860" lon="2.398160">
        <ele>109.048</ele>
        <time>2020-01-27T15:30:22Z</time>
      </trkpt>
      <trkpt lat="39.578900" lon="2.398200">
        <ele>110.023</ele>
        <time>2020-01-27T15:30:42Z</time>
      </trkpt>
      <trkpt lat="39.578920" lon="2.398310">
        <ele>111.069</ele>
        <time>2020-01-27T15:31:02Z</time>
      </trkpt>
      <trkpt lat="39.578880" lon="2.398370">
        <ele>112.027</ele>
        <time>2020-01-27T15:31:22Z</time>
      </trkpt>
      <trkpt lat="39.578770" lon="2.398390">
        <ele>114.090</ele>
        <time>2020-01-27T15:31:42Z</time>
      </trkpt>
      <trkpt lat="39.578640" lon="2.398390">
        <ele>115.047</ele>
        <time>2020-01-27T15:32:02Z</time>
      </trkpt>
      <trkpt lat="39.578140" lon="2.398740">
        <ele>123.029</ele>
        <time>2020-01-27T15:32:22Z</time>
      </trkpt>
      <trkpt lat="39.578080" lon="2.398830">
        <ele>125.021</ele>
        <time>2020-01-27T15:32:42Z</time>
      </trkpt>
      <trkpt lat="39.578010" lon="2.399330">
        <ele>130.008</ele>
        <time>2020-01-27T15:33:02Z</time>
      </trkpt>
      <trkpt lat="39.577900" lon="2.399650">
        <ele>133.048</ele>
        <time>2020-01-27T15:33:22Z</time>
      </trkpt>
      <trkpt lat="39.577780" lon="2.399750">
        <ele>133.069</ele>
        <time>2020-01-27T15:33:42Z</time>
      </trkpt>
      <trkpt lat="39.577610" lon="2.399830">
        <ele>134.033</ele>
        <time>2020-01-27T15:34:02Z</time>
      </trkpt>
      <trkpt lat="39.577310" lon="2.399850">
        <ele>135.090</ele>
        <time>2020-01-27T15:34:22Z</time>
      </trkpt>
      <trkpt lat="39.576880" lon="2.399740">
        <ele>137.085</ele>
        <time>2020-01-27T15:34:42Z</time>
      </trkpt>
      <trkpt lat="39.576690" lon="2.399520">
        <ele>138.021</ele>
        <time>2020-01-27T15:35:02Z</time>
      </trkpt>
      <trkpt lat="39.576510" lon="2.399020">
        <ele>140.069</ele>
        <time>2020-01-27T15:35:22Z</time>
      </trkpt>
      <trkpt lat="39.576370" lon="2.398850">
        <ele>140.012</ele>
        <time>2020-01-27T15:35:42Z</time>
      </trkpt>
      <trkpt lat="39.576160" lon="2.398850">
        <ele>139.046</ele>
        <time>2020-01-27T15:36:02Z</time>
      </trkpt>
      <trkpt lat="39.575870" lon="2.398900">
        <ele>137.088</ele>
        <time>2020-01-27T15:36:22Z</time>
      </trkpt>
      <trkpt lat="39.575800" lon="2.399000">
        <ele>136.016</ele>
        <time>2020-01-27T15:36:42Z</time>
      </trkpt>
      <trkpt lat="39.575730" lon="2.400510">
        <ele>128.008</ele>
        <time>2020-01-27T15:37:02Z</time>
      </trkpt>
      <trkpt lat="39.575680" lon="2.400610">
        <ele>128.088</ele>
        <time>2020-01-27T15:37:22Z</time>
      </trkpt>
      <trkpt lat="39.575340" lon="2.400960">
        <ele>124.079</ele>
        <time>2020-01-27T15:37:42Z</time>
      </trkpt>
      <trkpt lat="39.575030" lon="2.401120">
        <ele>122.033</ele>
        <time>2020-01-27T15:38:02Z</time>
      </trkpt>
      <trkpt lat="39.574300" lon="2.401120">
        <ele>116.080</ele>
        <time>2020-01-27T15:38:22Z</time>
      </trkpt>
      <trkpt lat="39.574110" lon="2.401180">
        <ele>115.055</ele>
        <time>2020-01-27T15:38:42Z</time>
      </trkpt>
      <trkpt lat="39.573890" lon="2.401360">
        <ele>112.031</ele>
        <time>2020-01-27T15:39:02Z</time>
      </trkpt>
      <trkpt lat="39.573770" lon="2.401480">
        <ele>111.059</ele>
        <time>2020-01-27T15:39:22Z</time>
      </trkpt>
      <trkpt lat="39.573660" lon="2.401710">
        <ele>110.012</ele>
        <time>2020-01-27T15:39:42Z</time>
      </trkpt>
      <trkpt lat="39.573850" lon="2.403180">
        <ele>104.047</ele>
        <time>2020-01-27T15:40:02Z</time>
      </trkpt>
      <trkpt lat="39.573960" lon="2.404810">
        <ele>96.029</ele>
        <time>2020-01-27T15:40:22Z</time>
      </trkpt>
      <trkpt lat="39.574070" lon="2.406010">
        <ele>88.021</ele>
        <time>2020-01-27T15:40:42Z</time>
      </trkpt>
      <trkpt lat="39.574330" lon="2.407760">
        <ele>79.008</ele>
        <time>2020-01-27T15:41:02Z</time>
      </trkpt>
      <trkpt lat="39.574850" lon="2.409460">
        <ele>73.068</ele>
        <time>2020-01-27T15:41:22Z</time>
      </trkpt>
      <trkpt lat="39.575120" lon="2.410240">
        <ele>73.079</ele>
        <time>2020-01-27T15:41:42Z</time>
      </trkpt>
      <trkpt lat="39.575760" lon="2.411080">
        <ele>73.093</ele>
        <time>2020-01-27T15:42:02Z</time>
      </trkpt>
      <trkpt lat="39.576430" lon="2.411790">
        <ele>72.090</ele>
        <time>2020-01-27T15:42:22Z</time>
      </trkpt>
      <trkpt lat="39.576880" lon="2.412540">
        <ele>70.015</ele>
        <time>2020-01-27T15:42:42Z</time>
      </trkpt>
      <trkpt lat="39.577160" lon="2.412890">
        <ele>69.081</ele>
        <time>2020-01-27T15:43:02Z</time>
      </trkpt>
      <trkpt lat="39.577220" lon="2.413070">
        <ele>69.049</ele>
        <time>2020-01-27T15:43:22Z</time>
      </trkpt>
      <trkpt lat="39.577270" lon="2.414290">
        <ele>73.022</ele>
        <time>2020-01-27T15:43:42Z</time>
      </trkpt>
      <trkpt lat="39.577340" lon="2.414540">
        <ele>74.059</ele>
        <time>2020-01-27T15:44:02Z</time>
      </trkpt>
      <trkpt lat="39.578350" lon="2.414740">
        <ele>80.003</ele>
        <time>2020-01-27T15:44:22Z</time>
      </trkpt>
      <trkpt lat="39.579520" lon="2.414670">
        <ele>88.023</ele>
        <time>2020-01-27T15:44:42Z</time>
      </trkpt>
      <trkpt lat="39.579830" lon="2.414420">
        <ele>91.008</ele>
        <time>2020-01-27T15:45:02Z</time>
      </trkpt>
      <trkpt lat="39.580030" lon="2.414060">
        <ele>93.079</ele>
        <time>2020-01-27T15:45:22Z</time>
      </trkpt>
      <trkpt lat="39.580200" lon="2.413820">
        <ele>95.010</ele>
        <time>2020-01-27T15:45:42Z</time>
      </trkpt>
      <trkpt lat="39.580330" lon="2.413670">
        <ele>97.094</ele>
        <time>2020-01-27T15:46:02Z</time>
      </trkpt>
      <trkpt lat="39.580540" lon="2.413530">
        <ele>99.031</ele>
        <time>2020-01-27T15:46:22Z</time>
      </trkpt>
      <trkpt lat="39.580700" lon="2.413490">
        <ele>101.036</ele>
        <time>2020-01-27T15:46:42Z</time>
      </trkpt>
      <trkpt lat="39.580930" lon="2.413330">
        <ele>104.092</ele>
        <time>2020-01-27T15:47:02Z</time>
      </trkpt>
      <trkpt lat="39.580970" lon="2.413360">
        <ele>105.010</ele>
        <time>2020-01-27T15:47:22Z</time>
      </trkpt>
      <trkpt lat="39.580980" lon="2.413430">
        <ele>105.013</ele>
        <time>2020-01-27T15:47:42Z</time>
      </trkpt>
      <trkpt lat="39.580700" lon="2.413820">
        <ele>110.031</ele>
        <time>2020-01-27T15:48:02Z</time>
      </trkpt>
      <trkpt lat="39.580660" lon="2.413910">
        <ele>110.061</ele>
        <time>2020-01-27T15:48:22Z</time>
      </trkpt>
      <trkpt lat="39.580690" lon="2.413950">
        <ele>111.007</ele>
        <time>2020-01-27T15:48:42Z</time>
      </trkpt>
      <trkpt lat="39.580740" lon="2.413960">
        <ele>111.008</ele>
        <time>2020-01-27T15:49:02Z</time>
      </trkpt>
      <trkpt lat="39.580790" lon="2.413890">
        <ele>112.077</ele>
        <time>2020-01-27T15:49:22Z</time>
      </trkpt>
      <trkpt lat="39.581030" lon="2.413760">
        <ele>115.068</ele>
        <time>2020-01-27T15:49:42Z</time>
      </trkpt>
      <trkpt lat="39.581120" lon="2.413770">
        <ele>116.042</ele>
        <time>2020-01-27T15:50:02Z</time>
      </trkpt>
      <trkpt lat="39.581350" lon="2.413910">
        <ele>118.089</ele>
        <time>2020-01-27T15:50:22Z</time>
      </trkpt>
      <trkpt lat="39.581440" lon="2.413900">
        <ele>118.064</ele>
        <time>2020-01-27T15:50:42Z</time>
      </trkpt>
      <trkpt lat="39.581520" lon="2.413860">
        <ele>119.020</ele>
        <time>2020-01-27T15:51:02Z</time>
      </trkpt>
      <trkpt lat="39.581800" lon="2.413470">
        <ele>121.058</ele>
        <time>2020-01-27T15:51:22Z</time>
      </trkpt>
      <trkpt lat="39.582080" lon="2.413180">
        <ele>123.031</ele>
        <time>2020-01-27T15:51:42Z</time>
      </trkpt>
      <trkpt lat="39.582190" lon="2.413160">
        <ele>124.022</ele>
        <time>2020-01-27T15:52:02Z</time>
      </trkpt>
      <trkpt lat="39.582300" lon="2.413160">
        <ele>125.062</ele>
        <time>2020-01-27T15:52:22Z</time>
      </trkpt>
      <trkpt lat="39.582660" lon="2.413330">
        <ele>127.008</ele>
        <time>2020-01-27T15:52:42Z</time>
      </trkpt>
      <trkpt lat="39.583200" lon="2.414230">
        <ele>131.008</ele>
        <time>2020-01-27T15:53:02Z</time>
      </trkpt>
      <trkpt lat="39.583380" lon="2.414630">
        <ele>132.046</ele>
        <time>2020-01-27T15:53:22Z</time>
      </trkpt>
      <trkpt lat="39.583460" lon="2.414720">
        <ele>133.027</ele>
        <time>2020-01-27T15:53:42Z</time>
      </trkpt>
      <trkpt lat="39.583640" lon="2.414870">
        <ele>134.041</ele>
        <time>2020-01-27T15:54:02Z</time>
      </trkpt>
      <trkpt lat="39.583650" lon="2.414860">
        <ele>134.028</ele>
        <time>2020-01-27T15:54:22Z</time>
      </trkpt>
      <trkpt lat="39.584480" lon="2.415570">
        <ele>137.033</ele>
        <time>2020-01-27T15:54:42Z</time>
      </trkpt>
      <trkpt lat="39.584530" lon="2.415590">
        <ele>138.099</ele>
        <time>2020-01-27T15:55:02Z</time>
      </trkpt>
      <trkpt lat="39.585140" lon="2.415640">
        <ele>140.077</ele>
        <time>2020-01-27T15:55:22Z</time>
      </trkpt>
      <trkpt lat="39.585270" lon="2.415690">
        <ele>140.080</ele>
        <time>2020-01-27T15:55:42Z</time>
      </trkpt>
      <trkpt lat="39.585640" lon="2.415880">
        <ele>142.087</ele>
        <time>2020-01-27T15:56:02Z</time>
      </trkpt>
      <trkpt lat="39.586070" lon="2.416310">
        <ele>143.042</ele>
        <time>2020-01-27T15:56:22Z</time>
      </trkpt>
      <trkpt lat="39.586490" lon="2.416640">
        <ele>148.026</ele>
        <time>2020-01-27T15:56:42Z</time>
      </trkpt>
      <trkpt lat="39.586630" lon="2.416780">
        <ele>150.008</ele>
        <time>2020-01-27T15:57:02Z</time>
      </trkpt>
      <trkpt lat="39.586690" lon="2.416880">
        <ele>150.052</ele>
        <time>2020-01-27T15:57:22Z</time>
      </trkpt>
      <trkpt lat="39.586750" lon="2.417240">
        <ele>153.043</ele>
        <time>2020-01-27T15:57:42Z</time>
      </trkpt>
      <trkpt lat="39.586790" lon="2.417350">
        <ele>154.057</ele>
        <time>2020-01-27T15:58:02Z</time>
      </trkpt>
      <trkpt lat="39.587070" lon="2.417490">
        <ele>157.064</ele>
        <time>2020-01-27T15:58:22Z</time>
      </trkpt>
      <trkpt lat="39.587290" lon="2.417530">
        <ele>159.029</ele>
        <time>2020-01-27T15:58:42Z</time>
      </trkpt>
      <trkpt lat="39.587400" lon="2.417560">
        <ele>160.025</ele>
        <time>2020-01-27T15:59:02Z</time>
      </trkpt>
      <trkpt lat="39.587620" lon="2.417830">
        <ele>163.083</ele>
        <time>2020-01-27T15:59:22Z</time>
      </trkpt>
      <trkpt lat="39.587730" lon="2.417910">
        <ele>164.046</ele>
        <time>2020-01-27T15:59:42Z</time>
      </trkpt>
      <trkpt lat="39.588470" lon="2.418250">
        <ele>170.042</ele>
        <time>2020-01-27T16:00:02Z</time>
      </trkpt>
      <trkpt lat="39.588600" lon="2.418360">
        <ele>172.022</ele>
        <time>2020-01-27T16:00:22Z</time>
      </trkpt>
      <trkpt lat="39.588790" lon="2.418430">
        <ele>173.014</ele>
        <time>2020-01-27T16:00:42Z</time>
      </trkpt>
      <trkpt lat="39.589140" lon="2.418450">
        <ele>176.008</ele>
        <time>2020-01-27T16:01:02Z</time>
      </trkpt>
      <trkpt lat="39.590100" lon="2.418750">
        <ele>184.098</ele>
        <time>2020-01-27T16:01:22Z</time>
      </trkpt>
      <trkpt lat="39.590520" lon="2.418970">
        <ele>188.059</ele>
        <time>2020-01-27T16:01:42Z</time>
      </trkpt>
      <trkpt lat="39.590800" lon="2.418970">
        <ele>190.043</ele>
        <time>2020-01-27T16:02:02Z</time>
      </trkpt>
      <trkpt lat="39.591510" lon="2.419240">
        <ele>196.050</ele>
        <time>2020-01-27T16:02:22Z</time>
      </trkpt>
      <trkpt lat="39.591770" lon="2.419230">
        <ele>198.095</ele>
        <time>2020-01-27T16:02:42Z</time>
      </trkpt>
      <trkpt lat="39.591930" lon="2.419180">
        <ele>199.021</ele>
        <time>2020-01-27T16:03:02Z</time>
      </trkpt>
      <trkpt lat="39.592300" lon="2.419290">
        <ele>202.089</ele>
        <time>2020-01-27T16:03:22Z</time>
      </trkpt>
      <trkpt lat="39.592690" lon="2.419430">
        <ele>205.082</ele>
        <time>2020-01-27T16:03:42Z</time>
      </trkpt>
      <trkpt lat="39.593280" lon="2.419430">
        <ele>209.015</ele>
        <time>2020-01-27T16:04:02Z</time>
      </trkpt>
      <trkpt lat="39.593800" lon="2.418950">
        <ele>214.065</ele>
        <time>2020-01-27T16:04:22Z</time>
      </trkpt>
      <trkpt lat="39.594300" lon="2.418810">
        <ele>218.011</ele>
        <time>2020-01-27T16:04:42Z</time>
      </trkpt>
      <trkpt lat="39.594590" lon="2.418830">
        <ele>220.008</ele>
        <time>2020-01-27T16:05:02Z</time>
      </trkpt>
      <trkpt lat="39.594730" lon="2.418940">
        <ele>222.095</ele>
        <time>2020-01-27T16:05:22Z</time>
      </trkpt>
      <trkpt lat="39.595140" lon="2.419420">
        <ele>226.026</ele>
        <time>2020-01-27T16:05:42Z</time>
      </trkpt>
      <trkpt lat="39.595260" lon="2.419420">
        <ele>227.030</ele>
        <time>2020-01-27T16:06:02Z</time>
      </trkpt>
      <trkpt lat="39.595470" lon="2.419040">
        <ele>230.057</ele>
        <time>2020-01-27T16:06:22Z</time>
      </trkpt>
      <trkpt lat="39.595670" lon="2.419070">
        <ele>231.072</ele>
        <time>2020-01-27T16:06:42Z</time>
      </trkpt>
      <trkpt lat="39.595980" lon="2.419310">
        <ele>234.038</ele>
        <time>2020-01-27T16:07:02Z</time>
      </trkpt>
      <trkpt lat="39.596460" lon="2.419450">
        <ele>237.076</ele>
        <time>2020-01-27T16:07:22Z</time>
      </trkpt>
      <trkpt lat="39.596660" lon="2.419310">
        <ele>239.019</ele>
        <time>2020-01-27T16:07:42Z</time>
      </trkpt>
      <trkpt lat="39.596920" lon="2.419270">
        <ele>241.074</ele>
        <time>2020-01-27T16:08:02Z</time>
      </trkpt>
      <trkpt lat="39.597080" lon="2.419310">
        <ele>242.056</ele>
        <time>2020-01-27T16:08:22Z</time>
      </trkpt>
      <trkpt lat="39.597860" lon="2.419600">
        <ele>249.021</ele>
        <time>2020-01-27T16:08:42Z</time>
      </trkpt>
      <trkpt lat="39.598250" lon="2.419640">
        <ele>252.008</ele>
        <time>2020-01-27T16:09:02Z</time>
      </trkpt>
      <trkpt lat="39.598710" lon="2.419590">
        <ele>256.021</ele>
        <time>2020-01-27T16:09:22Z</time>
      </trkpt>
      <trkpt lat="39.599000" lon="2.419630">
        <ele>259.042</ele>
        <time>2020-01-27T16:09:42Z</time>
      </trkpt>
      <trkpt lat="39.599520" lon="2.419960">
        <ele>262.016</ele>
        <time>2020-01-27T16:10:02Z</time>
      </trkpt>
      <trkpt lat="39.599580" lon="2.419960">
        <ele>262.023</ele>
        <time>2020-01-27T16:10:22Z</time>
      </trkpt>
      <trkpt lat="39.599810" lon="2.419850">
        <ele>264.038</ele>
        <time>2020-01-27T16:10:42Z</time>
      </trkpt>
      <trkpt lat="39.599910" lon="2.419720">
        <ele>265.074</ele>
        <time>2020-01-27T16:11:02Z</time>
      </trkpt>
      <trkpt lat="39.600030" lon="2.419470">
        <ele>266.042</ele>
        <time>2020-01-27T16:11:22Z</time>
      </trkpt>
      <trkpt lat="39.600080" lon="2.419300">
        <ele>267.035</ele>
        <time>2020-01-27T16:11:42Z</time>
      </trkpt>
      <trkpt lat="39.600140" lon="2.418980">
        <ele>268.082</ele>
        <time>2020-01-27T16:12:02Z</time>
      </trkpt>
      <trkpt lat="39.600180" lon="2.418910">
        <ele>269.043</ele>
        <time>2020-01-27T16:12:22Z</time>
      </trkpt>
      <trkpt lat="39.600390" lon="2.418810">
        <ele>270.017</ele>
        <time>2020-01-27T16:12:42Z</time>
      </trkpt>
      <trkpt lat="39.600770" lon="2.418690">
        <ele>273.008</ele>
        <time>2020-01-27T16:13:02Z</time>
      </trkpt>
      <trkpt lat="39.600840" lon="2.418630">
        <ele>273.022</ele>
        <time>2020-01-27T16:13:22Z</time>
      </trkpt>
      <trkpt lat="39.600880" lon="2.418550">
        <ele>274.083</ele>
        <time>2020-01-27T16:13:42Z</time>
      </trkpt>
      <trkpt lat="39.600920" lon="2.418250">
        <ele>275.077</ele>
        <time>2020-01-27T16:14:02Z</time>
      </trkpt>
      <trkpt lat="39.600950" lon="2.418120">
        <ele>276.054</ele>
        <time>2020-01-27T16:14:22Z</time>
      </trkpt>
      <trkpt lat="39.601000" lon="2.418020">
        <ele>276.079</ele>
        <time>2020-01-27T16:14:42Z</time>
      </trkpt>
      <trkpt lat="39.601350" lon="2.417730">
        <ele>279.015</ele>
        <time>2020-01-27T16:15:02Z</time>
      </trkpt>
      <trkpt lat="39.601500" lon="2.417580">
        <ele>280.043</ele>
        <time>2020-01-27T16:15:22Z</time>
      </trkpt>
      <trkpt lat="39.601570" lon="2.417420">
        <ele>281.066</ele>
        <time>2020-01-27T16:15:42Z</time>
      </trkpt>
      <trkpt lat="39.601610" lon="2.417380">
        <ele>282.023</ele>
        <time>2020-01-27T16:16:02Z</time>
      </trkpt>
      <trkpt lat="39.601640" lon="2.417370">
        <ele>282.083</ele>
        <time>2020-01-27T16:16:22Z</time>
      </trkpt>
      <trkpt lat="39.601640" lon="2.417440">
        <ele>282.011</ele>
        <time>2020-01-27T16:16:42Z</time>
      </trkpt>
      <trkpt lat="39.601610" lon="2.417590">
        <ele>283.008</ele>
        <time>2020-01-27T16:17:02Z</time>
      </trkpt>
      <trkpt lat="39.601450" lon="2.417800">
        <ele>285.056</ele>
        <time>2020-01-27T16:17:22Z</time>
      </trkpt>
      <trkpt lat="39.601310" lon="2.417960">
        <ele>288.037</ele>
        <time>2020-01-27T16:17:42Z</time>
      </trkpt>
      <trkpt lat="39.601250" lon="2.418120">
        <ele>291.031</ele>
        <time>2020-01-27T16:18:02Z</time>
      </trkpt>
      <trkpt lat="39.601270" lon="2.418200">
        <ele>292.018</ele>
        <time>2020-01-27T16:18:22Z</time>
      </trkpt>
      <trkpt lat="39.601340" lon="2.418230">
        <ele>293.023</ele>
        <time>2020-01-27T16:18:42Z</time>
      </trkpt>
      <trkpt lat="39.601390" lon="2.418040">
        <ele>295.029</ele>
        <time>2020-01-27T16:19:02Z</time>
      </trkpt>
      <trkpt lat="39.601460" lon="2.417940">
        <ele>297.097</ele>
        <time>2020-01-27T16:19:22Z</time>
      </trkpt>
      <trkpt lat="39.601600" lon="2.417840">
        <ele>299.060</ele>
        <time>2020-01-27T16:19:42Z</time>
      </trkpt>
      <trkpt lat="39.602180" lon="2.417570">
        <ele>309.089</ele>
        <time>2020-01-27T16:20:02Z</time>
      </trkpt>
      <trkpt lat="39.602290" lon="2.417460">
        <ele>311.006</ele>
        <time>2020-01-27T16:20:22Z</time>
      </trkpt>
      <trkpt lat="39.602350" lon="2.417370">
        <ele>313.026</ele>
        <time>2020-01-27T16:20:42Z</time>
      </trkpt>
      <trkpt lat="39.602380" lon="2.417230">
        <ele>314.008</ele>
        <time>2020-01-27T16:21:02Z</time>
      </trkpt>
      <trkpt lat="39.602390" lon="2.417090">
        <ele>315.082</ele>
        <time>2020-01-27T16:21:22Z</time>
      </trkpt>
      <trkpt lat="39.602360" lon="2.416860">
        <ele>315.013</ele>
        <time>2020-01-27T16:21:42Z</time>
      </trkpt>
      <trkpt lat="39.602280" lon="2.416770">
        <ele>315.027</ele>
        <time>2020-01-27T16:22:02Z</time>
      </trkpt>
      <trkpt lat="39.602180" lon="2.416740">
        <ele>315.044</ele>
        <time>2020-01-27T16:22:22Z</time>
      </trkpt>
      <trkpt lat="39.602070" lon="2.416740">
        <ele>315.019</ele>
        <time>2020-01-27T16:22:42Z</time>
      </trkpt>
      <trkpt lat="39.601880" lon="2.416770">
        <ele>314.095</ele>
        <time>2020-01-27T16:23:02Z</time>
      </trkpt>
      <trkpt lat="39.601740" lon="2.416760">
        <ele>314.043</ele>
        <time>2020-01-27T16:23:22Z</time>
      </trkpt>
      <trkpt lat="39.601440" lon="2.416670">
        <ele>314.056</ele>
        <time>2020-01-27T16:23:42Z</time>
      </trkpt>
      <trkpt lat="39.601290" lon="2.416590">
        <ele>314.014</ele>
        <time>2020-01-27T16:24:02Z</time>
      </trkpt>
      <trkpt lat="39.601210" lon="2.416470">
        <ele>313.054</ele>
        <time>2020-01-27T16:24:22Z</time>
      </trkpt>
      <trkpt lat="39.601160" lon="2.416360">
        <ele>313.009</ele>
        <time>2020-01-27T16:24:42Z</time>
      </trkpt>
      <trkpt lat="39.601140" lon="2.416250">
        <ele>313.008</ele>
        <time>2020-01-27T16:25:02Z</time>
      </trkpt>
      <trkpt lat="39.601150" lon="2.416130">
        <ele>313.045</ele>
        <time>2020-01-27T16:25:22Z</time>
      </trkpt>
      <trkpt lat="39.601180" lon="2.415940">
        <ele>313.046</ele>
        <time>2020-01-27T16:25:42Z</time>
      </trkpt>
      <trkpt lat="39.601510" lon="2.414800">
        <ele>317.030</ele>
        <time>2020-01-27T16:26:02Z</time>
      </trkpt>
      <trkpt lat="39.601510" lon="2.414800">
        <ele>317.097</ele>
        <time>2020-01-27T16:26:22Z</time>
      </trkpt>
      <trkpt lat="39.601580" lon="2.414420">
        <ele>319.092</ele>
        <time>2020-01-27T16:26:42Z</time>
      </trkpt>
      <trkpt lat="39.601640" lon="2.414080">
        <ele>321.068</ele>
        <time>2020-01-27T16:27:02Z</time>
      </trkpt>
      <trkpt lat="39.601660" lon="2.413860">
        <ele>322.036</ele>
        <time>2020-01-27T16:27:22Z</time>
      </trkpt>
      <trkpt lat="39.601670" lon="2.413640">
        <ele>323.089</ele>
        <time>2020-01-27T16:27:42Z</time>
      </trkpt>
      <trkpt lat="39.601660" lon="2.413430">
        <ele>324.018</ele>
        <time>2020-01-27T16:28:02Z</time>
      </trkpt>
      <trkpt lat="39.601620" lon="2.413280">
        <ele>324.098</ele>
        <time>2020-01-27T16:28:22Z</time>
      </trkpt>
      <trkpt lat="39.601470" lon="2.412780">
        <ele>327.017</ele>
        <time>2020-01-27T16:28:42Z</time>
      </trkpt>
      <trkpt lat="39.601450" lon="2.412670">
        <ele>328.008</ele>
        <time>2020-01-27T16:29:02Z</time>
      </trkpt>
      <trkpt lat="39.601470" lon="2.412590">
        <ele>328.075</ele>
        <time>2020-01-27T16:29:22Z</time>
      </trkpt>
      <trkpt lat="39.601500" lon="2.412470">
        <ele>329.016</ele>
        <time>2020-01-27T16:29:42Z</time>
      </trkpt>
      <trkpt lat="39.601570" lon="2.412360">
        <ele>330.060</ele>
        <time>2020-01-27T16:30:02Z</time>
      </trkpt>
      <trkpt lat="39.603350" lon="2.410210">
        <ele>345.047</ele>
        <time>2020-01-27T16:30:22Z</time>
      </trkpt>
      <trkpt lat="39.603890" lon="2.409380">
        <ele>350.032</ele>
        <time>2020-01-27T16:30:42Z</time>
      </trkpt>
      <trkpt lat="39.603970" lon="2.409330">
        <ele>351.028</ele>
        <time>2020-01-27T16:31:02Z</time>
      </trkpt>
      <trkpt lat="39.604160" lon="2.409250">
        <ele>353.026</ele>
        <time>2020-01-27T16:31:22Z</time>
      </trkpt>
      <trkpt lat="39.604710" lon="2.409080">
        <ele>358.039</ele>
        <time>2020-01-27T16:31:42Z</time>
      </trkpt>
      <trkpt lat="39.604920" lon="2.409070">
        <ele>360.019</ele>
        <time>2020-01-27T16:32:02Z</time>
      </trkpt>
      <trkpt lat="39.605020" lon="2.409120">
        <ele>361.009</ele>
        <time>2020-01-27T16:32:22Z</time>
      </trkpt>
      <trkpt lat="39.605360" lon="2.409400">
        <ele>365.019</ele>
        <time>2020-01-27T16:32:42Z</time>
      </trkpt>
      <trkpt lat="39.605570" lon="2.409500">
        <ele>367.008</ele>
        <time>2020-01-27T16:33:02Z</time>
      </trkpt>
      <trkpt lat="39.606010" lon="2.409600">
        <ele>368.095</ele>
        <time>2020-01-27T16:33:22Z</time>
      </trkpt>
      <trkpt lat="39.606340" lon="2.409730">
        <ele>365.096</ele>
        <time>2020-01-27T16:33:42Z</time>
      </trkpt>
      <trkpt lat="39.606450" lon="2.409730">
        <ele>365.070</ele>
        <time>2020-01-27T16:34:02Z</time>
      </trkpt>
      <trkpt lat="39.606550" lon="2.409700">
        <ele>364.047</ele>
        <time>2020-01-27T16:34:22Z</time>
      </trkpt>
      <trkpt lat="39.606720" lon="2.409630">
        <ele>362.092</ele>
        <time>2020-01-27T16:34:42Z</time>
      </trkpt>
      <trkpt lat="39.606880" lon="2.409600">
        <ele>361.098</ele>
        <time>2020-01-27T16:35:02Z</time>
      </trkpt>
      <trkpt lat="39.607200" lon="2.409670">
        <ele>359.056</ele>
        <time>2020-01-27T16:35:22Z</time>
      </trkpt>
      <trkpt lat="39.607300" lon="2.409750">
        <ele>358.039</ele>
        <time>2020-01-27T16:35:42Z</time>
      </trkpt>
      <trkpt lat="39.607530" lon="2.410000">
        <ele>355.037</ele>
        <time>2020-01-27T16:36:02Z</time>
      </trkpt>
      <trkpt lat="39.607610" lon="2.410050">
        <ele>355.049</ele>
        <time>2020-01-27T16:36:22Z</time>
      </trkpt>
      <trkpt lat="39.607720" lon="2.410060">
        <ele>354.013</ele>
        <time>2020-01-27T16:36:42Z</time>
      </trkpt>
      <trkpt lat="39.608090" lon="2.410020">
        <ele>353.008</ele>
        <time>2020-01-27T16:37:02Z</time>
      </trkpt>
      <trkpt lat="39.608260" lon="2.410080">
        <ele>353.087</ele>
        <time>2020-01-27T16:37:22Z</time>
      </trkpt>
      <trkpt lat="39.608370" lon="2.410220">
        <ele>353.048</ele>
        <time>2020-01-27T16:37:42Z</time>
      </trkpt>
      <trkpt lat="39.608490" lon="2.410450">
        <ele>353.042</ele>
        <time>2020-01-27T16:38:02Z</time>
      </trkpt>
      <trkpt lat="39.608630" lon="2.410610">
        <ele>352.099</ele>
        <time>2020-01-27T16:38:22Z</time>
      </trkpt>
      <trkpt lat="39.609110" lon="2.410870">
        <ele>352.024</ele>
        <time>2020-01-27T16:38:42Z</time>
      </trkpt>
      <trkpt lat="39.609450" lon="2.411090">
        <ele>352.080</ele>
        <time>2020-01-27T16:39:02Z</time>
      </trkpt>
      <trkpt lat="39.609530" lon="2.411180">
        <ele>351.048</ele>
        <time>2020-01-27T16:39:22Z</time>
      </trkpt>
      <trkpt lat="39.609980" lon="2.412080">
        <ele>345.031</ele>
        <time>2020-01-27T16:39:42Z</time>
      </trkpt>
      <trkpt lat="39.610060" lon="2.412200">
        <ele>344.046</ele>
        <time>2020-01-27T16:40:02Z</time>
      </trkpt>
      <trkpt lat="39.610160" lon="2.412270">
        <ele>343.088</ele>
        <time>2020-01-27T16:40:22Z</time>
      </trkpt>
      <trkpt lat="39.610500" lon="2.412390">
        <ele>341.016</ele>
        <time>2020-01-27T16:40:42Z</time>
      </trkpt>
      <trkpt lat="39.610950" lon="2.412570">
        <ele>337.008</ele>
        <time>2020-01-27T16:41:02Z</time>
      </trkpt>
      <trkpt lat="39.611100" lon="2.412720">
        <ele>336.048</ele>
        <time>2020-01-27T16:41:22Z</time>
      </trkpt>
      <trkpt lat="39.611210" lon="2.412970">
        <ele>334.059</ele>
        <time>2020-01-27T16:41:42Z</time>
      </trkpt>
      <trkpt lat="39.611350" lon="2.413360">
        <ele>332.023</ele>
        <time>2020-01-27T16:42:02Z</time>
      </trkpt>
      <trkpt lat="39.611410" lon="2.413610">
        <ele>330.060</ele>
        <time>2020-01-27T16:42:22Z</time>
      </trkpt>
      <trkpt lat="39.611600" lon="2.414920">
        <ele>323.095</ele>
        <time>2020-01-27T16:42:42Z</time>
      </trkpt>
      <trkpt lat="39.611680" lon="2.415140">
        <ele>321.021</ele>
        <time>2020-01-27T16:43:02Z</time>
      </trkpt>
      <trkpt lat="39.612310" lon="2.416800">
        <ele>313.089</ele>
        <time>2020-01-27T16:43:22Z</time>
      </trkpt>
      <trkpt lat="39.612460" lon="2.417060">
        <ele>311.082</ele>
        <time>2020-01-27T16:43:42Z</time>
      </trkpt>
      <trkpt lat="39.612690" lon="2.417340">
        <ele>310.028</ele>
        <time>2020-01-27T16:44:02Z</time>
      </trkpt>
      <trkpt lat="39.614450" lon="2.418700">
        <ele>310.089</ele>
        <time>2020-01-27T16:44:22Z</time>
      </trkpt>
      <trkpt lat="39.615350" lon="2.419440">
        <ele>310.017</ele>
        <time>2020-01-27T16:44:42Z</time>
      </trkpt>
      <trkpt lat="39.615710" lon="2.419710">
        <ele>310.008</ele>
        <time>2020-01-27T16:45:02Z</time>
      </trkpt>
      <trkpt lat="39.616080" lon="2.419900">
        <ele>310.036</ele>
        <time>2020-01-27T16:45:22Z</time>
      </trkpt>
      <trkpt lat="39.617460" lon="2.419930">
        <ele>301.097</ele>
        <time>2020-01-27T16:45:42Z</time>
      </trkpt>
      <trkpt lat="39.617640" lon="2.419960">
        <ele>300.061</ele>
        <time>2020-01-27T16:46:02Z</time>
      </trkpt>
      <trkpt lat="39.617800" lon="2.420040">
        <ele>298.098</ele>
        <time>2020-01-27T16:46:22Z</time>
      </trkpt>
      <trkpt lat="39.617990" lon="2.420230">
        <ele>297.023</ele>
        <time>2020-01-27T16:46:42Z</time>
      </trkpt>
      <trkpt lat="39.618150" lon="2.420490">
        <ele>295.039</ele>
        <time>2020-01-27T16:47:02Z</time>
      </trkpt>
      <trkpt lat="39.618610" lon="2.421390">
        <ele>287.017</ele>
        <time>2020-01-27T16:47:22Z</time>
      </trkpt>
      <trkpt lat="39.618790" lon="2.421680">
        <ele>285.040</ele>
        <time>2020-01-27T16:47:42Z</time>
      </trkpt>
      <trkpt lat="39.619040" lon="2.421920">
        <ele>282.057</ele>
        <time>2020-01-27T16:48:02Z</time>
      </trkpt>
      <trkpt lat="39.619090" lon="2.421960">
        <ele>282.000</ele>
        <time>2020-01-27T16:48:22Z</time>
      </trkpt>
      <trkpt lat="39.620100" lon="2.422330">
        <ele>274.020</ele>
        <time>2020-01-27T16:48:42Z</time>
      </trkpt>
      <trkpt lat="39.620500" lon="2.422420">
        <ele>271.008</ele>
        <time>2020-01-27T16:49:02Z</time>
      </trkpt>
      <trkpt lat="39.620760" lon="2.422380">
        <ele>269.059</ele>
        <time>2020-01-27T16:49:22Z</time>
      </trkpt>
      <trkpt lat="39.620990" lon="2.422310">
        <ele>268.070</ele>
        <time>2020-01-27T16:49:42Z</time>
      </trkpt>
      <trkpt lat="39.621070" lon="2.422380">
        <ele>267.014</ele>
        <time>2020-01-27T16:50:02Z</time>
      </trkpt>
      <trkpt lat="39.621120" lon="2.422480">
        <ele>267.071</ele>
        <time>2020-01-27T16:50:22Z</time>
      </trkpt>
      <trkpt lat="39.621060" lon="2.422600">
        <ele>266.026</ele>
        <time>2020-01-27T16:50:42Z</time>
      </trkpt>
      <trkpt lat="39.620970" lon="2.422690">
        <ele>265.062</ele>
        <time>2020-01-27T16:51:02Z</time>
      </trkpt>
      <trkpt lat="39.620000" lon="2.422740">
        <ele>265.080</ele>
        <time>2020-01-27T16:51:22Z</time>
      </trkpt>
      <trkpt lat="39.619900" lon="2.422810">
        <ele>265.053</ele>
        <time>2020-01-27T16:51:42Z</time>
      </trkpt>
      <trkpt lat="39.619820" lon="2.422910">
        <ele>265.018</ele>
        <time>2020-01-27T16:52:02Z</time>
      </trkpt>
      <trkpt lat="39.619860" lon="2.423050">
        <ele>265.098</ele>
        <time>2020-01-27T16:52:22Z</time>
      </trkpt>
      <trkpt lat="39.619940" lon="2.423170">
        <ele>265.017</ele>
        <time>2020-01-27T16:52:42Z</time>
      </trkpt>
      <trkpt lat="39.621020" lon="2.423490">
        <ele>260.008</ele>
        <time>2020-01-27T16:53:02Z</time>
      </trkpt>
      <trkpt lat="39.621450" lon="2.423450">
        <ele>254.035</ele>
        <time>2020-01-27T16:53:22Z</time>
      </trkpt>
      <trkpt lat="39.621860" lon="2.423380">
        <ele>248.086</ele>
        <time>2020-01-27T16:53:42Z</time>
      </trkpt>
      <trkpt lat="39.622430" lon="2.423550">
        <ele>240.070</ele>
        <time>2020-01-27T16:54:02Z</time>
      </trkpt>
      <trkpt lat="39.623000" lon="2.423760">
        <ele>236.077</ele>
        <time>2020-01-27T16:54:22Z</time>
      </trkpt>
      <trkpt lat="39.623290" lon="2.424060">
        <ele>234.092</ele>
        <time>2020-01-27T16:54:42Z</time>
      </trkpt>
      <trkpt lat="39.623510" lon="2.424460">
        <ele>232.058</ele>
        <time>2020-01-27T16:55:02Z</time>
      </trkpt>
      <trkpt lat="39.623590" lon="2.424480">
        <ele>232.056</ele>
        <time>2020-01-27T16:55:22Z</time>
      </trkpt>
      <trkpt lat="39.623690" lon="2.424450">
        <ele>232.029</ele>
        <time>2020-01-27T16:55:42Z</time>
      </trkpt>
      <trkpt lat="39.623730" lon="2.424360">
        <ele>231.017</ele>
        <time>2020-01-27T16:56:02Z</time>
      </trkpt>
      <trkpt lat="39.623730" lon="2.424210">
        <ele>231.087</ele>
        <time>2020-01-27T16:56:22Z</time>
      </trkpt>
      <trkpt lat="39.623480" lon="2.423890">
        <ele>229.015</ele>
        <time>2020-01-27T16:56:42Z</time>
      </trkpt>
      <trkpt lat="39.623190" lon="2.423580">
        <ele>227.008</ele>
        <time>2020-01-27T16:57:02Z</time>
      </trkpt>
      <trkpt lat="39.622860" lon="2.423390">
        <ele>225.045</ele>
        <time>2020-01-27T16:57:22Z</time>
      </trkpt>
      <trkpt lat="39.622510" lon="2.423330">
        <ele>223.076</ele>
        <time>2020-01-27T16:57:42Z</time>
      </trkpt>
      <trkpt lat="39.622400" lon="2.423260">
        <ele>222.050</ele>
        <time>2020-01-27T16:58:02Z</time>
      </trkpt>
      <trkpt lat="39.622360" lon="2.423140">
        <ele>221.057</ele>
        <time>2020-01-27T16:58:22Z</time>
      </trkpt>
      <trkpt lat="39.622420" lon="2.423060">
        <ele>221.072</ele>
        <time>2020-01-27T16:58:42Z</time>
      </trkpt>
      <trkpt lat="39.622520" lon="2.423020">
        <ele>220.048</ele>
        <time>2020-01-27T16:59:02Z</time>
      </trkpt>
      <trkpt lat="39.622900" lon="2.423190">
        <ele>217.036</ele>
        <time>2020-01-27T16:59:22Z</time>
      </trkpt>
      <trkpt lat="39.623580" lon="2.423590">
        <ele>220.039</ele>
        <time>2020-01-27T16:59:42Z</time>
      </trkpt>
      <trkpt lat="39.624060" lon="2.424020">
        <ele>227.011</ele>
        <time>2020-01-27T17:00:02Z</time>
      </trkpt>
      <trkpt lat="39.624540" lon="2.424540">
        <ele>234.021</ele>
        <time>2020-01-27T17:00:22Z</time>
      </trkpt>
      <trkpt lat="39.625060" lon="2.425010">
        <ele>232.003</ele>
        <time>2020-01-27T17:00:42Z</time>
      </trkpt>
      <trkpt lat="39.625590" lon="2.425580">
        <ele>218.008</ele>
        <time>2020-01-27T17:01:02Z</time>
      </trkpt>
      <trkpt lat="39.625830" lon="2.425800">
        <ele>212.065</ele>
        <time>2020-01-27T17:01:22Z</time>
      </trkpt>
      <trkpt lat="39.626120" lon="2.425900">
        <ele>206.086</ele>
        <time>2020-01-27T17:01:42Z</time>
      </trkpt>
      <trkpt lat="39.626550" lon="2.425880">
        <ele>197.010</ele>
        <time>2020-01-27T17:02:02Z</time>
      </trkpt>
      <trkpt lat="39.626790" lon="2.425930">
        <ele>197.067</ele>
        <time>2020-01-27T17:02:22Z</time>
      </trkpt>
      <trkpt lat="39.627180" lon="2.426150">
        <ele>197.042</ele>
        <time>2020-01-27T17:02:42Z</time>
      </trkpt>
      <trkpt lat="39.627400" lon="2.426250">
        <ele>197.088</ele>
        <time>2020-01-27T17:03:02Z</time>
      </trkpt>
      <trkpt lat="39.628770" lon="2.426060">
        <ele>199.016</ele>
        <time>2020-01-27T17:03:22Z</time>
      </trkpt>
      <trkpt lat="39.629050" lon="2.426000">
        <ele>199.069</ele>
        <time>2020-01-27T17:03:42Z</time>
      </trkpt>
      <trkpt lat="39.629340" lon="2.425900">
        <ele>200.035</ele>
        <time>2020-01-27T17:04:02Z</time>
      </trkpt>
      <trkpt lat="39.629490" lon="2.425890">
        <ele>200.086</ele>
        <time>2020-01-27T17:04:22Z</time>
      </trkpt>
      <trkpt lat="39.629820" lon="2.425940">
        <ele>200.014</ele>
        <time>2020-01-27T17:04:42Z</time>
      </trkpt>
      <trkpt lat="39.630000" lon="2.425890">
        <ele>201.008</ele>
        <time>2020-01-27T17:05:02Z</time>
      </trkpt>
      <trkpt lat="39.630330" lon="2.425700">
        <ele>201.037</ele>
        <time>2020-01-27T17:05:22Z</time>
      </trkpt>
      <trkpt lat="39.630630" lon="2.425610">
        <ele>203.098</ele>
        <time>2020-01-27T17:05:42Z</time>
      </trkpt>
      <trkpt lat="39.630860" lon="2.425750">
        <ele>205.092</ele>
        <time>2020-01-27T17:06:02Z</time>
      </trkpt>
      <trkpt lat="39.631190" lon="2.426310">
        <ele>211.039</ele>
        <time>2020-01-27T17:06:22Z</time>
      </trkpt>
      <trkpt lat="39.631280" lon="2.426550">
        <ele>213.094</ele>
        <time>2020-01-27T17:06:42Z</time>
      </trkpt>
      <trkpt lat="39.631330" lon="2.426960">
        <ele>217.090</ele>
        <time>2020-01-27T17:07:02Z</time>
      </trkpt>
      <trkpt lat="39.631430" lon="2.427390">
        <ele>221.058</ele>
        <time>2020-01-27T17:07:22Z</time>
      </trkpt>
      <trkpt lat="39.631730" lon="2.427840">
        <ele>225.041</ele>
        <time>2020-01-27T17:07:42Z</time>
      </trkpt>
      <trkpt lat="39.631810" lon="2.428150">
        <ele>228.054</ele>
        <time>2020-01-27T17:08:02Z</time>
      </trkpt>
      <trkpt lat="39.631850" lon="2.428450">
        <ele>230.056</ele>
        <time>2020-01-27T17:08:22Z</time>
      </trkpt>
      <trkpt lat="39.631940" lon="2.428650">
        <ele>232.011</ele>
        <time>2020-01-27T17:08:42Z</time>
      </trkpt>
      <trkpt lat="39.632230" lon="2.428960">
        <ele>235.008</ele>
        <time>2020-01-27T17:09:02Z</time>
      </trkpt>
      <trkpt lat="39.632490" lon="2.429340">
        <ele>239.049</ele>
        <time>2020-01-27T17:09:22Z</time>
      </trkpt>
      <trkpt lat="39.633060" lon="2.430460">
        <ele>244.080</ele>
        <time>2020-01-27T17:09:42Z</time>
      </trkpt>
      <trkpt lat="39.633490" lon="2.431000">
        <ele>246.024</ele>
        <time>2020-01-27T17:10:02Z</time>
      </trkpt>
      <trkpt lat="39.633980" lon="2.431390">
        <ele>248.041</ele>
        <time>2020-01-27T17:10:22Z</time>
      </trkpt>
      <trkpt lat="39.634140" lon="2.431730">
        <ele>249.076</ele>
        <time>2020-01-27T17:10:42Z</time>
      </trkpt>
      <trkpt lat="39.634380" lon="2.432600">
        <ele>255.042</ele>
        <time>2020-01-27T17:11:02Z</time>
      </trkpt>
      <trkpt lat="39.634320" lon="2.432910">
        <ele>257.060</ele>
        <time>2020-01-27T17:11:22Z</time>
      </trkpt>
      <trkpt lat="39.634310" lon="2.433110">
        <ele>259.033</ele>
        <time>2020-01-27T17:11:42Z</time>
      </trkpt>
      <trkpt lat="39.634370" lon="2.433270">
        <ele>260.053</ele>
        <time>2020-01-27T17:12:02Z</time>
      </trkpt>
      <trkpt lat="39.634440" lon="2.433400">
        <ele>261.004</ele>
        <time>2020-01-27T17:12:22Z</time>
      </trkpt>
      <trkpt lat="39.634880" lon="2.433840">
        <ele>265.014</ele>
        <time>2020-01-27T17:12:42Z</time>
      </trkpt>
      <trkpt lat="39.635260" lon="2.434700">
        <ele>272.008</ele>
        <time>2020-01-27T17:13:02Z</time>
      </trkpt>
      <trkpt lat="39.635360" lon="2.435100">
        <ele>274.039</ele>
        <time>2020-01-27T17:13:22Z</time>
      </trkpt>
      <trkpt lat="39.635380" lon="2.435440">
        <ele>277.050</ele>
        <time>2020-01-27T17:13:42Z</time>
      </trkpt>
      <trkpt lat="39.635280" lon="2.436200">
        <ele>282.024</ele>
        <time>2020-01-27T17:14:02Z</time>
      </trkpt>
      <trkpt lat="39.635260" lon="2.436470">
        <ele>282.081</ele>
        <time>2020-01-27T17:14:22Z</time>
      </trkpt>
      <trkpt lat="39.635370" lon="2.436760">
        <ele>282.076</ele>
        <time>2020-01-27T17:14:42Z</time>
      </trkpt>
      <trkpt lat="39.635570" lon="2.437130">
        <ele>282.062</ele>
        <time>2020-01-27T17:15:02Z</time>
      </trkpt>
      <trkpt lat="39.635790" lon="2.437650">
        <ele>281.070</ele>
        <time>2020-01-27T17:15:22Z</time>
      </trkpt>
      <trkpt lat="39.636010" lon="2.438360">
        <ele>281.073</ele>
        <time>2020-01-27T17:15:42Z</time>
      </trkpt>
      <trkpt lat="39.636270" lon="2.438950">
        <ele>283.052</ele>
        <time>2020-01-27T17:16:02Z</time>
      </trkpt>
      <trkpt lat="39.636330" lon="2.439150">
        <ele>285.053</ele>
        <time>2020-01-27T17:16:22Z</time>
      </trkpt>
      <trkpt lat="39.636320" lon="2.439280">
        <ele>287.008</ele>
        <time>2020-01-27T17:16:42Z</time>
      </trkpt>
      <trkpt lat="39.636190" lon="2.439620">
        <ele>290.008</ele>
        <time>2020-01-27T17:17:02Z</time>
      </trkpt>
      <trkpt lat="39.636130" lon="2.439830">
        <ele>292.049</ele>
        <time>2020-01-27T17:17:22Z</time>
      </trkpt>
      <trkpt lat="39.636240" lon="2.440310">
        <ele>297.090</ele>
        <time>2020-01-27T17:17:42Z</time>
      </trkpt>
      <trkpt lat="39.636210" lon="2.441340">
        <ele>305.064</ele>
        <time>2020-01-27T17:18:02Z</time>
      </trkpt>
      <trkpt lat="39.636150" lon="2.441690">
        <ele>306.011</ele>
        <time>2020-01-27T17:18:22Z</time>
      </trkpt>
      <trkpt lat="39.635850" lon="2.442170">
        <ele>309.056</ele>
        <time>2020-01-27T17:18:42Z</time>
      </trkpt>
      <trkpt lat="39.635770" lon="2.442330">
        <ele>310.082</ele>
        <time>2020-01-27T17:19:02Z</time>
      </trkpt>
      <trkpt lat="39.635760" lon="2.442520">
        <ele>310.060</ele>
        <time>2020-01-27T17:19:22Z</time>
      </trkpt>
      <trkpt lat="39.635900" lon="2.442800">
        <ele>312.033</ele>
        <time>2020-01-27T17:19:42Z</time>
      </trkpt>
      <trkpt lat="39.635940" lon="2.442970">
        <ele>312.033</ele>
        <time>2020-01-27T17:20:02Z</time>
      </trkpt>
      <trkpt lat="39.635940" lon="2.443160">
        <ele>313.023</ele>
        <time>2020-01-27T17:20:22Z</time>
      </trkpt>
      <trkpt lat="39.635810" lon="2.443530">
        <ele>314.015</ele>
        <time>2020-01-27T17:20:42Z</time>
      </trkpt>
      <trkpt lat="39.635750" lon="2.443950">
        <ele>312.008</ele>
        <time>2020-01-27T17:21:02Z</time>
      </trkpt>
      <trkpt lat="39.635730" lon="2.444200">
        <ele>310.057</ele>
        <time>2020-01-27T17:21:22Z</time>
      </trkpt>
      <trkpt lat="39.635750" lon="2.444460">
        <ele>308.078</ele>
        <time>2020-01-27T17:21:42Z</time>
      </trkpt>
      <trkpt lat="39.635830" lon="2.444570">
        <ele>307.092</ele>
        <time>2020-01-27T17:22:02Z</time>
      </trkpt>
      <trkpt lat="39.635940" lon="2.444640">
        <ele>306.099</ele>
        <time>2020-01-27T17:22:22Z</time>
      </trkpt>
      <trkpt lat="39.636610" lon="2.444320">
        <ele>300.024</ele>
        <time>2020-01-27T17:22:42Z</time>
      </trkpt>
      <trkpt lat="39.636920" lon="2.444280">
        <ele>297.010</ele>
        <time>2020-01-27T17:23:02Z</time>
      </trkpt>
      <trkpt lat="39.637600" lon="2.444390">
        <ele>297.018</ele>
        <time>2020-01-27T17:23:22Z</time>
      </trkpt>
      <trkpt lat="39.637990" lon="2.444400">
        <ele>297.061</ele>
        <time>2020-01-27T17:23:42Z</time>
      </trkpt>
      <trkpt lat="39.638110" lon="2.444360">
        <ele>297.047</ele>
        <time>2020-01-27T17:24:02Z</time>
      </trkpt>
      <trkpt lat="39.638290" lon="2.444260">
        <ele>297.029</ele>
        <time>2020-01-27T17:24:22Z</time>
      </trkpt>
      <trkpt lat="39.638610" lon="2.444040">
        <ele>297.021</ele>
        <time>2020-01-27T17:24:42Z</time>
      </trkpt>
      <trkpt lat="39.638790" lon="2.443980">
        <ele>297.008</ele>
        <time>2020-01-27T17:25:02Z</time>
      </trkpt>
      <trkpt lat="39.639410" lon="2.443880">
        <ele>299.088</ele>
        <time>2020-01-27T17:25:22Z</time>
      </trkpt>
      <trkpt lat="39.640990" lon="2.443540">
        <ele>304.079</ele>
        <time>2020-01-27T17:25:42Z</time>
      </trkpt>
      <trkpt lat="39.641190" lon="2.443560">
        <ele>304.093</ele>
        <time>2020-01-27T17:26:02Z</time>
      </trkpt>
      <trkpt lat="39.641340" lon="2.443610">
        <ele>305.020</ele>
        <time>2020-01-27T17:26:22Z</time>
      </trkpt>
      <trkpt lat="39.641790" lon="2.443810">
        <ele>307.065</ele>
        <time>2020-01-27T17:26:42Z</time>
      </trkpt>
      <trkpt lat="39.641910" lon="2.443940">
        <ele>307.051</ele>
        <time>2020-01-27T17:27:02Z</time>
      </trkpt>
      <trkpt lat="39.641960" lon="2.444070">
        <ele>308.049</ele>
        <time>2020-01-27T17:27:22Z</time>
      </trkpt>
      <trkpt lat="39.642200" lon="2.444970">
        <ele>310.022</ele>
        <time>2020-01-27T17:27:42Z</time>
      </trkpt>
      <trkpt lat="39.642280" lon="2.445130">
        <ele>311.079</ele>
        <time>2020-01-27T17:28:02Z</time>
      </trkpt>
      <trkpt lat="39.642630" lon="2.445460">
        <ele>313.005</ele>
        <time>2020-01-27T17:28:22Z</time>
      </trkpt>
      <trkpt lat="39.642710" lon="2.445610">
        <ele>314.025</ele>
        <time>2020-01-27T17:28:42Z</time>
      </trkpt>
      <trkpt lat="39.642720" lon="2.445830">
        <ele>315.008</ele>
        <time>2020-01-27T17:29:02Z</time>
      </trkpt>
      <trkpt lat="39.642700" lon="2.446250">
        <ele>317.031</ele>
        <time>2020-01-27T17:29:22Z</time>
      </trkpt>
      <trkpt lat="39.642640" lon="2.446710">
        <ele>319.092</ele>
        <time>2020-01-27T17:29:42Z</time>
      </trkpt>
      <trkpt lat="39.642510" lon="2.447080">
        <ele>321.026</ele>
        <time>2020-01-27T17:30:02Z</time>
      </trkpt>
      <trkpt lat="39.642320" lon="2.447440">
        <ele>323.043</ele>
        <time>2020-01-27T17:30:22Z</time>
      </trkpt>
      <trkpt lat="39.642200" lon="2.447540">
        <ele>323.088</ele>
        <time>2020-01-27T17:30:42Z</time>
      </trkpt>
      <trkpt lat="39.641510" lon="2.447700">
        <ele>327.074</ele>
        <time>2020-01-27T17:31:02Z</time>
      </trkpt>
      <trkpt lat="39.641290" lon="2.447790">
        <ele>328.012</ele>
        <time>2020-01-27T17:31:22Z</time>
      </trkpt>
      <trkpt lat="39.641190" lon="2.447910">
        <ele>328.055</ele>
        <time>2020-01-27T17:31:42Z</time>
      </trkpt>
      <trkpt lat="39.641140" lon="2.448060">
        <ele>329.013</ele>
        <time>2020-01-27T17:32:02Z</time>
      </trkpt>
      <trkpt lat="39.641180" lon="2.448290">
        <ele>330.043</ele>
        <time>2020-01-27T17:32:22Z</time>
      </trkpt>
      <trkpt lat="39.641270" lon="2.448500">
        <ele>330.007</ele>
        <time>2020-01-27T17:32:42Z</time>
      </trkpt>
      <trkpt lat="39.641380" lon="2.448670">
        <ele>331.008</ele>
        <time>2020-01-27T17:33:02Z</time>
      </trkpt>
      <trkpt lat="39.641510" lon="2.448800">
        <ele>331.035</ele>
        <time>2020-01-27T17:33:22Z</time>
      </trkpt>
      <trkpt lat="39.641700" lon="2.448830">
        <ele>331.056</ele>
        <time>2020-01-27T17:33:42Z</time>
      </trkpt>
      <trkpt lat="39.641900" lon="2.448800">
        <ele>330.040</ele>
        <time>2020-01-27T17:34:02Z</time>
      </trkpt>
      <trkpt lat="39.642280" lon="2.448570">
        <ele>329.027</ele>
        <time>2020-01-27T17:34:22Z</time>
      </trkpt>
      <trkpt lat="39.642520" lon="2.448480">
        <ele>329.062</ele>
        <time>2020-01-27T17:34:42Z</time>
      </trkpt>
      <trkpt lat="39.642750" lon="2.448420">
        <ele>328.088</ele>
        <time>2020-01-27T17:35:02Z</time>
      </trkpt>
      <trkpt lat="39.643260" lon="2.448430">
        <ele>327.046</ele>
        <time>2020-01-27T17:35:22Z</time>
      </trkpt>
      <trkpt lat="39.643440" lon="2.448540">
        <ele>326.069</ele>
        <time>2020-01-27T17:35:42Z</time>
      </trkpt>
      <trkpt lat="39.643580" lon="2.448750">
        <ele>326.015</ele>
        <time>2020-01-27T17:36:02Z</time>
      </trkpt>
      <trkpt lat="39.643710" lon="2.449000">
        <ele>326.065</ele>
        <time>2020-01-27T17:36:22Z</time>
      </trkpt>
      <trkpt lat="39.643740" lon="2.449230">
        <ele>325.011</ele>
        <time>2020-01-27T17:36:42Z</time>
      </trkpt>
      <trkpt lat="39.643670" lon="2.449920">
        <ele>324.008</ele>
        <time>2020-01-27T17:37:02Z</time>
      </trkpt>
      <trkpt lat="39.643730" lon="2.450110">
        <ele>324.015</ele>
        <time>2020-01-27T17:37:22Z</time>
      </trkpt>
      <trkpt lat="39.643780" lon="2.450170">
        <ele>324.026</ele>
        <time>2020-01-27T17:37:42Z</time>
      </trkpt>
      <trkpt lat="39.643920" lon="2.450230">
        <ele>323.020</ele>
        <time>2020-01-27T17:38:02Z</time>
      </trkpt>
      <trkpt lat="39.644550" lon="2.450410">
        <ele>322.047</ele>
        <time>2020-01-27T17:38:22Z</time>
      </trkpt>
      <trkpt lat="39.644960" lon="2.450470">
        <ele>321.082</ele>
        <time>2020-01-27T17:38:42Z</time>
      </trkpt>
      <trkpt lat="39.645260" lon="2.450800">
        <ele>320.028</ele>
        <time>2020-01-27T17:39:02Z</time>
      </trkpt>
      <trkpt lat="39.645300" lon="2.450970">
        <ele>319.086</ele>
        <time>2020-01-27T17:39:22Z</time>
      </trkpt>
      <trkpt lat="39.645330" lon="2.451230">
        <ele>318.099</ele>
        <time>2020-01-27T17:39:42Z</time>
      </trkpt>
      <trkpt lat="39.645390" lon="2.451480">
        <ele>318.043</ele>
        <time>2020-01-27T17:40:02Z</time>
      </trkpt>
      <trkpt lat="39.645550" lon="2.451900">
        <ele>317.064</ele>
        <time>2020-01-27T17:40:22Z</time>
      </trkpt>
      <trkpt lat="39.645610" lon="2.452190">
        <ele>316.010</ele>
        <time>2020-01-27T17:40:42Z</time>
      </trkpt>
      <trkpt lat="39.645600" lon="2.452480">
        <ele>315.008</ele>
        <time>2020-01-27T17:41:02Z</time>
      </trkpt>
      <trkpt lat="39.645480" lon="2.453290">
        <ele>313.018</ele>
        <time>2020-01-27T17:41:22Z</time>
      </trkpt>
      <trkpt lat="39.645710" lon="2.454210">
        <ele>311.099</ele>
        <time>2020-01-27T17:41:42Z</time>
      </trkpt>
      <trkpt lat="39.645880" lon="2.455610">
        <ele>312.093</ele>
        <time>2020-01-27T17:42:02Z</time>
      </trkpt>
      <trkpt lat="39.645860" lon="2.456140">
        <ele>313.020</ele>
        <time>2020-01-27T17:42:22Z</time>
      </trkpt>
      <trkpt lat="39.645890" lon="2.456280">
        <ele>313.085</ele>
        <time>2020-01-27T17:42:42Z</time>
      </trkpt>
      <trkpt lat="39.646020" lon="2.456570">
        <ele>314.051</ele>
        <time>2020-01-27T17:43:02Z</time>
      </trkpt>
      <trkpt lat="39.646080" lon="2.456820">
        <ele>315.069</ele>
        <time>2020-01-27T17:43:22Z</time>
      </trkpt>
      <trkpt lat="39.646280" lon="2.457880">
        <ele>317.022</ele>
        <time>2020-01-27T17:43:42Z</time>
      </trkpt>
      <trkpt lat="39.646600" lon="2.458300">
        <ele>318.077</ele>
        <time>2020-01-27T17:44:02Z</time>
      </trkpt>
      <trkpt lat="39.646710" lon="2.458400">
        <ele>318.061</ele>
        <time>2020-01-27T17:44:22Z</time>
      </trkpt>
      <trkpt lat="39.646760" lon="2.458540">
        <ele>318.027</ele>
        <time>2020-01-27T17:44:42Z</time>
      </trkpt>
      <trkpt lat="39.646750" lon="2.458630">
        <ele>318.008</ele>
        <time>2020-01-27T17:45:02Z</time>
      </trkpt>
      <trkpt lat="39.646480" lon="2.459350">
        <ele>319.081</ele>
        <time>2020-01-27T17:45:22Z</time>
      </trkpt>
      <trkpt lat="39.646310" lon="2.459560">
        <ele>317.042</ele>
        <time>2020-01-27T17:45:42Z</time>
      </trkpt>
      <trkpt lat="39.645920" lon="2.459960">
        <ele>312.056</ele>
        <time>2020-01-27T17:46:02Z</time>
      </trkpt>
      <trkpt lat="39.645840" lon="2.460240">
        <ele>309.063</ele>
        <time>2020-01-27T17:46:22Z</time>
      </trkpt>
      <trkpt lat="39.645780" lon="2.460640">
        <ele>306.078</ele>
        <time>2020-01-27T17:46:42Z</time>
      </trkpt>
      <trkpt lat="39.645490" lon="2.461090">
        <ele>301.044</ele>
        <time>2020-01-27T17:47:02Z</time>
      </trkpt>
      <trkpt lat="39.645480" lon="2.461340">
        <ele>298.022</ele>
        <time>2020-01-27T17:47:22Z</time>
      </trkpt>
      <trkpt lat="39.645550" lon="2.461510">
        <ele>297.035</ele>
        <time>2020-01-27T17:47:42Z</time>
      </trkpt>
      <trkpt lat="39.646890" lon="2.462880">
        <ele>285.043</ele>
        <time>2020-01-27T17:48:02Z</time>
      </trkpt>
      <trkpt lat="39.647010" lon="2.463080">
        <ele>283.064</ele>
        <time>2020-01-27T17:48:22Z</time>
      </trkpt>
      <trkpt lat="39.647060" lon="2.463280">
        <ele>282.010</ele>
        <time>2020-01-27T17:48:42Z</time>
      </trkpt>
      <trkpt lat="39.646910" lon="2.463870">
        <ele>281.008</ele>
        <time>2020-01-27T17:49:02Z</time>
      </trkpt>
      <trkpt lat="39.647230" lon="2.465660">
        <ele>276.028</ele>
        <time>2020-01-27T17:49:22Z</time>
      </trkpt>
      <trkpt lat="39.647260" lon="2.465980">
        <ele>274.039</ele>
        <time>2020-01-27T17:49:42Z</time>
      </trkpt>
      <trkpt lat="39.647220" lon="2.466170">
        <ele>273.073</ele>
        <time>2020-01-27T17:50:02Z</time>
      </trkpt>
      <trkpt lat="39.647050" lon="2.466590">
        <ele>270.060</ele>
        <time>2020-01-27T17:50:22Z</time>
      </trkpt>
      <trkpt lat="39.646930" lon="2.466770">
        <ele>268.095</ele>
        <time>2020-01-27T17:50:42Z</time>
      </trkpt>
      <trkpt lat="39.646840" lon="2.467060">
        <ele>266.071</ele>
        <time>2020-01-27T17:51:02Z</time>
      </trkpt>
      <trkpt lat="39.646860" lon="2.467200">
        <ele>265.099</ele>
        <time>2020-01-27T17:51:22Z</time>
      </trkpt>
      <trkpt lat="39.646970" lon="2.467380">
        <ele>263.042</ele>
        <time>2020-01-27T17:51:42Z</time>
      </trkpt>
      <trkpt lat="39.647850" lon="2.467540">
        <ele>258.064</ele>
        <time>2020-01-27T17:52:02Z</time>
      </trkpt>
      <trkpt lat="39.648550" lon="2.467960">
        <ele>258.006</ele>
        <time>2020-01-27T17:52:22Z</time>
      </trkpt>
      <trkpt lat="39.649210" lon="2.468400">
        <ele>258.016</ele>
        <time>2020-01-27T17:52:42Z</time>
      </trkpt>
      <trkpt lat="39.649330" lon="2.468520">
        <ele>258.008</ele>
        <time>2020-01-27T17:53:02Z</time>
      </trkpt>
      <trkpt lat="39.649660" lon="2.468990">
        <ele>255.030</ele>
        <time>2020-01-27T17:53:22Z</time>
      </trkpt>
      <trkpt lat="39.649810" lon="2.469020">
        <ele>254.031</ele>
        <time>2020-01-27T17:53:42Z</time>
      </trkpt>
      <trkpt lat="39.649970" lon="2.468990">
        <ele>253.055</ele>
        <time>2020-01-27T17:54:02Z</time>
      </trkpt>
      <trkpt lat="39.650400" lon="2.468670">
        <ele>248.032</ele>
        <time>2020-01-27T17:54:22Z</time>
      </trkpt>
      <trkpt lat="39.650570" lon="2.468660">
        <ele>247.057</ele>
        <time>2020-01-27T17:54:42Z</time>
      </trkpt>
      <trkpt lat="39.651700" lon="2.469070">
        <ele>238.083</ele>
        <time>2020-01-27T17:55:02Z</time>
      </trkpt>
      <trkpt lat="39.651820" lon="2.469140">
        <ele>238.031</ele>
        <time>2020-01-27T17:55:22Z</time>
      </trkpt>
      <trkpt lat="39.651910" lon="2.469240">
        <ele>237.094</ele>
        <time>2020-01-27T17:55:42Z</time>
      </trkpt>
      <trkpt lat="39.651970" lon="2.469410">
        <ele>237.034</ele>
        <time>2020-01-27T17:56:02Z</time>
      </trkpt>
      <trkpt lat="39.652000" lon="2.469530">
        <ele>236.055</ele>
        <time>2020-01-27T17:56:22Z</time>
      </trkpt>
      <trkpt lat="39.652020" lon="2.470010">
        <ele>235.010</ele>
        <time>2020-01-27T17:56:42Z</time>
      </trkpt>
      <trkpt lat="39.652020" lon="2.470000">
        <ele>235.008</ele>
        <time>2020-01-27T17:57:02Z</time>
      </trkpt>
      <trkpt lat="39.652040" lon="2.470370">
        <ele>233.067</ele>
        <time>2020-01-27T17:57:22Z</time>
      </trkpt>
      <trkpt lat="39.652000" lon="2.470580">
        <ele>233.058</ele>
        <time>2020-01-27T17:57:42Z</time>
      </trkpt>
      <trkpt lat="39.651920" lon="2.470730">
        <ele>232.022</ele>
        <time>2020-01-27T17:58:02Z</time>
      </trkpt>
      <trkpt lat="39.651840" lon="2.470810">
        <ele>231.049</ele>
        <time>2020-01-27T17:58:22Z</time>
      </trkpt>
      <trkpt lat="39.650410" lon="2.471420">
        <ele>225.094</ele>
        <time>2020-01-27T17:58:42Z</time>
      </trkpt>
      <trkpt lat="39.650180" lon="2.471570">
        <ele>224.050</ele>
        <time>2020-01-27T17:59:02Z</time>
      </trkpt>
      <trkpt lat="39.650030" lon="2.471810">
        <ele>223.018</ele>
        <time>2020-01-27T17:59:22Z</time>
      </trkpt>
      <trkpt lat="39.649940" lon="2.472240">
        <ele>221.011</ele>
        <time>2020-01-27T17:59:42Z</time>
      </trkpt>
      <trkpt lat="39.649160" lon="2.473480">
        <ele>214.091</ele>
        <time>2020-01-27T18:00:02Z</time>
      </trkpt>
      <trkpt lat="39.649090" lon="2.473610">
        <ele>213.081</ele>
        <time>2020-01-27T18:00:22Z</time>
      </trkpt>
      <trkpt lat="39.649080" lon="2.473870">
        <ele>212.019</ele>
        <time>2020-01-27T18:00:42Z</time>
      </trkpt>
      <trkpt lat="39.649160" lon="2.474120">
        <ele>211.008</ele>
        <time>2020-01-27T18:01:02Z</time>
      </trkpt>
      <trkpt lat="39.649270" lon="2.474290">
        <ele>208.053</ele>
        <time>2020-01-27T18:01:22Z</time>
      </trkpt>
      <trkpt lat="39.649540" lon="2.474500">
        <ele>204.054</ele>
        <time>2020-01-27T18:01:42Z</time>
      </trkpt>
      <trkpt lat="39.649810" lon="2.474660">
        <ele>200.018</ele>
        <time>2020-01-27T18:02:02Z</time>
      </trkpt>
      <trkpt lat="39.649920" lon="2.474820">
        <ele>198.065</ele>
        <time>2020-01-27T18:02:22Z</time>
      </trkpt>
      <trkpt lat="39.649950" lon="2.474990">
        <ele>196.020</ele>
        <time>2020-01-27T18:02:42Z</time>
      </trkpt>
      <trkpt lat="39.649930" lon="2.475160">
        <ele>195.076</ele>
        <time>2020-01-27T18:03:02Z</time>
      </trkpt>
      <trkpt lat="39.649740" lon="2.475560">
        <ele>190.094</ele>
        <time>2020-01-27T18:03:22Z</time>
      </trkpt>
      <trkpt lat="39.649720" lon="2.475710">
        <ele>188.077</ele>
        <time>2020-01-27T18:03:42Z</time>
      </trkpt>
      <trkpt lat="39.649740" lon="2.475850">
        <ele>187.015</ele>
        <time>2020-01-27T18:04:02Z</time>
      </trkpt>
      <trkpt lat="39.649800" lon="2.475960">
        <ele>185.065</ele>
        <time>2020-01-27T18:04:22Z</time>
      </trkpt>
      <trkpt lat="39.649960" lon="2.476210">
        <ele>184.011</ele>
        <time>2020-01-27T18:04:42Z</time>
      </trkpt>
      <trkpt lat="39.650110" lon="2.476360">
        <ele>183.008</ele>
        <time>2020-01-27T18:05:02Z</time>
      </trkpt>
      <trkpt lat="39.650180" lon="2.476490">
        <ele>182.075</ele>
        <time>2020-01-27T18:05:22Z</time>
      </trkpt>
      <trkpt lat="39.650200" lon="2.476630">
        <ele>182.056</ele>
        <time>2020-01-27T18:05:42Z</time>
      </trkpt>
      <trkpt lat="39.650180" lon="2.476790">
        <ele>181.010</ele>
        <time>2020-01-27T18:06:02Z</time>
      </trkpt>
      <trkpt lat="39.650070" lon="2.476990">
        <ele>180.067</ele>
        <time>2020-01-27T18:06:22Z</time>
      </trkpt>
      <trkpt lat="39.649820" lon="2.477320">
        <ele>178.012</ele>
        <time>2020-01-27T18:06:42Z</time>
      </trkpt>
      <trkpt lat="39.649730" lon="2.477470">
        <ele>177.018</ele>
        <time>2020-01-27T18:07:02Z</time>
      </trkpt>
      <trkpt lat="39.649710" lon="2.477630">
        <ele>177.076</ele>
        <time>2020-01-27T18:07:22Z</time>
      </trkpt>
      <trkpt lat="39.649710" lon="2.477800">
        <ele>176.079</ele>
        <time>2020-01-27T18:07:42Z</time>
      </trkpt>
      <trkpt lat="39.649780" lon="2.477960">
        <ele>176.058</ele>
        <time>2020-01-27T18:08:02Z</time>
      </trkpt>
      <trkpt lat="39.650050" lon="2.478190">
        <ele>173.052</ele>
        <time>2020-01-27T18:08:22Z</time>
      </trkpt>
      <trkpt lat="39.650870" lon="2.478730">
        <ele>164.017</ele>
        <time>2020-01-27T18:08:42Z</time>
      </trkpt>
      <trkpt lat="39.651190" lon="2.479000">
        <ele>161.008</ele>
        <time>2020-01-27T18:09:02Z</time>
      </trkpt>
      <trkpt lat="39.651230" lon="2.479060">
        <ele>160.039</ele>
        <time>2020-01-27T18:09:22Z</time>
      </trkpt>
      <trkpt lat="39.651280" lon="2.479180">
        <ele>159.060</ele>
        <time>2020-01-27T18:09:42Z</time>
      </trkpt>
      <trkpt lat="39.651340" lon="2.479360">
        <ele>157.054</ele>
        <time>2020-01-27T18:10:02Z</time>
      </trkpt>
      <trkpt lat="39.651370" lon="2.479450">
        <ele>157.031</ele>
        <time>2020-01-27T18:10:22Z</time>
      </trkpt>
      <trkpt lat="39.651430" lon="2.479540">
        <ele>156.046</ele>
        <time>2020-01-27T18:10:42Z</time>
      </trkpt>
      <trkpt lat="39.651490" lon="2.479600">
        <ele>155.012</ele>
        <time>2020-01-27T18:11:02Z</time>
      </trkpt>
      <trkpt lat="39.651560" lon="2.479650">
        <ele>154.030</ele>
        <time>2020-01-27T18:11:22Z</time>
      </trkpt>
      <trkpt lat="39.651670" lon="2.479680">
        <ele>154.053</ele>
        <time>2020-01-27T18:11:42Z</time>
      </trkpt>
      <trkpt lat="39.652170" lon="2.479700">
        <ele>154.066</ele>
        <time>2020-01-27T18:12:02Z</time>
      </trkpt>
      <trkpt lat="39.652300" lon="2.479720">
        <ele>153.029</ele>
        <time>2020-01-27T18:12:22Z</time>
      </trkpt>
      <trkpt lat="39.652370" lon="2.479750">
        <ele>153.021</ele>
        <time>2020-01-27T18:12:42Z</time>
      </trkpt>
      <trkpt lat="39.652480" lon="2.479930">
        <ele>153.008</ele>
        <time>2020-01-27T18:13:02Z</time>
      </trkpt>
      <trkpt lat="39.652570" lon="2.480580">
        <ele>152.040</ele>
        <time>2020-01-27T18:13:22Z</time>
      </trkpt>
      <trkpt lat="39.652730" lon="2.480980">
        <ele>152.071</ele>
        <time>2020-01-27T18:13:42Z</time>
      </trkpt>
      <trkpt lat="39.652830" lon="2.481120">
        <ele>152.035</ele>
        <time>2020-01-27T18:14:02Z</time>
      </trkpt>
      <trkpt lat="39.653310" lon="2.481670">
        <ele>150.032</ele>
        <time>2020-01-27T18:14:22Z</time>
      </trkpt>
      <trkpt lat="39.653510" lon="2.482870">
        <ele>147.037</ele>
        <time>2020-01-27T18:14:42Z</time>
      </trkpt>
      <trkpt lat="39.653540" lon="2.483370">
        <ele>146.083</ele>
        <time>2020-01-27T18:15:02Z</time>
      </trkpt>
      <trkpt lat="39.653510" lon="2.483460">
        <ele>146.021</ele>
        <time>2020-01-27T18:15:22Z</time>
      </trkpt>
      <trkpt lat="39.653410" lon="2.483620">
        <ele>146.074</ele>
        <time>2020-01-27T18:15:42Z</time>
      </trkpt>
      <trkpt lat="39.653390" lon="2.483700">
        <ele>146.018</ele>
        <time>2020-01-27T18:16:02Z</time>
      </trkpt>
      <trkpt lat="39.653400" lon="2.483750">
        <ele>147.098</ele>
        <time>2020-01-27T18:16:22Z</time>
      </trkpt>
      <trkpt lat="39.653460" lon="2.483860">
        <ele>147.017</ele>
        <time>2020-01-27T18:16:42Z</time>
      </trkpt>
      <trkpt lat="39.653550" lon="2.483930">
        <ele>147.008</ele>
        <time>2020-01-27T18:17:02Z</time>
      </trkpt>
      <trkpt lat="39.653620" lon="2.483950">
        <ele>148.085</ele>
        <time>2020-01-27T18:17:22Z</time>
      </trkpt>
      <trkpt lat="39.653800" lon="2.483910">
        <ele>148.056</ele>
        <time>2020-01-27T18:17:42Z</time>
      </trkpt>
      <trkpt lat="39.654180" lon="2.483750">
        <ele>150.050</ele>
        <time>2020-01-27T18:18:02Z</time>
      </trkpt>
      <trkpt lat="39.654250" lon="2.483750">
        <ele>150.017</ele>
        <time>2020-01-27T18:18:22Z</time>
      </trkpt>
      <trkpt lat="39.654700" lon="2.483800">
        <ele>152.032</ele>
        <time>2020-01-27T18:18:42Z</time>
      </trkpt>
      <trkpt lat="39.655030" lon="2.483870">
        <ele>153.088</ele>
        <time>2020-01-27T18:19:02Z</time>
      </trkpt>
      <trkpt lat="39.655140" lon="2.483930">
        <ele>154.036</ele>
        <time>2020-01-27T18:19:22Z</time>
      </trkpt>
      <trkpt lat="39.655180" lon="2.483990">
        <ele>155.019</ele>
        <time>2020-01-27T18:19:42Z</time>
      </trkpt>
      <trkpt lat="39.655200" lon="2.484050">
        <ele>155.019</ele>
        <time>2020-01-27T18:20:02Z</time>
      </trkpt>
      <trkpt lat="39.655220" lon="2.484170">
        <ele>156.009</ele>
        <time>2020-01-27T18:20:22Z</time>
      </trkpt>
      <trkpt lat="39.655200" lon="2.484260">
        <ele>157.019</ele>
        <time>2020-01-27T18:20:42Z</time>
      </trkpt>
      <trkpt lat="39.654880" lon="2.485310">
        <ele>165.008</ele>
        <time>2020-01-27T18:21:02Z</time>
      </trkpt>
      <trkpt lat="39.654790" lon="2.485480">
        <ele>167.045</ele>
        <time>2020-01-27T18:21:22Z</time>
      </trkpt>
      <trkpt lat="39.654730" lon="2.485520">
        <ele>167.096</ele>
        <time>2020-01-27T18:21:42Z</time>
      </trkpt>
      <trkpt lat="39.654330" lon="2.485780">
        <ele>171.030</ele>
        <time>2020-01-27T18:22:02Z</time>
      </trkpt>
      <trkpt lat="39.653870" lon="2.486490">
        <ele>172.027</ele>
        <time>2020-01-27T18:22:22Z</time>
      </trkpt>
      <trkpt lat="39.653870" lon="2.486610">
        <ele>172.022</ele>
        <time>2020-01-27T18:22:42Z</time>
      </trkpt>
      <trkpt lat="39.654000" lon="2.486740">
        <ele>172.048</ele>
        <time>2020-01-27T18:23:02Z</time>
      </trkpt>
      <trkpt lat="39.654080" lon="2.486750">
        <ele>172.026</ele>
        <time>2020-01-27T18:23:22Z</time>
      </trkpt>
      <trkpt lat="39.654240" lon="2.486730">
        <ele>172.079</ele>
        <time>2020-01-27T18:23:42Z</time>
      </trkpt>
      <trkpt lat="39.654450" lon="2.486640">
        <ele>172.012</ele>
        <time>2020-01-27T18:24:02Z</time>
      </trkpt>
      <trkpt lat="39.654710" lon="2.486510">
        <ele>172.032</ele>
        <time>2020-01-27T18:24:22Z</time>
      </trkpt>
      <trkpt lat="39.654850" lon="2.486480">
        <ele>172.005</ele>
        <time>2020-01-27T18:24:42Z</time>
      </trkpt>
      <trkpt lat="39.654990" lon="2.486490">
        <ele>172.008</ele>
        <time>2020-01-27T18:25:02Z</time>
      </trkpt>
      <trkpt lat="39.655190" lon="2.486590">
        <ele>171.085</ele>
        <time>2020-01-27T18:25:22Z</time>
      </trkpt>
      <trkpt lat="39.655960" lon="2.487340">
        <ele>168.096</ele>
        <time>2020-01-27T18:25:42Z</time>
      </trkpt>
      <trkpt lat="39.656040" lon="2.487360">
        <ele>168.040</ele>
        <time>2020-01-27T18:26:02Z</time>
      </trkpt>
      <trkpt lat="39.656130" lon="2.487340">
        <ele>168.087</ele>
        <time>2020-01-27T18:26:22Z</time>
      </trkpt>
      <trkpt lat="39.656130" lon="2.487340">
        <ele>168.092</ele>
        <time>2020-01-27T18:26:42Z</time>
      </trkpt>
      <trkpt lat="39.656290" lon="2.487300">
        <ele>167.088</ele>
        <time>2020-01-27T18:27:02Z</time>
      </trkpt>
      <trkpt lat="39.656420" lon="2.487160">
        <ele>167.046</ele>
        <time>2020-01-27T18:27:22Z</time>
      </trkpt>
      <trkpt lat="39.656460" lon="2.486970">
        <ele>167.029</ele>
        <time>2020-01-27T18:27:42Z</time>
      </trkpt>
      <trkpt lat="39.656480" lon="2.486500">
        <ele>166.019</ele>
        <time>2020-01-27T18:28:02Z</time>
      </trkpt>
      <trkpt lat="39.656510" lon="2.486270">
        <ele>166.009</ele>
        <time>2020-01-27T18:28:22Z</time>
      </trkpt>
      <trkpt lat="39.656570" lon="2.486020">
        <ele>167.019</ele>
        <time>2020-01-27T18:28:42Z</time>
      </trkpt>
      <trkpt lat="39.656640" lon="2.485870">
        <ele>168.008</ele>
        <time>2020-01-27T18:29:02Z</time>
      </trkpt>
      <trkpt lat="39.656760" lon="2.485770">
        <ele>168.075</ele>
        <time>2020-01-27T18:29:22Z</time>
      </trkpt>
      <trkpt lat="39.656930" lon="2.485760">
        <ele>169.026</ele>
        <time>2020-01-27T18:29:42Z</time>
      </trkpt>
      <trkpt lat="39.657140" lon="2.485810">
        <ele>170.010</ele>
        <time>2020-01-27T18:30:02Z</time>
      </trkpt>
      <trkpt lat="39.657280" lon="2.485880">
        <ele>171.027</ele>
        <time>2020-01-27T18:30:22Z</time>
      </trkpt>
      <trkpt lat="39.657560" lon="2.485990">
        <ele>172.032</ele>
        <time>2020-01-27T18:30:42Z</time>
      </trkpt>
      <trkpt lat="39.657620" lon="2.486010">
        <ele>172.018</ele>
        <time>2020-01-27T18:31:02Z</time>
      </trkpt>
      <trkpt lat="39.657700" lon="2.485980">
        <ele>173.036</ele>
        <time>2020-01-27T18:31:22Z</time>
      </trkpt>
      <trkpt lat="39.658030" lon="2.485770">
        <ele>174.069</ele>
        <time>2020-01-27T18:31:42Z</time>
      </trkpt>
      <trkpt lat="39.658380" lon="2.485740">
        <ele>173.048</ele>
        <time>2020-01-27T18:32:02Z</time>
      </trkpt>
      <trkpt lat="39.658480" lon="2.485670">
        <ele>172.061</ele>
        <time>2020-01-27T18:32:22Z</time>
      </trkpt>
      <trkpt lat="39.658530" lon="2.485610">
        <ele>171.017</ele>
        <time>2020-01-27T18:32:42Z</time>
      </trkpt>
      <trkpt lat="39.658580" lon="2.485420">
        <ele>171.008</ele>
        <time>2020-01-27T18:33:02Z</time>
      </trkpt>
      <trkpt lat="39.658550" lon="2.485040">
        <ele>169.088</ele>
        <time>2020-01-27T18:33:22Z</time>
      </trkpt>
      <trkpt lat="39.658560" lon="2.484900">
        <ele>168.039</ele>
        <time>2020-01-27T18:33:42Z</time>
      </trkpt>
      <trkpt lat="39.658660" lon="2.484600">
        <ele>167.093</ele>
        <time>2020-01-27T18:34:02Z</time>
      </trkpt>
      <trkpt lat="39.658830" lon="2.484310">
        <ele>165.020</ele>
        <time>2020-01-27T18:34:22Z</time>
      </trkpt>
      <trkpt lat="39.659010" lon="2.484070">
        <ele>163.095</ele>
        <time>2020-01-27T18:34:42Z</time>
      </trkpt>
      <trkpt lat="39.659170" lon="2.483940">
        <ele>163.081</ele>
        <time>2020-01-27T18:35:02Z</time>
      </trkpt>
      <trkpt lat="39.659240" lon="2.483910">
        <ele>163.019</ele>
        <time>2020-01-27T18:35:22Z</time>
      </trkpt>
      <trkpt lat="39.659310" lon="2.483880">
        <ele>163.042</ele>
        <time>2020-01-27T18:35:42Z</time>
      </trkpt>
      <trkpt lat="39.659450" lon="2.483920">
        <ele>164.082</ele>
        <time>2020-01-27T18:36:02Z</time>
      </trkpt>
      <trkpt lat="39.659600" lon="2.484010">
        <ele>165.043</ele>
        <time>2020-01-27T18:36:22Z</time>
      </trkpt>
      <trkpt lat="39.659920" lon="2.484340">
        <ele>167.017</ele>
        <time>2020-01-27T18:36:42Z</time>
      </trkpt>
      <trkpt lat="39.660210" lon="2.484680">
        <ele>169.008</ele>
        <time>2020-01-27T18:37:02Z</time>
      </trkpt>
      <trkpt lat="39.660470" lon="2.485150">
        <ele>171.062</ele>
        <time>2020-01-27T18:37:22Z</time>
      </trkpt>
      <trkpt lat="39.660660" lon="2.485600">
        <ele>173.083</ele>
        <time>2020-01-27T18:37:42Z</time>
      </trkpt>
      <trkpt lat="39.660750" lon="2.485730">
        <ele>174.027</ele>
        <time>2020-01-27T18:38:02Z</time>
      </trkpt>
      <trkpt lat="39.660880" lon="2.485780">
        <ele>175.024</ele>
        <time>2020-01-27T18:38:22Z</time>
      </trkpt>
      <trkpt lat="39.661130" lon="2.485780">
        <ele>177.099</ele>
        <time>2020-01-27T18:38:42Z</time>
      </trkpt>
      <trkpt lat="39.661590" lon="2.486020">
        <ele>180.095</ele>
        <time>2020-01-27T18:39:02Z</time>
      </trkpt>
      <trkpt lat="39.661730" lon="2.486130">
        <ele>181.023</ele>
        <time>2020-01-27T18:39:22Z</time>
      </trkpt>
      <trkpt lat="39.661840" lon="2.486250">
        <ele>182.046</ele>
        <time>2020-01-27T18:39:42Z</time>
      </trkpt>
      <trkpt lat="39.662030" lon="2.486700">
        <ele>185.015</ele>
        <time>2020-01-27T18:40:02Z</time>
      </trkpt>
      <trkpt lat="39.662130" lon="2.486990">
        <ele>187.065</ele>
        <time>2020-01-27T18:40:22Z</time>
      </trkpt>
      <trkpt lat="39.662180" lon="2.487260">
        <ele>187.011</ele>
        <time>2020-01-27T18:40:42Z</time>
      </trkpt>
      <trkpt lat="39.662200" lon="2.487720">
        <ele>187.008</ele>
        <time>2020-01-27T18:41:02Z</time>
      </trkpt>
      <trkpt lat="39.662220" lon="2.487900">
        <ele>188.015</ele>
        <time>2020-01-27T18:41:22Z</time>
      </trkpt>
      <trkpt lat="39.662270" lon="2.488010">
        <ele>188.036</ele>
        <time>2020-01-27T18:41:42Z</time>
      </trkpt>
      <trkpt lat="39.662340" lon="2.488090">
        <ele>188.080</ele>
        <time>2020-01-27T18:42:02Z</time>
      </trkpt>
      <trkpt lat="39.662420" lon="2.488120">
        <ele>188.017</ele>
        <time>2020-01-27T18:42:22Z</time>
      </trkpt>
      <trkpt lat="39.662530" lon="2.488100">
        <ele>188.062</ele>
        <time>2020-01-27T18:42:42Z</time>
      </trkpt>
      <trkpt lat="39.662640" lon="2.488050">
        <ele>188.088</ele>
        <time>2020-01-27T18:43:02Z</time>
      </trkpt>
      <trkpt lat="39.662910" lon="2.487740">
        <ele>189.086</ele>
        <time>2020-01-27T18:43:22Z</time>
      </trkpt>
      <trkpt lat="39.663470" lon="2.487180">
        <ele>189.089</ele>
        <time>2020-01-27T18:43:42Z</time>
      </trkpt>
      <trkpt lat="39.663580" lon="2.487030">
        <ele>189.074</ele>
        <time>2020-01-27T18:44:02Z</time>
      </trkpt>
      <trkpt lat="39.663660" lon="2.486750">
        <ele>188.056</ele>
        <time>2020-01-27T18:44:22Z</time>
      </trkpt>
      <trkpt lat="39.663690" lon="2.486510">
        <ele>188.021</ele>
        <time>2020-01-27T18:44:42Z</time>
      </trkpt>
      <trkpt lat="39.663760" lon="2.486290">
        <ele>187.008</ele>
        <time>2020-01-27T18:45:02Z</time>
      </trkpt>
      <trkpt lat="39.663850" lon="2.486140">
        <ele>187.031</ele>
        <time>2020-01-27T18:45:22Z</time>
      </trkpt>
      <trkpt lat="39.663990" lon="2.486060">
        <ele>187.082</ele>
        <time>2020-01-27T18:45:42Z</time>
      </trkpt>
      <trkpt lat="39.664580" lon="2.485920">
        <ele>186.076</ele>
        <time>2020-01-27T18:46:02Z</time>
      </trkpt>
      <trkpt lat="39.664700" lon="2.485930">
        <ele>185.033</ele>
        <time>2020-01-27T18:46:22Z</time>
      </trkpt>
      <trkpt lat="39.664810" lon="2.486010">
        <ele>185.098</ele>
        <time>2020-01-27T18:46:42Z</time>
      </trkpt>
      <trkpt lat="39.664900" lon="2.486100">
        <ele>184.084</ele>
        <time>2020-01-27T18:47:02Z</time>
      </trkpt>
      <trkpt lat="39.665220" lon="2.486670">
        <ele>182.012</ele>
        <time>2020-01-27T18:47:22Z</time>
      </trkpt>
      <trkpt lat="39.665350" lon="2.486830">
        <ele>181.075</ele>
        <time>2020-01-27T18:47:42Z</time>
      </trkpt>
      <trkpt lat="39.665470" lon="2.486950">
        <ele>180.029</ele>
        <time>2020-01-27T18:48:02Z</time>
      </trkpt>
      <trkpt lat="39.665610" lon="2.486990">
        <ele>180.000</ele>
        <time>2020-01-27T18:48:22Z</time>
      </trkpt>
      <trkpt lat="39.665750" lon="2.486940">
        <ele>179.020</ele>
        <time>2020-01-27T18:48:42Z</time>
      </trkpt>
      <trkpt lat="39.666070" lon="2.486720">
        <ele>178.008</ele>
        <time>2020-01-27T18:49:02Z</time>
      </trkpt>
      <trkpt lat="39.666210" lon="2.486700">
        <ele>177.036</ele>
        <time>2020-01-27T18:49:22Z</time>
      </trkpt>
      <trkpt lat="39.666570" lon="2.486800">
        <ele>175.077</ele>
        <time>2020-01-27T18:49:42Z</time>
      </trkpt>
      <trkpt lat="39.667070" lon="2.486850">
        <ele>172.081</ele>
        <time>2020-01-27T18:50:02Z</time>
      </trkpt>
      <trkpt lat="39.667310" lon="2.486980">
        <ele>171.078</ele>
        <time>2020-01-27T18:50:22Z</time>
      </trkpt>
      <trkpt lat="39.667460" lon="2.487100">
        <ele>170.023</ele>
        <time>2020-01-27T18:50:42Z</time>
      </trkpt>
      <trkpt lat="39.667610" lon="2.487150">
        <ele>169.069</ele>
        <time>2020-01-27T18:51:02Z</time>
      </trkpt>
      <trkpt lat="39.667740" lon="2.487090">
        <ele>168.057</ele>
        <time>2020-01-27T18:51:22Z</time>
      </trkpt>
      <trkpt lat="39.667920" lon="2.486880">
        <ele>167.050</ele>
        <time>2020-01-27T18:51:42Z</time>
      </trkpt>
      <trkpt lat="39.668030" lon="2.486790">
        <ele>166.079</ele>
        <time>2020-01-27T18:52:02Z</time>
      </trkpt>
      <trkpt lat="39.668280" lon="2.486710">
        <ele>165.005</ele>
        <time>2020-01-27T18:52:22Z</time>
      </trkpt>
      <trkpt lat="39.668500" lon="2.486690">
        <ele>164.025</ele>
        <time>2020-01-27T18:52:42Z</time>
      </trkpt>
      <trkpt lat="39.668990" lon="2.486470">
        <ele>163.008</ele>
        <time>2020-01-27T18:53:02Z</time>
      </trkpt>
      <trkpt lat="39.669570" lon="2.486250">
        <ele>161.061</ele>
        <time>2020-01-27T18:53:22Z</time>
      </trkpt>
      <trkpt lat="39.669700" lon="2.486270">
        <ele>160.012</ele>
        <time>2020-01-27T18:53:42Z</time>
      </trkpt>
      <trkpt lat="39.669790" lon="2.486400">
        <ele>160.066</ele>
        <time>2020-01-27T18:54:02Z</time>
      </trkpt>
      <trkpt lat="39.669830" lon="2.486580">
        <ele>159.023</ele>
        <time>2020-01-27T18:54:22Z</time>
      </trkpt>
      <trkpt lat="39.669860" lon="2.486850">
        <ele>159.058</ele>
        <time>2020-01-27T18:54:42Z</time>
      </trkpt>
      <trkpt lat="39.669850" lon="2.487340">
        <ele>161.014</ele>
        <time>2020-01-27T18:55:02Z</time>
      </trkpt>
      <trkpt lat="39.669820" lon="2.487610">
        <ele>162.042</ele>
        <time>2020-01-27T18:55:22Z</time>
      </trkpt>
      <trkpt lat="39.669630" lon="2.488100">
        <ele>165.045</ele>
        <time>2020-01-27T18:55:42Z</time>
      </trkpt>
      <trkpt lat="39.669600" lon="2.488310">
        <ele>166.041</ele>
        <time>2020-01-27T18:56:02Z</time>
      </trkpt>
      <trkpt lat="39.669620" lon="2.488510">
        <ele>167.081</ele>
        <time>2020-01-27T18:56:22Z</time>
      </trkpt>
      <trkpt lat="39.669790" lon="2.488730">
        <ele>168.009</ele>
        <time>2020-01-27T18:56:42Z</time>
      </trkpt>
      <trkpt lat="39.669880" lon="2.488900">
        <ele>169.008</ele>
        <time>2020-01-27T18:57:02Z</time>
      </trkpt>
      <trkpt lat="39.669930" lon="2.489040">
        <ele>170.058</ele>
        <time>2020-01-27T18:57:22Z</time>
      </trkpt>
      <trkpt lat="39.669940" lon="2.489200">
        <ele>170.099</ele>
        <time>2020-01-27T18:57:42Z</time>
      </trkpt>
      <trkpt lat="39.669870" lon="2.489470">
        <ele>172.033</ele>
        <time>2020-01-27T18:58:02Z</time>
      </trkpt>
      <trkpt lat="39.669840" lon="2.489680">
        <ele>174.030</ele>
        <time>2020-01-27T18:58:22Z</time>
      </trkpt>
      <trkpt lat="39.669870" lon="2.489810">
        <ele>174.065</ele>
        <time>2020-01-27T18:58:42Z</time>
      </trkpt>
      <trkpt lat="39.669970" lon="2.489940">
        <ele>176.031</ele>
        <time>2020-01-27T18:59:02Z</time>
      </trkpt>
      <trkpt lat="39.670330" lon="2.490150">
        <ele>179.079</ele>
        <time>2020-01-27T18:59:22Z</time>
      </trkpt>
      <trkpt lat="39.670580" lon="2.490320">
        <ele>181.012</ele>
        <time>2020-01-27T18:59:42Z</time>
      </trkpt>
      <trkpt lat="39.670640" lon="2.490380">
        <ele>182.015</ele>
        <time>2020-01-27T19:00:02Z</time>
      </trkpt>
      <trkpt lat="39.670660" lon="2.490460">
        <ele>182.065</ele>
        <time>2020-01-27T19:00:22Z</time>
      </trkpt>
      <trkpt lat="39.670600" lon="2.490800">
        <ele>185.011</ele>
        <time>2020-01-27T19:00:42Z</time>
      </trkpt>
      <trkpt lat="39.670610" lon="2.490920">
        <ele>185.008</ele>
        <time>2020-01-27T19:01:02Z</time>
      </trkpt>
      <trkpt lat="39.670670" lon="2.491180">
        <ele>187.085</ele>
        <time>2020-01-27T19:01:22Z</time>
      </trkpt>
      <trkpt lat="39.670720" lon="2.491290">
        <ele>187.066</ele>
        <time>2020-01-27T19:01:42Z</time>
      </trkpt>
      <trkpt lat="39.670740" lon="2.491420">
        <ele>187.070</ele>
        <time>2020-01-27T19:02:02Z</time>
      </trkpt>
      <trkpt lat="39.670710" lon="2.491990">
        <ele>185.027</ele>
        <time>2020-01-27T19:02:22Z</time>
      </trkpt>
      <trkpt lat="39.670730" lon="2.492090">
        <ele>185.042</ele>
        <time>2020-01-27T19:02:42Z</time>
      </trkpt>
      <trkpt lat="39.670780" lon="2.492170">
        <ele>184.068</ele>
        <time>2020-01-27T19:03:02Z</time>
      </trkpt>
      <trkpt lat="39.670940" lon="2.492300">
        <ele>184.066</ele>
        <time>2020-01-27T19:03:22Z</time>
      </trkpt>
      <trkpt lat="39.671420" lon="2.492560">
        <ele>182.089</ele>
        <time>2020-01-27T19:03:42Z</time>
      </trkpt>
      <trkpt lat="39.671910" lon="2.492900">
        <ele>180.034</ele>
        <time>2020-01-27T19:04:02Z</time>
      </trkpt>
      <trkpt lat="39.672280" lon="2.493290">
        <ele>180.055</ele>
        <time>2020-01-27T19:04:22Z</time>
      </trkpt>
      <trkpt lat="39.672570" lon="2.493630">
        <ele>181.010</ele>
        <time>2020-01-27T19:04:42Z</time>
      </trkpt>
      <trkpt lat="39.672600" lon="2.493700">
        <ele>181.008</ele>
        <time>2020-01-27T19:05:02Z</time>
      </trkpt>
      <trkpt lat="39.672610" lon="2.493850">
        <ele>182.097</ele>
        <time>2020-01-27T19:05:22Z</time>
      </trkpt>
      <trkpt lat="39.672380" lon="2.494710">
        <ele>183.068</ele>
        <time>2020-01-27T19:05:42Z</time>
      </trkpt>
      <trkpt lat="39.672310" lon="2.495020">
        <ele>183.092</ele>
        <time>2020-01-27T19:06:02Z</time>
      </trkpt>
      <trkpt lat="39.672290" lon="2.495370">
        <ele>185.079</ele>
        <time>2020-01-27T19:06:22Z</time>
      </trkpt>
      <trkpt lat="39.672240" lon="2.495730">
        <ele>186.074</ele>
        <time>2020-01-27T19:06:42Z</time>
      </trkpt>
      <trkpt lat="39.672110" lon="2.496060">
        <ele>188.070</ele>
        <time>2020-01-27T19:07:02Z</time>
      </trkpt>
      <trkpt lat="39.672010" lon="2.496350">
        <ele>189.068</ele>
        <time>2020-01-27T19:07:22Z</time>
      </trkpt>
      <trkpt lat="39.672030" lon="2.496490">
        <ele>190.021</ele>
        <time>2020-01-27T19:07:42Z</time>
      </trkpt>
      <trkpt lat="39.672070" lon="2.496610">
        <ele>190.095</ele>
        <time>2020-01-27T19:08:02Z</time>
      </trkpt>
      <trkpt lat="39.672150" lon="2.496760">
        <ele>191.049</ele>
        <time>2020-01-27T19:08:22Z</time>
      </trkpt>
      <trkpt lat="39.672170" lon="2.496860">
        <ele>192.023</ele>
        <time>2020-01-27T19:08:42Z</time>
      </trkpt>
      <trkpt lat="39.672130" lon="2.497190">
        <ele>193.008</ele>
        <time>2020-01-27T19:09:02Z</time>
      </trkpt>
      <trkpt lat="39.672130" lon="2.497420">
        <ele>194.043</ele>
        <time>2020-01-27T19:09:22Z</time>
      </trkpt>
      <trkpt lat="39.672150" lon="2.497590">
        <ele>194.084</ele>
        <time>2020-01-27T19:09:42Z</time>
      </trkpt>
      <trkpt lat="39.672190" lon="2.497710">
        <ele>193.048</ele>
        <time>2020-01-27T19:10:02Z</time>
      </trkpt>
      <trkpt lat="39.672270" lon="2.497790">
        <ele>193.025</ele>
        <time>2020-01-27T19:10:22Z</time>
      </trkpt>
      <trkpt lat="39.672410" lon="2.497820">
        <ele>191.080</ele>
        <time>2020-01-27T19:10:42Z</time>
      </trkpt>
      <trkpt lat="39.672590" lon="2.497740">
        <ele>190.066</ele>
        <time>2020-01-27T19:11:02Z</time>
      </trkpt>
      <trkpt lat="39.673870" lon="2.496900">
        <ele>177.024</ele>
        <time>2020-01-27T19:11:22Z</time>
      </trkpt>
      <trkpt lat="39.674440" lon="2.496310">
        <ele>182.067</ele>
        <time>2020-01-27T19:11:42Z</time>
      </trkpt>
      <trkpt lat="39.674530" lon="2.496250">
        <ele>182.073</ele>
        <time>2020-01-27T19:12:02Z</time>
      </trkpt>
      <trkpt lat="39.674620" lon="2.496250">
        <ele>183.085</ele>
        <time>2020-01-27T19:12:22Z</time>
      </trkpt>
      <trkpt lat="39.674700" lon="2.496280">
        <ele>184.013</ele>
        <time>2020-01-27T19:12:42Z</time>
      </trkpt>
      <trkpt lat="39.674970" lon="2.496450">
        <ele>186.008</ele>
        <time>2020-01-27T19:13:02Z</time>
      </trkpt>
      <trkpt lat="39.675140" lon="2.496460">
        <ele>187.011</ele>
        <time>2020-01-27T19:13:22Z</time>
      </trkpt>
      <trkpt lat="39.675300" lon="2.496430">
        <ele>188.072</ele>
        <time>2020-01-27T19:13:42Z</time>
      </trkpt>
      <trkpt lat="39.675450" lon="2.496450">
        <ele>189.016</ele>
        <time>2020-01-27T19:14:02Z</time>
      </trkpt>
      <trkpt lat="39.676260" lon="2.496720">
        <ele>196.073</ele>
        <time>2020-01-27T19:14:22Z</time>
      </trkpt>
      <trkpt lat="39.676640" lon="2.496890">
        <ele>199.088</ele>
        <time>2020-01-27T19:14:42Z</time>
      </trkpt>
      <trkpt lat="39.676790" lon="2.496970">
        <ele>201.094</ele>
        <time>2020-01-27T19:15:02Z</time>
      </trkpt>
      <trkpt lat="39.676910" lon="2.497090">
        <ele>202.092</ele>
        <time>2020-01-27T19:15:22Z</time>
      </trkpt>
      <trkpt lat="39.677090" lon="2.497360">
        <ele>204.055</ele>
        <time>2020-01-27T19:15:42Z</time>
      </trkpt>
      <trkpt lat="39.677240" lon="2.497640">
        <ele>207.033</ele>
        <time>2020-01-27T19:16:02Z</time>
      </trkpt>
      <trkpt lat="39.677350" lon="2.497730">
        <ele>208.023</ele>
        <time>2020-01-27T19:16:22Z</time>
      </trkpt>
      <trkpt lat="39.677520" lon="2.497790">
        <ele>208.015</ele>
        <time>2020-01-27T19:16:42Z</time>
      </trkpt>
      <trkpt lat="39.677790" lon="2.497950">
        <ele>205.008</ele>
        <time>2020-01-27T19:17:02Z</time>
      </trkpt>
      <trkpt lat="39.677970" lon="2.498100">
        <ele>204.027</ele>
        <time>2020-01-27T19:17:22Z</time>
      </trkpt>
      <trkpt lat="39.678340" lon="2.498470">
        <ele>200.098</ele>
        <time>2020-01-27T19:17:42Z</time>
      </trkpt>
      <trkpt lat="39.678510" lon="2.498600">
        <ele>198.012</ele>
        <time>2020-01-27T19:18:02Z</time>
      </trkpt>
      <trkpt lat="39.678730" lon="2.498700">
        <ele>196.039</ele>
        <time>2020-01-27T19:18:22Z</time>
      </trkpt>
      <trkpt lat="39.679140" lon="2.498790">
        <ele>193.064</ele>
        <time>2020-01-27T19:18:42Z</time>
      </trkpt>
      <trkpt lat="39.679710" lon="2.498950">
        <ele>188.020</ele>
        <time>2020-01-27T19:19:02Z</time>
      </trkpt>
      <trkpt lat="39.680020" lon="2.498990">
        <ele>185.048</ele>
        <time>2020-01-27T19:19:22Z</time>
      </trkpt>
      <trkpt lat="39.680300" lon="2.499090">
        <ele>183.041</ele>
        <time>2020-01-27T19:19:42Z</time>
      </trkpt>
      <trkpt lat="39.680700" lon="2.499390">
        <ele>179.011</ele>
        <time>2020-01-27T19:20:02Z</time>
      </trkpt>
      <trkpt lat="39.680860" lon="2.499480">
        <ele>177.021</ele>
        <time>2020-01-27T19:20:22Z</time>
      </trkpt>
      <trkpt lat="39.681090" lon="2.499490">
        <ele>175.003</ele>
        <time>2020-01-27T19:20:42Z</time>
      </trkpt>
      <trkpt lat="39.681210" lon="2.499430">
        <ele>174.008</ele>
        <time>2020-01-27T19:21:02Z</time>
      </trkpt>
      <trkpt lat="39.681320" lon="2.499420">
        <ele>174.075</ele>
        <time>2020-01-27T19:21:22Z</time>
      </trkpt>
      <trkpt lat="39.681470" lon="2.499470">
        <ele>173.046</ele>
        <time>2020-01-27T19:21:42Z</time>
      </trkpt>
      <trkpt lat="39.681810" lon="2.499760">
        <ele>171.090</ele>
        <time>2020-01-27T19:22:02Z</time>
      </trkpt>
      <trkpt lat="39.682380" lon="2.500190">
        <ele>167.037</ele>
        <time>2020-01-27T19:22:22Z</time>
      </trkpt>
      <trkpt lat="39.682900" lon="2.500400">
        <ele>164.052</ele>
        <time>2020-01-27T19:22:42Z</time>
      </trkpt>
      <trkpt lat="39.683030" lon="2.500510">
        <ele>163.048</ele>
        <time>2020-01-27T19:23:02Z</time>
      </trkpt>
      <trkpt lat="39.683240" lon="2.500580">
        <ele>163.076</ele>
        <time>2020-01-27T19:23:22Z</time>
      </trkpt>
      <trkpt lat="39.683560" lon="2.500480">
        <ele>163.089</ele>
        <time>2020-01-27T19:23:42Z</time>
      </trkpt>
      <trkpt lat="39.683710" lon="2.500580">
        <ele>162.048</ele>
        <time>2020-01-27T19:24:02Z</time>
      </trkpt>
      <trkpt lat="39.683760" lon="2.500630">
        <ele>162.061</ele>
        <time>2020-01-27T19:24:22Z</time>
      </trkpt>
      <trkpt lat="39.683910" lon="2.500600">
        <ele>162.017</ele>
        <time>2020-01-27T19:24:42Z</time>
      </trkpt>
      <trkpt lat="39.684020" lon="2.500900">
        <ele>162.008</ele>
        <time>2020-01-27T19:25:02Z</time>
      </trkpt>
      <trkpt lat="39.684520" lon="2.503070">
        <ele>163.018</ele>
        <time>2020-01-27T19:25:22Z</time>
      </trkpt>
      <trkpt lat="39.684690" lon="2.503270">
        <ele>164.089</ele>
        <time>2020-01-27T19:25:42Z</time>
      </trkpt>
      <trkpt lat="39.684870" lon="2.503610">
        <ele>165.013</ele>
        <time>2020-01-27T19:26:02Z</time>
      </trkpt>
      <trkpt lat="39.684750" lon="2.504190">
        <ele>166.030</ele>
        <time>2020-01-27T19:26:22Z</time>
      </trkpt>
      <trkpt lat="39.684570" lon="2.504770">
        <ele>162.085</ele>
        <time>2020-01-27T19:26:42Z</time>
      </trkpt>
      <trkpt lat="39.684230" lon="2.505180">
        <ele>158.021</ele>
        <time>2020-01-27T19:27:02Z</time>
      </trkpt>
      <trkpt lat="39.684190" lon="2.505310">
        <ele>157.029</ele>
        <time>2020-01-27T19:27:22Z</time>
      </trkpt>
      <trkpt lat="39.684160" lon="2.505510">
        <ele>155.082</ele>
        <time>2020-01-27T19:27:42Z</time>
      </trkpt>
      <trkpt lat="39.684160" lon="2.505740">
        <ele>153.096</ele>
        <time>2020-01-27T19:28:02Z</time>
      </trkpt>
      <trkpt lat="39.684200" lon="2.505930">
        <ele>152.031</ele>
        <time>2020-01-27T19:28:22Z</time>
      </trkpt>
      <trkpt lat="39.684320" lon="2.506090">
        <ele>150.024</ele>
        <time>2020-01-27T19:28:42Z</time>
      </trkpt>
      <trkpt lat="39.684440" lon="2.506190">
        <ele>148.008</ele>
        <time>2020-01-27T19:29:02Z</time>
      </trkpt>
      <trkpt lat="39.684630" lon="2.506280">
        <ele>146.033</ele>
        <time>2020-01-27T19:29:22Z</time>
      </trkpt>
      <trkpt lat="39.684760" lon="2.506300">
        <ele>145.014</ele>
        <time>2020-01-27T19:29:42Z</time>
      </trkpt>
      <trkpt lat="39.684830" lon="2.506370">
        <ele>144.018</ele>
        <time>2020-01-27T19:30:02Z</time>
      </trkpt>
      <trkpt lat="39.684970" lon="2.506560">
        <ele>143.015</ele>
        <time>2020-01-27T19:30:22Z</time>
      </trkpt>
      <trkpt lat="39.685280" lon="2.507300">
        <ele>139.060</ele>
        <time>2020-01-27T19:30:42Z</time>
      </trkpt>
      <trkpt lat="39.685390" lon="2.507680">
        <ele>136.066</ele>
        <time>2020-01-27T19:31:02Z</time>
      </trkpt>
      <trkpt lat="39.685430" lon="2.507930">
        <ele>135.084</ele>
        <time>2020-01-27T19:31:22Z</time>
      </trkpt>
      <trkpt lat="39.685500" lon="2.508180">
        <ele>134.037</ele>
        <time>2020-01-27T19:31:42Z</time>
      </trkpt>
      <trkpt lat="39.685620" lon="2.508380">
        <ele>132.022</ele>
        <time>2020-01-27T19:32:02Z</time>
      </trkpt>
      <trkpt lat="39.685820" lon="2.508600">
        <ele>131.062</ele>
        <time>2020-01-27T19:32:22Z</time>
      </trkpt>
      <trkpt lat="39.685980" lon="2.508810">
        <ele>130.008</ele>
        <time>2020-01-27T19:32:42Z</time>
      </trkpt>
      <trkpt lat="39.686040" lon="2.508950">
        <ele>130.008</ele>
        <time>2020-01-27T19:33:02Z</time>
      </trkpt>
      <trkpt lat="39.686070" lon="2.509050">
        <ele>130.046</ele>
        <time>2020-01-27T19:33:22Z</time>
      </trkpt>
      <trkpt lat="39.686080" lon="2.509130">
        <ele>130.017</ele>
        <time>2020-01-27T19:33:42Z</time>
      </trkpt>
      <trkpt lat="39.685960" lon="2.509390">
        <ele>129.091</ele>
        <time>2020-01-27T19:34:02Z</time>
      </trkpt>
      <trkpt lat="39.685960" lon="2.509500">
        <ele>129.068</ele>
        <time>2020-01-27T19:34:22Z</time>
      </trkpt>
      <trkpt lat="39.686100" lon="2.509870">
        <ele>128.073</ele>
        <time>2020-01-27T19:34:42Z</time>
      </trkpt>
      <trkpt lat="39.686200" lon="2.510030">
        <ele>127.049</ele>
        <time>2020-01-27T19:35:02Z</time>
      </trkpt>
      <trkpt lat="39.686260" lon="2.510100">
        <ele>127.057</ele>
        <time>2020-01-27T19:35:22Z</time>
      </trkpt>
      <trkpt lat="39.686370" lon="2.510210">
        <ele>127.020</ele>
        <time>2020-01-27T19:35:42Z</time>
      </trkpt>
      <trkpt lat="39.686450" lon="2.510240">
        <ele>126.086</ele>
        <time>2020-01-27T19:36:02Z</time>
      </trkpt>
      <trkpt lat="39.686580" lon="2.510350">
        <ele>126.060</ele>
        <time>2020-01-27T19:36:22Z</time>
      </trkpt>
      <trkpt lat="39.686650" lon="2.510580">
        <ele>125.026</ele>
        <time>2020-01-27T19:36:42Z</time>
      </trkpt>
      <trkpt lat="39.686630" lon="2.510910">
        <ele>123.008</ele>
        <time>2020-01-27T19:37:02Z</time>
      </trkpt>
      <trkpt lat="39.686570" lon="2.511090">
        <ele>123.052</ele>
        <time>2020-01-27T19:37:22Z</time>
      </trkpt>
      <trkpt lat="39.686520" lon="2.511360">
        <ele>121.093</ele>
        <time>2020-01-27T19:37:42Z</time>
      </trkpt>
      <trkpt lat="39.686440" lon="2.511570">
        <ele>120.087</ele>
        <time>2020-01-27T19:38:02Z</time>
      </trkpt>
      <trkpt lat="39.686270" lon="2.511780">
        <ele>118.064</ele>
        <time>2020-01-27T19:38:22Z</time>
      </trkpt>
      <trkpt lat="39.685940" lon="2.511900">
        <ele>116.099</ele>
        <time>2020-01-27T19:38:42Z</time>
      </trkpt>
      <trkpt lat="39.685870" lon="2.511980">
        <ele>116.035</ele>
        <time>2020-01-27T19:39:02Z</time>
      </trkpt>
      <trkpt lat="39.685840" lon="2.512060">
        <ele>115.033</ele>
        <time>2020-01-27T19:39:22Z</time>
      </trkpt>
      <trkpt lat="39.685840" lon="2.512170">
        <ele>115.096</ele>
        <time>2020-01-27T19:39:42Z</time>
      </trkpt>
      <trkpt lat="39.685860" lon="2.512260">
        <ele>114.027</ele>
        <time>2020-01-27T19:40:02Z</time>
      </trkpt>
      <trkpt lat="39.685930" lon="2.512340">
        <ele>114.068</ele>
        <time>2020-01-27T19:40:22Z</time>
      </trkpt>
      <trkpt lat="39.686450" lon="2.512650">
        <ele>112.014</ele>
        <time>2020-01-27T19:40:42Z</time>
      </trkpt>
      <trkpt lat="39.686640" lon="2.512890">
        <ele>112.008</ele>
        <time>2020-01-27T19:41:02Z</time>
      </trkpt>
      <trkpt lat="39.686750" lon="2.512970">
        <ele>111.086</ele>
        <time>2020-01-27T19:41:22Z</time>
      </trkpt>
      <trkpt lat="39.687090" lon="2.513150">
        <ele>111.077</ele>
        <time>2020-01-27T19:41:42Z</time>
      </trkpt>
      <trkpt lat="39.687150" lon="2.513320">
        <ele>111.091</ele>
        <time>2020-01-27T19:42:02Z</time>
      </trkpt>
      <trkpt lat="39.687180" lon="2.513440">
        <ele>110.078</ele>
        <time>2020-01-27T19:42:22Z</time>
      </trkpt>
      <trkpt lat="39.687230" lon="2.513810">
        <ele>110.033</ele>
        <time>2020-01-27T19:42:42Z</time>
      </trkpt>
      <trkpt lat="39.688050" lon="2.515750">
        <ele>111.029</ele>
        <time>2020-01-27T19:43:02Z</time>
      </trkpt>
      <trkpt lat="39.688070" lon="2.515900">
        <ele>111.097</ele>
        <time>2020-01-27T19:43:22Z</time>
      </trkpt>
      <trkpt lat="39.688060" lon="2.515970">
        <ele>111.080</ele>
        <time>2020-01-27T19:43:42Z</time>
      </trkpt>
      <trkpt lat="39.687690" lon="2.517000">
        <ele>112.051</ele>
        <time>2020-01-27T19:44:02Z</time>
      </trkpt>
      <trkpt lat="39.687640" lon="2.517300">
        <ele>112.001</ele>
        <time>2020-01-27T19:44:22Z</time>
      </trkpt>
      <trkpt lat="39.687590" lon="2.517730">
        <ele>113.011</ele>
        <time>2020-01-27T19:44:42Z</time>
      </trkpt>
      <trkpt lat="39.687500" lon="2.517950">
        <ele>113.008</ele>
        <time>2020-01-27T19:45:02Z</time>
      </trkpt>
      <trkpt lat="39.687350" lon="2.518200">
        <ele>114.049</ele>
        <time>2020-01-27T19:45:22Z</time>
      </trkpt>
      <trkpt lat="39.687330" lon="2.518390">
        <ele>114.040</ele>
        <time>2020-01-27T19:45:42Z</time>
      </trkpt>
      <trkpt lat="39.687410" lon="2.518590">
        <ele>114.024</ele>
        <time>2020-01-27T19:46:02Z</time>
      </trkpt>
      <trkpt lat="39.687430" lon="2.518810">
        <ele>114.051</ele>
        <time>2020-01-27T19:46:22Z</time>
      </trkpt>
      <trkpt lat="39.687480" lon="2.519060">
        <ele>115.086</ele>
        <time>2020-01-27T19:46:42Z</time>
      </trkpt>
      <trkpt lat="39.687640" lon="2.519280">
        <ele>117.052</ele>
        <time>2020-01-27T19:47:02Z</time>
      </trkpt>
      <trkpt lat="39.687850" lon="2.519510">
        <ele>119.050</ele>
        <time>2020-01-27T19:47:22Z</time>
      </trkpt>
      <trkpt lat="39.687870" lon="2.519600">
        <ele>119.083</ele>
        <time>2020-01-27T19:47:42Z</time>
      </trkpt>
      <trkpt lat="39.687780" lon="2.519840">
        <ele>121.091</ele>
        <time>2020-01-27T19:48:02Z</time>
      </trkpt>
      <trkpt lat="39.687640" lon="2.520110">
        <ele>122.081</ele>
        <time>2020-01-27T19:48:22Z</time>
      </trkpt>
      <trkpt lat="39.687550" lon="2.520190">
        <ele>123.019</ele>
        <time>2020-01-27T19:48:42Z</time>
      </trkpt>
      <trkpt lat="39.687430" lon="2.520220">
        <ele>124.008</ele>
        <time>2020-01-27T19:49:02Z</time>
      </trkpt>
      <trkpt lat="39.687260" lon="2.520350">
        <ele>126.023</ele>
        <time>2020-01-27T19:49:22Z</time>
      </trkpt>
      <trkpt lat="39.687130" lon="2.520510">
        <ele>127.034</ele>
        <time>2020-01-27T19:49:42Z</time>
      </trkpt>
      <trkpt lat="39.687020" lon="2.520710">
        <ele>128.058</ele>
        <time>2020-01-27T19:50:02Z</time>
      </trkpt>
      <trkpt lat="39.686930" lon="2.521050">
        <ele>130.045</ele>
        <time>2020-01-27T19:50:22Z</time>
      </trkpt>
      <trkpt lat="39.686940" lon="2.521220">
        <ele>131.020</ele>
        <time>2020-01-27T19:50:42Z</time>
      </trkpt>
      <trkpt lat="39.687030" lon="2.521370">
        <ele>131.036</ele>
        <time>2020-01-27T19:51:02Z</time>
      </trkpt>
      <trkpt lat="39.687250" lon="2.521560">
        <ele>133.064</ele>
        <time>2020-01-27T19:51:22Z</time>
      </trkpt>
      <trkpt lat="39.687860" lon="2.522000">
        <ele>136.097</ele>
        <time>2020-01-27T19:51:42Z</time>
      </trkpt>
      <trkpt lat="39.687990" lon="2.522160">
        <ele>137.018</ele>
        <time>2020-01-27T19:52:02Z</time>
      </trkpt>
      <trkpt lat="39.688160" lon="2.522490">
        <ele>139.098</ele>
        <time>2020-01-27T19:52:22Z</time>
      </trkpt>
      <trkpt lat="39.688200" lon="2.522640">
        <ele>139.017</ele>
        <time>2020-01-27T19:52:42Z</time>
      </trkpt>
      <trkpt lat="39.688220" lon="2.522850">
        <ele>140.008</ele>
        <time>2020-01-27T19:53:02Z</time>
      </trkpt>
      <trkpt lat="39.688190" lon="2.523040">
        <ele>141.025</ele>
        <time>2020-01-27T19:53:22Z</time>
      </trkpt>
      <trkpt lat="39.687920" lon="2.523900">
        <ele>146.026</ele>
        <time>2020-01-27T19:53:42Z</time>
      </trkpt>
      <trkpt lat="39.687860" lon="2.524220">
        <ele>148.010</ele>
        <time>2020-01-27T19:54:02Z</time>
      </trkpt>
      <trkpt lat="39.687890" lon="2.524350">
        <ele>149.057</ele>
        <time>2020-01-27T19:54:22Z</time>
      </trkpt>
      <trkpt lat="39.687960" lon="2.524430">
        <ele>149.042</ele>
        <time>2020-01-27T19:54:42Z</time>
      </trkpt>
      <trkpt lat="39.688080" lon="2.524430">
        <ele>150.038</ele>
        <time>2020-01-27T19:55:02Z</time>
      </trkpt>
      <trkpt lat="39.688200" lon="2.524380">
        <ele>151.046</ele>
        <time>2020-01-27T19:55:22Z</time>
      </trkpt>
      <trkpt lat="39.688670" lon="2.524010">
        <ele>154.059</ele>
        <time>2020-01-27T19:55:42Z</time>
      </trkpt>
      <trkpt lat="39.688770" lon="2.523950">
        <ele>154.042</ele>
        <time>2020-01-27T19:56:02Z</time>
      </trkpt>
      <trkpt lat="39.688880" lon="2.523960">
        <ele>154.022</ele>
        <time>2020-01-27T19:56:22Z</time>
      </trkpt>
      <trkpt lat="39.689230" lon="2.524150">
        <ele>154.014</ele>
        <time>2020-01-27T19:56:42Z</time>
      </trkpt>
      <trkpt lat="39.689330" lon="2.524160">
        <ele>154.008</ele>
        <time>2020-01-27T19:57:02Z</time>
      </trkpt>
      <trkpt lat="39.689380" lon="2.524130">
        <ele>154.088</ele>
        <time>2020-01-27T19:57:22Z</time>
      </trkpt>
      <trkpt lat="39.689440" lon="2.524050">
        <ele>155.069</ele>
        <time>2020-01-27T19:57:42Z</time>
      </trkpt>
      <trkpt lat="39.689470" lon="2.523910">
        <ele>155.053</ele>
        <time>2020-01-27T19:58:02Z</time>
      </trkpt>
      <trkpt lat="39.689480" lon="2.522890">
        <ele>155.060</ele>
        <time>2020-01-27T19:58:22Z</time>
      </trkpt>
      <trkpt lat="39.689540" lon="2.522300">
        <ele>160.015</ele>
        <time>2020-01-27T19:58:42Z</time>
      </trkpt>
      <trkpt lat="39.689600" lon="2.521960">
        <ele>164.091</ele>
        <time>2020-01-27T19:59:02Z</time>
      </trkpt>
      <trkpt lat="39.689660" lon="2.521690">
        <ele>167.059</ele>
        <time>2020-01-27T19:59:22Z</time>
      </trkpt>
      <trkpt lat="39.689730" lon="2.521550">
        <ele>168.042</ele>
        <time>2020-01-27T19:59:42Z</time>
      </trkpt>
      <trkpt lat="39.689830" lon="2.521490">
        <ele>170.036</ele>
        <time>2020-01-27T20:00:02Z</time>
      </trkpt>
      <trkpt lat="39.689910" lon="2.521510">
        <ele>171.017</ele>
        <time>2020-01-27T20:00:22Z</time>
      </trkpt>
      <trkpt lat="39.689990" lon="2.521590">
        <ele>172.018</ele>
        <time>2020-01-27T20:00:42Z</time>
      </trkpt>
      <trkpt lat="39.690020" lon="2.521720">
        <ele>174.008</ele>
        <time>2020-01-27T20:01:02Z</time>
      </trkpt>
      <trkpt lat="39.690010" lon="2.521950">
        <ele>176.057</ele>
        <time>2020-01-27T20:01:22Z</time>
      </trkpt>
      <trkpt lat="39.689960" lon="2.522840">
        <ele>185.098</ele>
        <time>2020-01-27T20:01:42Z</time>
      </trkpt>
      <trkpt lat="39.689960" lon="2.523150">
        <ele>189.062</ele>
        <time>2020-01-27T20:02:02Z</time>
      </trkpt>
      <trkpt lat="39.690010" lon="2.523660">
        <ele>195.049</ele>
        <time>2020-01-27T20:02:22Z</time>
      </trkpt>
      <trkpt lat="39.690070" lon="2.524150">
        <ele>200.094</ele>
        <time>2020-01-27T20:02:42Z</time>
      </trkpt>
      <trkpt lat="39.690210" lon="2.524530">
        <ele>205.040</ele>
        <time>2020-01-27T20:03:02Z</time>
      </trkpt>
      <trkpt lat="39.690470" lon="2.524860">
        <ele>211.078</ele>
        <time>2020-01-27T20:03:22Z</time>
      </trkpt>
      <trkpt lat="39.690560" lon="2.525020">
        <ele>213.041</ele>
        <time>2020-01-27T20:03:42Z</time>
      </trkpt>
      <trkpt lat="39.690630" lon="2.525180">
        <ele>213.093</ele>
        <time>2020-01-27T20:04:02Z</time>
      </trkpt>
      <trkpt lat="39.690650" lon="2.525460">
        <ele>215.065</ele>
        <time>2020-01-27T20:04:22Z</time>
      </trkpt>
      <trkpt lat="39.690640" lon="2.525770">
        <ele>216.021</ele>
        <time>2020-01-27T20:04:42Z</time>
      </trkpt>
      <trkpt lat="39.690590" lon="2.526050">
        <ele>217.008</ele>
        <time>2020-01-27T20:05:02Z</time>
      </trkpt>
      <trkpt lat="39.690520" lon="2.526270">
        <ele>219.093</ele>
        <time>2020-01-27T20:05:22Z</time>
      </trkpt>
      <trkpt lat="39.690390" lon="2.526500">
        <ele>220.094</ele>
        <time>2020-01-27T20:05:42Z</time>
      </trkpt>
      <trkpt lat="39.690350" lon="2.526640">
        <ele>221.088</ele>
        <time>2020-01-27T20:06:02Z</time>
      </trkpt>
      <trkpt lat="39.690330" lon="2.526770">
        <ele>221.075</ele>
        <time>2020-01-27T20:06:22Z</time>
      </trkpt>
      <trkpt lat="39.690360" lon="2.526900">
        <ele>222.070</ele>
        <time>2020-01-27T20:06:42Z</time>
      </trkpt>
      <trkpt lat="39.690400" lon="2.527000">
        <ele>222.056</ele>
        <time>2020-01-27T20:07:02Z</time>
      </trkpt>
      <trkpt lat="39.690540" lon="2.527120">
        <ele>223.034</ele>
        <time>2020-01-27T20:07:22Z</time>
      </trkpt>
      <trkpt lat="39.690870" lon="2.527300">
        <ele>225.097</ele>
        <time>2020-01-27T20:07:42Z</time>
      </trkpt>
      <trkpt lat="39.690920" lon="2.527420">
        <ele>226.094</ele>
        <time>2020-01-27T20:08:02Z</time>
      </trkpt>
      <trkpt lat="39.690940" lon="2.527550">
        <ele>226.057</ele>
        <time>2020-01-27T20:08:22Z</time>
      </trkpt>
      <trkpt lat="39.690880" lon="2.527700">
        <ele>227.022</ele>
        <time>2020-01-27T20:08:42Z</time>
      </trkpt>
      <trkpt lat="39.690800" lon="2.527770">
        <ele>228.008</ele>
        <time>2020-01-27T20:09:02Z</time>
      </trkpt>
      <trkpt lat="39.690710" lon="2.527780">
        <ele>228.083</ele>
        <time>2020-01-27T20:09:22Z</time>
      </trkpt>
      <trkpt lat="39.690570" lon="2.527740">
        <ele>229.094</ele>
        <time>2020-01-27T20:09:42Z</time>
      </trkpt>
      <trkpt lat="39.690090" lon="2.527440">
        <ele>232.018</ele>
        <time>2020-01-27T20:10:02Z</time>
      </trkpt>
      <trkpt lat="39.689910" lon="2.527330">
        <ele>233.045</ele>
        <time>2020-01-27T20:10:22Z</time>
      </trkpt>
      <trkpt lat="39.689760" lon="2.527270">
        <ele>234.060</ele>
        <time>2020-01-27T20:10:42Z</time>
      </trkpt>
      <trkpt lat="39.689610" lon="2.527320">
        <ele>235.086</ele>
        <time>2020-01-27T20:11:02Z</time>
      </trkpt>
      <trkpt lat="39.689540" lon="2.527410">
        <ele>235.044</ele>
        <time>2020-01-27T20:11:22Z</time>
      </trkpt>
      <trkpt lat="39.689520" lon="2.527560">
        <ele>236.027</ele>
        <time>2020-01-27T20:11:42Z</time>
      </trkpt>
      <trkpt lat="39.689550" lon="2.527720">
        <ele>237.083</ele>
        <time>2020-01-27T20:12:02Z</time>
      </trkpt>
      <trkpt lat="39.689660" lon="2.527920">
        <ele>238.025</ele>
        <time>2020-01-27T20:12:22Z</time>
      </trkpt>
      <trkpt lat="39.689830" lon="2.528100">
        <ele>240.017</ele>
        <time>2020-01-27T20:12:42Z</time>
      </trkpt>
      <trkpt lat="39.690040" lon="2.528200">
        <ele>242.008</ele>
        <time>2020-01-27T20:13:02Z</time>
      </trkpt>
      <trkpt lat="39.690280" lon="2.528290">
        <ele>244.052</ele>
        <time>2020-01-27T20:13:22Z</time>
      </trkpt>
      <trkpt lat="39.690410" lon="2.528390">
        <ele>245.093</ele>
        <time>2020-01-27T20:13:42Z</time>
      </trkpt>
      <trkpt lat="39.690670" lon="2.528660">
        <ele>248.097</ele>
        <time>2020-01-27T20:14:02Z</time>
      </trkpt>
      <trkpt lat="39.690850" lon="2.528740">
        <ele>249.034</ele>
        <time>2020-01-27T20:14:22Z</time>
      </trkpt>
      <trkpt lat="39.691040" lon="2.528800">
        <ele>251.029</ele>
        <time>2020-01-27T20:14:42Z</time>
      </trkpt>
      <trkpt lat="39.691130" lon="2.528860">
        <ele>252.035</ele>
        <time>2020-01-27T20:15:02Z</time>
      </trkpt>
      <trkpt lat="39.691180" lon="2.528960">
        <ele>252.073</ele>
        <time>2020-01-27T20:15:22Z</time>
      </trkpt>
      <trkpt lat="39.691190" lon="2.529100">
        <ele>253.056</ele>
        <time>2020-01-27T20:15:42Z</time>
      </trkpt>
      <trkpt lat="39.691140" lon="2.529220">
        <ele>254.096</ele>
        <time>2020-01-27T20:16:02Z</time>
      </trkpt>
      <trkpt lat="39.691070" lon="2.529290">
        <ele>255.031</ele>
        <time>2020-01-27T20:16:22Z</time>
      </trkpt>
      <trkpt lat="39.690940" lon="2.529290">
        <ele>256.024</ele>
        <time>2020-01-27T20:16:42Z</time>
      </trkpt>
      <trkpt lat="39.689930" lon="2.528920">
        <ele>265.008</ele>
        <time>2020-01-27T20:17:02Z</time>
      </trkpt>
      <trkpt lat="39.689790" lon="2.528890">
        <ele>266.053</ele>
        <time>2020-01-27T20:17:22Z</time>
      </trkpt>
      <trkpt lat="39.689670" lon="2.529000">
        <ele>267.044</ele>
        <time>2020-01-27T20:17:42Z</time>
      </trkpt>
      <trkpt lat="39.689600" lon="2.529150">
        <ele>268.088</ele>
        <time>2020-01-27T20:18:02Z</time>
      </trkpt>
      <trkpt lat="39.689590" lon="2.529290">
        <ele>269.035</ele>
        <time>2020-01-27T20:18:22Z</time>
      </trkpt>
      <trkpt lat="39.689670" lon="2.529440">
        <ele>270.070</ele>
        <time>2020-01-27T20:18:42Z</time>
      </trkpt>
      <trkpt lat="39.689790" lon="2.529500">
        <ele>271.086</ele>
        <time>2020-01-27T20:19:02Z</time>
      </trkpt>
      <trkpt lat="39.689990" lon="2.529450">
        <ele>273.084</ele>
        <time>2020-01-27T20:19:22Z</time>
      </trkpt>
      <trkpt lat="39.690120" lon="2.529450">
        <ele>274.097</ele>
        <time>2020-01-27T20:19:42Z</time>
      </trkpt>
      <trkpt lat="39.690210" lon="2.529500">
        <ele>275.055</ele>
        <time>2020-01-27T20:20:02Z</time>
      </trkpt>
      <trkpt lat="39.690360" lon="2.529680">
        <ele>276.007</ele>
        <time>2020-01-27T20:20:22Z</time>
      </trkpt>
      <trkpt lat="39.690870" lon="2.530500">
        <ele>283.017</ele>
        <time>2020-01-27T20:20:42Z</time>
      </trkpt>
      <trkpt lat="39.691040" lon="2.530720">
        <ele>285.008</ele>
        <time>2020-01-27T20:21:02Z</time>
      </trkpt>
      <trkpt lat="39.691230" lon="2.530870">
        <ele>286.099</ele>
        <time>2020-01-27T20:21:22Z</time>
      </trkpt>
      <trkpt lat="39.691340" lon="2.530900">
        <ele>287.090</ele>
        <time>2020-01-27T20:21:42Z</time>
      </trkpt>
      <trkpt lat="39.691470" lon="2.530910">
        <ele>288.084</ele>
        <time>2020-01-27T20:22:02Z</time>
      </trkpt>
      <trkpt lat="39.691610" lon="2.530870">
        <ele>289.081</ele>
        <time>2020-01-27T20:22:22Z</time>
      </trkpt>
      <trkpt lat="39.691730" lon="2.530760">
        <ele>290.026</ele>
        <time>2020-01-27T20:22:42Z</time>
      </trkpt>
      <trkpt lat="39.691930" lon="2.530620">
        <ele>292.032</ele>
        <time>2020-01-27T20:23:02Z</time>
      </trkpt>
      <trkpt lat="39.692130" lon="2.530540">
        <ele>293.020</ele>
        <time>2020-01-27T20:23:22Z</time>
      </trkpt>
      <trkpt lat="39.692410" lon="2.530380">
        <ele>296.093</ele>
        <time>2020-01-27T20:23:42Z</time>
      </trkpt>
      <trkpt lat="39.692560" lon="2.530380">
        <ele>297.099</ele>
        <time>2020-01-27T20:24:02Z</time>
      </trkpt>
      <trkpt lat="39.692670" lon="2.530450">
        <ele>298.007</ele>
        <time>2020-01-27T20:24:22Z</time>
      </trkpt>
      <trkpt lat="39.692720" lon="2.530590">
        <ele>299.027</ele>
        <time>2020-01-27T20:24:42Z</time>
      </trkpt>
      <trkpt lat="39.692720" lon="2.530740">
        <ele>299.008</ele>
        <time>2020-01-27T20:25:02Z</time>
      </trkpt>
      <trkpt lat="39.692670" lon="2.530850">
        <ele>299.023</ele>
        <time>2020-01-27T20:25:22Z</time>
      </trkpt>
      <trkpt lat="39.692200" lon="2.531170">
        <ele>299.074</ele>
        <time>2020-01-27T20:25:42Z</time>
      </trkpt>
      <trkpt lat="39.692000" lon="2.531390">
        <ele>299.068</ele>
        <time>2020-01-27T20:26:02Z</time>
      </trkpt>
      <trkpt lat="39.690270" lon="2.533360">
        <ele>292.015</ele>
        <time>2020-01-27T20:26:22Z</time>
      </trkpt>
      <trkpt lat="39.689150" lon="2.534610">
        <ele>284.070</ele>
        <time>2020-01-27T20:26:42Z</time>
      </trkpt>
      <trkpt lat="39.689080" lon="2.534800">
        <ele>283.096</ele>
        <time>2020-01-27T20:27:02Z</time>
      </trkpt>
      <trkpt lat="39.689000" lon="2.535300">
        <ele>280.054</ele>
        <time>2020-01-27T20:27:22Z</time>
      </trkpt>
      <trkpt lat="39.688970" lon="2.535400">
        <ele>279.067</ele>
        <time>2020-01-27T20:27:42Z</time>
      </trkpt>
      <trkpt lat="39.688790" lon="2.535620">
        <ele>278.057</ele>
        <time>2020-01-27T20:28:02Z</time>
      </trkpt>
      <trkpt lat="39.688530" lon="2.535860">
        <ele>275.000</ele>
        <time>2020-01-27T20:28:22Z</time>
      </trkpt>
      <trkpt lat="39.687840" lon="2.536320">
        <ele>277.020</ele>
        <time>2020-01-27T20:28:42Z</time>
      </trkpt>
      <trkpt lat="39.687690" lon="2.536390">
        <ele>278.008</ele>
        <time>2020-01-27T20:29:02Z</time>
      </trkpt>
      <trkpt lat="39.687560" lon="2.536390">
        <ele>279.069</ele>
        <time>2020-01-27T20:29:22Z</time>
      </trkpt>
      <trkpt lat="39.687430" lon="2.536360">
        <ele>280.050</ele>
        <time>2020-01-27T20:29:42Z</time>
      </trkpt>
      <trkpt lat="39.687260" lon="2.536260">
        <ele>281.064</ele>
        <time>2020-01-27T20:30:02Z</time>
      </trkpt>
      <trkpt lat="39.687040" lon="2.536170">
        <ele>283.011</ele>
        <time>2020-01-27T20:30:22Z</time>
      </trkpt>
      <trkpt lat="39.686810" lon="2.536130">
        <ele>285.026</ele>
        <time>2020-01-27T20:30:42Z</time>
      </trkpt>
      <trkpt lat="39.686600" lon="2.536140">
        <ele>286.052</ele>
        <time>2020-01-27T20:31:02Z</time>
      </trkpt>
      <trkpt lat="39.686390" lon="2.536190">
        <ele>287.090</ele>
        <time>2020-01-27T20:31:22Z</time>
      </trkpt>
      <trkpt lat="39.686280" lon="2.536260">
        <ele>287.043</ele>
        <time>2020-01-27T20:31:42Z</time>
      </trkpt>
      <trkpt lat="39.686180" lon="2.536370">
        <ele>286.028</ele>
        <time>2020-01-27T20:32:02Z</time>
      </trkpt>
      <trkpt lat="39.686160" lon="2.536490">
        <ele>286.089</ele>
        <time>2020-01-27T20:32:22Z</time>
      </trkpt>
      <trkpt lat="39.686160" lon="2.536640">
        <ele>286.017</ele>
        <time>2020-01-27T20:32:42Z</time>
      </trkpt>
      <trkpt lat="39.686200" lon="2.536840">
        <ele>285.008</ele>
        <time>2020-01-27T20:33:02Z</time>
      </trkpt>
      <trkpt lat="39.686280" lon="2.537020">
        <ele>284.096</ele>
        <time>2020-01-27T20:33:22Z</time>
      </trkpt>
      <trkpt lat="39.686420" lon="2.537220">
        <ele>284.037</ele>
        <time>2020-01-27T20:33:42Z</time>
      </trkpt>
      <trkpt lat="39.686530" lon="2.537320">
        <ele>283.021</ele>
        <time>2020-01-27T20:34:02Z</time>
      </trkpt>
      <trkpt lat="39.686580" lon="2.537450">
        <ele>283.028</ele>
        <time>2020-01-27T20:34:22Z</time>
      </trkpt>
      <trkpt lat="39.686590" lon="2.537620">
        <ele>282.013</ele>
        <time>2020-01-27T20:34:42Z</time>
      </trkpt>
      <trkpt lat="39.686600" lon="2.537750">
        <ele>282.099</ele>
        <time>2020-01-27T20:35:02Z</time>
      </trkpt>
      <trkpt lat="39.686560" lon="2.538120">
        <ele>281.087</ele>
        <time>2020-01-27T20:35:22Z</time>
      </trkpt>
      <trkpt lat="39.686480" lon="2.538600">
        <ele>280.020</ele>
        <time>2020-01-27T20:35:42Z</time>
      </trkpt>
      <trkpt lat="39.686470" lon="2.538740">
        <ele>280.081</ele>
        <time>2020-01-27T20:36:02Z</time>
      </trkpt>
      <trkpt lat="39.686620" lon="2.539230">
        <ele>281.061</ele>
        <time>2020-01-27T20:36:22Z</time>
      </trkpt>
      <trkpt lat="39.686630" lon="2.539450">
        <ele>282.017</ele>
        <time>2020-01-27T20:36:42Z</time>
      </trkpt>
      <trkpt lat="39.686600" lon="2.539580">
        <ele>282.008</ele>
        <time>2020-01-27T20:37:02Z</time>
      </trkpt>
      <trkpt lat="39.686510" lon="2.539670">
        <ele>283.082</ele>
        <time>2020-01-27T20:37:22Z</time>
      </trkpt>
      <trkpt lat="39.686430" lon="2.539690">
        <ele>283.043</ele>
        <time>2020-01-27T20:37:42Z</time>
      </trkpt>
      <trkpt lat="39.686130" lon="2.539690">
        <ele>284.027</ele>
        <time>2020-01-27T20:38:02Z</time>
      </trkpt>
      <trkpt lat="39.685970" lon="2.539720">
        <ele>284.064</ele>
        <time>2020-01-27T20:38:22Z</time>
      </trkpt>
      <trkpt lat="39.685840" lon="2.539770">
        <ele>285.069</ele>
        <time>2020-01-27T20:38:42Z</time>
      </trkpt>
      <trkpt lat="39.685260" lon="2.540190">
        <ele>286.055</ele>
        <time>2020-01-27T20:39:02Z</time>
      </trkpt>
      <trkpt lat="39.685060" lon="2.540270">
        <ele>287.033</ele>
        <time>2020-01-27T20:39:22Z</time>
      </trkpt>
      <trkpt lat="39.684850" lon="2.540280">
        <ele>288.076</ele>
        <time>2020-01-27T20:39:42Z</time>
      </trkpt>
      <trkpt lat="39.684730" lon="2.540240">
        <ele>288.093</ele>
        <time>2020-01-27T20:40:02Z</time>
      </trkpt>
      <trkpt lat="39.684620" lon="2.540170">
        <ele>288.065</ele>
        <time>2020-01-27T20:40:22Z</time>
      </trkpt>
      <trkpt lat="39.684260" lon="2.539810">
        <ele>290.021</ele>
        <time>2020-01-27T20:40:42Z</time>
      </trkpt>
      <trkpt lat="39.684150" lon="2.539790">
        <ele>290.008</ele>
        <time>2020-01-27T20:41:02Z</time>
      </trkpt>
      <trkpt lat="39.684040" lon="2.539830">
        <ele>290.083</ele>
        <time>2020-01-27T20:41:22Z</time>
      </trkpt>
      <trkpt lat="39.683960" lon="2.539910">
        <ele>291.084</ele>
        <time>2020-01-27T20:41:42Z</time>
      </trkpt>
      <trkpt lat="39.683940" lon="2.540040">
        <ele>291.078</ele>
        <time>2020-01-27T20:42:02Z</time>
      </trkpt>
      <trkpt lat="39.683980" lon="2.540370">
        <ele>292.025</ele>
        <time>2020-01-27T20:42:22Z</time>
      </trkpt>
      <trkpt lat="39.683990" lon="2.540700">
        <ele>293.090</ele>
        <time>2020-01-27T20:42:42Z</time>
      </trkpt>
      <trkpt lat="39.683930" lon="2.541010">
        <ele>294.096</ele>
        <time>2020-01-27T20:43:02Z</time>
      </trkpt>
      <trkpt lat="39.683830" lon="2.541320">
        <ele>296.024</ele>
        <time>2020-01-27T20:43:22Z</time>
      </trkpt>
      <trkpt lat="39.683700" lon="2.541620">
        <ele>297.027</ele>
        <time>2020-01-27T20:43:42Z</time>
      </trkpt>
      <trkpt lat="39.683650" lon="2.541650">
        <ele>297.059</ele>
        <time>2020-01-27T20:44:02Z</time>
      </trkpt>
      <trkpt lat="39.683210" lon="2.541760">
        <ele>300.003</ele>
        <time>2020-01-27T20:44:22Z</time>
      </trkpt>
      <trkpt lat="39.683130" lon="2.541800">
        <ele>300.023</ele>
        <time>2020-01-27T20:44:42Z</time>
      </trkpt>
      <trkpt lat="39.683070" lon="2.541890">
        <ele>300.008</ele>
        <time>2020-01-27T20:45:02Z</time>
      </trkpt>
      <trkpt lat="39.683040" lon="2.542030">
        <ele>301.029</ele>
        <time>2020-01-27T20:45:22Z</time>
      </trkpt>
      <trkpt lat="39.683020" lon="2.542220">
        <ele>301.050</ele>
        <time>2020-01-27T20:45:42Z</time>
      </trkpt>
      <trkpt lat="39.683080" lon="2.542700">
        <ele>300.034</ele>
        <time>2020-01-27T20:46:02Z</time>
      </trkpt>
      <trkpt lat="39.683130" lon="2.542840">
        <ele>300.021</ele>
        <time>2020-01-27T20:46:22Z</time>
      </trkpt>
      <trkpt lat="39.683210" lon="2.542950">
        <ele>299.056</ele>
        <time>2020-01-27T20:46:42Z</time>
      </trkpt>
      <trkpt lat="39.683330" lon="2.542990">
        <ele>299.052</ele>
        <time>2020-01-27T20:47:02Z</time>
      </trkpt>
      <trkpt lat="39.683730" lon="2.542950">
        <ele>297.040</ele>
        <time>2020-01-27T20:47:22Z</time>
      </trkpt>
      <trkpt lat="39.684100" lon="2.542880">
        <ele>296.093</ele>
        <time>2020-01-27T20:47:42Z</time>
      </trkpt>
      <trkpt lat="39.684440" lon="2.542750">
        <ele>295.036</ele>
        <time>2020-01-27T20:48:02Z</time>
      </trkpt>
      <trkpt lat="39.684540" lon="2.542750">
        <ele>295.017</ele>
        <time>2020-01-27T20:48:22Z</time>
      </trkpt>
      <trkpt lat="39.684610" lon="2.542810">
        <ele>294.018</ele>
        <time>2020-01-27T20:48:42Z</time>
      </trkpt>
      <trkpt lat="39.684670" lon="2.542890">
        <ele>294.008</ele>
        <time>2020-01-27T20:49:02Z</time>
      </trkpt>
      <trkpt lat="39.684740" lon="2.543070">
        <ele>294.047</ele>
        <time>2020-01-27T20:49:22Z</time>
      </trkpt>
      <trkpt lat="39.684760" lon="2.543280">
        <ele>294.038</ele>
        <time>2020-01-27T20:49:42Z</time>
      </trkpt>
      <trkpt lat="39.684750" lon="2.543580">
        <ele>294.032</ele>
        <time>2020-01-27T20:50:02Z</time>
      </trkpt>
      <trkpt lat="39.684720" lon="2.544090">
        <ele>294.059</ele>
        <time>2020-01-27T20:50:22Z</time>
      </trkpt>
      <trkpt lat="39.684730" lon="2.544220">
        <ele>294.014</ele>
        <time>2020-01-27T20:50:42Z</time>
      </trkpt>
      <trkpt lat="39.684770" lon="2.544320">
        <ele>294.010</ele>
        <time>2020-01-27T20:51:02Z</time>
      </trkpt>
      <trkpt lat="39.685020" lon="2.544720">
        <ele>294.038</ele>
        <time>2020-01-27T20:51:22Z</time>
      </trkpt>
      <trkpt lat="39.685100" lon="2.544910">
        <ele>294.081</ele>
        <time>2020-01-27T20:51:42Z</time>
      </trkpt>
      <trkpt lat="39.685110" lon="2.545020">
        <ele>294.036</ele>
        <time>2020-01-27T20:52:02Z</time>
      </trkpt>
      <trkpt lat="39.685090" lon="2.545170">
        <ele>294.017</ele>
        <time>2020-01-27T20:52:22Z</time>
      </trkpt>
      <trkpt lat="39.685050" lon="2.545350">
        <ele>295.018</ele>
        <time>2020-01-27T20:52:42Z</time>
      </trkpt>
      <trkpt lat="39.684990" lon="2.545510">
        <ele>296.008</ele>
        <time>2020-01-27T20:53:02Z</time>
      </trkpt>
      <trkpt lat="39.684800" lon="2.545780">
        <ele>298.067</ele>
        <time>2020-01-27T20:53:22Z</time>
      </trkpt>
      <trkpt lat="39.684590" lon="2.545940">
        <ele>300.028</ele>
        <time>2020-01-27T20:53:42Z</time>
      </trkpt>
      <trkpt lat="39.683860" lon="2.546280">
        <ele>307.012</ele>
        <time>2020-01-27T20:54:02Z</time>
      </trkpt>
      <trkpt lat="39.683760" lon="2.546350">
        <ele>308.079</ele>
        <time>2020-01-27T20:54:22Z</time>
      </trkpt>
      <trkpt lat="39.683640" lon="2.546480">
        <ele>309.094</ele>
        <time>2020-01-27T20:54:42Z</time>
      </trkpt>
      <trkpt lat="39.683470" lon="2.546880">
        <ele>312.070</ele>
        <time>2020-01-27T20:55:02Z</time>
      </trkpt>
      <trkpt lat="39.683410" lon="2.546990">
        <ele>313.058</ele>
        <time>2020-01-27T20:55:22Z</time>
      </trkpt>
      <trkpt lat="39.683300" lon="2.547050">
        <ele>314.071</ele>
        <time>2020-01-27T20:55:42Z</time>
      </trkpt>
      <trkpt lat="39.683140" lon="2.547040">
        <ele>316.059</ele>
        <time>2020-01-27T20:56:02Z</time>
      </trkpt>
      <trkpt lat="39.682630" lon="2.546880">
        <ele>321.003</ele>
        <time>2020-01-27T20:56:22Z</time>
      </trkpt>
      <trkpt lat="39.682540" lon="2.546900">
        <ele>322.023</ele>
        <time>2020-01-27T20:56:42Z</time>
      </trkpt>
      <trkpt lat="39.682450" lon="2.546930">
        <ele>323.008</ele>
        <time>2020-01-27T20:57:02Z</time>
      </trkpt>
      <trkpt lat="39.682370" lon="2.547030">
        <ele>324.089</ele>
        <time>2020-01-27T20:57:22Z</time>
      </trkpt>
      <trkpt lat="39.682090" lon="2.547530">
        <ele>328.040</ele>
        <time>2020-01-27T20:57:42Z</time>
      </trkpt>
      <trkpt lat="39.681940" lon="2.547720">
        <ele>329.074</ele>
        <time>2020-01-27T20:58:02Z</time>
      </trkpt>
      <trkpt lat="39.681740" lon="2.547900">
        <ele>327.051</ele>
        <time>2020-01-27T20:58:22Z</time>
      </trkpt>
      <trkpt lat="39.681650" lon="2.548000">
        <ele>327.016</ele>
        <time>2020-01-27T20:58:42Z</time>
      </trkpt>
      <trkpt lat="39.681580" lon="2.548150">
        <ele>326.062</ele>
        <time>2020-01-27T20:59:02Z</time>
      </trkpt>
      <trkpt lat="39.681550" lon="2.548250">
        <ele>325.050</ele>
        <time>2020-01-27T20:59:22Z</time>
      </trkpt>
      <trkpt lat="39.681540" lon="2.548520">
        <ele>324.023</ele>
        <time>2020-01-27T20:59:42Z</time>
      </trkpt>
      <trkpt lat="39.681490" lon="2.548620">
        <ele>323.038</ele>
        <time>2020-01-27T21:00:02Z</time>
      </trkpt>
      <trkpt lat="39.681050" lon="2.548810">
        <ele>320.070</ele>
        <time>2020-01-27T21:00:22Z</time>
      </trkpt>
      <trkpt lat="39.680950" lon="2.548900">
        <ele>319.017</ele>
        <time>2020-01-27T21:00:42Z</time>
      </trkpt>
      <trkpt lat="39.680930" lon="2.549050">
        <ele>318.008</ele>
        <time>2020-01-27T21:01:02Z</time>
      </trkpt>
      <trkpt lat="39.680990" lon="2.549310">
        <ele>317.027</ele>
        <time>2020-01-27T21:01:22Z</time>
      </trkpt>
      <trkpt lat="39.681180" lon="2.549540">
        <ele>315.028</ele>
        <time>2020-01-27T21:01:42Z</time>
      </trkpt>
      <trkpt lat="39.681460" lon="2.549850">
        <ele>315.072</ele>
        <time>2020-01-27T21:02:02Z</time>
      </trkpt>
      <trkpt lat="39.681540" lon="2.549970">
        <ele>315.069</ele>
        <time>2020-01-27T21:02:22Z</time>
      </trkpt>
      <trkpt lat="39.681590" lon="2.550210">
        <ele>314.034</ele>
        <time>2020-01-27T21:02:42Z</time>
      </trkpt>
      <trkpt lat="39.681580" lon="2.550370">
        <ele>314.020</ele>
        <time>2020-01-27T21:03:02Z</time>
      </trkpt>
      <trkpt lat="39.681540" lon="2.550540">
        <ele>314.038</ele>
        <time>2020-01-27T21:03:22Z</time>
      </trkpt>
      <trkpt lat="39.681360" lon="2.550820">
        <ele>314.041</ele>
        <time>2020-01-27T21:03:42Z</time>
      </trkpt>
      <trkpt lat="39.681210" lon="2.551030">
        <ele>313.081</ele>
        <time>2020-01-27T21:04:02Z</time>
      </trkpt>
      <trkpt lat="39.681130" lon="2.551120">
        <ele>313.061</ele>
        <time>2020-01-27T21:04:22Z</time>
      </trkpt>
      <trkpt lat="39.681000" lon="2.551210">
        <ele>313.017</ele>
        <time>2020-01-27T21:04:42Z</time>
      </trkpt>
      <trkpt lat="39.680800" lon="2.551320">
        <ele>313.008</ele>
        <time>2020-01-27T21:05:02Z</time>
      </trkpt>
      <trkpt lat="39.680670" lon="2.551450">
        <ele>313.082</ele>
        <time>2020-01-27T21:05:22Z</time>
      </trkpt>
      <trkpt lat="39.680590" lon="2.551600">
        <ele>313.043</ele>
        <time>2020-01-27T21:05:42Z</time>
      </trkpt>
      <trkpt lat="39.680550" lon="2.551770">
        <ele>313.097</ele>
        <time>2020-01-27T21:06:02Z</time>
      </trkpt>
      <trkpt lat="39.680550" lon="2.551930">
        <ele>314.044</ele>
        <time>2020-01-27T21:06:22Z</time>
      </trkpt>
      <trkpt lat="39.680590" lon="2.552100">
        <ele>314.079</ele>
        <time>2020-01-27T21:06:42Z</time>
      </trkpt>
      <trkpt lat="39.680640" lon="2.552220">
        <ele>314.085</ele>
        <time>2020-01-27T21:07:02Z</time>
      </trkpt>
      <trkpt lat="39.680680" lon="2.552350">
        <ele>314.053</ele>
        <time>2020-01-27T21:07:22Z</time>
      </trkpt>
      <trkpt lat="39.680690" lon="2.553050">
        <ele>315.056</ele>
        <time>2020-01-27T21:07:42Z</time>
      </trkpt>
      <trkpt lat="39.680740" lon="2.553290">
        <ele>316.095</ele>
        <time>2020-01-27T21:08:02Z</time>
      </trkpt>
      <trkpt lat="39.680800" lon="2.553450">
        <ele>316.049</ele>
        <time>2020-01-27T21:08:22Z</time>
      </trkpt>
      <trkpt lat="39.680980" lon="2.553720">
        <ele>316.023</ele>
        <time>2020-01-27T21:08:42Z</time>
      </trkpt>
      <trkpt lat="39.681380" lon="2.554130">
        <ele>318.008</ele>
        <time>2020-01-27T21:09:02Z</time>
      </trkpt>
      <trkpt lat="39.681490" lon="2.554260">
        <ele>318.063</ele>
        <time>2020-01-27T21:09:22Z</time>
      </trkpt>
      <trkpt lat="39.681570" lon="2.554390">
        <ele>319.064</ele>
        <time>2020-01-27T21:09:42Z</time>
      </trkpt>
      <trkpt lat="39.681630" lon="2.554610">
        <ele>319.018</ele>
        <time>2020-01-27T21:10:02Z</time>
      </trkpt>
      <trkpt lat="39.681680" lon="2.554960">
        <ele>320.055</ele>
        <time>2020-01-27T21:10:22Z</time>
      </trkpt>
      <trkpt lat="39.681700" lon="2.555230">
        <ele>321.080</ele>
        <time>2020-01-27T21:10:42Z</time>
      </trkpt>
      <trkpt lat="39.681700" lon="2.555370">
        <ele>321.026</ele>
        <time>2020-01-27T21:11:02Z</time>
      </trkpt>
      <trkpt lat="39.681640" lon="2.555570">
        <ele>322.094</ele>
        <time>2020-01-27T21:11:22Z</time>
      </trkpt>
      <trkpt lat="39.681180" lon="2.556390">
        <ele>323.017</ele>
        <time>2020-01-27T21:11:42Z</time>
      </trkpt>
      <trkpt lat="39.681090" lon="2.556510">
        <ele>324.023</ele>
        <time>2020-01-27T21:12:02Z</time>
      </trkpt>
      <trkpt lat="39.680070" lon="2.557600">
        <ele>326.083</ele>
        <time>2020-01-27T21:12:22Z</time>
      </trkpt>
      <trkpt lat="39.679800" lon="2.557860">
        <ele>326.011</ele>
        <time>2020-01-27T21:12:42Z</time>
      </trkpt>
      <trkpt lat="39.679640" lon="2.557940">
        <ele>325.008</ele>
        <time>2020-01-27T21:13:02Z</time>
      </trkpt>
      <trkpt lat="39.679480" lon="2.558000">
        <ele>324.016</ele>
        <time>2020-01-27T21:13:22Z</time>
      </trkpt>
      <trkpt lat="39.679120" lon="2.558020">
        <ele>323.087</ele>
        <time>2020-01-27T21:13:42Z</time>
      </trkpt>
      <trkpt lat="39.678510" lon="2.558010">
        <ele>320.031</ele>
        <time>2020-01-27T21:14:02Z</time>
      </trkpt>
      <trkpt lat="39.678340" lon="2.557970">
        <ele>320.038</ele>
        <time>2020-01-27T21:14:22Z</time>
      </trkpt>
      <trkpt lat="39.678110" lon="2.557880">
        <ele>319.073</ele>
        <time>2020-01-27T21:14:42Z</time>
      </trkpt>
      <trkpt lat="39.677880" lon="2.557760">
        <ele>317.089</ele>
        <time>2020-01-27T21:15:02Z</time>
      </trkpt>
      <trkpt lat="39.677680" lon="2.557730">
        <ele>315.077</ele>
        <time>2020-01-27T21:15:22Z</time>
      </trkpt>
      <trkpt lat="39.677420" lon="2.557790">
        <ele>313.070</ele>
        <time>2020-01-27T21:15:42Z</time>
      </trkpt>
      <trkpt lat="39.676800" lon="2.558100">
        <ele>306.089</ele>
        <time>2020-01-27T21:16:02Z</time>
      </trkpt>
      <trkpt lat="39.676690" lon="2.558190">
        <ele>305.006</ele>
        <time>2020-01-27T21:16:22Z</time>
      </trkpt>
      <trkpt lat="39.676600" lon="2.558310">
        <ele>304.026</ele>
        <time>2020-01-27T21:16:42Z</time>
      </trkpt>
      <trkpt lat="39.676520" lon="2.558480">
        <ele>303.008</ele>
        <time>2020-01-27T21:17:02Z</time>
      </trkpt>
      <trkpt lat="39.676490" lon="2.558660">
        <ele>301.052</ele>
        <time>2020-01-27T21:17:22Z</time>
      </trkpt>
      <trkpt lat="39.676520" lon="2.559330">
        <ele>299.063</ele>
        <time>2020-01-27T21:17:42Z</time>
      </trkpt>
      <trkpt lat="39.676500" lon="2.559520">
        <ele>299.087</ele>
        <time>2020-01-27T21:18:02Z</time>
      </trkpt>
      <trkpt lat="39.676450" lon="2.559690">
        <ele>298.064</ele>
        <time>2020-01-27T21:18:22Z</time>
      </trkpt>
      <trkpt lat="39.676370" lon="2.559840">
        <ele>298.049</ele>
        <time>2020-01-27T21:18:42Z</time>
      </trkpt>
      <trkpt lat="39.676250" lon="2.559940">
        <ele>298.085</ele>
        <time>2020-01-27T21:19:02Z</time>
      </trkpt>
      <trkpt lat="39.676110" lon="2.560020">
        <ele>297.013</ele>
        <time>2020-01-27T21:19:22Z</time>
      </trkpt>
      <trkpt lat="39.675940" lon="2.560050">
        <ele>297.026</ele>
        <time>2020-01-27T21:19:42Z</time>
      </trkpt>
      <trkpt lat="39.674890" lon="2.559970">
        <ele>294.041</ele>
        <time>2020-01-27T21:20:02Z</time>
      </trkpt>
      <trkpt lat="39.674780" lon="2.559980">
        <ele>294.081</ele>
        <time>2020-01-27T21:20:22Z</time>
      </trkpt>
      <trkpt lat="39.674660" lon="2.560020">
        <ele>293.009</ele>
        <time>2020-01-27T21:20:42Z</time>
      </trkpt>
      <trkpt lat="39.674330" lon="2.560250">
        <ele>291.008</ele>
        <time>2020-01-27T21:21:02Z</time>
      </trkpt>
      <trkpt lat="39.674220" lon="2.560280">
        <ele>290.038</ele>
        <time>2020-01-27T21:21:22Z</time>
      </trkpt>
      <trkpt lat="39.673650" lon="2.560170">
        <ele>287.049</ele>
        <time>2020-01-27T21:21:42Z</time>
      </trkpt>
      <trkpt lat="39.673360" lon="2.560160">
        <ele>286.043</ele>
        <time>2020-01-27T21:22:02Z</time>
      </trkpt>
      <trkpt lat="39.672900" lon="2.560280">
        <ele>282.020</ele>
        <time>2020-01-27T21:22:22Z</time>
      </trkpt>
      <trkpt lat="39.672820" lon="2.560320">
        <ele>281.085</ele>
        <time>2020-01-27T21:22:42Z</time>
      </trkpt>
      <trkpt lat="39.672640" lon="2.560490">
        <ele>279.061</ele>
        <time>2020-01-27T21:23:02Z</time>
      </trkpt>
      <trkpt lat="39.672570" lon="2.560590">
        <ele>278.099</ele>
        <time>2020-01-27T21:23:22Z</time>
      </trkpt>
      <trkpt lat="39.672510" lon="2.560680">
        <ele>278.022</ele>
        <time>2020-01-27T21:23:42Z</time>
      </trkpt>
      <trkpt lat="39.672380" lon="2.561130">
        <ele>274.062</ele>
        <time>2020-01-27T21:24:02Z</time>
      </trkpt>
      <trkpt lat="39.672270" lon="2.561330">
        <ele>273.083</ele>
        <time>2020-01-27T21:24:22Z</time>
      </trkpt>
      <trkpt lat="39.672200" lon="2.561430">
        <ele>272.011</ele>
        <time>2020-01-27T21:24:42Z</time>
      </trkpt>
      <trkpt lat="39.672120" lon="2.561500">
        <ele>271.008</ele>
        <time>2020-01-27T21:25:02Z</time>
      </trkpt>
      <trkpt lat="39.672010" lon="2.561570">
        <ele>270.090</ele>
        <time>2020-01-27T21:25:22Z</time>
      </trkpt>
      <trkpt lat="39.671870" lon="2.561610">
        <ele>268.031</ele>
        <time>2020-01-27T21:25:42Z</time>
      </trkpt>
      <trkpt lat="39.671070" lon="2.561720">
        <ele>262.085</ele>
        <time>2020-01-27T21:26:02Z</time>
      </trkpt>
      <trkpt lat="39.670820" lon="2.561800">
        <ele>259.032</ele>
        <time>2020-01-27T21:26:22Z</time>
      </trkpt>
      <trkpt lat="39.670660" lon="2.561940">
        <ele>258.077</ele>
        <time>2020-01-27T21:26:42Z</time>
      </trkpt>
      <trkpt lat="39.670570" lon="2.562040">
        <ele>257.073</ele>
        <time>2020-01-27T21:27:02Z</time>
      </trkpt>
      <trkpt lat="39.670480" lon="2.562170">
        <ele>256.081</ele>
        <time>2020-01-27T21:27:22Z</time>
      </trkpt>
      <trkpt lat="39.670400" lon="2.562350">
        <ele>254.074</ele>
        <time>2020-01-27T21:27:42Z</time>
      </trkpt>
      <trkpt lat="39.670280" lon="2.562770">
        <ele>252.053</ele>
        <time>2020-01-27T21:28:02Z</time>
      </trkpt>
      <trkpt lat="39.670210" lon="2.563150">
        <ele>249.004</ele>
        <time>2020-01-27T21:28:22Z</time>
      </trkpt>
      <trkpt lat="39.670200" lon="2.563400">
        <ele>249.014</ele>
        <time>2020-01-27T21:28:42Z</time>
      </trkpt>
      <trkpt lat="39.670230" lon="2.563670">
        <ele>249.008</ele>
        <time>2020-01-27T21:29:02Z</time>
      </trkpt>
      <trkpt lat="39.670390" lon="2.564330">
        <ele>248.069</ele>
        <time>2020-01-27T21:29:22Z</time>
      </trkpt>
      <trkpt lat="39.670400" lon="2.564410">
        <ele>248.060</ele>
        <time>2020-01-27T21:29:42Z</time>
      </trkpt>
      <trkpt lat="39.670390" lon="2.564480">
        <ele>248.024</ele>
        <time>2020-01-27T21:30:02Z</time>
      </trkpt>
      <trkpt lat="39.670360" lon="2.564560">
        <ele>248.031</ele>
        <time>2020-01-27T21:30:22Z</time>
      </trkpt>
      <trkpt lat="39.669860" lon="2.565510">
        <ele>246.036</ele>
        <time>2020-01-27T21:30:42Z</time>
      </trkpt>
      <trkpt lat="39.669650" lon="2.566230">
        <ele>244.092</ele>
        <time>2020-01-27T21:31:02Z</time>
      </trkpt>
      <trkpt lat="39.669590" lon="2.566380">
        <ele>243.080</ele>
        <time>2020-01-27T21:31:22Z</time>
      </trkpt>
      <trkpt lat="39.669470" lon="2.566590">
        <ele>242.093</ele>
        <time>2020-01-27T21:31:42Z</time>
      </trkpt>
      <trkpt lat="39.669050" lon="2.567200">
        <ele>239.056</ele>
        <time>2020-01-27T21:32:02Z</time>
      </trkpt>
      <trkpt lat="39.668940" lon="2.567370">
        <ele>239.059</ele>
        <time>2020-01-27T21:32:22Z</time>
      </trkpt>
      <trkpt lat="39.668870" lon="2.567560">
        <ele>238.014</ele>
        <time>2020-01-27T21:32:42Z</time>
      </trkpt>
      <trkpt lat="39.668810" lon="2.567730">
        <ele>237.008</ele>
        <time>2020-01-27T21:33:02Z</time>
      </trkpt>
      <trkpt lat="39.668770" lon="2.567930">
        <ele>236.079</ele>
        <time>2020-01-27T21:33:22Z</time>
      </trkpt>
      <trkpt lat="39.668760" lon="2.568180">
        <ele>234.030</ele>
        <time>2020-01-27T21:33:42Z</time>
      </trkpt>
      <trkpt lat="39.668790" lon="2.568490">
        <ele>232.084</ele>
        <time>2020-01-27T21:34:02Z</time>
      </trkpt>
      <trkpt lat="39.668870" lon="2.568780">
        <ele>230.041</ele>
        <time>2020-01-27T21:34:22Z</time>
      </trkpt>
      <trkpt lat="39.668990" lon="2.568970">
        <ele>228.076</ele>
        <time>2020-01-27T21:34:42Z</time>
      </trkpt>
      <trkpt lat="39.669180" lon="2.569120">
        <ele>226.072</ele>
        <time>2020-01-27T21:35:02Z</time>
      </trkpt>
      <trkpt lat="39.669350" lon="2.569210">
        <ele>224.070</ele>
        <time>2020-01-27T21:35:22Z</time>
      </trkpt>
      <trkpt lat="39.669560" lon="2.569270">
        <ele>223.033</ele>
        <time>2020-01-27T21:35:42Z</time>
      </trkpt>
      <trkpt lat="39.669800" lon="2.569320">
        <ele>220.016</ele>
        <time>2020-01-27T21:36:02Z</time>
      </trkpt>
      <trkpt lat="39.670090" lon="2.569330">
        <ele>219.076</ele>
        <time>2020-01-27T21:36:22Z</time>
      </trkpt>
      <trkpt lat="39.670480" lon="2.569250">
        <ele>218.013</ele>
        <time>2020-01-27T21:36:42Z</time>
      </trkpt>
      <trkpt lat="39.670560" lon="2.569280">
        <ele>218.008</ele>
        <time>2020-01-27T21:37:02Z</time>
      </trkpt>
      <trkpt lat="39.670660" lon="2.569370">
        <ele>218.075</ele>
        <time>2020-01-27T21:37:22Z</time>
      </trkpt>
      <trkpt lat="39.670710" lon="2.569470">
        <ele>218.086</ele>
        <time>2020-01-27T21:37:42Z</time>
      </trkpt>
      <trkpt lat="39.670740" lon="2.569580">
        <ele>218.080</ele>
        <time>2020-01-27T21:38:02Z</time>
      </trkpt>
      <trkpt lat="39.670730" lon="2.569780">
        <ele>217.077</ele>
        <time>2020-01-27T21:38:22Z</time>
      </trkpt>
      <trkpt lat="39.670680" lon="2.569920">
        <ele>217.052</ele>
        <time>2020-01-27T21:38:42Z</time>
      </trkpt>
      <trkpt lat="39.670200" lon="2.570750">
        <ele>215.068</ele>
        <time>2020-01-27T21:39:02Z</time>
      </trkpt>
      <trkpt lat="39.670140" lon="2.570930">
        <ele>215.076</ele>
        <time>2020-01-27T21:39:22Z</time>
      </trkpt>
      <trkpt lat="39.670120" lon="2.571190">
        <ele>215.029</ele>
        <time>2020-01-27T21:39:42Z</time>
      </trkpt>
      <trkpt lat="39.670130" lon="2.571390">
        <ele>214.071</ele>
        <time>2020-01-27T21:40:02Z</time>
      </trkpt>
      <trkpt lat="39.670240" lon="2.571620">
        <ele>214.041</ele>
        <time>2020-01-27T21:40:22Z</time>
      </trkpt>
      <trkpt lat="39.670330" lon="2.571680">
        <ele>214.015</ele>
        <time>2020-01-27T21:40:42Z</time>
      </trkpt>
      <trkpt lat="39.670440" lon="2.571740">
        <ele>214.008</ele>
        <time>2020-01-27T21:41:02Z</time>
      </trkpt>
      <trkpt lat="39.670970" lon="2.571830">
        <ele>213.091</ele>
        <time>2020-01-27T21:41:22Z</time>
      </trkpt>
      <trkpt lat="39.671070" lon="2.571890">
        <ele>212.072</ele>
        <time>2020-01-27T21:41:42Z</time>
      </trkpt>
      <trkpt lat="39.671180" lon="2.572030">
        <ele>212.016</ele>
        <time>2020-01-27T21:42:02Z</time>
      </trkpt>
      <trkpt lat="39.671270" lon="2.572190">
        <ele>212.023</ele>
        <time>2020-01-27T21:42:22Z</time>
      </trkpt>
      <trkpt lat="39.671690" lon="2.573430">
        <ele>208.028</ele>
        <time>2020-01-27T21:42:42Z</time>
      </trkpt>
      <trkpt lat="39.671740" lon="2.573650">
        <ele>207.064</ele>
        <time>2020-01-27T21:43:02Z</time>
      </trkpt>
      <trkpt lat="39.671770" lon="2.573810">
        <ele>207.042</ele>
        <time>2020-01-27T21:43:22Z</time>
      </trkpt>
      <trkpt lat="39.671740" lon="2.573890">
        <ele>206.025</ele>
        <time>2020-01-27T21:43:42Z</time>
      </trkpt>
      <trkpt lat="39.671700" lon="2.573950">
        <ele>206.036</ele>
        <time>2020-01-27T21:44:02Z</time>
      </trkpt>
      <trkpt lat="39.671540" lon="2.574020">
        <ele>206.017</ele>
        <time>2020-01-27T21:44:22Z</time>
      </trkpt>
      <trkpt lat="39.671200" lon="2.574130">
        <ele>204.018</ele>
        <time>2020-01-27T21:44:42Z</time>
      </trkpt>
      <trkpt lat="39.670840" lon="2.574290">
        <ele>202.008</ele>
        <time>2020-01-27T21:45:02Z</time>
      </trkpt>
      <trkpt lat="39.670770" lon="2.574350">
        <ele>202.087</ele>
        <time>2020-01-27T21:45:22Z</time>
      </trkpt>
      <trkpt lat="39.670700" lon="2.574430">
        <ele>201.098</ele>
        <time>2020-01-27T21:45:42Z</time>
      </trkpt>
      <trkpt lat="39.670650" lon="2.574580">
        <ele>200.022</ele>
        <time>2020-01-27T21:46:02Z</time>
      </trkpt>
      <trkpt lat="39.670420" lon="2.575780">
        <ele>194.019</ele>
        <time>2020-01-27T21:46:22Z</time>
      </trkpt>
      <trkpt lat="39.670320" lon="2.576050">
        <ele>193.014</ele>
        <time>2020-01-27T21:46:42Z</time>
      </trkpt>
      <trkpt lat="39.669950" lon="2.576600">
        <ele>191.070</ele>
        <time>2020-01-27T21:47:02Z</time>
      </trkpt>
      <trkpt lat="39.669800" lon="2.576860">
        <ele>191.028</ele>
        <time>2020-01-27T21:47:22Z</time>
      </trkpt>
      <trkpt lat="39.669680" lon="2.577020">
        <ele>192.021</ele>
        <time>2020-01-27T21:47:42Z</time>
      </trkpt>
      <trkpt lat="39.669470" lon="2.577040">
        <ele>192.038</ele>
        <time>2020-01-27T21:48:02Z</time>
      </trkpt>
      <trkpt lat="39.669190" lon="2.577150">
        <ele>193.070</ele>
        <time>2020-01-27T21:48:22Z</time>
      </trkpt>
      <trkpt lat="39.669010" lon="2.577240">
        <ele>193.017</ele>
        <time>2020-01-27T21:48:42Z</time>
      </trkpt>
      <trkpt lat="39.668810" lon="2.577430">
        <ele>194.008</ele>
        <time>2020-01-27T21:49:02Z</time>
      </trkpt>
      <trkpt lat="39.668620" lon="2.577510">
        <ele>194.017</ele>
        <time>2020-01-27T21:49:22Z</time>
      </trkpt>
      <trkpt lat="39.668620" lon="2.576910">
        <ele>194.058</ele>
        <time>2020-01-27T21:49:42Z</time>
      </trkpt>
      <trkpt lat="39.668650" lon="2.576910">
        <ele>193.012</ele>
        <time>2020-01-27T21:50:02Z</time>
      </trkpt>
      <trkpt lat="39.668710" lon="2.576670">
        <ele>193.079</ele>
        <time>2020-01-27T21:50:22Z</time>
      </trkpt>
      <trkpt lat="39.668710" lon="2.576680">
        <ele>193.064</ele>
        <time>2020-01-27T21:50:42Z</time>
      </trkpt>
      <trkpt lat="39.668650" lon="2.576920">
        <ele>192.070</ele>
        <time>2020-01-27T21:51:02Z</time>
      </trkpt>
      <trkpt lat="39.668660" lon="2.577490">
        <ele>190.018</ele>
        <time>2020-01-27T21:51:22Z</time>
      </trkpt>
      <trkpt lat="39.668810" lon="2.577430">
        <ele>190.061</ele>
        <time>2020-01-27T21:51:42Z</time>
      </trkpt>
      <trkpt lat="39.669680" lon="2.578650">
        <ele>188.078</ele>
        <time>2020-01-27T21:52:02Z</time>
      </trkpt>
      <trkpt lat="39.669810" lon="2.578880">
        <ele>189.033</ele>
        <time>2020-01-27T21:52:22Z</time>
      </trkpt>
      <trkpt lat="39.669910" lon="2.579100">
        <ele>190.026</ele>
        <time>2020-01-27T21:52:42Z</time>
      </trkpt>
      <trkpt lat="39.669850" lon="2.579330">
        <ele>190.008</ele>
        <time>2020-01-27T21:53:02Z</time>
      </trkpt>
      <trkpt lat="39.669860" lon="2.579580">
        <ele>191.041</ele>
        <time>2020-01-27T21:53:22Z</time>
      </trkpt>
      <trkpt lat="39.670330" lon="2.580970">
        <ele>196.022</ele>
        <time>2020-01-27T21:53:42Z</time>
      </trkpt>
      <trkpt lat="39.670710" lon="2.581300">
        <ele>198.076</ele>
        <time>2020-01-27T21:54:02Z</time>
      </trkpt>
      <trkpt lat="39.670610" lon="2.581490">
        <ele>199.013</ele>
        <time>2020-01-27T21:54:22Z</time>
      </trkpt>
      <trkpt lat="39.670510" lon="2.581610">
        <ele>200.088</ele>
        <time>2020-01-27T21:54:42Z</time>
      </trkpt>
      <trkpt lat="39.669660" lon="2.581480">
        <ele>205.054</ele>
        <time>2020-01-27T21:55:02Z</time>
      </trkpt>
      <trkpt lat="39.668810" lon="2.581300">
        <ele>209.072</ele>
        <time>2020-01-27T21:55:22Z</time>
      </trkpt>
      <trkpt lat="39.668360" lon="2.581310">
        <ele>212.055</ele>
        <time>2020-01-27T21:55:42Z</time>
      </trkpt>
      <trkpt lat="39.668140" lon="2.581360">
        <ele>213.083</ele>
        <time>2020-01-27T21:56:02Z</time>
      </trkpt>
      <trkpt lat="39.668100" lon="2.581410">
        <ele>213.025</ele>
        <time>2020-01-27T21:56:22Z</time>
      </trkpt>
      <trkpt lat="39.668080" lon="2.581440">
        <ele>214.017</ele>
        <time>2020-01-27T21:56:42Z</time>
      </trkpt>
      <trkpt lat="39.668100" lon="2.581490">
        <ele>214.008</ele>
        <time>2020-01-27T21:57:02Z</time>
      </trkpt>
      <trkpt lat="39.668130" lon="2.581510">
        <ele>214.032</ele>
        <time>2020-01-27T21:57:22Z</time>
      </trkpt>
      <trkpt lat="39.668240" lon="2.581510">
        <ele>215.023</ele>
        <time>2020-01-27T21:57:42Z</time>
      </trkpt>
      <trkpt lat="39.668700" lon="2.581570">
        <ele>219.027</ele>
        <time>2020-01-27T21:58:02Z</time>
      </trkpt>
      <trkpt lat="39.668780" lon="2.581620">
        <ele>220.024</ele>
        <time>2020-01-27T21:58:22Z</time>
      </trkpt>
      <trkpt lat="39.669450" lon="2.582320">
        <ele>231.099</ele>
        <time>2020-01-27T21:58:42Z</time>
      </trkpt>
      <trkpt lat="39.669570" lon="2.582590">
        <ele>234.085</ele>
        <time>2020-01-27T21:59:02Z</time>
      </trkpt>
      <trkpt lat="39.669770" lon="2.582760">
        <ele>237.093</ele>
        <time>2020-01-27T21:59:22Z</time>
      </trkpt>
      <trkpt lat="39.669870" lon="2.582910">
        <ele>239.016</ele>
        <time>2020-01-27T21:59:42Z</time>
      </trkpt>
      <trkpt lat="39.670230" lon="2.583230">
        <ele>243.041</ele>
        <time>2020-01-27T22:00:02Z</time>
      </trkpt>
      <trkpt lat="39.670610" lon="2.583700">
        <ele>247.081</ele>
        <time>2020-01-27T22:00:22Z</time>
      </trkpt>
      <trkpt lat="39.670820" lon="2.584060">
        <ele>250.009</ele>
        <time>2020-01-27T22:00:42Z</time>
      </trkpt>
      <trkpt lat="39.670890" lon="2.584280">
        <ele>251.008</ele>
        <time>2020-01-27T22:01:02Z</time>
      </trkpt>
      <trkpt lat="39.670910" lon="2.584390">
        <ele>252.038</ele>
        <time>2020-01-27T22:01:22Z</time>
      </trkpt>
      <trkpt lat="39.670900" lon="2.584630">
        <ele>253.069</ele>
        <time>2020-01-27T22:01:42Z</time>
      </trkpt>
      <trkpt lat="39.670830" lon="2.584940">
        <ele>255.043</ele>
        <time>2020-01-27T22:02:02Z</time>
      </trkpt>
      <trkpt lat="39.670830" lon="2.585090">
        <ele>256.080</ele>
        <time>2020-01-27T22:02:22Z</time>
      </trkpt>
      <trkpt lat="39.670840" lon="2.585240">
        <ele>257.085</ele>
        <time>2020-01-27T22:02:42Z</time>
      </trkpt>
      <trkpt lat="39.670880" lon="2.585360">
        <ele>258.041</ele>
        <time>2020-01-27T22:03:02Z</time>
      </trkpt>
      <trkpt lat="39.670930" lon="2.585460">
        <ele>258.089</ele>
        <time>2020-01-27T22:03:22Z</time>
      </trkpt>
      <trkpt lat="39.671090" lon="2.585650">
        <ele>260.072</ele>
        <time>2020-01-27T22:03:42Z</time>
      </trkpt>
      <trkpt lat="39.671220" lon="2.585720">
        <ele>261.025</ele>
        <time>2020-01-27T22:04:02Z</time>
      </trkpt>
      <trkpt lat="39.671710" lon="2.585540">
        <ele>264.026</ele>
        <time>2020-01-27T22:04:22Z</time>
      </trkpt>
      <trkpt lat="39.671790" lon="2.585540">
        <ele>265.008</ele>
        <time>2020-01-27T22:04:42Z</time>
      </trkpt>
      <trkpt lat="39.671850" lon="2.585550">
        <ele>265.008</ele>
        <time>2020-01-27T22:05:02Z</time>
      </trkpt>
      <trkpt lat="39.671900" lon="2.585590">
        <ele>266.086</ele>
        <time>2020-01-27T22:05:22Z</time>
      </trkpt>
      <trkpt lat="39.672200" lon="2.585960">
        <ele>268.037</ele>
        <time>2020-01-27T22:05:42Z</time>
      </trkpt>
      <trkpt lat="39.672440" lon="2.586300">
        <ele>271.041</ele>
        <time>2020-01-27T22:06:02Z</time>
      </trkpt>
      <trkpt lat="39.672460" lon="2.586380">
        <ele>271.038</ele>
        <time>2020-01-27T22:06:22Z</time>
      </trkpt>
      <trkpt lat="39.672460" lon="2.586530">
        <ele>271.073</ele>
        <time>2020-01-27T22:06:42Z</time>
      </trkpt>
      <trkpt lat="39.672420" lon="2.586820">
        <ele>271.039</ele>
        <time>2020-01-27T22:07:02Z</time>
      </trkpt>
      <trkpt lat="39.672460" lon="2.587010">
        <ele>271.067</ele>
        <time>2020-01-27T22:07:22Z</time>
      </trkpt>
      <trkpt lat="39.672510" lon="2.587090">
        <ele>271.010</ele>
        <time>2020-01-27T22:07:42Z</time>
      </trkpt>
      <trkpt lat="39.672590" lon="2.587130">
        <ele>271.086</ele>
        <time>2020-01-27T22:08:02Z</time>
      </trkpt>
      <trkpt lat="39.672700" lon="2.587160">
        <ele>271.060</ele>
        <time>2020-01-27T22:08:22Z</time>
      </trkpt>
      <trkpt lat="39.672790" lon="2.587210">
        <ele>271.026</ele>
        <time>2020-01-27T22:08:42Z</time>
      </trkpt>
      <trkpt lat="39.672950" lon="2.587360">
        <ele>271.008</ele>
        <time>2020-01-27T22:09:02Z</time>
      </trkpt>
      <trkpt lat="39.673040" lon="2.587530">
        <ele>271.062</ele>
        <time>2020-01-27T22:09:22Z</time>
      </trkpt>
      <trkpt lat="39.673240" lon="2.588060">
        <ele>271.093</ele>
        <time>2020-01-27T22:09:42Z</time>
      </trkpt>
      <trkpt lat="39.673370" lon="2.588220">
        <ele>271.027</ele>
        <time>2020-01-27T22:10:02Z</time>
      </trkpt>
      <trkpt lat="39.673440" lon="2.588270">
        <ele>271.084</ele>
        <time>2020-01-27T22:10:22Z</time>
      </trkpt>
      <trkpt lat="39.673570" lon="2.588250">
        <ele>272.019</ele>
        <time>2020-01-27T22:10:42Z</time>
      </trkpt>
      <trkpt lat="39.673860" lon="2.588010">
        <ele>274.065</ele>
        <time>2020-01-27T22:11:02Z</time>
      </trkpt>
      <trkpt lat="39.673950" lon="2.587980">
        <ele>275.013</ele>
        <time>2020-01-27T22:11:22Z</time>
      </trkpt>
      <trkpt lat="39.674420" lon="2.588030">
        <ele>278.026</ele>
        <time>2020-01-27T22:11:42Z</time>
      </trkpt>
      <trkpt lat="39.674470" lon="2.587940">
        <ele>279.038</ele>
        <time>2020-01-27T22:12:02Z</time>
      </trkpt>
      <trkpt lat="39.674530" lon="2.587720">
        <ele>280.070</ele>
        <time>2020-01-27T22:12:22Z</time>
      </trkpt>
      <trkpt lat="39.674520" lon="2.587320">
        <ele>283.017</ele>
        <time>2020-01-27T22:12:42Z</time>
      </trkpt>
      <trkpt lat="39.674580" lon="2.587070">
        <ele>284.008</ele>
        <time>2020-01-27T22:13:02Z</time>
      </trkpt>
      <trkpt lat="39.674710" lon="2.586790">
        <ele>286.057</ele>
        <time>2020-01-27T22:13:22Z</time>
      </trkpt>
      <trkpt lat="39.675020" lon="2.586540">
        <ele>288.058</ele>
        <time>2020-01-27T22:13:42Z</time>
      </trkpt>
      <trkpt lat="39.675120" lon="2.586440">
        <ele>289.062</ele>
        <time>2020-01-27T22:14:02Z</time>
      </trkpt>
      <trkpt lat="39.675170" lon="2.586320">
        <ele>290.079</ele>
        <time>2020-01-27T22:14:22Z</time>
      </trkpt>
      <trkpt lat="39.675250" lon="2.585860">
        <ele>292.034</ele>
        <time>2020-01-27T22:14:42Z</time>
      </trkpt>
      <trkpt lat="39.675290" lon="2.585850">
        <ele>292.080</ele>
        <time>2020-01-27T22:15:02Z</time>
      </trkpt>
      <trkpt lat="39.675280" lon="2.585580">
        <ele>294.058</ele>
        <time>2020-01-27T22:15:22Z</time>
      </trkpt>
      <trkpt lat="39.675500" lon="2.585280">
        <ele>296.061</ele>
        <time>2020-01-27T22:15:42Z</time>
      </trkpt>
      <trkpt lat="39.676350" lon="2.584890">
        <ele>297.016</ele>
        <time>2020-01-27T22:16:02Z</time>
      </trkpt>
      <trkpt lat="39.676620" lon="2.584530">
        <ele>296.076</ele>
        <time>2020-01-27T22:16:22Z</time>
      </trkpt>
      <trkpt lat="39.677250" lon="2.582850">
        <ele>292.013</ele>
        <time>2020-01-27T22:16:42Z</time>
      </trkpt>
      <trkpt lat="39.678470" lon="2.582400">
        <ele>295.008</ele>
        <time>2020-01-27T22:17:02Z</time>
      </trkpt>
      <trkpt lat="39.678880" lon="2.582110">
        <ele>295.045</ele>
        <time>2020-01-27T22:17:22Z</time>
      </trkpt>
      <trkpt lat="39.679150" lon="2.582090">
        <ele>297.066</ele>
        <time>2020-01-27T22:17:42Z</time>
      </trkpt>
      <trkpt lat="39.679250" lon="2.581960">
        <ele>298.080</ele>
        <time>2020-01-27T22:18:02Z</time>
      </trkpt>
      <trkpt lat="39.679360" lon="2.581810">
        <ele>299.087</ele>
        <time>2020-01-27T22:18:22Z</time>
      </trkpt>
      <trkpt lat="39.679730" lon="2.581950">
        <ele>302.042</ele>
        <time>2020-01-27T22:18:42Z</time>
      </trkpt>
      <trkpt lat="39.680020" lon="2.582210">
        <ele>304.068</ele>
        <time>2020-01-27T22:19:02Z</time>
      </trkpt>
      <trkpt lat="39.680390" lon="2.582370">
        <ele>307.086</ele>
        <time>2020-01-27T22:19:22Z</time>
      </trkpt>
      <trkpt lat="39.680390" lon="2.582380">
        <ele>307.079</ele>
        <time>2020-01-27T22:19:42Z</time>
      </trkpt>
      <trkpt lat="39.680610" lon="2.582510">
        <ele>309.087</ele>
        <time>2020-01-27T22:20:02Z</time>
      </trkpt>
      <trkpt lat="39.680730" lon="2.582610">
        <ele>310.042</ele>
        <time>2020-01-27T22:20:22Z</time>
      </trkpt>
      <trkpt lat="39.680490" lon="2.583060">
        <ele>314.026</ele>
        <time>2020-01-27T22:20:42Z</time>
      </trkpt>
      <trkpt lat="39.680450" lon="2.583200">
        <ele>315.008</ele>
        <time>2020-01-27T22:21:02Z</time>
      </trkpt>
      <trkpt lat="39.680480" lon="2.583330">
        <ele>316.012</ele>
        <time>2020-01-27T22:21:22Z</time>
      </trkpt>
      <trkpt lat="39.680470" lon="2.583330">
        <ele>316.083</ele>
        <time>2020-01-27T22:21:42Z</time>
      </trkpt>
      <trkpt lat="39.680540" lon="2.583480">
        <ele>317.057</ele>
        <time>2020-01-27T22:22:02Z</time>
      </trkpt>
      <trkpt lat="39.681130" lon="2.584100">
        <ele>324.084</ele>
        <time>2020-01-27T22:22:22Z</time>
      </trkpt>
      <trkpt lat="39.681400" lon="2.584480">
        <ele>328.059</ele>
        <time>2020-01-27T22:22:42Z</time>
      </trkpt>
      <trkpt lat="39.681670" lon="2.585040">
        <ele>336.085</ele>
        <time>2020-01-27T22:23:02Z</time>
      </trkpt>
      <trkpt lat="39.681780" lon="2.585410">
        <ele>341.093</ele>
        <time>2020-01-27T22:23:22Z</time>
      </trkpt>
      <trkpt lat="39.681830" lon="2.585730">
        <ele>345.016</ele>
        <time>2020-01-27T22:23:42Z</time>
      </trkpt>
      <trkpt lat="39.681820" lon="2.585970">
        <ele>349.014</ele>
        <time>2020-01-27T22:24:02Z</time>
      </trkpt>
      <trkpt lat="39.681760" lon="2.586360">
        <ele>354.054</ele>
        <time>2020-01-27T22:24:22Z</time>
      </trkpt>
      <trkpt lat="39.681670" lon="2.586720">
        <ele>359.009</ele>
        <time>2020-01-27T22:24:42Z</time>
      </trkpt>
      <trkpt lat="39.681460" lon="2.587410">
        <ele>365.008</ele>
        <time>2020-01-27T22:25:02Z</time>
      </trkpt>
      <trkpt lat="39.681400" lon="2.587810">
        <ele>367.045</ele>
        <time>2020-01-27T22:25:22Z</time>
      </trkpt>
      <trkpt lat="39.681420" lon="2.587960">
        <ele>367.036</ele>
        <time>2020-01-27T22:25:42Z</time>
      </trkpt>
      <trkpt lat="39.681480" lon="2.588090">
        <ele>368.060</ele>
        <time>2020-01-27T22:26:02Z</time>
      </trkpt>
      <trkpt lat="39.681580" lon="2.588170">
        <ele>369.017</ele>
        <time>2020-01-27T22:26:22Z</time>
      </trkpt>
      <trkpt lat="39.681750" lon="2.588220">
        <ele>370.012</ele>
        <time>2020-01-27T22:26:42Z</time>
      </trkpt>
      <trkpt lat="39.682050" lon="2.588200">
        <ele>372.078</ele>
        <time>2020-01-27T22:27:02Z</time>
      </trkpt>
      <trkpt lat="39.682270" lon="2.588290">
        <ele>373.056</ele>
        <time>2020-01-27T22:27:22Z</time>
      </trkpt>
      <trkpt lat="39.682450" lon="2.588400">
        <ele>375.059</ele>
        <time>2020-01-27T22:27:42Z</time>
      </trkpt>
      <trkpt lat="39.682580" lon="2.588530">
        <ele>376.065</ele>
        <time>2020-01-27T22:28:02Z</time>
      </trkpt>
      <trkpt lat="39.682650" lon="2.588740">
        <ele>378.068</ele>
        <time>2020-01-27T22:28:22Z</time>
      </trkpt>
      <trkpt lat="39.682700" lon="2.589110">
        <ele>381.014</ele>
        <time>2020-01-27T22:28:42Z</time>
      </trkpt>
      <trkpt lat="39.683000" lon="2.590010">
        <ele>390.008</ele>
        <time>2020-01-27T22:29:02Z</time>
      </trkpt>
      <trkpt lat="39.683060" lon="2.590340">
        <ele>393.090</ele>
        <time>2020-01-27T22:29:22Z</time>
      </trkpt>
      <trkpt lat="39.683140" lon="2.590990">
        <ele>399.051</ele>
        <time>2020-01-27T22:29:42Z</time>
      </trkpt>
      <trkpt lat="39.683210" lon="2.591240">
        <ele>401.055</ele>
        <time>2020-01-27T22:30:02Z</time>
      </trkpt>
      <trkpt lat="39.683350" lon="2.592070">
        <ele>408.082</ele>
        <time>2020-01-27T22:30:22Z</time>
      </trkpt>
      <trkpt lat="39.683350" lon="2.592430">
        <ele>410.057</ele>
        <time>2020-01-27T22:30:42Z</time>
      </trkpt>
      <trkpt lat="39.683380" lon="2.592580">
        <ele>411.043</ele>
        <time>2020-01-27T22:31:02Z</time>
      </trkpt>
      <trkpt lat="39.683460" lon="2.592780">
        <ele>413.091</ele>
        <time>2020-01-27T22:31:22Z</time>
      </trkpt>
      <trkpt lat="39.683560" lon="2.592950">
        <ele>414.094</ele>
        <time>2020-01-27T22:31:42Z</time>
      </trkpt>
      <trkpt lat="39.683950" lon="2.593440">
        <ele>420.054</ele>
        <time>2020-01-27T22:32:02Z</time>
      </trkpt>
      <trkpt lat="39.683990" lon="2.593530">
        <ele>421.056</ele>
        <time>2020-01-27T22:32:22Z</time>
      </trkpt>
      <trkpt lat="39.684170" lon="2.594200">
        <ele>427.011</ele>
        <time>2020-01-27T22:32:42Z</time>
      </trkpt>
      <trkpt lat="39.684270" lon="2.595020">
        <ele>435.008</ele>
        <time>2020-01-27T22:33:02Z</time>
      </trkpt>
      <trkpt lat="39.684340" lon="2.595280">
        <ele>437.019</ele>
        <time>2020-01-27T22:33:22Z</time>
      </trkpt>
      <trkpt lat="39.684410" lon="2.595450">
        <ele>439.030</ele>
        <time>2020-01-27T22:33:42Z</time>
      </trkpt>
      <trkpt lat="39.684860" lon="2.595930">
        <ele>443.094</ele>
        <time>2020-01-27T22:34:02Z</time>
      </trkpt>
      <trkpt lat="39.685100" lon="2.596100">
        <ele>444.081</ele>
        <time>2020-01-27T22:34:22Z</time>
      </trkpt>
      <trkpt lat="39.685160" lon="2.596110">
        <ele>444.056</ele>
        <time>2020-01-27T22:34:42Z</time>
      </trkpt>
      <trkpt lat="39.685300" lon="2.596040">
        <ele>444.022</ele>
        <time>2020-01-27T22:35:02Z</time>
      </trkpt>
      <trkpt lat="39.685740" lon="2.595730">
        <ele>446.090</ele>
        <time>2020-01-27T22:35:22Z</time>
      </trkpt>
      <trkpt lat="39.685950" lon="2.595520">
        <ele>446.033</ele>
        <time>2020-01-27T22:35:42Z</time>
      </trkpt>
      <trkpt lat="39.686090" lon="2.595310">
        <ele>447.036</ele>
        <time>2020-01-27T22:36:02Z</time>
      </trkpt>
      <trkpt lat="39.686070" lon="2.595170">
        <ele>447.017</ele>
        <time>2020-01-27T22:36:22Z</time>
      </trkpt>
      <trkpt lat="39.686070" lon="2.594990">
        <ele>447.018</ele>
        <time>2020-01-27T22:36:42Z</time>
      </trkpt>
      <trkpt lat="39.686110" lon="2.594830">
        <ele>448.008</ele>
        <time>2020-01-27T22:37:02Z</time>
      </trkpt>
      <trkpt lat="39.686250" lon="2.594580">
        <ele>450.087</ele>
        <time>2020-01-27T22:37:22Z</time>
      </trkpt>
      <trkpt lat="39.686870" lon="2.593760">
        <ele>457.088</ele>
        <time>2020-01-27T22:37:42Z</time>
      </trkpt>
      <trkpt lat="39.687080" lon="2.593280">
        <ele>460.022</ele>
        <time>2020-01-27T22:38:02Z</time>
      </trkpt>
      <trkpt lat="39.687500" lon="2.593070">
        <ele>463.099</ele>
        <time>2020-01-27T22:38:22Z</time>
      </trkpt>
      <trkpt lat="39.687960" lon="2.592750">
        <ele>468.034</ele>
        <time>2020-01-27T22:38:42Z</time>
      </trkpt>
      <trkpt lat="39.688290" lon="2.592600">
        <ele>471.030</ele>
        <time>2020-01-27T22:39:02Z</time>
      </trkpt>
      <trkpt lat="39.689560" lon="2.592450">
        <ele>483.048</ele>
        <time>2020-01-27T22:39:22Z</time>
      </trkpt>
      <trkpt lat="39.689860" lon="2.592340">
        <ele>485.041</ele>
        <time>2020-01-27T22:39:42Z</time>
      </trkpt>
      <trkpt lat="39.690240" lon="2.592080">
        <ele>488.059</ele>
        <time>2020-01-27T22:40:02Z</time>
      </trkpt>
      <trkpt lat="39.690620" lon="2.591700">
        <ele>491.003</ele>
        <time>2020-01-27T22:40:22Z</time>
      </trkpt>
      <trkpt lat="39.690940" lon="2.591210">
        <ele>495.023</ele>
        <time>2020-01-27T22:40:42Z</time>
      </trkpt>
      <trkpt lat="39.691330" lon="2.590290">
        <ele>500.008</ele>
        <time>2020-01-27T22:41:02Z</time>
      </trkpt>
      <trkpt lat="39.691410" lon="2.589750">
        <ele>503.069</ele>
        <time>2020-01-27T22:41:22Z</time>
      </trkpt>
      <trkpt lat="39.691440" lon="2.589190">
        <ele>505.060</ele>
        <time>2020-01-27T22:41:42Z</time>
      </trkpt>
      <trkpt lat="39.691720" lon="2.588630">
        <ele>509.094</ele>
        <time>2020-01-27T22:42:02Z</time>
      </trkpt>
      <trkpt lat="39.691860" lon="2.588140">
        <ele>512.051</ele>
        <time>2020-01-27T22:42:22Z</time>
      </trkpt>
      <trkpt lat="39.692020" lon="2.587640">
        <ele>516.016</ele>
        <time>2020-01-27T22:42:42Z</time>
      </trkpt>
      <trkpt lat="39.692090" lon="2.587300">
        <ele>518.042</ele>
        <time>2020-01-27T22:43:02Z</time>
      </trkpt>
      <trkpt lat="39.692550" lon="2.586710">
        <ele>524.010</ele>
        <time>2020-01-27T22:43:22Z</time>
      </trkpt>
      <trkpt lat="39.692960" lon="2.585820">
        <ele>526.023</ele>
        <time>2020-01-27T22:43:42Z</time>
      </trkpt>
      <trkpt lat="39.693230" lon="2.585130">
        <ele>525.039</ele>
        <time>2020-01-27T22:44:02Z</time>
      </trkpt>
      <trkpt lat="39.693330" lon="2.584650">
        <ele>525.001</ele>
        <time>2020-01-27T22:44:22Z</time>
      </trkpt>
      <trkpt lat="39.693340" lon="2.584180">
        <ele>525.021</ele>
        <time>2020-01-27T22:44:42Z</time>
      </trkpt>
      <trkpt lat="39.693460" lon="2.583970">
        <ele>524.008</ele>
        <time>2020-01-27T22:45:02Z</time>
      </trkpt>
      <trkpt lat="39.694080" lon="2.583320">
        <ele>511.017</ele>
        <time>2020-01-27T22:45:22Z</time>
      </trkpt>
      <trkpt lat="39.694360" lon="2.582550">
        <ele>501.028</ele>
        <time>2020-01-27T22:45:42Z</time>
      </trkpt>
      <trkpt lat="39.694540" lon="2.582240">
        <ele>496.022</ele>
        <time>2020-01-27T22:46:02Z</time>
      </trkpt>
      <trkpt lat="39.694660" lon="2.582150">
        <ele>494.049</ele>
        <time>2020-01-27T22:46:22Z</time>
      </trkpt>
      <trkpt lat="39.694960" lon="2.582190">
        <ele>491.064</ele>
        <time>2020-01-27T22:46:42Z</time>
      </trkpt>
      <trkpt lat="39.695080" lon="2.582050">
        <ele>490.050</ele>
        <time>2020-01-27T22:47:02Z</time>
      </trkpt>
      <trkpt lat="39.695190" lon="2.581880">
        <ele>489.068</ele>
        <time>2020-01-27T22:47:22Z</time>
      </trkpt>
      <trkpt lat="39.695320" lon="2.581610">
        <ele>487.091</ele>
        <time>2020-01-27T22:47:42Z</time>
      </trkpt>
      <trkpt lat="39.695310" lon="2.581500">
        <ele>487.042</ele>
        <time>2020-01-27T22:48:02Z</time>
      </trkpt>
      <trkpt lat="39.695150" lon="2.581340">
        <ele>485.022</ele>
        <time>2020-01-27T22:48:22Z</time>
      </trkpt>
      <trkpt lat="39.694700" lon="2.581210">
        <ele>482.014</ele>
        <time>2020-01-27T22:48:42Z</time>
      </trkpt>
      <trkpt lat="39.694100" lon="2.580820">
        <ele>477.008</ele>
        <time>2020-01-27T22:49:02Z</time>
      </trkpt>
      <trkpt lat="39.693990" lon="2.580230">
        <ele>472.088</ele>
        <time>2020-01-27T22:49:22Z</time>
      </trkpt>
      <trkpt lat="39.694020" lon="2.580140">
        <ele>471.049</ele>
        <time>2020-01-27T22:49:42Z</time>
      </trkpt>
      <trkpt lat="39.694020" lon="2.580140">
        <ele>471.033</ele>
        <time>2020-01-27T22:50:02Z</time>
      </trkpt>
      <trkpt lat="39.694070" lon="2.579960">
        <ele>470.090</ele>
        <time>2020-01-27T22:50:22Z</time>
      </trkpt>
      <trkpt lat="39.694220" lon="2.579990">
        <ele>469.085</ele>
        <time>2020-01-27T22:50:42Z</time>
      </trkpt>
      <trkpt lat="39.694390" lon="2.579960">
        <ele>467.081</ele>
        <time>2020-01-27T22:51:02Z</time>
      </trkpt>
      <trkpt lat="39.695060" lon="2.579740">
        <ele>460.059</ele>
        <time>2020-01-27T22:51:22Z</time>
      </trkpt>
      <trkpt lat="39.695310" lon="2.579620">
        <ele>458.032</ele>
        <time>2020-01-27T22:51:42Z</time>
      </trkpt>
      <trkpt lat="39.695410" lon="2.579530">
        <ele>457.097</ele>
        <time>2020-01-27T22:52:02Z</time>
      </trkpt>
      <trkpt lat="39.696160" lon="2.578680">
        <ele>451.023</ele>
        <time>2020-01-27T22:52:22Z</time>
      </trkpt>
      <trkpt lat="39.696320" lon="2.578520">
        <ele>450.025</ele>
        <time>2020-01-27T22:52:42Z</time>
      </trkpt>
      <trkpt lat="39.696430" lon="2.578450">
        <ele>449.008</ele>
        <time>2020-01-27T22:53:02Z</time>
      </trkpt>
      <trkpt lat="39.696600" lon="2.578400">
        <ele>448.083</ele>
        <time>2020-01-27T22:53:22Z</time>
      </trkpt>
      <trkpt lat="39.696770" lon="2.578400">
        <ele>447.064</ele>
        <time>2020-01-27T22:53:42Z</time>
      </trkpt>
      <trkpt lat="39.698760" lon="2.578920">
        <ele>438.038</ele>
        <time>2020-01-27T22:54:02Z</time>
      </trkpt>
      <trkpt lat="39.699190" lon="2.579220">
        <ele>435.055</ele>
        <time>2020-01-27T22:54:22Z</time>
      </trkpt>
      <trkpt lat="39.699560" lon="2.579520">
        <ele>432.070</ele>
        <time>2020-01-27T22:54:42Z</time>
      </trkpt>
      <trkpt lat="39.699600" lon="2.579600">
        <ele>431.056</ele>
        <time>2020-01-27T22:55:02Z</time>
      </trkpt>
      <trkpt lat="39.699600" lon="2.579600">
        <ele>431.044</ele>
        <time>2020-01-27T22:55:22Z</time>
      </trkpt>
      <trkpt lat="39.699630" lon="2.579650">
        <ele>431.087</ele>
        <time>2020-01-27T22:55:42Z</time>
      </trkpt>
      <trkpt lat="39.699640" lon="2.579820">
        <ele>430.068</ele>
        <time>2020-01-27T22:56:02Z</time>
      </trkpt>
      <trkpt lat="39.699620" lon="2.580080">
        <ele>428.042</ele>
        <time>2020-01-27T22:56:22Z</time>
      </trkpt>
      <trkpt lat="39.699620" lon="2.580300">
        <ele>427.026</ele>
        <time>2020-01-27T22:56:42Z</time>
      </trkpt>
      <trkpt lat="39.699640" lon="2.580430">
        <ele>426.008</ele>
        <time>2020-01-27T22:57:02Z</time>
      </trkpt>
      <trkpt lat="39.699790" lon="2.580670">
        <ele>424.090</ele>
        <time>2020-01-27T22:57:22Z</time>
      </trkpt>
      <trkpt lat="39.699960" lon="2.580840">
        <ele>423.011</ele>
        <time>2020-01-27T22:57:42Z</time>
      </trkpt>
      <trkpt lat="39.700030" lon="2.580980">
        <ele>422.075</ele>
        <time>2020-01-27T22:58:02Z</time>
      </trkpt>
      <trkpt lat="39.700070" lon="2.581110">
        <ele>422.072</ele>
        <time>2020-01-27T22:58:22Z</time>
      </trkpt>
      <trkpt lat="39.700100" lon="2.581850">
        <ele>420.037</ele>
        <time>2020-01-27T22:58:42Z</time>
      </trkpt>
      <trkpt lat="39.700080" lon="2.582640">
        <ele>418.043</ele>
        <time>2020-01-27T22:59:02Z</time>
      </trkpt>
      <trkpt lat="39.700070" lon="2.582900">
        <ele>417.011</ele>
        <time>2020-01-27T22:59:22Z</time>
      </trkpt>
      <trkpt lat="39.699960" lon="2.583630">
        <ele>415.014</ele>
        <time>2020-01-27T22:59:42Z</time>
      </trkpt>
      <trkpt lat="39.699950" lon="2.583870">
        <ele>414.069</ele>
        <time>2020-01-27T23:00:02Z</time>
      </trkpt>
      <trkpt lat="39.699980" lon="2.584150">
        <ele>412.004</ele>
        <time>2020-01-27T23:00:22Z</time>
      </trkpt>
      <trkpt lat="39.700040" lon="2.584270">
        <ele>411.024</ele>
        <time>2020-01-27T23:00:42Z</time>
      </trkpt>
      <trkpt lat="39.700170" lon="2.584430">
        <ele>410.008</ele>
        <time>2020-01-27T23:01:02Z</time>
      </trkpt>
      <trkpt lat="39.701130" lon="2.585480">
        <ele>401.090</ele>
        <time>2020-01-27T23:01:22Z</time>
      </trkpt>
      <trkpt lat="39.701330" lon="2.585770">
        <ele>400.041</ele>
        <time>2020-01-27T23:01:42Z</time>
      </trkpt>
      <trkpt lat="39.701670" lon="2.586250">
        <ele>399.075</ele>
        <time>2020-01-27T23:02:02Z</time>
      </trkpt>
      <trkpt lat="39.701790" lon="2.586470">
        <ele>398.012</ele>
        <time>2020-01-27T23:02:22Z</time>
      </trkpt>
      <trkpt lat="39.701830" lon="2.586570">
        <ele>398.037</ele>
        <time>2020-01-27T23:02:42Z</time>
      </trkpt>
      <trkpt lat="39.701850" lon="2.586700">
        <ele>397.033</ele>
        <time>2020-01-27T23:03:02Z</time>
      </trkpt>
      <trkpt lat="39.701860" lon="2.587170">
        <ele>396.061</ele>
        <time>2020-01-27T23:03:22Z</time>
      </trkpt>
      <trkpt lat="39.701820" lon="2.587720">
        <ele>395.064</ele>
        <time>2020-01-27T23:03:42Z</time>
      </trkpt>
      <trkpt lat="39.701810" lon="2.587790">
        <ele>394.033</ele>
        <time>2020-01-27T23:04:02Z</time>
      </trkpt>
      <trkpt lat="39.701700" lon="2.588100">
        <ele>393.023</ele>
        <time>2020-01-27T23:04:22Z</time>
      </trkpt>
      <trkpt lat="39.701510" lon="2.588450">
        <ele>392.015</ele>
        <time>2020-01-27T23:04:42Z</time>
      </trkpt>
      <trkpt lat="39.701470" lon="2.588620">
        <ele>391.008</ele>
        <time>2020-01-27T23:05:02Z</time>
      </trkpt>
      <trkpt lat="39.701450" lon="2.589350">
        <ele>389.097</ele>
        <time>2020-01-27T23:05:22Z</time>
      </trkpt>
      <trkpt lat="39.701460" lon="2.589550">
        <ele>388.098</ele>
        <time>2020-01-27T23:05:42Z</time>
      </trkpt>
      <trkpt lat="39.701550" lon="2.590100">
        <ele>386.022</ele>
        <time>2020-01-27T23:06:02Z</time>
      </trkpt>
      <trkpt lat="39.701830" lon="2.591390">
        <ele>382.029</ele>
        <time>2020-01-27T23:06:22Z</time>
      </trkpt>
      <trkpt lat="39.701890" lon="2.591600">
        <ele>381.034</ele>
        <time>2020-01-27T23:06:42Z</time>
      </trkpt>
      <trkpt lat="39.701970" lon="2.591760">
        <ele>381.090</ele>
        <time>2020-01-27T23:07:02Z</time>
      </trkpt>
      <trkpt lat="39.702850" lon="2.593080">
        <ele>375.078</ele>
        <time>2020-01-27T23:07:22Z</time>
      </trkpt>
      <trkpt lat="39.703340" lon="2.593880">
        <ele>370.041</ele>
        <time>2020-01-27T23:07:42Z</time>
      </trkpt>
      <trkpt lat="39.705770" lon="2.597610">
        <ele>365.029</ele>
        <time>2020-01-27T23:08:02Z</time>
      </trkpt>
      <trkpt lat="39.706860" lon="2.599330">
        <ele>366.000</ele>
        <time>2020-01-27T23:08:22Z</time>
      </trkpt>
      <trkpt lat="39.708880" lon="2.602970">
        <ele>371.020</ele>
        <time>2020-01-27T23:08:42Z</time>
      </trkpt>
      <trkpt lat="39.709170" lon="2.603670">
        <ele>371.008</ele>
        <time>2020-01-27T23:09:02Z</time>
      </trkpt>
      <trkpt lat="39.709390" lon="2.604390">
        <ele>371.096</ele>
        <time>2020-01-27T23:09:22Z</time>
      </trkpt>
      <trkpt lat="39.709400" lon="2.604390">
        <ele>371.097</ele>
        <time>2020-01-27T23:09:42Z</time>
      </trkpt>
      <trkpt lat="39.710330" lon="2.607800">
        <ele>373.061</ele>
        <time>2020-01-27T23:10:02Z</time>
      </trkpt>
      <trkpt lat="39.710420" lon="2.608060">
        <ele>373.098</ele>
        <time>2020-01-27T23:10:22Z</time>
      </trkpt>
      <trkpt lat="39.710800" lon="2.608910">
        <ele>376.013</ele>
        <time>2020-01-27T23:10:42Z</time>
      </trkpt>
      <trkpt lat="39.710860" lon="2.609070">
        <ele>376.049</ele>
        <time>2020-01-27T23:11:02Z</time>
      </trkpt>
      <trkpt lat="39.710960" lon="2.609670">
        <ele>377.077</ele>
        <time>2020-01-27T23:11:22Z</time>
      </trkpt>
      <trkpt lat="39.710990" lon="2.610560">
        <ele>380.040</ele>
        <time>2020-01-27T23:11:42Z</time>
      </trkpt>
      <trkpt lat="39.711000" lon="2.610550">
        <ele>380.045</ele>
        <time>2020-01-27T23:12:02Z</time>
      </trkpt>
      <trkpt lat="39.711000" lon="2.610560">
        <ele>380.047</ele>
        <time>2020-01-27T23:12:22Z</time>
      </trkpt>
      <trkpt lat="39.710980" lon="2.610570">
        <ele>380.011</ele>
        <time>2020-01-27T23:12:42Z</time>
      </trkpt>
      <trkpt lat="39.710750" lon="2.612630">
        <ele>385.008</ele>
        <time>2020-01-27T23:13:02Z</time>
      </trkpt>
      <trkpt lat="39.710510" lon="2.613660">
        <ele>388.038</ele>
        <time>2020-01-27T23:13:22Z</time>
      </trkpt>
      <trkpt lat="39.710360" lon="2.614260">
        <ele>389.089</ele>
        <time>2020-01-27T23:13:42Z</time>
      </trkpt>
      <trkpt lat="39.710150" lon="2.614990">
        <ele>391.043</ele>
        <time>2020-01-27T23:14:02Z</time>
      </trkpt>
      <trkpt lat="39.710100" lon="2.615250">
        <ele>392.050</ele>
        <time>2020-01-27T23:14:22Z</time>
      </trkpt>
      <trkpt lat="39.710060" lon="2.616950">
        <ele>397.035</ele>
        <time>2020-01-27T23:14:42Z</time>
      </trkpt>
      <trkpt lat="39.709930" lon="2.617920">
        <ele>400.031</ele>
        <time>2020-01-27T23:15:02Z</time>
      </trkpt>
      <trkpt lat="39.709990" lon="2.618100">
        <ele>400.089</ele>
        <time>2020-01-27T23:15:22Z</time>
      </trkpt>
      <trkpt lat="39.710010" lon="2.618400">
        <ele>400.042</ele>
        <time>2020-01-27T23:15:42Z</time>
      </trkpt>
      <trkpt lat="39.709950" lon="2.619700">
        <ele>402.094</ele>
        <time>2020-01-27T23:16:02Z</time>
      </trkpt>
      <trkpt lat="39.709950" lon="2.620130">
        <ele>403.057</ele>
        <time>2020-01-27T23:16:22Z</time>
      </trkpt>
      <trkpt lat="39.709970" lon="2.620330">
        <ele>403.022</ele>
        <time>2020-01-27T23:16:42Z</time>
      </trkpt>
      <trkpt lat="39.710010" lon="2.620420">
        <ele>403.008</ele>
        <time>2020-01-27T23:17:02Z</time>
      </trkpt>
      <trkpt lat="39.710090" lon="2.620520">
        <ele>404.063</ele>
        <time>2020-01-27T23:17:22Z</time>
      </trkpt>
      <trkpt lat="39.710000" lon="2.620750">
        <ele>405.094</ele>
        <time>2020-01-27T23:17:42Z</time>
      </trkpt>
      <trkpt lat="39.710140" lon="2.620900">
        <ele>406.048</ele>
        <time>2020-01-27T23:18:02Z</time>
      </trkpt>
      <trkpt lat="39.710950" lon="2.621680">
        <ele>411.015</ele>
        <time>2020-01-27T23:18:22Z</time>
      </trkpt>
      <trkpt lat="39.711410" lon="2.622160">
        <ele>414.060</ele>
        <time>2020-01-27T23:18:42Z</time>
      </trkpt>
      <trkpt lat="39.711560" lon="2.622420">
        <ele>412.016</ele>
        <time>2020-01-27T23:19:02Z</time>
      </trkpt>
      <trkpt lat="39.711710" lon="2.622770">
        <ele>410.034</ele>
        <time>2020-01-27T23:19:22Z</time>
      </trkpt>
      <trkpt lat="39.711760" lon="2.622900">
        <ele>409.037</ele>
        <time>2020-01-27T23:19:42Z</time>
      </trkpt>
      <trkpt lat="39.711850" lon="2.623310">
        <ele>406.051</ele>
        <time>2020-01-27T23:20:02Z</time>
      </trkpt>
      <trkpt lat="39.711860" lon="2.623300">
        <ele>406.001</ele>
        <time>2020-01-27T23:20:22Z</time>
      </trkpt>
      <trkpt lat="39.711880" lon="2.623590">
        <ele>404.011</ele>
        <time>2020-01-27T23:20:42Z</time>
      </trkpt>
      <trkpt lat="39.711740" lon="2.623580">
        <ele>403.008</ele>
        <time>2020-01-27T23:21:02Z</time>
      </trkpt>
      <trkpt lat="39.711700" lon="2.623660">
        <ele>403.089</ele>
        <time>2020-01-27T23:21:22Z</time>
      </trkpt>
      <trkpt lat="39.711540" lon="2.624250">
        <ele>399.090</ele>
        <time>2020-01-27T23:21:42Z</time>
      </trkpt>
      <trkpt lat="39.711480" lon="2.624370">
        <ele>398.014</ele>
        <time>2020-01-27T23:22:02Z</time>
      </trkpt>
      <trkpt lat="39.711400" lon="2.624450">
        <ele>398.091</ele>
        <time>2020-01-27T23:22:22Z</time>
      </trkpt>
      <trkpt lat="39.711110" lon="2.624650">
        <ele>397.066</ele>
        <time>2020-01-27T23:22:42Z</time>
      </trkpt>
      <trkpt lat="39.710850" lon="2.624850">
        <ele>396.092</ele>
        <time>2020-01-27T23:23:02Z</time>
      </trkpt>
      <trkpt lat="39.710800" lon="2.625130">
        <ele>395.040</ele>
        <time>2020-01-27T23:23:22Z</time>
      </trkpt>
      <trkpt lat="39.710630" lon="2.625130">
        <ele>394.093</ele>
        <time>2020-01-27T23:23:42Z</time>
      </trkpt>
      <trkpt lat="39.710570" lon="2.625110">
        <ele>394.095</ele>
        <time>2020-01-27T23:24:02Z</time>
      </trkpt>
      <trkpt lat="39.710420" lon="2.625050">
        <ele>394.049</ele>
        <time>2020-01-27T23:24:22Z</time>
      </trkpt>
      <trkpt lat="39.710320" lon="2.624920">
        <ele>393.023</ele>
        <time>2020-01-27T23:24:42Z</time>
      </trkpt>
      <trkpt lat="39.710100" lon="2.625140">
        <ele>392.008</ele>
        <time>2020-01-27T23:25:02Z</time>
      </trkpt>
      <trkpt lat="39.710010" lon="2.625350">
        <ele>392.013</ele>
        <time>2020-01-27T23:25:22Z</time>
      </trkpt>
      <trkpt lat="39.710010" lon="2.625380">
        <ele>392.034</ele>
        <time>2020-01-27T23:25:42Z</time>
      </trkpt>
      <trkpt lat="39.710010" lon="2.625370">
        <ele>392.048</ele>
        <time>2020-01-27T23:26:02Z</time>
      </trkpt>
      <trkpt lat="39.710100" lon="2.625140">
        <ele>393.035</ele>
        <time>2020-01-27T23:26:22Z</time>
      </trkpt>
      <trkpt lat="39.710310" lon="2.624920">
        <ele>396.010</ele>
        <time>2020-01-27T23:26:42Z</time>
      </trkpt>
      <trkpt lat="39.710420" lon="2.625050">
        <ele>397.056</ele>
        <time>2020-01-27T23:27:02Z</time>
      </trkpt>
      <trkpt lat="39.710630" lon="2.625130">
        <ele>399.054</ele>
        <time>2020-01-27T23:27:22Z</time>
      </trkpt>
      <trkpt lat="39.710690" lon="2.625140">
        <ele>399.097</ele>
        <time>2020-01-27T23:27:42Z</time>
      </trkpt>
      <trkpt lat="39.710690" lon="2.624990">
        <ele>400.031</ele>
        <time>2020-01-27T23:28:02Z</time>
      </trkpt>
      <trkpt lat="39.710630" lon="2.624840">
        <ele>402.061</ele>
        <time>2020-01-27T23:28:22Z</time>
      </trkpt>
      <trkpt lat="39.710500" lon="2.624600">
        <ele>404.007</ele>
        <time>2020-01-27T23:28:42Z</time>
      </trkpt>
      <trkpt lat="39.710430" lon="2.624270">
        <ele>406.008</ele>
        <time>2020-01-27T23:29:02Z</time>
      </trkpt>
      <trkpt lat="39.710620" lon="2.624210">
        <ele>408.027</ele>
        <time>2020-01-27T23:29:22Z</time>
      </trkpt>
      <trkpt lat="39.710700" lon="2.624130">
        <ele>409.048</ele>
        <time>2020-01-27T23:29:42Z</time>
      </trkpt>
      <trkpt lat="39.711440" lon="2.623120">
        <ele>409.032</ele>
        <time>2020-01-27T23:30:02Z</time>
      </trkpt>
      <trkpt lat="39.711380" lon="2.623040">
        <ele>409.059</ele>
        <time>2020-01-27T23:30:22Z</time>
      </trkpt>
      <trkpt lat="39.710920" lon="2.622610">
        <ele>409.094</ele>
        <time>2020-01-27T23:30:42Z</time>
      </trkpt>
      <trkpt lat="39.710710" lon="2.622630">
        <ele>409.030</ele>
        <time>2020-01-27T23:31:02Z</time>
      </trkpt>
      <trkpt lat="39.710610" lon="2.622600">
        <ele>409.098</ele>
        <time>2020-01-27T23:31:22Z</time>
      </trkpt>
      <trkpt lat="39.710410" lon="2.622460">
        <ele>408.031</ele>
        <time>2020-01-27T23:31:42Z</time>
      </trkpt>
      <trkpt lat="39.710390" lon="2.622410">
        <ele>408.083</ele>
        <time>2020-01-27T23:32:02Z</time>
      </trkpt>
      <trkpt lat="39.710270" lon="2.622370">
        <ele>408.025</ele>
        <time>2020-01-27T23:32:22Z</time>
      </trkpt>
      <trkpt lat="39.710250" lon="2.622480">
        <ele>407.017</ele>
        <time>2020-01-27T23:32:42Z</time>
      </trkpt>
      <trkpt lat="39.709950" lon="2.622460">
        <ele>406.008</ele>
        <time>2020-01-27T23:33:02Z</time>
      </trkpt>
      <trkpt lat="39.709950" lon="2.622580">
        <ele>406.012</ele>
        <time>2020-01-27T23:33:22Z</time>
      </trkpt>
      <trkpt lat="39.709950" lon="2.622590">
        <ele>406.063</ele>
        <time>2020-01-27T23:33:42Z</time>
      </trkpt>
      <trkpt lat="39.709950" lon="2.622470">
        <ele>406.027</ele>
        <time>2020-01-27T23:34:02Z</time>
      </trkpt>
      <trkpt lat="39.710250" lon="2.622490">
        <ele>405.084</ele>
        <time>2020-01-27T23:34:22Z</time>
      </trkpt>
      <trkpt lat="39.710270" lon="2.622380">
        <ele>405.039</ele>
        <time>2020-01-27T23:34:42Z</time>
      </trkpt>
      <trkpt lat="39.710240" lon="2.622000">
        <ele>404.035</ele>
        <time>2020-01-27T23:35:02Z</time>
      </trkpt>
      <trkpt lat="39.709990" lon="2.621530">
        <ele>403.013</ele>
        <time>2020-01-27T23:35:22Z</time>
      </trkpt>
      <trkpt lat="39.709900" lon="2.621520">
        <ele>402.046</ele>
        <time>2020-01-27T23:35:42Z</time>
      </trkpt>
      <trkpt lat="39.709880" lon="2.620940">
        <ele>402.073</ele>
        <time>2020-01-27T23:36:02Z</time>
      </trkpt>
      <trkpt lat="39.709900" lon="2.620550">
        <ele>401.085</ele>
        <time>2020-01-27T23:36:22Z</time>
      </trkpt>
      <trkpt lat="39.709860" lon="2.620440">
        <ele>401.013</ele>
        <time>2020-01-27T23:36:42Z</time>
      </trkpt>
      <trkpt lat="39.709830" lon="2.620130">
        <ele>401.008</ele>
        <time>2020-01-27T23:37:02Z</time>
      </trkpt>
      <trkpt lat="39.709820" lon="2.619430">
        <ele>400.071</ele>
        <time>2020-01-27T23:37:22Z</time>
      </trkpt>
      <trkpt lat="39.709870" lon="2.618370">
        <ele>397.082</ele>
        <time>2020-01-27T23:37:42Z</time>
      </trkpt>
      <trkpt lat="39.710020" lon="2.617300">
        <ele>393.056</ele>
        <time>2020-01-27T23:38:02Z</time>
      </trkpt>
      <trkpt lat="39.710050" lon="2.616950">
        <ele>392.083</ele>
        <time>2020-01-27T23:38:22Z</time>
      </trkpt>
      <trkpt lat="39.710090" lon="2.615250">
        <ele>387.048</ele>
        <time>2020-01-27T23:38:42Z</time>
      </trkpt>
      <trkpt lat="39.710140" lon="2.614990">
        <ele>386.034</ele>
        <time>2020-01-27T23:39:02Z</time>
      </trkpt>
      <trkpt lat="39.710350" lon="2.614260">
        <ele>384.042</ele>
        <time>2020-01-27T23:39:22Z</time>
      </trkpt>
      <trkpt lat="39.710500" lon="2.613660">
        <ele>382.095</ele>
        <time>2020-01-27T23:39:42Z</time>
      </trkpt>
      <trkpt lat="39.710740" lon="2.612630">
        <ele>379.098</ele>
        <time>2020-01-27T23:40:02Z</time>
      </trkpt>
      <trkpt lat="39.710980" lon="2.610570">
        <ele>374.015</ele>
        <time>2020-01-27T23:40:22Z</time>
      </trkpt>
      <trkpt lat="39.713960" lon="2.608690">
        <ele>374.026</ele>
        <time>2020-01-27T23:40:42Z</time>
      </trkpt>
      <trkpt lat="39.715870" lon="2.607770">
        <ele>379.008</ele>
        <time>2020-01-27T23:41:02Z</time>
      </trkpt>
      <trkpt lat="39.717010" lon="2.607030">
        <ele>380.053</ele>
        <time>2020-01-27T23:41:22Z</time>
      </trkpt>
      <trkpt lat="39.717180" lon="2.606970">
        <ele>380.084</ele>
        <time>2020-01-27T23:41:42Z</time>
      </trkpt>
      <trkpt lat="39.717710" lon="2.606890">
        <ele>380.078</ele>
        <time>2020-01-27T23:42:02Z</time>
      </trkpt>
      <trkpt lat="39.717720" lon="2.606890">
        <ele>380.065</ele>
        <time>2020-01-27T23:42:22Z</time>
      </trkpt>
      <trkpt lat="39.720160" lon="2.606530">
        <ele>395.070</ele>
        <time>2020-01-27T23:42:42Z</time>
      </trkpt>
      <trkpt lat="39.721770" lon="2.606420">
        <ele>413.046</ele>
        <time>2020-01-27T23:43:02Z</time>
      </trkpt>
      <trkpt lat="39.721960" lon="2.606350">
        <ele>415.064</ele>
        <time>2020-01-27T23:43:22Z</time>
      </trkpt>
      <trkpt lat="39.722150" lon="2.606220">
        <ele>416.057</ele>
        <time>2020-01-27T23:43:42Z</time>
      </trkpt>
      <trkpt lat="39.722320" lon="2.606020">
        <ele>417.055</ele>
        <time>2020-01-27T23:44:02Z</time>
      </trkpt>
      <trkpt lat="39.722570" lon="2.605820">
        <ele>418.007</ele>
        <time>2020-01-27T23:44:22Z</time>
      </trkpt>
      <trkpt lat="39.722660" lon="2.605790">
        <ele>419.017</ele>
        <time>2020-01-27T23:44:42Z</time>
      </trkpt>
      <trkpt lat="39.722980" lon="2.605800">
        <ele>420.008</ele>
        <time>2020-01-27T23:45:02Z</time>
      </trkpt>
      <trkpt lat="39.723880" lon="2.606030">
        <ele>423.039</ele>
        <time>2020-01-27T23:45:22Z</time>
      </trkpt>
      <trkpt lat="39.724220" lon="2.606080">
        <ele>421.090</ele>
        <time>2020-01-27T23:45:42Z</time>
      </trkpt>
      <trkpt lat="39.724910" lon="2.606150">
        <ele>417.044</ele>
        <time>2020-01-27T23:46:02Z</time>
      </trkpt>
      <trkpt lat="39.725050" lon="2.606200">
        <ele>416.071</ele>
        <time>2020-01-27T23:46:22Z</time>
      </trkpt>
      <trkpt lat="39.725490" lon="2.606490">
        <ele>413.086</ele>
        <time>2020-01-27T23:46:42Z</time>
      </trkpt>
      <trkpt lat="39.725670" lon="2.606570">
        <ele>412.042</ele>
        <time>2020-01-27T23:47:02Z</time>
      </trkpt>
      <trkpt lat="39.725740" lon="2.606570">
        <ele>411.090</ele>
        <time>2020-01-27T23:47:22Z</time>
      </trkpt>
      <trkpt lat="39.726140" lon="2.606410">
        <ele>411.083</ele>
        <time>2020-01-27T23:47:42Z</time>
      </trkpt>
      <trkpt lat="39.726250" lon="2.606380">
        <ele>411.094</ele>
        <time>2020-01-27T23:48:02Z</time>
      </trkpt>
      <trkpt lat="39.726430" lon="2.606400">
        <ele>411.057</ele>
        <time>2020-01-27T23:48:22Z</time>
      </trkpt>
      <trkpt lat="39.726730" lon="2.606540">
        <ele>412.022</ele>
        <time>2020-01-27T23:48:42Z</time>
      </trkpt>
      <trkpt lat="39.726920" lon="2.606700">
        <ele>412.008</ele>
        <time>2020-01-27T23:49:02Z</time>
      </trkpt>
      <trkpt lat="39.727210" lon="2.607030">
        <ele>413.093</ele>
        <time>2020-01-27T23:49:22Z</time>
      </trkpt>
      <trkpt lat="39.727390" lon="2.607150">
        <ele>413.064</ele>
        <time>2020-01-27T23:49:42Z</time>
      </trkpt>
      <trkpt lat="39.727520" lon="2.607220">
        <ele>413.048</ele>
        <time>2020-01-27T23:50:02Z</time>
      </trkpt>
      <trkpt lat="39.727990" lon="2.607400">
        <ele>411.045</ele>
        <time>2020-01-27T23:50:22Z</time>
      </trkpt>
      <trkpt lat="39.728500" lon="2.607650">
        <ele>408.030</ele>
        <time>2020-01-27T23:50:42Z</time>
      </trkpt>
      <trkpt lat="39.728640" lon="2.607690">
        <ele>407.016</ele>
        <time>2020-01-27T23:51:02Z</time>
      </trkpt>
      <trkpt lat="39.728920" lon="2.607690">
        <ele>406.054</ele>
        <time>2020-01-27T23:51:22Z</time>
      </trkpt>
      <trkpt lat="39.729060" lon="2.607650">
        <ele>405.087</ele>
        <time>2020-01-27T23:51:42Z</time>
      </trkpt>
      <trkpt lat="39.729180" lon="2.607570">
        <ele>404.053</ele>
        <time>2020-01-27T23:52:02Z</time>
      </trkpt>
      <trkpt lat="39.729340" lon="2.607540">
        <ele>403.004</ele>
        <time>2020-01-27T23:52:22Z</time>
      </trkpt>
      <trkpt lat="39.729770" lon="2.607560">
        <ele>401.014</ele>
        <time>2020-01-27T23:52:42Z</time>
      </trkpt>
      <trkpt lat="39.729870" lon="2.607610">
        <ele>401.008</ele>
        <time>2020-01-27T23:53:02Z</time>
      </trkpt>
      <trkpt lat="39.730040" lon="2.607760">
        <ele>401.069</ele>
        <time>2020-01-27T23:53:22Z</time>
      </trkpt>
      <trkpt lat="39.730260" lon="2.607990">
        <ele>401.090</ele>
        <time>2020-01-27T23:53:42Z</time>
      </trkpt>
      <trkpt lat="39.730260" lon="2.607990">
        <ele>401.054</ele>
        <time>2020-01-27T23:54:02Z</time>
      </trkpt>
      <trkpt lat="39.730790" lon="2.608600">
        <ele>400.071</ele>
        <time>2020-01-27T23:54:22Z</time>
      </trkpt>
      <trkpt lat="39.730990" lon="2.608790">
        <ele>400.046</ele>
        <time>2020-01-27T23:54:42Z</time>
      </trkpt>
      <trkpt lat="39.731390" lon="2.609090">
        <ele>399.082</ele>
        <time>2020-01-27T23:55:02Z</time>
      </trkpt>
      <trkpt lat="39.731750" lon="2.609320">
        <ele>396.040</ele>
        <time>2020-01-27T23:55:22Z</time>
      </trkpt>
      <trkpt lat="39.732000" lon="2.609420">
        <ele>394.083</ele>
        <time>2020-01-27T23:55:42Z</time>
      </trkpt>
      <trkpt lat="39.732240" lon="2.609450">
        <ele>393.058</ele>
        <time>2020-01-27T23:56:02Z</time>
      </trkpt>
      <trkpt lat="39.732630" lon="2.609450">
        <ele>390.052</ele>
        <time>2020-01-27T23:56:22Z</time>
      </trkpt>
      <trkpt lat="39.732710" lon="2.609490">
        <ele>390.017</ele>
        <time>2020-01-27T23:56:42Z</time>
      </trkpt>
      <trkpt lat="39.732960" lon="2.609850">
        <ele>387.008</ele>
        <time>2020-01-27T23:57:02Z</time>
      </trkpt>
      <trkpt lat="39.733200" lon="2.610250">
        <ele>387.039</ele>
        <time>2020-01-27T23:57:22Z</time>
      </trkpt>
      <trkpt lat="39.733740" lon="2.611530">
        <ele>391.090</ele>
        <time>2020-01-27T23:57:42Z</time>
      </trkpt>
      <trkpt lat="39.733830" lon="2.611630">
        <ele>391.044</ele>
        <time>2020-01-27T23:58:02Z</time>
      </trkpt>
      <trkpt lat="39.733920" lon="2.611690">
        <ele>391.031</ele>
        <time>2020-01-27T23:58:22Z</time>
      </trkpt>
      <trkpt lat="39.734180" lon="2.611790">
        <ele>392.036</ele>
        <time>2020-01-27T23:58:42Z</time>
      </trkpt>
      <trkpt lat="39.734280" lon="2.611850">
        <ele>392.052</ele>
        <time>2020-01-27T23:59:02Z</time>
      </trkpt>
      <trkpt lat="39.734410" lon="2.611960">
        <ele>392.070</ele>
        <time>2020-01-27T23:59:22Z</time>
      </trkpt>
      <trkpt lat="39.734910" lon="2.612500">
        <ele>391.063</ele>
        <time>2020-01-27T23:59:42Z</time>
      </trkpt>
      <trkpt lat="39.734970" lon="2.612610">
        <ele>390.078</ele>
        <time>2020-01-28T00:00:02Z</time>
      </trkpt>
      <trkpt lat="39.734970" lon="2.612600">
        <ele>390.033</ele>
        <time>2020-01-28T00:00:22Z</time>
      </trkpt>
      <trkpt lat="39.735070" lon="2.612780">
        <ele>390.026</ele>
        <time>2020-01-28T00:00:42Z</time>
      </trkpt>
      <trkpt lat="39.735180" lon="2.613010">
        <ele>389.008</ele>
        <time>2020-01-28T00:01:02Z</time>
      </trkpt>
      <trkpt lat="39.735340" lon="2.613300">
        <ele>389.031</ele>
        <time>2020-01-28T00:01:22Z</time>
      </trkpt>
      <trkpt lat="39.735620" lon="2.613690">
        <ele>388.012</ele>
        <time>2020-01-28T00:01:42Z</time>
      </trkpt>
      <trkpt lat="39.735730" lon="2.613970">
        <ele>388.066</ele>
        <time>2020-01-28T00:02:02Z</time>
      </trkpt>
      <trkpt lat="39.735940" lon="2.614380">
        <ele>388.013</ele>
        <time>2020-01-28T00:02:22Z</time>
      </trkpt>
      <trkpt lat="39.736140" lon="2.614570">
        <ele>389.038</ele>
        <time>2020-01-28T00:02:42Z</time>
      </trkpt>
      <trkpt lat="39.736330" lon="2.614670">
        <ele>389.024</ele>
        <time>2020-01-28T00:03:02Z</time>
      </trkpt>
      <trkpt lat="39.736390" lon="2.614730">
        <ele>389.012</ele>
        <time>2020-01-28T00:03:22Z</time>
      </trkpt>
      <trkpt lat="39.736440" lon="2.614810">
        <ele>389.035</ele>
        <time>2020-01-28T00:03:42Z</time>
      </trkpt>
      <trkpt lat="39.736620" lon="2.615360">
        <ele>390.057</ele>
        <time>2020-01-28T00:04:02Z</time>
      </trkpt>
      <trkpt lat="39.736650" lon="2.615550">
        <ele>390.000</ele>
        <time>2020-01-28T00:04:22Z</time>
      </trkpt>
      <trkpt lat="39.736690" lon="2.615910">
        <ele>390.020</ele>
        <time>2020-01-28T00:04:42Z</time>
      </trkpt>
      <trkpt lat="39.736670" lon="2.616700">
        <ele>384.008</ele>
        <time>2020-01-28T00:05:02Z</time>
      </trkpt>
      <trkpt lat="39.736680" lon="2.616880">
        <ele>382.079</ele>
        <time>2020-01-28T00:05:22Z</time>
      </trkpt>
      <trkpt lat="39.736720" lon="2.617020">
        <ele>381.080</ele>
        <time>2020-01-28T00:05:42Z</time>
      </trkpt>
      <trkpt lat="39.736800" lon="2.617130">
        <ele>379.094</ele>
        <time>2020-01-28T00:06:02Z</time>
      </trkpt>
      <trkpt lat="39.736890" lon="2.617220">
        <ele>378.061</ele>
        <time>2020-01-28T00:06:22Z</time>
      </trkpt>
      <trkpt lat="39.737740" lon="2.617680">
        <ele>368.036</ele>
        <time>2020-01-28T00:06:42Z</time>
      </trkpt>
      <trkpt lat="39.738030" lon="2.617870">
        <ele>366.052</ele>
        <time>2020-01-28T00:07:02Z</time>
      </trkpt>
      <trkpt lat="39.738100" lon="2.617970">
        <ele>366.010</ele>
        <time>2020-01-28T00:07:22Z</time>
      </trkpt>
      <trkpt lat="39.738130" lon="2.618120">
        <ele>365.043</ele>
        <time>2020-01-28T00:07:42Z</time>
      </trkpt>
      <trkpt lat="39.738090" lon="2.618780">
        <ele>363.039</ele>
        <time>2020-01-28T00:08:02Z</time>
      </trkpt>
      <trkpt lat="39.738090" lon="2.619260">
        <ele>361.001</ele>
        <time>2020-01-28T00:08:22Z</time>
      </trkpt>
      <trkpt lat="39.738060" lon="2.619470">
        <ele>361.021</ele>
        <time>2020-01-28T00:08:42Z</time>
      </trkpt>
      <trkpt lat="39.737960" lon="2.619890">
        <ele>359.008</ele>
        <time>2020-01-28T00:09:02Z</time>
      </trkpt>
      <trkpt lat="39.737960" lon="2.620090">
        <ele>358.077</ele>
        <time>2020-01-28T00:09:22Z</time>
      </trkpt>
      <trkpt lat="39.738000" lon="2.620220">
        <ele>357.018</ele>
        <time>2020-01-28T00:09:42Z</time>
      </trkpt>
      <trkpt lat="39.738130" lon="2.620540">
        <ele>355.022</ele>
        <time>2020-01-28T00:10:02Z</time>
      </trkpt>
      <trkpt lat="39.738180" lon="2.620640">
        <ele>354.079</ele>
        <time>2020-01-28T00:10:22Z</time>
      </trkpt>
      <trkpt lat="39.738190" lon="2.620630">
        <ele>354.094</ele>
        <time>2020-01-28T00:10:42Z</time>
      </trkpt>
      <trkpt lat="39.738520" lon="2.621160">
        <ele>349.060</ele>
        <time>2020-01-28T00:11:02Z</time>
      </trkpt>
      <trkpt lat="39.738780" lon="2.621490">
        <ele>346.068</ele>
        <time>2020-01-28T00:11:22Z</time>
      </trkpt>
      <trkpt lat="39.738920" lon="2.621620">
        <ele>344.051</ele>
        <time>2020-01-28T00:11:42Z</time>
      </trkpt>
      <trkpt lat="39.739060" lon="2.621730">
        <ele>343.091</ele>
        <time>2020-01-28T00:12:02Z</time>
      </trkpt>
      <trkpt lat="39.740830" lon="2.622930">
        <ele>333.081</ele>
        <time>2020-01-28T00:12:22Z</time>
      </trkpt>
      <trkpt lat="39.741100" lon="2.623160">
        <ele>331.019</ele>
        <time>2020-01-28T00:12:42Z</time>
      </trkpt>
      <trkpt lat="39.741200" lon="2.623270">
        <ele>331.008</ele>
        <time>2020-01-28T00:13:02Z</time>
      </trkpt>
      <trkpt lat="39.741370" lon="2.623510">
        <ele>329.073</ele>
        <time>2020-01-28T00:13:22Z</time>
      </trkpt>
      <trkpt lat="39.742000" lon="2.624700">
        <ele>323.064</ele>
        <time>2020-01-28T00:13:42Z</time>
      </trkpt>
      <trkpt lat="39.742400" lon="2.625540">
        <ele>318.098</ele>
        <time>2020-01-28T00:14:02Z</time>
      </trkpt>
      <trkpt lat="39.742650" lon="2.626120">
        <ele>315.035</ele>
        <time>2020-01-28T00:14:22Z</time>
      </trkpt>
      <trkpt lat="39.742940" lon="2.626750">
        <ele>312.080</ele>
        <time>2020-01-28T00:14:42Z</time>
      </trkpt>
      <trkpt lat="39.743330" lon="2.627370">
        <ele>309.066</ele>
        <time>2020-01-28T00:15:02Z</time>
      </trkpt>
      <trkpt lat="39.743610" lon="2.627670">
        <ele>308.094</ele>
        <time>2020-01-28T00:15:22Z</time>
      </trkpt>
      <trkpt lat="39.743770" lon="2.627800">
        <ele>308.087</ele>
        <time>2020-01-28T00:15:42Z</time>
      </trkpt>
      <trkpt lat="39.744800" lon="2.628550">
        <ele>306.073</ele>
        <time>2020-01-28T00:16:02Z</time>
      </trkpt>
      <trkpt lat="39.745050" lon="2.628690">
        <ele>306.085</ele>
        <time>2020-01-28T00:16:22Z</time>
      </trkpt>
      <trkpt lat="39.745210" lon="2.628740">
        <ele>305.013</ele>
        <time>2020-01-28T00:16:42Z</time>
      </trkpt>
      <trkpt lat="39.746120" lon="2.628950">
        <ele>304.008</ele>
        <time>2020-01-28T00:17:02Z</time>
      </trkpt>
      <trkpt lat="39.746430" lon="2.629060">
        <ele>303.021</ele>
        <time>2020-01-28T00:17:22Z</time>
      </trkpt>
      <trkpt lat="39.746570" lon="2.629150">
        <ele>303.062</ele>
        <time>2020-01-28T00:17:42Z</time>
      </trkpt>
      <trkpt lat="39.746710" lon="2.629290">
        <ele>302.016</ele>
        <time>2020-01-28T00:18:02Z</time>
      </trkpt>
      <trkpt lat="39.747640" lon="2.630330">
        <ele>296.033</ele>
        <time>2020-01-28T00:18:22Z</time>
      </trkpt>
      <trkpt lat="39.747930" lon="2.630590">
        <ele>294.058</ele>
        <time>2020-01-28T00:18:42Z</time>
      </trkpt>
      <trkpt lat="39.748240" lon="2.630750">
        <ele>292.034</ele>
        <time>2020-01-28T00:19:02Z</time>
      </trkpt>
      <trkpt lat="39.749090" lon="2.631110">
        <ele>287.062</ele>
        <time>2020-01-28T00:19:22Z</time>
      </trkpt>
      <trkpt lat="39.749230" lon="2.631120">
        <ele>286.065</ele>
        <time>2020-01-28T00:19:42Z</time>
      </trkpt>
      <trkpt lat="39.749350" lon="2.631090">
        <ele>285.022</ele>
        <time>2020-01-28T00:20:02Z</time>
      </trkpt>
      <trkpt lat="39.749970" lon="2.630630">
        <ele>281.062</ele>
        <time>2020-01-28T00:20:22Z</time>
      </trkpt>
      <trkpt lat="39.750810" lon="2.630310">
        <ele>276.008</ele>
        <time>2020-01-28T00:20:42Z</time>
      </trkpt>
      <trkpt lat="39.751790" lon="2.629810">
        <ele>267.008</ele>
        <time>2020-01-28T00:21:02Z</time>
      </trkpt>
      <trkpt lat="39.751950" lon="2.629750">
        <ele>266.096</ele>
        <time>2020-01-28T00:21:22Z</time>
      </trkpt>
      <trkpt lat="39.752160" lon="2.629750">
        <ele>264.047</ele>
        <time>2020-01-28T00:21:42Z</time>
      </trkpt>
      <trkpt lat="39.752360" lon="2.629810">
        <ele>262.021</ele>
        <time>2020-01-28T00:22:02Z</time>
      </trkpt>
      <trkpt lat="39.752470" lon="2.629890">
        <ele>261.068</ele>
        <time>2020-01-28T00:22:22Z</time>
      </trkpt>
      <trkpt lat="39.752580" lon="2.630010">
        <ele>260.033</ele>
        <time>2020-01-28T00:22:42Z</time>
      </trkpt>
      <trkpt lat="39.752700" lon="2.630240">
        <ele>258.099</ele>
        <time>2020-01-28T00:23:02Z</time>
      </trkpt>
      <trkpt lat="39.752780" lon="2.630490">
        <ele>255.017</ele>
        <time>2020-01-28T00:23:22Z</time>
      </trkpt>
      <trkpt lat="39.752900" lon="2.631150">
        <ele>250.010</ele>
        <time>2020-01-28T00:23:42Z</time>
      </trkpt>
      <trkpt lat="39.752990" lon="2.631430">
        <ele>247.057</ele>
        <time>2020-01-28T00:24:02Z</time>
      </trkpt>
      <trkpt lat="39.753060" lon="2.631560">
        <ele>246.000</ele>
        <time>2020-01-28T00:24:22Z</time>
      </trkpt>
      <trkpt lat="39.753280" lon="2.631900">
        <ele>242.020</ele>
        <time>2020-01-28T00:24:42Z</time>
      </trkpt>
      <trkpt lat="39.753460" lon="2.632110">
        <ele>239.008</ele>
        <time>2020-01-28T00:25:02Z</time>
      </trkpt>
      <trkpt lat="39.753600" lon="2.632230">
        <ele>238.089</ele>
        <time>2020-01-28T00:25:22Z</time>
      </trkpt>
      <trkpt lat="39.753840" lon="2.632380">
        <ele>235.080</ele>
        <time>2020-01-28T00:25:42Z</time>
      </trkpt>
      <trkpt lat="39.754320" lon="2.632600">
        <ele>230.094</ele>
        <time>2020-01-28T00:26:02Z</time>
      </trkpt>
      <trkpt lat="39.755910" lon="2.632940">
        <ele>216.031</ele>
        <time>2020-01-28T00:26:22Z</time>
      </trkpt>
      <trkpt lat="39.756100" lon="2.633040">
        <ele>215.096</ele>
        <time>2020-01-28T00:26:42Z</time>
      </trkpt>
      <trkpt lat="39.756220" lon="2.633130">
        <ele>214.052</ele>
        <time>2020-01-28T00:27:02Z</time>
      </trkpt>
      <trkpt lat="39.756410" lon="2.633340">
        <ele>213.010</ele>
        <time>2020-01-28T00:27:22Z</time>
      </trkpt>
      <trkpt lat="39.756480" lon="2.633430">
        <ele>212.023</ele>
        <time>2020-01-28T00:27:42Z</time>
      </trkpt>
      <trkpt lat="39.756560" lon="2.633600">
        <ele>212.044</ele>
        <time>2020-01-28T00:28:02Z</time>
      </trkpt>
      <trkpt lat="39.756560" lon="2.633600">
        <ele>212.005</ele>
        <time>2020-01-28T00:28:22Z</time>
      </trkpt>
      <trkpt lat="39.756650" lon="2.633890">
        <ele>210.015</ele>
        <time>2020-01-28T00:28:42Z</time>
      </trkpt>
      <trkpt lat="39.756680" lon="2.634180">
        <ele>209.008</ele>
        <time>2020-01-28T00:29:02Z</time>
      </trkpt>
      <trkpt lat="39.756690" lon="2.634700">
        <ele>207.058</ele>
        <time>2020-01-28T00:29:22Z</time>
      </trkpt>
      <trkpt lat="39.756670" lon="2.634880">
        <ele>207.039</ele>
        <time>2020-01-28T00:29:42Z</time>
      </trkpt>
      <trkpt lat="39.756630" lon="2.635080">
        <ele>206.083</ele>
        <time>2020-01-28T00:30:02Z</time>
      </trkpt>
      <trkpt lat="39.756550" lon="2.635300">
        <ele>205.050</ele>
        <time>2020-01-28T00:30:22Z</time>
      </trkpt>
      <trkpt lat="39.756450" lon="2.635500">
        <ele>205.095</ele>
        <time>2020-01-28T00:30:42Z</time>
      </trkpt>
      <trkpt lat="39.756330" lon="2.635690">
        <ele>204.091</ele>
        <time>2020-01-28T00:31:02Z</time>
      </trkpt>
      <trkpt lat="39.756210" lon="2.635820">
        <ele>204.079</ele>
        <time>2020-01-28T00:31:22Z</time>
      </trkpt>
      <trkpt lat="39.756050" lon="2.635900">
        <ele>203.092</ele>
        <time>2020-01-28T00:31:42Z</time>
      </trkpt>
      <trkpt lat="39.755820" lon="2.635970">
        <ele>202.021</ele>
        <time>2020-01-28T00:32:02Z</time>
      </trkpt>
      <trkpt lat="39.755550" lon="2.636000">
        <ele>201.041</ele>
        <time>2020-01-28T00:32:22Z</time>
      </trkpt>
      <trkpt lat="39.754950" lon="2.636000">
        <ele>197.005</ele>
        <time>2020-01-28T00:32:42Z</time>
      </trkpt>
      <trkpt lat="39.754810" lon="2.636030">
        <ele>196.008</ele>
        <time>2020-01-28T00:33:02Z</time>
      </trkpt>
      <trkpt lat="39.754740" lon="2.636080">
        <ele>195.076</ele>
        <time>2020-01-28T00:33:22Z</time>
      </trkpt>
      <trkpt lat="39.754700" lon="2.636140">
        <ele>194.097</ele>
        <time>2020-01-28T00:33:42Z</time>
      </trkpt>
      <trkpt lat="39.754650" lon="2.636310">
        <ele>193.091</ele>
        <time>2020-01-28T00:34:02Z</time>
      </trkpt>
      <trkpt lat="39.754530" lon="2.636920">
        <ele>188.058</ele>
        <time>2020-01-28T00:34:22Z</time>
      </trkpt>
      <trkpt lat="39.754460" lon="2.637070">
        <ele>187.093</ele>
        <time>2020-01-28T00:34:42Z</time>
      </trkpt>
      <trkpt lat="39.754410" lon="2.637130">
        <ele>186.019</ele>
        <time>2020-01-28T00:35:02Z</time>
      </trkpt>
      <trkpt lat="39.754310" lon="2.637220">
        <ele>185.057</ele>
        <time>2020-01-28T00:35:22Z</time>
      </trkpt>
      <trkpt lat="39.754160" lon="2.637310">
        <ele>184.060</ele>
        <time>2020-01-28T00:35:42Z</time>
      </trkpt>
      <trkpt lat="39.753610" lon="2.637570">
        <ele>179.055</ele>
        <time>2020-01-28T00:36:02Z</time>
      </trkpt>
      <trkpt lat="39.753160" lon="2.637900">
        <ele>176.007</ele>
        <time>2020-01-28T00:36:22Z</time>
      </trkpt>
      <trkpt lat="39.752910" lon="2.637990">
        <ele>175.017</ele>
        <time>2020-01-28T00:36:42Z</time>
      </trkpt>
      <trkpt lat="39.752560" lon="2.638090">
        <ele>173.008</ele>
        <time>2020-01-28T00:37:02Z</time>
      </trkpt>
      <trkpt lat="39.752360" lon="2.638120">
        <ele>172.089</ele>
        <time>2020-01-28T00:37:22Z</time>
      </trkpt>
      <trkpt lat="39.752220" lon="2.638100">
        <ele>171.010</ele>
        <time>2020-01-28T00:37:42Z</time>
      </trkpt>
      <trkpt lat="39.752110" lon="2.638050">
        <ele>170.014</ele>
        <time>2020-01-28T00:38:02Z</time>
      </trkpt>
      <trkpt lat="39.751740" lon="2.637860">
        <ele>167.051</ele>
        <time>2020-01-28T00:38:22Z</time>
      </trkpt>
      <trkpt lat="39.751560" lon="2.637810">
        <ele>166.086</ele>
        <time>2020-01-28T00:38:42Z</time>
      </trkpt>
      <trkpt lat="39.751490" lon="2.637810">
        <ele>165.082</ele>
        <time>2020-01-28T00:39:02Z</time>
      </trkpt>
      <trkpt lat="39.751010" lon="2.638000">
        <ele>161.040</ele>
        <time>2020-01-28T00:39:22Z</time>
      </trkpt>
      <trkpt lat="39.750630" lon="2.638120">
        <ele>158.083</ele>
        <time>2020-01-28T00:39:42Z</time>
      </trkpt>
      <trkpt lat="39.750500" lon="2.638200">
        <ele>157.052</ele>
        <time>2020-01-28T00:40:02Z</time>
      </trkpt>
      <trkpt lat="39.750450" lon="2.638280">
        <ele>156.053</ele>
        <time>2020-01-28T00:40:22Z</time>
      </trkpt>
      <trkpt lat="39.750420" lon="2.638370">
        <ele>156.008</ele>
        <time>2020-01-28T00:40:42Z</time>
      </trkpt>
      <trkpt lat="39.750410" lon="2.638470">
        <ele>155.008</ele>
        <time>2020-01-28T00:41:02Z</time>
      </trkpt>
      <trkpt lat="39.750450" lon="2.638640">
        <ele>154.099</ele>
        <time>2020-01-28T00:41:22Z</time>
      </trkpt>
      <trkpt lat="39.750900" lon="2.639530">
        <ele>147.050</ele>
        <time>2020-01-28T00:41:42Z</time>
      </trkpt>
      <trkpt lat="39.751000" lon="2.639740">
        <ele>145.014</ele>
        <time>2020-01-28T00:42:02Z</time>
      </trkpt>
      <trkpt lat="39.751070" lon="2.640070">
        <ele>143.021</ele>
        <time>2020-01-28T00:42:22Z</time>
      </trkpt>
      <trkpt lat="39.751090" lon="2.640230">
        <ele>142.036</ele>
        <time>2020-01-28T00:42:42Z</time>
      </trkpt>
      <trkpt lat="39.751070" lon="2.640530">
        <ele>140.052</ele>
        <time>2020-01-28T00:43:02Z</time>
      </trkpt>
      <trkpt lat="39.751030" lon="2.640840">
        <ele>137.070</ele>
        <time>2020-01-28T00:43:22Z</time>
      </trkpt>
      <trkpt lat="39.750980" lon="2.641070">
        <ele>136.033</ele>
        <time>2020-01-28T00:43:42Z</time>
      </trkpt>
      <trkpt lat="39.750910" lon="2.641250">
        <ele>135.031</ele>
        <time>2020-01-28T00:44:02Z</time>
      </trkpt>
      <trkpt lat="39.750780" lon="2.641470">
        <ele>134.061</ele>
        <time>2020-01-28T00:44:22Z</time>
      </trkpt>
      <trkpt lat="39.750580" lon="2.641670">
        <ele>133.007</ele>
        <time>2020-01-28T00:44:42Z</time>
      </trkpt>
      <trkpt lat="39.750410" lon="2.641750">
        <ele>133.008</ele>
        <time>2020-01-28T00:45:02Z</time>
      </trkpt>
      <trkpt lat="39.750260" lon="2.641740">
        <ele>132.097</ele>
        <time>2020-01-28T00:45:22Z</time>
      </trkpt>
      <trkpt lat="39.749820" lon="2.641500">
        <ele>131.088</ele>
        <time>2020-01-28T00:45:42Z</time>
      </trkpt>
      <trkpt lat="39.749660" lon="2.641440">
        <ele>130.052</ele>
        <time>2020-01-28T00:46:02Z</time>
      </trkpt>
      <trkpt lat="39.749530" lon="2.641440">
        <ele>130.079</ele>
        <time>2020-01-28T00:46:22Z</time>
      </trkpt>
      <trkpt lat="39.749320" lon="2.641520">
        <ele>129.034</ele>
        <time>2020-01-28T00:46:42Z</time>
      </trkpt>
      <trkpt lat="39.749180" lon="2.641660">
        <ele>129.050</ele>
        <time>2020-01-28T00:47:02Z</time>
      </trkpt>
      <trkpt lat="39.748670" lon="2.642350">
        <ele>134.048</ele>
        <time>2020-01-28T00:47:22Z</time>
      </trkpt>
      <trkpt lat="39.748550" lon="2.642470">
        <ele>135.061</ele>
        <time>2020-01-28T00:47:42Z</time>
      </trkpt>
      <trkpt lat="39.748420" lon="2.642530">
        <ele>136.011</ele>
        <time>2020-01-28T00:48:02Z</time>
      </trkpt>
      <trkpt lat="39.748300" lon="2.642530">
        <ele>137.021</ele>
        <time>2020-01-28T00:48:22Z</time>
      </trkpt>
      <trkpt lat="39.748190" lon="2.642490">
        <ele>138.003</ele>
        <time>2020-01-28T00:48:42Z</time>
      </trkpt>
      <trkpt lat="39.747970" lon="2.642270">
        <ele>140.008</ele>
        <time>2020-01-28T00:49:02Z</time>
      </trkpt>
      <trkpt lat="39.747710" lon="2.641850">
        <ele>143.085</ele>
        <time>2020-01-28T00:49:22Z</time>
      </trkpt>
      <trkpt lat="39.747660" lon="2.641800">
        <ele>144.026</ele>
        <time>2020-01-28T00:49:42Z</time>
      </trkpt>
      <trkpt lat="39.747590" lon="2.641780">
        <ele>144.080</ele>
        <time>2020-01-28T00:50:02Z</time>
      </trkpt>
      <trkpt lat="39.747520" lon="2.641790">
        <ele>144.057</ele>
        <time>2020-01-28T00:50:22Z</time>
      </trkpt>
      <trkpt lat="39.747440" lon="2.641840">
        <ele>144.092</ele>
        <time>2020-01-28T00:50:42Z</time>
      </trkpt>
      <trkpt lat="39.747410" lon="2.641870">
        <ele>144.088</ele>
        <time>2020-01-28T00:51:02Z</time>
      </trkpt>
      <trkpt lat="39.747310" lon="2.642140">
        <ele>145.026</ele>
        <time>2020-01-28T00:51:22Z</time>
      </trkpt>
      <trkpt lat="39.747280" lon="2.642320">
        <ele>146.089</ele>
        <time>2020-01-28T00:51:42Z</time>
      </trkpt>
      <trkpt lat="39.747260" lon="2.642480">
        <ele>146.073</ele>
        <time>2020-01-28T00:52:02Z</time>
      </trkpt>
      <trkpt lat="39.747280" lon="2.643200">
        <ele>148.085</ele>
        <time>2020-01-28T00:52:22Z</time>
      </trkpt>
      <trkpt lat="39.747280" lon="2.643310">
        <ele>148.013</ele>
        <time>2020-01-28T00:52:42Z</time>
      </trkpt>
      <trkpt lat="39.747240" lon="2.643470">
        <ele>148.008</ele>
        <time>2020-01-28T00:53:02Z</time>
      </trkpt>
      <trkpt lat="39.747170" lon="2.643600">
        <ele>149.081</ele>
        <time>2020-01-28T00:53:22Z</time>
      </trkpt>
      <trkpt lat="39.747120" lon="2.643650">
        <ele>149.032</ele>
        <time>2020-01-28T00:53:42Z</time>
      </trkpt>
      <trkpt lat="39.746770" lon="2.643910">
        <ele>150.066</ele>
        <time>2020-01-28T00:54:02Z</time>
      </trkpt>
      <trkpt lat="39.746620" lon="2.644090">
        <ele>151.043</ele>
        <time>2020-01-28T00:54:22Z</time>
      </trkpt>
      <trkpt lat="39.746360" lon="2.644440">
        <ele>154.058</ele>
        <time>2020-01-28T00:54:42Z</time>
      </trkpt>
      <trkpt lat="39.746060" lon="2.644740">
        <ele>156.014</ele>
        <time>2020-01-28T00:55:02Z</time>
      </trkpt>
      <trkpt lat="39.745930" lon="2.644820">
        <ele>157.062</ele>
        <time>2020-01-28T00:55:22Z</time>
      </trkpt>
      <trkpt lat="39.744870" lon="2.645190">
        <ele>161.035</ele>
        <time>2020-01-28T00:55:42Z</time>
      </trkpt>
      <trkpt lat="39.744760" lon="2.645280">
        <ele>161.032</ele>
        <time>2020-01-28T00:56:02Z</time>
      </trkpt>
      <trkpt lat="39.744720" lon="2.645400">
        <ele>161.092</ele>
        <time>2020-01-28T00:56:22Z</time>
      </trkpt>
      <trkpt lat="39.744720" lon="2.645500">
        <ele>161.011</ele>
        <time>2020-01-28T00:56:42Z</time>
      </trkpt>
      <trkpt lat="39.744740" lon="2.645580">
        <ele>161.008</ele>
        <time>2020-01-28T00:57:02Z</time>
      </trkpt>
      <trkpt lat="39.744780" lon="2.645640">
        <ele>161.047</ele>
        <time>2020-01-28T00:57:22Z</time>
      </trkpt>
      <trkpt lat="39.745100" lon="2.645910">
        <ele>161.068</ele>
        <time>2020-01-28T00:57:42Z</time>
      </trkpt>
      <trkpt lat="39.745460" lon="2.646290">
        <ele>161.042</ele>
        <time>2020-01-28T00:58:02Z</time>
      </trkpt>
      <trkpt lat="39.745460" lon="2.646280">
        <ele>161.049</ele>
        <time>2020-01-28T00:58:22Z</time>
      </trkpt>
      <trkpt lat="39.745860" lon="2.646780">
        <ele>161.054</ele>
        <time>2020-01-28T00:58:42Z</time>
      </trkpt>
      <trkpt lat="39.745930" lon="2.646960">
        <ele>162.050</ele>
        <time>2020-01-28T00:59:02Z</time>
      </trkpt>
      <trkpt lat="39.746200" lon="2.648120">
        <ele>168.018</ele>
        <time>2020-01-28T00:59:22Z</time>
      </trkpt>
      <trkpt lat="39.746360" lon="2.649020">
        <ele>173.031</ele>
        <time>2020-01-28T00:59:42Z</time>
      </trkpt>
      <trkpt lat="39.746360" lon="2.649180">
        <ele>174.046</ele>
        <time>2020-01-28T01:00:02Z</time>
      </trkpt>
      <trkpt lat="39.746290" lon="2.649510">
        <ele>174.088</ele>
        <time>2020-01-28T01:00:22Z</time>
      </trkpt>
      <trkpt lat="39.746290" lon="2.649540">
        <ele>175.016</ele>
        <time>2020-01-28T01:00:42Z</time>
      </trkpt>
      <trkpt lat="39.746310" lon="2.649590">
        <ele>175.008</ele>
        <time>2020-01-28T01:01:02Z</time>
      </trkpt>
      <trkpt lat="39.746360" lon="2.649640">
        <ele>175.078</ele>
        <time>2020-01-28T01:01:22Z</time>
      </trkpt>
      <trkpt lat="39.746410" lon="2.649650">
        <ele>175.069</ele>
        <time>2020-01-28T01:01:42Z</time>
      </trkpt>
      <trkpt lat="39.746600" lon="2.649640">
        <ele>176.083</ele>
        <time>2020-01-28T01:02:02Z</time>
      </trkpt>
      <trkpt lat="39.746660" lon="2.649590">
        <ele>176.030</ele>
        <time>2020-01-28T01:02:22Z</time>
      </trkpt>
      <trkpt lat="39.746700" lon="2.649530">
        <ele>176.085</ele>
        <time>2020-01-28T01:02:42Z</time>
      </trkpt>
      <trkpt lat="39.747060" lon="2.648880">
        <ele>178.061</ele>
        <time>2020-01-28T01:03:02Z</time>
      </trkpt>
      <trkpt lat="39.747240" lon="2.648670">
        <ele>179.049</ele>
        <time>2020-01-28T01:03:22Z</time>
      </trkpt>
      <trkpt lat="39.747380" lon="2.648580">
        <ele>180.022</ele>
        <time>2020-01-28T01:03:42Z</time>
      </trkpt>
      <trkpt lat="39.747480" lon="2.648560">
        <ele>180.014</ele>
        <time>2020-01-28T01:04:02Z</time>
      </trkpt>
      <trkpt lat="39.747650" lon="2.648580">
        <ele>181.054</ele>
        <time>2020-01-28T01:04:22Z</time>
      </trkpt>
      <trkpt lat="39.748290" lon="2.649020">
        <ele>183.009</ele>
        <time>2020-01-28T01:04:42Z</time>
      </trkpt>
      <trkpt lat="39.748390" lon="2.649040">
        <ele>184.008</ele>
        <time>2020-01-28T01:05:02Z</time>
      </trkpt>
      <trkpt lat="39.748470" lon="2.649020">
        <ele>184.055</ele>
        <time>2020-01-28T01:05:22Z</time>
      </trkpt>
      <trkpt lat="39.748540" lon="2.648980">
        <ele>184.056</ele>
        <time>2020-01-28T01:05:42Z</time>
      </trkpt>
      <trkpt lat="39.748670" lon="2.648840">
        <ele>185.020</ele>
        <time>2020-01-28T01:06:02Z</time>
      </trkpt>
      <trkpt lat="39.748800" lon="2.648680">
        <ele>186.037</ele>
        <time>2020-01-28T01:06:22Z</time>
      </trkpt>
      <trkpt lat="39.748680" lon="2.648580">
        <ele>186.052</ele>
        <time>2020-01-28T01:06:42Z</time>
      </trkpt>
      <trkpt lat="39.748640" lon="2.648520">
        <ele>187.038</ele>
        <time>2020-01-28T01:07:02Z</time>
      </trkpt>
      <trkpt lat="39.748660" lon="2.648430">
        <ele>187.046</ele>
        <time>2020-01-28T01:07:22Z</time>
      </trkpt>
      <trkpt lat="39.748740" lon="2.648360">
        <ele>187.019</ele>
        <time>2020-01-28T01:07:42Z</time>
      </trkpt>
      <trkpt lat="39.748870" lon="2.648310">
        <ele>188.018</ele>
        <time>2020-01-28T01:08:02Z</time>
      </trkpt>
      <trkpt lat="39.748970" lon="2.648220">
        <ele>188.098</ele>
        <time>2020-01-28T01:08:22Z</time>
      </trkpt>
      <trkpt lat="39.748970" lon="2.648170">
        <ele>188.017</ele>
        <time>2020-01-28T01:08:42Z</time>
      </trkpt>
      <trkpt lat="39.748970" lon="2.648150">
        <ele>189.008</ele>
        <time>2020-01-28T01:09:02Z</time>
      </trkpt>
      <trkpt lat="39.748920" lon="2.648130">
        <ele>189.035</ele>
        <time>2020-01-28T01:09:22Z</time>
      </trkpt>
      <trkpt lat="39.748640" lon="2.648260">
        <ele>191.086</ele>
        <time>2020-01-28T01:09:42Z</time>
      </trkpt>
      <trkpt lat="39.748600" lon="2.648210">
        <ele>191.030</ele>
        <time>2020-01-28T01:10:02Z</time>
      </trkpt>
      <trkpt lat="39.748590" lon="2.648170">
        <ele>191.097</ele>
        <time>2020-01-28T01:10:22Z</time>
      </trkpt>
      <trkpt lat="39.748610" lon="2.648030">
        <ele>192.032</ele>
        <time>2020-01-28T01:10:42Z</time>
      </trkpt>
      <trkpt lat="39.748730" lon="2.647650">
        <ele>194.028</ele>
        <time>2020-01-28T01:11:02Z</time>
      </trkpt>
      <trkpt lat="39.748600" lon="2.647420">
        <ele>196.046</ele>
        <time>2020-01-28T01:11:22Z</time>
      </trkpt>
      <trkpt lat="39.748610" lon="2.647360">
        <ele>196.019</ele>
        <time>2020-01-28T01:11:42Z</time>
      </trkpt>
      <trkpt lat="39.748850" lon="2.646940">
        <ele>198.072</ele>
        <time>2020-01-28T01:12:02Z</time>
      </trkpt>
      <trkpt lat="39.748860" lon="2.646880">
        <ele>199.013</ele>
        <time>2020-01-28T01:12:22Z</time>
      </trkpt>
      <trkpt lat="39.748830" lon="2.646860">
        <ele>199.014</ele>
        <time>2020-01-28T01:12:42Z</time>
      </trkpt>
      <trkpt lat="39.748790" lon="2.646890">
        <ele>199.008</ele>
        <time>2020-01-28T01:13:02Z</time>
      </trkpt>
      <trkpt lat="39.748730" lon="2.647020">
        <ele>200.091</ele>
        <time>2020-01-28T01:13:22Z</time>
      </trkpt>
      <trkpt lat="39.748630" lon="2.646980">
        <ele>201.072</ele>
        <time>2020-01-28T01:13:42Z</time>
      </trkpt>
      <trkpt lat="39.748570" lon="2.646930">
        <ele>201.026</ele>
        <time>2020-01-28T01:14:02Z</time>
      </trkpt>
      <trkpt lat="39.748500" lon="2.646810">
        <ele>201.073</ele>
        <time>2020-01-28T01:14:22Z</time>
      </trkpt>
      <trkpt lat="39.748520" lon="2.646680">
        <ele>200.068</ele>
        <time>2020-01-28T01:14:42Z</time>
      </trkpt>
      <trkpt lat="39.748760" lon="2.646370">
        <ele>197.034</ele>
        <time>2020-01-28T01:15:02Z</time>
      </trkpt>
      <trkpt lat="39.748760" lon="2.646370">
        <ele>197.012</ele>
        <time>2020-01-28T01:15:22Z</time>
      </trkpt>
      <trkpt lat="39.748520" lon="2.646680">
        <ele>194.045</ele>
        <time>2020-01-28T01:15:42Z</time>
      </trkpt>
      <trkpt lat="39.748500" lon="2.646810">
        <ele>193.093</ele>
        <time>2020-01-28T01:16:02Z</time>
      </trkpt>
      <trkpt lat="39.748570" lon="2.646930">
        <ele>192.065</ele>
        <time>2020-01-28T01:16:22Z</time>
      </trkpt>
      <trkpt lat="39.748630" lon="2.646970">
        <ele>191.021</ele>
        <time>2020-01-28T01:16:42Z</time>
      </trkpt>
      <trkpt lat="39.748730" lon="2.647010">
        <ele>190.008</ele>
        <time>2020-01-28T01:17:02Z</time>
      </trkpt>
      <trkpt lat="39.748790" lon="2.646880">
        <ele>189.073</ele>
        <time>2020-01-28T01:17:22Z</time>
      </trkpt>
      <trkpt lat="39.748830" lon="2.646850">
        <ele>189.014</ele>
        <time>2020-01-28T01:17:42Z</time>
      </trkpt>
      <trkpt lat="39.748860" lon="2.646870">
        <ele>188.028</ele>
        <time>2020-01-28T01:18:02Z</time>
      </trkpt>
      <trkpt lat="39.748850" lon="2.646930">
        <ele>188.045</ele>
        <time>2020-01-28T01:18:22Z</time>
      </trkpt>
      <trkpt lat="39.748610" lon="2.647350">
        <ele>184.060</ele>
        <time>2020-01-28T01:18:42Z</time>
      </trkpt>
      <trkpt lat="39.748590" lon="2.647410">
        <ele>184.086</ele>
        <time>2020-01-28T01:19:02Z</time>
      </trkpt>
      <trkpt lat="39.748720" lon="2.647640">
        <ele>182.074</ele>
        <time>2020-01-28T01:19:22Z</time>
      </trkpt>
      <trkpt lat="39.748600" lon="2.648020">
        <ele>180.097</ele>
        <time>2020-01-28T01:19:42Z</time>
      </trkpt>
      <trkpt lat="39.748580" lon="2.648160">
        <ele>179.042</ele>
        <time>2020-01-28T01:20:02Z</time>
      </trkpt>
      <trkpt lat="39.748630" lon="2.648250">
        <ele>179.022</ele>
        <time>2020-01-28T01:20:22Z</time>
      </trkpt>
      <trkpt lat="39.748910" lon="2.648120">
        <ele>177.014</ele>
        <time>2020-01-28T01:20:42Z</time>
      </trkpt>
      <trkpt lat="39.748970" lon="2.648150">
        <ele>177.008</ele>
        <time>2020-01-28T01:21:02Z</time>
      </trkpt>
      <trkpt lat="39.748970" lon="2.648220">
        <ele>176.028</ele>
        <time>2020-01-28T01:21:22Z</time>
      </trkpt>
      <trkpt lat="39.748860" lon="2.648310">
        <ele>176.099</ele>
        <time>2020-01-28T01:21:42Z</time>
      </trkpt>
      <trkpt lat="39.748730" lon="2.648360">
        <ele>175.063</ele>
        <time>2020-01-28T01:22:02Z</time>
      </trkpt>
      <trkpt lat="39.748670" lon="2.648390">
        <ele>174.070</ele>
        <time>2020-01-28T01:22:22Z</time>
      </trkpt>
      <trkpt lat="39.748990" lon="2.648430">
        <ele>173.055</ele>
        <time>2020-01-28T01:22:42Z</time>
      </trkpt>
      <trkpt lat="39.749070" lon="2.648400">
        <ele>172.021</ele>
        <time>2020-01-28T01:23:02Z</time>
      </trkpt>
      <trkpt lat="39.749670" lon="2.648430">
        <ele>169.019</ele>
        <time>2020-01-28T01:23:22Z</time>
      </trkpt>
      <trkpt lat="39.749790" lon="2.648430">
        <ele>169.062</ele>
        <time>2020-01-28T01:23:42Z</time>
      </trkpt>
      <trkpt lat="39.749860" lon="2.648400">
        <ele>169.068</ele>
        <time>2020-01-28T01:24:02Z</time>
      </trkpt>
      <trkpt lat="39.750660" lon="2.647410">
        <ele>166.042</ele>
        <time>2020-01-28T01:24:22Z</time>
      </trkpt>
      <trkpt lat="39.750730" lon="2.647350">
        <ele>165.026</ele>
        <time>2020-01-28T01:24:42Z</time>
      </trkpt>
      <trkpt lat="39.750860" lon="2.647280">
        <ele>165.008</ele>
        <time>2020-01-28T01:25:02Z</time>
      </trkpt>
      <trkpt lat="39.751270" lon="2.647250">
        <ele>164.030</ele>
        <time>2020-01-28T01:25:22Z</time>
      </trkpt>
      <trkpt lat="39.751490" lon="2.647210">
        <ele>163.091</ele>
        <time>2020-01-28T01:25:42Z</time>
      </trkpt>
      <trkpt lat="39.751630" lon="2.647130">
        <ele>162.075</ele>
        <time>2020-01-28T01:26:02Z</time>
      </trkpt>
      <trkpt lat="39.751740" lon="2.647050">
        <ele>162.032</ele>
        <time>2020-01-28T01:26:22Z</time>
      </trkpt>
      <trkpt lat="39.751960" lon="2.646820">
        <ele>161.077</ele>
        <time>2020-01-28T01:26:42Z</time>
      </trkpt>
      <trkpt lat="39.752170" lon="2.646630">
        <ele>160.013</ele>
        <time>2020-01-28T01:27:02Z</time>
      </trkpt>
      <trkpt lat="39.752230" lon="2.646620">
        <ele>160.071</ele>
        <time>2020-01-28T01:27:22Z</time>
      </trkpt>
      <trkpt lat="39.752300" lon="2.646640">
        <ele>160.014</ele>
        <time>2020-01-28T01:27:42Z</time>
      </trkpt>
      <trkpt lat="39.752750" lon="2.647160">
        <ele>158.011</ele>
        <time>2020-01-28T01:28:02Z</time>
      </trkpt>
      <trkpt lat="39.752880" lon="2.647220">
        <ele>157.021</ele>
        <time>2020-01-28T01:28:22Z</time>
      </trkpt>
      <trkpt lat="39.753510" lon="2.647110">
        <ele>156.003</ele>
        <time>2020-01-28T01:28:42Z</time>
      </trkpt>
      <trkpt lat="39.753690" lon="2.647150">
        <ele>156.008</ele>
        <time>2020-01-28T01:29:02Z</time>
      </trkpt>
      <trkpt lat="39.754560" lon="2.647800">
        <ele>155.095</ele>
        <time>2020-01-28T01:29:22Z</time>
      </trkpt>
      <trkpt lat="39.754650" lon="2.647870">
        <ele>154.036</ele>
        <time>2020-01-28T01:29:42Z</time>
      </trkpt>
      <trkpt lat="39.754720" lon="2.647880">
        <ele>154.010</ele>
        <time>2020-01-28T01:30:02Z</time>
      </trkpt>
      <trkpt lat="39.754790" lon="2.647850">
        <ele>154.017</ele>
        <time>2020-01-28T01:30:22Z</time>
      </trkpt>
      <trkpt lat="39.754860" lon="2.647780">
        <ele>153.032</ele>
        <time>2020-01-28T01:30:42Z</time>
      </trkpt>
      <trkpt lat="39.755220" lon="2.647260">
        <ele>151.078</ele>
        <time>2020-01-28T01:31:02Z</time>
      </trkpt>
      <trkpt lat="39.755290" lon="2.647200">
        <ele>151.086</ele>
        <time>2020-01-28T01:31:22Z</time>
      </trkpt>
      <trkpt lat="39.755760" lon="2.647070">
        <ele>148.089</ele>
        <time>2020-01-28T01:31:42Z</time>
      </trkpt>
      <trkpt lat="39.755910" lon="2.646970">
        <ele>148.011</ele>
        <time>2020-01-28T01:32:02Z</time>
      </trkpt>
      <trkpt lat="39.756120" lon="2.646790">
        <ele>147.021</ele>
        <time>2020-01-28T01:32:22Z</time>
      </trkpt>
      <trkpt lat="39.756220" lon="2.646750">
        <ele>146.003</ele>
        <time>2020-01-28T01:32:42Z</time>
      </trkpt>
      <trkpt lat="39.756290" lon="2.646750">
        <ele>146.008</ele>
        <time>2020-01-28T01:33:02Z</time>
      </trkpt>
      <trkpt lat="39.756430" lon="2.646790">
        <ele>145.045</ele>
        <time>2020-01-28T01:33:22Z</time>
      </trkpt>
      <trkpt lat="39.757700" lon="2.647260">
        <ele>145.076</ele>
        <time>2020-01-28T01:33:42Z</time>
      </trkpt>
      <trkpt lat="39.757780" lon="2.647310">
        <ele>145.020</ele>
        <time>2020-01-28T01:34:02Z</time>
      </trkpt>
      <trkpt lat="39.757860" lon="2.647390">
        <ele>145.087</ele>
        <time>2020-01-28T01:34:22Z</time>
      </trkpt>
      <trkpt lat="39.757930" lon="2.647510">
        <ele>145.082</ele>
        <time>2020-01-28T01:34:42Z</time>
      </trkpt>
      <trkpt lat="39.757950" lon="2.647610">
        <ele>145.028</ele>
        <time>2020-01-28T01:35:02Z</time>
      </trkpt>
      <trkpt lat="39.757960" lon="2.647730">
        <ele>145.036</ele>
        <time>2020-01-28T01:35:22Z</time>
      </trkpt>
      <trkpt lat="39.757900" lon="2.647940">
        <ele>144.039</ele>
        <time>2020-01-28T01:35:42Z</time>
      </trkpt>
      <trkpt lat="39.757820" lon="2.648070">
        <ele>144.084</ele>
        <time>2020-01-28T01:36:02Z</time>
      </trkpt>
      <trkpt lat="39.757640" lon="2.648320">
        <ele>143.007</ele>
        <time>2020-01-28T01:36:22Z</time>
      </trkpt>
      <trkpt lat="39.757600" lon="2.648400">
        <ele>142.017</ele>
        <time>2020-01-28T01:36:42Z</time>
      </trkpt>
      <trkpt lat="39.757590" lon="2.648500">
        <ele>142.008</ele>
        <time>2020-01-28T01:37:02Z</time>
      </trkpt>
      <trkpt lat="39.757640" lon="2.648740">
        <ele>141.062</ele>
        <time>2020-01-28T01:37:22Z</time>
      </trkpt>
      <trkpt lat="39.757880" lon="2.649500">
        <ele>138.023</ele>
        <time>2020-01-28T01:37:42Z</time>
      </trkpt>
      <trkpt lat="39.757910" lon="2.649690">
        <ele>138.077</ele>
        <time>2020-01-28T01:38:02Z</time>
      </trkpt>
      <trkpt lat="39.757910" lon="2.649840">
        <ele>137.084</ele>
        <time>2020-01-28T01:38:22Z</time>
      </trkpt>
      <trkpt lat="39.757880" lon="2.650250">
        <ele>136.059</ele>
        <time>2020-01-28T01:38:42Z</time>
      </trkpt>
      <trkpt lat="39.757890" lon="2.650310">
        <ele>136.035</ele>
        <time>2020-01-28T01:39:02Z</time>
      </trkpt>
      <trkpt lat="39.757930" lon="2.650360">
        <ele>136.083</ele>
        <time>2020-01-28T01:39:22Z</time>
      </trkpt>
      <trkpt lat="39.757970" lon="2.650400">
        <ele>136.016</ele>
        <time>2020-01-28T01:39:42Z</time>
      </trkpt>
      <trkpt lat="39.758020" lon="2.650420">
        <ele>136.029</ele>
        <time>2020-01-28T01:40:02Z</time>
      </trkpt>
      <trkpt lat="39.758140" lon="2.650410">
        <ele>136.000</ele>
        <time>2020-01-28T01:40:22Z</time>
      </trkpt>
      <trkpt lat="39.758240" lon="2.650380">
        <ele>136.020</ele>
        <time>2020-01-28T01:40:42Z</time>
      </trkpt>
      <trkpt lat="39.758360" lon="2.650330">
        <ele>136.008</ele>
        <time>2020-01-28T01:41:02Z</time>
      </trkpt>
      <trkpt lat="39.758660" lon="2.650050">
        <ele>136.066</ele>
        <time>2020-01-28T01:41:22Z</time>
      </trkpt>
      <trkpt lat="39.758760" lon="2.650020">
        <ele>136.077</ele>
        <time>2020-01-28T01:41:42Z</time>
      </trkpt>
      <trkpt lat="39.758860" lon="2.650110">
        <ele>136.091</ele>
        <time>2020-01-28T01:42:02Z</time>
      </trkpt>
      <trkpt lat="39.758980" lon="2.650270">
        <ele>136.088</ele>
        <time>2020-01-28T01:42:22Z</time>
      </trkpt>
      <trkpt lat="39.759070" lon="2.650350">
        <ele>136.013</ele>
        <time>2020-01-28T01:42:42Z</time>
      </trkpt>
      <trkpt lat="39.759250" lon="2.650420">
        <ele>136.039</ele>
        <time>2020-01-28T01:43:02Z</time>
      </trkpt>
      <trkpt lat="39.759320" lon="2.650430">
        <ele>136.067</ele>
        <time>2020-01-28T01:43:22Z</time>
      </trkpt>
      <trkpt lat="39.759540" lon="2.650420">
        <ele>136.030</ele>
        <time>2020-01-28T01:43:42Z</time>
      </trkpt>
      <trkpt lat="39.759680" lon="2.650440">
        <ele>136.054</ele>
        <time>2020-01-28T01:44:02Z</time>
      </trkpt>
      <trkpt lat="39.759950" lon="2.650530">
        <ele>135.056</ele>
        <time>2020-01-28T01:44:22Z</time>
      </trkpt>
      <trkpt lat="39.760390" lon="2.650700">
        <ele>133.011</ele>
        <time>2020-01-28T01:44:42Z</time>
      </trkpt>
      <trkpt lat="39.760520" lon="2.650720">
        <ele>133.008</ele>
        <time>2020-01-28T01:45:02Z</time>
      </trkpt>
      <trkpt lat="39.760590" lon="2.650700">
        <ele>132.079</ele>
        <time>2020-01-28T01:45:22Z</time>
      </trkpt>
      <trkpt lat="39.760670" lon="2.650620">
        <ele>132.070</ele>
        <time>2020-01-28T01:45:42Z</time>
      </trkpt>
      <trkpt lat="39.760770" lon="2.650470">
        <ele>132.064</ele>
        <time>2020-01-28T01:46:02Z</time>
      </trkpt>
      <trkpt lat="39.760880" lon="2.650390">
        <ele>131.011</ele>
        <time>2020-01-28T01:46:22Z</time>
      </trkpt>
      <trkpt lat="39.760940" lon="2.650380">
        <ele>131.086</ele>
        <time>2020-01-28T01:46:42Z</time>
      </trkpt>
      <trkpt lat="39.761030" lon="2.650410">
        <ele>131.092</ele>
        <time>2020-01-28T01:47:02Z</time>
      </trkpt>
      <trkpt lat="39.761080" lon="2.650480">
        <ele>130.070</ele>
        <time>2020-01-28T01:47:22Z</time>
      </trkpt>
      <trkpt lat="39.761150" lon="2.650640">
        <ele>130.063</ele>
        <time>2020-01-28T01:47:42Z</time>
      </trkpt>
      <trkpt lat="39.761430" lon="2.651410">
        <ele>127.079</ele>
        <time>2020-01-28T01:48:02Z</time>
      </trkpt>
      <trkpt lat="39.761420" lon="2.651410">
        <ele>126.005</ele>
        <time>2020-01-28T01:48:22Z</time>
      </trkpt>
      <trkpt lat="39.761520" lon="2.651580">
        <ele>125.025</ele>
        <time>2020-01-28T01:48:42Z</time>
      </trkpt>
      <trkpt lat="39.761850" lon="2.651890">
        <ele>122.008</ele>
        <time>2020-01-28T01:49:02Z</time>
      </trkpt>
      <trkpt lat="39.761950" lon="2.652020">
        <ele>121.081</ele>
        <time>2020-01-28T01:49:22Z</time>
      </trkpt>
      <trkpt lat="39.762000" lon="2.652180">
        <ele>120.082</ele>
        <time>2020-01-28T01:49:42Z</time>
      </trkpt>
      <trkpt lat="39.762040" lon="2.652250">
        <ele>120.096</ele>
        <time>2020-01-28T01:50:02Z</time>
      </trkpt>
      <trkpt lat="39.762100" lon="2.652290">
        <ele>119.083</ele>
        <time>2020-01-28T01:50:22Z</time>
      </trkpt>
      <trkpt lat="39.762290" lon="2.652360">
        <ele>118.088</ele>
        <time>2020-01-28T01:50:42Z</time>
      </trkpt>
      <trkpt lat="39.762560" lon="2.652640">
        <ele>115.064</ele>
        <time>2020-01-28T01:51:02Z</time>
      </trkpt>
      <trkpt lat="39.762670" lon="2.652710">
        <ele>114.072</ele>
        <time>2020-01-28T01:51:22Z</time>
      </trkpt>
      <trkpt lat="39.762900" lon="2.652780">
        <ele>113.055</ele>
        <time>2020-01-28T01:51:42Z</time>
      </trkpt>
      <trkpt lat="39.762990" lon="2.652830">
        <ele>113.028</ele>
        <time>2020-01-28T01:52:02Z</time>
      </trkpt>
      <trkpt lat="39.763250" lon="2.653060">
        <ele>111.089</ele>
        <time>2020-01-28T01:52:22Z</time>
      </trkpt>
      <trkpt lat="39.763460" lon="2.653290">
        <ele>110.017</ele>
        <time>2020-01-28T01:52:42Z</time>
      </trkpt>
      <trkpt lat="39.763570" lon="2.653500">
        <ele>110.008</ele>
        <time>2020-01-28T01:53:02Z</time>
      </trkpt>
      <trkpt lat="39.763640" lon="2.653700">
        <ele>109.066</ele>
        <time>2020-01-28T01:53:22Z</time>
      </trkpt>
      <trkpt lat="39.763740" lon="2.654180">
        <ele>107.067</ele>
        <time>2020-01-28T01:53:42Z</time>
      </trkpt>
      <trkpt lat="39.763800" lon="2.654340">
        <ele>107.031</ele>
        <time>2020-01-28T01:54:02Z</time>
      </trkpt>
      <trkpt lat="39.763910" lon="2.654530">
        <ele>106.058</ele>
        <time>2020-01-28T01:54:22Z</time>
      </trkpt>
      <trkpt lat="39.763980" lon="2.654580">
        <ele>106.093</ele>
        <time>2020-01-28T01:54:42Z</time>
      </trkpt>
      <trkpt lat="39.763970" lon="2.654580">
        <ele>106.029</ele>
        <time>2020-01-28T01:55:02Z</time>
      </trkpt>
      <trkpt lat="39.763910" lon="2.654530">
        <ele>105.067</ele>
        <time>2020-01-28T01:55:22Z</time>
      </trkpt>
      <trkpt lat="39.763920" lon="2.654500">
        <ele>105.030</ele>
        <time>2020-01-28T01:55:42Z</time>
      </trkpt>
      <trkpt lat="39.764010" lon="2.654490">
        <ele>104.075</ele>
        <time>2020-01-28T01:56:02Z</time>
      </trkpt>
      <trkpt lat="39.764130" lon="2.654550">
        <ele>103.028</ele>
        <time>2020-01-28T01:56:22Z</time>
      </trkpt>
      <trkpt lat="39.764650" lon="2.654570">
        <ele>97.020</ele>
        <time>2020-01-28T01:56:42Z</time>
      </trkpt>
      <trkpt lat="39.764690" lon="2.654500">
        <ele>96.008</ele>
        <time>2020-01-28T01:57:02Z</time>
      </trkpt>
      <trkpt lat="39.764690" lon="2.654460">
        <ele>96.091</ele>
        <time>2020-01-28T01:57:22Z</time>
      </trkpt>
      <trkpt lat="39.764690" lon="2.654460">
        <ele>96.022</ele>
        <time>2020-01-28T01:57:42Z</time>
      </trkpt>
      <trkpt lat="39.764690" lon="2.654400">
        <ele>95.026</ele>
        <time>2020-01-28T01:58:02Z</time>
      </trkpt>
      <trkpt lat="39.764650" lon="2.654300">
        <ele>95.063</ele>
        <time>2020-01-28T01:58:22Z</time>
      </trkpt>
      <trkpt lat="39.764510" lon="2.654220">
        <ele>93.048</ele>
        <time>2020-01-28T01:58:42Z</time>
      </trkpt>
      <trkpt lat="39.764510" lon="2.654140">
        <ele>92.094</ele>
        <time>2020-01-28T01:59:02Z</time>
      </trkpt>
      <trkpt lat="39.764540" lon="2.654120">
        <ele>92.082</ele>
        <time>2020-01-28T01:59:22Z</time>
      </trkpt>
      <trkpt lat="39.764600" lon="2.654060">
        <ele>91.015</ele>
        <time>2020-01-28T01:59:42Z</time>
      </trkpt>
      <trkpt lat="39.764750" lon="2.654060">
        <ele>89.041</ele>
        <time>2020-01-28T02:00:02Z</time>
      </trkpt>
      <trkpt lat="39.765000" lon="2.654140">
        <ele>87.081</ele>
        <time>2020-01-28T02:00:22Z</time>
      </trkpt>
      <trkpt lat="39.765110" lon="2.654230">
        <ele>85.009</ele>
        <time>2020-01-28T02:00:42Z</time>
      </trkpt>
      <trkpt lat="39.765150" lon="2.654210">
        <ele>85.008</ele>
        <time>2020-01-28T02:01:02Z</time>
      </trkpt>
      <trkpt lat="39.765120" lon="2.653890">
        <ele>85.028</ele>
        <time>2020-01-28T02:01:22Z</time>
      </trkpt>
      <trkpt lat="39.765170" lon="2.653740">
        <ele>87.089</ele>
        <time>2020-01-28T02:01:42Z</time>
      </trkpt>
      <trkpt lat="39.765240" lon="2.653560">
        <ele>89.013</ele>
        <time>2020-01-28T02:02:02Z</time>
      </trkpt>
      <trkpt lat="39.765300" lon="2.653410">
        <ele>91.060</ele>
        <time>2020-01-28T02:02:22Z</time>
      </trkpt>
      <trkpt lat="39.765310" lon="2.653290">
        <ele>92.075</ele>
        <time>2020-01-28T02:02:42Z</time>
      </trkpt>
      <trkpt lat="39.765350" lon="2.653430">
        <ele>94.051</ele>
        <time>2020-01-28T02:03:02Z</time>
      </trkpt>
      <trkpt lat="39.765260" lon="2.653600">
        <ele>96.089</ele>
        <time>2020-01-28T02:03:22Z</time>
      </trkpt>
      <trkpt lat="39.765160" lon="2.653910">
        <ele>99.032</ele>
        <time>2020-01-28T02:03:42Z</time>
      </trkpt>
      <trkpt lat="39.765180" lon="2.654170">
        <ele>102.064</ele>
        <time>2020-01-28T02:04:02Z</time>
      </trkpt>
      <trkpt lat="39.765180" lon="2.654290">
        <ele>103.006</ele>
        <time>2020-01-28T02:04:22Z</time>
      </trkpt>
      <trkpt lat="39.765070" lon="2.654290">
        <ele>104.016</ele>
        <time>2020-01-28T02:04:42Z</time>
      </trkpt>
      <trkpt lat="39.764980" lon="2.654200">
        <ele>106.008</ele>
        <time>2020-01-28T02:05:02Z</time>
      </trkpt>
      <trkpt lat="39.764870" lon="2.654140">
        <ele>108.080</ele>
        <time>2020-01-28T02:05:22Z</time>
      </trkpt>
      <trkpt lat="39.764760" lon="2.654120">
        <ele>109.071</ele>
        <time>2020-01-28T02:05:42Z</time>
      </trkpt>
      <trkpt lat="39.764590" lon="2.654090">
        <ele>111.035</ele>
        <time>2020-01-28T02:06:02Z</time>
      </trkpt>
      <trkpt lat="39.764520" lon="2.654160">
        <ele>111.042</ele>
        <time>2020-01-28T02:06:22Z</time>
      </trkpt>
      <trkpt lat="39.764650" lon="2.654330">
        <ele>112.087</ele>
        <time>2020-01-28T02:06:42Z</time>
      </trkpt>
      <trkpt lat="39.764660" lon="2.654320">
        <ele>112.093</ele>
        <time>2020-01-28T02:07:02Z</time>
      </trkpt>
      <trkpt lat="39.764690" lon="2.654400">
        <ele>112.061</ele>
        <time>2020-01-28T02:07:22Z</time>
      </trkpt>
      <trkpt lat="39.764690" lon="2.654500">
        <ele>113.014</ele>
        <time>2020-01-28T02:07:42Z</time>
      </trkpt>
      <trkpt lat="39.764650" lon="2.654570">
        <ele>113.017</ele>
        <time>2020-01-28T02:08:02Z</time>
      </trkpt>
      <trkpt lat="39.764420" lon="2.654560">
        <ele>114.087</ele>
        <time>2020-01-28T02:08:22Z</time>
      </trkpt>
      <trkpt lat="39.764410" lon="2.654560">
        <ele>114.015</ele>
        <time>2020-01-28T02:08:42Z</time>
      </trkpt>
      <trkpt lat="39.764130" lon="2.654550">
        <ele>115.008</ele>
        <time>2020-01-28T02:09:02Z</time>
      </trkpt>
      <trkpt lat="39.764010" lon="2.654490">
        <ele>116.025</ele>
        <time>2020-01-28T02:09:22Z</time>
      </trkpt>
      <trkpt lat="39.763920" lon="2.654500">
        <ele>116.096</ele>
        <time>2020-01-28T02:09:42Z</time>
      </trkpt>
      <trkpt lat="39.763900" lon="2.654530">
        <ele>116.060</ele>
        <time>2020-01-28T02:10:02Z</time>
      </trkpt>
      <trkpt lat="39.764270" lon="2.654800">
        <ele>118.087</ele>
        <time>2020-01-28T02:10:22Z</time>
      </trkpt>
      <trkpt lat="39.764590" lon="2.655080">
        <ele>120.052</ele>
        <time>2020-01-28T02:10:42Z</time>
      </trkpt>
      <trkpt lat="39.764810" lon="2.655220">
        <ele>121.058</ele>
        <time>2020-01-28T02:11:02Z</time>
      </trkpt>
      <trkpt lat="39.764810" lon="2.655220">
        <ele>121.046</ele>
        <time>2020-01-28T02:11:22Z</time>
      </trkpt>
      <trkpt lat="39.764930" lon="2.655290">
        <ele>121.079</ele>
        <time>2020-01-28T02:11:42Z</time>
      </trkpt>
      <trkpt lat="39.765120" lon="2.655460">
        <ele>122.051</ele>
        <time>2020-01-28T02:12:02Z</time>
      </trkpt>
      <trkpt lat="39.765550" lon="2.655920">
        <ele>125.001</ele>
        <time>2020-01-28T02:12:22Z</time>
      </trkpt>
      <trkpt lat="39.765620" lon="2.656030">
        <ele>125.011</ele>
        <time>2020-01-28T02:12:42Z</time>
      </trkpt>
      <trkpt lat="39.765690" lon="2.656250">
        <ele>126.008</ele>
        <time>2020-01-28T02:13:02Z</time>
      </trkpt>
      <trkpt lat="39.765910" lon="2.656610">
        <ele>127.099</ele>
        <time>2020-01-28T02:13:22Z</time>
      </trkpt>
      <trkpt lat="39.765960" lon="2.656820">
        <ele>128.060</ele>
        <time>2020-01-28T02:13:42Z</time>
      </trkpt>
      <trkpt lat="39.766050" lon="2.657050">
        <ele>129.044</ele>
        <time>2020-01-28T02:14:02Z</time>
      </trkpt>
      <trkpt lat="39.766300" lon="2.657390">
        <ele>132.041</ele>
        <time>2020-01-28T02:14:22Z</time>
      </trkpt>
      <trkpt lat="39.766360" lon="2.657560">
        <ele>133.066</ele>
        <time>2020-01-28T02:14:42Z</time>
      </trkpt>
      <trkpt lat="39.766370" lon="2.657670">
        <ele>133.072</ele>
        <time>2020-01-28T02:15:02Z</time>
      </trkpt>
      <trkpt lat="39.766310" lon="2.658070">
        <ele>136.040</ele>
        <time>2020-01-28T02:15:22Z</time>
      </trkpt>
      <trkpt lat="39.766310" lon="2.658300">
        <ele>137.013</ele>
        <time>2020-01-28T02:15:42Z</time>
      </trkpt>
      <trkpt lat="39.766350" lon="2.658400">
        <ele>137.026</ele>
        <time>2020-01-28T02:16:02Z</time>
      </trkpt>
      <trkpt lat="39.766530" lon="2.658670">
        <ele>139.047</ele>
        <time>2020-01-28T02:16:22Z</time>
      </trkpt>
      <trkpt lat="39.766600" lon="2.658880">
        <ele>140.011</ele>
        <time>2020-01-28T02:16:42Z</time>
      </trkpt>
      <trkpt lat="39.766660" lon="2.659090">
        <ele>142.008</ele>
        <time>2020-01-28T02:17:02Z</time>
      </trkpt>
      <trkpt lat="39.766760" lon="2.659320">
        <ele>142.016</ele>
        <time>2020-01-28T02:17:22Z</time>
      </trkpt>
      <trkpt lat="39.766840" lon="2.659600">
        <ele>142.037</ele>
        <time>2020-01-28T02:17:42Z</time>
      </trkpt>
      <trkpt lat="39.766930" lon="2.660120">
        <ele>142.081</ele>
        <time>2020-01-28T02:18:02Z</time>
      </trkpt>
      <trkpt lat="39.767080" lon="2.660660">
        <ele>143.098</ele>
        <time>2020-01-28T02:18:22Z</time>
      </trkpt>
      <trkpt lat="39.767130" lon="2.660740">
        <ele>143.093</ele>
        <time>2020-01-28T02:18:42Z</time>
      </trkpt>
      <trkpt lat="39.767310" lon="2.660880">
        <ele>143.069</ele>
        <time>2020-01-28T02:19:02Z</time>
      </trkpt>
      <trkpt lat="39.767550" lon="2.660980">
        <ele>143.097</ele>
        <time>2020-01-28T02:19:22Z</time>
      </trkpt>
      <trkpt lat="39.767640" lon="2.661050">
        <ele>143.040</ele>
        <time>2020-01-28T02:19:42Z</time>
      </trkpt>
      <trkpt lat="39.767910" lon="2.661350">
        <ele>145.097</ele>
        <time>2020-01-28T02:20:02Z</time>
      </trkpt>
      <trkpt lat="39.768000" lon="2.661400">
        <ele>146.023</ele>
        <time>2020-01-28T02:20:22Z</time>
      </trkpt>
      <trkpt lat="39.768240" lon="2.661490">
        <ele>147.025</ele>
        <time>2020-01-28T02:20:42Z</time>
      </trkpt>
      <trkpt lat="39.768400" lon="2.661610">
        <ele>148.008</ele>
        <time>2020-01-28T02:21:02Z</time>
      </trkpt>
      <trkpt lat="39.768530" lon="2.661770">
        <ele>149.023</ele>
        <time>2020-01-28T02:21:22Z</time>
      </trkpt>
      <trkpt lat="39.768580" lon="2.661900">
        <ele>149.084</ele>
        <time>2020-01-28T02:21:42Z</time>
      </trkpt>
      <trkpt lat="39.768590" lon="2.661950">
        <ele>150.048</ele>
        <time>2020-01-28T02:22:02Z</time>
      </trkpt>
      <trkpt lat="39.768600" lon="2.662550">
        <ele>152.095</ele>
        <time>2020-01-28T02:22:22Z</time>
      </trkpt>
      <trkpt lat="39.768620" lon="2.662680">
        <ele>153.090</ele>
        <time>2020-01-28T02:22:42Z</time>
      </trkpt>
      <trkpt lat="39.768660" lon="2.662780">
        <ele>153.036</ele>
        <time>2020-01-28T02:23:02Z</time>
      </trkpt>
      <trkpt lat="39.768790" lon="2.663020">
        <ele>154.024</ele>
        <time>2020-01-28T02:23:22Z</time>
      </trkpt>
      <trkpt lat="39.768940" lon="2.663210">
        <ele>156.087</ele>
        <time>2020-01-28T02:23:42Z</time>
      </trkpt>
      <trkpt lat="39.769050" lon="2.663300">
        <ele>157.024</ele>
        <time>2020-01-28T02:24:02Z</time>
      </trkpt>
      <trkpt lat="39.769190" lon="2.663350">
        <ele>158.004</ele>
        <time>2020-01-28T02:24:22Z</time>
      </trkpt>
      <trkpt lat="39.769420" lon="2.663380">
        <ele>160.014</ele>
        <time>2020-01-28T02:24:42Z</time>
      </trkpt>
      <trkpt lat="39.769520" lon="2.663420">
        <ele>161.008</ele>
        <time>2020-01-28T02:25:02Z</time>
      </trkpt>
      <trkpt lat="39.769600" lon="2.663490">
        <ele>162.056</ele>
        <time>2020-01-28T02:25:22Z</time>
      </trkpt>
      <trkpt lat="39.769740" lon="2.663650">
        <ele>163.057</ele>
        <time>2020-01-28T02:25:42Z</time>
      </trkpt>
      <trkpt lat="39.769900" lon="2.663780">
        <ele>165.031</ele>
        <time>2020-01-28T02:26:02Z</time>
      </trkpt>
      <trkpt lat="39.770120" lon="2.663900">
        <ele>166.038</ele>
        <time>2020-01-28T02:26:22Z</time>
      </trkpt>
      <trkpt lat="39.770460" lon="2.664260">
        <ele>170.063</ele>
        <time>2020-01-28T02:26:42Z</time>
      </trkpt>
      <trkpt lat="39.770930" lon="2.664640">
        <ele>172.029</ele>
        <time>2020-01-28T02:27:02Z</time>
      </trkpt>
      <trkpt lat="39.770970" lon="2.664720">
        <ele>172.017</ele>
        <time>2020-01-28T02:27:22Z</time>
      </trkpt>
      <trkpt lat="39.770990" lon="2.664830">
        <ele>172.050</ele>
        <time>2020-01-28T02:27:42Z</time>
      </trkpt>
      <trkpt lat="39.770990" lon="2.665740">
        <ele>174.027</ele>
        <time>2020-01-28T02:28:02Z</time>
      </trkpt>
      <trkpt lat="39.770930" lon="2.666410">
        <ele>176.068</ele>
        <time>2020-01-28T02:28:22Z</time>
      </trkpt>
      <trkpt lat="39.770870" lon="2.666530">
        <ele>176.014</ele>
        <time>2020-01-28T02:28:42Z</time>
      </trkpt>
      <trkpt lat="39.770320" lon="2.667070">
        <ele>175.008</ele>
        <time>2020-01-28T02:29:02Z</time>
      </trkpt>
      <trkpt lat="39.770190" lon="2.667300">
        <ele>175.016</ele>
        <time>2020-01-28T02:29:22Z</time>
      </trkpt>
      <trkpt lat="39.770170" lon="2.667390">
        <ele>175.067</ele>
        <time>2020-01-28T02:29:42Z</time>
      </trkpt>
      <trkpt lat="39.770180" lon="2.667560">
        <ele>174.041</ele>
        <time>2020-01-28T02:30:02Z</time>
      </trkpt>
      <trkpt lat="39.770250" lon="2.667830">
        <ele>174.088</ele>
        <time>2020-01-28T02:30:22Z</time>
      </trkpt>
      <trkpt lat="39.770290" lon="2.667930">
        <ele>174.033</ele>
        <time>2020-01-28T02:30:42Z</time>
      </trkpt>
      <trkpt lat="39.770340" lon="2.667970">
        <ele>174.039</ele>
        <time>2020-01-28T02:31:02Z</time>
      </trkpt>
      <trkpt lat="39.770450" lon="2.667950">
        <ele>173.067</ele>
        <time>2020-01-28T02:31:22Z</time>
      </trkpt>
      <trkpt lat="39.770610" lon="2.667870">
        <ele>173.090</ele>
        <time>2020-01-28T02:31:42Z</time>
      </trkpt>
      <trkpt lat="39.770690" lon="2.667840">
        <ele>173.035</ele>
        <time>2020-01-28T02:32:02Z</time>
      </trkpt>
      <trkpt lat="39.770760" lon="2.667850">
        <ele>173.086</ele>
        <time>2020-01-28T02:32:22Z</time>
      </trkpt>
      <trkpt lat="39.770850" lon="2.667910">
        <ele>173.014</ele>
        <time>2020-01-28T02:32:42Z</time>
      </trkpt>
      <trkpt lat="39.771140" lon="2.668240">
        <ele>174.008</ele>
        <time>2020-01-28T02:33:02Z</time>
      </trkpt>
      <trkpt lat="39.771190" lon="2.668270">
        <ele>174.087</ele>
        <time>2020-01-28T02:33:22Z</time>
      </trkpt>
      <trkpt lat="39.771570" lon="2.668310">
        <ele>176.038</ele>
        <time>2020-01-28T02:33:42Z</time>
      </trkpt>
      <trkpt lat="39.771660" lon="2.668360">
        <ele>177.092</ele>
        <time>2020-01-28T02:34:02Z</time>
      </trkpt>
      <trkpt lat="39.772150" lon="2.668760">
        <ele>180.099</ele>
        <time>2020-01-28T02:34:22Z</time>
      </trkpt>
      <trkpt lat="39.772310" lon="2.668910">
        <ele>180.034</ele>
        <time>2020-01-28T02:34:42Z</time>
      </trkpt>
      <trkpt lat="39.772570" lon="2.669210">
        <ele>182.040</ele>
        <time>2020-01-28T02:35:02Z</time>
      </trkpt>
      <trkpt lat="39.772890" lon="2.669620">
        <ele>185.028</ele>
        <time>2020-01-28T02:35:22Z</time>
      </trkpt>
      <trkpt lat="39.773190" lon="2.669740">
        <ele>187.041</ele>
        <time>2020-01-28T02:35:42Z</time>
      </trkpt>
      <trkpt lat="39.773290" lon="2.669810">
        <ele>188.083</ele>
        <time>2020-01-28T02:36:02Z</time>
      </trkpt>
      <trkpt lat="39.773370" lon="2.669940">
        <ele>189.025</ele>
        <time>2020-01-28T02:36:22Z</time>
      </trkpt>
      <trkpt lat="39.773470" lon="2.670240">
        <ele>191.017</ele>
        <time>2020-01-28T02:36:42Z</time>
      </trkpt>
      <trkpt lat="39.773490" lon="2.670360">
        <ele>191.008</ele>
        <time>2020-01-28T02:37:02Z</time>
      </trkpt>
      <trkpt lat="39.773500" lon="2.670680">
        <ele>193.052</ele>
        <time>2020-01-28T02:37:22Z</time>
      </trkpt>
      <trkpt lat="39.773630" lon="2.670980">
        <ele>195.043</ele>
        <time>2020-01-28T02:37:42Z</time>
      </trkpt>
      <trkpt lat="39.773700" lon="2.671120">
        <ele>196.047</ele>
        <time>2020-01-28T02:38:02Z</time>
      </trkpt>
      <trkpt lat="39.773730" lon="2.671210">
        <ele>196.084</ele>
        <time>2020-01-28T02:38:22Z</time>
      </trkpt>
      <trkpt lat="39.773730" lon="2.671520">
        <ele>198.099</ele>
        <time>2020-01-28T02:38:42Z</time>
      </trkpt>
      <trkpt lat="39.773750" lon="2.671580">
        <ele>198.055</ele>
        <time>2020-01-28T02:39:02Z</time>
      </trkpt>
      <trkpt lat="39.773930" lon="2.671940">
        <ele>200.013</ele>
        <time>2020-01-28T02:39:22Z</time>
      </trkpt>
      <trkpt lat="39.774070" lon="2.672770">
        <ele>204.016</ele>
        <time>2020-01-28T02:39:42Z</time>
      </trkpt>
      <trkpt lat="39.774100" lon="2.672870">
        <ele>205.077</ele>
        <time>2020-01-28T02:40:02Z</time>
      </trkpt>
      <trkpt lat="39.774320" lon="2.673100">
        <ele>207.061</ele>
        <time>2020-01-28T02:40:22Z</time>
      </trkpt>
      <trkpt lat="39.774380" lon="2.673200">
        <ele>207.027</ele>
        <time>2020-01-28T02:40:42Z</time>
      </trkpt>
      <trkpt lat="39.774450" lon="2.673500">
        <ele>209.008</ele>
        <time>2020-01-28T02:41:02Z</time>
      </trkpt>
      <trkpt lat="39.774480" lon="2.673750">
        <ele>210.041</ele>
        <time>2020-01-28T02:41:22Z</time>
      </trkpt>
      <trkpt lat="39.774480" lon="2.674210">
        <ele>212.062</ele>
        <time>2020-01-28T02:41:42Z</time>
      </trkpt>
      <trkpt lat="39.774430" lon="2.674410">
        <ele>212.046</ele>
        <time>2020-01-28T02:42:02Z</time>
      </trkpt>
      <trkpt lat="39.774310" lon="2.674640">
        <ele>213.083</ele>
        <time>2020-01-28T02:42:22Z</time>
      </trkpt>
      <trkpt lat="39.774290" lon="2.674730">
        <ele>214.078</ele>
        <time>2020-01-28T02:42:42Z</time>
      </trkpt>
      <trkpt lat="39.774250" lon="2.675160">
        <ele>215.084</ele>
        <time>2020-01-28T02:43:02Z</time>
      </trkpt>
      <trkpt lat="39.774150" lon="2.675660">
        <ele>217.052</ele>
        <time>2020-01-28T02:43:22Z</time>
      </trkpt>
      <trkpt lat="39.774140" lon="2.675810">
        <ele>217.045</ele>
        <time>2020-01-28T02:43:42Z</time>
      </trkpt>
      <trkpt lat="39.774140" lon="2.675930">
        <ele>218.065</ele>
        <time>2020-01-28T02:44:02Z</time>
      </trkpt>
      <trkpt lat="39.774170" lon="2.676000">
        <ele>218.068</ele>
        <time>2020-01-28T02:44:22Z</time>
      </trkpt>
      <trkpt lat="39.774230" lon="2.676060">
        <ele>218.014</ele>
        <time>2020-01-28T02:44:42Z</time>
      </trkpt>
      <trkpt lat="39.774310" lon="2.676090">
        <ele>219.008</ele>
        <time>2020-01-28T02:45:02Z</time>
      </trkpt>
      <trkpt lat="39.774580" lon="2.676100">
        <ele>220.090</ele>
        <time>2020-01-28T02:45:22Z</time>
      </trkpt>
      <trkpt lat="39.774620" lon="2.676130">
        <ele>220.021</ele>
        <time>2020-01-28T02:45:42Z</time>
      </trkpt>
      <trkpt lat="39.774650" lon="2.676210">
        <ele>220.045</ele>
        <time>2020-01-28T02:46:02Z</time>
      </trkpt>
      <trkpt lat="39.774640" lon="2.676240">
        <ele>221.072</ele>
        <time>2020-01-28T02:46:22Z</time>
      </trkpt>
      <trkpt lat="39.774620" lon="2.676280">
        <ele>221.027</ele>
        <time>2020-01-28T02:46:42Z</time>
      </trkpt>
      <trkpt lat="39.774570" lon="2.676300">
        <ele>221.073</ele>
        <time>2020-01-28T02:47:02Z</time>
      </trkpt>
      <trkpt lat="39.774300" lon="2.676300">
        <ele>222.071</ele>
        <time>2020-01-28T02:47:22Z</time>
      </trkpt>
      <trkpt lat="39.774070" lon="2.676330">
        <ele>223.014</ele>
        <time>2020-01-28T02:47:42Z</time>
      </trkpt>
      <trkpt lat="39.773850" lon="2.676490">
        <ele>224.086</ele>
        <time>2020-01-28T02:48:02Z</time>
      </trkpt>
      <trkpt lat="39.773760" lon="2.676520">
        <ele>225.060</ele>
        <time>2020-01-28T02:48:22Z</time>
      </trkpt>
      <trkpt lat="39.773550" lon="2.676560">
        <ele>226.026</ele>
        <time>2020-01-28T02:48:42Z</time>
      </trkpt>
      <trkpt lat="39.772490" lon="2.676650">
        <ele>222.008</ele>
        <time>2020-01-28T02:49:02Z</time>
      </trkpt>
      <trkpt lat="39.772440" lon="2.676670">
        <ele>221.012</ele>
        <time>2020-01-28T02:49:22Z</time>
      </trkpt>
      <trkpt lat="39.772390" lon="2.676740">
        <ele>220.013</ele>
        <time>2020-01-28T02:49:42Z</time>
      </trkpt>
      <trkpt lat="39.772350" lon="2.676980">
        <ele>219.077</ele>
        <time>2020-01-28T02:50:02Z</time>
      </trkpt>
      <trkpt lat="39.772350" lon="2.677060">
        <ele>218.034</ele>
        <time>2020-01-28T02:50:22Z</time>
      </trkpt>
      <trkpt lat="39.772460" lon="2.677350">
        <ele>216.039</ele>
        <time>2020-01-28T02:50:42Z</time>
      </trkpt>
      <trkpt lat="39.772520" lon="2.677590">
        <ele>214.065</ele>
        <time>2020-01-28T02:51:02Z</time>
      </trkpt>
      <trkpt lat="39.772530" lon="2.678100">
        <ele>210.033</ele>
        <time>2020-01-28T02:51:22Z</time>
      </trkpt>
      <trkpt lat="39.772570" lon="2.678430">
        <ele>208.086</ele>
        <time>2020-01-28T02:51:42Z</time>
      </trkpt>
      <trkpt lat="39.772650" lon="2.678940">
        <ele>207.098</ele>
        <time>2020-01-28T02:52:02Z</time>
      </trkpt>
      <trkpt lat="39.772690" lon="2.679310">
        <ele>205.015</ele>
        <time>2020-01-28T02:52:22Z</time>
      </trkpt>
      <trkpt lat="39.772700" lon="2.679870">
        <ele>204.026</ele>
        <time>2020-01-28T02:52:42Z</time>
      </trkpt>
      <trkpt lat="39.772710" lon="2.679910">
        <ele>204.008</ele>
        <time>2020-01-28T02:53:02Z</time>
      </trkpt>
      <trkpt lat="39.772770" lon="2.679970">
        <ele>203.073</ele>
        <time>2020-01-28T02:53:22Z</time>
      </trkpt>
      <trkpt lat="39.772970" lon="2.680060">
        <ele>203.024</ele>
        <time>2020-01-28T02:53:42Z</time>
      </trkpt>
      <trkpt lat="39.773060" lon="2.680140">
        <ele>202.038</ele>
        <time>2020-01-28T02:54:02Z</time>
      </trkpt>
      <trkpt lat="39.773110" lon="2.680230">
        <ele>202.045</ele>
        <time>2020-01-28T02:54:22Z</time>
      </trkpt>
      <trkpt lat="39.773110" lon="2.680420">
        <ele>201.040</ele>
        <time>2020-01-28T02:54:42Z</time>
      </trkpt>
      <trkpt lat="39.773080" lon="2.680610">
        <ele>201.086</ele>
        <time>2020-01-28T02:55:02Z</time>
      </trkpt>
      <trkpt lat="39.773090" lon="2.680670">
        <ele>200.064</ele>
        <time>2020-01-28T02:55:22Z</time>
      </trkpt>
      <trkpt lat="39.773120" lon="2.680770">
        <ele>200.017</ele>
        <time>2020-01-28T02:55:42Z</time>
      </trkpt>
      <trkpt lat="39.773260" lon="2.680950">
        <ele>198.097</ele>
        <time>2020-01-28T02:56:02Z</time>
      </trkpt>
      <trkpt lat="39.773290" lon="2.681030">
        <ele>197.023</ele>
        <time>2020-01-28T02:56:22Z</time>
      </trkpt>
      <trkpt lat="39.773290" lon="2.681130">
        <ele>196.025</ele>
        <time>2020-01-28T02:56:42Z</time>
      </trkpt>
      <trkpt lat="39.773260" lon="2.681480">
        <ele>194.008</ele>
        <time>2020-01-28T02:57:02Z</time>
      </trkpt>
      <trkpt lat="39.773260" lon="2.681780">
        <ele>192.083</ele>
        <time>2020-01-28T02:57:22Z</time>
      </trkpt>
      <trkpt lat="39.773350" lon="2.682140">
        <ele>189.014</ele>
        <time>2020-01-28T02:57:42Z</time>
      </trkpt>
      <trkpt lat="39.773350" lon="2.682130">
        <ele>189.058</ele>
        <time>2020-01-28T02:58:02Z</time>
      </trkpt>
      <trkpt lat="39.773470" lon="2.683030">
        <ele>182.015</ele>
        <time>2020-01-28T02:58:22Z</time>
      </trkpt>
      <trkpt lat="39.773500" lon="2.683200">
        <ele>181.010</ele>
        <time>2020-01-28T02:58:42Z</time>
      </trkpt>
      <trkpt lat="39.773550" lon="2.683300">
        <ele>181.096</ele>
        <time>2020-01-28T02:59:02Z</time>
      </trkpt>
      <trkpt lat="39.773740" lon="2.683400">
        <ele>180.044</ele>
        <time>2020-01-28T02:59:22Z</time>
      </trkpt>
      <trkpt lat="39.773820" lon="2.683480">
        <ele>180.067</ele>
        <time>2020-01-28T02:59:42Z</time>
      </trkpt>
      <trkpt lat="39.773930" lon="2.683640">
        <ele>179.069</ele>
        <time>2020-01-28T03:00:02Z</time>
      </trkpt>
      <trkpt lat="39.773970" lon="2.683740">
        <ele>179.004</ele>
        <time>2020-01-28T03:00:22Z</time>
      </trkpt>
      <trkpt lat="39.774000" lon="2.683890">
        <ele>179.024</ele>
        <time>2020-01-28T03:00:42Z</time>
      </trkpt>
      <trkpt lat="39.774000" lon="2.684030">
        <ele>178.008</ele>
        <time>2020-01-28T03:01:02Z</time>
      </trkpt>
      <trkpt lat="39.773940" lon="2.684520">
        <ele>177.050</ele>
        <time>2020-01-28T03:01:22Z</time>
      </trkpt>
      <trkpt lat="39.773960" lon="2.684940">
        <ele>176.021</ele>
        <time>2020-01-28T03:01:42Z</time>
      </trkpt>
      <trkpt lat="39.774000" lon="2.685090">
        <ele>175.015</ele>
        <time>2020-01-28T03:02:02Z</time>
      </trkpt>
      <trkpt lat="39.774030" lon="2.685150">
        <ele>175.072</ele>
        <time>2020-01-28T03:02:22Z</time>
      </trkpt>
      <trkpt lat="39.774260" lon="2.685400">
        <ele>174.077</ele>
        <time>2020-01-28T03:02:42Z</time>
      </trkpt>
      <trkpt lat="39.774320" lon="2.685510">
        <ele>173.043</ele>
        <time>2020-01-28T03:03:02Z</time>
      </trkpt>
      <trkpt lat="39.774340" lon="2.685580">
        <ele>173.011</ele>
        <time>2020-01-28T03:03:22Z</time>
      </trkpt>
      <trkpt lat="39.774340" lon="2.685650">
        <ele>173.084</ele>
        <time>2020-01-28T03:03:42Z</time>
      </trkpt>
      <trkpt lat="39.774310" lon="2.685730">
        <ele>173.085</ele>
        <time>2020-01-28T03:04:02Z</time>
      </trkpt>
      <trkpt lat="39.774240" lon="2.685760">
        <ele>172.089</ele>
        <time>2020-01-28T03:04:22Z</time>
      </trkpt>
      <trkpt lat="39.774080" lon="2.685800">
        <ele>171.017</ele>
        <time>2020-01-28T03:04:42Z</time>
      </trkpt>
      <trkpt lat="39.774020" lon="2.685850">
        <ele>171.008</ele>
        <time>2020-01-28T03:05:02Z</time>
      </trkpt>
      <trkpt lat="39.774000" lon="2.685920">
        <ele>171.072</ele>
        <time>2020-01-28T03:05:22Z</time>
      </trkpt>
      <trkpt lat="39.774000" lon="2.685980">
        <ele>170.023</ele>
        <time>2020-01-28T03:05:42Z</time>
      </trkpt>
      <trkpt lat="39.774020" lon="2.686030">
        <ele>170.077</ele>
        <time>2020-01-28T03:06:02Z</time>
      </trkpt>
      <trkpt lat="39.774060" lon="2.686060">
        <ele>170.014</ele>
        <time>2020-01-28T03:06:22Z</time>
      </trkpt>
      <trkpt lat="39.774150" lon="2.686060">
        <ele>169.089</ele>
        <time>2020-01-28T03:06:42Z</time>
      </trkpt>
      <trkpt lat="39.774530" lon="2.685990">
        <ele>167.035</ele>
        <time>2020-01-28T03:07:02Z</time>
      </trkpt>
      <trkpt lat="39.774570" lon="2.685960">
        <ele>167.053</ele>
        <time>2020-01-28T03:07:22Z</time>
      </trkpt>
      <trkpt lat="39.774590" lon="2.685920">
        <ele>167.076</ele>
        <time>2020-01-28T03:07:42Z</time>
      </trkpt>
      <trkpt lat="39.774590" lon="2.685830">
        <ele>166.026</ele>
        <time>2020-01-28T03:08:02Z</time>
      </trkpt>
      <trkpt lat="39.774490" lon="2.685440">
        <ele>165.047</ele>
        <time>2020-01-28T03:08:22Z</time>
      </trkpt>
      <trkpt lat="39.774500" lon="2.685380">
        <ele>164.011</ele>
        <time>2020-01-28T03:08:42Z</time>
      </trkpt>
      <trkpt lat="39.774620" lon="2.685060">
        <ele>163.008</ele>
        <time>2020-01-28T03:09:02Z</time>
      </trkpt>
      <trkpt lat="39.774630" lon="2.684990">
        <ele>163.066</ele>
        <time>2020-01-28T03:09:22Z</time>
      </trkpt>
      <trkpt lat="39.774630" lon="2.684330">
        <ele>160.087</ele>
        <time>2020-01-28T03:09:42Z</time>
      </trkpt>
      <trkpt lat="39.774600" lon="2.684050">
        <ele>159.081</ele>
        <time>2020-01-28T03:10:02Z</time>
      </trkpt>
      <trkpt lat="39.774560" lon="2.683920">
        <ele>159.078</ele>
        <time>2020-01-28T03:10:22Z</time>
      </trkpt>
      <trkpt lat="39.774530" lon="2.683850">
        <ele>158.023</ele>
        <time>2020-01-28T03:10:42Z</time>
      </trkpt>
      <trkpt lat="39.774420" lon="2.683710">
        <ele>158.099</ele>
        <time>2020-01-28T03:11:02Z</time>
      </trkpt>
      <trkpt lat="39.774390" lon="2.683640">
        <ele>157.037</ele>
        <time>2020-01-28T03:11:22Z</time>
      </trkpt>
      <trkpt lat="39.774390" lon="2.683580">
        <ele>157.030</ele>
        <time>2020-01-28T03:11:42Z</time>
      </trkpt>
      <trkpt lat="39.774410" lon="2.683540">
        <ele>157.016</ele>
        <time>2020-01-28T03:12:02Z</time>
      </trkpt>
      <trkpt lat="39.774480" lon="2.683510">
        <ele>156.076</ele>
        <time>2020-01-28T03:12:22Z</time>
      </trkpt>
      <trkpt lat="39.774530" lon="2.683550">
        <ele>156.013</ele>
        <time>2020-01-28T03:12:42Z</time>
      </trkpt>
      <trkpt lat="39.774620" lon="2.683660">
        <ele>156.008</ele>
        <time>2020-01-28T03:13:02Z</time>
      </trkpt>
      <trkpt lat="39.774730" lon="2.683950">
        <ele>154.055</ele>
        <time>2020-01-28T03:13:22Z</time>
      </trkpt>
      <trkpt lat="39.774780" lon="2.684160">
        <ele>154.046</ele>
        <time>2020-01-28T03:13:42Z</time>
      </trkpt>
      <trkpt lat="39.774920" lon="2.684400">
        <ele>153.030</ele>
        <time>2020-01-28T03:14:02Z</time>
      </trkpt>
      <trkpt lat="39.774950" lon="2.684620">
        <ele>152.077</ele>
        <time>2020-01-28T03:14:22Z</time>
      </trkpt>
      <trkpt lat="39.774970" lon="2.685300">
        <ele>150.032</ele>
        <time>2020-01-28T03:14:42Z</time>
      </trkpt>
      <trkpt lat="39.775000" lon="2.685480">
        <ele>149.028</ele>
        <time>2020-01-28T03:15:02Z</time>
      </trkpt>
      <trkpt lat="39.775120" lon="2.685800">
        <ele>148.046</ele>
        <time>2020-01-28T03:15:22Z</time>
      </trkpt>
      <trkpt lat="39.775200" lon="2.685950">
        <ele>148.099</ele>
        <time>2020-01-28T03:15:42Z</time>
      </trkpt>
      <trkpt lat="39.775460" lon="2.686330">
        <ele>146.017</ele>
        <time>2020-01-28T03:16:02Z</time>
      </trkpt>
      <trkpt lat="39.775490" lon="2.686480">
        <ele>146.087</ele>
        <time>2020-01-28T03:16:22Z</time>
      </trkpt>
      <trkpt lat="39.775480" lon="2.686590">
        <ele>145.015</ele>
        <time>2020-01-28T03:16:42Z</time>
      </trkpt>
      <trkpt lat="39.775370" lon="2.686820">
        <ele>144.008</ele>
        <time>2020-01-28T03:17:02Z</time>
      </trkpt>
      <trkpt lat="39.775330" lon="2.686890">
        <ele>143.025</ele>
        <time>2020-01-28T03:17:22Z</time>
      </trkpt>
      <trkpt lat="39.775270" lon="2.686930">
        <ele>142.046</ele>
        <time>2020-01-28T03:17:42Z</time>
      </trkpt>
      <trkpt lat="39.774840" lon="2.687030">
        <ele>139.020</ele>
        <time>2020-01-28T03:18:02Z</time>
      </trkpt>
      <trkpt lat="39.774650" lon="2.687120">
        <ele>137.037</ele>
        <time>2020-01-28T03:18:22Z</time>
      </trkpt>
      <trkpt lat="39.774370" lon="2.687280">
        <ele>135.042</ele>
        <time>2020-01-28T03:18:42Z</time>
      </trkpt>
      <trkpt lat="39.774240" lon="2.687380">
        <ele>134.048</ele>
        <time>2020-01-28T03:19:02Z</time>
      </trkpt>
      <trkpt lat="39.774160" lon="2.687480">
        <ele>133.096</ele>
        <time>2020-01-28T03:19:22Z</time>
      </trkpt>
      <trkpt lat="39.774120" lon="2.687650">
        <ele>132.099</ele>
        <time>2020-01-28T03:19:42Z</time>
      </trkpt>
      <trkpt lat="39.774140" lon="2.687860">
        <ele>131.043</ele>
        <time>2020-01-28T03:20:02Z</time>
      </trkpt>
      <trkpt lat="39.774310" lon="2.688130">
        <ele>128.064</ele>
        <time>2020-01-28T03:20:22Z</time>
      </trkpt>
      <trkpt lat="39.774380" lon="2.688270">
        <ele>127.010</ele>
        <time>2020-01-28T03:20:42Z</time>
      </trkpt>
      <trkpt lat="39.774410" lon="2.688370">
        <ele>127.008</ele>
        <time>2020-01-28T03:21:02Z</time>
      </trkpt>
      <trkpt lat="39.774420" lon="2.688500">
        <ele>126.078</ele>
        <time>2020-01-28T03:21:22Z</time>
      </trkpt>
      <trkpt lat="39.774370" lon="2.688790">
        <ele>124.089</ele>
        <time>2020-01-28T03:21:42Z</time>
      </trkpt>
      <trkpt lat="39.774350" lon="2.689000">
        <ele>123.043</ele>
        <time>2020-01-28T03:22:02Z</time>
      </trkpt>
      <trkpt lat="39.774370" lon="2.689150">
        <ele>122.020</ele>
        <time>2020-01-28T03:22:22Z</time>
      </trkpt>
      <trkpt lat="39.774420" lon="2.689370">
        <ele>120.035</ele>
        <time>2020-01-28T03:22:42Z</time>
      </trkpt>
      <trkpt lat="39.774530" lon="2.689670">
        <ele>118.071</ele>
        <time>2020-01-28T03:23:02Z</time>
      </trkpt>
      <trkpt lat="39.774670" lon="2.689960">
        <ele>116.099</ele>
        <time>2020-01-28T03:23:22Z</time>
      </trkpt>
      <trkpt lat="39.774760" lon="2.690090">
        <ele>115.052</ele>
        <time>2020-01-28T03:23:42Z</time>
      </trkpt>
      <trkpt lat="39.774910" lon="2.690250">
        <ele>113.059</ele>
        <time>2020-01-28T03:24:02Z</time>
      </trkpt>
      <trkpt lat="39.775250" lon="2.690430">
        <ele>112.003</ele>
        <time>2020-01-28T03:24:22Z</time>
      </trkpt>
      <trkpt lat="39.775450" lon="2.690560">
        <ele>112.023</ele>
        <time>2020-01-28T03:24:42Z</time>
      </trkpt>
      <trkpt lat="39.775560" lon="2.690660">
        <ele>112.008</ele>
        <time>2020-01-28T03:25:02Z</time>
      </trkpt>
      <trkpt lat="39.775620" lon="2.690770">
        <ele>111.059</ele>
        <time>2020-01-28T03:25:22Z</time>
      </trkpt>
      <trkpt lat="39.775710" lon="2.691050">
        <ele>111.020</ele>
        <time>2020-01-28T03:25:42Z</time>
      </trkpt>
      <trkpt lat="39.775720" lon="2.691260">
        <ele>111.044</ele>
        <time>2020-01-28T03:26:02Z</time>
      </trkpt>
      <trkpt lat="39.775690" lon="2.691440">
        <ele>111.071</ele>
        <time>2020-01-28T03:26:22Z</time>
      </trkpt>
      <trkpt lat="39.775640" lon="2.691590">
        <ele>110.026</ele>
        <time>2020-01-28T03:26:42Z</time>
      </trkpt>
      <trkpt lat="39.775540" lon="2.691740">
        <ele>110.062</ele>
        <time>2020-01-28T03:27:02Z</time>
      </trkpt>
      <trkpt lat="39.775090" lon="2.692150">
        <ele>108.050</ele>
        <time>2020-01-28T03:27:22Z</time>
      </trkpt>
      <trkpt lat="39.774910" lon="2.692260">
        <ele>106.093</ele>
        <time>2020-01-28T03:27:42Z</time>
      </trkpt>
      <trkpt lat="39.774730" lon="2.692310">
        <ele>104.092</ele>
        <time>2020-01-28T03:28:02Z</time>
      </trkpt>
      <trkpt lat="39.774340" lon="2.692320">
        <ele>100.073</ele>
        <time>2020-01-28T03:28:22Z</time>
      </trkpt>
      <trkpt lat="39.774260" lon="2.692350">
        <ele>99.020</ele>
        <time>2020-01-28T03:28:42Z</time>
      </trkpt>
      <trkpt lat="39.774100" lon="2.692490">
        <ele>98.008</ele>
        <time>2020-01-28T03:29:02Z</time>
      </trkpt>
      <trkpt lat="39.774000" lon="2.692690">
        <ele>96.013</ele>
        <time>2020-01-28T03:29:22Z</time>
      </trkpt>
      <trkpt lat="39.773930" lon="2.692920">
        <ele>94.084</ele>
        <time>2020-01-28T03:29:42Z</time>
      </trkpt>
      <trkpt lat="39.773920" lon="2.693120">
        <ele>92.068</ele>
        <time>2020-01-28T03:30:02Z</time>
      </trkpt>
      <trkpt lat="39.773930" lon="2.693250">
        <ele>91.085</ele>
        <time>2020-01-28T03:30:22Z</time>
      </trkpt>
      <trkpt lat="39.773950" lon="2.693350">
        <ele>90.090</ele>
        <time>2020-01-28T03:30:42Z</time>
      </trkpt>
      <trkpt lat="39.773990" lon="2.693410">
        <ele>90.026</ele>
        <time>2020-01-28T03:31:02Z</time>
      </trkpt>
      <trkpt lat="39.774020" lon="2.693460">
        <ele>89.044</ele>
        <time>2020-01-28T03:31:22Z</time>
      </trkpt>
      <trkpt lat="39.774260" lon="2.693670">
        <ele>88.037</ele>
        <time>2020-01-28T03:31:42Z</time>
      </trkpt>
      <trkpt lat="39.774420" lon="2.693850">
        <ele>87.095</ele>
        <time>2020-01-28T03:32:02Z</time>
      </trkpt>
      <trkpt lat="39.774690" lon="2.694430">
        <ele>85.049</ele>
        <time>2020-01-28T03:32:22Z</time>
      </trkpt>
      <trkpt lat="39.774750" lon="2.694510">
        <ele>85.023</ele>
        <time>2020-01-28T03:32:42Z</time>
      </trkpt>
      <trkpt lat="39.774810" lon="2.694570">
        <ele>85.008</ele>
        <time>2020-01-28T03:33:02Z</time>
      </trkpt>
      <trkpt lat="39.775220" lon="2.694860">
        <ele>83.083</ele>
        <time>2020-01-28T03:33:22Z</time>
      </trkpt>
      <trkpt lat="39.775340" lon="2.695040">
        <ele>82.054</ele>
        <time>2020-01-28T03:33:42Z</time>
      </trkpt>
      <trkpt lat="39.775380" lon="2.695180">
        <ele>82.078</ele>
        <time>2020-01-28T03:34:02Z</time>
      </trkpt>
      <trkpt lat="39.775400" lon="2.695340">
        <ele>82.075</ele>
        <time>2020-01-28T03:34:22Z</time>
      </trkpt>
      <trkpt lat="39.775360" lon="2.695610">
        <ele>80.040</ele>
        <time>2020-01-28T03:34:42Z</time>
      </trkpt>
      <trkpt lat="39.775270" lon="2.695770">
        <ele>79.036</ele>
        <time>2020-01-28T03:35:02Z</time>
      </trkpt>
      <trkpt lat="39.775160" lon="2.695880">
        <ele>78.024</ele>
        <time>2020-01-28T03:35:22Z</time>
      </trkpt>
      <trkpt lat="39.775040" lon="2.695950">
        <ele>77.017</ele>
        <time>2020-01-28T03:35:42Z</time>
      </trkpt>
      <trkpt lat="39.774750" lon="2.696040">
        <ele>76.063</ele>
        <time>2020-01-28T03:36:02Z</time>
      </trkpt>
      <trkpt lat="39.774680" lon="2.696110">
        <ele>75.044</ele>
        <time>2020-01-28T03:36:22Z</time>
      </trkpt>
      <trkpt lat="39.774640" lon="2.696260">
        <ele>74.018</ele>
        <time>2020-01-28T03:36:42Z</time>
      </trkpt>
      <trkpt lat="39.774650" lon="2.696720">
        <ele>72.008</ele>
        <time>2020-01-28T03:37:02Z</time>
      </trkpt>
      <trkpt lat="39.774620" lon="2.697230">
        <ele>69.010</ele>
        <time>2020-01-28T03:37:22Z</time>
      </trkpt>
      <trkpt lat="39.774490" lon="2.697810">
        <ele>66.041</ele>
        <time>2020-01-28T03:37:42Z</time>
      </trkpt>
      <trkpt lat="39.774390" lon="2.698100">
        <ele>65.015</ele>
        <time>2020-01-28T03:38:02Z</time>
      </trkpt>
      <trkpt lat="39.774250" lon="2.698410">
        <ele>63.052</ele>
        <time>2020-01-28T03:38:22Z</time>
      </trkpt>
      <trkpt lat="39.774230" lon="2.698500">
        <ele>63.027</ele>
        <time>2020-01-28T03:38:42Z</time>
      </trkpt>
      <trkpt lat="39.774240" lon="2.698600">
        <ele>62.013</ele>
        <time>2020-01-28T03:39:02Z</time>
      </trkpt>
      <trkpt lat="39.774320" lon="2.698700">
        <ele>61.021</ele>
        <time>2020-01-28T03:39:22Z</time>
      </trkpt>
      <trkpt lat="39.774390" lon="2.698720">
        <ele>61.034</ele>
        <time>2020-01-28T03:39:42Z</time>
      </trkpt>
      <trkpt lat="39.774450" lon="2.698710">
        <ele>61.036</ele>
        <time>2020-01-28T03:40:02Z</time>
      </trkpt>
      <trkpt lat="39.774510" lon="2.698640">
        <ele>60.017</ele>
        <time>2020-01-28T03:40:22Z</time>
      </trkpt>
      <trkpt lat="39.774580" lon="2.698500">
        <ele>59.018</ele>
        <time>2020-01-28T03:40:42Z</time>
      </trkpt>
      <trkpt lat="39.774820" lon="2.697790">
        <ele>55.008</ele>
        <time>2020-01-28T03:41:02Z</time>
      </trkpt>
      <trkpt lat="39.774840" lon="2.697650">
        <ele>55.047</ele>
        <time>2020-01-28T03:41:22Z</time>
      </trkpt>
      <trkpt lat="39.774870" lon="2.697190">
        <ele>53.038</ele>
        <time>2020-01-28T03:41:42Z</time>
      </trkpt>
      <trkpt lat="39.774910" lon="2.697080">
        <ele>52.062</ele>
        <time>2020-01-28T03:42:02Z</time>
      </trkpt>
      <trkpt lat="39.774960" lon="2.697030">
        <ele>52.039</ele>
        <time>2020-01-28T03:42:22Z</time>
      </trkpt>
      <trkpt lat="39.775040" lon="2.697030">
        <ele>52.024</ele>
        <time>2020-01-28T03:42:42Z</time>
      </trkpt>
      <trkpt lat="39.775090" lon="2.697060">
        <ele>51.060</ele>
        <time>2020-01-28T03:43:02Z</time>
      </trkpt>
      <trkpt lat="39.775130" lon="2.697110">
        <ele>51.058</ele>
        <time>2020-01-28T03:43:22Z</time>
      </trkpt>
      <trkpt lat="39.775140" lon="2.697180">
        <ele>51.091</ele>
        <time>2020-01-28T03:43:42Z</time>
      </trkpt>
      <trkpt lat="39.775120" lon="2.697420">
        <ele>50.085</ele>
        <time>2020-01-28T03:44:02Z</time>
      </trkpt>
      <trkpt lat="39.775040" lon="2.697840">
        <ele>48.089</ele>
        <time>2020-01-28T03:44:22Z</time>
      </trkpt>
      <trkpt lat="39.774900" lon="2.698350">
        <ele>46.017</ele>
        <time>2020-01-28T03:44:42Z</time>
      </trkpt>
      <trkpt lat="39.774660" lon="2.698950">
        <ele>43.008</ele>
        <time>2020-01-28T03:45:02Z</time>
      </trkpt>
      <trkpt lat="39.774660" lon="2.698950">
        <ele>43.052</ele>
        <time>2020-01-28T03:45:22Z</time>
      </trkpt>
      <trkpt lat="39.774490" lon="2.699250">
        <ele>42.093</ele>
        <time>2020-01-28T03:45:42Z</time>
      </trkpt>
      <trkpt lat="39.774310" lon="2.699550">
        <ele>41.037</ele>
        <time>2020-01-28T03:46:02Z</time>
      </trkpt>
      <trkpt lat="39.773190" lon="2.701160">
        <ele>35.054</ele>
        <time>2020-01-28T03:46:22Z</time>
      </trkpt>
      <trkpt lat="39.773070" lon="2.701300">
        <ele>35.049</ele>
        <time>2020-01-28T03:46:42Z</time>
      </trkpt>
      <trkpt lat="39.772250" lon="2.701940">
        <ele>31.055</ele>
        <time>2020-01-28T03:47:02Z</time>
      </trkpt>
      <trkpt lat="39.772160" lon="2.702020">
        <ele>31.033</ele>
        <time>2020-01-28T03:47:22Z</time>
      </trkpt>
      <trkpt lat="39.772060" lon="2.702180">
        <ele>30.096</ele>
        <time>2020-01-28T03:47:42Z</time>
      </trkpt>
      <trkpt lat="39.770710" lon="2.705560">
        <ele>27.027</ele>
        <time>2020-01-28T03:48:02Z</time>
      </trkpt>
      <trkpt lat="39.769940" lon="2.706460">
        <ele>28.068</ele>
        <time>2020-01-28T03:48:22Z</time>
      </trkpt>
      <trkpt lat="39.769750" lon="2.706720">
        <ele>29.014</ele>
        <time>2020-01-28T03:48:42Z</time>
      </trkpt>
      <trkpt lat="39.769100" lon="2.707000">
        <ele>30.008</ele>
        <time>2020-01-28T03:49:02Z</time>
      </trkpt>
      <trkpt lat="39.767010" lon="2.707820">
        <ele>31.026</ele>
        <time>2020-01-28T03:49:22Z</time>
      </trkpt>
      <trkpt lat="39.766810" lon="2.707800">
        <ele>31.087</ele>
        <time>2020-01-28T03:49:42Z</time>
      </trkpt>
      <trkpt lat="39.766790" lon="2.707780">
        <ele>31.051</ele>
        <time>2020-01-28T03:50:02Z</time>
      </trkpt>
      <trkpt lat="39.766730" lon="2.707760">
        <ele>31.028</ele>
        <time>2020-01-28T03:50:22Z</time>
      </trkpt>
      <trkpt lat="39.766670" lon="2.707810">
        <ele>30.043</ele>
        <time>2020-01-28T03:50:42Z</time>
      </trkpt>
      <trkpt lat="39.766650" lon="2.707890">
        <ele>30.039</ele>
        <time>2020-01-28T03:51:02Z</time>
      </trkpt>
      <trkpt lat="39.766670" lon="2.707960">
        <ele>30.017</ele>
        <time>2020-01-28T03:51:22Z</time>
      </trkpt>
      <trkpt lat="39.766720" lon="2.708000">
        <ele>30.030</ele>
        <time>2020-01-28T03:51:42Z</time>
      </trkpt>
      <trkpt lat="39.766790" lon="2.708110">
        <ele>30.049</ele>
        <time>2020-01-28T03:52:02Z</time>
      </trkpt>
      <trkpt lat="39.767110" lon="2.708920">
        <ele>29.002</ele>
        <time>2020-01-28T03:52:22Z</time>
      </trkpt>
      <trkpt lat="39.767510" lon="2.709870">
        <ele>29.022</ele>
        <time>2020-01-28T03:52:42Z</time>
      </trkpt>
      <trkpt lat="39.767780" lon="2.710470">
        <ele>29.008</ele>
        <time>2020-01-28T03:53:02Z</time>
      </trkpt>
      <trkpt lat="39.768160" lon="2.711360">
        <ele>31.068</ele>
        <time>2020-01-28T03:53:22Z</time>
      </trkpt>
      <trkpt lat="39.768140" lon="2.711380">
        <ele>31.089</ele>
        <time>2020-01-28T03:53:42Z</time>
      </trkpt>
      <trkpt lat="39.768120" lon="2.711460">
        <ele>31.043</ele>
        <time>2020-01-28T03:54:02Z</time>
      </trkpt>
      <trkpt lat="39.768130" lon="2.711480">
        <ele>31.050</ele>
        <time>2020-01-28T03:54:22Z</time>
      </trkpt>
      <trkpt lat="39.768190" lon="2.711540">
        <ele>31.045</ele>
        <time>2020-01-28T03:54:42Z</time>
      </trkpt>
      <trkpt lat="39.768240" lon="2.711520">
        <ele>31.081</ele>
        <time>2020-01-28T03:55:02Z</time>
      </trkpt>
      <trkpt lat="39.768490" lon="2.712060">
        <ele>33.069</ele>
        <time>2020-01-28T03:55:22Z</time>
      </trkpt>
      <trkpt lat="39.768420" lon="2.712140">
        <ele>33.092</ele>
        <time>2020-01-28T03:55:42Z</time>
      </trkpt>
      <trkpt lat="39.767410" lon="2.712920">
        <ele>36.085</ele>
        <time>2020-01-28T03:56:02Z</time>
      </trkpt>
      <trkpt lat="39.767040" lon="2.713330">
        <ele>37.089</ele>
        <time>2020-01-28T03:56:22Z</time>
      </trkpt>
      <trkpt lat="39.766530" lon="2.713730">
        <ele>39.017</ele>
        <time>2020-01-28T03:56:42Z</time>
      </trkpt>
      <trkpt lat="39.766250" lon="2.713920">
        <ele>40.008</ele>
        <time>2020-01-28T03:57:02Z</time>
      </trkpt>
      <trkpt lat="39.766340" lon="2.714140">
        <ele>40.022</ele>
        <time>2020-01-28T03:57:22Z</time>
      </trkpt>
      <trkpt lat="39.766500" lon="2.714660">
        <ele>41.043</ele>
        <time>2020-01-28T03:57:42Z</time>
      </trkpt>
      <trkpt lat="39.766470" lon="2.714690">
        <ele>41.047</ele>
        <time>2020-01-28T03:58:02Z</time>
      </trkpt>
      <trkpt lat="39.766500" lon="2.714810">
        <ele>41.044</ele>
        <time>2020-01-28T03:58:22Z</time>
      </trkpt>
      <trkpt lat="39.766510" lon="2.715380">
        <ele>41.049</ele>
        <time>2020-01-28T03:58:42Z</time>
      </trkpt>
      <trkpt lat="39.766570" lon="2.715490">
        <ele>41.075</ele>
        <time>2020-01-28T03:59:02Z</time>
      </trkpt>
      <trkpt lat="39.766470" lon="2.715550">
        <ele>42.013</ele>
        <time>2020-01-28T03:59:22Z</time>
      </trkpt>
      <trkpt lat="39.766470" lon="2.715560">
        <ele>42.016</ele>
        <time>2020-01-28T03:59:42Z</time>
      </trkpt>
      <trkpt lat="39.766570" lon="2.715500">
        <ele>42.053</ele>
        <time>2020-01-28T04:00:02Z</time>
      </trkpt>
      <trkpt lat="39.766510" lon="2.715390">
        <ele>42.004</ele>
        <time>2020-01-28T04:00:22Z</time>
      </trkpt>
      <trkpt lat="39.766500" lon="2.714810">
        <ele>42.014</ele>
        <time>2020-01-28T04:00:42Z</time>
      </trkpt>
      <trkpt lat="39.766470" lon="2.714690">
        <ele>42.008</ele>
        <time>2020-01-28T04:01:02Z</time>
      </trkpt>
      <trkpt lat="39.766190" lon="2.714820">
        <ele>43.099</ele>
        <time>2020-01-28T04:01:22Z</time>
      </trkpt>
      <trkpt lat="39.765890" lon="2.714790">
        <ele>43.080</ele>
        <time>2020-01-28T04:01:42Z</time>
      </trkpt>
      <trkpt lat="39.765550" lon="2.714820">
        <ele>44.064</ele>
        <time>2020-01-28T04:02:02Z</time>
      </trkpt>
      <trkpt lat="39.765400" lon="2.714540">
        <ele>44.081</ele>
        <time>2020-01-28T04:02:22Z</time>
      </trkpt>
      <trkpt lat="39.763920" lon="2.712890">
        <ele>51.056</ele>
        <time>2020-01-28T04:02:42Z</time>
      </trkpt>
      <trkpt lat="39.763640" lon="2.712610">
        <ele>53.072</ele>
        <time>2020-01-28T04:03:02Z</time>
      </trkpt>
      <trkpt lat="39.762980" lon="2.711830">
        <ele>58.040</ele>
        <time>2020-01-28T04:03:22Z</time>
      </trkpt>
      <trkpt lat="39.762760" lon="2.711440">
        <ele>59.063</ele>
        <time>2020-01-28T04:03:42Z</time>
      </trkpt>
      <trkpt lat="39.762640" lon="2.711260">
        <ele>60.063</ele>
        <time>2020-01-28T04:04:02Z</time>
      </trkpt>
      <trkpt lat="39.762580" lon="2.711220">
        <ele>60.044</ele>
        <time>2020-01-28T04:04:22Z</time>
      </trkpt>
      <trkpt lat="39.762480" lon="2.711190">
        <ele>60.018</ele>
        <time>2020-01-28T04:04:42Z</time>
      </trkpt>
      <trkpt lat="39.761080" lon="2.711440">
        <ele>65.008</ele>
        <time>2020-01-28T04:05:02Z</time>
      </trkpt>
      <trkpt lat="39.760920" lon="2.711350">
        <ele>66.060</ele>
        <time>2020-01-28T04:05:22Z</time>
      </trkpt>
      <trkpt lat="39.760900" lon="2.711250">
        <ele>67.091</ele>
        <time>2020-01-28T04:05:42Z</time>
      </trkpt>
      <trkpt lat="39.761070" lon="2.710990">
        <ele>68.075</ele>
        <time>2020-01-28T04:06:02Z</time>
      </trkpt>
      <trkpt lat="39.760830" lon="2.711170">
        <ele>70.052</ele>
        <time>2020-01-28T04:06:22Z</time>
      </trkpt>
      <trkpt lat="39.760780" lon="2.711160">
        <ele>70.087</ele>
        <time>2020-01-28T04:06:42Z</time>
      </trkpt>
      <trkpt lat="39.760720" lon="2.711180">
        <ele>70.063</ele>
        <time>2020-01-28T04:07:02Z</time>
      </trkpt>
      <trkpt lat="39.760670" lon="2.711240">
        <ele>71.021</ele>
        <time>2020-01-28T04:07:22Z</time>
      </trkpt>
      <trkpt lat="39.760660" lon="2.711280">
        <ele>71.064</ele>
        <time>2020-01-28T04:07:42Z</time>
      </trkpt>
      <trkpt lat="39.760410" lon="2.711500">
        <ele>73.016</ele>
        <time>2020-01-28T04:08:02Z</time>
      </trkpt>
      <trkpt lat="39.760300" lon="2.711550">
        <ele>73.076</ele>
        <time>2020-01-28T04:08:22Z</time>
      </trkpt>
      <trkpt lat="39.760120" lon="2.711650">
        <ele>75.013</ele>
        <time>2020-01-28T04:08:42Z</time>
      </trkpt>
      <trkpt lat="39.759920" lon="2.711710">
        <ele>76.008</ele>
        <time>2020-01-28T04:09:02Z</time>
      </trkpt>
      <trkpt lat="39.759690" lon="2.711710">
        <ele>77.025</ele>
        <time>2020-01-28T04:09:22Z</time>
      </trkpt>
      <trkpt lat="39.759480" lon="2.711680">
        <ele>78.046</ele>
        <time>2020-01-28T04:09:42Z</time>
      </trkpt>
      <trkpt lat="39.759170" lon="2.711600">
        <ele>80.020</ele>
        <time>2020-01-28T04:10:02Z</time>
      </trkpt>
      <trkpt lat="39.758630" lon="2.711410">
        <ele>83.017</ele>
        <time>2020-01-28T04:10:22Z</time>
      </trkpt>
      <trkpt lat="39.757890" lon="2.711090">
        <ele>87.032</ele>
        <time>2020-01-28T04:10:42Z</time>
      </trkpt>
      <trkpt lat="39.757690" lon="2.710990">
        <ele>89.088</ele>
        <time>2020-01-28T04:11:02Z</time>
      </trkpt>
      <trkpt lat="39.757440" lon="2.710820">
        <ele>90.016</ele>
        <time>2020-01-28T04:11:22Z</time>
      </trkpt>
      <trkpt lat="39.756890" lon="2.710330">
        <ele>94.039</ele>
        <time>2020-01-28T04:11:42Z</time>
      </trkpt>
      <trkpt lat="39.756770" lon="2.710190">
        <ele>95.034</ele>
        <time>2020-01-28T04:12:02Z</time>
      </trkpt>
      <trkpt lat="39.756670" lon="2.710000">
        <ele>96.055</ele>
        <time>2020-01-28T04:12:22Z</time>
      </trkpt>
      <trkpt lat="39.756520" lon="2.709640">
        <ele>98.010</ele>
        <time>2020-01-28T04:12:42Z</time>
      </trkpt>
      <trkpt lat="39.756110" lon="2.708970">
        <ele>104.008</ele>
        <time>2020-01-28T04:13:02Z</time>
      </trkpt>
      <trkpt lat="39.755690" lon="2.708110">
        <ele>111.067</ele>
        <time>2020-01-28T04:13:22Z</time>
      </trkpt>
      <trkpt lat="39.755600" lon="2.707990">
        <ele>112.028</ele>
        <time>2020-01-28T04:13:42Z</time>
      </trkpt>
      <trkpt lat="39.755500" lon="2.707880">
        <ele>114.012</ele>
        <time>2020-01-28T04:14:02Z</time>
      </trkpt>
      <trkpt lat="39.755050" lon="2.707530">
        <ele>118.069</ele>
        <time>2020-01-28T04:14:22Z</time>
      </trkpt>
      <trkpt lat="39.754600" lon="2.707090">
        <ele>122.014</ele>
        <time>2020-01-28T04:14:42Z</time>
      </trkpt>
      <trkpt lat="39.754490" lon="2.707020">
        <ele>123.090</ele>
        <time>2020-01-28T04:15:02Z</time>
      </trkpt>
      <trkpt lat="39.754130" lon="2.706890">
        <ele>126.068</ele>
        <time>2020-01-28T04:15:22Z</time>
      </trkpt>
      <trkpt lat="39.753690" lon="2.706630">
        <ele>130.091</ele>
        <time>2020-01-28T04:15:42Z</time>
      </trkpt>
      <trkpt lat="39.753620" lon="2.706600">
        <ele>130.094</ele>
        <time>2020-01-28T04:16:02Z</time>
      </trkpt>
      <trkpt lat="39.753520" lon="2.706570">
        <ele>131.057</ele>
        <time>2020-01-28T04:16:22Z</time>
      </trkpt>
      <trkpt lat="39.753120" lon="2.706590">
        <ele>133.022</ele>
        <time>2020-01-28T04:16:42Z</time>
      </trkpt>
      <trkpt lat="39.752900" lon="2.706540">
        <ele>134.008</ele>
        <time>2020-01-28T04:17:02Z</time>
      </trkpt>
      <trkpt lat="39.752780" lon="2.706450">
        <ele>135.033</ele>
        <time>2020-01-28T04:17:22Z</time>
      </trkpt>
      <trkpt lat="39.752380" lon="2.706060">
        <ele>137.054</ele>
        <time>2020-01-28T04:17:42Z</time>
      </trkpt>
      <trkpt lat="39.752220" lon="2.705850">
        <ele>138.088</ele>
        <time>2020-01-28T04:18:02Z</time>
      </trkpt>
      <trkpt lat="39.752130" lon="2.705770">
        <ele>138.055</ele>
        <time>2020-01-28T04:18:22Z</time>
      </trkpt>
      <trkpt lat="39.751630" lon="2.705540">
        <ele>140.030</ele>
        <time>2020-01-28T04:18:42Z</time>
      </trkpt>
      <trkpt lat="39.751500" lon="2.705440">
        <ele>141.066</ele>
        <time>2020-01-28T04:19:02Z</time>
      </trkpt>
      <trkpt lat="39.751330" lon="2.705230">
        <ele>142.094</ele>
        <time>2020-01-28T04:19:22Z</time>
      </trkpt>
      <trkpt lat="39.751020" lon="2.704790">
        <ele>145.027</ele>
        <time>2020-01-28T04:19:42Z</time>
      </trkpt>
      <trkpt lat="39.750910" lon="2.704650">
        <ele>145.054</ele>
        <time>2020-01-28T04:20:02Z</time>
      </trkpt>
      <trkpt lat="39.750520" lon="2.704300">
        <ele>148.056</ele>
        <time>2020-01-28T04:20:22Z</time>
      </trkpt>
      <trkpt lat="39.750530" lon="2.704300">
        <ele>148.011</ele>
        <time>2020-01-28T04:20:42Z</time>
      </trkpt>
      <trkpt lat="39.750200" lon="2.704010">
        <ele>150.008</ele>
        <time>2020-01-28T04:21:02Z</time>
      </trkpt>
      <trkpt lat="39.749650" lon="2.703330">
        <ele>154.089</ele>
        <time>2020-01-28T04:21:22Z</time>
      </trkpt>
      <trkpt lat="39.749420" lon="2.703090">
        <ele>155.020</ele>
        <time>2020-01-28T04:21:42Z</time>
      </trkpt>
      <trkpt lat="39.749250" lon="2.702950">
        <ele>156.094</ele>
        <time>2020-01-28T04:22:02Z</time>
      </trkpt>
      <trkpt lat="39.749020" lon="2.702790">
        <ele>157.041</ele>
        <time>2020-01-28T04:22:22Z</time>
      </trkpt>
      <trkpt lat="39.748930" lon="2.702680">
        <ele>158.046</ele>
        <time>2020-01-28T04:22:42Z</time>
      </trkpt>
      <trkpt lat="39.748540" lon="2.701910">
        <ele>161.052</ele>
        <time>2020-01-28T04:23:02Z</time>
      </trkpt>
      <trkpt lat="39.748090" lon="2.701100">
        <ele>170.080</ele>
        <time>2020-01-28T04:23:22Z</time>
      </trkpt>
      <trkpt lat="39.747740" lon="2.700360">
        <ele>178.053</ele>
        <time>2020-01-28T04:23:42Z</time>
      </trkpt>
      <trkpt lat="39.747480" lon="2.699610">
        <ele>185.069</ele>
        <time>2020-01-28T04:24:02Z</time>
      </trkpt>
      <trkpt lat="39.747350" lon="2.699180">
        <ele>188.004</ele>
        <time>2020-01-28T04:24:22Z</time>
      </trkpt>
      <trkpt lat="39.747270" lon="2.699000">
        <ele>189.024</ele>
        <time>2020-01-28T04:24:42Z</time>
      </trkpt>
      <trkpt lat="39.747180" lon="2.698830">
        <ele>190.008</ele>
        <time>2020-01-28T04:25:02Z</time>
      </trkpt>
      <trkpt lat="39.746580" lon="2.698120">
        <ele>195.010</ele>
        <time>2020-01-28T04:25:22Z</time>
      </trkpt>
      <trkpt lat="39.746320" lon="2.697880">
        <ele>197.021</ele>
        <time>2020-01-28T04:25:42Z</time>
      </trkpt>
      <trkpt lat="39.746020" lon="2.697670">
        <ele>198.035</ele>
        <time>2020-01-28T04:26:02Z</time>
      </trkpt>
      <trkpt lat="39.745970" lon="2.697710">
        <ele>198.022</ele>
        <time>2020-01-28T04:26:22Z</time>
      </trkpt>
      <trkpt lat="39.745900" lon="2.697720">
        <ele>199.047</ele>
        <time>2020-01-28T04:26:42Z</time>
      </trkpt>
      <trkpt lat="39.745640" lon="2.697640">
        <ele>199.023</ele>
        <time>2020-01-28T04:27:02Z</time>
      </trkpt>
      <trkpt lat="39.745570" lon="2.697640">
        <ele>200.011</ele>
        <time>2020-01-28T04:27:22Z</time>
      </trkpt>
      <trkpt lat="39.745540" lon="2.697660">
        <ele>200.014</ele>
        <time>2020-01-28T04:27:42Z</time>
      </trkpt>
      <trkpt lat="39.745530" lon="2.697710">
        <ele>200.099</ele>
        <time>2020-01-28T04:28:02Z</time>
      </trkpt>
      <trkpt lat="39.745540" lon="2.697770">
        <ele>200.007</ele>
        <time>2020-01-28T04:28:22Z</time>
      </trkpt>
      <trkpt lat="39.745560" lon="2.697830">
        <ele>200.027</ele>
        <time>2020-01-28T04:28:42Z</time>
      </trkpt>
      <trkpt lat="39.745720" lon="2.698070">
        <ele>201.008</ele>
        <time>2020-01-28T04:29:02Z</time>
      </trkpt>
      <trkpt lat="39.746040" lon="2.698390">
        <ele>202.093</ele>
        <time>2020-01-28T04:29:22Z</time>
      </trkpt>
      <trkpt lat="39.746200" lon="2.698510">
        <ele>203.024</ele>
        <time>2020-01-28T04:29:42Z</time>
      </trkpt>
      <trkpt lat="39.746250" lon="2.698580">
        <ele>203.078</ele>
        <time>2020-01-28T04:30:02Z</time>
      </trkpt>
      <trkpt lat="39.746240" lon="2.698630">
        <ele>203.045</ele>
        <time>2020-01-28T04:30:22Z</time>
      </trkpt>
      <trkpt lat="39.746220" lon="2.698650">
        <ele>203.050</ele>
        <time>2020-01-28T04:30:42Z</time>
      </trkpt>
      <trkpt lat="39.746140" lon="2.698640">
        <ele>203.076</ele>
        <time>2020-01-28T04:31:02Z</time>
      </trkpt>
      <trkpt lat="39.745910" lon="2.698500">
        <ele>205.094</ele>
        <time>2020-01-28T04:31:22Z</time>
      </trkpt>
      <trkpt lat="39.745430" lon="2.698060">
        <ele>210.057</ele>
        <time>2020-01-28T04:31:42Z</time>
      </trkpt>
      <trkpt lat="39.745060" lon="2.697910">
        <ele>214.097</ele>
        <time>2020-01-28T04:32:02Z</time>
      </trkpt>
      <trkpt lat="39.744900" lon="2.697800">
        <ele>216.023</ele>
        <time>2020-01-28T04:32:22Z</time>
      </trkpt>
      <trkpt lat="39.744720" lon="2.697640">
        <ele>218.025</ele>
        <time>2020-01-28T04:32:42Z</time>
      </trkpt>
      <trkpt lat="39.744650" lon="2.697550">
        <ele>219.008</ele>
        <time>2020-01-28T04:33:02Z</time>
      </trkpt>
      <trkpt lat="39.744640" lon="2.697560">
        <ele>219.033</ele>
        <time>2020-01-28T04:33:22Z</time>
      </trkpt>
      <trkpt lat="39.744400" lon="2.697270">
        <ele>222.044</ele>
        <time>2020-01-28T04:33:42Z</time>
      </trkpt>
      <trkpt lat="39.743860" lon="2.696480">
        <ele>229.068</ele>
        <time>2020-01-28T04:34:02Z</time>
      </trkpt>
      <trkpt lat="39.743820" lon="2.696460">
        <ele>230.055</ele>
        <time>2020-01-28T04:34:22Z</time>
      </trkpt>
      <trkpt lat="39.743790" lon="2.696490">
        <ele>230.030</ele>
        <time>2020-01-28T04:34:42Z</time>
      </trkpt>
      <trkpt lat="39.743770" lon="2.696530">
        <ele>231.086</ele>
        <time>2020-01-28T04:35:02Z</time>
      </trkpt>
      <trkpt lat="39.743930" lon="2.696760">
        <ele>233.084</ele>
        <time>2020-01-28T04:35:22Z</time>
      </trkpt>
      <trkpt lat="39.743950" lon="2.696820">
        <ele>233.087</ele>
        <time>2020-01-28T04:35:42Z</time>
      </trkpt>
      <trkpt lat="39.743910" lon="2.696850">
        <ele>234.098</ele>
        <time>2020-01-28T04:36:02Z</time>
      </trkpt>
      <trkpt lat="39.743850" lon="2.696830">
        <ele>234.015</ele>
        <time>2020-01-28T04:36:22Z</time>
      </trkpt>
      <trkpt lat="39.743740" lon="2.696640">
        <ele>236.026</ele>
        <time>2020-01-28T04:36:42Z</time>
      </trkpt>
      <trkpt lat="39.743660" lon="2.696560">
        <ele>237.008</ele>
        <time>2020-01-28T04:37:02Z</time>
      </trkpt>
      <trkpt lat="39.743280" lon="2.696500">
        <ele>241.073</ele>
        <time>2020-01-28T04:37:22Z</time>
      </trkpt>
      <trkpt lat="39.743140" lon="2.696440">
        <ele>242.054</ele>
        <time>2020-01-28T04:37:42Z</time>
      </trkpt>
      <trkpt lat="39.742970" lon="2.696310">
        <ele>243.018</ele>
        <time>2020-01-28T04:38:02Z</time>
      </trkpt>
      <trkpt lat="39.742350" lon="2.695330">
        <ele>248.095</ele>
        <time>2020-01-28T04:38:22Z</time>
      </trkpt>
      <trkpt lat="39.742260" lon="2.695220">
        <ele>249.070</ele>
        <time>2020-01-28T04:38:42Z</time>
      </trkpt>
      <trkpt lat="39.742210" lon="2.695210">
        <ele>249.056</ele>
        <time>2020-01-28T04:39:02Z</time>
      </trkpt>
      <trkpt lat="39.742160" lon="2.695230">
        <ele>249.064</ele>
        <time>2020-01-28T04:39:22Z</time>
      </trkpt>
      <trkpt lat="39.742150" lon="2.695310">
        <ele>250.057</ele>
        <time>2020-01-28T04:39:42Z</time>
      </trkpt>
      <trkpt lat="39.742170" lon="2.695380">
        <ele>250.033</ele>
        <time>2020-01-28T04:40:02Z</time>
      </trkpt>
      <trkpt lat="39.742590" lon="2.696100">
        <ele>254.023</ele>
        <time>2020-01-28T04:40:22Z</time>
      </trkpt>
      <trkpt lat="39.742750" lon="2.696500">
        <ele>256.015</ele>
        <time>2020-01-28T04:40:42Z</time>
      </trkpt>
      <trkpt lat="39.742920" lon="2.696720">
        <ele>258.008</ele>
        <time>2020-01-28T04:41:02Z</time>
      </trkpt>
      <trkpt lat="39.742900" lon="2.696800">
        <ele>258.087</ele>
        <time>2020-01-28T04:41:22Z</time>
      </trkpt>
      <trkpt lat="39.742830" lon="2.696810">
        <ele>259.098</ele>
        <time>2020-01-28T04:41:42Z</time>
      </trkpt>
      <trkpt lat="39.742600" lon="2.696520">
        <ele>261.022</ele>
        <time>2020-01-28T04:42:02Z</time>
      </trkpt>
      <trkpt lat="39.742450" lon="2.696220">
        <ele>262.089</ele>
        <time>2020-01-28T04:42:22Z</time>
      </trkpt>
      <trkpt lat="39.741830" lon="2.695660">
        <ele>267.024</ele>
        <time>2020-01-28T04:42:42Z</time>
      </trkpt>
      <trkpt lat="39.741640" lon="2.695480">
        <ele>268.050</ele>
        <time>2020-01-28T04:43:02Z</time>
      </trkpt>
      <trkpt lat="39.741530" lon="2.695420">
        <ele>268.068</ele>
        <time>2020-01-28T04:43:22Z</time>
      </trkpt>
      <trkpt lat="39.741460" lon="2.695400">
        <ele>269.071</ele>
        <time>2020-01-28T04:43:42Z</time>
      </trkpt>
      <trkpt lat="39.741440" lon="2.695430">
        <ele>269.062</ele>
        <time>2020-01-28T04:44:02Z</time>
      </trkpt>
      <trkpt lat="39.741450" lon="2.695520">
        <ele>269.083</ele>
        <time>2020-01-28T04:44:22Z</time>
      </trkpt>
      <trkpt lat="39.741570" lon="2.695660">
        <ele>270.011</ele>
        <time>2020-01-28T04:44:42Z</time>
      </trkpt>
      <trkpt lat="39.741770" lon="2.695850">
        <ele>271.008</ele>
        <time>2020-01-28T04:45:02Z</time>
      </trkpt>
      <trkpt lat="39.742270" lon="2.696460">
        <ele>274.040</ele>
        <time>2020-01-28T04:45:22Z</time>
      </trkpt>
      <trkpt lat="39.742360" lon="2.696670">
        <ele>275.061</ele>
        <time>2020-01-28T04:45:42Z</time>
      </trkpt>
      <trkpt lat="39.742670" lon="2.697120">
        <ele>278.045</ele>
        <time>2020-01-28T04:46:02Z</time>
      </trkpt>
      <trkpt lat="39.742840" lon="2.697400">
        <ele>280.022</ele>
        <time>2020-01-28T04:46:22Z</time>
      </trkpt>
      <trkpt lat="39.742930" lon="2.697590">
        <ele>281.027</ele>
        <time>2020-01-28T04:46:42Z</time>
      </trkpt>
      <trkpt lat="39.742970" lon="2.697750">
        <ele>282.093</ele>
        <time>2020-01-28T04:47:02Z</time>
      </trkpt>
      <trkpt lat="39.742960" lon="2.697810">
        <ele>282.061</ele>
        <time>2020-01-28T04:47:22Z</time>
      </trkpt>
      <trkpt lat="39.742920" lon="2.697840">
        <ele>283.054</ele>
        <time>2020-01-28T04:47:42Z</time>
      </trkpt>
      <trkpt lat="39.742870" lon="2.697800">
        <ele>283.094</ele>
        <time>2020-01-28T04:48:02Z</time>
      </trkpt>
      <trkpt lat="39.742810" lon="2.697720">
        <ele>284.057</ele>
        <time>2020-01-28T04:48:22Z</time>
      </trkpt>
      <trkpt lat="39.742580" lon="2.697290">
        <ele>286.022</ele>
        <time>2020-01-28T04:48:42Z</time>
      </trkpt>
      <trkpt lat="39.741990" lon="2.696620">
        <ele>293.008</ele>
        <time>2020-01-28T04:49:02Z</time>
      </trkpt>
      <trkpt lat="39.741620" lon="2.696320">
        <ele>297.083</ele>
        <time>2020-01-28T04:49:22Z</time>
      </trkpt>
      <trkpt lat="39.741100" lon="2.696030">
        <ele>302.094</ele>
        <time>2020-01-28T04:49:42Z</time>
      </trkpt>
      <trkpt lat="39.740940" lon="2.695890">
        <ele>303.098</ele>
        <time>2020-01-28T04:50:02Z</time>
      </trkpt>
      <trkpt lat="39.740530" lon="2.695460">
        <ele>308.055</ele>
        <time>2020-01-28T04:50:22Z</time>
      </trkpt>
      <trkpt lat="39.740140" lon="2.694960">
        <ele>311.030</ele>
        <time>2020-01-28T04:50:42Z</time>
      </trkpt>
      <trkpt lat="39.739880" lon="2.694590">
        <ele>314.026</ele>
        <time>2020-01-28T04:51:02Z</time>
      </trkpt>
      <trkpt lat="39.739620" lon="2.694280">
        <ele>316.024</ele>
        <time>2020-01-28T04:51:22Z</time>
      </trkpt>
      <trkpt lat="39.739540" lon="2.694150">
        <ele>317.057</ele>
        <time>2020-01-28T04:51:42Z</time>
      </trkpt>
      <trkpt lat="39.739310" lon="2.693580">
        <ele>320.018</ele>
        <time>2020-01-28T04:52:02Z</time>
      </trkpt>
      <trkpt lat="39.739180" lon="2.693020">
        <ele>322.098</ele>
        <time>2020-01-28T04:52:22Z</time>
      </trkpt>
      <trkpt lat="39.739150" lon="2.692960">
        <ele>323.017</ele>
        <time>2020-01-28T04:52:42Z</time>
      </trkpt>
      <trkpt lat="39.739110" lon="2.692930">
        <ele>323.008</ele>
        <time>2020-01-28T04:53:02Z</time>
      </trkpt>
      <trkpt lat="39.739080" lon="2.692960">
        <ele>323.025</ele>
        <time>2020-01-28T04:53:22Z</time>
      </trkpt>
      <trkpt lat="39.739070" lon="2.693020">
        <ele>323.026</ele>
        <time>2020-01-28T04:53:42Z</time>
      </trkpt>
      <trkpt lat="39.739290" lon="2.693900">
        <ele>327.020</ele>
        <time>2020-01-28T04:54:02Z</time>
      </trkpt>
      <trkpt lat="39.739290" lon="2.693950">
        <ele>327.037</ele>
        <time>2020-01-28T04:54:22Z</time>
      </trkpt>
      <trkpt lat="39.739270" lon="2.693980">
        <ele>328.082</ele>
        <time>2020-01-28T04:54:42Z</time>
      </trkpt>
      <trkpt lat="39.739230" lon="2.693970">
        <ele>328.028</ele>
        <time>2020-01-28T04:55:02Z</time>
      </trkpt>
      <trkpt lat="39.739200" lon="2.693920">
        <ele>328.026</ele>
        <time>2020-01-28T04:55:22Z</time>
      </trkpt>
      <trkpt lat="39.739130" lon="2.693660">
        <ele>329.079</ele>
        <time>2020-01-28T04:55:42Z</time>
      </trkpt>
      <trkpt lat="39.738930" lon="2.693120">
        <ele>331.099</ele>
        <time>2020-01-28T04:56:02Z</time>
      </trkpt>
      <trkpt lat="39.738800" lon="2.692680">
        <ele>333.007</ele>
        <time>2020-01-28T04:56:22Z</time>
      </trkpt>
      <trkpt lat="39.738760" lon="2.692620">
        <ele>333.027</ele>
        <time>2020-01-28T04:56:42Z</time>
      </trkpt>
      <trkpt lat="39.738720" lon="2.692620">
        <ele>333.008</ele>
        <time>2020-01-28T04:57:02Z</time>
      </trkpt>
      <trkpt lat="39.738690" lon="2.692660">
        <ele>333.053</ele>
        <time>2020-01-28T04:57:22Z</time>
      </trkpt>
      <trkpt lat="39.738680" lon="2.692730">
        <ele>334.034</ele>
        <time>2020-01-28T04:57:42Z</time>
      </trkpt>
      <trkpt lat="39.738690" lon="2.692810">
        <ele>334.038</ele>
        <time>2020-01-28T04:58:02Z</time>
      </trkpt>
      <trkpt lat="39.738760" lon="2.693060">
        <ele>335.035</ele>
        <time>2020-01-28T04:58:22Z</time>
      </trkpt>
      <trkpt lat="39.738830" lon="2.693180">
        <ele>335.010</ele>
        <time>2020-01-28T04:58:42Z</time>
      </trkpt>
      <trkpt lat="39.739050" lon="2.693940">
        <ele>338.016</ele>
        <time>2020-01-28T04:59:02Z</time>
      </trkpt>
      <trkpt lat="39.739020" lon="2.693990">
        <ele>338.014</ele>
        <time>2020-01-28T04:59:22Z</time>
      </trkpt>
      <trkpt lat="39.738970" lon="2.693990">
        <ele>338.087</ele>
        <time>2020-01-28T04:59:42Z</time>
      </trkpt>
      <trkpt lat="39.738790" lon="2.693480">
        <ele>341.035</ele>
        <time>2020-01-28T05:00:02Z</time>
      </trkpt>
      <trkpt lat="39.738700" lon="2.693300">
        <ele>342.086</ele>
        <time>2020-01-28T05:00:22Z</time>
      </trkpt>
      <trkpt lat="39.738520" lon="2.693020">
        <ele>345.014</ele>
        <time>2020-01-28T05:00:42Z</time>
      </trkpt>
      <trkpt lat="39.738480" lon="2.692910">
        <ele>346.008</ele>
        <time>2020-01-28T05:01:02Z</time>
      </trkpt>
      <trkpt lat="39.738460" lon="2.692590">
        <ele>348.097</ele>
        <time>2020-01-28T05:01:22Z</time>
      </trkpt>
      <trkpt lat="39.738440" lon="2.692540">
        <ele>348.018</ele>
        <time>2020-01-28T05:01:42Z</time>
      </trkpt>
      <trkpt lat="39.738400" lon="2.692520">
        <ele>349.092</ele>
        <time>2020-01-28T05:02:02Z</time>
      </trkpt>
      <trkpt lat="39.738370" lon="2.692540">
        <ele>349.039</ele>
        <time>2020-01-28T05:02:22Z</time>
      </trkpt>
      <trkpt lat="39.738350" lon="2.692580">
        <ele>349.044</ele>
        <time>2020-01-28T05:02:42Z</time>
      </trkpt>
      <trkpt lat="39.738350" lon="2.692770">
        <ele>351.050</ele>
        <time>2020-01-28T05:03:02Z</time>
      </trkpt>
      <trkpt lat="39.738410" lon="2.693100">
        <ele>353.098</ele>
        <time>2020-01-28T05:03:22Z</time>
      </trkpt>
      <trkpt lat="39.738720" lon="2.693820">
        <ele>358.031</ele>
        <time>2020-01-28T05:03:42Z</time>
      </trkpt>
      <trkpt lat="39.738730" lon="2.693860">
        <ele>359.042</ele>
        <time>2020-01-28T05:04:02Z</time>
      </trkpt>
      <trkpt lat="39.738720" lon="2.693900">
        <ele>359.022</ele>
        <time>2020-01-28T05:04:22Z</time>
      </trkpt>
      <trkpt lat="39.738680" lon="2.693900">
        <ele>359.014</ele>
        <time>2020-01-28T05:04:42Z</time>
      </trkpt>
      <trkpt lat="39.738630" lon="2.693830">
        <ele>360.008</ele>
        <time>2020-01-28T05:05:02Z</time>
      </trkpt>
      <trkpt lat="39.738570" lon="2.693690">
        <ele>361.048</ele>
        <time>2020-01-28T05:05:22Z</time>
      </trkpt>
      <trkpt lat="39.738410" lon="2.693460">
        <ele>363.059</ele>
        <time>2020-01-28T05:05:42Z</time>
      </trkpt>
      <trkpt lat="39.738210" lon="2.693230">
        <ele>365.043</ele>
        <time>2020-01-28T05:06:02Z</time>
      </trkpt>
      <trkpt lat="39.738120" lon="2.693070">
        <ele>366.070</ele>
        <time>2020-01-28T05:06:22Z</time>
      </trkpt>
      <trkpt lat="39.738050" lon="2.692900">
        <ele>367.035</ele>
        <time>2020-01-28T05:06:42Z</time>
      </trkpt>
      <trkpt lat="39.738040" lon="2.692520">
        <ele>369.021</ele>
        <time>2020-01-28T05:07:02Z</time>
      </trkpt>
      <trkpt lat="39.738020" lon="2.692460">
        <ele>370.039</ele>
        <time>2020-01-28T05:07:22Z</time>
      </trkpt>
      <trkpt lat="39.737990" lon="2.692430">
        <ele>370.072</ele>
        <time>2020-01-28T05:07:42Z</time>
      </trkpt>
      <trkpt lat="39.737950" lon="2.692450">
        <ele>370.086</ele>
        <time>2020-01-28T05:08:02Z</time>
      </trkpt>
      <trkpt lat="39.737930" lon="2.692530">
        <ele>371.060</ele>
        <time>2020-01-28T05:08:22Z</time>
      </trkpt>
      <trkpt lat="39.737930" lon="2.692930">
        <ele>373.026</ele>
        <time>2020-01-28T05:08:42Z</time>
      </trkpt>
      <trkpt lat="39.737940" lon="2.693080">
        <ele>373.008</ele>
        <time>2020-01-28T05:09:02Z</time>
      </trkpt>
      <trkpt lat="39.738010" lon="2.693240">
        <ele>374.082</ele>
        <time>2020-01-28T05:09:22Z</time>
      </trkpt>
      <trkpt lat="39.738130" lon="2.693430">
        <ele>374.033</ele>
        <time>2020-01-28T05:09:42Z</time>
      </trkpt>
      <trkpt lat="39.738240" lon="2.693580">
        <ele>375.047</ele>
        <time>2020-01-28T05:10:02Z</time>
      </trkpt>
      <trkpt lat="39.738270" lon="2.693650">
        <ele>375.034</ele>
        <time>2020-01-28T05:10:22Z</time>
      </trkpt>
      <trkpt lat="39.738280" lon="2.693710">
        <ele>375.019</ele>
        <time>2020-01-28T05:10:42Z</time>
      </trkpt>
      <trkpt lat="39.738240" lon="2.693740">
        <ele>376.035</ele>
        <time>2020-01-28T05:11:02Z</time>
      </trkpt>
      <trkpt lat="39.738140" lon="2.693730">
        <ele>376.063</ele>
        <time>2020-01-28T05:11:22Z</time>
      </trkpt>
      <trkpt lat="39.737800" lon="2.693210">
        <ele>378.096</ele>
        <time>2020-01-28T05:11:42Z</time>
      </trkpt>
      <trkpt lat="39.737630" lon="2.692840">
        <ele>379.037</ele>
        <time>2020-01-28T05:12:02Z</time>
      </trkpt>
      <trkpt lat="39.737510" lon="2.692220">
        <ele>382.049</ele>
        <time>2020-01-28T05:12:22Z</time>
      </trkpt>
      <trkpt lat="39.737470" lon="2.692090">
        <ele>383.013</ele>
        <time>2020-01-28T05:12:42Z</time>
      </trkpt>
      <trkpt lat="39.737130" lon="2.691450">
        <ele>387.008</ele>
        <time>2020-01-28T05:13:02Z</time>
      </trkpt>
      <trkpt lat="39.736990" lon="2.691130">
        <ele>390.067</ele>
        <time>2020-01-28T05:13:22Z</time>
      </trkpt>
      <trkpt lat="39.736950" lon="2.691090">
        <ele>390.068</ele>
        <time>2020-01-28T05:13:42Z</time>
      </trkpt>
      <trkpt lat="39.736920" lon="2.691080">
        <ele>390.082</ele>
        <time>2020-01-28T05:14:02Z</time>
      </trkpt>
      <trkpt lat="39.736890" lon="2.691100">
        <ele>391.039</ele>
        <time>2020-01-28T05:14:22Z</time>
      </trkpt>
      <trkpt lat="39.736880" lon="2.691150">
        <ele>391.024</ele>
        <time>2020-01-28T05:14:42Z</time>
      </trkpt>
      <trkpt lat="39.736900" lon="2.691250">
        <ele>391.060</ele>
        <time>2020-01-28T05:15:02Z</time>
      </trkpt>
      <trkpt lat="39.737210" lon="2.691970">
        <ele>396.028</ele>
        <time>2020-01-28T05:15:22Z</time>
      </trkpt>
      <trkpt lat="39.737250" lon="2.692200">
        <ele>398.061</ele>
        <time>2020-01-28T05:15:42Z</time>
      </trkpt>
      <trkpt lat="39.737280" lon="2.692480">
        <ele>400.028</ele>
        <time>2020-01-28T05:16:02Z</time>
      </trkpt>
      <trkpt lat="39.737280" lon="2.692690">
        <ele>401.089</ele>
        <time>2020-01-28T05:16:22Z</time>
      </trkpt>
      <trkpt lat="39.737260" lon="2.692740">
        <ele>401.017</ele>
        <time>2020-01-28T05:16:42Z</time>
      </trkpt>
      <trkpt lat="39.737210" lon="2.692760">
        <ele>402.008</ele>
        <time>2020-01-28T05:17:02Z</time>
      </trkpt>
      <trkpt lat="39.737180" lon="2.692740">
        <ele>402.056</ele>
        <time>2020-01-28T05:17:22Z</time>
      </trkpt>
      <trkpt lat="39.737160" lon="2.692680">
        <ele>402.027</ele>
        <time>2020-01-28T05:17:42Z</time>
      </trkpt>
      <trkpt lat="39.737110" lon="2.692290">
        <ele>405.011</ele>
        <time>2020-01-28T05:18:02Z</time>
      </trkpt>
      <trkpt lat="39.737060" lon="2.692100">
        <ele>406.048</ele>
        <time>2020-01-28T05:18:22Z</time>
      </trkpt>
      <trkpt lat="39.736730" lon="2.691620">
        <ele>410.053</ele>
        <time>2020-01-28T05:18:42Z</time>
      </trkpt>
      <trkpt lat="39.736590" lon="2.691340">
        <ele>412.089</ele>
        <time>2020-01-28T05:19:02Z</time>
      </trkpt>
      <trkpt lat="39.736570" lon="2.691220">
        <ele>412.027</ele>
        <time>2020-01-28T05:19:22Z</time>
      </trkpt>
      <trkpt lat="39.736560" lon="2.690980">
        <ele>413.060</ele>
        <time>2020-01-28T05:19:42Z</time>
      </trkpt>
      <trkpt lat="39.736570" lon="2.690740">
        <ele>413.086</ele>
        <time>2020-01-28T05:20:02Z</time>
      </trkpt>
      <trkpt lat="39.736570" lon="2.690680">
        <ele>414.060</ele>
        <time>2020-01-28T05:20:22Z</time>
      </trkpt>
      <trkpt lat="39.736550" lon="2.690630">
        <ele>414.026</ele>
        <time>2020-01-28T05:20:42Z</time>
      </trkpt>
      <trkpt lat="39.736480" lon="2.690630">
        <ele>414.008</ele>
        <time>2020-01-28T05:21:02Z</time>
      </trkpt>
      <trkpt lat="39.736430" lon="2.690690">
        <ele>414.082</ele>
        <time>2020-01-28T05:21:22Z</time>
      </trkpt>
      <trkpt lat="39.736410" lon="2.690790">
        <ele>415.093</ele>
        <time>2020-01-28T05:21:42Z</time>
      </trkpt>
      <trkpt lat="39.736400" lon="2.691080">
        <ele>416.017</ele>
        <time>2020-01-28T05:22:02Z</time>
      </trkpt>
      <trkpt lat="39.736430" lon="2.691320">
        <ele>416.014</ele>
        <time>2020-01-28T05:22:22Z</time>
      </trkpt>
      <trkpt lat="39.736520" lon="2.691670">
        <ele>417.089</ele>
        <time>2020-01-28T05:22:42Z</time>
      </trkpt>
      <trkpt lat="39.736500" lon="2.691720">
        <ele>418.075</ele>
        <time>2020-01-28T05:23:02Z</time>
      </trkpt>
      <trkpt lat="39.736470" lon="2.691730">
        <ele>418.093</ele>
        <time>2020-01-28T05:23:22Z</time>
      </trkpt>
      <trkpt lat="39.736430" lon="2.691710">
        <ele>418.086</ele>
        <time>2020-01-28T05:23:42Z</time>
      </trkpt>
      <trkpt lat="39.736400" lon="2.691670">
        <ele>418.088</ele>
        <time>2020-01-28T05:24:02Z</time>
      </trkpt>
      <trkpt lat="39.736250" lon="2.691240">
        <ele>420.024</ele>
        <time>2020-01-28T05:24:22Z</time>
      </trkpt>
      <trkpt lat="39.736180" lon="2.690920">
        <ele>422.026</ele>
        <time>2020-01-28T05:24:42Z</time>
      </trkpt>
      <trkpt lat="39.736180" lon="2.690770">
        <ele>423.008</ele>
        <time>2020-01-28T05:25:02Z</time>
      </trkpt>
      <trkpt lat="39.736220" lon="2.690640">
        <ele>424.042</ele>
        <time>2020-01-28T05:25:22Z</time>
      </trkpt>
      <trkpt lat="39.736370" lon="2.690220">
        <ele>427.083</ele>
        <time>2020-01-28T05:25:42Z</time>
      </trkpt>
      <trkpt lat="39.736360" lon="2.690110">
        <ele>428.067</ele>
        <time>2020-01-28T05:26:02Z</time>
      </trkpt>
      <trkpt lat="39.736320" lon="2.690090">
        <ele>428.034</ele>
        <time>2020-01-28T05:26:22Z</time>
      </trkpt>
      <trkpt lat="39.736280" lon="2.690110">
        <ele>428.059</ele>
        <time>2020-01-28T05:26:42Z</time>
      </trkpt>
      <trkpt lat="39.736210" lon="2.690280">
        <ele>430.075</ele>
        <time>2020-01-28T05:27:02Z</time>
      </trkpt>
      <trkpt lat="39.736110" lon="2.690470">
        <ele>431.093</ele>
        <time>2020-01-28T05:27:22Z</time>
      </trkpt>
      <trkpt lat="39.736050" lon="2.690660">
        <ele>433.096</ele>
        <time>2020-01-28T05:27:42Z</time>
      </trkpt>
      <trkpt lat="39.736020" lon="2.690820">
        <ele>434.024</ele>
        <time>2020-01-28T05:28:02Z</time>
      </trkpt>
      <trkpt lat="39.735980" lon="2.690840">
        <ele>434.004</ele>
        <time>2020-01-28T05:28:22Z</time>
      </trkpt>
      <trkpt lat="39.735950" lon="2.690820">
        <ele>435.014</ele>
        <time>2020-01-28T05:28:42Z</time>
      </trkpt>
      <trkpt lat="39.735920" lon="2.690780">
        <ele>435.008</ele>
        <time>2020-01-28T05:29:02Z</time>
      </trkpt>
      <trkpt lat="39.735940" lon="2.690530">
        <ele>437.076</ele>
        <time>2020-01-28T05:29:22Z</time>
      </trkpt>
      <trkpt lat="39.736130" lon="2.689810">
        <ele>440.067</ele>
        <time>2020-01-28T05:29:42Z</time>
      </trkpt>
      <trkpt lat="39.736110" lon="2.689770">
        <ele>440.091</ele>
        <time>2020-01-28T05:30:02Z</time>
      </trkpt>
      <trkpt lat="39.736080" lon="2.689760">
        <ele>441.068</ele>
        <time>2020-01-28T05:30:22Z</time>
      </trkpt>
      <trkpt lat="39.736020" lon="2.689850">
        <ele>441.013</ele>
        <time>2020-01-28T05:30:42Z</time>
      </trkpt>
      <trkpt lat="39.735900" lon="2.690370">
        <ele>443.039</ele>
        <time>2020-01-28T05:31:02Z</time>
      </trkpt>
      <trkpt lat="39.735840" lon="2.690540">
        <ele>444.017</ele>
        <time>2020-01-28T05:31:22Z</time>
      </trkpt>
      <trkpt lat="39.735810" lon="2.690560">
        <ele>444.060</ele>
        <time>2020-01-28T05:31:42Z</time>
      </trkpt>
      <trkpt lat="39.735770" lon="2.690540">
        <ele>444.021</ele>
        <time>2020-01-28T05:32:02Z</time>
      </trkpt>
      <trkpt lat="39.735760" lon="2.690490">
        <ele>445.041</ele>
        <time>2020-01-28T05:32:22Z</time>
      </trkpt>
      <trkpt lat="39.736000" lon="2.689030">
        <ele>450.005</ele>
        <time>2020-01-28T05:32:42Z</time>
      </trkpt>
      <trkpt lat="39.735990" lon="2.688950">
        <ele>450.008</ele>
        <time>2020-01-28T05:33:02Z</time>
      </trkpt>
      <trkpt lat="39.735940" lon="2.688790">
        <ele>451.026</ele>
        <time>2020-01-28T05:33:22Z</time>
      </trkpt>
      <trkpt lat="39.735450" lon="2.688120">
        <ele>453.057</ele>
        <time>2020-01-28T05:33:42Z</time>
      </trkpt>
      <trkpt lat="39.735330" lon="2.687900">
        <ele>454.041</ele>
        <time>2020-01-28T05:34:02Z</time>
      </trkpt>
      <trkpt lat="39.735150" lon="2.687360">
        <ele>455.078</ele>
        <time>2020-01-28T05:34:22Z</time>
      </trkpt>
      <trkpt lat="39.735050" lon="2.687170">
        <ele>456.083</ele>
        <time>2020-01-28T05:34:42Z</time>
      </trkpt>
      <trkpt lat="39.734930" lon="2.687020">
        <ele>457.049</ele>
        <time>2020-01-28T05:35:02Z</time>
      </trkpt>
      <trkpt lat="39.734830" lon="2.686950">
        <ele>458.057</ele>
        <time>2020-01-28T05:35:22Z</time>
      </trkpt>
      <trkpt lat="39.734780" lon="2.686950">
        <ele>458.070</ele>
        <time>2020-01-28T05:35:42Z</time>
      </trkpt>
      <trkpt lat="39.734630" lon="2.687000">
        <ele>459.072</ele>
        <time>2020-01-28T05:36:02Z</time>
      </trkpt>
      <trkpt lat="39.734440" lon="2.687000">
        <ele>460.013</ele>
        <time>2020-01-28T05:36:22Z</time>
      </trkpt>
      <trkpt lat="39.734390" lon="2.686950">
        <ele>460.014</ele>
        <time>2020-01-28T05:36:42Z</time>
      </trkpt>
      <trkpt lat="39.733710" lon="2.686080">
        <ele>465.008</ele>
        <time>2020-01-28T05:37:02Z</time>
      </trkpt>
      <trkpt lat="39.733630" lon="2.686010">
        <ele>465.091</ele>
        <time>2020-01-28T05:37:22Z</time>
      </trkpt>
      <trkpt lat="39.733590" lon="2.686010">
        <ele>465.042</ele>
        <time>2020-01-28T05:37:42Z</time>
      </trkpt>
      <trkpt lat="39.733560" lon="2.686050">
        <ele>466.036</ele>
        <time>2020-01-28T05:38:02Z</time>
      </trkpt>
      <trkpt lat="39.733550" lon="2.686090">
        <ele>466.023</ele>
        <time>2020-01-28T05:38:22Z</time>
      </trkpt>
      <trkpt lat="39.733590" lon="2.686190">
        <ele>466.098</ele>
        <time>2020-01-28T05:38:42Z</time>
      </trkpt>
      <trkpt lat="39.733810" lon="2.686640">
        <ele>469.054</ele>
        <time>2020-01-28T05:39:02Z</time>
      </trkpt>
      <trkpt lat="39.734130" lon="2.687170">
        <ele>472.082</ele>
        <time>2020-01-28T05:39:22Z</time>
      </trkpt>
      <trkpt lat="39.734140" lon="2.687220">
        <ele>472.075</ele>
        <time>2020-01-28T05:39:42Z</time>
      </trkpt>
      <trkpt lat="39.734120" lon="2.687270">
        <ele>472.087</ele>
        <time>2020-01-28T05:40:02Z</time>
      </trkpt>
      <trkpt lat="39.734080" lon="2.687300">
        <ele>472.042</ele>
        <time>2020-01-28T05:40:22Z</time>
      </trkpt>
      <trkpt lat="39.734030" lon="2.687290">
        <ele>473.026</ele>
        <time>2020-01-28T05:40:42Z</time>
      </trkpt>
      <trkpt lat="39.733990" lon="2.687260">
        <ele>473.008</ele>
        <time>2020-01-28T05:41:02Z</time>
      </trkpt>
      <trkpt lat="39.733080" lon="2.685990">
        <ele>479.072</ele>
        <time>2020-01-28T05:41:22Z</time>
      </trkpt>
      <trkpt lat="39.733020" lon="2.685960">
        <ele>479.033</ele>
        <time>2020-01-28T05:41:42Z</time>
      </trkpt>
      <trkpt lat="39.732990" lon="2.685970">
        <ele>480.017</ele>
        <time>2020-01-28T05:42:02Z</time>
      </trkpt>
      <trkpt lat="39.732970" lon="2.686020">
        <ele>480.034</ele>
        <time>2020-01-28T05:42:22Z</time>
      </trkpt>
      <trkpt lat="39.732970" lon="2.686070">
        <ele>480.029</ele>
        <time>2020-01-28T05:42:42Z</time>
      </trkpt>
      <trkpt lat="39.733310" lon="2.686820">
        <ele>482.075</ele>
        <time>2020-01-28T05:43:02Z</time>
      </trkpt>
      <trkpt lat="39.733490" lon="2.687090">
        <ele>483.023</ele>
        <time>2020-01-28T05:43:22Z</time>
      </trkpt>
      <trkpt lat="39.733510" lon="2.687160">
        <ele>483.076</ele>
        <time>2020-01-28T05:43:42Z</time>
      </trkpt>
      <trkpt lat="39.733460" lon="2.687250">
        <ele>483.073</ele>
        <time>2020-01-28T05:44:02Z</time>
      </trkpt>
      <trkpt lat="39.733420" lon="2.687240">
        <ele>483.085</ele>
        <time>2020-01-28T05:44:22Z</time>
      </trkpt>
      <trkpt lat="39.733340" lon="2.687150">
        <ele>483.013</ele>
        <time>2020-01-28T05:44:42Z</time>
      </trkpt>
      <trkpt lat="39.732740" lon="2.685980">
        <ele>491.008</ele>
        <time>2020-01-28T05:45:02Z</time>
      </trkpt>
      <trkpt lat="39.732690" lon="2.685900">
        <ele>491.081</ele>
        <time>2020-01-28T05:45:22Z</time>
      </trkpt>
      <trkpt lat="39.732610" lon="2.685900">
        <ele>492.032</ele>
        <time>2020-01-28T05:45:42Z</time>
      </trkpt>
      <trkpt lat="39.732600" lon="2.685970">
        <ele>492.086</ele>
        <time>2020-01-28T05:46:02Z</time>
      </trkpt>
      <trkpt lat="39.732600" lon="2.686030">
        <ele>493.073</ele>
        <time>2020-01-28T05:46:22Z</time>
      </trkpt>
      <trkpt lat="39.732810" lon="2.686370">
        <ele>495.098</ele>
        <time>2020-01-28T05:46:42Z</time>
      </trkpt>
      <trkpt lat="39.732810" lon="2.686450">
        <ele>495.014</ele>
        <time>2020-01-28T05:47:02Z</time>
      </trkpt>
      <trkpt lat="39.732790" lon="2.686470">
        <ele>495.062</ele>
        <time>2020-01-28T05:47:22Z</time>
      </trkpt>
      <trkpt lat="39.732750" lon="2.686460">
        <ele>496.075</ele>
        <time>2020-01-28T05:47:42Z</time>
      </trkpt>
      <trkpt lat="39.732700" lon="2.686400">
        <ele>496.054</ele>
        <time>2020-01-28T05:48:02Z</time>
      </trkpt>
      <trkpt lat="39.732570" lon="2.686220">
        <ele>497.056</ele>
        <time>2020-01-28T05:48:22Z</time>
      </trkpt>
      <trkpt lat="39.732500" lon="2.686160">
        <ele>497.011</ele>
        <time>2020-01-28T05:48:42Z</time>
      </trkpt>
      <trkpt lat="39.732420" lon="2.686130">
        <ele>497.008</ele>
        <time>2020-01-28T05:49:02Z</time>
      </trkpt>
      <trkpt lat="39.731340" lon="2.686210">
        <ele>494.029</ele>
        <time>2020-01-28T05:49:22Z</time>
      </trkpt>
      <trkpt lat="39.731340" lon="2.686210">
        <ele>494.030</ele>
        <time>2020-01-28T05:49:42Z</time>
      </trkpt>
      <trkpt lat="39.730580" lon="2.686270">
        <ele>492.064</ele>
        <time>2020-01-28T05:50:02Z</time>
      </trkpt>
      <trkpt lat="39.730420" lon="2.686300">
        <ele>491.041</ele>
        <time>2020-01-28T05:50:22Z</time>
      </trkpt>
      <trkpt lat="39.730380" lon="2.686340">
        <ele>490.086</ele>
        <time>2020-01-28T05:50:42Z</time>
      </trkpt>
      <trkpt lat="39.730330" lon="2.686420">
        <ele>490.012</ele>
        <time>2020-01-28T05:51:02Z</time>
      </trkpt>
      <trkpt lat="39.730150" lon="2.686830">
        <ele>488.030</ele>
        <time>2020-01-28T05:51:22Z</time>
      </trkpt>
      <trkpt lat="39.730020" lon="2.686980">
        <ele>487.073</ele>
        <time>2020-01-28T05:51:42Z</time>
      </trkpt>
      <trkpt lat="39.729750" lon="2.687200">
        <ele>485.017</ele>
        <time>2020-01-28T05:52:02Z</time>
      </trkpt>
      <trkpt lat="39.729310" lon="2.687440">
        <ele>483.087</ele>
        <time>2020-01-28T05:52:22Z</time>
      </trkpt>
      <trkpt lat="39.728880" lon="2.687620">
        <ele>480.015</ele>
        <time>2020-01-28T05:52:42Z</time>
      </trkpt>
      <trkpt lat="39.728820" lon="2.687620">
        <ele>480.008</ele>
        <time>2020-01-28T05:53:02Z</time>
      </trkpt>
      <trkpt lat="39.728790" lon="2.687590">
        <ele>480.065</ele>
        <time>2020-01-28T05:53:22Z</time>
      </trkpt>
      <trkpt lat="39.728780" lon="2.687550">
        <ele>480.066</ele>
        <time>2020-01-28T05:53:42Z</time>
      </trkpt>
      <trkpt lat="39.728810" lon="2.687500">
        <ele>479.080</ele>
        <time>2020-01-28T05:54:02Z</time>
      </trkpt>
      <trkpt lat="39.729040" lon="2.687380">
        <ele>478.087</ele>
        <time>2020-01-28T05:54:22Z</time>
      </trkpt>
      <trkpt lat="39.729190" lon="2.687270">
        <ele>477.042</ele>
        <time>2020-01-28T05:54:42Z</time>
      </trkpt>
      <trkpt lat="39.729400" lon="2.687070">
        <ele>476.078</ele>
        <time>2020-01-28T05:55:02Z</time>
      </trkpt>
      <trkpt lat="39.729630" lon="2.686800">
        <ele>475.076</ele>
        <time>2020-01-28T05:55:22Z</time>
      </trkpt>
      <trkpt lat="39.729650" lon="2.686730">
        <ele>474.049</ele>
        <time>2020-01-28T05:55:42Z</time>
      </trkpt>
      <trkpt lat="39.729640" lon="2.686680">
        <ele>474.096</ele>
        <time>2020-01-28T05:56:02Z</time>
      </trkpt>
      <trkpt lat="39.729610" lon="2.686650">
        <ele>474.031</ele>
        <time>2020-01-28T05:56:22Z</time>
      </trkpt>
      <trkpt lat="39.729580" lon="2.686640">
        <ele>474.024</ele>
        <time>2020-01-28T05:56:42Z</time>
      </trkpt>
      <trkpt lat="39.729360" lon="2.686830">
        <ele>472.008</ele>
        <time>2020-01-28T05:57:02Z</time>
      </trkpt>
      <trkpt lat="39.729160" lon="2.686970">
        <ele>471.073</ele>
        <time>2020-01-28T05:57:22Z</time>
      </trkpt>
      <trkpt lat="39.729040" lon="2.687030">
        <ele>471.044</ele>
        <time>2020-01-28T05:57:42Z</time>
      </trkpt>
      <trkpt lat="39.728730" lon="2.687100">
        <ele>468.018</ele>
        <time>2020-01-28T05:58:02Z</time>
      </trkpt>
      <trkpt lat="39.728660" lon="2.687110">
        <ele>468.045</ele>
        <time>2020-01-28T05:58:22Z</time>
      </trkpt>
      <trkpt lat="39.728600" lon="2.687090">
        <ele>467.040</ele>
        <time>2020-01-28T05:58:42Z</time>
      </trkpt>
      <trkpt lat="39.728590" lon="2.687030">
        <ele>467.056</ele>
        <time>2020-01-28T05:59:02Z</time>
      </trkpt>
      <trkpt lat="39.728600" lon="2.686980">
        <ele>466.074</ele>
        <time>2020-01-28T05:59:22Z</time>
      </trkpt>
      <trkpt lat="39.728630" lon="2.686930">
        <ele>466.027</ele>
        <time>2020-01-28T05:59:42Z</time>
      </trkpt>
      <trkpt lat="39.728930" lon="2.686840">
        <ele>463.056</ele>
        <time>2020-01-28T06:00:02Z</time>
      </trkpt>
      <trkpt lat="39.728980" lon="2.686790">
        <ele>463.059</ele>
        <time>2020-01-28T06:00:22Z</time>
      </trkpt>
      <trkpt lat="39.728990" lon="2.686730">
        <ele>462.014</ele>
        <time>2020-01-28T06:00:42Z</time>
      </trkpt>
      <trkpt lat="39.728970" lon="2.686660">
        <ele>462.008</ele>
        <time>2020-01-28T06:01:02Z</time>
      </trkpt>
      <trkpt lat="39.728930" lon="2.686610">
        <ele>462.059</ele>
        <time>2020-01-28T06:01:22Z</time>
      </trkpt>
      <trkpt lat="39.728700" lon="2.686450">
        <ele>459.090</ele>
        <time>2020-01-28T06:01:42Z</time>
      </trkpt>
      <trkpt lat="39.728400" lon="2.686210">
        <ele>456.024</ele>
        <time>2020-01-28T06:02:02Z</time>
      </trkpt>
      <trkpt lat="39.728370" lon="2.686160">
        <ele>456.091</ele>
        <time>2020-01-28T06:02:22Z</time>
      </trkpt>
      <trkpt lat="39.728380" lon="2.686030">
        <ele>455.026</ele>
        <time>2020-01-28T06:02:42Z</time>
      </trkpt>
      <trkpt lat="39.728470" lon="2.685780">
        <ele>453.042</ele>
        <time>2020-01-28T06:03:02Z</time>
      </trkpt>
      <trkpt lat="39.728480" lon="2.685690">
        <ele>453.020</ele>
        <time>2020-01-28T06:03:22Z</time>
      </trkpt>
      <trkpt lat="39.728470" lon="2.685650">
        <ele>453.043</ele>
        <time>2020-01-28T06:03:42Z</time>
      </trkpt>
      <trkpt lat="39.728430" lon="2.685600">
        <ele>452.082</ele>
        <time>2020-01-28T06:04:02Z</time>
      </trkpt>
      <trkpt lat="39.728380" lon="2.685590">
        <ele>452.043</ele>
        <time>2020-01-28T06:04:22Z</time>
      </trkpt>
      <trkpt lat="39.728270" lon="2.685690">
        <ele>451.017</ele>
        <time>2020-01-28T06:04:42Z</time>
      </trkpt>
      <trkpt lat="39.728160" lon="2.685900">
        <ele>450.008</ele>
        <time>2020-01-28T06:05:02Z</time>
      </trkpt>
      <trkpt lat="39.728100" lon="2.686160">
        <ele>449.092</ele>
        <time>2020-01-28T06:05:22Z</time>
      </trkpt>
      <trkpt lat="39.728120" lon="2.686640">
        <ele>446.083</ele>
        <time>2020-01-28T06:05:42Z</time>
      </trkpt>
      <trkpt lat="39.728110" lon="2.686680">
        <ele>446.027</ele>
        <time>2020-01-28T06:06:02Z</time>
      </trkpt>
      <trkpt lat="39.728070" lon="2.686710">
        <ele>446.074</ele>
        <time>2020-01-28T06:06:22Z</time>
      </trkpt>
      <trkpt lat="39.728030" lon="2.686720">
        <ele>445.059</ele>
        <time>2020-01-28T06:06:42Z</time>
      </trkpt>
      <trkpt lat="39.728000" lon="2.686710">
        <ele>445.065</ele>
        <time>2020-01-28T06:07:02Z</time>
      </trkpt>
      <trkpt lat="39.727970" lon="2.686660">
        <ele>445.063</ele>
        <time>2020-01-28T06:07:22Z</time>
      </trkpt>
      <trkpt lat="39.727810" lon="2.686170">
        <ele>442.056</ele>
        <time>2020-01-28T06:07:42Z</time>
      </trkpt>
      <trkpt lat="39.727760" lon="2.685840">
        <ele>441.018</ele>
        <time>2020-01-28T06:08:02Z</time>
      </trkpt>
      <trkpt lat="39.727770" lon="2.685210">
        <ele>437.098</ele>
        <time>2020-01-28T06:08:22Z</time>
      </trkpt>
      <trkpt lat="39.727740" lon="2.685160">
        <ele>437.017</ele>
        <time>2020-01-28T06:08:42Z</time>
      </trkpt>
      <trkpt lat="39.727700" lon="2.685140">
        <ele>436.008</ele>
        <time>2020-01-28T06:09:02Z</time>
      </trkpt>
      <trkpt lat="39.727670" lon="2.685150">
        <ele>436.045</ele>
        <time>2020-01-28T06:09:22Z</time>
      </trkpt>
      <trkpt lat="39.727640" lon="2.685210">
        <ele>436.026</ele>
        <time>2020-01-28T06:09:42Z</time>
      </trkpt>
      <trkpt lat="39.727560" lon="2.685600">
        <ele>434.040</ele>
        <time>2020-01-28T06:10:02Z</time>
      </trkpt>
      <trkpt lat="39.727470" lon="2.685860">
        <ele>432.097</ele>
        <time>2020-01-28T06:10:22Z</time>
      </trkpt>
      <trkpt lat="39.727460" lon="2.685950">
        <ele>431.092</ele>
        <time>2020-01-28T06:10:42Z</time>
      </trkpt>
      <trkpt lat="39.727500" lon="2.686230">
        <ele>430.098</ele>
        <time>2020-01-28T06:11:02Z</time>
      </trkpt>
      <trkpt lat="39.727450" lon="2.686630">
        <ele>427.096</ele>
        <time>2020-01-28T06:11:22Z</time>
      </trkpt>
      <trkpt lat="39.727410" lon="2.686790">
        <ele>427.049</ele>
        <time>2020-01-28T06:11:42Z</time>
      </trkpt>
      <trkpt lat="39.727300" lon="2.687010">
        <ele>425.054</ele>
        <time>2020-01-28T06:12:02Z</time>
      </trkpt>
      <trkpt lat="39.727210" lon="2.687120">
        <ele>425.056</ele>
        <time>2020-01-28T06:12:22Z</time>
      </trkpt>
      <trkpt lat="39.726630" lon="2.687560">
        <ele>425.011</ele>
        <time>2020-01-28T06:12:42Z</time>
      </trkpt>
      <trkpt lat="39.726520" lon="2.687610">
        <ele>425.008</ele>
        <time>2020-01-28T06:13:02Z</time>
      </trkpt>
      <trkpt lat="39.726490" lon="2.687530">
        <ele>425.029</ele>
        <time>2020-01-28T06:13:22Z</time>
      </trkpt>
      <trkpt lat="39.726500" lon="2.687490">
        <ele>425.050</ele>
        <time>2020-01-28T06:13:42Z</time>
      </trkpt>
      <trkpt lat="39.726890" lon="2.686930">
        <ele>425.024</ele>
        <time>2020-01-28T06:14:02Z</time>
      </trkpt>
      <trkpt lat="39.726940" lon="2.686820">
        <ele>425.011</ele>
        <time>2020-01-28T06:14:22Z</time>
      </trkpt>
      <trkpt lat="39.726980" lon="2.686610">
        <ele>425.026</ele>
        <time>2020-01-28T06:14:42Z</time>
      </trkpt>
      <trkpt lat="39.727010" lon="2.685230">
        <ele>417.052</ele>
        <time>2020-01-28T06:15:02Z</time>
      </trkpt>
      <trkpt lat="39.726980" lon="2.685170">
        <ele>417.070</ele>
        <time>2020-01-28T06:15:22Z</time>
      </trkpt>
      <trkpt lat="39.726950" lon="2.685150">
        <ele>417.023</ele>
        <time>2020-01-28T06:15:42Z</time>
      </trkpt>
      <trkpt lat="39.726860" lon="2.685170">
        <ele>416.072</ele>
        <time>2020-01-28T06:16:02Z</time>
      </trkpt>
      <trkpt lat="39.726830" lon="2.685230">
        <ele>416.013</ele>
        <time>2020-01-28T06:16:22Z</time>
      </trkpt>
      <trkpt lat="39.726770" lon="2.686090">
        <ele>411.014</ele>
        <time>2020-01-28T06:16:42Z</time>
      </trkpt>
      <trkpt lat="39.726760" lon="2.686150">
        <ele>410.008</ele>
        <time>2020-01-28T06:17:02Z</time>
      </trkpt>
      <trkpt lat="39.726720" lon="2.686180">
        <ele>410.021</ele>
        <time>2020-01-28T06:17:22Z</time>
      </trkpt>
      <trkpt lat="39.726670" lon="2.686170">
        <ele>410.012</ele>
        <time>2020-01-28T06:17:42Z</time>
      </trkpt>
      <trkpt lat="39.726610" lon="2.686080">
        <ele>409.026</ele>
        <time>2020-01-28T06:18:02Z</time>
      </trkpt>
      <trkpt lat="39.726520" lon="2.685010">
        <ele>404.053</ele>
        <time>2020-01-28T06:18:22Z</time>
      </trkpt>
      <trkpt lat="39.726500" lon="2.684970">
        <ele>404.018</ele>
        <time>2020-01-28T06:18:42Z</time>
      </trkpt>
      <trkpt lat="39.726430" lon="2.684980">
        <ele>404.034</ele>
        <time>2020-01-28T06:19:02Z</time>
      </trkpt>
      <trkpt lat="39.726410" lon="2.685020">
        <ele>403.092</ele>
        <time>2020-01-28T06:19:22Z</time>
      </trkpt>
      <trkpt lat="39.726370" lon="2.685530">
        <ele>401.035</ele>
        <time>2020-01-28T06:19:42Z</time>
      </trkpt>
      <trkpt lat="39.726350" lon="2.685680">
        <ele>400.026</ele>
        <time>2020-01-28T06:20:02Z</time>
      </trkpt>
      <trkpt lat="39.726210" lon="2.686120">
        <ele>398.047</ele>
        <time>2020-01-28T06:20:22Z</time>
      </trkpt>
      <trkpt lat="39.726160" lon="2.686230">
        <ele>398.011</ele>
        <time>2020-01-28T06:20:42Z</time>
      </trkpt>
      <trkpt lat="39.726130" lon="2.686270">
        <ele>397.008</ele>
        <time>2020-01-28T06:21:02Z</time>
      </trkpt>
      <trkpt lat="39.726090" lon="2.686280">
        <ele>397.066</ele>
        <time>2020-01-28T06:21:22Z</time>
      </trkpt>
      <trkpt lat="39.726050" lon="2.686250">
        <ele>397.017</ele>
        <time>2020-01-28T06:21:42Z</time>
      </trkpt>
      <trkpt lat="39.726020" lon="2.686210">
        <ele>396.031</ele>
        <time>2020-01-28T06:22:02Z</time>
      </trkpt>
      <trkpt lat="39.726000" lon="2.686150">
        <ele>396.038</ele>
        <time>2020-01-28T06:22:22Z</time>
      </trkpt>
      <trkpt lat="39.726220" lon="2.685390">
        <ele>391.093</ele>
        <time>2020-01-28T06:22:42Z</time>
      </trkpt>
      <trkpt lat="39.726210" lon="2.685340">
        <ele>391.029</ele>
        <time>2020-01-28T06:23:02Z</time>
      </trkpt>
      <trkpt lat="39.726160" lon="2.685290">
        <ele>391.087</ele>
        <time>2020-01-28T06:23:22Z</time>
      </trkpt>
      <trkpt lat="39.726120" lon="2.685320">
        <ele>390.010</ele>
        <time>2020-01-28T06:23:42Z</time>
      </trkpt>
      <trkpt lat="39.726100" lon="2.685370">
        <ele>390.025</ele>
        <time>2020-01-28T06:24:02Z</time>
      </trkpt>
      <trkpt lat="39.725980" lon="2.685690">
        <ele>388.026</ele>
        <time>2020-01-28T06:24:22Z</time>
      </trkpt>
      <trkpt lat="39.725490" lon="2.686560">
        <ele>382.008</ele>
        <time>2020-01-28T06:24:42Z</time>
      </trkpt>
      <trkpt lat="39.725450" lon="2.686600">
        <ele>382.008</ele>
        <time>2020-01-28T06:25:02Z</time>
      </trkpt>
      <trkpt lat="39.725410" lon="2.686590">
        <ele>382.096</ele>
        <time>2020-01-28T06:25:22Z</time>
      </trkpt>
      <trkpt lat="39.725390" lon="2.686540">
        <ele>382.047</ele>
        <time>2020-01-28T06:25:42Z</time>
      </trkpt>
      <trkpt lat="39.725390" lon="2.686490">
        <ele>382.031</ele>
        <time>2020-01-28T06:26:02Z</time>
      </trkpt>
      <trkpt lat="39.725670" lon="2.685480">
        <ele>380.068</ele>
        <time>2020-01-28T06:26:22Z</time>
      </trkpt>
      <trkpt lat="39.725660" lon="2.685440">
        <ele>380.043</ele>
        <time>2020-01-28T06:26:42Z</time>
      </trkpt>
      <trkpt lat="39.725610" lon="2.685420">
        <ele>380.029</ele>
        <time>2020-01-28T06:27:02Z</time>
      </trkpt>
      <trkpt lat="39.725570" lon="2.685440">
        <ele>379.047</ele>
        <time>2020-01-28T06:27:22Z</time>
      </trkpt>
      <trkpt lat="39.725530" lon="2.685500">
        <ele>379.040</ele>
        <time>2020-01-28T06:27:42Z</time>
      </trkpt>
      <trkpt lat="39.725280" lon="2.686270">
        <ele>378.061</ele>
        <time>2020-01-28T06:28:02Z</time>
      </trkpt>
      <trkpt lat="39.725250" lon="2.686290">
        <ele>378.021</ele>
        <time>2020-01-28T06:28:22Z</time>
      </trkpt>
      <trkpt lat="39.725210" lon="2.686270">
        <ele>378.013</ele>
        <time>2020-01-28T06:28:42Z</time>
      </trkpt>
      <trkpt lat="39.725200" lon="2.686220">
        <ele>377.008</ele>
        <time>2020-01-28T06:29:02Z</time>
      </trkpt>
      <trkpt lat="39.725450" lon="2.685130">
        <ele>372.080</ele>
        <time>2020-01-28T06:29:22Z</time>
      </trkpt>
      <trkpt lat="39.725460" lon="2.685080">
        <ele>372.021</ele>
        <time>2020-01-28T06:29:42Z</time>
      </trkpt>
      <trkpt lat="39.725420" lon="2.685020">
        <ele>372.025</ele>
        <time>2020-01-28T06:30:02Z</time>
      </trkpt>
      <trkpt lat="39.725390" lon="2.685010">
        <ele>371.052</ele>
        <time>2020-01-28T06:30:22Z</time>
      </trkpt>
      <trkpt lat="39.725350" lon="2.685040">
        <ele>371.097</ele>
        <time>2020-01-28T06:30:42Z</time>
      </trkpt>
      <trkpt lat="39.725180" lon="2.685610">
        <ele>368.013</ele>
        <time>2020-01-28T06:31:02Z</time>
      </trkpt>
      <trkpt lat="39.724970" lon="2.686430">
        <ele>364.021</ele>
        <time>2020-01-28T06:31:22Z</time>
      </trkpt>
      <trkpt lat="39.724940" lon="2.686510">
        <ele>364.074</ele>
        <time>2020-01-28T06:31:42Z</time>
      </trkpt>
      <trkpt lat="39.724400" lon="2.687240">
        <ele>359.018</ele>
        <time>2020-01-28T06:32:02Z</time>
      </trkpt>
      <trkpt lat="39.724360" lon="2.687270">
        <ele>359.098</ele>
        <time>2020-01-28T06:32:22Z</time>
      </trkpt>
      <trkpt lat="39.724310" lon="2.687240">
        <ele>359.017</ele>
        <time>2020-01-28T06:32:42Z</time>
      </trkpt>
      <trkpt lat="39.724310" lon="2.687170">
        <ele>359.008</ele>
        <time>2020-01-28T06:33:02Z</time>
      </trkpt>
      <trkpt lat="39.724810" lon="2.686380">
        <ele>354.095</ele>
        <time>2020-01-28T06:33:22Z</time>
      </trkpt>
      <trkpt lat="39.724810" lon="2.686310">
        <ele>354.056</ele>
        <time>2020-01-28T06:33:42Z</time>
      </trkpt>
      <trkpt lat="39.724730" lon="2.686100">
        <ele>353.050</ele>
        <time>2020-01-28T06:34:02Z</time>
      </trkpt>
      <trkpt lat="39.724710" lon="2.686000">
        <ele>352.017</ele>
        <time>2020-01-28T06:34:22Z</time>
      </trkpt>
      <trkpt lat="39.724720" lon="2.685880">
        <ele>352.022</ele>
        <time>2020-01-28T06:34:42Z</time>
      </trkpt>
      <trkpt lat="39.724810" lon="2.685430">
        <ele>350.088</ele>
        <time>2020-01-28T06:35:02Z</time>
      </trkpt>
      <trkpt lat="39.724800" lon="2.685400">
        <ele>350.086</ele>
        <time>2020-01-28T06:35:22Z</time>
      </trkpt>
      <trkpt lat="39.724750" lon="2.685380">
        <ele>350.059</ele>
        <time>2020-01-28T06:35:42Z</time>
      </trkpt>
      <trkpt lat="39.724690" lon="2.685430">
        <ele>349.015</ele>
        <time>2020-01-28T06:36:02Z</time>
      </trkpt>
      <trkpt lat="39.724520" lon="2.686310">
        <ele>346.065</ele>
        <time>2020-01-28T06:36:22Z</time>
      </trkpt>
      <trkpt lat="39.724470" lon="2.686460">
        <ele>345.011</ele>
        <time>2020-01-28T06:36:42Z</time>
      </trkpt>
      <trkpt lat="39.724360" lon="2.686620">
        <ele>344.008</ele>
        <time>2020-01-28T06:37:02Z</time>
      </trkpt>
      <trkpt lat="39.724230" lon="2.686750">
        <ele>344.015</ele>
        <time>2020-01-28T06:37:22Z</time>
      </trkpt>
      <trkpt lat="39.724110" lon="2.686840">
        <ele>343.046</ele>
        <time>2020-01-28T06:37:42Z</time>
      </trkpt>
      <trkpt lat="39.723970" lon="2.686890">
        <ele>342.030</ele>
        <time>2020-01-28T06:38:02Z</time>
      </trkpt>
      <trkpt lat="39.723840" lon="2.686910">
        <ele>341.077</ele>
        <time>2020-01-28T06:38:22Z</time>
      </trkpt>
      <trkpt lat="39.723700" lon="2.686890">
        <ele>340.092</ele>
        <time>2020-01-28T06:38:42Z</time>
      </trkpt>
      <trkpt lat="39.722850" lon="2.686610">
        <ele>334.018</ele>
        <time>2020-01-28T06:39:02Z</time>
      </trkpt>
      <trkpt lat="39.722690" lon="2.686600">
        <ele>333.016</ele>
        <time>2020-01-28T06:39:22Z</time>
      </trkpt>
      <trkpt lat="39.722570" lon="2.686620">
        <ele>333.059</ele>
        <time>2020-01-28T06:39:42Z</time>
      </trkpt>
      <trkpt lat="39.722360" lon="2.686730">
        <ele>331.037</ele>
        <time>2020-01-28T06:40:02Z</time>
      </trkpt>
      <trkpt lat="39.722270" lon="2.686810">
        <ele>331.049</ele>
        <time>2020-01-28T06:40:22Z</time>
      </trkpt>
      <trkpt lat="39.722280" lon="2.686810">
        <ele>330.013</ele>
        <time>2020-01-28T06:40:42Z</time>
      </trkpt>
      <trkpt lat="39.722080" lon="2.687020">
        <ele>329.008</ele>
        <time>2020-01-28T06:41:02Z</time>
      </trkpt>
      <trkpt lat="39.721990" lon="2.687050">
        <ele>329.027</ele>
        <time>2020-01-28T06:41:22Z</time>
      </trkpt>
      <trkpt lat="39.721960" lon="2.687010">
        <ele>329.038</ele>
        <time>2020-01-28T06:41:42Z</time>
      </trkpt>
      <trkpt lat="39.721960" lon="2.686950">
        <ele>329.072</ele>
        <time>2020-01-28T06:42:02Z</time>
      </trkpt>
      <trkpt lat="39.721990" lon="2.686910">
        <ele>329.019</ele>
        <time>2020-01-28T06:42:22Z</time>
      </trkpt>
      <trkpt lat="39.722590" lon="2.686310">
        <ele>326.034</ele>
        <time>2020-01-28T06:42:42Z</time>
      </trkpt>
      <trkpt lat="39.722650" lon="2.686270">
        <ele>325.050</ele>
        <time>2020-01-28T06:43:02Z</time>
      </trkpt>
      <trkpt lat="39.722790" lon="2.686240">
        <ele>325.098</ele>
        <time>2020-01-28T06:43:22Z</time>
      </trkpt>
      <trkpt lat="39.723410" lon="2.686250">
        <ele>322.071</ele>
        <time>2020-01-28T06:43:42Z</time>
      </trkpt>
      <trkpt lat="39.723440" lon="2.686220">
        <ele>322.063</ele>
        <time>2020-01-28T06:44:02Z</time>
      </trkpt>
      <trkpt lat="39.723460" lon="2.686180">
        <ele>322.044</ele>
        <time>2020-01-28T06:44:22Z</time>
      </trkpt>
      <trkpt lat="39.723440" lon="2.686130">
        <ele>322.018</ele>
        <time>2020-01-28T06:44:42Z</time>
      </trkpt>
      <trkpt lat="39.723400" lon="2.686090">
        <ele>321.008</ele>
        <time>2020-01-28T06:45:02Z</time>
      </trkpt>
      <trkpt lat="39.723400" lon="2.686090">
        <ele>321.020</ele>
        <time>2020-01-28T06:45:22Z</time>
      </trkpt>
      <trkpt lat="39.722470" lon="2.685890">
        <ele>317.091</ele>
        <time>2020-01-28T06:45:42Z</time>
      </trkpt>
      <trkpt lat="39.722400" lon="2.685900">
        <ele>316.055</ele>
        <time>2020-01-28T06:46:02Z</time>
      </trkpt>
      <trkpt lat="39.722340" lon="2.685930">
        <ele>316.042</ele>
        <time>2020-01-28T06:46:22Z</time>
      </trkpt>
      <trkpt lat="39.721140" lon="2.687030">
        <ele>309.017</ele>
        <time>2020-01-28T06:46:42Z</time>
      </trkpt>
      <trkpt lat="39.720970" lon="2.687210">
        <ele>308.063</ele>
        <time>2020-01-28T06:47:02Z</time>
      </trkpt>
      <trkpt lat="39.720620" lon="2.687670">
        <ele>306.011</ele>
        <time>2020-01-28T06:47:22Z</time>
      </trkpt>
      <trkpt lat="39.720460" lon="2.687900">
        <ele>305.034</ele>
        <time>2020-01-28T06:47:42Z</time>
      </trkpt>
      <trkpt lat="39.720410" lon="2.688020">
        <ele>305.031</ele>
        <time>2020-01-28T06:48:02Z</time>
      </trkpt>
      <trkpt lat="39.720090" lon="2.688920">
        <ele>300.061</ele>
        <time>2020-01-28T06:48:22Z</time>
      </trkpt>
      <trkpt lat="39.719860" lon="2.689290">
        <ele>297.007</ele>
        <time>2020-01-28T06:48:42Z</time>
      </trkpt>
      <trkpt lat="39.719530" lon="2.689710">
        <ele>294.008</ele>
        <time>2020-01-28T06:49:02Z</time>
      </trkpt>
      <trkpt lat="39.718990" lon="2.690710">
        <ele>288.047</ele>
        <time>2020-01-28T06:49:22Z</time>
      </trkpt>
      <trkpt lat="39.718930" lon="2.691010">
        <ele>286.088</ele>
        <time>2020-01-28T06:49:42Z</time>
      </trkpt>
      <trkpt lat="39.718940" lon="2.691800">
        <ele>281.022</ele>
        <time>2020-01-28T06:50:02Z</time>
      </trkpt>
      <trkpt lat="39.718820" lon="2.693250">
        <ele>273.099</ele>
        <time>2020-01-28T06:50:22Z</time>
      </trkpt>
      <trkpt lat="39.718800" lon="2.693290">
        <ele>273.074</ele>
        <time>2020-01-28T06:50:42Z</time>
      </trkpt>
      <trkpt lat="39.718760" lon="2.693290">
        <ele>273.050</ele>
        <time>2020-01-28T06:51:02Z</time>
      </trkpt>
      <trkpt lat="39.718710" lon="2.693230">
        <ele>273.078</ele>
        <time>2020-01-28T06:51:22Z</time>
      </trkpt>
      <trkpt lat="39.718710" lon="2.693200">
        <ele>272.081</ele>
        <time>2020-01-28T06:51:42Z</time>
      </trkpt>
      <trkpt lat="39.718700" lon="2.693200">
        <ele>272.093</ele>
        <time>2020-01-28T06:52:02Z</time>
      </trkpt>
      <trkpt lat="39.718560" lon="2.692570">
        <ele>270.065</ele>
        <time>2020-01-28T06:52:22Z</time>
      </trkpt>
      <trkpt lat="39.718570" lon="2.692490">
        <ele>269.021</ele>
        <time>2020-01-28T06:52:42Z</time>
      </trkpt>
      <trkpt lat="39.718670" lon="2.692280">
        <ele>268.008</ele>
        <time>2020-01-28T06:53:02Z</time>
      </trkpt>
      <trkpt lat="39.718670" lon="2.692230">
        <ele>268.063</ele>
        <time>2020-01-28T06:53:22Z</time>
      </trkpt>
      <trkpt lat="39.718650" lon="2.692190">
        <ele>268.094</ele>
        <time>2020-01-28T06:53:42Z</time>
      </trkpt>
      <trkpt lat="39.718610" lon="2.692180">
        <ele>268.048</ele>
        <time>2020-01-28T06:54:02Z</time>
      </trkpt>
      <trkpt lat="39.718580" lon="2.692200">
        <ele>268.075</ele>
        <time>2020-01-28T06:54:22Z</time>
      </trkpt>
      <trkpt lat="39.718120" lon="2.692940">
        <ele>264.060</ele>
        <time>2020-01-28T06:54:42Z</time>
      </trkpt>
      <trkpt lat="39.718060" lon="2.693000">
        <ele>263.036</ele>
        <time>2020-01-28T06:55:02Z</time>
      </trkpt>
      <trkpt lat="39.718000" lon="2.693010">
        <ele>263.024</ele>
        <time>2020-01-28T06:55:22Z</time>
      </trkpt>
      <trkpt lat="39.717790" lon="2.692890">
        <ele>262.017</ele>
        <time>2020-01-28T06:55:42Z</time>
      </trkpt>
      <trkpt lat="39.717730" lon="2.692870">
        <ele>262.014</ele>
        <time>2020-01-28T06:56:02Z</time>
      </trkpt>
      <trkpt lat="39.717690" lon="2.692900">
        <ele>262.054</ele>
        <time>2020-01-28T06:56:22Z</time>
      </trkpt>
      <trkpt lat="39.717530" lon="2.693130">
        <ele>261.009</ele>
        <time>2020-01-28T06:56:42Z</time>
      </trkpt>
      <trkpt lat="39.717480" lon="2.693170">
        <ele>260.008</ele>
        <time>2020-01-28T06:57:02Z</time>
      </trkpt>
      <trkpt lat="39.717430" lon="2.693170">
        <ele>260.095</ele>
        <time>2020-01-28T06:57:22Z</time>
      </trkpt>
      <trkpt lat="39.717410" lon="2.693130">
        <ele>260.026</ele>
        <time>2020-01-28T06:57:42Z</time>
      </trkpt>
      <trkpt lat="39.717410" lon="2.692960">
        <ele>260.030</ele>
        <time>2020-01-28T06:58:02Z</time>
      </trkpt>
      <trkpt lat="39.717450" lon="2.692530">
        <ele>258.067</ele>
        <time>2020-01-28T06:58:22Z</time>
      </trkpt>
      <trkpt lat="39.717470" lon="2.692430">
        <ele>258.092</ele>
        <time>2020-01-28T06:58:42Z</time>
      </trkpt>
      <trkpt lat="39.717510" lon="2.692340">
        <ele>258.058</ele>
        <time>2020-01-28T06:59:02Z</time>
      </trkpt>
      <trkpt lat="39.718090" lon="2.691610">
        <ele>254.096</ele>
        <time>2020-01-28T06:59:22Z</time>
      </trkpt>
      <trkpt lat="39.718120" lon="2.691510">
        <ele>254.029</ele>
        <time>2020-01-28T06:59:42Z</time>
      </trkpt>
      <trkpt lat="39.718080" lon="2.691150">
        <ele>252.036</ele>
        <time>2020-01-28T07:00:02Z</time>
      </trkpt>
      <trkpt lat="39.718020" lon="2.690440">
        <ele>249.017</ele>
        <time>2020-01-28T07:00:22Z</time>
      </trkpt>
      <trkpt lat="39.717990" lon="2.690260">
        <ele>248.018</ele>
        <time>2020-01-28T07:00:42Z</time>
      </trkpt>
      <trkpt lat="39.717940" lon="2.690160">
        <ele>248.008</ele>
        <time>2020-01-28T07:01:02Z</time>
      </trkpt>
      <trkpt lat="39.717870" lon="2.690090">
        <ele>247.017</ele>
        <time>2020-01-28T07:01:22Z</time>
      </trkpt>
      <trkpt lat="39.717770" lon="2.690050">
        <ele>247.028</ele>
        <time>2020-01-28T07:01:42Z</time>
      </trkpt>
      <trkpt lat="39.717280" lon="2.690130">
        <ele>244.012</ele>
        <time>2020-01-28T07:02:02Z</time>
      </trkpt>
      <trkpt lat="39.716430" lon="2.690330">
        <ele>239.049</ele>
        <time>2020-01-28T07:02:22Z</time>
      </trkpt>
      <trkpt lat="39.716310" lon="2.690380">
        <ele>238.074</ele>
        <time>2020-01-28T07:02:42Z</time>
      </trkpt>
      <trkpt lat="39.716110" lon="2.690340">
        <ele>237.030</ele>
        <time>2020-01-28T07:03:02Z</time>
      </trkpt>
      <trkpt lat="39.716070" lon="2.690320">
        <ele>236.018</ele>
        <time>2020-01-28T07:03:22Z</time>
      </trkpt>
      <trkpt lat="39.715980" lon="2.690330">
        <ele>236.021</ele>
        <time>2020-01-28T07:03:42Z</time>
      </trkpt>
      <trkpt lat="39.715870" lon="2.690440">
        <ele>235.014</ele>
        <time>2020-01-28T07:04:02Z</time>
      </trkpt>
      <trkpt lat="39.715700" lon="2.690500">
        <ele>234.054</ele>
        <time>2020-01-28T07:04:22Z</time>
      </trkpt>
      <trkpt lat="39.715550" lon="2.690510">
        <ele>233.009</ele>
        <time>2020-01-28T07:04:42Z</time>
      </trkpt>
      <trkpt lat="39.715290" lon="2.690470">
        <ele>231.008</ele>
        <time>2020-01-28T07:05:02Z</time>
      </trkpt>
      <trkpt lat="39.712930" lon="2.689960">
        <ele>216.015</ele>
        <time>2020-01-28T07:05:22Z</time>
      </trkpt>
      <trkpt lat="39.712920" lon="2.689970">
        <ele>216.036</ele>
        <time>2020-01-28T07:05:42Z</time>
      </trkpt>
      <trkpt lat="39.712120" lon="2.689790">
        <ele>212.060</ele>
        <time>2020-01-28T07:06:02Z</time>
      </trkpt>
      <trkpt lat="39.708820" lon="2.689000">
        <ele>199.027</ele>
        <time>2020-01-28T07:06:22Z</time>
      </trkpt>
      <trkpt lat="39.708430" lon="2.688970">
        <ele>197.052</ele>
        <time>2020-01-28T07:06:42Z</time>
      </trkpt>
      <trkpt lat="39.708020" lon="2.689000">
        <ele>196.098</ele>
        <time>2020-01-28T07:07:02Z</time>
      </trkpt>
      <trkpt lat="39.706650" lon="2.689230">
        <ele>192.026</ele>
        <time>2020-01-28T07:07:22Z</time>
      </trkpt>
      <trkpt lat="39.705790" lon="2.689260">
        <ele>190.059</ele>
        <time>2020-01-28T07:07:42Z</time>
      </trkpt>
      <trkpt lat="39.705730" lon="2.689440">
        <ele>189.059</ele>
        <time>2020-01-28T07:08:02Z</time>
      </trkpt>
      <trkpt lat="39.705650" lon="2.689590">
        <ele>189.003</ele>
        <time>2020-01-28T07:08:22Z</time>
      </trkpt>
      <trkpt lat="39.705310" lon="2.689820">
        <ele>189.023</ele>
        <time>2020-01-28T07:08:42Z</time>
      </trkpt>
      <trkpt lat="39.704540" lon="2.690250">
        <ele>191.008</ele>
        <time>2020-01-28T07:09:02Z</time>
      </trkpt>
      <trkpt lat="39.703910" lon="2.690790">
        <ele>192.079</ele>
        <time>2020-01-28T07:09:22Z</time>
      </trkpt>
      <trkpt lat="39.703500" lon="2.691120">
        <ele>193.070</ele>
        <time>2020-01-28T07:09:42Z</time>
      </trkpt>
      <trkpt lat="39.703350" lon="2.691200">
        <ele>193.044</ele>
        <time>2020-01-28T07:10:02Z</time>
      </trkpt>
      <trkpt lat="39.703140" lon="2.691260">
        <ele>193.041</ele>
        <time>2020-01-28T07:10:22Z</time>
      </trkpt>
      <trkpt lat="39.702930" lon="2.691430">
        <ele>193.036</ele>
        <time>2020-01-28T07:10:42Z</time>
      </trkpt>
      <trkpt lat="39.702870" lon="2.691660">
        <ele>193.072</ele>
        <time>2020-01-28T07:11:02Z</time>
      </trkpt>
      <trkpt lat="39.702880" lon="2.691880">
        <ele>193.020</ele>
        <time>2020-01-28T07:11:22Z</time>
      </trkpt>
      <trkpt lat="39.702860" lon="2.691960">
        <ele>193.083</ele>
        <time>2020-01-28T07:11:42Z</time>
      </trkpt>
      <trkpt lat="39.702730" lon="2.692250">
        <ele>193.056</ele>
        <time>2020-01-28T07:12:02Z</time>
      </trkpt>
      <trkpt lat="39.702710" lon="2.692340">
        <ele>193.059</ele>
        <time>2020-01-28T07:12:22Z</time>
      </trkpt>
      <trkpt lat="39.702730" lon="2.692590">
        <ele>193.014</ele>
        <time>2020-01-28T07:12:42Z</time>
      </trkpt>
      <trkpt lat="39.702660" lon="2.692770">
        <ele>193.008</ele>
        <time>2020-01-28T07:13:02Z</time>
      </trkpt>
      <trkpt lat="39.702330" lon="2.693230">
        <ele>196.019</ele>
        <time>2020-01-28T07:13:22Z</time>
      </trkpt>
      <trkpt lat="39.702020" lon="2.693610">
        <ele>197.090</ele>
        <time>2020-01-28T07:13:42Z</time>
      </trkpt>
      <trkpt lat="39.701910" lon="2.693700">
        <ele>198.094</ele>
        <time>2020-01-28T07:14:02Z</time>
      </trkpt>
      <trkpt lat="39.701640" lon="2.694150">
        <ele>200.041</ele>
        <time>2020-01-28T07:14:22Z</time>
      </trkpt>
      <trkpt lat="39.701230" lon="2.694890">
        <ele>202.096</ele>
        <time>2020-01-28T07:14:42Z</time>
      </trkpt>
      <trkpt lat="39.700820" lon="2.695220">
        <ele>202.092</ele>
        <time>2020-01-28T07:15:02Z</time>
      </trkpt>
      <trkpt lat="39.700720" lon="2.695240">
        <ele>201.080</ele>
        <time>2020-01-28T07:15:22Z</time>
      </trkpt>
      <trkpt lat="39.700640" lon="2.695300">
        <ele>201.033</ele>
        <time>2020-01-28T07:15:42Z</time>
      </trkpt>
      <trkpt lat="39.700550" lon="2.695650">
        <ele>201.041</ele>
        <time>2020-01-28T07:16:02Z</time>
      </trkpt>
      <trkpt lat="39.700390" lon="2.695840">
        <ele>201.081</ele>
        <time>2020-01-28T07:16:22Z</time>
      </trkpt>
      <trkpt lat="39.700230" lon="2.696140">
        <ele>200.009</ele>
        <time>2020-01-28T07:16:42Z</time>
      </trkpt>
      <trkpt lat="39.700260" lon="2.696480">
        <ele>200.008</ele>
        <time>2020-01-28T07:17:02Z</time>
      </trkpt>
      <trkpt lat="39.700260" lon="2.696720">
        <ele>200.028</ele>
        <time>2020-01-28T07:17:22Z</time>
      </trkpt>
      <trkpt lat="39.700220" lon="2.696820">
        <ele>200.029</ele>
        <time>2020-01-28T07:17:42Z</time>
      </trkpt>
      <trkpt lat="39.700110" lon="2.696860">
        <ele>200.053</ele>
        <time>2020-01-28T07:18:02Z</time>
      </trkpt>
      <trkpt lat="39.699930" lon="2.697020">
        <ele>200.020</ele>
        <time>2020-01-28T07:18:22Z</time>
      </trkpt>
      <trkpt lat="39.699600" lon="2.697250">
        <ele>200.085</ele>
        <time>2020-01-28T07:18:42Z</time>
      </trkpt>
      <trkpt lat="39.699460" lon="2.697330">
        <ele>200.091</ele>
        <time>2020-01-28T07:19:02Z</time>
      </trkpt>
      <trkpt lat="39.699370" lon="2.697440">
        <ele>200.079</ele>
        <time>2020-01-28T07:19:22Z</time>
      </trkpt>
      <trkpt lat="39.699260" lon="2.697770">
        <ele>200.072</ele>
        <time>2020-01-28T07:19:42Z</time>
      </trkpt>
      <trkpt lat="39.699230" lon="2.698190">
        <ele>200.089</ele>
        <time>2020-01-28T07:20:02Z</time>
      </trkpt>
      <trkpt lat="39.699140" lon="2.698380">
        <ele>200.006</ele>
        <time>2020-01-28T07:20:22Z</time>
      </trkpt>
      <trkpt lat="39.699060" lon="2.698520">
        <ele>200.026</ele>
        <time>2020-01-28T07:20:42Z</time>
      </trkpt>
      <trkpt lat="39.698880" lon="2.698620">
        <ele>200.008</ele>
        <time>2020-01-28T07:21:02Z</time>
      </trkpt>
      <trkpt lat="39.698200" lon="2.698860">
        <ele>205.042</ele>
        <time>2020-01-28T07:21:22Z</time>
      </trkpt>
      <trkpt lat="39.697850" lon="2.698890">
        <ele>207.073</ele>
        <time>2020-01-28T07:21:42Z</time>
      </trkpt>
      <trkpt lat="39.697790" lon="2.698470">
        <ele>209.077</ele>
        <time>2020-01-28T07:22:02Z</time>
      </trkpt>
      <trkpt lat="39.697750" lon="2.698430">
        <ele>210.064</ele>
        <time>2020-01-28T07:22:22Z</time>
      </trkpt>
      <trkpt lat="39.697360" lon="2.698460">
        <ele>212.019</ele>
        <time>2020-01-28T07:22:42Z</time>
      </trkpt>
      <trkpt lat="39.697030" lon="2.698300">
        <ele>213.035</ele>
        <time>2020-01-28T07:23:02Z</time>
      </trkpt>
      <trkpt lat="39.697070" lon="2.698770">
        <ele>214.073</ele>
        <time>2020-01-28T07:23:22Z</time>
      </trkpt>
      <trkpt lat="39.697060" lon="2.698970">
        <ele>215.076</ele>
        <time>2020-01-28T07:23:42Z</time>
      </trkpt>
      <trkpt lat="39.697020" lon="2.699250">
        <ele>215.048</ele>
        <time>2020-01-28T07:24:02Z</time>
      </trkpt>
      <trkpt lat="39.696790" lon="2.699370">
        <ele>216.061</ele>
        <time>2020-01-28T07:24:22Z</time>
      </trkpt>
      <trkpt lat="39.696610" lon="2.699490">
        <ele>216.017</ele>
        <time>2020-01-28T07:24:42Z</time>
      </trkpt>
      <trkpt lat="39.696070" lon="2.699720">
        <ele>218.008</ele>
        <time>2020-01-28T07:25:02Z</time>
      </trkpt>
      <trkpt lat="39.696030" lon="2.699240">
        <ele>218.088</ele>
        <time>2020-01-28T07:25:22Z</time>
      </trkpt>
      <trkpt lat="39.696040" lon="2.699230">
        <ele>218.039</ele>
        <time>2020-01-28T07:25:42Z</time>
      </trkpt>
      <trkpt lat="39.696050" lon="2.699260">
        <ele>219.073</ele>
        <time>2020-01-28T07:26:02Z</time>
      </trkpt>
      <trkpt lat="39.696080" lon="2.699720">
        <ele>219.020</ele>
        <time>2020-01-28T07:26:22Z</time>
      </trkpt>
      <trkpt lat="39.696620" lon="2.699490">
        <ele>221.095</ele>
        <time>2020-01-28T07:26:42Z</time>
      </trkpt>
      <trkpt lat="39.696670" lon="2.700040">
        <ele>222.081</ele>
        <time>2020-01-28T07:27:02Z</time>
      </trkpt>
      <trkpt lat="39.696670" lon="2.700060">
        <ele>222.079</ele>
        <time>2020-01-28T07:27:22Z</time>
      </trkpt>
      <trkpt lat="39.696740" lon="2.700570">
        <ele>224.072</ele>
        <time>2020-01-28T07:27:42Z</time>
      </trkpt>
      <trkpt lat="39.696810" lon="2.700650">
        <ele>225.037</ele>
        <time>2020-01-28T07:28:02Z</time>
      </trkpt>
      <trkpt lat="39.696970" lon="2.700690">
        <ele>226.049</ele>
        <time>2020-01-28T07:28:22Z</time>
      </trkpt>
      <trkpt lat="39.697440" lon="2.700660">
        <ele>230.013</ele>
        <time>2020-01-28T07:28:42Z</time>
      </trkpt>
      <trkpt lat="39.697510" lon="2.700700">
        <ele>230.008</ele>
        <time>2020-01-28T07:29:02Z</time>
      </trkpt>
      <trkpt lat="39.697580" lon="2.700760">
        <ele>231.067</ele>
        <time>2020-01-28T07:29:22Z</time>
      </trkpt>
      <trkpt lat="39.697640" lon="2.700860">
        <ele>232.038</ele>
        <time>2020-01-28T07:29:42Z</time>
      </trkpt>
      <trkpt lat="39.698030" lon="2.701170">
        <ele>235.032</ele>
        <time>2020-01-28T07:30:02Z</time>
      </trkpt>
      <trkpt lat="39.698080" lon="2.701250">
        <ele>236.079</ele>
        <time>2020-01-28T07:30:22Z</time>
      </trkpt>
      <trkpt lat="39.698200" lon="2.701590">
        <ele>238.044</ele>
        <time>2020-01-28T07:30:42Z</time>
      </trkpt>
      <trkpt lat="39.698190" lon="2.701650">
        <ele>238.020</ele>
        <time>2020-01-28T07:31:02Z</time>
      </trkpt>
      <trkpt lat="39.698130" lon="2.701660">
        <ele>239.098</ele>
        <time>2020-01-28T07:31:22Z</time>
      </trkpt>
      <trkpt lat="39.697960" lon="2.701510">
        <ele>239.011</ele>
        <time>2020-01-28T07:31:42Z</time>
      </trkpt>
      <trkpt lat="39.697930" lon="2.701510">
        <ele>239.038</ele>
        <time>2020-01-28T07:32:02Z</time>
      </trkpt>
      <trkpt lat="39.697900" lon="2.701540">
        <ele>239.070</ele>
        <time>2020-01-28T07:32:22Z</time>
      </trkpt>
      <trkpt lat="39.697910" lon="2.701610">
        <ele>239.017</ele>
        <time>2020-01-28T07:32:42Z</time>
      </trkpt>
      <trkpt lat="39.698160" lon="2.702070">
        <ele>239.008</ele>
        <time>2020-01-28T07:33:02Z</time>
      </trkpt>
      <trkpt lat="39.698300" lon="2.702200">
        <ele>239.017</ele>
        <time>2020-01-28T07:33:22Z</time>
      </trkpt>
      <trkpt lat="39.698900" lon="2.702410">
        <ele>239.088</ele>
        <time>2020-01-28T07:33:42Z</time>
      </trkpt>
      <trkpt lat="39.698970" lon="2.702450">
        <ele>239.022</ele>
        <time>2020-01-28T07:34:02Z</time>
      </trkpt>
      <trkpt lat="39.699360" lon="2.702810">
        <ele>239.079</ele>
        <time>2020-01-28T07:34:22Z</time>
      </trkpt>
      <trkpt lat="39.699550" lon="2.703140">
        <ele>239.024</ele>
        <time>2020-01-28T07:34:42Z</time>
      </trkpt>
      <trkpt lat="39.699600" lon="2.703170">
        <ele>240.020</ele>
        <time>2020-01-28T07:35:02Z</time>
      </trkpt>
      <trkpt lat="39.699680" lon="2.703180">
        <ele>240.028</ele>
        <time>2020-01-28T07:35:22Z</time>
      </trkpt>
      <trkpt lat="39.700280" lon="2.703530">
        <ele>241.071</ele>
        <time>2020-01-28T07:35:42Z</time>
      </trkpt>
      <trkpt lat="39.700360" lon="2.703600">
        <ele>241.018</ele>
        <time>2020-01-28T07:36:02Z</time>
      </trkpt>
      <trkpt lat="39.700550" lon="2.703820">
        <ele>242.098</ele>
        <time>2020-01-28T07:36:22Z</time>
      </trkpt>
      <trkpt lat="39.700770" lon="2.704210">
        <ele>242.017</ele>
        <time>2020-01-28T07:36:42Z</time>
      </trkpt>
      <trkpt lat="39.700910" lon="2.704420">
        <ele>243.008</ele>
        <time>2020-01-28T07:37:02Z</time>
      </trkpt>
      <trkpt lat="39.701040" lon="2.704570">
        <ele>244.055</ele>
        <time>2020-01-28T07:37:22Z</time>
      </trkpt>
      <trkpt lat="39.701160" lon="2.704670">
        <ele>245.066</ele>
        <time>2020-01-28T07:37:42Z</time>
      </trkpt>
      <trkpt lat="39.701700" lon="2.704990">
        <ele>248.090</ele>
        <time>2020-01-28T07:38:02Z</time>
      </trkpt>
      <trkpt lat="39.701760" lon="2.705050">
        <ele>248.027</ele>
        <time>2020-01-28T07:38:22Z</time>
      </trkpt>
      <trkpt lat="39.702050" lon="2.705500">
        <ele>250.012</ele>
        <time>2020-01-28T07:38:42Z</time>
      </trkpt>
      <trkpt lat="39.702140" lon="2.705620">
        <ele>251.068</ele>
        <time>2020-01-28T07:39:02Z</time>
      </trkpt>
      <trkpt lat="39.702210" lon="2.705740">
        <ele>252.076</ele>
        <time>2020-01-28T07:39:22Z</time>
      </trkpt>
      <trkpt lat="39.702250" lon="2.705860">
        <ele>252.099</ele>
        <time>2020-01-28T07:39:42Z</time>
      </trkpt>
      <trkpt lat="39.702280" lon="2.706000">
        <ele>253.062</ele>
        <time>2020-01-28T07:40:02Z</time>
      </trkpt>
      <trkpt lat="39.702370" lon="2.706270">
        <ele>253.083</ele>
        <time>2020-01-28T07:40:22Z</time>
      </trkpt>
      <trkpt lat="39.702450" lon="2.706430">
        <ele>254.011</ele>
        <time>2020-01-28T07:40:42Z</time>
      </trkpt>
      <trkpt lat="39.702570" lon="2.706790">
        <ele>255.008</ele>
        <time>2020-01-28T07:41:02Z</time>
      </trkpt>
      <trkpt lat="39.702640" lon="2.706890">
        <ele>255.070</ele>
        <time>2020-01-28T07:41:22Z</time>
      </trkpt>
      <trkpt lat="39.703080" lon="2.707320">
        <ele>257.021</ele>
        <time>2020-01-28T07:41:42Z</time>
      </trkpt>
      <trkpt lat="39.703140" lon="2.707390">
        <ele>257.045</ele>
        <time>2020-01-28T07:42:02Z</time>
      </trkpt>
      <trkpt lat="39.703230" lon="2.707580">
        <ele>258.062</ele>
        <time>2020-01-28T07:42:22Z</time>
      </trkpt>
      <trkpt lat="39.703310" lon="2.708000">
        <ele>259.037</ele>
        <time>2020-01-28T07:42:42Z</time>
      </trkpt>
      <trkpt lat="39.703330" lon="2.708050">
        <ele>259.063</ele>
        <time>2020-01-28T07:43:02Z</time>
      </trkpt>
      <trkpt lat="39.703430" lon="2.708140">
        <ele>260.011</ele>
        <time>2020-01-28T07:43:22Z</time>
      </trkpt>
      <trkpt lat="39.703710" lon="2.708270">
        <ele>261.094</ele>
        <time>2020-01-28T07:43:42Z</time>
      </trkpt>
      <trkpt lat="39.703820" lon="2.708370">
        <ele>262.023</ele>
        <time>2020-01-28T07:44:02Z</time>
      </trkpt>
      <trkpt lat="39.703990" lon="2.708580">
        <ele>263.083</ele>
        <time>2020-01-28T07:44:22Z</time>
      </trkpt>
      <trkpt lat="39.704070" lon="2.708600">
        <ele>264.011</ele>
        <time>2020-01-28T07:44:42Z</time>
      </trkpt>
      <trkpt lat="39.704230" lon="2.708580">
        <ele>264.008</ele>
        <time>2020-01-28T07:45:02Z</time>
      </trkpt>
      <trkpt lat="39.704450" lon="2.708620">
        <ele>265.026</ele>
        <time>2020-01-28T07:45:22Z</time>
      </trkpt>
      <trkpt lat="39.704800" lon="2.708650">
        <ele>267.017</ele>
        <time>2020-01-28T07:45:42Z</time>
      </trkpt>
      <trkpt lat="39.704870" lon="2.708690">
        <ele>268.041</ele>
        <time>2020-01-28T07:46:02Z</time>
      </trkpt>
      <trkpt lat="39.705040" lon="2.708790">
        <ele>268.098</ele>
        <time>2020-01-28T07:46:22Z</time>
      </trkpt>
      <trkpt lat="39.705380" lon="2.709080">
        <ele>272.043</ele>
        <time>2020-01-28T07:46:42Z</time>
      </trkpt>
      <trkpt lat="39.705850" lon="2.709340">
        <ele>277.099</ele>
        <time>2020-01-28T07:47:02Z</time>
      </trkpt>
      <trkpt lat="39.706370" lon="2.709700">
        <ele>283.067</ele>
        <time>2020-01-28T07:47:22Z</time>
      </trkpt>
      <trkpt lat="39.706670" lon="2.709870">
        <ele>286.030</ele>
        <time>2020-01-28T07:47:42Z</time>
      </trkpt>
      <trkpt lat="39.706830" lon="2.709890">
        <ele>288.035</ele>
        <time>2020-01-28T07:48:02Z</time>
      </trkpt>
      <trkpt lat="39.707260" lon="2.709850">
        <ele>291.086</ele>
        <time>2020-01-28T07:48:22Z</time>
      </trkpt>
      <trkpt lat="39.707530" lon="2.709870">
        <ele>292.014</ele>
        <time>2020-01-28T07:48:42Z</time>
      </trkpt>
      <trkpt lat="39.707760" lon="2.709850">
        <ele>293.008</ele>
        <time>2020-01-28T07:49:02Z</time>
      </trkpt>
      <trkpt lat="39.707880" lon="2.709800">
        <ele>293.077</ele>
        <time>2020-01-28T07:49:22Z</time>
      </trkpt>
      <trkpt lat="39.708080" lon="2.709490">
        <ele>294.028</ele>
        <time>2020-01-28T07:49:42Z</time>
      </trkpt>
      <trkpt lat="39.708200" lon="2.709350">
        <ele>295.062</ele>
        <time>2020-01-28T07:50:02Z</time>
      </trkpt>
      <trkpt lat="39.708530" lon="2.709240">
        <ele>296.019</ele>
        <time>2020-01-28T07:50:22Z</time>
      </trkpt>
      <trkpt lat="39.708770" lon="2.709210">
        <ele>297.034</ele>
        <time>2020-01-28T07:50:42Z</time>
      </trkpt>
      <trkpt lat="39.708970" lon="2.709240">
        <ele>298.080</ele>
        <time>2020-01-28T07:51:02Z</time>
      </trkpt>
      <trkpt lat="39.709190" lon="2.709370">
        <ele>299.098</ele>
        <time>2020-01-28T07:51:22Z</time>
      </trkpt>
      <trkpt lat="39.709360" lon="2.709410">
        <ele>300.061</ele>
        <time>2020-01-28T07:51:42Z</time>
      </trkpt>
      <trkpt lat="39.709540" lon="2.709380">
        <ele>301.037</ele>
        <time>2020-01-28T07:52:02Z</time>
      </trkpt>
      <trkpt lat="39.709900" lon="2.709120">
        <ele>304.049</ele>
        <time>2020-01-28T07:52:22Z</time>
      </trkpt>
      <trkpt lat="39.710340" lon="2.708910">
        <ele>306.013</ele>
        <time>2020-01-28T07:52:42Z</time>
      </trkpt>
      <trkpt lat="39.710580" lon="2.708890">
        <ele>308.008</ele>
        <time>2020-01-28T07:53:02Z</time>
      </trkpt>
      <trkpt lat="39.710740" lon="2.708960">
        <ele>309.057</ele>
        <time>2020-01-28T07:53:22Z</time>
      </trkpt>
      <trkpt lat="39.710930" lon="2.709090">
        <ele>310.058</ele>
        <time>2020-01-28T07:53:42Z</time>
      </trkpt>
      <trkpt lat="39.711230" lon="2.709360">
        <ele>313.022</ele>
        <time>2020-01-28T07:54:02Z</time>
      </trkpt>
      <trkpt lat="39.711320" lon="2.709380">
        <ele>314.029</ele>
        <time>2020-01-28T07:54:22Z</time>
      </trkpt>
      <trkpt lat="39.711370" lon="2.709340">
        <ele>314.084</ele>
        <time>2020-01-28T07:54:42Z</time>
      </trkpt>
      <trkpt lat="39.711400" lon="2.709230">
        <ele>315.010</ele>
        <time>2020-01-28T07:55:02Z</time>
      </trkpt>
      <trkpt lat="39.711410" lon="2.709110">
        <ele>316.058</ele>
        <time>2020-01-28T07:55:22Z</time>
      </trkpt>
      <trkpt lat="39.711350" lon="2.708650">
        <ele>319.011</ele>
        <time>2020-01-28T07:55:42Z</time>
      </trkpt>
      <trkpt lat="39.711260" lon="2.708510">
        <ele>320.022</ele>
        <time>2020-01-28T07:56:02Z</time>
      </trkpt>
      <trkpt lat="39.711020" lon="2.708280">
        <ele>322.062</ele>
        <time>2020-01-28T07:56:22Z</time>
      </trkpt>
      <trkpt lat="39.710930" lon="2.708110">
        <ele>323.008</ele>
        <time>2020-01-28T07:56:42Z</time>
      </trkpt>
      <trkpt lat="39.710980" lon="2.707790">
        <ele>325.008</ele>
        <time>2020-01-28T07:57:02Z</time>
      </trkpt>
      <trkpt lat="39.711030" lon="2.707660">
        <ele>326.096</ele>
        <time>2020-01-28T07:57:22Z</time>
      </trkpt>
      <trkpt lat="39.711060" lon="2.707630">
        <ele>326.097</ele>
        <time>2020-01-28T07:57:42Z</time>
      </trkpt>
      <trkpt lat="39.711090" lon="2.707660">
        <ele>326.021</ele>
        <time>2020-01-28T07:58:02Z</time>
      </trkpt>
      <trkpt lat="39.711150" lon="2.707920">
        <ele>328.028</ele>
        <time>2020-01-28T07:58:22Z</time>
      </trkpt>
      <trkpt lat="39.711220" lon="2.708040">
        <ele>328.053</ele>
        <time>2020-01-28T07:58:42Z</time>
      </trkpt>
      <trkpt lat="39.711290" lon="2.708100">
        <ele>329.029</ele>
        <time>2020-01-28T07:59:02Z</time>
      </trkpt>
      <trkpt lat="39.711480" lon="2.708210">
        <ele>330.067</ele>
        <time>2020-01-28T07:59:22Z</time>
      </trkpt>
      <trkpt lat="39.711710" lon="2.708300">
        <ele>331.080</ele>
        <time>2020-01-28T07:59:42Z</time>
      </trkpt>
      <trkpt lat="39.711760" lon="2.708350">
        <ele>331.025</ele>
        <time>2020-01-28T08:00:02Z</time>
      </trkpt>
      <trkpt lat="39.711800" lon="2.708420">
        <ele>332.026</ele>
        <time>2020-01-28T08:00:22Z</time>
      </trkpt>
      <trkpt lat="39.711820" lon="2.708500">
        <ele>332.008</ele>
        <time>2020-01-28T08:00:42Z</time>
      </trkpt>
      <trkpt lat="39.711830" lon="2.708890">
        <ele>334.008</ele>
        <time>2020-01-28T08:01:02Z</time>
      </trkpt>
      <trkpt lat="39.711870" lon="2.709010">
        <ele>334.016</ele>
        <time>2020-01-28T08:01:22Z</time>
      </trkpt>
      <trkpt lat="39.712450" lon="2.709830">
        <ele>341.077</ele>
        <time>2020-01-28T08:01:42Z</time>
      </trkpt>
      <trkpt lat="39.712630" lon="2.709920">
        <ele>342.091</ele>
        <time>2020-01-28T08:02:02Z</time>
      </trkpt>
      <trkpt lat="39.713170" lon="2.710030">
        <ele>347.068</ele>
        <time>2020-01-28T08:02:22Z</time>
      </trkpt>
      <trkpt lat="39.713340" lon="2.710090">
        <ele>349.023</ele>
        <time>2020-01-28T08:02:42Z</time>
      </trkpt>
      <trkpt lat="39.713450" lon="2.710210">
        <ele>350.049</ele>
        <time>2020-01-28T08:03:02Z</time>
      </trkpt>
      <trkpt lat="39.713550" lon="2.710330">
        <ele>351.047</ele>
        <time>2020-01-28T08:03:22Z</time>
      </trkpt>
      <trkpt lat="39.713620" lon="2.710480">
        <ele>352.040</ele>
        <time>2020-01-28T08:03:42Z</time>
      </trkpt>
      <trkpt lat="39.713690" lon="2.710890">
        <ele>355.098</ele>
        <time>2020-01-28T08:04:02Z</time>
      </trkpt>
      <trkpt lat="39.713720" lon="2.711010">
        <ele>356.015</ele>
        <time>2020-01-28T08:04:22Z</time>
      </trkpt>
      <trkpt lat="39.713800" lon="2.711090">
        <ele>356.026</ele>
        <time>2020-01-28T08:04:42Z</time>
      </trkpt>
      <trkpt lat="39.713930" lon="2.711170">
        <ele>357.008</ele>
        <time>2020-01-28T08:05:02Z</time>
      </trkpt>
      <trkpt lat="39.714150" lon="2.711400">
        <ele>359.043</ele>
        <time>2020-01-28T08:05:22Z</time>
      </trkpt>
      <trkpt lat="39.714540" lon="2.712060">
        <ele>364.034</ele>
        <time>2020-01-28T08:05:42Z</time>
      </trkpt>
      <trkpt lat="39.714870" lon="2.712540">
        <ele>367.018</ele>
        <time>2020-01-28T08:06:02Z</time>
      </trkpt>
      <trkpt lat="39.714930" lon="2.712640">
        <ele>368.025</ele>
        <time>2020-01-28T08:06:22Z</time>
      </trkpt>
      <trkpt lat="39.714960" lon="2.712740">
        <ele>368.090</ele>
        <time>2020-01-28T08:06:42Z</time>
      </trkpt>
      <trkpt lat="39.715010" lon="2.713090">
        <ele>370.026</ele>
        <time>2020-01-28T08:07:02Z</time>
      </trkpt>
      <trkpt lat="39.715060" lon="2.713230">
        <ele>371.014</ele>
        <time>2020-01-28T08:07:22Z</time>
      </trkpt>
      <trkpt lat="39.715140" lon="2.713330">
        <ele>372.077</ele>
        <time>2020-01-28T08:07:42Z</time>
      </trkpt>
      <trkpt lat="39.715410" lon="2.713570">
        <ele>374.023</ele>
        <time>2020-01-28T08:08:02Z</time>
      </trkpt>
      <trkpt lat="39.715510" lon="2.713640">
        <ele>375.083</ele>
        <time>2020-01-28T08:08:22Z</time>
      </trkpt>
      <trkpt lat="39.715550" lon="2.713710">
        <ele>375.011</ele>
        <time>2020-01-28T08:08:42Z</time>
      </trkpt>
      <trkpt lat="39.715550" lon="2.713740">
        <ele>376.008</ele>
        <time>2020-01-28T08:09:02Z</time>
      </trkpt>
      <trkpt lat="39.715490" lon="2.713790">
        <ele>376.096</ele>
        <time>2020-01-28T08:09:22Z</time>
      </trkpt>
      <trkpt lat="39.715290" lon="2.713800">
        <ele>377.047</ele>
        <time>2020-01-28T08:09:42Z</time>
      </trkpt>
      <trkpt lat="39.715100" lon="2.713890">
        <ele>379.091</ele>
        <time>2020-01-28T08:10:02Z</time>
      </trkpt>
      <trkpt lat="39.715090" lon="2.713940">
        <ele>379.088</ele>
        <time>2020-01-28T08:10:22Z</time>
      </trkpt>
      <trkpt lat="39.715120" lon="2.713990">
        <ele>379.073</ele>
        <time>2020-01-28T08:10:42Z</time>
      </trkpt>
      <trkpt lat="39.715310" lon="2.714020">
        <ele>381.079</ele>
        <time>2020-01-28T08:11:02Z</time>
      </trkpt>
      <trkpt lat="39.715460" lon="2.714090">
        <ele>382.067</ele>
        <time>2020-01-28T08:11:22Z</time>
      </trkpt>
      <trkpt lat="39.715910" lon="2.714590">
        <ele>388.080</ele>
        <time>2020-01-28T08:11:42Z</time>
      </trkpt>
      <trkpt lat="39.716440" lon="2.715040">
        <ele>395.035</ele>
        <time>2020-01-28T08:12:02Z</time>
      </trkpt>
      <trkpt lat="39.716670" lon="2.715270">
        <ele>398.086</ele>
        <time>2020-01-28T08:12:22Z</time>
      </trkpt>
      <trkpt lat="39.717560" lon="2.716470">
        <ele>408.014</ele>
        <time>2020-01-28T08:12:42Z</time>
      </trkpt>
      <trkpt lat="39.717930" lon="2.717120">
        <ele>410.008</ele>
        <time>2020-01-28T08:13:02Z</time>
      </trkpt>
      <trkpt lat="39.718100" lon="2.717370">
        <ele>411.077</ele>
        <time>2020-01-28T08:13:22Z</time>
      </trkpt>
      <trkpt lat="39.718280" lon="2.717570">
        <ele>412.038</ele>
        <time>2020-01-28T08:13:42Z</time>
      </trkpt>
      <trkpt lat="39.719180" lon="2.718030">
        <ele>417.012</ele>
        <time>2020-01-28T08:14:02Z</time>
      </trkpt>
      <trkpt lat="39.719370" lon="2.718060">
        <ele>418.049</ele>
        <time>2020-01-28T08:14:22Z</time>
      </trkpt>
      <trkpt lat="39.719760" lon="2.718010">
        <ele>420.074</ele>
        <time>2020-01-28T08:14:42Z</time>
      </trkpt>
      <trkpt lat="39.720280" lon="2.717880">
        <ele>423.010</ele>
        <time>2020-01-28T08:15:02Z</time>
      </trkpt>
      <trkpt lat="39.720920" lon="2.717760">
        <ele>429.068</ele>
        <time>2020-01-28T08:15:22Z</time>
      </trkpt>
      <trkpt lat="39.721030" lon="2.717810">
        <ele>431.091</ele>
        <time>2020-01-28T08:15:42Z</time>
      </trkpt>
      <trkpt lat="39.721150" lon="2.717930">
        <ele>433.077</ele>
        <time>2020-01-28T08:16:02Z</time>
      </trkpt>
      <trkpt lat="39.721220" lon="2.718050">
        <ele>434.061</ele>
        <time>2020-01-28T08:16:22Z</time>
      </trkpt>
      <trkpt lat="39.721300" lon="2.718590">
        <ele>440.027</ele>
        <time>2020-01-28T08:16:42Z</time>
      </trkpt>
      <trkpt lat="39.721360" lon="2.719270">
        <ele>447.008</ele>
        <time>2020-01-28T08:17:02Z</time>
      </trkpt>
      <trkpt lat="39.721400" lon="2.719380">
        <ele>448.041</ele>
        <time>2020-01-28T08:17:22Z</time>
      </trkpt>
      <trkpt lat="39.721540" lon="2.719420">
        <ele>450.032</ele>
        <time>2020-01-28T08:17:42Z</time>
      </trkpt>
      <trkpt lat="39.721640" lon="2.719410">
        <ele>450.056</ele>
        <time>2020-01-28T08:18:02Z</time>
      </trkpt>
      <trkpt lat="39.721910" lon="2.719320">
        <ele>452.063</ele>
        <time>2020-01-28T08:18:22Z</time>
      </trkpt>
      <trkpt lat="39.722020" lon="2.719300">
        <ele>452.018</ele>
        <time>2020-01-28T08:18:42Z</time>
      </trkpt>
      <trkpt lat="39.722110" lon="2.719320">
        <ele>453.034</ele>
        <time>2020-01-28T08:19:02Z</time>
      </trkpt>
      <trkpt lat="39.722320" lon="2.719470">
        <ele>454.052</ele>
        <time>2020-01-28T08:19:22Z</time>
      </trkpt>
      <trkpt lat="39.722430" lon="2.719590">
        <ele>455.055</ele>
        <time>2020-01-28T08:19:42Z</time>
      </trkpt>
      <trkpt lat="39.722530" lon="2.719740">
        <ele>456.094</ele>
        <time>2020-01-28T08:20:02Z</time>
      </trkpt>
      <trkpt lat="39.722610" lon="2.720090">
        <ele>458.057</ele>
        <time>2020-01-28T08:20:22Z</time>
      </trkpt>
      <trkpt lat="39.722620" lon="2.720290">
        <ele>459.022</ele>
        <time>2020-01-28T08:20:42Z</time>
      </trkpt>
      <trkpt lat="39.722630" lon="2.720350">
        <ele>459.008</ele>
        <time>2020-01-28T08:21:02Z</time>
      </trkpt>
      <trkpt lat="39.722690" lon="2.720360">
        <ele>459.073</ele>
        <time>2020-01-28T08:21:22Z</time>
      </trkpt>
      <trkpt lat="39.722730" lon="2.720310">
        <ele>460.034</ele>
        <time>2020-01-28T08:21:42Z</time>
      </trkpt>
      <trkpt lat="39.722760" lon="2.720180">
        <ele>460.088</ele>
        <time>2020-01-28T08:22:02Z</time>
      </trkpt>
      <trkpt lat="39.722800" lon="2.720060">
        <ele>461.055</ele>
        <time>2020-01-28T08:22:22Z</time>
      </trkpt>
      <trkpt lat="39.722850" lon="2.720050">
        <ele>461.060</ele>
        <time>2020-01-28T08:22:42Z</time>
      </trkpt>
      <trkpt lat="39.722870" lon="2.720100">
        <ele>461.086</ele>
        <time>2020-01-28T08:23:02Z</time>
      </trkpt>
      <trkpt lat="39.722860" lon="2.720310">
        <ele>462.034</ele>
        <time>2020-01-28T08:23:22Z</time>
      </trkpt>
      <trkpt lat="39.722820" lon="2.720550">
        <ele>462.037</ele>
        <time>2020-01-28T08:23:42Z</time>
      </trkpt>
      <trkpt lat="39.722740" lon="2.720840">
        <ele>463.072</ele>
        <time>2020-01-28T08:24:02Z</time>
      </trkpt>
      <trkpt lat="39.722760" lon="2.720990">
        <ele>463.013</ele>
        <time>2020-01-28T08:24:22Z</time>
      </trkpt>
      <trkpt lat="39.722810" lon="2.721070">
        <ele>463.014</ele>
        <time>2020-01-28T08:24:42Z</time>
      </trkpt>
      <trkpt lat="39.722900" lon="2.721110">
        <ele>464.008</ele>
        <time>2020-01-28T08:25:02Z</time>
      </trkpt>
      <trkpt lat="39.722990" lon="2.721100">
        <ele>464.081</ele>
        <time>2020-01-28T08:25:22Z</time>
      </trkpt>
      <trkpt lat="39.723180" lon="2.720940">
        <ele>464.092</ele>
        <time>2020-01-28T08:25:42Z</time>
      </trkpt>
      <trkpt lat="39.723270" lon="2.720920">
        <ele>465.016</ele>
        <time>2020-01-28T08:26:02Z</time>
      </trkpt>
      <trkpt lat="39.723360" lon="2.720930">
        <ele>465.073</ele>
        <time>2020-01-28T08:26:22Z</time>
      </trkpt>
      <trkpt lat="39.723430" lon="2.720980">
        <ele>465.098</ele>
        <time>2020-01-28T08:26:42Z</time>
      </trkpt>
      <trkpt lat="39.723640" lon="2.721290">
        <ele>466.074</ele>
        <time>2020-01-28T08:27:02Z</time>
      </trkpt>
      <trkpt lat="39.723700" lon="2.721360">
        <ele>466.092</ele>
        <time>2020-01-28T08:27:22Z</time>
      </trkpt>
      <trkpt lat="39.723830" lon="2.721420">
        <ele>466.075</ele>
        <time>2020-01-28T08:27:42Z</time>
      </trkpt>
      <trkpt lat="39.723950" lon="2.721500">
        <ele>467.066</ele>
        <time>2020-01-28T08:28:02Z</time>
      </trkpt>
      <trkpt lat="39.724060" lon="2.721630">
        <ele>468.029</ele>
        <time>2020-01-28T08:28:22Z</time>
      </trkpt>
      <trkpt lat="39.724270" lon="2.722080">
        <ele>470.021</ele>
        <time>2020-01-28T08:28:42Z</time>
      </trkpt>
      <trkpt lat="39.724740" lon="2.723470">
        <ele>476.008</ele>
        <time>2020-01-28T08:29:02Z</time>
      </trkpt>
      <trkpt lat="39.724800" lon="2.723600">
        <ele>477.010</ele>
        <time>2020-01-28T08:29:22Z</time>
      </trkpt>
      <trkpt lat="39.724920" lon="2.723760">
        <ele>478.011</ele>
        <time>2020-01-28T08:29:42Z</time>
      </trkpt>
      <trkpt lat="39.725910" lon="2.724950">
        <ele>487.035</ele>
        <time>2020-01-28T08:30:02Z</time>
      </trkpt>
      <trkpt lat="39.725970" lon="2.725050">
        <ele>488.072</ele>
        <time>2020-01-28T08:30:22Z</time>
      </trkpt>
      <trkpt lat="39.726000" lon="2.725170">
        <ele>489.057</ele>
        <time>2020-01-28T08:30:42Z</time>
      </trkpt>
      <trkpt lat="39.726010" lon="2.725490">
        <ele>490.013</ele>
        <time>2020-01-28T08:31:02Z</time>
      </trkpt>
      <trkpt lat="39.725920" lon="2.726630">
        <ele>498.061</ele>
        <time>2020-01-28T08:31:22Z</time>
      </trkpt>
      <trkpt lat="39.725940" lon="2.726940">
        <ele>500.044</ele>
        <time>2020-01-28T08:31:42Z</time>
      </trkpt>
      <trkpt lat="39.726060" lon="2.727440">
        <ele>504.012</ele>
        <time>2020-01-28T08:32:02Z</time>
      </trkpt>
      <trkpt lat="39.726240" lon="2.727990">
        <ele>509.032</ele>
        <time>2020-01-28T08:32:22Z</time>
      </trkpt>
      <trkpt lat="39.726250" lon="2.728080">
        <ele>509.005</ele>
        <time>2020-01-28T08:32:42Z</time>
      </trkpt>
      <trkpt lat="39.726230" lon="2.728140">
        <ele>510.008</ele>
        <time>2020-01-28T08:33:02Z</time>
      </trkpt>
      <trkpt lat="39.726140" lon="2.728130">
        <ele>511.065</ele>
        <time>2020-01-28T08:33:22Z</time>
      </trkpt>
      <trkpt lat="39.725250" lon="2.727610">
        <ele>523.026</ele>
        <time>2020-01-28T08:33:42Z</time>
      </trkpt>
      <trkpt lat="39.725200" lon="2.727620">
        <ele>523.010</ele>
        <time>2020-01-28T08:34:02Z</time>
      </trkpt>
      <trkpt lat="39.725170" lon="2.727670">
        <ele>524.077</ele>
        <time>2020-01-28T08:34:22Z</time>
      </trkpt>
      <trkpt lat="39.725170" lon="2.727730">
        <ele>524.042</ele>
        <time>2020-01-28T08:34:42Z</time>
      </trkpt>
      <trkpt lat="39.725640" lon="2.728540">
        <ele>534.098</ele>
        <time>2020-01-28T08:35:02Z</time>
      </trkpt>
      <trkpt lat="39.726000" lon="2.729240">
        <ele>538.086</ele>
        <time>2020-01-28T08:35:22Z</time>
      </trkpt>
      <trkpt lat="39.726100" lon="2.729440">
        <ele>539.039</ele>
        <time>2020-01-28T08:35:42Z</time>
      </trkpt>
      <trkpt lat="39.726160" lon="2.729630">
        <ele>539.016</ele>
        <time>2020-01-28T08:36:02Z</time>
      </trkpt>
      <trkpt lat="39.726280" lon="2.729800">
        <ele>540.076</ele>
        <time>2020-01-28T08:36:22Z</time>
      </trkpt>
      <trkpt lat="39.726410" lon="2.729880">
        <ele>541.013</ele>
        <time>2020-01-28T08:36:42Z</time>
      </trkpt>
      <trkpt lat="39.726620" lon="2.729970">
        <ele>542.008</ele>
        <time>2020-01-28T08:37:02Z</time>
      </trkpt>
      <trkpt lat="39.726890" lon="2.729930">
        <ele>543.015</ele>
        <time>2020-01-28T08:37:22Z</time>
      </trkpt>
      <trkpt lat="39.726970" lon="2.729960">
        <ele>543.016</ele>
        <time>2020-01-28T08:37:42Z</time>
      </trkpt>
      <trkpt lat="39.727050" lon="2.730160">
        <ele>544.030</ele>
        <time>2020-01-28T08:38:02Z</time>
      </trkpt>
      <trkpt lat="39.727110" lon="2.730260">
        <ele>545.047</ele>
        <time>2020-01-28T08:38:22Z</time>
      </trkpt>
      <trkpt lat="39.727200" lon="2.730300">
        <ele>545.012</ele>
        <time>2020-01-28T08:38:42Z</time>
      </trkpt>
      <trkpt lat="39.727450" lon="2.730240">
        <ele>547.098</ele>
        <time>2020-01-28T08:39:02Z</time>
      </trkpt>
      <trkpt lat="39.727900" lon="2.730160">
        <ele>550.086</ele>
        <time>2020-01-28T08:39:22Z</time>
      </trkpt>
      <trkpt lat="39.727940" lon="2.730160">
        <ele>551.079</ele>
        <time>2020-01-28T08:39:42Z</time>
      </trkpt>
      <trkpt lat="39.727950" lon="2.730210">
        <ele>551.091</ele>
        <time>2020-01-28T08:40:02Z</time>
      </trkpt>
      <trkpt lat="39.727920" lon="2.730290">
        <ele>552.081</ele>
        <time>2020-01-28T08:40:22Z</time>
      </trkpt>
      <trkpt lat="39.727160" lon="2.730750">
        <ele>558.019</ele>
        <time>2020-01-28T08:40:42Z</time>
      </trkpt>
      <trkpt lat="39.727140" lon="2.730790">
        <ele>558.008</ele>
        <time>2020-01-28T08:41:02Z</time>
      </trkpt>
      <trkpt lat="39.727140" lon="2.730840">
        <ele>558.013</ele>
        <time>2020-01-28T08:41:22Z</time>
      </trkpt>
      <trkpt lat="39.727160" lon="2.730860">
        <ele>559.064</ele>
        <time>2020-01-28T08:41:42Z</time>
      </trkpt>
      <trkpt lat="39.727190" lon="2.730870">
        <ele>559.048</ele>
        <time>2020-01-28T08:42:02Z</time>
      </trkpt>
      <trkpt lat="39.727440" lon="2.730770">
        <ele>559.045</ele>
        <time>2020-01-28T08:42:22Z</time>
      </trkpt>
      <trkpt lat="39.727470" lon="2.730780">
        <ele>559.070</ele>
        <time>2020-01-28T08:42:42Z</time>
      </trkpt>
      <trkpt lat="39.727480" lon="2.730820">
        <ele>558.066</ele>
        <time>2020-01-28T08:43:02Z</time>
      </trkpt>
      <trkpt lat="39.727450" lon="2.730890">
        <ele>558.064</ele>
        <time>2020-01-28T08:43:22Z</time>
      </trkpt>
      <trkpt lat="39.727290" lon="2.730980">
        <ele>557.077</ele>
        <time>2020-01-28T08:43:42Z</time>
      </trkpt>
      <trkpt lat="39.727140" lon="2.731100">
        <ele>556.096</ele>
        <time>2020-01-28T08:44:02Z</time>
      </trkpt>
      <trkpt lat="39.727130" lon="2.731140">
        <ele>556.031</ele>
        <time>2020-01-28T08:44:22Z</time>
      </trkpt>
      <trkpt lat="39.727140" lon="2.731200">
        <ele>556.024</ele>
        <time>2020-01-28T08:44:42Z</time>
      </trkpt>
      <trkpt lat="39.727300" lon="2.731200">
        <ele>555.008</ele>
        <time>2020-01-28T08:45:02Z</time>
      </trkpt>
      <trkpt lat="39.727320" lon="2.731220">
        <ele>555.043</ele>
        <time>2020-01-28T08:45:22Z</time>
      </trkpt>
      <trkpt lat="39.727300" lon="2.731290">
        <ele>555.014</ele>
        <time>2020-01-28T08:45:42Z</time>
      </trkpt>
      <trkpt lat="39.727230" lon="2.731340">
        <ele>554.038</ele>
        <time>2020-01-28T08:46:02Z</time>
      </trkpt>
      <trkpt lat="39.727050" lon="2.731550">
        <ele>553.025</ele>
        <time>2020-01-28T08:46:22Z</time>
      </trkpt>
      <trkpt lat="39.726610" lon="2.731900">
        <ele>551.070</ele>
        <time>2020-01-28T08:46:42Z</time>
      </trkpt>
      <trkpt lat="39.726540" lon="2.732030">
        <ele>550.036</ele>
        <time>2020-01-28T08:47:02Z</time>
      </trkpt>
      <trkpt lat="39.726510" lon="2.732190">
        <ele>549.044</ele>
        <time>2020-01-28T08:47:22Z</time>
      </trkpt>
      <trkpt lat="39.726540" lon="2.732480">
        <ele>548.077</ele>
        <time>2020-01-28T08:47:42Z</time>
      </trkpt>
      <trkpt lat="39.726600" lon="2.732830">
        <ele>547.091</ele>
        <time>2020-01-28T08:48:02Z</time>
      </trkpt>
      <trkpt lat="39.726740" lon="2.733060">
        <ele>545.081</ele>
        <time>2020-01-28T08:48:22Z</time>
      </trkpt>
      <trkpt lat="39.726790" lon="2.733180">
        <ele>545.019</ele>
        <time>2020-01-28T08:48:42Z</time>
      </trkpt>
      <trkpt lat="39.726820" lon="2.733280">
        <ele>544.008</ele>
        <time>2020-01-28T08:49:02Z</time>
      </trkpt>
      <trkpt lat="39.726850" lon="2.733560">
        <ele>543.013</ele>
        <time>2020-01-28T08:49:22Z</time>
      </trkpt>
      <trkpt lat="39.726920" lon="2.733890">
        <ele>542.094</ele>
        <time>2020-01-28T08:49:42Z</time>
      </trkpt>
      <trkpt lat="39.726920" lon="2.733960">
        <ele>542.068</ele>
        <time>2020-01-28T08:50:02Z</time>
      </trkpt>
      <trkpt lat="39.726880" lon="2.734490">
        <ele>539.095</ele>
        <time>2020-01-28T08:50:22Z</time>
      </trkpt>
      <trkpt lat="39.726910" lon="2.734840">
        <ele>538.010</ele>
        <time>2020-01-28T08:50:42Z</time>
      </trkpt>
      <trkpt lat="39.726940" lon="2.734850">
        <ele>537.036</ele>
        <time>2020-01-28T08:51:02Z</time>
      </trkpt>
      <trkpt lat="39.726970" lon="2.734840">
        <ele>537.054</ele>
        <time>2020-01-28T08:51:22Z</time>
      </trkpt>
      <trkpt lat="39.727070" lon="2.734530">
        <ele>535.067</ele>
        <time>2020-01-28T08:51:42Z</time>
      </trkpt>
      <trkpt lat="39.727160" lon="2.734170">
        <ele>533.036</ele>
        <time>2020-01-28T08:52:02Z</time>
      </trkpt>
      <trkpt lat="39.727220" lon="2.734100">
        <ele>533.017</ele>
        <time>2020-01-28T08:52:22Z</time>
      </trkpt>
      <trkpt lat="39.727270" lon="2.734120">
        <ele>533.018</ele>
        <time>2020-01-28T08:52:42Z</time>
      </trkpt>
      <trkpt lat="39.727300" lon="2.734170">
        <ele>532.008</ele>
        <time>2020-01-28T08:53:02Z</time>
      </trkpt>
      <trkpt lat="39.727580" lon="2.734720">
        <ele>529.057</ele>
        <time>2020-01-28T08:53:22Z</time>
      </trkpt>
      <trkpt lat="39.727580" lon="2.734800">
        <ele>528.078</ele>
        <time>2020-01-28T08:53:42Z</time>
      </trkpt>
      <trkpt lat="39.727510" lon="2.734990">
        <ele>527.022</ele>
        <time>2020-01-28T08:54:02Z</time>
      </trkpt>
      <trkpt lat="39.727270" lon="2.735440">
        <ele>524.029</ele>
        <time>2020-01-28T08:54:22Z</time>
      </trkpt>
      <trkpt lat="39.727270" lon="2.735480">
        <ele>524.054</ele>
        <time>2020-01-28T08:54:42Z</time>
      </trkpt>
      <trkpt lat="39.727290" lon="2.735520">
        <ele>524.010</ele>
        <time>2020-01-28T08:55:02Z</time>
      </trkpt>
      <trkpt lat="39.727320" lon="2.735520">
        <ele>523.088</ele>
        <time>2020-01-28T08:55:22Z</time>
      </trkpt>
      <trkpt lat="39.727360" lon="2.735490">
        <ele>523.011</ele>
        <time>2020-01-28T08:55:42Z</time>
      </trkpt>
      <trkpt lat="39.727550" lon="2.735290">
        <ele>521.063</ele>
        <time>2020-01-28T08:56:02Z</time>
      </trkpt>
      <trkpt lat="39.727760" lon="2.735130">
        <ele>519.044</ele>
        <time>2020-01-28T08:56:22Z</time>
      </trkpt>
      <trkpt lat="39.727800" lon="2.735120">
        <ele>519.018</ele>
        <time>2020-01-28T08:56:42Z</time>
      </trkpt>
      <trkpt lat="39.727840" lon="2.735130">
        <ele>518.008</ele>
        <time>2020-01-28T08:57:02Z</time>
      </trkpt>
      <trkpt lat="39.727840" lon="2.735210">
        <ele>518.030</ele>
        <time>2020-01-28T08:57:22Z</time>
      </trkpt>
      <trkpt lat="39.727700" lon="2.735300">
        <ele>516.041</ele>
        <time>2020-01-28T08:57:42Z</time>
      </trkpt>
      <trkpt lat="39.727560" lon="2.735460">
        <ele>515.035</ele>
        <time>2020-01-28T08:58:02Z</time>
      </trkpt>
      <trkpt lat="39.727510" lon="2.735630">
        <ele>514.012</ele>
        <time>2020-01-28T08:58:22Z</time>
      </trkpt>
      <trkpt lat="39.727500" lon="2.735770">
        <ele>513.087</ele>
        <time>2020-01-28T08:58:42Z</time>
      </trkpt>
      <trkpt lat="39.727530" lon="2.735820">
        <ele>512.043</ele>
        <time>2020-01-28T08:59:02Z</time>
      </trkpt>
      <trkpt lat="39.727560" lon="2.735780">
        <ele>512.071</ele>
        <time>2020-01-28T08:59:22Z</time>
      </trkpt>
      <trkpt lat="39.727570" lon="2.735660">
        <ele>511.084</ele>
        <time>2020-01-28T08:59:42Z</time>
      </trkpt>
      <trkpt lat="39.727630" lon="2.735560">
        <ele>510.014</ele>
        <time>2020-01-28T09:00:02Z</time>
      </trkpt>
      <trkpt lat="39.727730" lon="2.735470">
        <ele>509.054</ele>
        <time>2020-01-28T09:00:22Z</time>
      </trkpt>
      <trkpt lat="39.728020" lon="2.735400">
        <ele>507.009</ele>
        <time>2020-01-28T09:00:42Z</time>
      </trkpt>
      <trkpt lat="39.728200" lon="2.735320">
        <ele>506.008</ele>
        <time>2020-01-28T09:01:02Z</time>
      </trkpt>
      <trkpt lat="39.728300" lon="2.735310">
        <ele>505.055</ele>
        <time>2020-01-28T09:01:22Z</time>
      </trkpt>
      <trkpt lat="39.728950" lon="2.735680">
        <ele>500.046</ele>
        <time>2020-01-28T09:01:42Z</time>
      </trkpt>
      <trkpt lat="39.729120" lon="2.735680">
        <ele>499.040</ele>
        <time>2020-01-28T09:02:02Z</time>
      </trkpt>
      <trkpt lat="39.729470" lon="2.735600">
        <ele>497.097</ele>
        <time>2020-01-28T09:02:22Z</time>
      </trkpt>
      <trkpt lat="39.729500" lon="2.735610">
        <ele>496.062</ele>
        <time>2020-01-28T09:02:42Z</time>
      </trkpt>
      <trkpt lat="39.729510" lon="2.735660">
        <ele>496.028</ele>
        <time>2020-01-28T09:03:02Z</time>
      </trkpt>
      <trkpt lat="39.729490" lon="2.735680">
        <ele>496.016</ele>
        <time>2020-01-28T09:03:22Z</time>
      </trkpt>
      <trkpt lat="39.729110" lon="2.735860">
        <ele>493.079</ele>
        <time>2020-01-28T09:03:42Z</time>
      </trkpt>
      <trkpt lat="39.729080" lon="2.735910">
        <ele>492.041</ele>
        <time>2020-01-28T09:04:02Z</time>
      </trkpt>
      <trkpt lat="39.729090" lon="2.735950">
        <ele>492.081</ele>
        <time>2020-01-28T09:04:22Z</time>
      </trkpt>
      <trkpt lat="39.729120" lon="2.735970">
        <ele>492.009</ele>
        <time>2020-01-28T09:04:42Z</time>
      </trkpt>
      <trkpt lat="39.730550" lon="2.735690">
        <ele>479.008</ele>
        <time>2020-01-28T09:05:02Z</time>
      </trkpt>
      <trkpt lat="39.730590" lon="2.735720">
        <ele>479.098</ele>
        <time>2020-01-28T09:05:22Z</time>
      </trkpt>
      <trkpt lat="39.730590" lon="2.735750">
        <ele>478.039</ele>
        <time>2020-01-28T09:05:42Z</time>
      </trkpt>
      <trkpt lat="39.730530" lon="2.735820">
        <ele>478.083</ele>
        <time>2020-01-28T09:06:02Z</time>
      </trkpt>
      <trkpt lat="39.729450" lon="2.736520">
        <ele>470.040</ele>
        <time>2020-01-28T09:06:22Z</time>
      </trkpt>
      <trkpt lat="39.729410" lon="2.736590">
        <ele>469.085</ele>
        <time>2020-01-28T09:06:42Z</time>
      </trkpt>
      <trkpt lat="39.729450" lon="2.736650">
        <ele>469.051</ele>
        <time>2020-01-28T09:07:02Z</time>
      </trkpt>
      <trkpt lat="39.730260" lon="2.736500">
        <ele>464.079</ele>
        <time>2020-01-28T09:07:22Z</time>
      </trkpt>
      <trkpt lat="39.731970" lon="2.736070">
        <ele>453.062</ele>
        <time>2020-01-28T09:07:42Z</time>
      </trkpt>
      <trkpt lat="39.732180" lon="2.736060">
        <ele>452.019</ele>
        <time>2020-01-28T09:08:02Z</time>
      </trkpt>
      <trkpt lat="39.732480" lon="2.736080">
        <ele>451.009</ele>
        <time>2020-01-28T09:08:22Z</time>
      </trkpt>
      <trkpt lat="39.732570" lon="2.736130">
        <ele>451.019</ele>
        <time>2020-01-28T09:08:42Z</time>
      </trkpt>
      <trkpt lat="39.732640" lon="2.736210">
        <ele>451.008</ele>
        <time>2020-01-28T09:09:02Z</time>
      </trkpt>
      <trkpt lat="39.732700" lon="2.736350">
        <ele>451.065</ele>
        <time>2020-01-28T09:09:22Z</time>
      </trkpt>
      <trkpt lat="39.732770" lon="2.736630">
        <ele>451.086</ele>
        <time>2020-01-28T09:09:42Z</time>
      </trkpt>
      <trkpt lat="39.732820" lon="2.736950">
        <ele>451.070</ele>
        <time>2020-01-28T09:10:02Z</time>
      </trkpt>
      <trkpt lat="39.733070" lon="2.739900">
        <ele>448.057</ele>
        <time>2020-01-28T09:10:22Z</time>
      </trkpt>
      <trkpt lat="39.733080" lon="2.740240">
        <ele>447.082</ele>
        <time>2020-01-28T09:10:42Z</time>
      </trkpt>
      <trkpt lat="39.733060" lon="2.740370">
        <ele>447.088</ele>
        <time>2020-01-28T09:11:02Z</time>
      </trkpt>
      <trkpt lat="39.733010" lon="2.740510">
        <ele>446.076</ele>
        <time>2020-01-28T09:11:22Z</time>
      </trkpt>
      <trkpt lat="39.732800" lon="2.740650">
        <ele>445.019</ele>
        <time>2020-01-28T09:11:42Z</time>
      </trkpt>
      <trkpt lat="39.732770" lon="2.740750">
        <ele>445.065</ele>
        <time>2020-01-28T09:12:02Z</time>
      </trkpt>
      <trkpt lat="39.732800" lon="2.741220">
        <ele>443.068</ele>
        <time>2020-01-28T09:12:22Z</time>
      </trkpt>
      <trkpt lat="39.732790" lon="2.741300">
        <ele>442.014</ele>
        <time>2020-01-28T09:12:42Z</time>
      </trkpt>
      <trkpt lat="39.732650" lon="2.741680">
        <ele>440.008</ele>
        <time>2020-01-28T09:13:02Z</time>
      </trkpt>
      <trkpt lat="39.732560" lon="2.741980">
        <ele>439.040</ele>
        <time>2020-01-28T09:13:22Z</time>
      </trkpt>
      <trkpt lat="39.732530" lon="2.742030">
        <ele>438.061</ele>
        <time>2020-01-28T09:13:42Z</time>
      </trkpt>
      <trkpt lat="39.732480" lon="2.742060">
        <ele>438.035</ele>
        <time>2020-01-28T09:14:02Z</time>
      </trkpt>
      <trkpt lat="39.732450" lon="2.742140">
        <ele>438.072</ele>
        <time>2020-01-28T09:14:22Z</time>
      </trkpt>
      <trkpt lat="39.732450" lon="2.742210">
        <ele>437.057</ele>
        <time>2020-01-28T09:14:42Z</time>
      </trkpt>
      <trkpt lat="39.732510" lon="2.742250">
        <ele>437.063</ele>
        <time>2020-01-28T09:15:02Z</time>
      </trkpt>
      <trkpt lat="39.732600" lon="2.742270">
        <ele>436.091</ele>
        <time>2020-01-28T09:15:22Z</time>
      </trkpt>
      <trkpt lat="39.732690" lon="2.742310">
        <ele>436.024</ele>
        <time>2020-01-28T09:15:42Z</time>
      </trkpt>
      <trkpt lat="39.732740" lon="2.742390">
        <ele>435.069</ele>
        <time>2020-01-28T09:16:02Z</time>
      </trkpt>
      <trkpt lat="39.733000" lon="2.742960">
        <ele>432.004</ele>
        <time>2020-01-28T09:16:22Z</time>
      </trkpt>
      <trkpt lat="39.733030" lon="2.743090">
        <ele>431.024</ele>
        <time>2020-01-28T09:16:42Z</time>
      </trkpt>
      <trkpt lat="39.732940" lon="2.744130">
        <ele>429.008</ele>
        <time>2020-01-28T09:17:02Z</time>
      </trkpt>
      <trkpt lat="39.732840" lon="2.745830">
        <ele>426.090</ele>
        <time>2020-01-28T09:17:22Z</time>
      </trkpt>
      <trkpt lat="39.732880" lon="2.746040">
        <ele>426.041</ele>
        <time>2020-01-28T09:17:42Z</time>
      </trkpt>
      <trkpt lat="39.733160" lon="2.746650">
        <ele>426.025</ele>
        <time>2020-01-28T09:18:02Z</time>
      </trkpt>
      <trkpt lat="39.733190" lon="2.746760">
        <ele>426.062</ele>
        <time>2020-01-28T09:18:22Z</time>
      </trkpt>
      <trkpt lat="39.733220" lon="2.746940">
        <ele>426.067</ele>
        <time>2020-01-28T09:18:42Z</time>
      </trkpt>
      <trkpt lat="39.733260" lon="2.747060">
        <ele>426.083</ele>
        <time>2020-01-28T09:19:02Z</time>
      </trkpt>
      <trkpt lat="39.733330" lon="2.747170">
        <ele>426.041</ele>
        <time>2020-01-28T09:19:22Z</time>
      </trkpt>
      <trkpt lat="39.733890" lon="2.747870">
        <ele>426.024</ele>
        <time>2020-01-28T09:19:42Z</time>
      </trkpt>
      <trkpt lat="39.734400" lon="2.748640">
        <ele>426.025</ele>
        <time>2020-01-28T09:20:02Z</time>
      </trkpt>
      <trkpt lat="39.734470" lon="2.748780">
        <ele>426.026</ele>
        <time>2020-01-28T09:20:22Z</time>
      </trkpt>
      <trkpt lat="39.734530" lon="2.749020">
        <ele>426.008</ele>
        <time>2020-01-28T09:20:42Z</time>
      </trkpt>
      <trkpt lat="39.735050" lon="2.750310">
        <ele>426.008</ele>
        <time>2020-01-28T09:21:02Z</time>
      </trkpt>
      <trkpt lat="39.735160" lon="2.750700">
        <ele>427.016</ele>
        <time>2020-01-28T09:21:22Z</time>
      </trkpt>
      <trkpt lat="39.735200" lon="2.751000">
        <ele>427.047</ele>
        <time>2020-01-28T09:21:42Z</time>
      </trkpt>
      <trkpt lat="39.735170" lon="2.754010">
        <ele>431.051</ele>
        <time>2020-01-28T09:22:02Z</time>
      </trkpt>
      <trkpt lat="39.735210" lon="2.754310">
        <ele>431.018</ele>
        <time>2020-01-28T09:22:22Z</time>
      </trkpt>
      <trkpt lat="39.735770" lon="2.756080">
        <ele>439.083</ele>
        <time>2020-01-28T09:22:42Z</time>
      </trkpt>
      <trkpt lat="39.735830" lon="2.756350">
        <ele>441.099</ele>
        <time>2020-01-28T09:23:02Z</time>
      </trkpt>
      <trkpt lat="39.735840" lon="2.756570">
        <ele>443.017</ele>
        <time>2020-01-28T09:23:22Z</time>
      </trkpt>
      <trkpt lat="39.735840" lon="2.756850">
        <ele>445.070</ele>
        <time>2020-01-28T09:23:42Z</time>
      </trkpt>
      <trkpt lat="39.735820" lon="2.757050">
        <ele>446.058</ele>
        <time>2020-01-28T09:24:02Z</time>
      </trkpt>
      <trkpt lat="39.735800" lon="2.757140">
        <ele>447.052</ele>
        <time>2020-01-28T09:24:22Z</time>
      </trkpt>
      <trkpt lat="39.735590" lon="2.757430">
        <ele>449.017</ele>
        <time>2020-01-28T09:24:42Z</time>
      </trkpt>
      <trkpt lat="39.735230" lon="2.758010">
        <ele>454.008</ele>
        <time>2020-01-28T09:25:02Z</time>
      </trkpt>
      <trkpt lat="39.735200" lon="2.758170">
        <ele>455.099</ele>
        <time>2020-01-28T09:25:22Z</time>
      </trkpt>
      <trkpt lat="39.735210" lon="2.758250">
        <ele>455.060</ele>
        <time>2020-01-28T09:25:42Z</time>
      </trkpt>
      <trkpt lat="39.735430" lon="2.759270">
        <ele>461.084</ele>
        <time>2020-01-28T09:26:02Z</time>
      </trkpt>
      <trkpt lat="39.735420" lon="2.759460">
        <ele>462.061</ele>
        <time>2020-01-28T09:26:22Z</time>
      </trkpt>
      <trkpt lat="39.735390" lon="2.759630">
        <ele>463.086</ele>
        <time>2020-01-28T09:26:42Z</time>
      </trkpt>
      <trkpt lat="39.735330" lon="2.759760">
        <ele>464.032</ele>
        <time>2020-01-28T09:27:02Z</time>
      </trkpt>
      <trkpt lat="39.735250" lon="2.759870">
        <ele>465.020</ele>
        <time>2020-01-28T09:27:22Z</time>
      </trkpt>
      <trkpt lat="39.734600" lon="2.760400">
        <ele>468.083</ele>
        <time>2020-01-28T09:27:42Z</time>
      </trkpt>
      <trkpt lat="39.734470" lon="2.760520">
        <ele>468.081</ele>
        <time>2020-01-28T09:28:02Z</time>
      </trkpt>
      <trkpt lat="39.734350" lon="2.760660">
        <ele>469.061</ele>
        <time>2020-01-28T09:28:22Z</time>
      </trkpt>
      <trkpt lat="39.734350" lon="2.760660">
        <ele>469.017</ele>
        <time>2020-01-28T09:28:42Z</time>
      </trkpt>
      <trkpt lat="39.734070" lon="2.760920">
        <ele>470.008</ele>
        <time>2020-01-28T09:29:02Z</time>
      </trkpt>
      <trkpt lat="39.733290" lon="2.761740">
        <ele>475.022</ele>
        <time>2020-01-28T09:29:22Z</time>
      </trkpt>
      <trkpt lat="39.733240" lon="2.761760">
        <ele>475.083</ele>
        <time>2020-01-28T09:29:42Z</time>
      </trkpt>
      <trkpt lat="39.733180" lon="2.761740">
        <ele>476.067</ele>
        <time>2020-01-28T09:30:02Z</time>
      </trkpt>
      <trkpt lat="39.732880" lon="2.760970">
        <ele>481.034</ele>
        <time>2020-01-28T09:30:22Z</time>
      </trkpt>
      <trkpt lat="39.732840" lon="2.760960">
        <ele>481.029</ele>
        <time>2020-01-28T09:30:42Z</time>
      </trkpt>
      <trkpt lat="39.732800" lon="2.760970">
        <ele>481.025</ele>
        <time>2020-01-28T09:31:02Z</time>
      </trkpt>
      <trkpt lat="39.732740" lon="2.761040">
        <ele>482.033</ele>
        <time>2020-01-28T09:31:22Z</time>
      </trkpt>
      <trkpt lat="39.732550" lon="2.762140">
        <ele>488.076</ele>
        <time>2020-01-28T09:31:42Z</time>
      </trkpt>
      <trkpt lat="39.732460" lon="2.762520">
        <ele>488.075</ele>
        <time>2020-01-28T09:32:02Z</time>
      </trkpt>
      <trkpt lat="39.732330" lon="2.762890">
        <ele>489.028</ele>
        <time>2020-01-28T09:32:22Z</time>
      </trkpt>
      <trkpt lat="39.732280" lon="2.763120">
        <ele>489.020</ele>
        <time>2020-01-28T09:32:42Z</time>
      </trkpt>
      <trkpt lat="39.732270" lon="2.763420">
        <ele>489.008</ele>
        <time>2020-01-28T09:33:02Z</time>
      </trkpt>
      <trkpt lat="39.732290" lon="2.763680">
        <ele>489.021</ele>
        <time>2020-01-28T09:33:22Z</time>
      </trkpt>
      <trkpt lat="39.732330" lon="2.763850">
        <ele>490.032</ele>
        <time>2020-01-28T09:33:42Z</time>
      </trkpt>
      <trkpt lat="39.732620" lon="2.764520">
        <ele>491.036</ele>
        <time>2020-01-28T09:34:02Z</time>
      </trkpt>
      <trkpt lat="39.732890" lon="2.764910">
        <ele>491.043</ele>
        <time>2020-01-28T09:34:22Z</time>
      </trkpt>
      <trkpt lat="39.733340" lon="2.765410">
        <ele>492.098</ele>
        <time>2020-01-28T09:34:42Z</time>
      </trkpt>
      <trkpt lat="39.733430" lon="2.765560">
        <ele>492.024</ele>
        <time>2020-01-28T09:35:02Z</time>
      </trkpt>
      <trkpt lat="39.733470" lon="2.765670">
        <ele>492.072</ele>
        <time>2020-01-28T09:35:22Z</time>
      </trkpt>
      <trkpt lat="39.733680" lon="2.766780">
        <ele>493.045</ele>
        <time>2020-01-28T09:35:42Z</time>
      </trkpt>
      <trkpt lat="39.733740" lon="2.767710">
        <ele>492.077</ele>
        <time>2020-01-28T09:36:02Z</time>
      </trkpt>
      <trkpt lat="39.733770" lon="2.767980">
        <ele>491.061</ele>
        <time>2020-01-28T09:36:22Z</time>
      </trkpt>
      <trkpt lat="39.733880" lon="2.768370">
        <ele>491.027</ele>
        <time>2020-01-28T09:36:42Z</time>
      </trkpt>
      <trkpt lat="39.734080" lon="2.768950">
        <ele>490.008</ele>
        <time>2020-01-28T09:37:02Z</time>
      </trkpt>
      <trkpt lat="39.734680" lon="2.769990">
        <ele>492.061</ele>
        <time>2020-01-28T09:37:22Z</time>
      </trkpt>
      <trkpt lat="39.734890" lon="2.770380">
        <ele>494.012</ele>
        <time>2020-01-28T09:37:42Z</time>
      </trkpt>
      <trkpt lat="39.735000" lon="2.770600">
        <ele>494.076</ele>
        <time>2020-01-28T09:38:02Z</time>
      </trkpt>
      <trkpt lat="39.735120" lon="2.770930">
        <ele>495.023</ele>
        <time>2020-01-28T09:38:22Z</time>
      </trkpt>
      <trkpt lat="39.735230" lon="2.771350">
        <ele>497.048</ele>
        <time>2020-01-28T09:38:42Z</time>
      </trkpt>
      <trkpt lat="39.735400" lon="2.771830">
        <ele>497.094</ele>
        <time>2020-01-28T09:39:02Z</time>
      </trkpt>
      <trkpt lat="39.735600" lon="2.772150">
        <ele>497.052</ele>
        <time>2020-01-28T09:39:22Z</time>
      </trkpt>
      <trkpt lat="39.735670" lon="2.772300">
        <ele>497.055</ele>
        <time>2020-01-28T09:39:42Z</time>
      </trkpt>
      <trkpt lat="39.735920" lon="2.773330">
        <ele>497.036</ele>
        <time>2020-01-28T09:40:02Z</time>
      </trkpt>
      <trkpt lat="39.736050" lon="2.773660">
        <ele>497.017</ele>
        <time>2020-01-28T09:40:22Z</time>
      </trkpt>
      <trkpt lat="39.736500" lon="2.774680">
        <ele>491.018</ele>
        <time>2020-01-28T09:40:42Z</time>
      </trkpt>
      <trkpt lat="39.736530" lon="2.774850">
        <ele>490.008</ele>
        <time>2020-01-28T09:41:02Z</time>
      </trkpt>
      <trkpt lat="39.736550" lon="2.775100">
        <ele>489.057</ele>
        <time>2020-01-28T09:41:22Z</time>
      </trkpt>
      <trkpt lat="39.736530" lon="2.775550">
        <ele>487.018</ele>
        <time>2020-01-28T09:41:42Z</time>
      </trkpt>
      <trkpt lat="39.736620" lon="2.776010">
        <ele>484.042</ele>
        <time>2020-01-28T09:42:02Z</time>
      </trkpt>
      <trkpt lat="39.736650" lon="2.776080">
        <ele>484.049</ele>
        <time>2020-01-28T09:42:22Z</time>
      </trkpt>
      <trkpt lat="39.736830" lon="2.776310">
        <ele>483.024</ele>
        <time>2020-01-28T09:42:42Z</time>
      </trkpt>
      <trkpt lat="39.737020" lon="2.776750">
        <ele>481.020</ele>
        <time>2020-01-28T09:43:02Z</time>
      </trkpt>
      <trkpt lat="39.737400" lon="2.777180">
        <ele>478.018</ele>
        <time>2020-01-28T09:43:22Z</time>
      </trkpt>
      <trkpt lat="39.737540" lon="2.777390">
        <ele>477.021</ele>
        <time>2020-01-28T09:43:42Z</time>
      </trkpt>
      <trkpt lat="39.737630" lon="2.777560">
        <ele>476.027</ele>
        <time>2020-01-28T09:44:02Z</time>
      </trkpt>
      <trkpt lat="39.737850" lon="2.778330">
        <ele>473.068</ele>
        <time>2020-01-28T09:44:22Z</time>
      </trkpt>
      <trkpt lat="39.737940" lon="2.778490">
        <ele>472.014</ele>
        <time>2020-01-28T09:44:42Z</time>
      </trkpt>
      <trkpt lat="39.738260" lon="2.778940">
        <ele>470.008</ele>
        <time>2020-01-28T09:45:02Z</time>
      </trkpt>
      <trkpt lat="39.738590" lon="2.779440">
        <ele>467.026</ele>
        <time>2020-01-28T09:45:22Z</time>
      </trkpt>
      <trkpt lat="39.738690" lon="2.779640">
        <ele>466.017</ele>
        <time>2020-01-28T09:45:42Z</time>
      </trkpt>
      <trkpt lat="39.738830" lon="2.780020">
        <ele>464.061</ele>
        <time>2020-01-28T09:46:02Z</time>
      </trkpt>
      <trkpt lat="39.738930" lon="2.780250">
        <ele>463.018</ele>
        <time>2020-01-28T09:46:22Z</time>
      </trkpt>
      <trkpt lat="39.739050" lon="2.780420">
        <ele>462.043</ele>
        <time>2020-01-28T09:46:42Z</time>
      </trkpt>
      <trkpt lat="39.739530" lon="2.780880">
        <ele>462.089</ele>
        <time>2020-01-28T09:47:02Z</time>
      </trkpt>
      <trkpt lat="39.741150" lon="2.783220">
        <ele>462.047</ele>
        <time>2020-01-28T09:47:22Z</time>
      </trkpt>
      <trkpt lat="39.742180" lon="2.784380">
        <ele>462.060</ele>
        <time>2020-01-28T09:47:42Z</time>
      </trkpt>
      <trkpt lat="39.742230" lon="2.784480">
        <ele>462.026</ele>
        <time>2020-01-28T09:48:02Z</time>
      </trkpt>
      <trkpt lat="39.742280" lon="2.784680">
        <ele>462.047</ele>
        <time>2020-01-28T09:48:22Z</time>
      </trkpt>
      <trkpt lat="39.742290" lon="2.784840">
        <ele>463.011</ele>
        <time>2020-01-28T09:48:42Z</time>
      </trkpt>
      <trkpt lat="39.742170" lon="2.785470">
        <ele>463.008</ele>
        <time>2020-01-28T09:49:02Z</time>
      </trkpt>
      <trkpt lat="39.742170" lon="2.785600">
        <ele>463.076</ele>
        <time>2020-01-28T09:49:22Z</time>
      </trkpt>
      <trkpt lat="39.742190" lon="2.785710">
        <ele>464.077</ele>
        <time>2020-01-28T09:49:42Z</time>
      </trkpt>
      <trkpt lat="39.742230" lon="2.785810">
        <ele>464.091</ele>
        <time>2020-01-28T09:50:02Z</time>
      </trkpt>
      <trkpt lat="39.742300" lon="2.785910">
        <ele>464.068</ele>
        <time>2020-01-28T09:50:22Z</time>
      </trkpt>
      <trkpt lat="39.742810" lon="2.786320">
        <ele>463.043</ele>
        <time>2020-01-28T09:50:42Z</time>
      </trkpt>
      <trkpt lat="39.742880" lon="2.786420">
        <ele>462.039</ele>
        <time>2020-01-28T09:51:02Z</time>
      </trkpt>
      <trkpt lat="39.743060" lon="2.786760">
        <ele>460.037</ele>
        <time>2020-01-28T09:51:22Z</time>
      </trkpt>
      <trkpt lat="39.743130" lon="2.787050">
        <ele>458.050</ele>
        <time>2020-01-28T09:51:42Z</time>
      </trkpt>
      <trkpt lat="39.743200" lon="2.787240">
        <ele>457.021</ele>
        <time>2020-01-28T09:52:02Z</time>
      </trkpt>
      <trkpt lat="39.743320" lon="2.787390">
        <ele>455.041</ele>
        <time>2020-01-28T09:52:22Z</time>
      </trkpt>
      <trkpt lat="39.743480" lon="2.787500">
        <ele>454.005</ele>
        <time>2020-01-28T09:52:42Z</time>
      </trkpt>
      <trkpt lat="39.743570" lon="2.787590">
        <ele>453.008</ele>
        <time>2020-01-28T09:53:02Z</time>
      </trkpt>
      <trkpt lat="39.743900" lon="2.788260">
        <ele>448.026</ele>
        <time>2020-01-28T09:53:22Z</time>
      </trkpt>
      <trkpt lat="39.744090" lon="2.788710">
        <ele>444.087</ele>
        <time>2020-01-28T09:53:42Z</time>
      </trkpt>
      <trkpt lat="39.744230" lon="2.789040">
        <ele>441.021</ele>
        <time>2020-01-28T09:54:02Z</time>
      </trkpt>
      <trkpt lat="39.744350" lon="2.789400">
        <ele>437.068</ele>
        <time>2020-01-28T09:54:22Z</time>
      </trkpt>
      <trkpt lat="39.744340" lon="2.789680">
        <ele>435.053</ele>
        <time>2020-01-28T09:54:42Z</time>
      </trkpt>
      <trkpt lat="39.744310" lon="2.789800">
        <ele>434.019</ele>
        <time>2020-01-28T09:55:02Z</time>
      </trkpt>
      <trkpt lat="39.744300" lon="2.789950">
        <ele>433.057</ele>
        <time>2020-01-28T09:55:22Z</time>
      </trkpt>
      <trkpt lat="39.744320" lon="2.790180">
        <ele>431.040</ele>
        <time>2020-01-28T09:55:42Z</time>
      </trkpt>
      <trkpt lat="39.744440" lon="2.790690">
        <ele>426.061</ele>
        <time>2020-01-28T09:56:02Z</time>
      </trkpt>
      <trkpt lat="39.744600" lon="2.791570">
        <ele>421.021</ele>
        <time>2020-01-28T09:56:22Z</time>
      </trkpt>
      <trkpt lat="39.744620" lon="2.791730">
        <ele>419.013</ele>
        <time>2020-01-28T09:56:42Z</time>
      </trkpt>
      <trkpt lat="39.744600" lon="2.792070">
        <ele>417.008</ele>
        <time>2020-01-28T09:57:02Z</time>
      </trkpt>
      <trkpt lat="39.744440" lon="2.792620">
        <ele>413.070</ele>
        <time>2020-01-28T09:57:22Z</time>
      </trkpt>
      <trkpt lat="39.744410" lon="2.792880">
        <ele>412.011</ele>
        <time>2020-01-28T09:57:42Z</time>
      </trkpt>
      <trkpt lat="39.744450" lon="2.793080">
        <ele>410.035</ele>
        <time>2020-01-28T09:58:02Z</time>
      </trkpt>
      <trkpt lat="39.744540" lon="2.793230">
        <ele>409.092</ele>
        <time>2020-01-28T09:58:22Z</time>
      </trkpt>
      <trkpt lat="39.745440" lon="2.794540">
        <ele>402.087</ele>
        <time>2020-01-28T09:58:42Z</time>
      </trkpt>
      <trkpt lat="39.745560" lon="2.794800">
        <ele>401.093</ele>
        <time>2020-01-28T09:59:02Z</time>
      </trkpt>
      <trkpt lat="39.745580" lon="2.794930">
        <ele>400.051</ele>
        <time>2020-01-28T09:59:22Z</time>
      </trkpt>
      <trkpt lat="39.745540" lon="2.795070">
        <ele>400.024</ele>
        <time>2020-01-28T09:59:42Z</time>
      </trkpt>
      <trkpt lat="39.745470" lon="2.795210">
        <ele>399.083</ele>
        <time>2020-01-28T10:00:02Z</time>
      </trkpt>
      <trkpt lat="39.745330" lon="2.795300">
        <ele>398.025</ele>
        <time>2020-01-28T10:00:22Z</time>
      </trkpt>
      <trkpt lat="39.745210" lon="2.795330">
        <ele>397.017</ele>
        <time>2020-01-28T10:00:42Z</time>
      </trkpt>
      <trkpt lat="39.744810" lon="2.795300">
        <ele>393.008</ele>
        <time>2020-01-28T10:01:02Z</time>
      </trkpt>
      <trkpt lat="39.744200" lon="2.795220">
        <ele>388.032</ele>
        <time>2020-01-28T10:01:22Z</time>
      </trkpt>
      <trkpt lat="39.744070" lon="2.795220">
        <ele>387.093</ele>
        <time>2020-01-28T10:01:42Z</time>
      </trkpt>
      <trkpt lat="39.743980" lon="2.795250">
        <ele>386.097</ele>
        <time>2020-01-28T10:02:02Z</time>
      </trkpt>
      <trkpt lat="39.743770" lon="2.795410">
        <ele>384.084</ele>
        <time>2020-01-28T10:02:22Z</time>
      </trkpt>
      <trkpt lat="39.743430" lon="2.796040">
        <ele>381.099</ele>
        <time>2020-01-28T10:02:42Z</time>
      </trkpt>
      <trkpt lat="39.743190" lon="2.796580">
        <ele>379.065</ele>
        <time>2020-01-28T10:03:02Z</time>
      </trkpt>
      <trkpt lat="39.743150" lon="2.796740">
        <ele>379.033</ele>
        <time>2020-01-28T10:03:22Z</time>
      </trkpt>
      <trkpt lat="39.743140" lon="2.796930">
        <ele>379.046</ele>
        <time>2020-01-28T10:03:42Z</time>
      </trkpt>
      <trkpt lat="39.743410" lon="2.800300">
        <ele>362.084</ele>
        <time>2020-01-28T10:04:02Z</time>
      </trkpt>
      <trkpt lat="39.743410" lon="2.800470">
        <ele>361.007</ele>
        <time>2020-01-28T10:04:22Z</time>
      </trkpt>
      <trkpt lat="39.743390" lon="2.800590">
        <ele>360.017</ele>
        <time>2020-01-28T10:04:42Z</time>
      </trkpt>
      <trkpt lat="39.743320" lon="2.800730">
        <ele>359.008</ele>
        <time>2020-01-28T10:05:02Z</time>
      </trkpt>
      <trkpt lat="39.743220" lon="2.800840">
        <ele>358.092</ele>
        <time>2020-01-28T10:05:22Z</time>
      </trkpt>
      <trkpt lat="39.743150" lon="2.800870">
        <ele>358.033</ele>
        <time>2020-01-28T10:05:42Z</time>
      </trkpt>
      <trkpt lat="39.741650" lon="2.801060">
        <ele>354.077</ele>
        <time>2020-01-28T10:06:02Z</time>
      </trkpt>
      <trkpt lat="39.741460" lon="2.801050">
        <ele>354.044</ele>
        <time>2020-01-28T10:06:22Z</time>
      </trkpt>
      <trkpt lat="39.741340" lon="2.800970">
        <ele>354.059</ele>
        <time>2020-01-28T10:06:42Z</time>
      </trkpt>
      <trkpt lat="39.741280" lon="2.800920">
        <ele>354.065</ele>
        <time>2020-01-28T10:07:02Z</time>
      </trkpt>
      <trkpt lat="39.741070" lon="2.800490">
        <ele>351.073</ele>
        <time>2020-01-28T10:07:22Z</time>
      </trkpt>
      <trkpt lat="39.740990" lon="2.800390">
        <ele>350.026</ele>
        <time>2020-01-28T10:07:42Z</time>
      </trkpt>
      <trkpt lat="39.740870" lon="2.800330">
        <ele>349.018</ele>
        <time>2020-01-28T10:08:02Z</time>
      </trkpt>
      <trkpt lat="39.740770" lon="2.800330">
        <ele>349.098</ele>
        <time>2020-01-28T10:08:22Z</time>
      </trkpt>
      <trkpt lat="39.740680" lon="2.800360">
        <ele>348.017</ele>
        <time>2020-01-28T10:08:42Z</time>
      </trkpt>
      <trkpt lat="39.740570" lon="2.800440">
        <ele>347.008</ele>
        <time>2020-01-28T10:09:02Z</time>
      </trkpt>
      <trkpt lat="39.740480" lon="2.800600">
        <ele>346.075</ele>
        <time>2020-01-28T10:09:22Z</time>
      </trkpt>
      <trkpt lat="39.740370" lon="2.800870">
        <ele>344.076</ele>
        <time>2020-01-28T10:09:42Z</time>
      </trkpt>
      <trkpt lat="39.740300" lon="2.800970">
        <ele>344.040</ele>
        <time>2020-01-28T10:10:02Z</time>
      </trkpt>
      <trkpt lat="39.740220" lon="2.801040">
        <ele>343.077</ele>
        <time>2020-01-28T10:10:22Z</time>
      </trkpt>
      <trkpt lat="39.740040" lon="2.801140">
        <ele>342.052</ele>
        <time>2020-01-28T10:10:42Z</time>
      </trkpt>
      <trkpt lat="39.739670" lon="2.801210">
        <ele>339.098</ele>
        <time>2020-01-28T10:11:02Z</time>
      </trkpt>
      <trkpt lat="39.739490" lon="2.801150">
        <ele>337.036</ele>
        <time>2020-01-28T10:11:22Z</time>
      </trkpt>
      <trkpt lat="39.738980" lon="2.800760">
        <ele>330.029</ele>
        <time>2020-01-28T10:11:42Z</time>
      </trkpt>
      <trkpt lat="39.738800" lon="2.800670">
        <ele>328.071</ele>
        <time>2020-01-28T10:12:02Z</time>
      </trkpt>
      <trkpt lat="39.738670" lon="2.800640">
        <ele>327.041</ele>
        <time>2020-01-28T10:12:22Z</time>
      </trkpt>
      <trkpt lat="39.738470" lon="2.800650">
        <ele>325.015</ele>
        <time>2020-01-28T10:12:42Z</time>
      </trkpt>
      <trkpt lat="39.738160" lon="2.800690">
        <ele>321.008</ele>
        <time>2020-01-28T10:13:02Z</time>
      </trkpt>
      <trkpt lat="39.738060" lon="2.800750">
        <ele>320.021</ele>
        <time>2020-01-28T10:13:22Z</time>
      </trkpt>
      <trkpt lat="39.737980" lon="2.800850">
        <ele>319.032</ele>
        <time>2020-01-28T10:13:42Z</time>
      </trkpt>
      <trkpt lat="39.737920" lon="2.800980">
        <ele>318.036</ele>
        <time>2020-01-28T10:14:02Z</time>
      </trkpt>
      <trkpt lat="39.737610" lon="2.801960">
        <ele>316.033</ele>
        <time>2020-01-28T10:14:22Z</time>
      </trkpt>
      <trkpt lat="39.737530" lon="2.802140">
        <ele>315.058</ele>
        <time>2020-01-28T10:14:42Z</time>
      </trkpt>
      <trkpt lat="39.737450" lon="2.802240">
        <ele>315.034</ele>
        <time>2020-01-28T10:15:02Z</time>
      </trkpt>
      <trkpt lat="39.737370" lon="2.802320">
        <ele>315.012</ele>
        <time>2020-01-28T10:15:22Z</time>
      </trkpt>
      <trkpt lat="39.736690" lon="2.802600">
        <ele>313.045</ele>
        <time>2020-01-28T10:15:42Z</time>
      </trkpt>
      <trkpt lat="39.736500" lon="2.802650">
        <ele>312.079</ele>
        <time>2020-01-28T10:16:02Z</time>
      </trkpt>
      <trkpt lat="39.735250" lon="2.802690">
        <ele>304.005</ele>
        <time>2020-01-28T10:16:22Z</time>
      </trkpt>
      <trkpt lat="39.735130" lon="2.802710">
        <ele>303.025</ele>
        <time>2020-01-28T10:16:42Z</time>
      </trkpt>
      <trkpt lat="39.734990" lon="2.802770">
        <ele>302.008</ele>
        <time>2020-01-28T10:17:02Z</time>
      </trkpt>
      <trkpt lat="39.734620" lon="2.803110">
        <ele>299.051</ele>
        <time>2020-01-28T10:17:22Z</time>
      </trkpt>
      <trkpt lat="39.734380" lon="2.803290">
        <ele>298.052</ele>
        <time>2020-01-28T10:17:42Z</time>
      </trkpt>
      <trkpt lat="39.733980" lon="2.803490">
        <ele>295.086</ele>
        <time>2020-01-28T10:18:02Z</time>
      </trkpt>
      <trkpt lat="39.732620" lon="2.804080">
        <ele>287.023</ele>
        <time>2020-01-28T10:18:22Z</time>
      </trkpt>
      <trkpt lat="39.732410" lon="2.804110">
        <ele>285.038</ele>
        <time>2020-01-28T10:18:42Z</time>
      </trkpt>
      <trkpt lat="39.731830" lon="2.804130">
        <ele>281.024</ele>
        <time>2020-01-28T10:19:02Z</time>
      </trkpt>
      <trkpt lat="39.731590" lon="2.804200">
        <ele>280.012</ele>
        <time>2020-01-28T10:19:22Z</time>
      </trkpt>
      <trkpt lat="39.730730" lon="2.804680">
        <ele>273.055</ele>
        <time>2020-01-28T10:19:42Z</time>
      </trkpt>
      <trkpt lat="39.730570" lon="2.804740">
        <ele>272.063</ele>
        <time>2020-01-28T10:20:02Z</time>
      </trkpt>
      <trkpt lat="39.730400" lon="2.804770">
        <ele>271.044</ele>
        <time>2020-01-28T10:20:22Z</time>
      </trkpt>
      <trkpt lat="39.728530" lon="2.804770">
        <ele>258.018</ele>
        <time>2020-01-28T10:20:42Z</time>
      </trkpt>
      <trkpt lat="39.728260" lon="2.804830">
        <ele>257.008</ele>
        <time>2020-01-28T10:21:02Z</time>
      </trkpt>
      <trkpt lat="39.727580" lon="2.805070">
        <ele>253.090</ele>
        <time>2020-01-28T10:21:22Z</time>
      </trkpt>
      <trkpt lat="39.727450" lon="2.805060">
        <ele>252.081</ele>
        <time>2020-01-28T10:21:42Z</time>
      </trkpt>
      <trkpt lat="39.727360" lon="2.805020">
        <ele>252.025</ele>
        <time>2020-01-28T10:22:02Z</time>
      </trkpt>
      <trkpt lat="39.727260" lon="2.804950">
        <ele>251.032</ele>
        <time>2020-01-28T10:22:22Z</time>
      </trkpt>
      <trkpt lat="39.726980" lon="2.804670">
        <ele>249.087</ele>
        <time>2020-01-28T10:22:42Z</time>
      </trkpt>
      <trkpt lat="39.726860" lon="2.804610">
        <ele>248.013</ele>
        <time>2020-01-28T10:23:02Z</time>
      </trkpt>
      <trkpt lat="39.726650" lon="2.804580">
        <ele>248.051</ele>
        <time>2020-01-28T10:23:22Z</time>
      </trkpt>
      <trkpt lat="39.725740" lon="2.804670">
        <ele>243.044</ele>
        <time>2020-01-28T10:23:42Z</time>
      </trkpt>
      <trkpt lat="39.725560" lon="2.804670">
        <ele>243.037</ele>
        <time>2020-01-28T10:24:02Z</time>
      </trkpt>
      <trkpt lat="39.725400" lon="2.804630">
        <ele>242.049</ele>
        <time>2020-01-28T10:24:22Z</time>
      </trkpt>
      <trkpt lat="39.723000" lon="2.803940">
        <ele>234.013</ele>
        <time>2020-01-28T10:24:42Z</time>
      </trkpt>
      <trkpt lat="39.720850" lon="2.803120">
        <ele>230.008</ele>
        <time>2020-01-28T10:25:02Z</time>
      </trkpt>
      <trkpt lat="39.716680" lon="2.802510">
        <ele>221.067</ele>
        <time>2020-01-28T10:25:22Z</time>
      </trkpt>
      <trkpt lat="39.716330" lon="2.802430">
        <ele>221.018</ele>
        <time>2020-01-28T10:25:42Z</time>
      </trkpt>
      <trkpt lat="39.714900" lon="2.801300">
        <ele>219.042</ele>
        <time>2020-01-28T10:26:02Z</time>
      </trkpt>
      <trkpt lat="39.714180" lon="2.800850">
        <ele>218.059</ele>
        <time>2020-01-28T10:26:22Z</time>
      </trkpt>
      <trkpt lat="39.713920" lon="2.800620">
        <ele>218.084</ele>
        <time>2020-01-28T10:26:42Z</time>
      </trkpt>
      <trkpt lat="39.713820" lon="2.800470">
        <ele>217.030</ele>
        <time>2020-01-28T10:27:02Z</time>
      </trkpt>
      <trkpt lat="39.713660" lon="2.800110">
        <ele>217.098</ele>
        <time>2020-01-28T10:27:22Z</time>
      </trkpt>
      <trkpt lat="39.713070" lon="2.799500">
        <ele>216.071</ele>
        <time>2020-01-28T10:27:42Z</time>
      </trkpt>
      <trkpt lat="39.712540" lon="2.799050">
        <ele>215.099</ele>
        <time>2020-01-28T10:28:02Z</time>
      </trkpt>
      <trkpt lat="39.711980" lon="2.798640">
        <ele>214.007</ele>
        <time>2020-01-28T10:28:22Z</time>
      </trkpt>
      <trkpt lat="39.711620" lon="2.798270">
        <ele>213.027</ele>
        <time>2020-01-28T10:28:42Z</time>
      </trkpt>
      <trkpt lat="39.711500" lon="2.798090">
        <ele>213.008</ele>
        <time>2020-01-28T10:29:02Z</time>
      </trkpt>
      <trkpt lat="39.711300" lon="2.797740">
        <ele>212.073</ele>
        <time>2020-01-28T10:29:22Z</time>
      </trkpt>
      <trkpt lat="39.711130" lon="2.797350">
        <ele>212.034</ele>
        <time>2020-01-28T10:29:42Z</time>
      </trkpt>
      <trkpt lat="39.710600" lon="2.796460">
        <ele>211.018</ele>
        <time>2020-01-28T10:30:02Z</time>
      </trkpt>
      <trkpt lat="39.710260" lon="2.795810">
        <ele>213.085</ele>
        <time>2020-01-28T10:30:22Z</time>
      </trkpt>
      <trkpt lat="39.709740" lon="2.794720">
        <ele>217.040</ele>
        <time>2020-01-28T10:30:42Z</time>
      </trkpt>
      <trkpt lat="39.709380" lon="2.794120">
        <ele>220.086</ele>
        <time>2020-01-28T10:31:02Z</time>
      </trkpt>
      <trkpt lat="39.709210" lon="2.793760">
        <ele>220.044</ele>
        <time>2020-01-28T10:31:22Z</time>
      </trkpt>
      <trkpt lat="39.708940" lon="2.793350">
        <ele>220.037</ele>
        <time>2020-01-28T10:31:42Z</time>
      </trkpt>
      <trkpt lat="39.708890" lon="2.793220">
        <ele>220.097</ele>
        <time>2020-01-28T10:32:02Z</time>
      </trkpt>
      <trkpt lat="39.708680" lon="2.792470">
        <ele>220.023</ele>
        <time>2020-01-28T10:32:22Z</time>
      </trkpt>
      <trkpt lat="39.708510" lon="2.792100">
        <ele>220.025</ele>
        <time>2020-01-28T10:32:42Z</time>
      </trkpt>
      <trkpt lat="39.707240" lon="2.790930">
        <ele>226.008</ele>
        <time>2020-01-28T10:33:02Z</time>
      </trkpt>
      <trkpt lat="39.706970" lon="2.790710">
        <ele>227.063</ele>
        <time>2020-01-28T10:33:22Z</time>
      </trkpt>
      <trkpt lat="39.706810" lon="2.790650">
        <ele>228.014</ele>
        <time>2020-01-28T10:33:42Z</time>
      </trkpt>
      <trkpt lat="39.706800" lon="2.790650">
        <ele>228.038</ele>
        <time>2020-01-28T10:34:02Z</time>
      </trkpt>
      <trkpt lat="39.706800" lon="2.790650">
        <ele>228.065</ele>
        <time>2020-01-28T10:34:22Z</time>
      </trkpt>
      <trkpt lat="39.707020" lon="2.789160">
        <ele>226.080</ele>
        <time>2020-01-28T10:34:42Z</time>
      </trkpt>
      <trkpt lat="39.706310" lon="2.789100">
        <ele>225.066</ele>
        <time>2020-01-28T10:35:02Z</time>
      </trkpt>
      <trkpt lat="39.706240" lon="2.789060">
        <ele>225.044</ele>
        <time>2020-01-28T10:35:22Z</time>
      </trkpt>
      <trkpt lat="39.706210" lon="2.789020">
        <ele>225.017</ele>
        <time>2020-01-28T10:35:42Z</time>
      </trkpt>
      <trkpt lat="39.706150" lon="2.788850">
        <ele>224.061</ele>
        <time>2020-01-28T10:36:02Z</time>
      </trkpt>
      <trkpt lat="39.705820" lon="2.789090">
        <ele>223.021</ele>
        <time>2020-01-28T10:36:22Z</time>
      </trkpt>
      <trkpt lat="39.705820" lon="2.789090">
        <ele>223.013</ele>
        <time>2020-01-28T10:36:42Z</time>
      </trkpt>
      <trkpt lat="39.705680" lon="2.789180">
        <ele>222.008</ele>
        <time>2020-01-28T10:37:02Z</time>
      </trkpt>
      <trkpt lat="39.705580" lon="2.788970">
        <ele>222.090</ele>
        <time>2020-01-28T10:37:22Z</time>
      </trkpt>
      <trkpt lat="39.705520" lon="2.788980">
        <ele>221.011</ele>
        <time>2020-01-28T10:37:42Z</time>
      </trkpt>
      <trkpt lat="39.705420" lon="2.788930">
        <ele>221.055</ele>
        <time>2020-01-28T10:38:02Z</time>
      </trkpt>
      <trkpt lat="39.705340" lon="2.788960">
        <ele>221.052</ele>
        <time>2020-01-28T10:38:22Z</time>
      </trkpt>
      <trkpt lat="39.705230" lon="2.789140">
        <ele>220.097</ele>
        <time>2020-01-28T10:38:42Z</time>
      </trkpt>
      <trkpt lat="39.705220" lon="2.789280">
        <ele>220.023</ele>
        <time>2020-01-28T10:39:02Z</time>
      </trkpt>
      <trkpt lat="39.705220" lon="2.789280">
        <ele>220.041</ele>
        <time>2020-01-28T10:39:22Z</time>
      </trkpt>
      <trkpt lat="39.705290" lon="2.789550">
        <ele>219.014</ele>
        <time>2020-01-28T10:39:42Z</time>
      </trkpt>
      <trkpt lat="39.704860" lon="2.789930">
        <ele>217.023</ele>
        <time>2020-01-28T10:40:02Z</time>
      </trkpt>
      <trkpt lat="39.704740" lon="2.790110">
        <ele>216.083</ele>
        <time>2020-01-28T10:40:22Z</time>
      </trkpt>
      <trkpt lat="39.704600" lon="2.790220">
        <ele>216.011</ele>
        <time>2020-01-28T10:40:42Z</time>
      </trkpt>
      <trkpt lat="39.704630" lon="2.790680">
        <ele>215.008</ele>
        <time>2020-01-28T10:41:02Z</time>
      </trkpt>
      <trkpt lat="39.704170" lon="2.791060">
        <ele>213.066</ele>
        <time>2020-01-28T10:41:22Z</time>
      </trkpt>
      <trkpt lat="39.704100" lon="2.791150">
        <ele>213.087</ele>
        <time>2020-01-28T10:41:42Z</time>
      </trkpt>
      <trkpt lat="39.704220" lon="2.791330">
        <ele>213.031</ele>
        <time>2020-01-28T10:42:02Z</time>
      </trkpt>
      <trkpt lat="39.704280" lon="2.791500">
        <ele>212.028</ele>
        <time>2020-01-28T10:42:22Z</time>
      </trkpt>
      <trkpt lat="39.704460" lon="2.791830">
        <ele>212.073</ele>
        <time>2020-01-28T10:42:42Z</time>
      </trkpt>
      <trkpt lat="39.705200" lon="2.793080">
        <ele>209.079</ele>
        <time>2020-01-28T10:43:02Z</time>
      </trkpt>
      <trkpt lat="39.706500" lon="2.795430">
        <ele>204.017</ele>
        <time>2020-01-28T10:43:22Z</time>
      </trkpt>
      <trkpt lat="39.706960" lon="2.796170">
        <ele>201.070</ele>
        <time>2020-01-28T10:43:42Z</time>
      </trkpt>
      <trkpt lat="39.707070" lon="2.796420">
        <ele>201.017</ele>
        <time>2020-01-28T10:44:02Z</time>
      </trkpt>
      <trkpt lat="39.707140" lon="2.796680">
        <ele>200.087</ele>
        <time>2020-01-28T10:44:22Z</time>
      </trkpt>
      <trkpt lat="39.707170" lon="2.797060">
        <ele>200.015</ele>
        <time>2020-01-28T10:44:42Z</time>
      </trkpt>
      <trkpt lat="39.707140" lon="2.797730">
        <ele>198.008</ele>
        <time>2020-01-28T10:45:02Z</time>
      </trkpt>
      <trkpt lat="39.707140" lon="2.798190">
        <ele>197.045</ele>
        <time>2020-01-28T10:45:22Z</time>
      </trkpt>
      <trkpt lat="39.707150" lon="2.798270">
        <ele>197.026</ele>
        <time>2020-01-28T10:45:42Z</time>
      </trkpt>
      <trkpt lat="39.707170" lon="2.798350">
        <ele>197.050</ele>
        <time>2020-01-28T10:46:02Z</time>
      </trkpt>
      <trkpt lat="39.707250" lon="2.798500">
        <ele>197.017</ele>
        <time>2020-01-28T10:46:22Z</time>
      </trkpt>
      <trkpt lat="39.707350" lon="2.798630">
        <ele>197.052</ele>
        <time>2020-01-28T10:46:42Z</time>
      </trkpt>
      <trkpt lat="39.707400" lon="2.798660">
        <ele>197.028</ele>
        <time>2020-01-28T10:47:02Z</time>
      </trkpt>
      <trkpt lat="39.707460" lon="2.798760">
        <ele>197.046</ele>
        <time>2020-01-28T10:47:22Z</time>
      </trkpt>
      <trkpt lat="39.708200" lon="2.800740">
        <ele>201.019</ele>
        <time>2020-01-28T10:47:42Z</time>
      </trkpt>
      <trkpt lat="39.708360" lon="2.801420">
        <ele>201.045</ele>
        <time>2020-01-28T10:48:02Z</time>
      </trkpt>
      <trkpt lat="39.708450" lon="2.801610">
        <ele>201.047</ele>
        <time>2020-01-28T10:48:22Z</time>
      </trkpt>
      <trkpt lat="39.709360" lon="2.803410">
        <ele>198.011</ele>
        <time>2020-01-28T10:48:42Z</time>
      </trkpt>
      <trkpt lat="39.711270" lon="2.807910">
        <ele>195.008</ele>
        <time>2020-01-28T10:49:02Z</time>
      </trkpt>
      <trkpt lat="39.711810" lon="2.809470">
        <ele>201.018</ele>
        <time>2020-01-28T10:49:22Z</time>
      </trkpt>
      <trkpt lat="39.712320" lon="2.810530">
        <ele>206.039</ele>
        <time>2020-01-28T10:49:42Z</time>
      </trkpt>
      <trkpt lat="39.712550" lon="2.811740">
        <ele>212.013</ele>
        <time>2020-01-28T10:50:02Z</time>
      </trkpt>
      <trkpt lat="39.712660" lon="2.812020">
        <ele>213.040</ele>
        <time>2020-01-28T10:50:22Z</time>
      </trkpt>
      <trkpt lat="39.712700" lon="2.812200">
        <ele>214.085</ele>
        <time>2020-01-28T10:50:42Z</time>
      </trkpt>
      <trkpt lat="39.712740" lon="2.812640">
        <ele>215.021</ele>
        <time>2020-01-28T10:51:02Z</time>
      </trkpt>
      <trkpt lat="39.712830" lon="2.813300">
        <ele>216.079</ele>
        <time>2020-01-28T10:51:22Z</time>
      </trkpt>
      <trkpt lat="39.712790" lon="2.813530">
        <ele>217.052</ele>
        <time>2020-01-28T10:51:42Z</time>
      </trkpt>
      <trkpt lat="39.712680" lon="2.813860">
        <ele>217.056</ele>
        <time>2020-01-28T10:52:02Z</time>
      </trkpt>
      <trkpt lat="39.712630" lon="2.814390">
        <ele>218.059</ele>
        <time>2020-01-28T10:52:22Z</time>
      </trkpt>
      <trkpt lat="39.712640" lon="2.814590">
        <ele>218.014</ele>
        <time>2020-01-28T10:52:42Z</time>
      </trkpt>
      <trkpt lat="39.712690" lon="2.814740">
        <ele>218.008</ele>
        <time>2020-01-28T10:53:02Z</time>
      </trkpt>
      <trkpt lat="39.712840" lon="2.815090">
        <ele>218.029</ele>
        <time>2020-01-28T10:53:22Z</time>
      </trkpt>
      <trkpt lat="39.712930" lon="2.815250">
        <ele>218.030</ele>
        <time>2020-01-28T10:53:42Z</time>
      </trkpt>
      <trkpt lat="39.713120" lon="2.815480">
        <ele>218.014</ele>
        <time>2020-01-28T10:54:02Z</time>
      </trkpt>
      <trkpt lat="39.713200" lon="2.815610">
        <ele>218.011</ele>
        <time>2020-01-28T10:54:22Z</time>
      </trkpt>
      <trkpt lat="39.713580" lon="2.816520">
        <ele>218.016</ele>
        <time>2020-01-28T10:54:42Z</time>
      </trkpt>
      <trkpt lat="39.714090" lon="2.817190">
        <ele>218.052</ele>
        <time>2020-01-28T10:55:02Z</time>
      </trkpt>
      <trkpt lat="39.714360" lon="2.817420">
        <ele>218.060</ele>
        <time>2020-01-28T10:55:22Z</time>
      </trkpt>
      <trkpt lat="39.714590" lon="2.817650">
        <ele>219.073</ele>
        <time>2020-01-28T10:55:42Z</time>
      </trkpt>
      <trkpt lat="39.714850" lon="2.817800">
        <ele>220.049</ele>
        <time>2020-01-28T10:56:02Z</time>
      </trkpt>
      <trkpt lat="39.715270" lon="2.818270">
        <ele>221.002</ele>
        <time>2020-01-28T10:56:22Z</time>
      </trkpt>
      <trkpt lat="39.715680" lon="2.818670">
        <ele>222.022</ele>
        <time>2020-01-28T10:56:42Z</time>
      </trkpt>
      <trkpt lat="39.716060" lon="2.818810">
        <ele>224.008</ele>
        <time>2020-01-28T10:57:02Z</time>
      </trkpt>
      <trkpt lat="39.716460" lon="2.819300">
        <ele>225.088</ele>
        <time>2020-01-28T10:57:22Z</time>
      </trkpt>
      <trkpt lat="39.717270" lon="2.820690">
        <ele>230.079</ele>
        <time>2020-01-28T10:57:42Z</time>
      </trkpt>
      <trkpt lat="39.717330" lon="2.820820">
        <ele>230.053</ele>
        <time>2020-01-28T10:58:02Z</time>
      </trkpt>
      <trkpt lat="39.717310" lon="2.821090">
        <ele>231.040</ele>
        <time>2020-01-28T10:58:22Z</time>
      </trkpt>
      <trkpt lat="39.717400" lon="2.821760">
        <ele>233.095</ele>
        <time>2020-01-28T10:58:42Z</time>
      </trkpt>
      <trkpt lat="39.717510" lon="2.822320">
        <ele>235.061</ele>
        <time>2020-01-28T10:59:02Z</time>
      </trkpt>
      <trkpt lat="39.717590" lon="2.822430">
        <ele>235.089</ele>
        <time>2020-01-28T10:59:22Z</time>
      </trkpt>
      <trkpt lat="39.717940" lon="2.823560">
        <ele>239.062</ele>
        <time>2020-01-28T10:59:42Z</time>
      </trkpt>
      <trkpt lat="39.718000" lon="2.823980">
        <ele>241.095</ele>
        <time>2020-01-28T11:00:02Z</time>
      </trkpt>
      <trkpt lat="39.718260" lon="2.825310">
        <ele>246.049</ele>
        <time>2020-01-28T11:00:22Z</time>
      </trkpt>
      <trkpt lat="39.718330" lon="2.825590">
        <ele>247.023</ele>
        <time>2020-01-28T11:00:42Z</time>
      </trkpt>
      <trkpt lat="39.718500" lon="2.825930">
        <ele>247.008</ele>
        <time>2020-01-28T11:01:02Z</time>
      </trkpt>
      <trkpt lat="39.718670" lon="2.826130">
        <ele>248.043</ele>
        <time>2020-01-28T11:01:22Z</time>
      </trkpt>
      <trkpt lat="39.718960" lon="2.826320">
        <ele>249.014</ele>
        <time>2020-01-28T11:01:42Z</time>
      </trkpt>
      <trkpt lat="39.719390" lon="2.826510">
        <ele>250.038</ele>
        <time>2020-01-28T11:02:02Z</time>
      </trkpt>
      <trkpt lat="39.719560" lon="2.826610">
        <ele>250.025</ele>
        <time>2020-01-28T11:02:22Z</time>
      </trkpt>
      <trkpt lat="39.719680" lon="2.826690">
        <ele>251.080</ele>
        <time>2020-01-28T11:02:42Z</time>
      </trkpt>
      <trkpt lat="39.719980" lon="2.826950">
        <ele>252.056</ele>
        <time>2020-01-28T11:03:02Z</time>
      </trkpt>
      <trkpt lat="39.720310" lon="2.827080">
        <ele>253.064</ele>
        <time>2020-01-28T11:03:22Z</time>
      </trkpt>
      <trkpt lat="39.720550" lon="2.827560">
        <ele>255.067</ele>
        <time>2020-01-28T11:03:42Z</time>
      </trkpt>
      <trkpt lat="39.720740" lon="2.827840">
        <ele>256.062</ele>
        <time>2020-01-28T11:04:02Z</time>
      </trkpt>
      <trkpt lat="39.721040" lon="2.828230">
        <ele>258.083</ele>
        <time>2020-01-28T11:04:22Z</time>
      </trkpt>
      <trkpt lat="39.721160" lon="2.828440">
        <ele>258.011</ele>
        <time>2020-01-28T11:04:42Z</time>
      </trkpt>
      <trkpt lat="39.721320" lon="2.829040">
        <ele>257.008</ele>
        <time>2020-01-28T11:05:02Z</time>
      </trkpt>
      <trkpt lat="39.721360" lon="2.829300">
        <ele>255.080</ele>
        <time>2020-01-28T11:05:22Z</time>
      </trkpt>
      <trkpt lat="39.721420" lon="2.829450">
        <ele>254.051</ele>
        <time>2020-01-28T11:05:42Z</time>
      </trkpt>
      <trkpt lat="39.721530" lon="2.829630">
        <ele>252.075</ele>
        <time>2020-01-28T11:06:02Z</time>
      </trkpt>
      <trkpt lat="39.721660" lon="2.829810">
        <ele>250.072</ele>
        <time>2020-01-28T11:06:22Z</time>
      </trkpt>
      <trkpt lat="39.722050" lon="2.830190">
        <ele>244.037</ele>
        <time>2020-01-28T11:06:42Z</time>
      </trkpt>
      <trkpt lat="39.722120" lon="2.830290">
        <ele>243.073</ele>
        <time>2020-01-28T11:07:02Z</time>
      </trkpt>
      <trkpt lat="39.722290" lon="2.830640">
        <ele>240.061</ele>
        <time>2020-01-28T11:07:22Z</time>
      </trkpt>
      <trkpt lat="39.722500" lon="2.830920">
        <ele>237.034</ele>
        <time>2020-01-28T11:07:42Z</time>
      </trkpt>
      <trkpt lat="39.722580" lon="2.831080">
        <ele>236.048</ele>
        <time>2020-01-28T11:08:02Z</time>
      </trkpt>
      <trkpt lat="39.722780" lon="2.831980">
        <ele>230.061</ele>
        <time>2020-01-28T11:08:22Z</time>
      </trkpt>
      <trkpt lat="39.722810" lon="2.832390">
        <ele>228.017</ele>
        <time>2020-01-28T11:08:42Z</time>
      </trkpt>
      <trkpt lat="39.722810" lon="2.832690">
        <ele>226.008</ele>
        <time>2020-01-28T11:09:02Z</time>
      </trkpt>
      <trkpt lat="39.722860" lon="2.833280">
        <ele>222.038</ele>
        <time>2020-01-28T11:09:22Z</time>
      </trkpt>
      <trkpt lat="39.722840" lon="2.833690">
        <ele>220.059</ele>
        <time>2020-01-28T11:09:42Z</time>
      </trkpt>
      <trkpt lat="39.722870" lon="2.834130">
        <ele>217.073</ele>
        <time>2020-01-28T11:10:02Z</time>
      </trkpt>
      <trkpt lat="39.722860" lon="2.834580">
        <ele>215.090</ele>
        <time>2020-01-28T11:10:22Z</time>
      </trkpt>
      <trkpt lat="39.722820" lon="2.835220">
        <ele>211.035</ele>
        <time>2020-01-28T11:10:42Z</time>
      </trkpt>
      <trkpt lat="39.722860" lon="2.835480">
        <ele>209.061</ele>
        <time>2020-01-28T11:11:02Z</time>
      </trkpt>
      <trkpt lat="39.722900" lon="2.836140">
        <ele>206.059</ele>
        <time>2020-01-28T11:11:22Z</time>
      </trkpt>
      <trkpt lat="39.722890" lon="2.836340">
        <ele>206.032</ele>
        <time>2020-01-28T11:11:42Z</time>
      </trkpt>
      <trkpt lat="39.722850" lon="2.836450">
        <ele>205.085</ele>
        <time>2020-01-28T11:12:02Z</time>
      </trkpt>
      <trkpt lat="39.722740" lon="2.836610">
        <ele>205.089</ele>
        <time>2020-01-28T11:12:22Z</time>
      </trkpt>
      <trkpt lat="39.722500" lon="2.837030">
        <ele>204.017</ele>
        <time>2020-01-28T11:12:42Z</time>
      </trkpt>
      <trkpt lat="39.721710" lon="2.838200">
        <ele>200.008</ele>
        <time>2020-01-28T11:13:02Z</time>
      </trkpt>
      <trkpt lat="39.721630" lon="2.838430">
        <ele>198.052</ele>
        <time>2020-01-28T11:13:22Z</time>
      </trkpt>
      <trkpt lat="39.721490" lon="2.839140">
        <ele>193.043</ele>
        <time>2020-01-28T11:13:42Z</time>
      </trkpt>
      <trkpt lat="39.721290" lon="2.839760">
        <ele>188.057</ele>
        <time>2020-01-28T11:14:02Z</time>
      </trkpt>
      <trkpt lat="39.721140" lon="2.840290">
        <ele>185.054</ele>
        <time>2020-01-28T11:14:22Z</time>
      </trkpt>
      <trkpt lat="39.720960" lon="2.841120">
        <ele>178.069</ele>
        <time>2020-01-28T11:14:42Z</time>
      </trkpt>
      <trkpt lat="39.720860" lon="2.843010">
        <ele>163.085</ele>
        <time>2020-01-28T11:15:02Z</time>
      </trkpt>
      <trkpt lat="39.720830" lon="2.843260">
        <ele>161.053</ele>
        <time>2020-01-28T11:15:22Z</time>
      </trkpt>
      <trkpt lat="39.720770" lon="2.843500">
        <ele>161.036</ele>
        <time>2020-01-28T11:15:42Z</time>
      </trkpt>
      <trkpt lat="39.720520" lon="2.844350">
        <ele>159.023</ele>
        <time>2020-01-28T11:16:02Z</time>
      </trkpt>
      <trkpt lat="39.720320" lon="2.844910">
        <ele>157.083</ele>
        <time>2020-01-28T11:16:22Z</time>
      </trkpt>
      <trkpt lat="39.720280" lon="2.845080">
        <ele>157.011</ele>
        <time>2020-01-28T11:16:42Z</time>
      </trkpt>
      <trkpt lat="39.720370" lon="2.845790">
        <ele>155.008</ele>
        <time>2020-01-28T11:17:02Z</time>
      </trkpt>
      <trkpt lat="39.720440" lon="2.846170">
        <ele>155.046</ele>
        <time>2020-01-28T11:17:22Z</time>
      </trkpt>
      <trkpt lat="39.720490" lon="2.846300">
        <ele>155.057</ele>
        <time>2020-01-28T11:17:42Z</time>
      </trkpt>
      <trkpt lat="39.720560" lon="2.846340">
        <ele>154.091</ele>
        <time>2020-01-28T11:18:02Z</time>
      </trkpt>
      <trkpt lat="39.720930" lon="2.846280">
        <ele>154.098</ele>
        <time>2020-01-28T11:18:22Z</time>
      </trkpt>
      <trkpt lat="39.721150" lon="2.846270">
        <ele>153.053</ele>
        <time>2020-01-28T11:18:42Z</time>
      </trkpt>
      <trkpt lat="39.721260" lon="2.846350">
        <ele>153.019</ele>
        <time>2020-01-28T11:19:02Z</time>
      </trkpt>
      <trkpt lat="39.721620" lon="2.846820">
        <ele>152.067</ele>
        <time>2020-01-28T11:19:22Z</time>
      </trkpt>
      <trkpt lat="39.721720" lon="2.846990">
        <ele>152.010</ele>
        <time>2020-01-28T11:19:42Z</time>
      </trkpt>
      <trkpt lat="39.721740" lon="2.847090">
        <ele>151.054</ele>
        <time>2020-01-28T11:20:02Z</time>
      </trkpt>
      <trkpt lat="39.721720" lon="2.847200">
        <ele>151.056</ele>
        <time>2020-01-28T11:20:22Z</time>
      </trkpt>
      <trkpt lat="39.721640" lon="2.847290">
        <ele>151.011</ele>
        <time>2020-01-28T11:20:42Z</time>
      </trkpt>
      <trkpt lat="39.720140" lon="2.848470">
        <ele>148.008</ele>
        <time>2020-01-28T11:21:02Z</time>
      </trkpt>
      <trkpt lat="39.718680" lon="2.849910">
        <ele>147.039</ele>
        <time>2020-01-28T11:21:22Z</time>
      </trkpt>
      <trkpt lat="39.717850" lon="2.850760">
        <ele>145.040</ele>
        <time>2020-01-28T11:21:42Z</time>
      </trkpt>
      <trkpt lat="39.717660" lon="2.850950">
        <ele>144.024</ele>
        <time>2020-01-28T11:22:02Z</time>
      </trkpt>
      <trkpt lat="39.717430" lon="2.851240">
        <ele>144.091</ele>
        <time>2020-01-28T11:22:22Z</time>
      </trkpt>
      <trkpt lat="39.717300" lon="2.851490">
        <ele>143.046</ele>
        <time>2020-01-28T11:22:42Z</time>
      </trkpt>
      <trkpt lat="39.716710" lon="2.852310">
        <ele>142.082</ele>
        <time>2020-01-28T11:23:02Z</time>
      </trkpt>
      <trkpt lat="39.716610" lon="2.852530">
        <ele>142.030</ele>
        <time>2020-01-28T11:23:22Z</time>
      </trkpt>
      <trkpt lat="39.716520" lon="2.852770">
        <ele>141.033</ele>
        <time>2020-01-28T11:23:42Z</time>
      </trkpt>
      <trkpt lat="39.716480" lon="2.853130">
        <ele>141.056</ele>
        <time>2020-01-28T11:24:02Z</time>
      </trkpt>
      <trkpt lat="39.716460" lon="2.853510">
        <ele>140.059</ele>
        <time>2020-01-28T11:24:22Z</time>
      </trkpt>
      <trkpt lat="39.716610" lon="2.854600">
        <ele>139.014</ele>
        <time>2020-01-28T11:24:42Z</time>
      </trkpt>
      <trkpt lat="39.716560" lon="2.854870">
        <ele>139.008</ele>
        <time>2020-01-28T11:25:02Z</time>
      </trkpt>
      <trkpt lat="39.716340" lon="2.855630">
        <ele>138.089</ele>
        <time>2020-01-28T11:25:22Z</time>
      </trkpt>
      <trkpt lat="39.716280" lon="2.855770">
        <ele>138.050</ele>
        <time>2020-01-28T11:25:42Z</time>
      </trkpt>
      <trkpt lat="39.716170" lon="2.855920">
        <ele>138.034</ele>
        <time>2020-01-28T11:26:02Z</time>
      </trkpt>
      <trkpt lat="39.716010" lon="2.856070">
        <ele>138.031</ele>
        <time>2020-01-28T11:26:22Z</time>
      </trkpt>
      <trkpt lat="39.714930" lon="2.856900">
        <ele>140.016</ele>
        <time>2020-01-28T11:26:42Z</time>
      </trkpt>
      <trkpt lat="39.714940" lon="2.857210">
        <ele>140.092</ele>
        <time>2020-01-28T11:27:02Z</time>
      </trkpt>
      <trkpt lat="39.714990" lon="2.857440">
        <ele>141.090</ele>
        <time>2020-01-28T11:27:22Z</time>
      </trkpt>
      <trkpt lat="39.715060" lon="2.857650">
        <ele>142.073</ele>
        <time>2020-01-28T11:27:42Z</time>
      </trkpt>
      <trkpt lat="39.715560" lon="2.858660">
        <ele>144.021</ele>
        <time>2020-01-28T11:28:02Z</time>
      </trkpt>
      <trkpt lat="39.715660" lon="2.858850">
        <ele>144.041</ele>
        <time>2020-01-28T11:28:22Z</time>
      </trkpt>
      <trkpt lat="39.715770" lon="2.859000">
        <ele>144.005</ele>
        <time>2020-01-28T11:28:42Z</time>
      </trkpt>
      <trkpt lat="39.715890" lon="2.859120">
        <ele>144.008</ele>
        <time>2020-01-28T11:29:02Z</time>
      </trkpt>
      <trkpt lat="39.716000" lon="2.859180">
        <ele>144.056</ele>
        <time>2020-01-28T11:29:22Z</time>
      </trkpt>
      <trkpt lat="39.716100" lon="2.859280">
        <ele>144.037</ele>
        <time>2020-01-28T11:29:42Z</time>
      </trkpt>
      <trkpt lat="39.716470" lon="2.859860">
        <ele>144.081</ele>
        <time>2020-01-28T11:30:02Z</time>
      </trkpt>
      <trkpt lat="39.716380" lon="2.860900">
        <ele>143.048</ele>
        <time>2020-01-28T11:30:22Z</time>
      </trkpt>
      <trkpt lat="39.716160" lon="2.864480">
        <ele>148.053</ele>
        <time>2020-01-28T11:30:42Z</time>
      </trkpt>
      <trkpt lat="39.716150" lon="2.864770">
        <ele>150.029</ele>
        <time>2020-01-28T11:31:02Z</time>
      </trkpt>
      <trkpt lat="39.716180" lon="2.864930">
        <ele>150.077</ele>
        <time>2020-01-28T11:31:22Z</time>
      </trkpt>
      <trkpt lat="39.716930" lon="2.864580">
        <ele>154.050</ele>
        <time>2020-01-28T11:31:42Z</time>
      </trkpt>
      <trkpt lat="39.717000" lon="2.864630">
        <ele>154.037</ele>
        <time>2020-01-28T11:32:02Z</time>
      </trkpt>
      <trkpt lat="39.717060" lon="2.864840">
        <ele>153.049</ele>
        <time>2020-01-28T11:32:22Z</time>
      </trkpt>
      <trkpt lat="39.717170" lon="2.864850">
        <ele>153.013</ele>
        <time>2020-01-28T11:32:42Z</time>
      </trkpt>
      <trkpt lat="39.717310" lon="2.865350">
        <ele>152.008</ele>
        <time>2020-01-28T11:33:02Z</time>
      </trkpt>
      <trkpt lat="39.717530" lon="2.865240">
        <ele>152.057</ele>
        <time>2020-01-28T11:33:22Z</time>
      </trkpt>
      <trkpt lat="39.717520" lon="2.865180">
        <ele>151.038</ele>
        <time>2020-01-28T11:33:42Z</time>
      </trkpt>
      <trkpt lat="39.717530" lon="2.865170">
        <ele>151.072</ele>
        <time>2020-01-28T11:34:02Z</time>
      </trkpt>
      <trkpt lat="39.718160" lon="2.867540">
        <ele>158.069</ele>
        <time>2020-01-28T11:34:22Z</time>
      </trkpt>
      <trkpt lat="39.718400" lon="2.867360">
        <ele>160.014</ele>
        <time>2020-01-28T11:34:42Z</time>
      </trkpt>
      <trkpt lat="39.718620" lon="2.867710">
        <ele>163.040</ele>
        <time>2020-01-28T11:35:02Z</time>
      </trkpt>
      <trkpt lat="39.718640" lon="2.867710">
        <ele>163.078</ele>
        <time>2020-01-28T11:35:22Z</time>
      </trkpt>
      <trkpt lat="39.718410" lon="2.867360">
        <ele>164.041</ele>
        <time>2020-01-28T11:35:42Z</time>
      </trkpt>
      <trkpt lat="39.718660" lon="2.867180">
        <ele>164.066</ele>
        <time>2020-01-28T11:36:02Z</time>
      </trkpt>
      <trkpt lat="39.718800" lon="2.866640">
        <ele>164.029</ele>
        <time>2020-01-28T11:36:22Z</time>
      </trkpt>
      <trkpt lat="39.718910" lon="2.866360">
        <ele>164.021</ele>
        <time>2020-01-28T11:36:42Z</time>
      </trkpt>
      <trkpt lat="39.719320" lon="2.866960">
        <ele>164.008</ele>
        <time>2020-01-28T11:37:02Z</time>
      </trkpt>
      <trkpt lat="39.719620" lon="2.866720">
        <ele>164.080</ele>
        <time>2020-01-28T11:37:22Z</time>
      </trkpt>
      <trkpt lat="39.719770" lon="2.866860">
        <ele>164.091</ele>
        <time>2020-01-28T11:37:42Z</time>
      </trkpt>
      <trkpt lat="39.719900" lon="2.867010">
        <ele>164.065</ele>
        <time>2020-01-28T11:38:02Z</time>
      </trkpt>
      <trkpt lat="39.720180" lon="2.866980">
        <ele>164.042</ele>
        <time>2020-01-28T11:38:22Z</time>
      </trkpt>
      <trkpt lat="39.720330" lon="2.866980">
        <ele>164.017</ele>
        <time>2020-01-28T11:38:42Z</time>
      </trkpt>
      <trkpt lat="39.720380" lon="2.866830">
        <ele>164.093</ele>
        <time>2020-01-28T11:39:02Z</time>
      </trkpt>
      <trkpt lat="39.720840" lon="2.866660">
        <ele>164.051</ele>
        <time>2020-01-28T11:39:22Z</time>
      </trkpt>
      <trkpt lat="39.721220" lon="2.866610">
        <ele>164.044</ele>
        <time>2020-01-28T11:39:42Z</time>
      </trkpt>
      <trkpt lat="39.721430" lon="2.866640">
        <ele>163.083</ele>
        <time>2020-01-28T11:40:02Z</time>
      </trkpt>
      <trkpt lat="39.721630" lon="2.866890">
        <ele>163.025</ele>
        <time>2020-01-28T11:40:22Z</time>
      </trkpt>
      <trkpt lat="39.721750" lon="2.867080">
        <ele>163.017</ele>
        <time>2020-01-28T11:40:42Z</time>
      </trkpt>
      <trkpt lat="39.722050" lon="2.867510">
        <ele>163.008</ele>
        <time>2020-01-28T11:41:02Z</time>
      </trkpt>
      <trkpt lat="39.722880" lon="2.868980">
        <ele>164.012</ele>
        <time>2020-01-28T11:41:22Z</time>
      </trkpt>
      <trkpt lat="39.723490" lon="2.870010">
        <ele>168.093</ele>
        <time>2020-01-28T11:41:42Z</time>
      </trkpt>
      <trkpt lat="39.723290" lon="2.870190">
        <ele>169.067</ele>
        <time>2020-01-28T11:42:02Z</time>
      </trkpt>
      <trkpt lat="39.723290" lon="2.870280">
        <ele>169.054</ele>
        <time>2020-01-28T11:42:22Z</time>
      </trkpt>
      <trkpt lat="39.723460" lon="2.870190">
        <ele>170.049</ele>
        <time>2020-01-28T11:42:42Z</time>
      </trkpt>
      <trkpt lat="39.726380" lon="2.870090">
        <ele>182.025</ele>
        <time>2020-01-28T11:43:02Z</time>
      </trkpt>
      <trkpt lat="39.727590" lon="2.870370">
        <ele>184.093</ele>
        <time>2020-01-28T11:43:22Z</time>
      </trkpt>
      <trkpt lat="39.727960" lon="2.870400">
        <ele>185.056</ele>
        <time>2020-01-28T11:43:42Z</time>
      </trkpt>
      <trkpt lat="39.728810" lon="2.870030">
        <ele>188.061</ele>
        <time>2020-01-28T11:44:02Z</time>
      </trkpt>
      <trkpt lat="39.729120" lon="2.870090">
        <ele>189.021</ele>
        <time>2020-01-28T11:44:22Z</time>
      </trkpt>
      <trkpt lat="39.730000" lon="2.870700">
        <ele>190.013</ele>
        <time>2020-01-28T11:44:42Z</time>
      </trkpt>
      <trkpt lat="39.730690" lon="2.871540">
        <ele>187.008</ele>
        <time>2020-01-28T11:45:02Z</time>
      </trkpt>
      <trkpt lat="39.730810" lon="2.871860">
        <ele>187.040</ele>
        <time>2020-01-28T11:45:22Z</time>
      </trkpt>
      <trkpt lat="39.731160" lon="2.872220">
        <ele>186.051</ele>
        <time>2020-01-28T11:45:42Z</time>
      </trkpt>
      <trkpt lat="39.731460" lon="2.872560">
        <ele>186.025</ele>
        <time>2020-01-28T11:46:02Z</time>
      </trkpt>
      <trkpt lat="39.731760" lon="2.872970">
        <ele>186.042</ele>
        <time>2020-01-28T11:46:22Z</time>
      </trkpt>
      <trkpt lat="39.732330" lon="2.873810">
        <ele>187.027</ele>
        <time>2020-01-28T11:46:42Z</time>
      </trkpt>
      <trkpt lat="39.732580" lon="2.874220">
        <ele>187.013</ele>
        <time>2020-01-28T11:47:02Z</time>
      </trkpt>
      <trkpt lat="39.732750" lon="2.874620">
        <ele>186.051</ele>
        <time>2020-01-28T11:47:22Z</time>
      </trkpt>
      <trkpt lat="39.733070" lon="2.875480">
        <ele>183.024</ele>
        <time>2020-01-28T11:47:42Z</time>
      </trkpt>
      <trkpt lat="39.733140" lon="2.876130">
        <ele>181.091</ele>
        <time>2020-01-28T11:48:02Z</time>
      </trkpt>
      <trkpt lat="39.733330" lon="2.877200">
        <ele>179.081</ele>
        <time>2020-01-28T11:48:22Z</time>
      </trkpt>
      <trkpt lat="39.733360" lon="2.877620">
        <ele>178.019</ele>
        <time>2020-01-28T11:48:42Z</time>
      </trkpt>
      <trkpt lat="39.733370" lon="2.878480">
        <ele>177.008</ele>
        <time>2020-01-28T11:49:02Z</time>
      </trkpt>
      <trkpt lat="39.733390" lon="2.878690">
        <ele>177.083</ele>
        <time>2020-01-28T11:49:22Z</time>
      </trkpt>
      <trkpt lat="39.733490" lon="2.878970">
        <ele>177.014</ele>
        <time>2020-01-28T11:49:42Z</time>
      </trkpt>
      <trkpt lat="39.735290" lon="2.881230">
        <ele>171.068</ele>
        <time>2020-01-28T11:50:02Z</time>
      </trkpt>
      <trkpt lat="39.735530" lon="2.881570">
        <ele>170.085</ele>
        <time>2020-01-28T11:50:22Z</time>
      </trkpt>
      <trkpt lat="39.735700" lon="2.881910">
        <ele>169.070</ele>
        <time>2020-01-28T11:50:42Z</time>
      </trkpt>
      <trkpt lat="39.735890" lon="2.882520">
        <ele>168.066</ele>
        <time>2020-01-28T11:51:02Z</time>
      </trkpt>
      <trkpt lat="39.736100" lon="2.882980">
        <ele>167.014</ele>
        <time>2020-01-28T11:51:22Z</time>
      </trkpt>
      <trkpt lat="39.736210" lon="2.883130">
        <ele>166.037</ele>
        <time>2020-01-28T11:51:42Z</time>
      </trkpt>
      <trkpt lat="39.736420" lon="2.883340">
        <ele>166.079</ele>
        <time>2020-01-28T11:52:02Z</time>
      </trkpt>
      <trkpt lat="39.737750" lon="2.884450">
        <ele>166.005</ele>
        <time>2020-01-28T11:52:22Z</time>
      </trkpt>
      <trkpt lat="39.738700" lon="2.885220">
        <ele>164.025</ele>
        <time>2020-01-28T11:52:42Z</time>
      </trkpt>
      <trkpt lat="39.739140" lon="2.885600">
        <ele>163.008</ele>
        <time>2020-01-28T11:53:02Z</time>
      </trkpt>
      <trkpt lat="39.739220" lon="2.885680">
        <ele>163.011</ele>
        <time>2020-01-28T11:53:22Z</time>
      </trkpt>
      <trkpt lat="39.739240" lon="2.885720">
        <ele>163.012</ele>
        <time>2020-01-28T11:53:42Z</time>
      </trkpt>
      <trkpt lat="39.739360" lon="2.885770">
        <ele>163.016</ele>
        <time>2020-01-28T11:54:02Z</time>
      </trkpt>
      <trkpt lat="39.740300" lon="2.884930">
        <ele>164.093</ele>
        <time>2020-01-28T11:54:22Z</time>
      </trkpt>
      <trkpt lat="39.741130" lon="2.884830">
        <ele>166.038</ele>
        <time>2020-01-28T11:54:42Z</time>
      </trkpt>
      <trkpt lat="39.741980" lon="2.884050">
        <ele>167.024</ele>
        <time>2020-01-28T11:55:02Z</time>
      </trkpt>
      <trkpt lat="39.742490" lon="2.883320">
        <ele>168.092</ele>
        <time>2020-01-28T11:55:22Z</time>
      </trkpt>
      <trkpt lat="39.742810" lon="2.882930">
        <ele>168.025</ele>
        <time>2020-01-28T11:55:42Z</time>
      </trkpt>
      <trkpt lat="39.743170" lon="2.882620">
        <ele>170.034</ele>
        <time>2020-01-28T11:56:02Z</time>
      </trkpt>
      <trkpt lat="39.743680" lon="2.882500">
        <ele>172.055</ele>
        <time>2020-01-28T11:56:22Z</time>
      </trkpt>
      <trkpt lat="39.743960" lon="2.882320">
        <ele>174.010</ele>
        <time>2020-01-28T11:56:42Z</time>
      </trkpt>
      <trkpt lat="39.746130" lon="2.881450">
        <ele>180.008</ele>
        <time>2020-01-28T11:57:02Z</time>
      </trkpt>
      <trkpt lat="39.746400" lon="2.881250">
        <ele>180.017</ele>
        <time>2020-01-28T11:57:22Z</time>
      </trkpt>
      <trkpt lat="39.746900" lon="2.880700">
        <ele>181.098</ele>
        <time>2020-01-28T11:57:42Z</time>
      </trkpt>
      <trkpt lat="39.747710" lon="2.879680">
        <ele>182.022</ele>
        <time>2020-01-28T11:58:02Z</time>
      </trkpt>
      <trkpt lat="39.748290" lon="2.879270">
        <ele>183.029</ele>
        <time>2020-01-28T11:58:22Z</time>
      </trkpt>
      <trkpt lat="39.748660" lon="2.878620">
        <ele>187.054</ele>
        <time>2020-01-28T11:58:42Z</time>
      </trkpt>
      <trkpt lat="39.748710" lon="2.878620">
        <ele>187.030</ele>
        <time>2020-01-28T11:59:02Z</time>
      </trkpt>
      <trkpt lat="39.748750" lon="2.878570">
        <ele>188.058</ele>
        <time>2020-01-28T11:59:22Z</time>
      </trkpt>
      <trkpt lat="39.748730" lon="2.878480">
        <ele>188.081</ele>
        <time>2020-01-28T11:59:42Z</time>
      </trkpt>
      <trkpt lat="39.748820" lon="2.878260">
        <ele>189.033</ele>
        <time>2020-01-28T12:00:02Z</time>
      </trkpt>
      <trkpt lat="39.749330" lon="2.876060">
        <ele>198.023</ele>
        <time>2020-01-28T12:00:22Z</time>
      </trkpt>
      <trkpt lat="39.749360" lon="2.875300">
        <ele>200.015</ele>
        <time>2020-01-28T12:00:42Z</time>
      </trkpt>
      <trkpt lat="39.749500" lon="2.874760">
        <ele>202.008</ele>
        <time>2020-01-28T12:01:02Z</time>
      </trkpt>
      <trkpt lat="39.750500" lon="2.873660">
        <ele>203.057</ele>
        <time>2020-01-28T12:01:22Z</time>
      </trkpt>
      <trkpt lat="39.750870" lon="2.874370">
        <ele>203.058</ele>
        <time>2020-01-28T12:01:42Z</time>
      </trkpt>
      <trkpt lat="39.751170" lon="2.874040">
        <ele>203.082</ele>
        <time>2020-01-28T12:02:02Z</time>
      </trkpt>
      <trkpt lat="39.751620" lon="2.874430">
        <ele>201.019</ele>
        <time>2020-01-28T12:02:22Z</time>
      </trkpt>
      <trkpt lat="39.751840" lon="2.874550">
        <ele>200.054</ele>
        <time>2020-01-28T12:02:42Z</time>
      </trkpt>
      <trkpt lat="39.752020" lon="2.874730">
        <ele>199.070</ele>
        <time>2020-01-28T12:03:02Z</time>
      </trkpt>
      <trkpt lat="39.752490" lon="2.875370">
        <ele>196.048</ele>
        <time>2020-01-28T12:03:22Z</time>
      </trkpt>
      <trkpt lat="39.752850" lon="2.875940">
        <ele>195.081</ele>
        <time>2020-01-28T12:03:42Z</time>
      </trkpt>
      <trkpt lat="39.753250" lon="2.876410">
        <ele>194.038</ele>
        <time>2020-01-28T12:04:02Z</time>
      </trkpt>
      <trkpt lat="39.753450" lon="2.876520">
        <ele>194.070</ele>
        <time>2020-01-28T12:04:22Z</time>
      </trkpt>
      <trkpt lat="39.753960" lon="2.876570">
        <ele>193.017</ele>
        <time>2020-01-28T12:04:42Z</time>
      </trkpt>
      <trkpt lat="39.755230" lon="2.876780">
        <ele>192.008</ele>
        <time>2020-01-28T12:05:02Z</time>
      </trkpt>
      <trkpt lat="39.756920" lon="2.876860">
        <ele>192.047</ele>
        <time>2020-01-28T12:05:22Z</time>
      </trkpt>
      <trkpt lat="39.758260" lon="2.876810">
        <ele>194.058</ele>
        <time>2020-01-28T12:05:42Z</time>
      </trkpt>
      <trkpt lat="39.758520" lon="2.876800">
        <ele>195.062</ele>
        <time>2020-01-28T12:06:02Z</time>
      </trkpt>
      <trkpt lat="39.758830" lon="2.876740">
        <ele>195.079</ele>
        <time>2020-01-28T12:06:22Z</time>
      </trkpt>
      <trkpt lat="39.760270" lon="2.876190">
        <ele>196.064</ele>
        <time>2020-01-28T12:06:42Z</time>
      </trkpt>
      <trkpt lat="39.760330" lon="2.876230">
        <ele>197.090</ele>
        <time>2020-01-28T12:07:02Z</time>
      </trkpt>
      <trkpt lat="39.760450" lon="2.876450">
        <ele>197.058</ele>
        <time>2020-01-28T12:07:22Z</time>
      </trkpt>
      <trkpt lat="39.760660" lon="2.876760">
        <ele>198.051</ele>
        <time>2020-01-28T12:07:42Z</time>
      </trkpt>
      <trkpt lat="39.760770" lon="2.877050">
        <ele>198.047</ele>
        <time>2020-01-28T12:08:02Z</time>
      </trkpt>
      <trkpt lat="39.760890" lon="2.877650">
        <ele>200.029</ele>
        <time>2020-01-28T12:08:22Z</time>
      </trkpt>
      <trkpt lat="39.760930" lon="2.877960">
        <ele>200.021</ele>
        <time>2020-01-28T12:08:42Z</time>
      </trkpt>
      <trkpt lat="39.761030" lon="2.878380">
        <ele>201.008</ele>
        <time>2020-01-28T12:09:02Z</time>
      </trkpt>
      <trkpt lat="39.761430" lon="2.879790">
        <ele>204.098</ele>
        <time>2020-01-28T12:09:22Z</time>
      </trkpt>
      <trkpt lat="39.761420" lon="2.879790">
        <ele>204.039</ele>
        <time>2020-01-28T12:09:42Z</time>
      </trkpt>
      <trkpt lat="39.761840" lon="2.881230">
        <ele>206.093</ele>
        <time>2020-01-28T12:10:02Z</time>
      </trkpt>
      <trkpt lat="39.761910" lon="2.881380">
        <ele>205.060</ele>
        <time>2020-01-28T12:10:22Z</time>
      </trkpt>
      <trkpt lat="39.762110" lon="2.881690">
        <ele>203.025</ele>
        <time>2020-01-28T12:10:42Z</time>
      </trkpt>
      <trkpt lat="39.762180" lon="2.881860">
        <ele>202.081</ele>
        <time>2020-01-28T12:11:02Z</time>
      </trkpt>
      <trkpt lat="39.762280" lon="2.882720">
        <ele>198.039</ele>
        <time>2020-01-28T12:11:22Z</time>
      </trkpt>
      <trkpt lat="39.762370" lon="2.883310">
        <ele>195.032</ele>
        <time>2020-01-28T12:11:42Z</time>
      </trkpt>
      <trkpt lat="39.762430" lon="2.884000">
        <ele>194.092</ele>
        <time>2020-01-28T12:12:02Z</time>
      </trkpt>
      <trkpt lat="39.762550" lon="2.884640">
        <ele>194.073</ele>
        <time>2020-01-28T12:12:22Z</time>
      </trkpt>
      <trkpt lat="39.762550" lon="2.885960">
        <ele>193.020</ele>
        <time>2020-01-28T12:12:42Z</time>
      </trkpt>
      <trkpt lat="39.762560" lon="2.886330">
        <ele>192.008</ele>
        <time>2020-01-28T12:13:02Z</time>
      </trkpt>
      <trkpt lat="39.762620" lon="2.886670">
        <ele>191.073</ele>
        <time>2020-01-28T12:13:22Z</time>
      </trkpt>
      <trkpt lat="39.762580" lon="2.887630">
        <ele>190.034</ele>
        <time>2020-01-28T12:13:42Z</time>
      </trkpt>
      <trkpt lat="39.762570" lon="2.888530">
        <ele>188.068</ele>
        <time>2020-01-28T12:14:02Z</time>
      </trkpt>
      <trkpt lat="39.762670" lon="2.889520">
        <ele>185.095</ele>
        <time>2020-01-28T12:14:22Z</time>
      </trkpt>
      <trkpt lat="39.762720" lon="2.890380">
        <ele>181.040</ele>
        <time>2020-01-28T12:14:42Z</time>
      </trkpt>
      <trkpt lat="39.762900" lon="2.891170">
        <ele>178.086</ele>
        <time>2020-01-28T12:15:02Z</time>
      </trkpt>
      <trkpt lat="39.763020" lon="2.892080">
        <ele>176.044</ele>
        <time>2020-01-28T12:15:22Z</time>
      </trkpt>
      <trkpt lat="39.763190" lon="2.892850">
        <ele>175.097</ele>
        <time>2020-01-28T12:15:42Z</time>
      </trkpt>
      <trkpt lat="39.763420" lon="2.893450">
        <ele>173.011</ele>
        <time>2020-01-28T12:16:02Z</time>
      </trkpt>
      <trkpt lat="39.763880" lon="2.894440">
        <ele>171.021</ele>
        <time>2020-01-28T12:16:22Z</time>
      </trkpt>
      <trkpt lat="39.764140" lon="2.895260">
        <ele>170.003</ele>
        <time>2020-01-28T12:16:42Z</time>
      </trkpt>
      <trkpt lat="39.764270" lon="2.895550">
        <ele>170.008</ele>
        <time>2020-01-28T12:17:02Z</time>
      </trkpt>
      <trkpt lat="39.764410" lon="2.895720">
        <ele>169.065</ele>
        <time>2020-01-28T12:17:22Z</time>
      </trkpt>
      <trkpt lat="39.764940" lon="2.896060">
        <ele>167.066</ele>
        <time>2020-01-28T12:17:42Z</time>
      </trkpt>
      <trkpt lat="39.765150" lon="2.896300">
        <ele>166.010</ele>
        <time>2020-01-28T12:18:02Z</time>
      </trkpt>
      <trkpt lat="39.765420" lon="2.896770">
        <ele>164.017</ele>
        <time>2020-01-28T12:18:22Z</time>
      </trkpt>
      <trkpt lat="39.765720" lon="2.897130">
        <ele>162.072</ele>
        <time>2020-01-28T12:18:42Z</time>
      </trkpt>
      <trkpt lat="39.765840" lon="2.897430">
        <ele>160.048</ele>
        <time>2020-01-28T12:19:02Z</time>
      </trkpt>
      <trkpt lat="39.765990" lon="2.898150">
        <ele>159.056</ele>
        <time>2020-01-28T12:19:22Z</time>
      </trkpt>
      <trkpt lat="39.766230" lon="2.898830">
        <ele>159.059</ele>
        <time>2020-01-28T12:19:42Z</time>
      </trkpt>
      <trkpt lat="39.766400" lon="2.899400">
        <ele>159.068</ele>
        <time>2020-01-28T12:20:02Z</time>
      </trkpt>
      <trkpt lat="39.766530" lon="2.899650">
        <ele>159.042</ele>
        <time>2020-01-28T12:20:22Z</time>
      </trkpt>
      <trkpt lat="39.767120" lon="2.900370">
        <ele>160.026</ele>
        <time>2020-01-28T12:20:42Z</time>
      </trkpt>
      <trkpt lat="39.767170" lon="2.900550">
        <ele>160.008</ele>
        <time>2020-01-28T12:21:02Z</time>
      </trkpt>
      <trkpt lat="39.767440" lon="2.901040">
        <ele>161.020</ele>
        <time>2020-01-28T12:21:22Z</time>
      </trkpt>
      <trkpt lat="39.767680" lon="2.901230">
        <ele>162.051</ele>
        <time>2020-01-28T12:21:42Z</time>
      </trkpt>
      <trkpt lat="39.768030" lon="2.901440">
        <ele>163.075</ele>
        <time>2020-01-28T12:22:02Z</time>
      </trkpt>
      <trkpt lat="39.768260" lon="2.901590">
        <ele>163.072</ele>
        <time>2020-01-28T12:22:22Z</time>
      </trkpt>
      <trkpt lat="39.768760" lon="2.902110">
        <ele>166.027</ele>
        <time>2020-01-28T12:22:42Z</time>
      </trkpt>
      <trkpt lat="39.768800" lon="2.902240">
        <ele>166.073</ele>
        <time>2020-01-28T12:23:02Z</time>
      </trkpt>
      <trkpt lat="39.768960" lon="2.902240">
        <ele>167.071</ele>
        <time>2020-01-28T12:23:22Z</time>
      </trkpt>
      <trkpt lat="39.769540" lon="2.902120">
        <ele>171.014</ele>
        <time>2020-01-28T12:23:42Z</time>
      </trkpt>
      <trkpt lat="39.769750" lon="2.902100">
        <ele>172.054</ele>
        <time>2020-01-28T12:24:02Z</time>
      </trkpt>
      <trkpt lat="39.769920" lon="2.902140">
        <ele>173.056</ele>
        <time>2020-01-28T12:24:22Z</time>
      </trkpt>
      <trkpt lat="39.770150" lon="2.902220">
        <ele>175.011</ele>
        <time>2020-01-28T12:24:42Z</time>
      </trkpt>
      <trkpt lat="39.770630" lon="2.901950">
        <ele>177.008</ele>
        <time>2020-01-28T12:25:02Z</time>
      </trkpt>
      <trkpt lat="39.770630" lon="2.901960">
        <ele>177.019</ele>
        <time>2020-01-28T12:25:22Z</time>
      </trkpt>
      <trkpt lat="39.771080" lon="2.901710">
        <ele>179.040</ele>
        <time>2020-01-28T12:25:42Z</time>
      </trkpt>
      <trkpt lat="39.771310" lon="2.901520">
        <ele>180.054</ele>
        <time>2020-01-28T12:26:02Z</time>
      </trkpt>
      <trkpt lat="39.771400" lon="2.901430">
        <ele>180.081</ele>
        <time>2020-01-28T12:26:22Z</time>
      </trkpt>
      <trkpt lat="39.771640" lon="2.901100">
        <ele>182.096</ele>
        <time>2020-01-28T12:26:42Z</time>
      </trkpt>
      <trkpt lat="39.771880" lon="2.900620">
        <ele>184.072</ele>
        <time>2020-01-28T12:27:02Z</time>
      </trkpt>
      <trkpt lat="39.772210" lon="2.899780">
        <ele>189.080</ele>
        <time>2020-01-28T12:27:22Z</time>
      </trkpt>
      <trkpt lat="39.772420" lon="2.899130">
        <ele>194.073</ele>
        <time>2020-01-28T12:27:42Z</time>
      </trkpt>
      <trkpt lat="39.772470" lon="2.899010">
        <ele>194.072</ele>
        <time>2020-01-28T12:28:02Z</time>
      </trkpt>
      <trkpt lat="39.772690" lon="2.898780">
        <ele>197.013</ele>
        <time>2020-01-28T12:28:22Z</time>
      </trkpt>
      <trkpt lat="39.772940" lon="2.898550">
        <ele>199.014</ele>
        <time>2020-01-28T12:28:42Z</time>
      </trkpt>
      <trkpt lat="39.773170" lon="2.898340">
        <ele>201.008</ele>
        <time>2020-01-28T12:29:02Z</time>
      </trkpt>
      <trkpt lat="39.773680" lon="2.898060">
        <ele>205.021</ele>
        <time>2020-01-28T12:29:22Z</time>
      </trkpt>
      <trkpt lat="39.774010" lon="2.897940">
        <ele>208.052</ele>
        <time>2020-01-28T12:29:42Z</time>
      </trkpt>
      <trkpt lat="39.774210" lon="2.897920">
        <ele>209.016</ele>
        <time>2020-01-28T12:30:02Z</time>
      </trkpt>
      <trkpt lat="39.774450" lon="2.897930">
        <ele>211.013</ele>
        <time>2020-01-28T12:30:22Z</time>
      </trkpt>
      <trkpt lat="39.774830" lon="2.897990">
        <ele>214.068</ele>
        <time>2020-01-28T12:30:42Z</time>
      </trkpt>
      <trkpt lat="39.775060" lon="2.898060">
        <ele>216.094</ele>
        <time>2020-01-28T12:31:02Z</time>
      </trkpt>
      <trkpt lat="39.775290" lon="2.898060">
        <ele>218.052</ele>
        <time>2020-01-28T12:31:22Z</time>
      </trkpt>
      <trkpt lat="39.775490" lon="2.898020">
        <ele>219.065</ele>
        <time>2020-01-28T12:31:42Z</time>
      </trkpt>
      <trkpt lat="39.775600" lon="2.897980">
        <ele>220.058</ele>
        <time>2020-01-28T12:32:02Z</time>
      </trkpt>
      <trkpt lat="39.775920" lon="2.897690">
        <ele>224.052</ele>
        <time>2020-01-28T12:32:22Z</time>
      </trkpt>
      <trkpt lat="39.775980" lon="2.897690">
        <ele>224.017</ele>
        <time>2020-01-28T12:32:42Z</time>
      </trkpt>
      <trkpt lat="39.776030" lon="2.897730">
        <ele>225.008</ele>
        <time>2020-01-28T12:33:02Z</time>
      </trkpt>
      <trkpt lat="39.776050" lon="2.897780">
        <ele>225.049</ele>
        <time>2020-01-28T12:33:22Z</time>
      </trkpt>
      <trkpt lat="39.776040" lon="2.897830">
        <ele>225.090</ele>
        <time>2020-01-28T12:33:42Z</time>
      </trkpt>
      <trkpt lat="39.776020" lon="2.897880">
        <ele>226.054</ele>
        <time>2020-01-28T12:34:02Z</time>
      </trkpt>
      <trkpt lat="39.775840" lon="2.897990">
        <ele>227.081</ele>
        <time>2020-01-28T12:34:22Z</time>
      </trkpt>
      <trkpt lat="39.775430" lon="2.898170">
        <ele>231.086</ele>
        <time>2020-01-28T12:34:42Z</time>
      </trkpt>
      <trkpt lat="39.775030" lon="2.898260">
        <ele>235.062</ele>
        <time>2020-01-28T12:35:02Z</time>
      </trkpt>
      <trkpt lat="39.774990" lon="2.898290">
        <ele>235.020</ele>
        <time>2020-01-28T12:35:22Z</time>
      </trkpt>
      <trkpt lat="39.774970" lon="2.898350">
        <ele>236.053</ele>
        <time>2020-01-28T12:35:42Z</time>
      </trkpt>
      <trkpt lat="39.775000" lon="2.898440">
        <ele>237.084</ele>
        <time>2020-01-28T12:36:02Z</time>
      </trkpt>
      <trkpt lat="39.775050" lon="2.898460">
        <ele>237.007</ele>
        <time>2020-01-28T12:36:22Z</time>
      </trkpt>
      <trkpt lat="39.775220" lon="2.898430">
        <ele>239.017</ele>
        <time>2020-01-28T12:36:42Z</time>
      </trkpt>
      <trkpt lat="39.775360" lon="2.898340">
        <ele>240.008</ele>
        <time>2020-01-28T12:37:02Z</time>
      </trkpt>
      <trkpt lat="39.775650" lon="2.898300">
        <ele>243.042</ele>
        <time>2020-01-28T12:37:22Z</time>
      </trkpt>
      <trkpt lat="39.775740" lon="2.898260">
        <ele>244.053</ele>
        <time>2020-01-28T12:37:42Z</time>
      </trkpt>
      <trkpt lat="39.776050" lon="2.898050">
        <ele>248.017</ele>
        <time>2020-01-28T12:38:02Z</time>
      </trkpt>
      <trkpt lat="39.776290" lon="2.897940">
        <ele>250.014</ele>
        <time>2020-01-28T12:38:22Z</time>
      </trkpt>
      <trkpt lat="39.776430" lon="2.897910">
        <ele>251.089</ele>
        <time>2020-01-28T12:38:42Z</time>
      </trkpt>
      <trkpt lat="39.776720" lon="2.897930">
        <ele>253.035</ele>
        <time>2020-01-28T12:39:02Z</time>
      </trkpt>
      <trkpt lat="39.776990" lon="2.898030">
        <ele>255.063</ele>
        <time>2020-01-28T12:39:22Z</time>
      </trkpt>
      <trkpt lat="39.777550" lon="2.898300">
        <ele>258.036</ele>
        <time>2020-01-28T12:39:42Z</time>
      </trkpt>
      <trkpt lat="39.777620" lon="2.898300">
        <ele>259.044</ele>
        <time>2020-01-28T12:40:02Z</time>
      </trkpt>
      <trkpt lat="39.778470" lon="2.898100">
        <ele>264.005</ele>
        <time>2020-01-28T12:40:22Z</time>
      </trkpt>
      <trkpt lat="39.778520" lon="2.898120">
        <ele>264.015</ele>
        <time>2020-01-28T12:40:42Z</time>
      </trkpt>
      <trkpt lat="39.778540" lon="2.898180">
        <ele>265.008</ele>
        <time>2020-01-28T12:41:02Z</time>
      </trkpt>
      <trkpt lat="39.778540" lon="2.898240">
        <ele>265.068</ele>
        <time>2020-01-28T12:41:22Z</time>
      </trkpt>
      <trkpt lat="39.778500" lon="2.898300">
        <ele>265.019</ele>
        <time>2020-01-28T12:41:42Z</time>
      </trkpt>
      <trkpt lat="39.778430" lon="2.898340">
        <ele>266.073</ele>
        <time>2020-01-28T12:42:02Z</time>
      </trkpt>
      <trkpt lat="39.777780" lon="2.898540">
        <ele>270.080</ele>
        <time>2020-01-28T12:42:22Z</time>
      </trkpt>
      <trkpt lat="39.777530" lon="2.898550">
        <ele>271.055</ele>
        <time>2020-01-28T12:42:42Z</time>
      </trkpt>
      <trkpt lat="39.777270" lon="2.898490">
        <ele>273.031</ele>
        <time>2020-01-28T12:43:02Z</time>
      </trkpt>
      <trkpt lat="39.777030" lon="2.898390">
        <ele>274.079</ele>
        <time>2020-01-28T12:43:22Z</time>
      </trkpt>
      <trkpt lat="39.776890" lon="2.898360">
        <ele>275.012</ele>
        <time>2020-01-28T12:43:42Z</time>
      </trkpt>
      <trkpt lat="39.776840" lon="2.898380">
        <ele>275.064</ele>
        <time>2020-01-28T12:44:02Z</time>
      </trkpt>
      <trkpt lat="39.776810" lon="2.898420">
        <ele>276.006</ele>
        <time>2020-01-28T12:44:22Z</time>
      </trkpt>
      <trkpt lat="39.776810" lon="2.898470">
        <ele>276.016</ele>
        <time>2020-01-28T12:44:42Z</time>
      </trkpt>
      <trkpt lat="39.776830" lon="2.898530">
        <ele>276.008</ele>
        <time>2020-01-28T12:45:02Z</time>
      </trkpt>
      <trkpt lat="39.776880" lon="2.898570">
        <ele>276.030</ele>
        <time>2020-01-28T12:45:22Z</time>
      </trkpt>
      <trkpt lat="39.777370" lon="2.898770">
        <ele>278.061</ele>
        <time>2020-01-28T12:45:42Z</time>
      </trkpt>
      <trkpt lat="39.777490" lon="2.898800">
        <ele>278.075</ele>
        <time>2020-01-28T12:46:02Z</time>
      </trkpt>
      <trkpt lat="39.777660" lon="2.898810">
        <ele>279.082</ele>
        <time>2020-01-28T12:46:22Z</time>
      </trkpt>
      <trkpt lat="39.778080" lon="2.898790">
        <ele>280.077</ele>
        <time>2020-01-28T12:46:42Z</time>
      </trkpt>
      <trkpt lat="39.778260" lon="2.898740">
        <ele>281.023</ele>
        <time>2020-01-28T12:47:02Z</time>
      </trkpt>
      <trkpt lat="39.778820" lon="2.898430">
        <ele>283.081</ele>
        <time>2020-01-28T12:47:22Z</time>
      </trkpt>
      <trkpt lat="39.779450" lon="2.898280">
        <ele>286.024</ele>
        <time>2020-01-28T12:47:42Z</time>
      </trkpt>
      <trkpt lat="39.780420" lon="2.897720">
        <ele>290.039</ele>
        <time>2020-01-28T12:48:02Z</time>
      </trkpt>
      <trkpt lat="39.781150" lon="2.896790">
        <ele>298.001</ele>
        <time>2020-01-28T12:48:22Z</time>
      </trkpt>
      <trkpt lat="39.781220" lon="2.896750">
        <ele>299.021</ele>
        <time>2020-01-28T12:48:42Z</time>
      </trkpt>
      <trkpt lat="39.781760" lon="2.896680">
        <ele>304.008</ele>
        <time>2020-01-28T12:49:02Z</time>
      </trkpt>
      <trkpt lat="39.782160" lon="2.896310">
        <ele>309.097</ele>
        <time>2020-01-28T12:49:22Z</time>
      </trkpt>
      <trkpt lat="39.782590" lon="2.896030">
        <ele>311.018</ele>
        <time>2020-01-28T12:49:42Z</time>
      </trkpt>
      <trkpt lat="39.782760" lon="2.895950">
        <ele>312.092</ele>
        <time>2020-01-28T12:50:02Z</time>
      </trkpt>
      <trkpt lat="39.782860" lon="2.895930">
        <ele>313.089</ele>
        <time>2020-01-28T12:50:22Z</time>
      </trkpt>
      <trkpt lat="39.782940" lon="2.895950">
        <ele>313.054</ele>
        <time>2020-01-28T12:50:42Z</time>
      </trkpt>
      <trkpt lat="39.783370" lon="2.896190">
        <ele>316.090</ele>
        <time>2020-01-28T12:51:02Z</time>
      </trkpt>
      <trkpt lat="39.783440" lon="2.896210">
        <ele>316.068</ele>
        <time>2020-01-28T12:51:22Z</time>
      </trkpt>
      <trkpt lat="39.783510" lon="2.896200">
        <ele>316.031</ele>
        <time>2020-01-28T12:51:42Z</time>
      </trkpt>
      <trkpt lat="39.783730" lon="2.896110">
        <ele>317.034</ele>
        <time>2020-01-28T12:52:02Z</time>
      </trkpt>
      <trkpt lat="39.784060" lon="2.895960">
        <ele>319.055</ele>
        <time>2020-01-28T12:52:22Z</time>
      </trkpt>
      <trkpt lat="39.784490" lon="2.895950">
        <ele>322.010</ele>
        <time>2020-01-28T12:52:42Z</time>
      </trkpt>
      <trkpt lat="39.784580" lon="2.895930">
        <ele>323.008</ele>
        <time>2020-01-28T12:53:02Z</time>
      </trkpt>
      <trkpt lat="39.784670" lon="2.895890">
        <ele>324.087</ele>
        <time>2020-01-28T12:53:22Z</time>
      </trkpt>
      <trkpt lat="39.785810" lon="2.894860">
        <ele>336.078</ele>
        <time>2020-01-28T12:53:42Z</time>
      </trkpt>
      <trkpt lat="39.785910" lon="2.894740">
        <ele>337.012</ele>
        <time>2020-01-28T12:54:02Z</time>
      </trkpt>
      <trkpt lat="39.786410" lon="2.893690">
        <ele>345.099</ele>
        <time>2020-01-28T12:54:22Z</time>
      </trkpt>
      <trkpt lat="39.786480" lon="2.893590">
        <ele>346.024</ele>
        <time>2020-01-28T12:54:42Z</time>
      </trkpt>
      <trkpt lat="39.786740" lon="2.893390">
        <ele>348.080</ele>
        <time>2020-01-28T12:55:02Z</time>
      </trkpt>
      <trkpt lat="39.786940" lon="2.893280">
        <ele>350.018</ele>
        <time>2020-01-28T12:55:22Z</time>
      </trkpt>
      <trkpt lat="39.787030" lon="2.893200">
        <ele>351.071</ele>
        <time>2020-01-28T12:55:42Z</time>
      </trkpt>
      <trkpt lat="39.787070" lon="2.893080">
        <ele>352.012</ele>
        <time>2020-01-28T12:56:02Z</time>
      </trkpt>
      <trkpt lat="39.787060" lon="2.892960">
        <ele>352.032</ele>
        <time>2020-01-28T12:56:22Z</time>
      </trkpt>
      <trkpt lat="39.786950" lon="2.892490">
        <ele>356.005</ele>
        <time>2020-01-28T12:56:42Z</time>
      </trkpt>
      <trkpt lat="39.786930" lon="2.892300">
        <ele>357.008</ele>
        <time>2020-01-28T12:57:02Z</time>
      </trkpt>
      <trkpt lat="39.786940" lon="2.892220">
        <ele>358.035</ele>
        <time>2020-01-28T12:57:22Z</time>
      </trkpt>
      <trkpt lat="39.786950" lon="2.892150">
        <ele>358.036</ele>
        <time>2020-01-28T12:57:42Z</time>
      </trkpt>
      <trkpt lat="39.787040" lon="2.891950">
        <ele>360.010</ele>
        <time>2020-01-28T12:58:02Z</time>
      </trkpt>
      <trkpt lat="39.787270" lon="2.891530">
        <ele>363.057</ele>
        <time>2020-01-28T12:58:22Z</time>
      </trkpt>
      <trkpt lat="39.787340" lon="2.891480">
        <ele>364.052</ele>
        <time>2020-01-28T12:58:42Z</time>
      </trkpt>
      <trkpt lat="39.787420" lon="2.891470">
        <ele>365.078</ele>
        <time>2020-01-28T12:59:02Z</time>
      </trkpt>
      <trkpt lat="39.787470" lon="2.891490">
        <ele>365.086</ele>
        <time>2020-01-28T12:59:22Z</time>
      </trkpt>
      <trkpt lat="39.787940" lon="2.891940">
        <ele>370.039</ele>
        <time>2020-01-28T12:59:42Z</time>
      </trkpt>
      <trkpt lat="39.788070" lon="2.892020">
        <ele>372.043</ele>
        <time>2020-01-28T13:00:02Z</time>
      </trkpt>
      <trkpt lat="39.788140" lon="2.892030">
        <ele>372.064</ele>
        <time>2020-01-28T13:00:22Z</time>
      </trkpt>
      <trkpt lat="39.788240" lon="2.892010">
        <ele>372.010</ele>
        <time>2020-01-28T13:00:42Z</time>
      </trkpt>
      <trkpt lat="39.788330" lon="2.891950">
        <ele>373.008</ele>
        <time>2020-01-28T13:01:02Z</time>
      </trkpt>
      <trkpt lat="39.788330" lon="2.891960">
        <ele>373.098</ele>
        <time>2020-01-28T13:01:22Z</time>
      </trkpt>
      <trkpt lat="39.788710" lon="2.891730">
        <ele>374.059</ele>
        <time>2020-01-28T13:01:42Z</time>
      </trkpt>
      <trkpt lat="39.788870" lon="2.891590">
        <ele>375.013</ele>
        <time>2020-01-28T13:02:02Z</time>
      </trkpt>
      <trkpt lat="39.788950" lon="2.891480">
        <ele>376.010</ele>
        <time>2020-01-28T13:02:22Z</time>
      </trkpt>
      <trkpt lat="39.789130" lon="2.891100">
        <ele>377.035</ele>
        <time>2020-01-28T13:02:42Z</time>
      </trkpt>
      <trkpt lat="39.789200" lon="2.891010">
        <ele>377.081</ele>
        <time>2020-01-28T13:03:02Z</time>
      </trkpt>
      <trkpt lat="39.789350" lon="2.890940">
        <ele>378.069</ele>
        <time>2020-01-28T13:03:22Z</time>
      </trkpt>
      <trkpt lat="39.789740" lon="2.890850">
        <ele>379.022</ele>
        <time>2020-01-28T13:03:42Z</time>
      </trkpt>
      <trkpt lat="39.789840" lon="2.890820">
        <ele>380.089</ele>
        <time>2020-01-28T13:04:02Z</time>
      </trkpt>
      <trkpt lat="39.789890" lon="2.890770">
        <ele>380.006</ele>
        <time>2020-01-28T13:04:22Z</time>
      </trkpt>
      <trkpt lat="39.789930" lon="2.890670">
        <ele>380.026</ele>
        <time>2020-01-28T13:04:42Z</time>
      </trkpt>
      <trkpt lat="39.790020" lon="2.890200">
        <ele>380.008</ele>
        <time>2020-01-28T13:05:02Z</time>
      </trkpt>
      <trkpt lat="39.790070" lon="2.890160">
        <ele>380.062</ele>
        <time>2020-01-28T13:05:22Z</time>
      </trkpt>
      <trkpt lat="39.790140" lon="2.890180">
        <ele>380.033</ele>
        <time>2020-01-28T13:05:42Z</time>
      </trkpt>
      <trkpt lat="39.790270" lon="2.890490">
        <ele>380.097</ele>
        <time>2020-01-28T13:06:02Z</time>
      </trkpt>
      <trkpt lat="39.790340" lon="2.890540">
        <ele>380.054</ele>
        <time>2020-01-28T13:06:22Z</time>
      </trkpt>
      <trkpt lat="39.790940" lon="2.890800">
        <ele>380.099</ele>
        <time>2020-01-28T13:06:42Z</time>
      </trkpt>
      <trkpt lat="39.791020" lon="2.890870">
        <ele>380.095</ele>
        <time>2020-01-28T13:07:02Z</time>
      </trkpt>
      <trkpt lat="39.791030" lon="2.890980">
        <ele>380.093</ele>
        <time>2020-01-28T13:07:22Z</time>
      </trkpt>
      <trkpt lat="39.790980" lon="2.891040">
        <ele>380.036</ele>
        <time>2020-01-28T13:07:42Z</time>
      </trkpt>
      <trkpt lat="39.790150" lon="2.891440">
        <ele>386.061</ele>
        <time>2020-01-28T13:08:02Z</time>
      </trkpt>
      <trkpt lat="39.789900" lon="2.891610">
        <ele>388.021</ele>
        <time>2020-01-28T13:08:22Z</time>
      </trkpt>
      <trkpt lat="39.789880" lon="2.891720">
        <ele>388.013</ele>
        <time>2020-01-28T13:08:42Z</time>
      </trkpt>
      <trkpt lat="39.789780" lon="2.892390">
        <ele>392.008</ele>
        <time>2020-01-28T13:09:02Z</time>
      </trkpt>
      <trkpt lat="39.789710" lon="2.892540">
        <ele>393.010</ele>
        <time>2020-01-28T13:09:22Z</time>
      </trkpt>
      <trkpt lat="39.789540" lon="2.892750">
        <ele>395.021</ele>
        <time>2020-01-28T13:09:42Z</time>
      </trkpt>
      <trkpt lat="39.788970" lon="2.893370">
        <ele>401.075</ele>
        <time>2020-01-28T13:10:02Z</time>
      </trkpt>
      <trkpt lat="39.788770" lon="2.893510">
        <ele>403.082</ele>
        <time>2020-01-28T13:10:22Z</time>
      </trkpt>
      <trkpt lat="39.788740" lon="2.893570">
        <ele>404.077</ele>
        <time>2020-01-28T13:10:42Z</time>
      </trkpt>
      <trkpt lat="39.788740" lon="2.893650">
        <ele>404.063</ele>
        <time>2020-01-28T13:11:02Z</time>
      </trkpt>
      <trkpt lat="39.788780" lon="2.893680">
        <ele>405.011</ele>
        <time>2020-01-28T13:11:22Z</time>
      </trkpt>
      <trkpt lat="39.789370" lon="2.893620">
        <ele>409.024</ele>
        <time>2020-01-28T13:11:42Z</time>
      </trkpt>
      <trkpt lat="39.789720" lon="2.893520">
        <ele>412.059</ele>
        <time>2020-01-28T13:12:02Z</time>
      </trkpt>
      <trkpt lat="39.789780" lon="2.893540">
        <ele>412.003</ele>
        <time>2020-01-28T13:12:22Z</time>
      </trkpt>
      <trkpt lat="39.789810" lon="2.893610">
        <ele>412.023</ele>
        <time>2020-01-28T13:12:42Z</time>
      </trkpt>
      <trkpt lat="39.789800" lon="2.893680">
        <ele>413.008</ele>
        <time>2020-01-28T13:13:02Z</time>
      </trkpt>
      <trkpt lat="39.789740" lon="2.893740">
        <ele>413.079</ele>
        <time>2020-01-28T13:13:22Z</time>
      </trkpt>
      <trkpt lat="39.789530" lon="2.893840">
        <ele>414.020</ele>
        <time>2020-01-28T13:13:42Z</time>
      </trkpt>
      <trkpt lat="39.789310" lon="2.893970">
        <ele>415.024</ele>
        <time>2020-01-28T13:14:02Z</time>
      </trkpt>
      <trkpt lat="39.789120" lon="2.894050">
        <ele>416.061</ele>
        <time>2020-01-28T13:14:22Z</time>
      </trkpt>
      <trkpt lat="39.789060" lon="2.894090">
        <ele>416.046</ele>
        <time>2020-01-28T13:14:42Z</time>
      </trkpt>
      <trkpt lat="39.789040" lon="2.894150">
        <ele>416.032</ele>
        <time>2020-01-28T13:15:02Z</time>
      </trkpt>
      <trkpt lat="39.789050" lon="2.894260">
        <ele>416.090</ele>
        <time>2020-01-28T13:15:22Z</time>
      </trkpt>
      <trkpt lat="39.789100" lon="2.894290">
        <ele>417.013</ele>
        <time>2020-01-28T13:15:42Z</time>
      </trkpt>
      <trkpt lat="39.789180" lon="2.894290">
        <ele>417.076</ele>
        <time>2020-01-28T13:16:02Z</time>
      </trkpt>
      <trkpt lat="39.789390" lon="2.894210">
        <ele>418.090</ele>
        <time>2020-01-28T13:16:22Z</time>
      </trkpt>
      <trkpt lat="39.789700" lon="2.894160">
        <ele>419.019</ele>
        <time>2020-01-28T13:16:42Z</time>
      </trkpt>
      <trkpt lat="39.789790" lon="2.894120">
        <ele>419.008</ele>
        <time>2020-01-28T13:17:02Z</time>
      </trkpt>
      <trkpt lat="39.789950" lon="2.893890">
        <ele>421.071</ele>
        <time>2020-01-28T13:17:22Z</time>
      </trkpt>
      <trkpt lat="39.790000" lon="2.893860">
        <ele>422.022</ele>
        <time>2020-01-28T13:17:42Z</time>
      </trkpt>
      <trkpt lat="39.790040" lon="2.893880">
        <ele>422.026</ele>
        <time>2020-01-28T13:18:02Z</time>
      </trkpt>
      <trkpt lat="39.790370" lon="2.894140">
        <ele>425.023</ele>
        <time>2020-01-28T13:18:22Z</time>
      </trkpt>
      <trkpt lat="39.790800" lon="2.894400">
        <ele>429.068</ele>
        <time>2020-01-28T13:18:42Z</time>
      </trkpt>
      <trkpt lat="39.791090" lon="2.894560">
        <ele>432.064</ele>
        <time>2020-01-28T13:19:02Z</time>
      </trkpt>
      <trkpt lat="39.791160" lon="2.894570">
        <ele>433.092</ele>
        <time>2020-01-28T13:19:22Z</time>
      </trkpt>
      <trkpt lat="39.791240" lon="2.894560">
        <ele>433.055</ele>
        <time>2020-01-28T13:19:42Z</time>
      </trkpt>
      <trkpt lat="39.791860" lon="2.894310">
        <ele>437.046</ele>
        <time>2020-01-28T13:20:02Z</time>
      </trkpt>
      <trkpt lat="39.792000" lon="2.894290">
        <ele>437.088</ele>
        <time>2020-01-28T13:20:22Z</time>
      </trkpt>
      <trkpt lat="39.792140" lon="2.894300">
        <ele>437.016</ele>
        <time>2020-01-28T13:20:42Z</time>
      </trkpt>
      <trkpt lat="39.792350" lon="2.894360">
        <ele>437.008</ele>
        <time>2020-01-28T13:21:02Z</time>
      </trkpt>
      <trkpt lat="39.793000" lon="2.894690">
        <ele>437.018</ele>
        <time>2020-01-28T13:21:22Z</time>
      </trkpt>
      <trkpt lat="39.794120" lon="2.894970">
        <ele>440.099</ele>
        <time>2020-01-28T13:21:42Z</time>
      </trkpt>
      <trkpt lat="39.794250" lon="2.895050">
        <ele>440.073</ele>
        <time>2020-01-28T13:22:02Z</time>
      </trkpt>
      <trkpt lat="39.794400" lon="2.895180">
        <ele>441.040</ele>
        <time>2020-01-28T13:22:22Z</time>
      </trkpt>
      <trkpt lat="39.794880" lon="2.895710">
        <ele>443.065</ele>
        <time>2020-01-28T13:22:42Z</time>
      </trkpt>
      <trkpt lat="39.795280" lon="2.896110">
        <ele>445.051</ele>
        <time>2020-01-28T13:23:02Z</time>
      </trkpt>
      <trkpt lat="39.795350" lon="2.896160">
        <ele>446.079</ele>
        <time>2020-01-28T13:23:22Z</time>
      </trkpt>
      <trkpt lat="39.796400" lon="2.896580">
        <ele>450.052</ele>
        <time>2020-01-28T13:23:42Z</time>
      </trkpt>
      <trkpt lat="39.796640" lon="2.896570">
        <ele>451.035</ele>
        <time>2020-01-28T13:24:02Z</time>
      </trkpt>
      <trkpt lat="39.796870" lon="2.896470">
        <ele>452.086</ele>
        <time>2020-01-28T13:24:22Z</time>
      </trkpt>
      <trkpt lat="39.797020" lon="2.896460">
        <ele>453.014</ele>
        <time>2020-01-28T13:24:42Z</time>
      </trkpt>
      <trkpt lat="39.797010" lon="2.896460">
        <ele>453.008</ele>
        <time>2020-01-28T13:25:02Z</time>
      </trkpt>
      <trkpt lat="39.797150" lon="2.896490">
        <ele>453.087</ele>
        <time>2020-01-28T13:25:22Z</time>
      </trkpt>
      <trkpt lat="39.797260" lon="2.896560">
        <ele>454.048</ele>
        <time>2020-01-28T13:25:42Z</time>
      </trkpt>
      <trkpt lat="39.797670" lon="2.897070">
        <ele>457.052</ele>
        <time>2020-01-28T13:26:02Z</time>
      </trkpt>
      <trkpt lat="39.798120" lon="2.897670">
        <ele>460.089</ele>
        <time>2020-01-28T13:26:22Z</time>
      </trkpt>
      <trkpt lat="39.798350" lon="2.897900">
        <ele>462.014</ele>
        <time>2020-01-28T13:26:42Z</time>
      </trkpt>
      <trkpt lat="39.798540" lon="2.898000">
        <ele>463.020</ele>
        <time>2020-01-28T13:27:02Z</time>
      </trkpt>
      <trkpt lat="39.798780" lon="2.898020">
        <ele>464.048</ele>
        <time>2020-01-28T13:27:22Z</time>
      </trkpt>
      <trkpt lat="39.800090" lon="2.897350">
        <ele>467.041</ele>
        <time>2020-01-28T13:27:42Z</time>
      </trkpt>
      <trkpt lat="39.800270" lon="2.897270">
        <ele>467.046</ele>
        <time>2020-01-28T13:28:02Z</time>
      </trkpt>
      <trkpt lat="39.800460" lon="2.897220">
        <ele>467.088</ele>
        <time>2020-01-28T13:28:22Z</time>
      </trkpt>
      <trkpt lat="39.800650" lon="2.897190">
        <ele>467.016</ele>
        <time>2020-01-28T13:28:42Z</time>
      </trkpt>
      <trkpt lat="39.800970" lon="2.897210">
        <ele>467.008</ele>
        <time>2020-01-28T13:29:02Z</time>
      </trkpt>
      <trkpt lat="39.801230" lon="2.897290">
        <ele>466.078</ele>
        <time>2020-01-28T13:29:22Z</time>
      </trkpt>
      <trkpt lat="39.801430" lon="2.897390">
        <ele>466.099</ele>
        <time>2020-01-28T13:29:42Z</time>
      </trkpt>
      <trkpt lat="39.801690" lon="2.897560">
        <ele>465.093</ele>
        <time>2020-01-28T13:30:02Z</time>
      </trkpt>
      <trkpt lat="39.801910" lon="2.897780">
        <ele>465.030</ele>
        <time>2020-01-28T13:30:22Z</time>
      </trkpt>
      <trkpt lat="39.802010" lon="2.897910">
        <ele>465.055</ele>
        <time>2020-01-28T13:30:42Z</time>
      </trkpt>
      <trkpt lat="39.802840" lon="2.899820">
        <ele>476.011</ele>
        <time>2020-01-28T13:31:02Z</time>
      </trkpt>
      <trkpt lat="39.802940" lon="2.900020">
        <ele>479.099</ele>
        <time>2020-01-28T13:31:22Z</time>
      </trkpt>
      <trkpt lat="39.802990" lon="2.900070">
        <ele>479.082</ele>
        <time>2020-01-28T13:31:42Z</time>
      </trkpt>
      <trkpt lat="39.803080" lon="2.900090">
        <ele>480.058</ele>
        <time>2020-01-28T13:32:02Z</time>
      </trkpt>
      <trkpt lat="39.803560" lon="2.900020">
        <ele>486.052</ele>
        <time>2020-01-28T13:32:22Z</time>
      </trkpt>
      <trkpt lat="39.803720" lon="2.899960">
        <ele>487.017</ele>
        <time>2020-01-28T13:32:42Z</time>
      </trkpt>
      <trkpt lat="39.803790" lon="2.899910">
        <ele>487.008</ele>
        <time>2020-01-28T13:33:02Z</time>
      </trkpt>
      <trkpt lat="39.803870" lon="2.899810">
        <ele>487.059</ele>
        <time>2020-01-28T13:33:22Z</time>
      </trkpt>
      <trkpt lat="39.804020" lon="2.899490">
        <ele>485.070</ele>
        <time>2020-01-28T13:33:42Z</time>
      </trkpt>
      <trkpt lat="39.804230" lon="2.899090">
        <ele>484.074</ele>
        <time>2020-01-28T13:34:02Z</time>
      </trkpt>
      <trkpt lat="39.804370" lon="2.898870">
        <ele>483.091</ele>
        <time>2020-01-28T13:34:22Z</time>
      </trkpt>
      <trkpt lat="39.804630" lon="2.898630">
        <ele>482.086</ele>
        <time>2020-01-28T13:34:42Z</time>
      </trkpt>
      <trkpt lat="39.804790" lon="2.898510">
        <ele>481.032</ele>
        <time>2020-01-28T13:35:02Z</time>
      </trkpt>
      <trkpt lat="39.804850" lon="2.898490">
        <ele>481.090</ele>
        <time>2020-01-28T13:35:22Z</time>
      </trkpt>
      <trkpt lat="39.804900" lon="2.898520">
        <ele>481.023</ele>
        <time>2020-01-28T13:35:42Z</time>
      </trkpt>
      <trkpt lat="39.805190" lon="2.898760">
        <ele>480.019</ele>
        <time>2020-01-28T13:36:02Z</time>
      </trkpt>
      <trkpt lat="39.805280" lon="2.898800">
        <ele>480.009</ele>
        <time>2020-01-28T13:36:22Z</time>
      </trkpt>
      <trkpt lat="39.805670" lon="2.898810">
        <ele>483.019</ele>
        <time>2020-01-28T13:36:42Z</time>
      </trkpt>
      <trkpt lat="39.805880" lon="2.898760">
        <ele>484.008</ele>
        <time>2020-01-28T13:37:02Z</time>
      </trkpt>
      <trkpt lat="39.806360" lon="2.898540">
        <ele>488.055</ele>
        <time>2020-01-28T13:37:22Z</time>
      </trkpt>
      <trkpt lat="39.806540" lon="2.898490">
        <ele>489.026</ele>
        <time>2020-01-28T13:37:42Z</time>
      </trkpt>
      <trkpt lat="39.807340" lon="2.898410">
        <ele>494.030</ele>
        <time>2020-01-28T13:38:02Z</time>
      </trkpt>
      <trkpt lat="39.807390" lon="2.898360">
        <ele>494.047</ele>
        <time>2020-01-28T13:38:22Z</time>
      </trkpt>
      <trkpt lat="39.807390" lon="2.898280">
        <ele>495.062</ele>
        <time>2020-01-28T13:38:42Z</time>
      </trkpt>
      <trkpt lat="39.807370" lon="2.898220">
        <ele>495.058</ele>
        <time>2020-01-28T13:39:02Z</time>
      </trkpt>
      <trkpt lat="39.807300" lon="2.898130">
        <ele>496.026</ele>
        <time>2020-01-28T13:39:22Z</time>
      </trkpt>
      <trkpt lat="39.807130" lon="2.898010">
        <ele>497.039</ele>
        <time>2020-01-28T13:39:42Z</time>
      </trkpt>
      <trkpt lat="39.807080" lon="2.898020">
        <ele>497.018</ele>
        <time>2020-01-28T13:40:02Z</time>
      </trkpt>
      <trkpt lat="39.806150" lon="2.898370">
        <ele>503.098</ele>
        <time>2020-01-28T13:40:22Z</time>
      </trkpt>
      <trkpt lat="39.806060" lon="2.898370">
        <ele>504.017</ele>
        <time>2020-01-28T13:40:42Z</time>
      </trkpt>
      <trkpt lat="39.806040" lon="2.898330">
        <ele>504.008</ele>
        <time>2020-01-28T13:41:02Z</time>
      </trkpt>
      <trkpt lat="39.806040" lon="2.898280">
        <ele>504.035</ele>
        <time>2020-01-28T13:41:22Z</time>
      </trkpt>
      <trkpt lat="39.806060" lon="2.898240">
        <ele>505.016</ele>
        <time>2020-01-28T13:41:42Z</time>
      </trkpt>
      <trkpt lat="39.806110" lon="2.898200">
        <ele>505.040</ele>
        <time>2020-01-28T13:42:02Z</time>
      </trkpt>
      <trkpt lat="39.806510" lon="2.898010">
        <ele>509.067</ele>
        <time>2020-01-28T13:42:22Z</time>
      </trkpt>
      <trkpt lat="39.806900" lon="2.897780">
        <ele>514.052</ele>
        <time>2020-01-28T13:42:42Z</time>
      </trkpt>
      <trkpt lat="39.807040" lon="2.897750">
        <ele>516.018</ele>
        <time>2020-01-28T13:43:02Z</time>
      </trkpt>
      <trkpt lat="39.807230" lon="2.897750">
        <ele>518.086</ele>
        <time>2020-01-28T13:43:22Z</time>
      </trkpt>
      <trkpt lat="39.807540" lon="2.897790">
        <ele>521.059</ele>
        <time>2020-01-28T13:43:42Z</time>
      </trkpt>
      <trkpt lat="39.807620" lon="2.897780">
        <ele>522.053</ele>
        <time>2020-01-28T13:44:02Z</time>
      </trkpt>
      <trkpt lat="39.807660" lon="2.897720">
        <ele>523.004</ele>
        <time>2020-01-28T13:44:22Z</time>
      </trkpt>
      <trkpt lat="39.807650" lon="2.897620">
        <ele>523.014</ele>
        <time>2020-01-28T13:44:42Z</time>
      </trkpt>
      <trkpt lat="39.807590" lon="2.897570">
        <ele>524.008</ele>
        <time>2020-01-28T13:45:02Z</time>
      </trkpt>
      <trkpt lat="39.807480" lon="2.897580">
        <ele>525.069</ele>
        <time>2020-01-28T13:45:22Z</time>
      </trkpt>
      <trkpt lat="39.806830" lon="2.897680">
        <ele>529.040</ele>
        <time>2020-01-28T13:45:42Z</time>
      </trkpt>
      <trkpt lat="39.806770" lon="2.897640">
        <ele>529.024</ele>
        <time>2020-01-28T13:46:02Z</time>
      </trkpt>
      <trkpt lat="39.806750" lon="2.897610">
        <ele>529.051</ele>
        <time>2020-01-28T13:46:22Z</time>
      </trkpt>
      <trkpt lat="39.806750" lon="2.897560">
        <ele>530.066</ele>
        <time>2020-01-28T13:46:42Z</time>
      </trkpt>
      <trkpt lat="39.806790" lon="2.897510">
        <ele>530.052</ele>
        <time>2020-01-28T13:47:02Z</time>
      </trkpt>
      <trkpt lat="39.807420" lon="2.897090">
        <ele>532.070</ele>
        <time>2020-01-28T13:47:22Z</time>
      </trkpt>
      <trkpt lat="39.807530" lon="2.897040">
        <ele>533.073</ele>
        <time>2020-01-28T13:47:42Z</time>
      </trkpt>
      <trkpt lat="39.808020" lon="2.897020">
        <ele>534.026</ele>
        <time>2020-01-28T13:48:02Z</time>
      </trkpt>
      <trkpt lat="39.808110" lon="2.896980">
        <ele>535.047</ele>
        <time>2020-01-28T13:48:22Z</time>
      </trkpt>
      <trkpt lat="39.808250" lon="2.896760">
        <ele>536.011</ele>
        <time>2020-01-28T13:48:42Z</time>
      </trkpt>
      <trkpt lat="39.808250" lon="2.896690">
        <ele>536.008</ele>
        <time>2020-01-28T13:49:02Z</time>
      </trkpt>
      <trkpt lat="39.808200" lon="2.896630">
        <ele>536.096</ele>
        <time>2020-01-28T13:49:22Z</time>
      </trkpt>
      <trkpt lat="39.808130" lon="2.896620">
        <ele>536.027</ele>
        <time>2020-01-28T13:49:42Z</time>
      </trkpt>
      <trkpt lat="39.807740" lon="2.896730">
        <ele>538.031</ele>
        <time>2020-01-28T13:50:02Z</time>
      </trkpt>
      <trkpt lat="39.807300" lon="2.896920">
        <ele>540.058</ele>
        <time>2020-01-28T13:50:22Z</time>
      </trkpt>
      <trkpt lat="39.807260" lon="2.896910">
        <ele>540.013</ele>
        <time>2020-01-28T13:50:42Z</time>
      </trkpt>
      <trkpt lat="39.807210" lon="2.896860">
        <ele>540.089</ele>
        <time>2020-01-28T13:51:02Z</time>
      </trkpt>
      <trkpt lat="39.807210" lon="2.896810">
        <ele>540.097</ele>
        <time>2020-01-28T13:51:22Z</time>
      </trkpt>
      <trkpt lat="39.807230" lon="2.896760">
        <ele>540.070</ele>
        <time>2020-01-28T13:51:42Z</time>
      </trkpt>
      <trkpt lat="39.807560" lon="2.896560">
        <ele>542.014</ele>
        <time>2020-01-28T13:52:02Z</time>
      </trkpt>
      <trkpt lat="39.807780" lon="2.896300">
        <ele>544.054</ele>
        <time>2020-01-28T13:52:22Z</time>
      </trkpt>
      <trkpt lat="39.807920" lon="2.896210">
        <ele>545.009</ele>
        <time>2020-01-28T13:52:42Z</time>
      </trkpt>
      <trkpt lat="39.808270" lon="2.896070">
        <ele>548.008</ele>
        <time>2020-01-28T13:53:02Z</time>
      </trkpt>
      <trkpt lat="39.808430" lon="2.895990">
        <ele>550.085</ele>
        <time>2020-01-28T13:53:22Z</time>
      </trkpt>
      <trkpt lat="39.809050" lon="2.895190">
        <ele>558.036</ele>
        <time>2020-01-28T13:53:42Z</time>
      </trkpt>
      <trkpt lat="39.809140" lon="2.895130">
        <ele>558.090</ele>
        <time>2020-01-28T13:54:02Z</time>
      </trkpt>
      <trkpt lat="39.809260" lon="2.895090">
        <ele>560.097</ele>
        <time>2020-01-28T13:54:22Z</time>
      </trkpt>
      <trkpt lat="39.809710" lon="2.895150">
        <ele>562.062</ele>
        <time>2020-01-28T13:54:42Z</time>
      </trkpt>
      <trkpt lat="39.809810" lon="2.895120">
        <ele>562.028</ele>
        <time>2020-01-28T13:55:02Z</time>
      </trkpt>
      <trkpt lat="39.809910" lon="2.895060">
        <ele>563.076</ele>
        <time>2020-01-28T13:55:22Z</time>
      </trkpt>
      <trkpt lat="39.809980" lon="2.894980">
        <ele>563.099</ele>
        <time>2020-01-28T13:55:42Z</time>
      </trkpt>
      <trkpt lat="39.810220" lon="2.894510">
        <ele>565.022</ele>
        <time>2020-01-28T13:56:02Z</time>
      </trkpt>
      <trkpt lat="39.810920" lon="2.892910">
        <ele>571.062</ele>
        <time>2020-01-28T13:56:22Z</time>
      </trkpt>
      <trkpt lat="39.811000" lon="2.892600">
        <ele>572.008</ele>
        <time>2020-01-28T13:56:42Z</time>
      </trkpt>
      <trkpt lat="39.811080" lon="2.891520">
        <ele>576.008</ele>
        <time>2020-01-28T13:57:02Z</time>
      </trkpt>
      <trkpt lat="39.811130" lon="2.891230">
        <ele>577.036</ele>
        <time>2020-01-28T13:57:22Z</time>
      </trkpt>
      <trkpt lat="39.811200" lon="2.890970">
        <ele>578.067</ele>
        <time>2020-01-28T13:57:42Z</time>
      </trkpt>
      <trkpt lat="39.811290" lon="2.890720">
        <ele>579.021</ele>
        <time>2020-01-28T13:58:02Z</time>
      </trkpt>
      <trkpt lat="39.811310" lon="2.890640">
        <ele>579.078</ele>
        <time>2020-01-28T13:58:22Z</time>
      </trkpt>
      <trkpt lat="39.811310" lon="2.890530">
        <ele>579.053</ele>
        <time>2020-01-28T13:58:42Z</time>
      </trkpt>
      <trkpt lat="39.811290" lon="2.890420">
        <ele>579.039</ele>
        <time>2020-01-28T13:59:02Z</time>
      </trkpt>
      <trkpt lat="39.811070" lon="2.889750">
        <ele>580.057</ele>
        <time>2020-01-28T13:59:22Z</time>
      </trkpt>
      <trkpt lat="39.811070" lon="2.889700">
        <ele>580.030</ele>
        <time>2020-01-28T13:59:42Z</time>
      </trkpt>
      <trkpt lat="39.811100" lon="2.889650">
        <ele>581.038</ele>
        <time>2020-01-28T14:00:02Z</time>
      </trkpt>
      <trkpt lat="39.811150" lon="2.889630">
        <ele>581.070</ele>
        <time>2020-01-28T14:00:22Z</time>
      </trkpt>
      <trkpt lat="39.811460" lon="2.889630">
        <ele>581.017</ele>
        <time>2020-01-28T14:00:42Z</time>
      </trkpt>
      <trkpt lat="39.811560" lon="2.889660">
        <ele>582.008</ele>
        <time>2020-01-28T14:01:02Z</time>
      </trkpt>
      <trkpt lat="39.811750" lon="2.889810">
        <ele>582.077</ele>
        <time>2020-01-28T14:01:22Z</time>
      </trkpt>
      <trkpt lat="39.811930" lon="2.889810">
        <ele>582.028</ele>
        <time>2020-01-28T14:01:42Z</time>
      </trkpt>
      <trkpt lat="39.813330" lon="2.889460">
        <ele>573.082</ele>
        <time>2020-01-28T14:02:02Z</time>
      </trkpt>
      <trkpt lat="39.813510" lon="2.889550">
        <ele>571.069</ele>
        <time>2020-01-28T14:02:22Z</time>
      </trkpt>
      <trkpt lat="39.813550" lon="2.889460">
        <ele>571.084</ele>
        <time>2020-01-28T14:02:42Z</time>
      </trkpt>
      <trkpt lat="39.813630" lon="2.889410">
        <ele>570.080</ele>
        <time>2020-01-28T14:03:02Z</time>
      </trkpt>
      <trkpt lat="39.815000" lon="2.889060">
        <ele>564.058</ele>
        <time>2020-01-28T14:03:22Z</time>
      </trkpt>
      <trkpt lat="39.815200" lon="2.889100">
        <ele>564.011</ele>
        <time>2020-01-28T14:03:42Z</time>
      </trkpt>
      <trkpt lat="39.815890" lon="2.889300">
        <ele>562.016</ele>
        <time>2020-01-28T14:04:02Z</time>
      </trkpt>
      <trkpt lat="39.816020" lon="2.889200">
        <ele>560.076</ele>
        <time>2020-01-28T14:04:22Z</time>
      </trkpt>
      <trkpt lat="39.816060" lon="2.889080">
        <ele>559.013</ele>
        <time>2020-01-28T14:04:42Z</time>
      </trkpt>
      <trkpt lat="39.816090" lon="2.888810">
        <ele>557.008</ele>
        <time>2020-01-28T14:05:02Z</time>
      </trkpt>
      <trkpt lat="39.816090" lon="2.888500">
        <ele>554.035</ele>
        <time>2020-01-28T14:05:22Z</time>
      </trkpt>
      <trkpt lat="39.816120" lon="2.888350">
        <ele>553.016</ele>
        <time>2020-01-28T14:05:42Z</time>
      </trkpt>
      <trkpt lat="39.816220" lon="2.888290">
        <ele>551.080</ele>
        <time>2020-01-28T14:06:02Z</time>
      </trkpt>
      <trkpt lat="39.816320" lon="2.888290">
        <ele>550.077</ele>
        <time>2020-01-28T14:06:22Z</time>
      </trkpt>
      <trkpt lat="39.816450" lon="2.888360">
        <ele>548.062</ele>
        <time>2020-01-28T14:06:42Z</time>
      </trkpt>
      <trkpt lat="39.816620" lon="2.888340">
        <ele>546.078</ele>
        <time>2020-01-28T14:07:02Z</time>
      </trkpt>
      <trkpt lat="39.816740" lon="2.888390">
        <ele>545.056</ele>
        <time>2020-01-28T14:07:22Z</time>
      </trkpt>
      <trkpt lat="39.817010" lon="2.888650">
        <ele>541.089</ele>
        <time>2020-01-28T14:07:42Z</time>
      </trkpt>
      <trkpt lat="39.817170" lon="2.888790">
        <ele>539.039</ele>
        <time>2020-01-28T14:08:02Z</time>
      </trkpt>
      <trkpt lat="39.817340" lon="2.888890">
        <ele>537.001</ele>
        <time>2020-01-28T14:08:22Z</time>
      </trkpt>
      <trkpt lat="39.817580" lon="2.888890">
        <ele>535.021</ele>
        <time>2020-01-28T14:08:42Z</time>
      </trkpt>
      <trkpt lat="39.817890" lon="2.888650">
        <ele>532.008</ele>
        <time>2020-01-28T14:09:02Z</time>
      </trkpt>
      <trkpt lat="39.818170" lon="2.888510">
        <ele>530.017</ele>
        <time>2020-01-28T14:09:22Z</time>
      </trkpt>
      <trkpt lat="39.818490" lon="2.888500">
        <ele>527.058</ele>
        <time>2020-01-28T14:09:42Z</time>
      </trkpt>
      <trkpt lat="39.818640" lon="2.888380">
        <ele>526.032</ele>
        <time>2020-01-28T14:10:02Z</time>
      </trkpt>
      <trkpt lat="39.818760" lon="2.888230">
        <ele>524.079</ele>
        <time>2020-01-28T14:10:22Z</time>
      </trkpt>
      <trkpt lat="39.818890" lon="2.887840">
        <ele>522.084</ele>
        <time>2020-01-28T14:10:42Z</time>
      </trkpt>
      <trkpt lat="39.818990" lon="2.887310">
        <ele>519.080</ele>
        <time>2020-01-28T14:11:02Z</time>
      </trkpt>
      <trkpt lat="39.819100" lon="2.886950">
        <ele>517.068</ele>
        <time>2020-01-28T14:11:22Z</time>
      </trkpt>
      <trkpt lat="39.819100" lon="2.886840">
        <ele>516.011</ele>
        <time>2020-01-28T14:11:42Z</time>
      </trkpt>
      <trkpt lat="39.819060" lon="2.886750">
        <ele>516.024</ele>
        <time>2020-01-28T14:12:02Z</time>
      </trkpt>
      <trkpt lat="39.818980" lon="2.886660">
        <ele>515.004</ele>
        <time>2020-01-28T14:12:22Z</time>
      </trkpt>
      <trkpt lat="39.817690" lon="2.885820">
        <ele>506.014</ele>
        <time>2020-01-28T14:12:42Z</time>
      </trkpt>
      <trkpt lat="39.817670" lon="2.885740">
        <ele>506.008</ele>
        <time>2020-01-28T14:13:02Z</time>
      </trkpt>
      <trkpt lat="39.817740" lon="2.885720">
        <ele>506.066</ele>
        <time>2020-01-28T14:13:22Z</time>
      </trkpt>
      <trkpt lat="39.818390" lon="2.885970">
        <ele>503.017</ele>
        <time>2020-01-28T14:13:42Z</time>
      </trkpt>
      <trkpt lat="39.818460" lon="2.885950">
        <ele>503.021</ele>
        <time>2020-01-28T14:14:02Z</time>
      </trkpt>
      <trkpt lat="39.818460" lon="2.885840">
        <ele>503.028</ele>
        <time>2020-01-28T14:14:22Z</time>
      </trkpt>
      <trkpt lat="39.818300" lon="2.885680">
        <ele>502.043</ele>
        <time>2020-01-28T14:14:42Z</time>
      </trkpt>
      <trkpt lat="39.818240" lon="2.885430">
        <ele>502.029</ele>
        <time>2020-01-28T14:15:02Z</time>
      </trkpt>
      <trkpt lat="39.818250" lon="2.885310">
        <ele>501.027</ele>
        <time>2020-01-28T14:15:22Z</time>
      </trkpt>
      <trkpt lat="39.819530" lon="2.883460">
        <ele>485.010</ele>
        <time>2020-01-28T14:15:42Z</time>
      </trkpt>
      <trkpt lat="39.820710" lon="2.884150">
        <ele>481.093</ele>
        <time>2020-01-28T14:16:02Z</time>
      </trkpt>
      <trkpt lat="39.821060" lon="2.884310">
        <ele>480.065</ele>
        <time>2020-01-28T14:16:22Z</time>
      </trkpt>
      <trkpt lat="39.821160" lon="2.884310">
        <ele>480.021</ele>
        <time>2020-01-28T14:16:42Z</time>
      </trkpt>
      <trkpt lat="39.821260" lon="2.884270">
        <ele>480.008</ele>
        <time>2020-01-28T14:17:02Z</time>
      </trkpt>
      <trkpt lat="39.821340" lon="2.884230">
        <ele>480.043</ele>
        <time>2020-01-28T14:17:22Z</time>
      </trkpt>
      <trkpt lat="39.821490" lon="2.884000">
        <ele>480.034</ele>
        <time>2020-01-28T14:17:42Z</time>
      </trkpt>
      <trkpt lat="39.821620" lon="2.883660">
        <ele>479.058</ele>
        <time>2020-01-28T14:18:02Z</time>
      </trkpt>
      <trkpt lat="39.821780" lon="2.883410">
        <ele>479.075</ele>
        <time>2020-01-28T14:18:22Z</time>
      </trkpt>
      <trkpt lat="39.821900" lon="2.883250">
        <ele>478.040</ele>
        <time>2020-01-28T14:18:42Z</time>
      </trkpt>
      <trkpt lat="39.822060" lon="2.883140">
        <ele>478.056</ele>
        <time>2020-01-28T14:19:02Z</time>
      </trkpt>
      <trkpt lat="39.822330" lon="2.883050">
        <ele>478.094</ele>
        <time>2020-01-28T14:19:22Z</time>
      </trkpt>
      <trkpt lat="39.822390" lon="2.883960">
        <ele>476.077</ele>
        <time>2020-01-28T14:19:42Z</time>
      </trkpt>
      <trkpt lat="39.822350" lon="2.883990">
        <ele>476.077</ele>
        <time>2020-01-28T14:20:02Z</time>
      </trkpt>
      <trkpt lat="39.822360" lon="2.884020">
        <ele>476.061</ele>
        <time>2020-01-28T14:20:22Z</time>
      </trkpt>
      <trkpt lat="39.822410" lon="2.884040">
        <ele>476.027</ele>
        <time>2020-01-28T14:20:42Z</time>
      </trkpt>
      <trkpt lat="39.822420" lon="2.884090">
        <ele>476.008</ele>
        <time>2020-01-28T14:21:02Z</time>
      </trkpt>
      <trkpt lat="39.822420" lon="2.884100">
        <ele>476.031</ele>
        <time>2020-01-28T14:21:22Z</time>
      </trkpt>
      <trkpt lat="39.822500" lon="2.884590">
        <ele>476.022</ele>
        <time>2020-01-28T14:21:42Z</time>
      </trkpt>
      <trkpt lat="39.822350" lon="2.884640">
        <ele>477.076</ele>
        <time>2020-01-28T14:22:02Z</time>
      </trkpt>
      <trkpt lat="39.822480" lon="2.885450">
        <ele>479.073</ele>
        <time>2020-01-28T14:22:22Z</time>
      </trkpt>
      <trkpt lat="39.822540" lon="2.885960">
        <ele>480.088</ele>
        <time>2020-01-28T14:22:42Z</time>
      </trkpt>
      <trkpt lat="39.822520" lon="2.886400">
        <ele>481.054</ele>
        <time>2020-01-28T14:23:02Z</time>
      </trkpt>
      <trkpt lat="39.822460" lon="2.886770">
        <ele>482.062</ele>
        <time>2020-01-28T14:23:22Z</time>
      </trkpt>
      <trkpt lat="39.822410" lon="2.886970">
        <ele>482.095</ele>
        <time>2020-01-28T14:23:42Z</time>
      </trkpt>
      <trkpt lat="39.822200" lon="2.887250">
        <ele>483.092</ele>
        <time>2020-01-28T14:24:02Z</time>
      </trkpt>
      <trkpt lat="39.821960" lon="2.887470">
        <ele>484.073</ele>
        <time>2020-01-28T14:24:22Z</time>
      </trkpt>
      <trkpt lat="39.821970" lon="2.887570">
        <ele>484.020</ele>
        <time>2020-01-28T14:24:42Z</time>
      </trkpt>
      <trkpt lat="39.821900" lon="2.888190">
        <ele>486.008</ele>
        <time>2020-01-28T14:25:02Z</time>
      </trkpt>
      <trkpt lat="39.821720" lon="2.889320">
        <ele>489.073</ele>
        <time>2020-01-28T14:25:22Z</time>
      </trkpt>
      <trkpt lat="39.820730" lon="2.892720">
        <ele>503.064</ele>
        <time>2020-01-28T14:25:42Z</time>
      </trkpt>
      <trkpt lat="39.820590" lon="2.893140">
        <ele>505.048</ele>
        <time>2020-01-28T14:26:02Z</time>
      </trkpt>
      <trkpt lat="39.820490" lon="2.893610">
        <ele>508.015</ele>
        <time>2020-01-28T14:26:22Z</time>
      </trkpt>
      <trkpt lat="39.820500" lon="2.893910">
        <ele>510.030</ele>
        <time>2020-01-28T14:26:42Z</time>
      </trkpt>
      <trkpt lat="39.820600" lon="2.894230">
        <ele>511.066</ele>
        <time>2020-01-28T14:27:02Z</time>
      </trkpt>
      <trkpt lat="39.820730" lon="2.894480">
        <ele>513.034</ele>
        <time>2020-01-28T14:27:22Z</time>
      </trkpt>
      <trkpt lat="39.821200" lon="2.895210">
        <ele>517.087</ele>
        <time>2020-01-28T14:27:42Z</time>
      </trkpt>
      <trkpt lat="39.822070" lon="2.896340">
        <ele>522.029</ele>
        <time>2020-01-28T14:28:02Z</time>
      </trkpt>
      <trkpt lat="39.822980" lon="2.897590">
        <ele>526.000</ele>
        <time>2020-01-28T14:28:22Z</time>
      </trkpt>
      <trkpt lat="39.823470" lon="2.898230">
        <ele>527.020</ele>
        <time>2020-01-28T14:28:42Z</time>
      </trkpt>
      <trkpt lat="39.823730" lon="2.898510">
        <ele>528.008</ele>
        <time>2020-01-28T14:29:02Z</time>
      </trkpt>
      <trkpt lat="39.823990" lon="2.898780">
        <ele>528.086</ele>
        <time>2020-01-28T14:29:22Z</time>
      </trkpt>
      <trkpt lat="39.824460" lon="2.899170">
        <ele>530.087</ele>
        <time>2020-01-28T14:29:42Z</time>
      </trkpt>
      <trkpt lat="39.825070" lon="2.899630">
        <ele>531.041</ele>
        <time>2020-01-28T14:30:02Z</time>
      </trkpt>
      <trkpt lat="39.825500" lon="2.899900">
        <ele>533.068</ele>
        <time>2020-01-28T14:30:22Z</time>
      </trkpt>
      <trkpt lat="39.825740" lon="2.899950">
        <ele>534.053</ele>
        <time>2020-01-28T14:30:42Z</time>
      </trkpt>
      <trkpt lat="39.826110" lon="2.899940">
        <ele>536.049</ele>
        <time>2020-01-28T14:31:02Z</time>
      </trkpt>
      <trkpt lat="39.826590" lon="2.899880">
        <ele>538.097</ele>
        <time>2020-01-28T14:31:22Z</time>
      </trkpt>
      <trkpt lat="39.826850" lon="2.899820">
        <ele>539.020</ele>
        <time>2020-01-28T14:31:42Z</time>
      </trkpt>
      <trkpt lat="39.827010" lon="2.899700">
        <ele>540.063</ele>
        <time>2020-01-28T14:32:02Z</time>
      </trkpt>
      <trkpt lat="39.827110" lon="2.899570">
        <ele>541.044</ele>
        <time>2020-01-28T14:32:22Z</time>
      </trkpt>
      <trkpt lat="39.827570" lon="2.898420">
        <ele>548.018</ele>
        <time>2020-01-28T14:32:42Z</time>
      </trkpt>
      <trkpt lat="39.827700" lon="2.898130">
        <ele>550.008</ele>
        <time>2020-01-28T14:33:02Z</time>
      </trkpt>
      <trkpt lat="39.827810" lon="2.898040">
        <ele>551.050</ele>
        <time>2020-01-28T14:33:22Z</time>
      </trkpt>
      <trkpt lat="39.827920" lon="2.897980">
        <ele>552.041</ele>
        <time>2020-01-28T14:33:42Z</time>
      </trkpt>
      <trkpt lat="39.828110" lon="2.897990">
        <ele>554.035</ele>
        <time>2020-01-28T14:34:02Z</time>
      </trkpt>
      <trkpt lat="39.828590" lon="2.898120">
        <ele>555.072</ele>
        <time>2020-01-28T14:34:22Z</time>
      </trkpt>
      <trkpt lat="39.828780" lon="2.898150">
        <ele>556.067</ele>
        <time>2020-01-28T14:34:42Z</time>
      </trkpt>
      <trkpt lat="39.828980" lon="2.898100">
        <ele>557.033</ele>
        <time>2020-01-28T14:35:02Z</time>
      </trkpt>
      <trkpt lat="39.829080" lon="2.898010">
        <ele>557.011</ele>
        <time>2020-01-28T14:35:22Z</time>
      </trkpt>
      <trkpt lat="39.829200" lon="2.897820">
        <ele>558.074</ele>
        <time>2020-01-28T14:35:42Z</time>
      </trkpt>
      <trkpt lat="39.830220" lon="2.896030">
        <ele>560.048</ele>
        <time>2020-01-28T14:36:02Z</time>
      </trkpt>
      <trkpt lat="39.830380" lon="2.895860">
        <ele>560.061</ele>
        <time>2020-01-28T14:36:22Z</time>
      </trkpt>
      <trkpt lat="39.830520" lon="2.895770">
        <ele>560.017</ele>
        <time>2020-01-28T14:36:42Z</time>
      </trkpt>
      <trkpt lat="39.830700" lon="2.895710">
        <ele>559.008</ele>
        <time>2020-01-28T14:37:02Z</time>
      </trkpt>
      <trkpt lat="39.831480" lon="2.895600">
        <ele>558.058</ele>
        <time>2020-01-28T14:37:22Z</time>
      </trkpt>
      <trkpt lat="39.831640" lon="2.895610">
        <ele>557.089</ele>
        <time>2020-01-28T14:37:42Z</time>
      </trkpt>
      <trkpt lat="39.833040" lon="2.895890">
        <ele>550.063</ele>
        <time>2020-01-28T14:38:02Z</time>
      </trkpt>
      <trkpt lat="39.833340" lon="2.895930">
        <ele>548.050</ele>
        <time>2020-01-28T14:38:22Z</time>
      </trkpt>
      <trkpt lat="39.834410" lon="2.895840">
        <ele>544.045</ele>
        <time>2020-01-28T14:38:42Z</time>
      </trkpt>
      <trkpt lat="39.834550" lon="2.895850">
        <ele>543.051</ele>
        <time>2020-01-28T14:39:02Z</time>
      </trkpt>
      <trkpt lat="39.834640" lon="2.895890">
        <ele>543.089</ele>
        <time>2020-01-28T14:39:22Z</time>
      </trkpt>
      <trkpt lat="39.834650" lon="2.895890">
        <ele>542.012</ele>
        <time>2020-01-28T14:39:42Z</time>
      </trkpt>
      <trkpt lat="39.834680" lon="2.895900">
        <ele>542.096</ele>
        <time>2020-01-28T14:40:02Z</time>
      </trkpt>
      <trkpt lat="39.835430" lon="2.896690">
        <ele>537.031</ele>
        <time>2020-01-28T14:40:22Z</time>
      </trkpt>
      <trkpt lat="39.835610" lon="2.896790">
        <ele>535.024</ele>
        <time>2020-01-28T14:40:42Z</time>
      </trkpt>
      <trkpt lat="39.837120" lon="2.897320">
        <ele>523.008</ele>
        <time>2020-01-28T14:41:02Z</time>
      </trkpt>
      <trkpt lat="39.837400" lon="2.897350">
        <ele>523.033</ele>
        <time>2020-01-28T14:41:22Z</time>
      </trkpt>
      <trkpt lat="39.837750" lon="2.897280">
        <ele>522.014</ele>
        <time>2020-01-28T14:41:42Z</time>
      </trkpt>
      <trkpt lat="39.840460" lon="2.896440">
        <ele>511.068</ele>
        <time>2020-01-28T14:42:02Z</time>
      </trkpt>
      <trkpt lat="39.845800" lon="2.894850">
        <ele>517.035</ele>
        <time>2020-01-28T14:42:22Z</time>
      </trkpt>
      <trkpt lat="39.845940" lon="2.894850">
        <ele>517.060</ele>
        <time>2020-01-28T14:42:42Z</time>
      </trkpt>
      <trkpt lat="39.846140" lon="2.894900">
        <ele>517.016</ele>
        <time>2020-01-28T14:43:02Z</time>
      </trkpt>
      <trkpt lat="39.846330" lon="2.895000">
        <ele>516.064</ele>
        <time>2020-01-28T14:43:22Z</time>
      </trkpt>
      <trkpt lat="39.847090" lon="2.895460">
        <ele>514.087</ele>
        <time>2020-01-28T14:43:42Z</time>
      </trkpt>
      <trkpt lat="39.848260" lon="2.896340">
        <ele>511.098</ele>
        <time>2020-01-28T14:44:02Z</time>
      </trkpt>
      <trkpt lat="39.848560" lon="2.896400">
        <ele>511.015</ele>
        <time>2020-01-28T14:44:22Z</time>
      </trkpt>
      <trkpt lat="39.850760" lon="2.896660">
        <ele>514.026</ele>
        <time>2020-01-28T14:44:42Z</time>
      </trkpt>
      <trkpt lat="39.851590" lon="2.896890">
        <ele>515.008</ele>
        <time>2020-01-28T14:45:02Z</time>
      </trkpt>
      <trkpt lat="39.852720" lon="2.897270">
        <ele>517.043</ele>
        <time>2020-01-28T14:45:22Z</time>
      </trkpt>
      <trkpt lat="39.853640" lon="2.897770">
        <ele>525.074</ele>
        <time>2020-01-28T14:45:42Z</time>
      </trkpt>
      <trkpt lat="39.853780" lon="2.897900">
        <ele>527.018</ele>
        <time>2020-01-28T14:46:02Z</time>
      </trkpt>
      <trkpt lat="39.853910" lon="2.898080">
        <ele>528.065</ele>
        <time>2020-01-28T14:46:22Z</time>
      </trkpt>
      <trkpt lat="39.855930" lon="2.901640">
        <ele>532.020</ele>
        <time>2020-01-28T14:46:42Z</time>
      </trkpt>
      <trkpt lat="39.856100" lon="2.902000">
        <ele>530.016</ele>
        <time>2020-01-28T14:47:02Z</time>
      </trkpt>
      <trkpt lat="39.856120" lon="2.902190">
        <ele>530.034</ele>
        <time>2020-01-28T14:47:22Z</time>
      </trkpt>
      <trkpt lat="39.856140" lon="2.902610">
        <ele>528.057</ele>
        <time>2020-01-28T14:47:42Z</time>
      </trkpt>
      <trkpt lat="39.856140" lon="2.902610">
        <ele>528.044</ele>
        <time>2020-01-28T14:48:02Z</time>
      </trkpt>
      <trkpt lat="39.856160" lon="2.902940">
        <ele>527.005</ele>
        <time>2020-01-28T14:48:22Z</time>
      </trkpt>
      <trkpt lat="39.856150" lon="2.903150">
        <ele>526.015</ele>
        <time>2020-01-28T14:48:42Z</time>
      </trkpt>
      <trkpt lat="39.856110" lon="2.903390">
        <ele>525.008</ele>
        <time>2020-01-28T14:49:02Z</time>
      </trkpt>
      <trkpt lat="39.856030" lon="2.903680">
        <ele>523.068</ele>
        <time>2020-01-28T14:49:22Z</time>
      </trkpt>
      <trkpt lat="39.855950" lon="2.903870">
        <ele>521.029</ele>
        <time>2020-01-28T14:49:42Z</time>
      </trkpt>
      <trkpt lat="39.855870" lon="2.903970">
        <ele>520.053</ele>
        <time>2020-01-28T14:50:02Z</time>
      </trkpt>
      <trkpt lat="39.855750" lon="2.904080">
        <ele>518.070</ele>
        <time>2020-01-28T14:50:22Z</time>
      </trkpt>
      <trkpt lat="39.855620" lon="2.904140">
        <ele>517.045</ele>
        <time>2020-01-28T14:50:42Z</time>
      </trkpt>
      <trkpt lat="39.855110" lon="2.904220">
        <ele>512.021</ele>
        <time>2020-01-28T14:51:02Z</time>
      </trkpt>
      <trkpt lat="39.855020" lon="2.904280">
        <ele>511.019</ele>
        <time>2020-01-28T14:51:22Z</time>
      </trkpt>
      <trkpt lat="39.854940" lon="2.904380">
        <ele>510.082</ele>
        <time>2020-01-28T14:51:42Z</time>
      </trkpt>
      <trkpt lat="39.854550" lon="2.904950">
        <ele>504.038</ele>
        <time>2020-01-28T14:52:02Z</time>
      </trkpt>
      <trkpt lat="39.854500" lon="2.905080">
        <ele>503.070</ele>
        <time>2020-01-28T14:52:22Z</time>
      </trkpt>
      <trkpt lat="39.854470" lon="2.905270">
        <ele>502.017</ele>
        <time>2020-01-28T14:52:42Z</time>
      </trkpt>
      <trkpt lat="39.854450" lon="2.905650">
        <ele>499.008</ele>
        <time>2020-01-28T14:53:02Z</time>
      </trkpt>
      <trkpt lat="39.854410" lon="2.905840">
        <ele>498.087</ele>
        <time>2020-01-28T14:53:22Z</time>
      </trkpt>
      <trkpt lat="39.854360" lon="2.905980">
        <ele>497.058</ele>
        <time>2020-01-28T14:53:42Z</time>
      </trkpt>
      <trkpt lat="39.854130" lon="2.906350">
        <ele>494.072</ele>
        <time>2020-01-28T14:54:02Z</time>
      </trkpt>
      <trkpt lat="39.854040" lon="2.906570">
        <ele>492.059</ele>
        <time>2020-01-28T14:54:22Z</time>
      </trkpt>
      <trkpt lat="39.854020" lon="2.906710">
        <ele>491.054</ele>
        <time>2020-01-28T14:54:42Z</time>
      </trkpt>
      <trkpt lat="39.854010" lon="2.906850">
        <ele>490.060</ele>
        <time>2020-01-28T14:55:02Z</time>
      </trkpt>
      <trkpt lat="39.854050" lon="2.907040">
        <ele>489.058</ele>
        <time>2020-01-28T14:55:22Z</time>
      </trkpt>
      <trkpt lat="39.854210" lon="2.907510">
        <ele>487.061</ele>
        <time>2020-01-28T14:55:42Z</time>
      </trkpt>
      <trkpt lat="39.854330" lon="2.907750">
        <ele>487.072</ele>
        <time>2020-01-28T14:56:02Z</time>
      </trkpt>
      <trkpt lat="39.854410" lon="2.907860">
        <ele>486.013</ele>
        <time>2020-01-28T14:56:22Z</time>
      </trkpt>
      <trkpt lat="39.855170" lon="2.908550">
        <ele>484.014</ele>
        <time>2020-01-28T14:56:42Z</time>
      </trkpt>
      <trkpt lat="39.855720" lon="2.909090">
        <ele>482.008</ele>
        <time>2020-01-28T14:57:02Z</time>
      </trkpt>
      <trkpt lat="39.856730" lon="2.910190">
        <ele>470.041</ele>
        <time>2020-01-28T14:57:22Z</time>
      </trkpt>
      <trkpt lat="39.856890" lon="2.910320">
        <ele>469.032</ele>
        <time>2020-01-28T14:57:42Z</time>
      </trkpt>
      <trkpt lat="39.857540" lon="2.910470">
        <ele>464.016</ele>
        <time>2020-01-28T14:58:02Z</time>
      </trkpt>
      <trkpt lat="39.857890" lon="2.910490">
        <ele>463.093</ele>
        <time>2020-01-28T14:58:22Z</time>
      </trkpt>
      <trkpt lat="39.858230" lon="2.910470">
        <ele>461.028</ele>
        <time>2020-01-28T14:58:42Z</time>
      </trkpt>
      <trkpt lat="39.858310" lon="2.910490">
        <ele>461.094</ele>
        <time>2020-01-28T14:59:02Z</time>
      </trkpt>
      <trkpt lat="39.858440" lon="2.910630">
        <ele>460.012</ele>
        <time>2020-01-28T14:59:22Z</time>
      </trkpt>
      <trkpt lat="39.858460" lon="2.910730">
        <ele>460.045</ele>
        <time>2020-01-28T14:59:42Z</time>
      </trkpt>
      <trkpt lat="39.858440" lon="2.910870">
        <ele>459.079</ele>
        <time>2020-01-28T15:00:02Z</time>
      </trkpt>
      <trkpt lat="39.858390" lon="2.910970">
        <ele>459.005</ele>
        <time>2020-01-28T15:00:22Z</time>
      </trkpt>
      <trkpt lat="39.856970" lon="2.912430">
        <ele>452.025</ele>
        <time>2020-01-28T15:00:42Z</time>
      </trkpt>
      <trkpt lat="39.856760" lon="2.912770">
        <ele>451.008</ele>
        <time>2020-01-28T15:01:02Z</time>
      </trkpt>
      <trkpt lat="39.856640" lon="2.913140">
        <ele>450.091</ele>
        <time>2020-01-28T15:01:22Z</time>
      </trkpt>
      <trkpt lat="39.856640" lon="2.913240">
        <ele>450.092</ele>
        <time>2020-01-28T15:01:42Z</time>
      </trkpt>
      <trkpt lat="39.856670" lon="2.913370">
        <ele>450.026</ele>
        <time>2020-01-28T15:02:02Z</time>
      </trkpt>
      <trkpt lat="39.856750" lon="2.913560">
        <ele>450.043</ele>
        <time>2020-01-28T15:02:22Z</time>
      </trkpt>
      <trkpt lat="39.857020" lon="2.913980">
        <ele>450.038</ele>
        <time>2020-01-28T15:02:42Z</time>
      </trkpt>
      <trkpt lat="39.857100" lon="2.914060">
        <ele>450.064</ele>
        <time>2020-01-28T15:03:02Z</time>
      </trkpt>
      <trkpt lat="39.857180" lon="2.914090">
        <ele>450.022</ele>
        <time>2020-01-28T15:03:22Z</time>
      </trkpt>
      <trkpt lat="39.858030" lon="2.914020">
        <ele>450.025</ele>
        <time>2020-01-28T15:03:42Z</time>
      </trkpt>
      <trkpt lat="39.858120" lon="2.914050">
        <ele>450.089</ele>
        <time>2020-01-28T15:04:02Z</time>
      </trkpt>
      <trkpt lat="39.858540" lon="2.914270">
        <ele>448.006</ele>
        <time>2020-01-28T15:04:22Z</time>
      </trkpt>
      <trkpt lat="39.858840" lon="2.914450">
        <ele>445.026</ele>
        <time>2020-01-28T15:04:42Z</time>
      </trkpt>
      <trkpt lat="39.858960" lon="2.914560">
        <ele>444.008</ele>
        <time>2020-01-28T15:05:02Z</time>
      </trkpt>
      <trkpt lat="39.859070" lon="2.914690">
        <ele>443.052</ele>
        <time>2020-01-28T15:05:22Z</time>
      </trkpt>
      <trkpt lat="39.859250" lon="2.915010">
        <ele>441.033</ele>
        <time>2020-01-28T15:05:42Z</time>
      </trkpt>
      <trkpt lat="39.859450" lon="2.915430">
        <ele>438.077</ele>
        <time>2020-01-28T15:06:02Z</time>
      </trkpt>
      <trkpt lat="39.859500" lon="2.915490">
        <ele>437.024</ele>
        <time>2020-01-28T15:06:22Z</time>
      </trkpt>
      <trkpt lat="39.859550" lon="2.915510">
        <ele>437.029</ele>
        <time>2020-01-28T15:06:42Z</time>
      </trkpt>
      <trkpt lat="39.859700" lon="2.915510">
        <ele>436.015</ele>
        <time>2020-01-28T15:07:02Z</time>
      </trkpt>
      <trkpt lat="39.860020" lon="2.915420">
        <ele>433.053</ele>
        <time>2020-01-28T15:07:22Z</time>
      </trkpt>
      <trkpt lat="39.860100" lon="2.915430">
        <ele>433.016</ele>
        <time>2020-01-28T15:07:42Z</time>
      </trkpt>
      <trkpt lat="39.860390" lon="2.915590">
        <ele>430.094</ele>
        <time>2020-01-28T15:08:02Z</time>
      </trkpt>
      <trkpt lat="39.860810" lon="2.915890">
        <ele>426.057</ele>
        <time>2020-01-28T15:08:22Z</time>
      </trkpt>
      <trkpt lat="39.860900" lon="2.916000">
        <ele>425.022</ele>
        <time>2020-01-28T15:08:42Z</time>
      </trkpt>
      <trkpt lat="39.861090" lon="2.916440">
        <ele>422.008</ele>
        <time>2020-01-28T15:09:02Z</time>
      </trkpt>
      <trkpt lat="39.861190" lon="2.916540">
        <ele>421.083</ele>
        <time>2020-01-28T15:09:22Z</time>
      </trkpt>
      <trkpt lat="39.861290" lon="2.916590">
        <ele>420.084</ele>
        <time>2020-01-28T15:09:42Z</time>
      </trkpt>
      <trkpt lat="39.861410" lon="2.916590">
        <ele>419.068</ele>
        <time>2020-01-28T15:10:02Z</time>
      </trkpt>
      <trkpt lat="39.862400" lon="2.916350">
        <ele>413.055</ele>
        <time>2020-01-28T15:10:22Z</time>
      </trkpt>
      <trkpt lat="39.862550" lon="2.916340">
        <ele>412.090</ele>
        <time>2020-01-28T15:10:42Z</time>
      </trkpt>
      <trkpt lat="39.862680" lon="2.916390">
        <ele>411.036</ele>
        <time>2020-01-28T15:11:02Z</time>
      </trkpt>
      <trkpt lat="39.862910" lon="2.916570">
        <ele>410.084</ele>
        <time>2020-01-28T15:11:22Z</time>
      </trkpt>
      <trkpt lat="39.863010" lon="2.916740">
        <ele>409.027</ele>
        <time>2020-01-28T15:11:42Z</time>
      </trkpt>
      <trkpt lat="39.863130" lon="2.917040">
        <ele>408.085</ele>
        <time>2020-01-28T15:12:02Z</time>
      </trkpt>
      <trkpt lat="39.863190" lon="2.917130">
        <ele>407.089</ele>
        <time>2020-01-28T15:12:22Z</time>
      </trkpt>
      <trkpt lat="39.863330" lon="2.917240">
        <ele>406.017</ele>
        <time>2020-01-28T15:12:42Z</time>
      </trkpt>
      <trkpt lat="39.863940" lon="2.917490">
        <ele>405.008</ele>
        <time>2020-01-28T15:13:02Z</time>
      </trkpt>
      <trkpt lat="39.864110" lon="2.917610">
        <ele>405.072</ele>
        <time>2020-01-28T15:13:22Z</time>
      </trkpt>
      <trkpt lat="39.864160" lon="2.917680">
        <ele>405.013</ele>
        <time>2020-01-28T15:13:42Z</time>
      </trkpt>
      <trkpt lat="39.864200" lon="2.917800">
        <ele>404.017</ele>
        <time>2020-01-28T15:14:02Z</time>
      </trkpt>
      <trkpt lat="39.864420" lon="2.918530">
        <ele>403.084</ele>
        <time>2020-01-28T15:14:22Z</time>
      </trkpt>
      <trkpt lat="39.864540" lon="2.918820">
        <ele>403.099</ele>
        <time>2020-01-28T15:14:42Z</time>
      </trkpt>
      <trkpt lat="39.864830" lon="2.919190">
        <ele>402.035</ele>
        <time>2020-01-28T15:15:02Z</time>
      </trkpt>
      <trkpt lat="39.865200" lon="2.919820">
        <ele>402.053</ele>
        <time>2020-01-28T15:15:22Z</time>
      </trkpt>
      <trkpt lat="39.865570" lon="2.920380">
        <ele>401.056</ele>
        <time>2020-01-28T15:15:42Z</time>
      </trkpt>
      <trkpt lat="39.865910" lon="2.920800">
        <ele>401.039</ele>
        <time>2020-01-28T15:16:02Z</time>
      </trkpt>
      <trkpt lat="39.865990" lon="2.920940">
        <ele>400.001</ele>
        <time>2020-01-28T15:16:22Z</time>
      </trkpt>
      <trkpt lat="39.866020" lon="2.921060">
        <ele>400.021</ele>
        <time>2020-01-28T15:16:42Z</time>
      </trkpt>
      <trkpt lat="39.866020" lon="2.921200">
        <ele>400.008</ele>
        <time>2020-01-28T15:17:02Z</time>
      </trkpt>
      <trkpt lat="39.865960" lon="2.922070">
        <ele>398.057</ele>
        <time>2020-01-28T15:17:22Z</time>
      </trkpt>
      <trkpt lat="39.865960" lon="2.922330">
        <ele>397.058</ele>
        <time>2020-01-28T15:17:42Z</time>
      </trkpt>
      <trkpt lat="39.866010" lon="2.922630">
        <ele>396.052</ele>
        <time>2020-01-28T15:18:02Z</time>
      </trkpt>
      <trkpt lat="39.866340" lon="2.924200">
        <ele>391.049</ele>
        <time>2020-01-28T15:18:22Z</time>
      </trkpt>
      <trkpt lat="39.866410" lon="2.924310">
        <ele>391.084</ele>
        <time>2020-01-28T15:18:42Z</time>
      </trkpt>
      <trkpt lat="39.866470" lon="2.924350">
        <ele>390.080</ele>
        <time>2020-01-28T15:19:02Z</time>
      </trkpt>
      <trkpt lat="39.866560" lon="2.924370">
        <ele>390.048</ele>
        <time>2020-01-28T15:19:22Z</time>
      </trkpt>
      <trkpt lat="39.866980" lon="2.924360">
        <ele>388.051</ele>
        <time>2020-01-28T15:19:42Z</time>
      </trkpt>
      <trkpt lat="39.867210" lon="2.924400">
        <ele>386.024</ele>
        <time>2020-01-28T15:20:02Z</time>
      </trkpt>
      <trkpt lat="39.868900" lon="2.924910">
        <ele>376.004</ele>
        <time>2020-01-28T15:20:22Z</time>
      </trkpt>
      <trkpt lat="39.869070" lon="2.925000">
        <ele>375.014</ele>
        <time>2020-01-28T15:20:42Z</time>
      </trkpt>
      <trkpt lat="39.869300" lon="2.925230">
        <ele>374.008</ele>
        <time>2020-01-28T15:21:02Z</time>
      </trkpt>
      <trkpt lat="39.869370" lon="2.925360">
        <ele>373.016</ele>
        <time>2020-01-28T15:21:22Z</time>
      </trkpt>
      <trkpt lat="39.869400" lon="2.925540">
        <ele>372.077</ele>
        <time>2020-01-28T15:21:42Z</time>
      </trkpt>
      <trkpt lat="39.869390" lon="2.925690">
        <ele>371.071</ele>
        <time>2020-01-28T15:22:02Z</time>
      </trkpt>
      <trkpt lat="39.869340" lon="2.925870">
        <ele>370.038</ele>
        <time>2020-01-28T15:22:22Z</time>
      </trkpt>
      <trkpt lat="39.869270" lon="2.926050">
        <ele>369.023</ele>
        <time>2020-01-28T15:22:42Z</time>
      </trkpt>
      <trkpt lat="39.869150" lon="2.926260">
        <ele>367.089</ele>
        <time>2020-01-28T15:23:02Z</time>
      </trkpt>
      <trkpt lat="39.868840" lon="2.926670">
        <ele>363.047</ele>
        <time>2020-01-28T15:23:22Z</time>
      </trkpt>
      <trkpt lat="39.868770" lon="2.926810">
        <ele>362.040</ele>
        <time>2020-01-28T15:23:42Z</time>
      </trkpt>
      <trkpt lat="39.868710" lon="2.926970">
        <ele>361.028</ele>
        <time>2020-01-28T15:24:02Z</time>
      </trkpt>
      <trkpt lat="39.868350" lon="2.928530">
        <ele>351.089</ele>
        <time>2020-01-28T15:24:22Z</time>
      </trkpt>
      <trkpt lat="39.868280" lon="2.928650">
        <ele>351.017</ele>
        <time>2020-01-28T15:24:42Z</time>
      </trkpt>
      <trkpt lat="39.868180" lon="2.928710">
        <ele>350.008</ele>
        <time>2020-01-28T15:25:02Z</time>
      </trkpt>
      <trkpt lat="39.868080" lon="2.928720">
        <ele>350.016</ele>
        <time>2020-01-28T15:25:22Z</time>
      </trkpt>
      <trkpt lat="39.868000" lon="2.928700">
        <ele>350.087</ele>
        <time>2020-01-28T15:25:42Z</time>
      </trkpt>
      <trkpt lat="39.867910" lon="2.928600">
        <ele>349.031</ele>
        <time>2020-01-28T15:26:02Z</time>
      </trkpt>
      <trkpt lat="39.867860" lon="2.928480">
        <ele>349.018</ele>
        <time>2020-01-28T15:26:22Z</time>
      </trkpt>
      <trkpt lat="39.867750" lon="2.928110">
        <ele>347.073</ele>
        <time>2020-01-28T15:26:42Z</time>
      </trkpt>
      <trkpt lat="39.867630" lon="2.927790">
        <ele>346.069</ele>
        <time>2020-01-28T15:27:02Z</time>
      </trkpt>
      <trkpt lat="39.867540" lon="2.927670">
        <ele>346.037</ele>
        <time>2020-01-28T15:27:22Z</time>
      </trkpt>
      <trkpt lat="39.867450" lon="2.927610">
        <ele>345.060</ele>
        <time>2020-01-28T15:27:42Z</time>
      </trkpt>
      <trkpt lat="39.867370" lon="2.927590">
        <ele>345.029</ele>
        <time>2020-01-28T15:28:02Z</time>
      </trkpt>
      <trkpt lat="39.867310" lon="2.927590">
        <ele>344.000</ele>
        <time>2020-01-28T15:28:22Z</time>
      </trkpt>
      <trkpt lat="39.867220" lon="2.927680">
        <ele>344.020</ele>
        <time>2020-01-28T15:28:42Z</time>
      </trkpt>
      <trkpt lat="39.867150" lon="2.927790">
        <ele>343.008</ele>
        <time>2020-01-28T15:29:02Z</time>
      </trkpt>
      <trkpt lat="39.866590" lon="2.929260">
        <ele>333.076</ele>
        <time>2020-01-28T15:29:22Z</time>
      </trkpt>
      <trkpt lat="39.866450" lon="2.929440">
        <ele>331.057</ele>
        <time>2020-01-28T15:29:42Z</time>
      </trkpt>
      <trkpt lat="39.866310" lon="2.929560">
        <ele>330.031</ele>
        <time>2020-01-28T15:30:02Z</time>
      </trkpt>
      <trkpt lat="39.866230" lon="2.929680">
        <ele>329.058</ele>
        <time>2020-01-28T15:30:22Z</time>
      </trkpt>
      <trkpt lat="39.866160" lon="2.929880">
        <ele>328.063</ele>
        <time>2020-01-28T15:30:42Z</time>
      </trkpt>
      <trkpt lat="39.866000" lon="2.930560">
        <ele>324.079</ele>
        <time>2020-01-28T15:31:02Z</time>
      </trkpt>
      <trkpt lat="39.865990" lon="2.930710">
        <ele>323.097</ele>
        <time>2020-01-28T15:31:22Z</time>
      </trkpt>
      <trkpt lat="39.866010" lon="2.930820">
        <ele>322.020</ele>
        <time>2020-01-28T15:31:42Z</time>
      </trkpt>
      <trkpt lat="39.866040" lon="2.930890">
        <ele>322.023</ele>
        <time>2020-01-28T15:32:02Z</time>
      </trkpt>
      <trkpt lat="39.866110" lon="2.930960">
        <ele>321.083</ele>
        <time>2020-01-28T15:32:22Z</time>
      </trkpt>
      <trkpt lat="39.866250" lon="2.931050">
        <ele>320.011</ele>
        <time>2020-01-28T15:32:42Z</time>
      </trkpt>
      <trkpt lat="39.866670" lon="2.931220">
        <ele>317.008</ele>
        <time>2020-01-28T15:33:02Z</time>
      </trkpt>
      <trkpt lat="39.866800" lon="2.931280">
        <ele>316.076</ele>
        <time>2020-01-28T15:33:22Z</time>
      </trkpt>
      <trkpt lat="39.866890" lon="2.931350">
        <ele>315.087</ele>
        <time>2020-01-28T15:33:42Z</time>
      </trkpt>
      <trkpt lat="39.866970" lon="2.931500">
        <ele>314.081</ele>
        <time>2020-01-28T15:34:02Z</time>
      </trkpt>
      <trkpt lat="39.867270" lon="2.932400">
        <ele>307.068</ele>
        <time>2020-01-28T15:34:22Z</time>
      </trkpt>
      <trkpt lat="39.867310" lon="2.932610">
        <ele>306.083</ele>
        <time>2020-01-28T15:34:42Z</time>
      </trkpt>
      <trkpt lat="39.867300" lon="2.932750">
        <ele>305.059</ele>
        <time>2020-01-28T15:35:02Z</time>
      </trkpt>
      <trkpt lat="39.867260" lon="2.932870">
        <ele>304.027</ele>
        <time>2020-01-28T15:35:22Z</time>
      </trkpt>
      <trkpt lat="39.866870" lon="2.933360">
        <ele>300.080</ele>
        <time>2020-01-28T15:35:42Z</time>
      </trkpt>
      <trkpt lat="39.866740" lon="2.933640">
        <ele>298.026</ele>
        <time>2020-01-28T15:36:02Z</time>
      </trkpt>
      <trkpt lat="39.866700" lon="2.933890">
        <ele>296.047</ele>
        <time>2020-01-28T15:36:22Z</time>
      </trkpt>
      <trkpt lat="39.866580" lon="2.935540">
        <ele>292.011</ele>
        <time>2020-01-28T15:36:42Z</time>
      </trkpt>
      <trkpt lat="39.866710" lon="2.936320">
        <ele>290.008</ele>
        <time>2020-01-28T15:37:02Z</time>
      </trkpt>
      <trkpt lat="39.866890" lon="2.937300">
        <ele>282.066</ele>
        <time>2020-01-28T15:37:22Z</time>
      </trkpt>
      <trkpt lat="39.866990" lon="2.937680">
        <ele>279.037</ele>
        <time>2020-01-28T15:37:42Z</time>
      </trkpt>
      <trkpt lat="39.867120" lon="2.938080">
        <ele>276.031</ele>
        <time>2020-01-28T15:38:02Z</time>
      </trkpt>
      <trkpt lat="39.867250" lon="2.938550">
        <ele>272.038</ele>
        <time>2020-01-28T15:38:22Z</time>
      </trkpt>
      <trkpt lat="39.867300" lon="2.939330">
        <ele>266.013</ele>
        <time>2020-01-28T15:38:42Z</time>
      </trkpt>
      <trkpt lat="39.867380" lon="2.939520">
        <ele>265.049</ele>
        <time>2020-01-28T15:39:02Z</time>
      </trkpt>
      <trkpt lat="39.867580" lon="2.939780">
        <ele>263.027</ele>
        <time>2020-01-28T15:39:22Z</time>
      </trkpt>
      <trkpt lat="39.868170" lon="2.940430">
        <ele>257.010</ele>
        <time>2020-01-28T15:39:42Z</time>
      </trkpt>
      <trkpt lat="39.868640" lon="2.940800">
        <ele>253.024</ele>
        <time>2020-01-28T15:40:02Z</time>
      </trkpt>
      <trkpt lat="39.868790" lon="2.940870">
        <ele>251.004</ele>
        <time>2020-01-28T15:40:22Z</time>
      </trkpt>
      <trkpt lat="39.869170" lon="2.940960">
        <ele>246.014</ele>
        <time>2020-01-28T15:40:42Z</time>
      </trkpt>
      <trkpt lat="39.869270" lon="2.941050">
        <ele>245.008</ele>
        <time>2020-01-28T15:41:02Z</time>
      </trkpt>
      <trkpt lat="39.869310" lon="2.941140">
        <ele>244.066</ele>
        <time>2020-01-28T15:41:22Z</time>
      </trkpt>
      <trkpt lat="39.869340" lon="2.941280">
        <ele>243.087</ele>
        <time>2020-01-28T15:41:42Z</time>
      </trkpt>
      <trkpt lat="39.869370" lon="2.941700">
        <ele>239.011</ele>
        <time>2020-01-28T15:42:02Z</time>
      </trkpt>
      <trkpt lat="39.869740" lon="2.942940">
        <ele>229.038</ele>
        <time>2020-01-28T15:42:22Z</time>
      </trkpt>
      <trkpt lat="39.869770" lon="2.943110">
        <ele>229.053</ele>
        <time>2020-01-28T15:42:42Z</time>
      </trkpt>
      <trkpt lat="39.869760" lon="2.943250">
        <ele>229.069</ele>
        <time>2020-01-28T15:43:02Z</time>
      </trkpt>
      <trkpt lat="39.869710" lon="2.943340">
        <ele>229.047</ele>
        <time>2020-01-28T15:43:22Z</time>
      </trkpt>
      <trkpt lat="39.869620" lon="2.943440">
        <ele>229.080</ele>
        <time>2020-01-28T15:43:42Z</time>
      </trkpt>
      <trkpt lat="39.869520" lon="2.943510">
        <ele>229.057</ele>
        <time>2020-01-28T15:44:02Z</time>
      </trkpt>
      <trkpt lat="39.869340" lon="2.943490">
        <ele>229.000</ele>
        <time>2020-01-28T15:44:22Z</time>
      </trkpt>
      <trkpt lat="39.869240" lon="2.943410">
        <ele>229.020</ele>
        <time>2020-01-28T15:44:42Z</time>
      </trkpt>
      <trkpt lat="39.869170" lon="2.943270">
        <ele>229.008</ele>
        <time>2020-01-28T15:45:02Z</time>
      </trkpt>
      <trkpt lat="39.868930" lon="2.942260">
        <ele>229.059</ele>
        <time>2020-01-28T15:45:22Z</time>
      </trkpt>
      <trkpt lat="39.868920" lon="2.942020">
        <ele>227.060</ele>
        <time>2020-01-28T15:45:42Z</time>
      </trkpt>
      <trkpt lat="39.868950" lon="2.941840">
        <ele>226.094</ele>
        <time>2020-01-28T15:46:02Z</time>
      </trkpt>
      <trkpt lat="39.868950" lon="2.941670">
        <ele>225.061</ele>
        <time>2020-01-28T15:46:22Z</time>
      </trkpt>
      <trkpt lat="39.868920" lon="2.941580">
        <ele>224.076</ele>
        <time>2020-01-28T15:46:42Z</time>
      </trkpt>
      <trkpt lat="39.868870" lon="2.941510">
        <ele>223.032</ele>
        <time>2020-01-28T15:47:02Z</time>
      </trkpt>
      <trkpt lat="39.868800" lon="2.941460">
        <ele>223.060</ele>
        <time>2020-01-28T15:47:22Z</time>
      </trkpt>
      <trkpt lat="39.868380" lon="2.941420">
        <ele>219.083</ele>
        <time>2020-01-28T15:47:42Z</time>
      </trkpt>
      <trkpt lat="39.867750" lon="2.941200">
        <ele>213.074</ele>
        <time>2020-01-28T15:48:02Z</time>
      </trkpt>
      <trkpt lat="39.867310" lon="2.940950">
        <ele>209.056</ele>
        <time>2020-01-28T15:48:22Z</time>
      </trkpt>
      <trkpt lat="39.867050" lon="2.940760">
        <ele>206.021</ele>
        <time>2020-01-28T15:48:42Z</time>
      </trkpt>
      <trkpt lat="39.866360" lon="2.939600">
        <ele>196.008</ele>
        <time>2020-01-28T15:49:02Z</time>
      </trkpt>
      <trkpt lat="39.866300" lon="2.939440">
        <ele>195.091</ele>
        <time>2020-01-28T15:49:22Z</time>
      </trkpt>
      <trkpt lat="39.866240" lon="2.938910">
        <ele>192.042</ele>
        <time>2020-01-28T15:49:42Z</time>
      </trkpt>
      <trkpt lat="39.866150" lon="2.938670">
        <ele>190.066</ele>
        <time>2020-01-28T15:50:02Z</time>
      </trkpt>
      <trkpt lat="39.866080" lon="2.938620">
        <ele>190.093</ele>
        <time>2020-01-28T15:50:22Z</time>
      </trkpt>
      <trkpt lat="39.866000" lon="2.938610">
        <ele>189.028</ele>
        <time>2020-01-28T15:50:42Z</time>
      </trkpt>
      <trkpt lat="39.865930" lon="2.938640">
        <ele>189.034</ele>
        <time>2020-01-28T15:51:02Z</time>
      </trkpt>
      <trkpt lat="39.865880" lon="2.938670">
        <ele>188.062</ele>
        <time>2020-01-28T15:51:22Z</time>
      </trkpt>
      <trkpt lat="39.865830" lon="2.938740">
        <ele>188.025</ele>
        <time>2020-01-28T15:51:42Z</time>
      </trkpt>
      <trkpt lat="39.865800" lon="2.938820">
        <ele>187.055</ele>
        <time>2020-01-28T15:52:02Z</time>
      </trkpt>
      <trkpt lat="39.865790" lon="2.938910">
        <ele>187.007</ele>
        <time>2020-01-28T15:52:22Z</time>
      </trkpt>
      <trkpt lat="39.865840" lon="2.939100">
        <ele>186.017</ele>
        <time>2020-01-28T15:52:42Z</time>
      </trkpt>
      <trkpt lat="39.866200" lon="2.940310">
        <ele>179.008</ele>
        <time>2020-01-28T15:53:02Z</time>
      </trkpt>
      <trkpt lat="39.866460" lon="2.941020">
        <ele>175.059</ele>
        <time>2020-01-28T15:53:22Z</time>
      </trkpt>
      <trkpt lat="39.866530" lon="2.941320">
        <ele>174.050</ele>
        <time>2020-01-28T15:53:42Z</time>
      </trkpt>
      <trkpt lat="39.866590" lon="2.941760">
        <ele>172.034</ele>
        <time>2020-01-28T15:54:02Z</time>
      </trkpt>
      <trkpt lat="39.866640" lon="2.941920">
        <ele>172.061</ele>
        <time>2020-01-28T15:54:22Z</time>
      </trkpt>
      <trkpt lat="39.867120" lon="2.942710">
        <ele>167.046</ele>
        <time>2020-01-28T15:54:42Z</time>
      </trkpt>
      <trkpt lat="39.867280" lon="2.942930">
        <ele>167.072</ele>
        <time>2020-01-28T15:55:02Z</time>
      </trkpt>
      <trkpt lat="39.867820" lon="2.943440">
        <ele>165.050</ele>
        <time>2020-01-28T15:55:22Z</time>
      </trkpt>
      <trkpt lat="39.867880" lon="2.943520">
        <ele>165.033</ele>
        <time>2020-01-28T15:55:42Z</time>
      </trkpt>
      <trkpt lat="39.867910" lon="2.943640">
        <ele>165.081</ele>
        <time>2020-01-28T15:56:02Z</time>
      </trkpt>
      <trkpt lat="39.867980" lon="2.944030">
        <ele>164.061</ele>
        <time>2020-01-28T15:56:22Z</time>
      </trkpt>
      <trkpt lat="39.868050" lon="2.944280">
        <ele>164.017</ele>
        <time>2020-01-28T15:56:42Z</time>
      </trkpt>
      <trkpt lat="39.868190" lon="2.944680">
        <ele>163.008</ele>
        <time>2020-01-28T15:57:02Z</time>
      </trkpt>
      <trkpt lat="39.868380" lon="2.945090">
        <ele>160.092</ele>
        <time>2020-01-28T15:57:22Z</time>
      </trkpt>
      <trkpt lat="39.868480" lon="2.945210">
        <ele>158.053</ele>
        <time>2020-01-28T15:57:42Z</time>
      </trkpt>
      <trkpt lat="39.869280" lon="2.945870">
        <ele>148.037</ele>
        <time>2020-01-28T15:58:02Z</time>
      </trkpt>
      <trkpt lat="39.869330" lon="2.945950">
        <ele>147.034</ele>
        <time>2020-01-28T15:58:22Z</time>
      </trkpt>
      <trkpt lat="39.869390" lon="2.946100">
        <ele>146.039</ele>
        <time>2020-01-28T15:58:42Z</time>
      </trkpt>
      <trkpt lat="39.869390" lon="2.946240">
        <ele>145.055</ele>
        <time>2020-01-28T15:59:02Z</time>
      </trkpt>
      <trkpt lat="39.869370" lon="2.946380">
        <ele>144.083</ele>
        <time>2020-01-28T15:59:22Z</time>
      </trkpt>
      <trkpt lat="39.869210" lon="2.946660">
        <ele>141.086</ele>
        <time>2020-01-28T15:59:42Z</time>
      </trkpt>
      <trkpt lat="39.869160" lon="2.946800">
        <ele>140.047</ele>
        <time>2020-01-28T16:00:02Z</time>
      </trkpt>
      <trkpt lat="39.869140" lon="2.946960">
        <ele>138.029</ele>
        <time>2020-01-28T16:00:22Z</time>
      </trkpt>
      <trkpt lat="39.869120" lon="2.947200">
        <ele>136.021</ele>
        <time>2020-01-28T16:00:42Z</time>
      </trkpt>
      <trkpt lat="39.869180" lon="2.948690">
        <ele>122.008</ele>
        <time>2020-01-28T16:01:02Z</time>
      </trkpt>
      <trkpt lat="39.869160" lon="2.948870">
        <ele>121.048</ele>
        <time>2020-01-28T16:01:22Z</time>
      </trkpt>
      <trkpt lat="39.868820" lon="2.950420">
        <ele>115.069</ele>
        <time>2020-01-28T16:01:42Z</time>
      </trkpt>
      <trkpt lat="39.868570" lon="2.950970">
        <ele>113.033</ele>
        <time>2020-01-28T16:02:02Z</time>
      </trkpt>
      <trkpt lat="39.868460" lon="2.951370">
        <ele>112.050</ele>
        <time>2020-01-28T16:02:22Z</time>
      </trkpt>
      <trkpt lat="39.868320" lon="2.953290">
        <ele>112.055</ele>
        <time>2020-01-28T16:02:42Z</time>
      </trkpt>
      <trkpt lat="39.868330" lon="2.953440">
        <ele>112.091</ele>
        <time>2020-01-28T16:03:02Z</time>
      </trkpt>
      <trkpt lat="39.868420" lon="2.953810">
        <ele>112.039</ele>
        <time>2020-01-28T16:03:22Z</time>
      </trkpt>
      <trkpt lat="39.869260" lon="2.956530">
        <ele>105.082</ele>
        <time>2020-01-28T16:03:42Z</time>
      </trkpt>
      <trkpt lat="39.869350" lon="2.956840">
        <ele>104.032</ele>
        <time>2020-01-28T16:04:02Z</time>
      </trkpt>
      <trkpt lat="39.869410" lon="2.957200">
        <ele>104.092</ele>
        <time>2020-01-28T16:04:22Z</time>
      </trkpt>
      <trkpt lat="39.869480" lon="2.957870">
        <ele>103.011</ele>
        <time>2020-01-28T16:04:42Z</time>
      </trkpt>
      <trkpt lat="39.869690" lon="2.960420">
        <ele>101.008</ele>
        <time>2020-01-28T16:05:02Z</time>
      </trkpt>
      <trkpt lat="39.869850" lon="2.962070">
        <ele>99.037</ele>
        <time>2020-01-28T16:05:22Z</time>
      </trkpt>
      <trkpt lat="39.869830" lon="2.962380">
        <ele>99.078</ele>
        <time>2020-01-28T16:05:42Z</time>
      </trkpt>
      <trkpt lat="39.869810" lon="2.962510">
        <ele>99.012</ele>
        <time>2020-01-28T16:06:02Z</time>
      </trkpt>
      <trkpt lat="39.868580" lon="2.967630">
        <ele>95.029</ele>
        <time>2020-01-28T16:06:22Z</time>
      </trkpt>
      <trkpt lat="39.868590" lon="2.967630">
        <ele>95.094</ele>
        <time>2020-01-28T16:06:42Z</time>
      </trkpt>
      <trkpt lat="39.867610" lon="2.971640">
        <ele>92.070</ele>
        <time>2020-01-28T16:07:02Z</time>
      </trkpt>
      <trkpt lat="39.867590" lon="2.972090">
        <ele>91.068</ele>
        <time>2020-01-28T16:07:22Z</time>
      </trkpt>
      <trkpt lat="39.867630" lon="2.972370">
        <ele>91.051</ele>
        <time>2020-01-28T16:07:42Z</time>
      </trkpt>
      <trkpt lat="39.868840" lon="2.977570">
        <ele>83.041</ele>
        <time>2020-01-28T16:08:02Z</time>
      </trkpt>
      <trkpt lat="39.869280" lon="2.979410">
        <ele>83.081</ele>
        <time>2020-01-28T16:08:22Z</time>
      </trkpt>
      <trkpt lat="39.869360" lon="2.979680">
        <ele>82.009</ele>
        <time>2020-01-28T16:08:42Z</time>
      </trkpt>
      <trkpt lat="39.870400" lon="2.982060">
        <ele>81.008</ele>
        <time>2020-01-28T16:09:02Z</time>
      </trkpt>
      <trkpt lat="39.870490" lon="2.982190">
        <ele>81.048</ele>
        <time>2020-01-28T16:09:22Z</time>
      </trkpt>
      <trkpt lat="39.871060" lon="2.982780">
        <ele>83.019</ele>
        <time>2020-01-28T16:09:42Z</time>
      </trkpt>
      <trkpt lat="39.871460" lon="2.983240">
        <ele>85.083</ele>
        <time>2020-01-28T16:10:02Z</time>
      </trkpt>
      <trkpt lat="39.871680" lon="2.983540">
        <ele>86.030</ele>
        <time>2020-01-28T16:10:22Z</time>
      </trkpt>
      <trkpt lat="39.872040" lon="2.984490">
        <ele>84.065</ele>
        <time>2020-01-28T16:10:42Z</time>
      </trkpt>
      <trkpt lat="39.872380" lon="2.985470">
        <ele>80.021</ele>
        <time>2020-01-28T16:11:02Z</time>
      </trkpt>
      <trkpt lat="39.874050" lon="2.989850">
        <ele>81.069</ele>
        <time>2020-01-28T16:11:22Z</time>
      </trkpt>
      <trkpt lat="39.874170" lon="2.990260">
        <ele>79.082</ele>
        <time>2020-01-28T16:11:42Z</time>
      </trkpt>
      <trkpt lat="39.874730" lon="2.992780">
        <ele>72.094</ele>
        <time>2020-01-28T16:12:02Z</time>
      </trkpt>
      <trkpt lat="39.874820" lon="2.993180">
        <ele>70.057</ele>
        <time>2020-01-28T16:12:22Z</time>
      </trkpt>
      <trkpt lat="39.874860" lon="2.993280">
        <ele>70.022</ele>
        <time>2020-01-28T16:12:42Z</time>
      </trkpt>
      <trkpt lat="39.874810" lon="2.993350">
        <ele>70.008</ele>
        <time>2020-01-28T16:13:02Z</time>
      </trkpt>
      <trkpt lat="39.875150" lon="2.994330">
        <ele>68.063</ele>
        <time>2020-01-28T16:13:22Z</time>
      </trkpt>
      <trkpt lat="39.875200" lon="2.994550">
        <ele>67.064</ele>
        <time>2020-01-28T16:13:42Z</time>
      </trkpt>
      <trkpt lat="39.875200" lon="2.994700">
        <ele>67.048</ele>
        <time>2020-01-28T16:14:02Z</time>
      </trkpt>
      <trkpt lat="39.875170" lon="2.994840">
        <ele>67.055</ele>
        <time>2020-01-28T16:14:22Z</time>
      </trkpt>
      <trkpt lat="39.875150" lon="2.995010">
        <ele>66.050</ele>
        <time>2020-01-28T16:14:42Z</time>
      </trkpt>
      <trkpt lat="39.875170" lon="2.995870">
        <ele>65.046</ele>
        <time>2020-01-28T16:15:02Z</time>
      </trkpt>
      <trkpt lat="39.875220" lon="2.996380">
        <ele>64.074</ele>
        <time>2020-01-28T16:15:22Z</time>
      </trkpt>
      <trkpt lat="39.875240" lon="2.996460">
        <ele>64.017</ele>
        <time>2020-01-28T16:15:42Z</time>
      </trkpt>
      <trkpt lat="39.875850" lon="2.997490">
        <ele>62.025</ele>
        <time>2020-01-28T16:16:02Z</time>
      </trkpt>
      <trkpt lat="39.875850" lon="2.997490">
        <ele>62.026</ele>
        <time>2020-01-28T16:16:22Z</time>
      </trkpt>
      <trkpt lat="39.876380" lon="2.998390">
        <ele>60.008</ele>
        <time>2020-01-28T16:16:42Z</time>
      </trkpt>
      <trkpt lat="39.877500" lon="2.999980">
        <ele>60.008</ele>
        <time>2020-01-28T16:17:02Z</time>
      </trkpt>
      <trkpt lat="39.878110" lon="3.000930">
        <ele>59.046</ele>
        <time>2020-01-28T16:17:22Z</time>
      </trkpt>
      <trkpt lat="39.878150" lon="3.001180">
        <ele>59.077</ele>
        <time>2020-01-28T16:17:42Z</time>
      </trkpt>
      <trkpt lat="39.878220" lon="3.002350">
        <ele>59.061</ele>
        <time>2020-01-28T16:18:02Z</time>
      </trkpt>
      <trkpt lat="39.878200" lon="3.002510">
        <ele>59.048</ele>
        <time>2020-01-28T16:18:22Z</time>
      </trkpt>
      <trkpt lat="39.878120" lon="3.002760">
        <ele>58.053</ele>
        <time>2020-01-28T16:18:42Z</time>
      </trkpt>
      <trkpt lat="39.878350" lon="3.003050">
        <ele>58.029</ele>
        <time>2020-01-28T16:19:02Z</time>
      </trkpt>
      <trkpt lat="39.878730" lon="3.004470">
        <ele>58.047</ele>
        <time>2020-01-28T16:19:22Z</time>
      </trkpt>
      <trkpt lat="39.878890" lon="3.005000">
        <ele>58.050</ele>
        <time>2020-01-28T16:19:42Z</time>
      </trkpt>
      <trkpt lat="39.879050" lon="3.005400">
        <ele>58.025</ele>
        <time>2020-01-28T16:20:02Z</time>
      </trkpt>
      <trkpt lat="39.879180" lon="3.005890">
        <ele>59.026</ele>
        <time>2020-01-28T16:20:22Z</time>
      </trkpt>
      <trkpt lat="39.879260" lon="3.006230">
        <ele>60.008</ele>
        <time>2020-01-28T16:20:42Z</time>
      </trkpt>
      <trkpt lat="39.879260" lon="3.006220">
        <ele>60.008</ele>
        <time>2020-01-28T16:21:02Z</time>
      </trkpt>
      <trkpt lat="39.879340" lon="3.006610">
        <ele>60.056</ele>
        <time>2020-01-28T16:21:22Z</time>
      </trkpt>
      <trkpt lat="39.879430" lon="3.007110">
        <ele>61.037</ele>
        <time>2020-01-28T16:21:42Z</time>
      </trkpt>
      <trkpt lat="39.879390" lon="3.008630">
        <ele>65.071</ele>
        <time>2020-01-28T16:22:02Z</time>
      </trkpt>
      <trkpt lat="39.879400" lon="3.008970">
        <ele>66.028</ele>
        <time>2020-01-28T16:22:22Z</time>
      </trkpt>
      <trkpt lat="39.879420" lon="3.009090">
        <ele>66.043</ele>
        <time>2020-01-28T16:22:42Z</time>
      </trkpt>
      <trkpt lat="39.879480" lon="3.009200">
        <ele>66.069</ele>
        <time>2020-01-28T16:23:02Z</time>
      </trkpt>
      <trkpt lat="39.880140" lon="3.009880">
        <ele>69.057</ele>
        <time>2020-01-28T16:23:22Z</time>
      </trkpt>
      <trkpt lat="39.880570" lon="3.010440">
        <ele>69.030</ele>
        <time>2020-01-28T16:23:42Z</time>
      </trkpt>
      <trkpt lat="39.880720" lon="3.010590">
        <ele>69.048</ele>
        <time>2020-01-28T16:24:02Z</time>
      </trkpt>
      <trkpt lat="39.880740" lon="3.010690">
        <ele>69.061</ele>
        <time>2020-01-28T16:24:22Z</time>
      </trkpt>
      <trkpt lat="39.881060" lon="3.011000">
        <ele>69.017</ele>
        <time>2020-01-28T16:24:42Z</time>
      </trkpt>
      <trkpt lat="39.881350" lon="3.011410">
        <ele>69.008</ele>
        <time>2020-01-28T16:25:02Z</time>
      </trkpt>
      <trkpt lat="39.881630" lon="3.011730">
        <ele>67.068</ele>
        <time>2020-01-28T16:25:22Z</time>
      </trkpt>
      <trkpt lat="39.881800" lon="3.011960">
        <ele>65.039</ele>
        <time>2020-01-28T16:25:42Z</time>
      </trkpt>
      <trkpt lat="39.881960" lon="3.012250">
        <ele>64.033</ele>
        <time>2020-01-28T16:26:02Z</time>
      </trkpt>
      <trkpt lat="39.882070" lon="3.012510">
        <ele>62.090</ele>
        <time>2020-01-28T16:26:22Z</time>
      </trkpt>
      <trkpt lat="39.882060" lon="3.012610">
        <ele>62.095</ele>
        <time>2020-01-28T16:26:42Z</time>
      </trkpt>
      <trkpt lat="39.882070" lon="3.012640">
        <ele>62.061</ele>
        <time>2020-01-28T16:27:02Z</time>
      </trkpt>
      <trkpt lat="39.882050" lon="3.012800">
        <ele>61.019</ele>
        <time>2020-01-28T16:27:22Z</time>
      </trkpt>
      <trkpt lat="39.881910" lon="3.013360">
        <ele>58.082</ele>
        <time>2020-01-28T16:27:42Z</time>
      </trkpt>
      <trkpt lat="39.881830" lon="3.013940">
        <ele>55.092</ele>
        <time>2020-01-28T16:28:02Z</time>
      </trkpt>
      <trkpt lat="39.881700" lon="3.014460">
        <ele>55.073</ele>
        <time>2020-01-28T16:28:22Z</time>
      </trkpt>
      <trkpt lat="39.881680" lon="3.014630">
        <ele>55.020</ele>
        <time>2020-01-28T16:28:42Z</time>
      </trkpt>
      <trkpt lat="39.881440" lon="3.014910">
        <ele>55.008</ele>
        <time>2020-01-28T16:29:02Z</time>
      </trkpt>
      <trkpt lat="39.880630" lon="3.015380">
        <ele>55.043</ele>
        <time>2020-01-28T16:29:22Z</time>
      </trkpt>
      <trkpt lat="39.879940" lon="3.015820">
        <ele>54.064</ele>
        <time>2020-01-28T16:29:42Z</time>
      </trkpt>
      <trkpt lat="39.879760" lon="3.015980">
        <ele>54.078</ele>
        <time>2020-01-28T16:30:02Z</time>
      </trkpt>
      <trkpt lat="39.879570" lon="3.016080">
        <ele>54.025</ele>
        <time>2020-01-28T16:30:22Z</time>
      </trkpt>
      <trkpt lat="39.879660" lon="3.016250">
        <ele>53.020</ele>
        <time>2020-01-28T16:30:42Z</time>
      </trkpt>
      <trkpt lat="39.879660" lon="3.016240">
        <ele>53.016</ele>
        <time>2020-01-28T16:31:02Z</time>
      </trkpt>
      <trkpt lat="39.879870" lon="3.016630">
        <ele>53.064</ele>
        <time>2020-01-28T16:31:22Z</time>
      </trkpt>
      <trkpt lat="39.880340" lon="3.016360">
        <ele>52.067</ele>
        <time>2020-01-28T16:31:42Z</time>
      </trkpt>
      <trkpt lat="39.880500" lon="3.016950">
        <ele>52.051</ele>
        <time>2020-01-28T16:32:02Z</time>
      </trkpt>
      <trkpt lat="39.881200" lon="3.016730">
        <ele>51.001</ele>
        <time>2020-01-28T16:32:22Z</time>
      </trkpt>
      <trkpt lat="39.881900" lon="3.019290">
        <ele>48.011</ele>
        <time>2020-01-28T16:32:42Z</time>
      </trkpt>
      <trkpt lat="39.882330" lon="3.020390">
        <ele>47.008</ele>
        <time>2020-01-28T16:33:02Z</time>
      </trkpt>
      <trkpt lat="39.882370" lon="3.020940">
        <ele>47.019</ele>
        <time>2020-01-28T16:33:22Z</time>
      </trkpt>
      <trkpt lat="39.882510" lon="3.021780">
        <ele>47.010</ele>
        <time>2020-01-28T16:33:42Z</time>
      </trkpt>
      <trkpt lat="39.882600" lon="3.022390">
        <ele>47.034</ele>
        <time>2020-01-28T16:34:02Z</time>
      </trkpt>
      <trkpt lat="39.882520" lon="3.022820">
        <ele>46.011</ele>
        <time>2020-01-28T16:34:22Z</time>
      </trkpt>
      <trkpt lat="39.882560" lon="3.022970">
        <ele>46.026</ele>
        <time>2020-01-28T16:34:42Z</time>
      </trkpt>
      <trkpt lat="39.882940" lon="3.023980">
        <ele>44.092</ele>
        <time>2020-01-28T16:35:02Z</time>
      </trkpt>
      <trkpt lat="39.883110" lon="3.024690">
        <ele>43.030</ele>
        <time>2020-01-28T16:35:22Z</time>
      </trkpt>
      <trkpt lat="39.883440" lon="3.025120">
        <ele>41.053</ele>
        <time>2020-01-28T16:35:42Z</time>
      </trkpt>
      <trkpt lat="39.883610" lon="3.025360">
        <ele>41.076</ele>
        <time>2020-01-28T16:36:02Z</time>
      </trkpt>
      <trkpt lat="39.883770" lon="3.025960">
        <ele>41.090</ele>
        <time>2020-01-28T16:36:22Z</time>
      </trkpt>
      <trkpt lat="39.883690" lon="3.026370">
        <ele>40.019</ele>
        <time>2020-01-28T16:36:42Z</time>
      </trkpt>
      <trkpt lat="39.883670" lon="3.026900">
        <ele>40.008</ele>
        <time>2020-01-28T16:37:02Z</time>
      </trkpt>
      <trkpt lat="39.883610" lon="3.029240">
        <ele>40.071</ele>
        <time>2020-01-28T16:37:22Z</time>
      </trkpt>
      <trkpt lat="39.883590" lon="3.030750">
        <ele>40.092</ele>
        <time>2020-01-28T16:37:42Z</time>
      </trkpt>
      <trkpt lat="39.883270" lon="3.031770">
        <ele>40.066</ele>
        <time>2020-01-28T16:38:02Z</time>
      </trkpt>
      <trkpt lat="39.883000" lon="3.033540">
        <ele>37.083</ele>
        <time>2020-01-28T16:38:22Z</time>
      </trkpt>
      <trkpt lat="39.882950" lon="3.034560">
        <ele>35.038</ele>
        <time>2020-01-28T16:38:42Z</time>
      </trkpt>
      <trkpt lat="39.882970" lon="3.034900">
        <ele>34.094</ele>
        <time>2020-01-28T16:39:02Z</time>
      </trkpt>
      <trkpt lat="39.883020" lon="3.035100">
        <ele>33.092</ele>
        <time>2020-01-28T16:39:22Z</time>
      </trkpt>
      <trkpt lat="39.883420" lon="3.036210">
        <ele>32.015</ele>
        <time>2020-01-28T16:39:42Z</time>
      </trkpt>
      <trkpt lat="39.883450" lon="3.036440">
        <ele>32.072</ele>
        <time>2020-01-28T16:40:02Z</time>
      </trkpt>
      <trkpt lat="39.883430" lon="3.036650">
        <ele>32.013</ele>
        <time>2020-01-28T16:40:22Z</time>
      </trkpt>
      <trkpt lat="39.883090" lon="3.037830">
        <ele>31.014</ele>
        <time>2020-01-28T16:40:42Z</time>
      </trkpt>
      <trkpt lat="39.883050" lon="3.038070">
        <ele>31.008</ele>
        <time>2020-01-28T16:41:02Z</time>
      </trkpt>
      <trkpt lat="39.883060" lon="3.038290">
        <ele>31.041</ele>
        <time>2020-01-28T16:41:22Z</time>
      </trkpt>
      <trkpt lat="39.883340" lon="3.039860">
        <ele>28.072</ele>
        <time>2020-01-28T16:41:42Z</time>
      </trkpt>
      <trkpt lat="39.883420" lon="3.040260">
        <ele>28.076</ele>
        <time>2020-01-28T16:42:02Z</time>
      </trkpt>
      <trkpt lat="39.883770" lon="3.042270">
        <ele>25.023</ele>
        <time>2020-01-28T16:42:22Z</time>
      </trkpt>
      <trkpt lat="39.883860" lon="3.042930">
        <ele>24.078</ele>
        <time>2020-01-28T16:42:42Z</time>
      </trkpt>
      <trkpt lat="39.883910" lon="3.043650">
        <ele>23.024</ele>
        <time>2020-01-28T16:43:02Z</time>
      </trkpt>
      <trkpt lat="39.883770" lon="3.044430">
        <ele>23.052</ele>
        <time>2020-01-28T16:43:22Z</time>
      </trkpt>
      <trkpt lat="39.883740" lon="3.044830">
        <ele>23.025</ele>
        <time>2020-01-28T16:43:42Z</time>
      </trkpt>
      <trkpt lat="39.883740" lon="3.045260">
        <ele>23.052</ele>
        <time>2020-01-28T16:44:02Z</time>
      </trkpt>
      <trkpt lat="39.883970" lon="3.046000">
        <ele>22.053</ele>
        <time>2020-01-28T16:44:22Z</time>
      </trkpt>
      <trkpt lat="39.884970" lon="3.048870">
        <ele>18.008</ele>
        <time>2020-01-28T16:44:42Z</time>
      </trkpt>
      <trkpt lat="39.885210" lon="3.049750">
        <ele>17.008</ele>
        <time>2020-01-28T16:45:02Z</time>
      </trkpt>
      <trkpt lat="39.885210" lon="3.049920">
        <ele>17.019</ele>
        <time>2020-01-28T16:45:22Z</time>
      </trkpt>
      <trkpt lat="39.885050" lon="3.050770">
        <ele>16.020</ele>
        <time>2020-01-28T16:45:42Z</time>
      </trkpt>
      <trkpt lat="39.884960" lon="3.051390">
        <ele>15.014</ele>
        <time>2020-01-28T16:46:02Z</time>
      </trkpt>
      <trkpt lat="39.884460" lon="3.054030">
        <ele>13.091</ele>
        <time>2020-01-28T16:46:22Z</time>
      </trkpt>
      <trkpt lat="39.884330" lon="3.054430">
        <ele>13.016</ele>
        <time>2020-01-28T16:46:42Z</time>
      </trkpt>
      <trkpt lat="39.883590" lon="3.056570">
        <ele>12.032</ele>
        <time>2020-01-28T16:47:02Z</time>
      </trkpt>
      <trkpt lat="39.883370" lon="3.057380">
        <ele>12.090</ele>
        <time>2020-01-28T16:47:22Z</time>
      </trkpt>
      <trkpt lat="39.882630" lon="3.059520">
        <ele>12.063</ele>
        <time>2020-01-28T16:47:42Z</time>
      </trkpt>
      <trkpt lat="39.882490" lon="3.060250">
        <ele>12.021</ele>
        <time>2020-01-28T16:48:02Z</time>
      </trkpt>
      <trkpt lat="39.882550" lon="3.060330">
        <ele>12.041</ele>
        <time>2020-01-28T16:48:22Z</time>
      </trkpt>
      <trkpt lat="39.882560" lon="3.060330">
        <ele>12.005</ele>
        <time>2020-01-28T16:48:42Z</time>
      </trkpt>
      <trkpt lat="39.882720" lon="3.060550">
        <ele>12.008</ele>
        <time>2020-01-28T16:49:02Z</time>
      </trkpt>
      <trkpt lat="39.883280" lon="3.061750">
        <ele>10.026</ele>
        <time>2020-01-28T16:49:22Z</time>
      </trkpt>
      <trkpt lat="39.883540" lon="3.062050">
        <ele>9.097</ele>
        <time>2020-01-28T16:49:42Z</time>
      </trkpt>
      <trkpt lat="39.883880" lon="3.062840">
        <ele>9.031</ele>
        <time>2020-01-28T16:50:02Z</time>
      </trkpt>
      <trkpt lat="39.884030" lon="3.063000">
        <ele>9.098</ele>
        <time>2020-01-28T16:50:22Z</time>
      </trkpt>
      <trkpt lat="39.884090" lon="3.063190">
        <ele>9.013</ele>
        <time>2020-01-28T16:50:42Z</time>
      </trkpt>
      <trkpt lat="39.884200" lon="3.063800">
        <ele>9.079</ele>
        <time>2020-01-28T16:51:02Z</time>
      </trkpt>
      <trkpt lat="39.885180" lon="3.065540">
        <ele>8.097</ele>
        <time>2020-01-28T16:51:22Z</time>
      </trkpt>
      <trkpt lat="39.886400" lon="3.067770">
        <ele>5.020</ele>
        <time>2020-01-28T16:51:42Z</time>
      </trkpt>
      <trkpt lat="39.888330" lon="3.071200">
        <ele>2.071</ele>
        <time>2020-01-28T16:52:02Z</time>
      </trkpt>
      <trkpt lat="39.889050" lon="3.072280">
        <ele>2.041</ele>
        <time>2020-01-28T16:52:22Z</time>
      </trkpt>
      <trkpt lat="39.889230" lon="3.072480">
        <ele>2.015</ele>
        <time>2020-01-28T16:52:42Z</time>
      </trkpt>
      <trkpt lat="39.889540" lon="3.072750">
        <ele>2.008</ele>
        <time>2020-01-28T16:53:02Z</time>
      </trkpt>
      <trkpt lat="39.889980" lon="3.073060">
        <ele>2.081</ele>
        <time>2020-01-28T16:53:22Z</time>
      </trkpt>
      <trkpt lat="39.890060" lon="3.073210">
        <ele>2.012</ele>
        <time>2020-01-28T16:53:42Z</time>
      </trkpt>
      <trkpt lat="39.890080" lon="3.073410">
        <ele>2.066</ele>
        <time>2020-01-28T16:54:02Z</time>
      </trkpt>
      <trkpt lat="39.890050" lon="3.073450">
        <ele>2.013</ele>
        <time>2020-01-28T16:54:22Z</time>
      </trkpt>
      <trkpt lat="39.890000" lon="3.073680">
        <ele>2.048</ele>
        <time>2020-01-28T16:54:42Z</time>
      </trkpt>
      <trkpt lat="39.889970" lon="3.073720">
        <ele>2.044</ele>
        <time>2020-01-28T16:55:02Z</time>
      </trkpt>
      <trkpt lat="39.890030" lon="3.074010">
        <ele>2.072</ele>
        <time>2020-01-28T16:55:22Z</time>
      </trkpt>
      <trkpt lat="39.890080" lon="3.074050">
        <ele>2.025</ele>
        <time>2020-01-28T16:55:42Z</time>
      </trkpt>
      <trkpt lat="39.890170" lon="3.074160">
        <ele>2.041</ele>
        <time>2020-01-28T16:56:02Z</time>
      </trkpt>
      <trkpt lat="39.890220" lon="3.074160">
        <ele>2.081</ele>
        <time>2020-01-28T16:56:22Z</time>
      </trkpt>
      <trkpt lat="39.890260" lon="3.074310">
        <ele>2.009</ele>
        <time>2020-01-28T16:56:42Z</time>
      </trkpt>
      <trkpt lat="39.890280" lon="3.074430">
        <ele>2.008</ele>
        <time>2020-01-28T16:57:02Z</time>
      </trkpt>
      <trkpt lat="39.890270" lon="3.074580">
        <ele>2.028</ele>
        <time>2020-01-28T16:57:22Z</time>
      </trkpt>
      <trkpt lat="39.890210" lon="3.074860">
        <ele>2.089</ele>
        <time>2020-01-28T16:57:42Z</time>
      </trkpt>
      <trkpt lat="39.890230" lon="3.074930">
        <ele>2.033</ele>
        <time>2020-01-28T16:58:02Z</time>
      </trkpt>
      <trkpt lat="39.890300" lon="3.074990">
        <ele>2.020</ele>
        <time>2020-01-28T16:58:22Z</time>
      </trkpt>
      <trkpt lat="39.890360" lon="3.074980">
        <ele>2.045</ele>
        <time>2020-01-28T16:58:42Z</time>
      </trkpt>
      <trkpt lat="39.890520" lon="3.075130">
        <ele>2.081</ele>
        <time>2020-01-28T16:59:02Z</time>
      </trkpt>
      <trkpt lat="39.890580" lon="3.075160">
        <ele>2.029</ele>
        <time>2020-01-28T16:59:22Z</time>
      </trkpt>
      <trkpt lat="39.891230" lon="3.076340">
        <ele>2.042</ele>
        <time>2020-01-28T16:59:42Z</time>
      </trkpt>
      <trkpt lat="39.891670" lon="3.077080">
        <ele>3.014</ele>
        <time>2020-01-28T17:00:02Z</time>
      </trkpt>
      <trkpt lat="39.891970" lon="3.077660">
        <ele>3.054</ele>
        <time>2020-01-28T17:00:22Z</time>
      </trkpt>
      <trkpt lat="39.891980" lon="3.077640">
        <ele>3.009</ele>
        <time>2020-01-28T17:00:42Z</time>
      </trkpt>
      <trkpt lat="39.892140" lon="3.077920">
        <ele>3.008</ele>
        <time>2020-01-28T17:01:02Z</time>
      </trkpt>
      <trkpt lat="39.892120" lon="3.078030">
        <ele>3.015</ele>
        <time>2020-01-28T17:01:22Z</time>
      </trkpt>
      <trkpt lat="39.892100" lon="3.078260">
        <ele>3.086</ele>
        <time>2020-01-28T17:01:42Z</time>
      </trkpt>
      <trkpt lat="39.893950" lon="3.078260">
        <ele>3.060</ele>
        <time>2020-01-28T17:02:02Z</time>
      </trkpt>
      <trkpt lat="39.895030" lon="3.078290">
        <ele>3.047</ele>
        <time>2020-01-28T17:02:22Z</time>
      </trkpt>
      <trkpt lat="39.895370" lon="3.078340">
        <ele>3.082</ele>
        <time>2020-01-28T17:02:42Z</time>
      </trkpt>
      <trkpt lat="39.898540" lon="3.079170">
        <ele>1.048</ele>
        <time>2020-01-28T17:03:02Z</time>
      </trkpt>
      <trkpt lat="39.899640" lon="3.079400">
        <ele>1.066</ele>
        <time>2020-01-28T17:03:22Z</time>
      </trkpt>
      <trkpt lat="39.901190" lon="3.079610">
        <ele>3.099</ele>
        <time>2020-01-28T17:03:42Z</time>
      </trkpt>
      <trkpt lat="39.901590" lon="3.079730">
        <ele>3.031</ele>
        <time>2020-01-28T17:04:02Z</time>
      </trkpt>
      <trkpt lat="39.902240" lon="3.079970">
        <ele>4.061</ele>
        <time>2020-01-28T17:04:22Z</time>
      </trkpt>
      <trkpt lat="39.902590" lon="3.080140">
        <ele>4.007</ele>
        <time>2020-01-28T17:04:42Z</time>
      </trkpt>
      <trkpt lat="39.903160" lon="3.080540">
        <ele>4.008</ele>
        <time>2020-01-28T17:05:02Z</time>
      </trkpt>
      <trkpt lat="39.903760" lon="3.081000">
        <ele>4.067</ele>
        <time>2020-01-28T17:05:22Z</time>
      </trkpt>
      <trkpt lat="39.904500" lon="3.081530">
        <ele>3.048</ele>
        <time>2020-01-28T17:05:42Z</time>
      </trkpt>
      <trkpt lat="39.904550" lon="3.081500">
        <ele>3.082</ele>
        <time>2020-01-28T17:06:02Z</time>
      </trkpt>
      <trkpt lat="39.904680" lon="3.081570">
        <ele>3.079</ele>
        <time>2020-01-28T17:06:22Z</time>
      </trkpt>
      <trkpt lat="39.904840" lon="3.081680">
        <ele>3.084</ele>
        <time>2020-01-28T17:06:42Z</time>
      </trkpt>
      <trkpt lat="39.904840" lon="3.081680">
        <ele>3.080</ele>
        <time>2020-01-28T17:07:02Z</time>
      </trkpt>
      <trkpt lat="39.905830" lon="3.082340">
        <ele>6.068</ele>
        <time>2020-01-28T17:07:22Z</time>
      </trkpt>
      <trkpt lat="39.905960" lon="3.082470">
        <ele>7.061</ele>
        <time>2020-01-28T17:07:42Z</time>
      </trkpt>
      <trkpt lat="39.906150" lon="3.082700">
        <ele>7.044</ele>
        <time>2020-01-28T17:08:02Z</time>
      </trkpt>
      <trkpt lat="39.906250" lon="3.082760">
        <ele>8.005</ele>
        <time>2020-01-28T17:08:22Z</time>
      </trkpt>
      <trkpt lat="39.906260" lon="3.082850">
        <ele>8.015</ele>
        <time>2020-01-28T17:08:42Z</time>
      </trkpt>
      <trkpt lat="39.906320" lon="3.082910">
        <ele>8.008</ele>
        <time>2020-01-28T17:09:02Z</time>
      </trkpt>
      <trkpt lat="39.906380" lon="3.082890">
        <ele>8.098</ele>
        <time>2020-01-28T17:09:22Z</time>
      </trkpt>
      <trkpt lat="39.906400" lon="3.082860">
        <ele>8.079</ele>
        <time>2020-01-28T17:09:42Z</time>
      </trkpt>
      <trkpt lat="39.906420" lon="3.082790">
        <ele>8.073</ele>
        <time>2020-01-28T17:10:02Z</time>
      </trkpt>
      <trkpt lat="39.906400" lon="3.082710">
        <ele>8.020</ele>
        <time>2020-01-28T17:10:22Z</time>
      </trkpt>
      <trkpt lat="39.906890" lon="3.082340">
        <ele>8.015</ele>
        <time>2020-01-28T17:10:42Z</time>
      </trkpt>
      <trkpt lat="39.907310" lon="3.082720">
        <ele>7.041</ele>
        <time>2020-01-28T17:11:02Z</time>
      </trkpt>
      <trkpt lat="39.909720" lon="3.085150">
        <ele>3.039</ele>
        <time>2020-01-28T17:11:22Z</time>
      </trkpt>
      <trkpt lat="39.910370" lon="3.086070">
        <ele>3.072</ele>
        <time>2020-01-28T17:11:42Z</time>
      </trkpt>
      <trkpt lat="39.910540" lon="3.086340">
        <ele>3.075</ele>
        <time>2020-01-28T17:12:02Z</time>
      </trkpt>
      <trkpt lat="39.911080" lon="3.087280">
        <ele>4.028</ele>
        <time>2020-01-28T17:12:22Z</time>
      </trkpt>
      <trkpt lat="39.911210" lon="3.087530">
        <ele>5.020</ele>
        <time>2020-01-28T17:12:42Z</time>
      </trkpt>
      <trkpt lat="39.911310" lon="3.087820">
        <ele>5.008</ele>
        <time>2020-01-28T17:13:02Z</time>
      </trkpt>
      <trkpt lat="39.911480" lon="3.088350">
        <ele>6.021</ele>
        <time>2020-01-28T17:13:22Z</time>
      </trkpt>
      <trkpt lat="39.911590" lon="3.088860">
        <ele>7.082</ele>
        <time>2020-01-28T17:13:42Z</time>
      </trkpt>
      <trkpt lat="39.911680" lon="3.090290">
        <ele>7.026</ele>
        <time>2020-01-28T17:14:02Z</time>
      </trkpt>
      <trkpt lat="39.911660" lon="3.091750">
        <ele>5.023</ele>
        <time>2020-01-28T17:14:22Z</time>
      </trkpt>
      <trkpt lat="39.911560" lon="3.092360">
        <ele>5.058</ele>
        <time>2020-01-28T17:14:42Z</time>
      </trkpt>
      <trkpt lat="39.910720" lon="3.096290">
        <ele>7.034</ele>
        <time>2020-01-28T17:15:02Z</time>
      </trkpt>
      <trkpt lat="39.910570" lon="3.097040">
        <ele>7.052</ele>
        <time>2020-01-28T17:15:22Z</time>
      </trkpt>
      <trkpt lat="39.910410" lon="3.098080">
        <ele>9.045</ele>
        <time>2020-01-28T17:15:42Z</time>
      </trkpt>
      <trkpt lat="39.910390" lon="3.098430">
        <ele>9.084</ele>
        <time>2020-01-28T17:16:02Z</time>
      </trkpt>
      <trkpt lat="39.910450" lon="3.098570">
        <ele>9.007</ele>
        <time>2020-01-28T17:16:22Z</time>
      </trkpt>
      <trkpt lat="39.910560" lon="3.098630">
        <ele>9.017</ele>
        <time>2020-01-28T17:16:42Z</time>
      </trkpt>
      <trkpt lat="39.912450" lon="3.099450">
        <ele>12.008</ele>
        <time>2020-01-28T17:17:02Z</time>
      </trkpt>
      <trkpt lat="39.912670" lon="3.099580">
        <ele>12.052</ele>
        <time>2020-01-28T17:17:22Z</time>
      </trkpt>
      <trkpt lat="39.912690" lon="3.099670">
        <ele>12.063</ele>
        <time>2020-01-28T17:17:42Z</time>
      </trkpt>
      <trkpt lat="39.912710" lon="3.099740">
        <ele>12.037</ele>
        <time>2020-01-28T17:18:02Z</time>
      </trkpt>
      <trkpt lat="39.912670" lon="3.099980">
        <ele>12.034</ele>
        <time>2020-01-28T17:18:22Z</time>
      </trkpt>
      <trkpt lat="39.912270" lon="3.101590">
        <ele>17.099</ele>
        <time>2020-01-28T17:18:42Z</time>
      </trkpt>
      <trkpt lat="39.912240" lon="3.101870">
        <ele>18.085</ele>
        <time>2020-01-28T17:19:02Z</time>
      </trkpt>
      <trkpt lat="39.912240" lon="3.102090">
        <ele>19.083</ele>
        <time>2020-01-28T17:19:22Z</time>
      </trkpt>
      <trkpt lat="39.912270" lon="3.102320">
        <ele>20.096</ele>
        <time>2020-01-28T17:19:42Z</time>
      </trkpt>
      <trkpt lat="39.912350" lon="3.102470">
        <ele>20.031</ele>
        <time>2020-01-28T17:20:02Z</time>
      </trkpt>
      <trkpt lat="39.912540" lon="3.102660">
        <ele>21.061</ele>
        <time>2020-01-28T17:20:22Z</time>
      </trkpt>
      <trkpt lat="39.914790" lon="3.104250">
        <ele>43.007</ele>
        <time>2020-01-28T17:20:42Z</time>
      </trkpt>
      <trkpt lat="39.914860" lon="3.104330">
        <ele>43.008</ele>
        <time>2020-01-28T17:21:02Z</time>
      </trkpt>
      <trkpt lat="39.914880" lon="3.104400">
        <ele>43.077</ele>
        <time>2020-01-28T17:21:22Z</time>
      </trkpt>
      <trkpt lat="39.914890" lon="3.104500">
        <ele>44.038</ele>
        <time>2020-01-28T17:21:42Z</time>
      </trkpt>
      <trkpt lat="39.914840" lon="3.104650">
        <ele>44.032</ele>
        <time>2020-01-28T17:22:02Z</time>
      </trkpt>
      <trkpt lat="39.914790" lon="3.104700">
        <ele>44.069</ele>
        <time>2020-01-28T17:22:22Z</time>
      </trkpt>
      <trkpt lat="39.914690" lon="3.104750">
        <ele>44.034</ele>
        <time>2020-01-28T17:22:42Z</time>
      </trkpt>
      <trkpt lat="39.913580" lon="3.104480">
        <ele>46.010</ele>
        <time>2020-01-28T17:23:02Z</time>
      </trkpt>
      <trkpt lat="39.912540" lon="3.104150">
        <ele>54.018</ele>
        <time>2020-01-28T17:23:22Z</time>
      </trkpt>
      <trkpt lat="39.912320" lon="3.104110">
        <ele>56.091</ele>
        <time>2020-01-28T17:23:42Z</time>
      </trkpt>
      <trkpt lat="39.911580" lon="3.104150">
        <ele>61.078</ele>
        <time>2020-01-28T17:24:02Z</time>
      </trkpt>
      <trkpt lat="39.911490" lon="3.104260">
        <ele>61.033</ele>
        <time>2020-01-28T17:24:22Z</time>
      </trkpt>
      <trkpt lat="39.911490" lon="3.104360">
        <ele>62.026</ele>
        <time>2020-01-28T17:24:42Z</time>
      </trkpt>
      <trkpt lat="39.911520" lon="3.104430">
        <ele>62.008</ele>
        <time>2020-01-28T17:25:02Z</time>
      </trkpt>
      <trkpt lat="39.911610" lon="3.104460">
        <ele>63.071</ele>
        <time>2020-01-28T17:25:22Z</time>
      </trkpt>
      <trkpt lat="39.912000" lon="3.104430">
        <ele>64.042</ele>
        <time>2020-01-28T17:25:42Z</time>
      </trkpt>
      <trkpt lat="39.912200" lon="3.104430">
        <ele>65.026</ele>
        <time>2020-01-28T17:26:02Z</time>
      </trkpt>
      <trkpt lat="39.912540" lon="3.104510">
        <ele>67.053</ele>
        <time>2020-01-28T17:26:22Z</time>
      </trkpt>
      <trkpt lat="39.912710" lon="3.104630">
        <ele>68.018</ele>
        <time>2020-01-28T17:26:42Z</time>
      </trkpt>
      <trkpt lat="39.912910" lon="3.104880">
        <ele>69.084</ele>
        <time>2020-01-28T17:27:02Z</time>
      </trkpt>
      <trkpt lat="39.913070" lon="3.105000">
        <ele>70.062</ele>
        <time>2020-01-28T17:27:22Z</time>
      </trkpt>
      <trkpt lat="39.913320" lon="3.105030">
        <ele>72.025</ele>
        <time>2020-01-28T17:27:42Z</time>
      </trkpt>
      <trkpt lat="39.913570" lon="3.105090">
        <ele>75.028</ele>
        <time>2020-01-28T17:28:02Z</time>
      </trkpt>
      <trkpt lat="39.914210" lon="3.105520">
        <ele>82.089</ele>
        <time>2020-01-28T17:28:22Z</time>
      </trkpt>
      <trkpt lat="39.914520" lon="3.105800">
        <ele>85.017</ele>
        <time>2020-01-28T17:28:42Z</time>
      </trkpt>
      <trkpt lat="39.914940" lon="3.106370">
        <ele>90.008</ele>
        <time>2020-01-28T17:29:02Z</time>
      </trkpt>
      <trkpt lat="39.915850" lon="3.107380">
        <ele>95.046</ele>
        <time>2020-01-28T17:29:22Z</time>
      </trkpt>
      <trkpt lat="39.916230" lon="3.107900">
        <ele>97.047</ele>
        <time>2020-01-28T17:29:42Z</time>
      </trkpt>
      <trkpt lat="39.916300" lon="3.107950">
        <ele>97.031</ele>
        <time>2020-01-28T17:30:02Z</time>
      </trkpt>
      <trkpt lat="39.916450" lon="3.107920">
        <ele>99.038</ele>
        <time>2020-01-28T17:30:22Z</time>
      </trkpt>
      <trkpt lat="39.916530" lon="3.107840">
        <ele>99.093</ele>
        <time>2020-01-28T17:30:42Z</time>
      </trkpt>
      <trkpt lat="39.917190" lon="3.107010">
        <ele>106.039</ele>
        <time>2020-01-28T17:31:02Z</time>
      </trkpt>
      <trkpt lat="39.917220" lon="3.106880">
        <ele>106.087</ele>
        <time>2020-01-28T17:31:22Z</time>
      </trkpt>
      <trkpt lat="39.917220" lon="3.106760">
        <ele>107.010</ele>
        <time>2020-01-28T17:31:42Z</time>
      </trkpt>
      <trkpt lat="39.917130" lon="3.106380">
        <ele>109.015</ele>
        <time>2020-01-28T17:32:02Z</time>
      </trkpt>
      <trkpt lat="39.917080" lon="3.105900">
        <ele>112.065</ele>
        <time>2020-01-28T17:32:22Z</time>
      </trkpt>
      <trkpt lat="39.917100" lon="3.105800">
        <ele>112.011</ele>
        <time>2020-01-28T17:32:42Z</time>
      </trkpt>
      <trkpt lat="39.917180" lon="3.105660">
        <ele>113.008</ele>
        <time>2020-01-28T17:33:02Z</time>
      </trkpt>
      <trkpt lat="39.917280" lon="3.105620">
        <ele>114.025</ele>
        <time>2020-01-28T17:33:22Z</time>
      </trkpt>
      <trkpt lat="39.917380" lon="3.105610">
        <ele>114.056</ele>
        <time>2020-01-28T17:33:42Z</time>
      </trkpt>
      <trkpt lat="39.917600" lon="3.105700">
        <ele>116.060</ele>
        <time>2020-01-28T17:34:02Z</time>
      </trkpt>
      <trkpt lat="39.917830" lon="3.105810">
        <ele>117.027</ele>
        <time>2020-01-28T17:34:22Z</time>
      </trkpt>
      <trkpt lat="39.918270" lon="3.106140">
        <ele>121.052</ele>
        <time>2020-01-28T17:34:42Z</time>
      </trkpt>
      <trkpt lat="39.918980" lon="3.106560">
        <ele>126.098</ele>
        <time>2020-01-28T17:35:02Z</time>
      </trkpt>
      <trkpt lat="39.919420" lon="3.106870">
        <ele>129.026</ele>
        <time>2020-01-28T17:35:22Z</time>
      </trkpt>
      <trkpt lat="39.919610" lon="3.106950">
        <ele>131.019</ele>
        <time>2020-01-28T17:35:42Z</time>
      </trkpt>
      <trkpt lat="39.919760" lon="3.106980">
        <ele>132.029</ele>
        <time>2020-01-28T17:36:02Z</time>
      </trkpt>
      <trkpt lat="39.920950" lon="3.107010">
        <ele>140.000</ele>
        <time>2020-01-28T17:36:22Z</time>
      </trkpt>
      <trkpt lat="39.921130" lon="3.107040">
        <ele>141.020</ele>
        <time>2020-01-28T17:36:42Z</time>
      </trkpt>
      <trkpt lat="39.921710" lon="3.107260">
        <ele>145.008</ele>
        <time>2020-01-28T17:37:02Z</time>
      </trkpt>
      <trkpt lat="39.922290" lon="3.107360">
        <ele>148.076</ele>
        <time>2020-01-28T17:37:22Z</time>
      </trkpt>
      <trkpt lat="39.922870" lon="3.107660">
        <ele>153.027</ele>
        <time>2020-01-28T17:37:42Z</time>
      </trkpt>
      <trkpt lat="39.923490" lon="3.107820">
        <ele>163.041</ele>
        <time>2020-01-28T17:38:02Z</time>
      </trkpt>
      <trkpt lat="39.923650" lon="3.107800">
        <ele>165.038</ele>
        <time>2020-01-28T17:38:22Z</time>
      </trkpt>
      <trkpt lat="39.924250" lon="3.107490">
        <ele>175.043</ele>
        <time>2020-01-28T17:38:42Z</time>
      </trkpt>
      <trkpt lat="39.924360" lon="3.107490">
        <ele>177.019</ele>
        <time>2020-01-28T17:39:02Z</time>
      </trkpt>
      <trkpt lat="39.924440" lon="3.107530">
        <ele>179.027</ele>
        <time>2020-01-28T17:39:22Z</time>
      </trkpt>
      <trkpt lat="39.924520" lon="3.107620">
        <ele>180.040</ele>
        <time>2020-01-28T17:39:42Z</time>
      </trkpt>
      <trkpt lat="39.924780" lon="3.108280">
        <ele>185.073</ele>
        <time>2020-01-28T17:40:02Z</time>
      </trkpt>
      <trkpt lat="39.924870" lon="3.108400">
        <ele>185.085</ele>
        <time>2020-01-28T17:40:22Z</time>
      </trkpt>
      <trkpt lat="39.924990" lon="3.108480">
        <ele>186.013</ele>
        <time>2020-01-28T17:40:42Z</time>
      </trkpt>
      <trkpt lat="39.925320" lon="3.108490">
        <ele>188.008</ele>
        <time>2020-01-28T17:41:02Z</time>
      </trkpt>
      <trkpt lat="39.925410" lon="3.108530">
        <ele>188.011</ele>
        <time>2020-01-28T17:41:22Z</time>
      </trkpt>
      <trkpt lat="39.925510" lon="3.108660">
        <ele>189.052</ele>
        <time>2020-01-28T17:41:42Z</time>
      </trkpt>
      <trkpt lat="39.925760" lon="3.109190">
        <ele>191.096</ele>
        <time>2020-01-28T17:42:02Z</time>
      </trkpt>
      <trkpt lat="39.925840" lon="3.109300">
        <ele>192.043</ele>
        <time>2020-01-28T17:42:22Z</time>
      </trkpt>
      <trkpt lat="39.925960" lon="3.109350">
        <ele>192.088</ele>
        <time>2020-01-28T17:42:42Z</time>
      </trkpt>
      <trkpt lat="39.926350" lon="3.109350">
        <ele>195.074</ele>
        <time>2020-01-28T17:43:02Z</time>
      </trkpt>
      <trkpt lat="39.926460" lon="3.109390">
        <ele>196.052</ele>
        <time>2020-01-28T17:43:22Z</time>
      </trkpt>
      <trkpt lat="39.926620" lon="3.109540">
        <ele>198.085</ele>
        <time>2020-01-28T17:43:42Z</time>
      </trkpt>
      <trkpt lat="39.926750" lon="3.109700">
        <ele>199.041</ele>
        <time>2020-01-28T17:44:02Z</time>
      </trkpt>
      <trkpt lat="39.926840" lon="3.109750">
        <ele>200.081</ele>
        <time>2020-01-28T17:44:22Z</time>
      </trkpt>
      <trkpt lat="39.926930" lon="3.109730">
        <ele>200.009</ele>
        <time>2020-01-28T17:44:42Z</time>
      </trkpt>
      <trkpt lat="39.927070" lon="3.109630">
        <ele>202.008</ele>
        <time>2020-01-28T17:45:02Z</time>
      </trkpt>
      <trkpt lat="39.927160" lon="3.109610">
        <ele>202.048</ele>
        <time>2020-01-28T17:45:22Z</time>
      </trkpt>
      <trkpt lat="39.927270" lon="3.109650">
        <ele>203.089</ele>
        <time>2020-01-28T17:45:42Z</time>
      </trkpt>
      <trkpt lat="39.927700" lon="3.109850">
        <ele>207.023</ele>
        <time>2020-01-28T17:46:02Z</time>
      </trkpt>
      <trkpt lat="39.928040" lon="3.109970">
        <ele>208.030</ele>
        <time>2020-01-28T17:46:22Z</time>
      </trkpt>
      <trkpt lat="39.928380" lon="3.110010">
        <ele>206.075</ele>
        <time>2020-01-28T17:46:42Z</time>
      </trkpt>
      <trkpt lat="39.928470" lon="3.110040">
        <ele>205.021</ele>
        <time>2020-01-28T17:47:02Z</time>
      </trkpt>
      <trkpt lat="39.928620" lon="3.110250">
        <ele>204.049</ele>
        <time>2020-01-28T17:47:22Z</time>
      </trkpt>
      <trkpt lat="39.928840" lon="3.110700">
        <ele>202.072</ele>
        <time>2020-01-28T17:47:42Z</time>
      </trkpt>
      <trkpt lat="39.928850" lon="3.110770">
        <ele>202.069</ele>
        <time>2020-01-28T17:48:02Z</time>
      </trkpt>
      <trkpt lat="39.928850" lon="3.110830">
        <ele>201.004</ele>
        <time>2020-01-28T17:48:22Z</time>
      </trkpt>
      <trkpt lat="39.928810" lon="3.110930">
        <ele>201.024</ele>
        <time>2020-01-28T17:48:42Z</time>
      </trkpt>
      <trkpt lat="39.928680" lon="3.111170">
        <ele>200.008</ele>
        <time>2020-01-28T17:49:02Z</time>
      </trkpt>
      <trkpt lat="39.928670" lon="3.111270">
        <ele>199.090</ele>
        <time>2020-01-28T17:49:22Z</time>
      </trkpt>
      <trkpt lat="39.928750" lon="3.111730">
        <ele>197.051</ele>
        <time>2020-01-28T17:49:42Z</time>
      </trkpt>
      <trkpt lat="39.928910" lon="3.112260">
        <ele>195.085</ele>
        <time>2020-01-28T17:50:02Z</time>
      </trkpt>
      <trkpt lat="39.929090" lon="3.112990">
        <ele>191.022</ele>
        <time>2020-01-28T17:50:22Z</time>
      </trkpt>
      <trkpt lat="39.929130" lon="3.113020">
        <ele>191.047</ele>
        <time>2020-01-28T17:50:42Z</time>
      </trkpt>
      <trkpt lat="39.929170" lon="3.113010">
        <ele>191.043</ele>
        <time>2020-01-28T17:51:02Z</time>
      </trkpt>
      <trkpt lat="39.929200" lon="3.112940">
        <ele>190.071</ele>
        <time>2020-01-28T17:51:22Z</time>
      </trkpt>
      <trkpt lat="39.929090" lon="3.112240">
        <ele>187.074</ele>
        <time>2020-01-28T17:51:42Z</time>
      </trkpt>
      <trkpt lat="39.929070" lon="3.111930">
        <ele>186.096</ele>
        <time>2020-01-28T17:52:02Z</time>
      </trkpt>
      <trkpt lat="39.929100" lon="3.111840">
        <ele>185.031</ele>
        <time>2020-01-28T17:52:22Z</time>
      </trkpt>
      <trkpt lat="39.929140" lon="3.111780">
        <ele>184.024</ele>
        <time>2020-01-28T17:52:42Z</time>
      </trkpt>
      <trkpt lat="39.929200" lon="3.111780">
        <ele>184.008</ele>
        <time>2020-01-28T17:53:02Z</time>
      </trkpt>
      <trkpt lat="39.929250" lon="3.111820">
        <ele>183.083</ele>
        <time>2020-01-28T17:53:22Z</time>
      </trkpt>
      <trkpt lat="39.929280" lon="3.111910">
        <ele>183.064</ele>
        <time>2020-01-28T17:53:42Z</time>
      </trkpt>
      <trkpt lat="39.929360" lon="3.112700">
        <ele>177.058</ele>
        <time>2020-01-28T17:54:02Z</time>
      </trkpt>
      <trkpt lat="39.929390" lon="3.113310">
        <ele>173.095</ele>
        <time>2020-01-28T17:54:22Z</time>
      </trkpt>
      <trkpt lat="39.929350" lon="3.113590">
        <ele>170.070</ele>
        <time>2020-01-28T17:54:42Z</time>
      </trkpt>
      <trkpt lat="39.929350" lon="3.113700">
        <ele>170.056</ele>
        <time>2020-01-28T17:55:02Z</time>
      </trkpt>
      <trkpt lat="39.929420" lon="3.113930">
        <ele>168.064</ele>
        <time>2020-01-28T17:55:22Z</time>
      </trkpt>
      <trkpt lat="39.929470" lon="3.114030">
        <ele>167.077</ele>
        <time>2020-01-28T17:55:42Z</time>
      </trkpt>
      <trkpt lat="39.929500" lon="3.114190">
        <ele>167.038</ele>
        <time>2020-01-28T17:56:02Z</time>
      </trkpt>
      <trkpt lat="39.929500" lon="3.114290">
        <ele>167.070</ele>
        <time>2020-01-28T17:56:22Z</time>
      </trkpt>
      <trkpt lat="39.929480" lon="3.114380">
        <ele>167.017</ele>
        <time>2020-01-28T17:56:42Z</time>
      </trkpt>
      <trkpt lat="39.929520" lon="3.114490">
        <ele>167.008</ele>
        <time>2020-01-28T17:57:02Z</time>
      </trkpt>
      <trkpt lat="39.929590" lon="3.114600">
        <ele>167.057</ele>
        <time>2020-01-28T17:57:22Z</time>
      </trkpt>
      <trkpt lat="39.929840" lon="3.114770">
        <ele>167.088</ele>
        <time>2020-01-28T17:57:42Z</time>
      </trkpt>
      <trkpt lat="39.930120" lon="3.115080">
        <ele>168.022</ele>
        <time>2020-01-28T17:58:02Z</time>
      </trkpt>
      <trkpt lat="39.930410" lon="3.115550">
        <ele>168.059</ele>
        <time>2020-01-28T17:58:22Z</time>
      </trkpt>
      <trkpt lat="39.930420" lon="3.115650">
        <ele>168.024</ele>
        <time>2020-01-28T17:58:42Z</time>
      </trkpt>
      <trkpt lat="39.930420" lon="3.116070">
        <ele>168.060</ele>
        <time>2020-01-28T17:59:02Z</time>
      </trkpt>
      <trkpt lat="39.930620" lon="3.116740">
        <ele>160.068</ele>
        <time>2020-01-28T17:59:22Z</time>
      </trkpt>
      <trkpt lat="39.930640" lon="3.117110">
        <ele>155.081</ele>
        <time>2020-01-28T17:59:42Z</time>
      </trkpt>
      <trkpt lat="39.930490" lon="3.117820">
        <ele>145.049</ele>
        <time>2020-01-28T18:00:02Z</time>
      </trkpt>
      <trkpt lat="39.930350" lon="3.118250">
        <ele>139.002</ele>
        <time>2020-01-28T18:00:22Z</time>
      </trkpt>
      <trkpt lat="39.930310" lon="3.118400">
        <ele>137.022</ele>
        <time>2020-01-28T18:00:42Z</time>
      </trkpt>
      <trkpt lat="39.930350" lon="3.119460">
        <ele>136.008</ele>
        <time>2020-01-28T18:01:02Z</time>
      </trkpt>
      <trkpt lat="39.930370" lon="3.119670">
        <ele>136.098</ele>
        <time>2020-01-28T18:01:22Z</time>
      </trkpt>
      <trkpt lat="39.930640" lon="3.120740">
        <ele>141.019</ele>
        <time>2020-01-28T18:01:42Z</time>
      </trkpt>
      <trkpt lat="39.930650" lon="3.120930">
        <ele>142.083</ele>
        <time>2020-01-28T18:02:02Z</time>
      </trkpt>
      <trkpt lat="39.930600" lon="3.121260">
        <ele>143.020</ele>
        <time>2020-01-28T18:02:22Z</time>
      </trkpt>
      <trkpt lat="39.930620" lon="3.121450">
        <ele>143.095</ele>
        <time>2020-01-28T18:02:42Z</time>
      </trkpt>
      <trkpt lat="39.930650" lon="3.121540">
        <ele>142.031</ele>
        <time>2020-01-28T18:03:02Z</time>
      </trkpt>
      <trkpt lat="39.930710" lon="3.121620">
        <ele>141.099</ele>
        <time>2020-01-28T18:03:22Z</time>
      </trkpt>
      <trkpt lat="39.931000" lon="3.121850">
        <ele>138.082</ele>
        <time>2020-01-28T18:03:42Z</time>
      </trkpt>
      <trkpt lat="39.931050" lon="3.121920">
        <ele>138.064</ele>
        <time>2020-01-28T18:04:02Z</time>
      </trkpt>
      <trkpt lat="39.931070" lon="3.122020">
        <ele>137.006</ele>
        <time>2020-01-28T18:04:22Z</time>
      </trkpt>
      <trkpt lat="39.931050" lon="3.122110">
        <ele>136.016</ele>
        <time>2020-01-28T18:04:42Z</time>
      </trkpt>
      <trkpt lat="39.931010" lon="3.122180">
        <ele>136.008</ele>
        <time>2020-01-28T18:05:02Z</time>
      </trkpt>
      <trkpt lat="39.930690" lon="3.122430">
        <ele>133.030</ele>
        <time>2020-01-28T18:05:22Z</time>
      </trkpt>
      <trkpt lat="39.930580" lon="3.122530">
        <ele>132.021</ele>
        <time>2020-01-28T18:05:42Z</time>
      </trkpt>
      <trkpt lat="39.930400" lon="3.122750">
        <ele>130.045</ele>
        <time>2020-01-28T18:06:02Z</time>
      </trkpt>
      <trkpt lat="39.930350" lon="3.122870">
        <ele>129.052</ele>
        <time>2020-01-28T18:06:22Z</time>
      </trkpt>
      <trkpt lat="39.930290" lon="3.123100">
        <ele>127.097</ele>
        <time>2020-01-28T18:06:42Z</time>
      </trkpt>
      <trkpt lat="39.930240" lon="3.124550">
        <ele>118.083</ele>
        <time>2020-01-28T18:07:02Z</time>
      </trkpt>
      <trkpt lat="39.930320" lon="3.124700">
        <ele>117.091</ele>
        <time>2020-01-28T18:07:22Z</time>
      </trkpt>
      <trkpt lat="39.930400" lon="3.123960">
        <ele>113.074</ele>
        <time>2020-01-28T18:07:42Z</time>
      </trkpt>
      <trkpt lat="39.930610" lon="3.123280">
        <ele>107.043</ele>
        <time>2020-01-28T18:08:02Z</time>
      </trkpt>
      <trkpt lat="39.930690" lon="3.123160">
        <ele>106.064</ele>
        <time>2020-01-28T18:08:22Z</time>
      </trkpt>
      <trkpt lat="39.930750" lon="3.123120">
        <ele>105.010</ele>
        <time>2020-01-28T18:08:42Z</time>
      </trkpt>
      <trkpt lat="39.930830" lon="3.123100">
        <ele>104.008</ele>
        <time>2020-01-28T18:09:02Z</time>
      </trkpt>
      <trkpt lat="39.931160" lon="3.123100">
        <ele>101.078</ele>
        <time>2020-01-28T18:09:22Z</time>
      </trkpt>
      <trkpt lat="39.931370" lon="3.123070">
        <ele>99.049</ele>
        <time>2020-01-28T18:09:42Z</time>
      </trkpt>
      <trkpt lat="39.931520" lon="3.123090">
        <ele>97.013</ele>
        <time>2020-01-28T18:10:02Z</time>
      </trkpt>
      <trkpt lat="39.931650" lon="3.123160">
        <ele>95.010</ele>
        <time>2020-01-28T18:10:22Z</time>
      </trkpt>
      <trkpt lat="39.931700" lon="3.123230">
        <ele>95.075</ele>
        <time>2020-01-28T18:10:42Z</time>
      </trkpt>
      <trkpt lat="39.931760" lon="3.123390">
        <ele>93.061</ele>
        <time>2020-01-28T18:11:02Z</time>
      </trkpt>
      <trkpt lat="39.932050" lon="3.124680">
        <ele>87.039</ele>
        <time>2020-01-28T18:11:22Z</time>
      </trkpt>
      <trkpt lat="39.932140" lon="3.124870">
        <ele>86.042</ele>
        <time>2020-01-28T18:11:42Z</time>
      </trkpt>
      <trkpt lat="39.932260" lon="3.125020">
        <ele>86.072</ele>
        <time>2020-01-28T18:12:02Z</time>
      </trkpt>
      <trkpt lat="39.932400" lon="3.125110">
        <ele>85.013</ele>
        <time>2020-01-28T18:12:22Z</time>
      </trkpt>
      <trkpt lat="39.932540" lon="3.125160">
        <ele>85.014</ele>
        <time>2020-01-28T18:12:42Z</time>
      </trkpt>
      <trkpt lat="39.933410" lon="3.125210">
        <ele>82.008</ele>
        <time>2020-01-28T18:13:02Z</time>
      </trkpt>
      <trkpt lat="39.933510" lon="3.125290">
        <ele>80.051</ele>
        <time>2020-01-28T18:13:22Z</time>
      </trkpt>
      <trkpt lat="39.933560" lon="3.125350">
        <ele>80.042</ele>
        <time>2020-01-28T18:13:42Z</time>
      </trkpt>
      <trkpt lat="39.933600" lon="3.125450">
        <ele>79.036</ele>
        <time>2020-01-28T18:14:02Z</time>
      </trkpt>
      <trkpt lat="39.933600" lon="3.125590">
        <ele>78.073</ele>
        <time>2020-01-28T18:14:22Z</time>
      </trkpt>
      <trkpt lat="39.933560" lon="3.125730">
        <ele>77.068</ele>
        <time>2020-01-28T18:14:42Z</time>
      </trkpt>
      <trkpt lat="39.933490" lon="3.125920">
        <ele>75.064</ele>
        <time>2020-01-28T18:15:02Z</time>
      </trkpt>
      <trkpt lat="39.933330" lon="3.126270">
        <ele>72.082</ele>
        <time>2020-01-28T18:15:22Z</time>
      </trkpt>
      <trkpt lat="39.932990" lon="3.126830">
        <ele>66.015</ele>
        <time>2020-01-28T18:15:42Z</time>
      </trkpt>
      <trkpt lat="39.932820" lon="3.127020">
        <ele>64.048</ele>
        <time>2020-01-28T18:16:02Z</time>
      </trkpt>
      <trkpt lat="39.932830" lon="3.127020">
        <ele>64.061</ele>
        <time>2020-01-28T18:16:22Z</time>
      </trkpt>
      <trkpt lat="39.932680" lon="3.127180">
        <ele>62.017</ele>
        <time>2020-01-28T18:16:42Z</time>
      </trkpt>
      <trkpt lat="39.932510" lon="3.127420">
        <ele>60.008</ele>
        <time>2020-01-28T18:17:02Z</time>
      </trkpt>
      <trkpt lat="39.932340" lon="3.127700">
        <ele>59.088</ele>
        <time>2020-01-28T18:17:22Z</time>
      </trkpt>
      <trkpt lat="39.932280" lon="3.127870">
        <ele>58.059</ele>
        <time>2020-01-28T18:17:42Z</time>
      </trkpt>
      <trkpt lat="39.932140" lon="3.128650">
        <ele>55.063</ele>
        <time>2020-01-28T18:18:02Z</time>
      </trkpt>
      <trkpt lat="39.932130" lon="3.128810">
        <ele>54.060</ele>
        <time>2020-01-28T18:18:22Z</time>
      </trkpt>
      <trkpt lat="39.932170" lon="3.128970">
        <ele>53.075</ele>
        <time>2020-01-28T18:18:42Z</time>
      </trkpt>
      <trkpt lat="39.932320" lon="3.129220">
        <ele>52.031</ele>
        <time>2020-01-28T18:19:02Z</time>
      </trkpt>
      <trkpt lat="39.932460" lon="3.129490">
        <ele>51.089</ele>
        <time>2020-01-28T18:19:22Z</time>
      </trkpt>
      <trkpt lat="39.932780" lon="3.130220">
        <ele>46.072</ele>
        <time>2020-01-28T18:19:42Z</time>
      </trkpt>
      <trkpt lat="39.932900" lon="3.130440">
        <ele>45.049</ele>
        <time>2020-01-28T18:20:02Z</time>
      </trkpt>
      <trkpt lat="39.933060" lon="3.130620">
        <ele>44.002</ele>
        <time>2020-01-28T18:20:22Z</time>
      </trkpt>
      <trkpt lat="39.933090" lon="3.130690">
        <ele>43.022</ele>
        <time>2020-01-28T18:20:42Z</time>
      </trkpt>
      <trkpt lat="39.933080" lon="3.130770">
        <ele>43.008</ele>
        <time>2020-01-28T18:21:02Z</time>
      </trkpt>
      <trkpt lat="39.933030" lon="3.130790">
        <ele>43.018</ele>
        <time>2020-01-28T18:21:22Z</time>
      </trkpt>
      <trkpt lat="39.932960" lon="3.130780">
        <ele>42.059</ele>
        <time>2020-01-28T18:21:42Z</time>
      </trkpt>
      <trkpt lat="39.932350" lon="3.129950">
        <ele>36.043</ele>
        <time>2020-01-28T18:22:02Z</time>
      </trkpt>
      <trkpt lat="39.932020" lon="3.129630">
        <ele>33.040</ele>
        <time>2020-01-28T18:22:22Z</time>
      </trkpt>
      <trkpt lat="39.931750" lon="3.129420">
        <ele>30.035</ele>
        <time>2020-01-28T18:22:42Z</time>
      </trkpt>
      <trkpt lat="39.931420" lon="3.129240">
        <ele>27.061</ele>
        <time>2020-01-28T18:23:02Z</time>
      </trkpt>
      <trkpt lat="39.931370" lon="3.129220">
        <ele>27.099</ele>
        <time>2020-01-28T18:23:22Z</time>
      </trkpt>
      <trkpt lat="39.931010" lon="3.129430">
        <ele>23.022</ele>
        <time>2020-01-28T18:23:42Z</time>
      </trkpt>
      <trkpt lat="39.930030" lon="3.130210">
        <ele>16.012</ele>
        <time>2020-01-28T18:24:02Z</time>
      </trkpt>
      <trkpt lat="39.929920" lon="3.130320">
        <ele>15.032</ele>
        <time>2020-01-28T18:24:22Z</time>
      </trkpt>
      <trkpt lat="39.929860" lon="3.130430">
        <ele>15.005</ele>
        <time>2020-01-28T18:24:42Z</time>
      </trkpt>
      <trkpt lat="39.929140" lon="3.133400">
        <ele>13.008</ele>
        <time>2020-01-28T18:25:02Z</time>
      </trkpt>
      <trkpt lat="39.929120" lon="3.133510">
        <ele>13.085</ele>
        <time>2020-01-28T18:25:22Z</time>
      </trkpt>
      <trkpt lat="39.929140" lon="3.133640">
        <ele>13.036</ele>
        <time>2020-01-28T18:25:42Z</time>
      </trkpt>
      <trkpt lat="39.929220" lon="3.133760">
        <ele>14.020</ele>
        <time>2020-01-28T18:26:02Z</time>
      </trkpt>
      <trkpt lat="39.929300" lon="3.133820">
        <ele>14.027</ele>
        <time>2020-01-28T18:26:22Z</time>
      </trkpt>
      <trkpt lat="39.929410" lon="3.133850">
        <ele>14.022</ele>
        <time>2020-01-28T18:26:42Z</time>
      </trkpt>
      <trkpt lat="39.929830" lon="3.133930">
        <ele>16.098</ele>
        <time>2020-01-28T18:27:02Z</time>
      </trkpt>
      <trkpt lat="39.930430" lon="3.134110">
        <ele>18.056</ele>
        <time>2020-01-28T18:27:22Z</time>
      </trkpt>
      <trkpt lat="39.930700" lon="3.134260">
        <ele>19.069</ele>
        <time>2020-01-28T18:27:42Z</time>
      </trkpt>
      <trkpt lat="39.931300" lon="3.134670">
        <ele>22.084</ele>
        <time>2020-01-28T18:28:02Z</time>
      </trkpt>
      <trkpt lat="39.932990" lon="3.135540">
        <ele>27.007</ele>
        <time>2020-01-28T18:28:22Z</time>
      </trkpt>
      <trkpt lat="39.933280" lon="3.135790">
        <ele>28.017</ele>
        <time>2020-01-28T18:28:42Z</time>
      </trkpt>
      <trkpt lat="39.933340" lon="3.135890">
        <ele>28.008</ele>
        <time>2020-01-28T18:29:02Z</time>
      </trkpt>
      <trkpt lat="39.933380" lon="3.136020">
        <ele>29.062</ele>
        <time>2020-01-28T18:29:22Z</time>
      </trkpt>
      <trkpt lat="39.933410" lon="3.136210">
        <ele>30.043</ele>
        <time>2020-01-28T18:29:42Z</time>
      </trkpt>
      <trkpt lat="39.933430" lon="3.136470">
        <ele>32.017</ele>
        <time>2020-01-28T18:30:02Z</time>
      </trkpt>
      <trkpt lat="39.933440" lon="3.137270">
        <ele>36.034</ele>
        <time>2020-01-28T18:30:22Z</time>
      </trkpt>
      <trkpt lat="39.933450" lon="3.137350">
        <ele>37.069</ele>
        <time>2020-01-28T18:30:42Z</time>
      </trkpt>
      <trkpt lat="39.933540" lon="3.137560">
        <ele>38.085</ele>
        <time>2020-01-28T18:31:02Z</time>
      </trkpt>
      <trkpt lat="39.934670" lon="3.139470">
        <ele>44.073</ele>
        <time>2020-01-28T18:31:22Z</time>
      </trkpt>
      <trkpt lat="39.934830" lon="3.139770">
        <ele>44.086</ele>
        <time>2020-01-28T18:31:42Z</time>
      </trkpt>
      <trkpt lat="39.935110" lon="3.140590">
        <ele>45.064</ele>
        <time>2020-01-28T18:32:02Z</time>
      </trkpt>
      <trkpt lat="39.935210" lon="3.140790">
        <ele>46.006</ele>
        <time>2020-01-28T18:32:22Z</time>
      </trkpt>
      <trkpt lat="39.935450" lon="3.141040">
        <ele>48.016</ele>
        <time>2020-01-28T18:32:42Z</time>
      </trkpt>
      <trkpt lat="39.938410" lon="3.144040">
        <ele>61.008</ele>
        <time>2020-01-28T18:33:02Z</time>
      </trkpt>
      <trkpt lat="39.938570" lon="3.144240">
        <ele>61.060</ele>
        <time>2020-01-28T18:33:22Z</time>
      </trkpt>
      <trkpt lat="39.939830" lon="3.146430">
        <ele>63.061</ele>
        <time>2020-01-28T18:33:42Z</time>
      </trkpt>
      <trkpt lat="39.941440" lon="3.149280">
        <ele>69.085</ele>
        <time>2020-01-28T18:34:02Z</time>
      </trkpt>
      <trkpt lat="39.941440" lon="3.149290">
        <ele>69.062</ele>
        <time>2020-01-28T18:34:22Z</time>
      </trkpt>
      <trkpt lat="39.945050" lon="3.155670">
        <ele>84.057</ele>
        <time>2020-01-28T18:34:42Z</time>
      </trkpt>
      <trkpt lat="39.947540" lon="3.160120">
        <ele>100.023</ele>
        <time>2020-01-28T18:35:02Z</time>
      </trkpt>
      <trkpt lat="39.947630" lon="3.160310">
        <ele>100.071</ele>
        <time>2020-01-28T18:35:22Z</time>
      </trkpt>
      <trkpt lat="39.947670" lon="3.160500">
        <ele>101.024</ele>
        <time>2020-01-28T18:35:42Z</time>
      </trkpt>
      <trkpt lat="39.947690" lon="3.160730">
        <ele>101.093</ele>
        <time>2020-01-28T18:36:02Z</time>
      </trkpt>
      <trkpt lat="39.947670" lon="3.161140">
        <ele>101.065</ele>
        <time>2020-01-28T18:36:22Z</time>
      </trkpt>
      <trkpt lat="39.947530" lon="3.161850">
        <ele>101.021</ele>
        <time>2020-01-28T18:36:42Z</time>
      </trkpt>
      <trkpt lat="39.947520" lon="3.162050">
        <ele>100.008</ele>
        <time>2020-01-28T18:37:02Z</time>
      </trkpt>
      <trkpt lat="39.947540" lon="3.162250">
        <ele>100.083</ele>
        <time>2020-01-28T18:37:22Z</time>
      </trkpt>
      <trkpt lat="39.947570" lon="3.162350">
        <ele>100.074</ele>
        <time>2020-01-28T18:37:42Z</time>
      </trkpt>
      <trkpt lat="39.947790" lon="3.162640">
        <ele>100.028</ele>
        <time>2020-01-28T18:38:02Z</time>
      </trkpt>
      <trkpt lat="39.948220" lon="3.163100">
        <ele>99.025</ele>
        <time>2020-01-28T18:38:22Z</time>
      </trkpt>
      <trkpt lat="39.948300" lon="3.163200">
        <ele>98.020</ele>
        <time>2020-01-28T18:38:42Z</time>
      </trkpt>
      <trkpt lat="39.948350" lon="3.163370">
        <ele>97.086</ele>
        <time>2020-01-28T18:39:02Z</time>
      </trkpt>
      <trkpt lat="39.948900" lon="3.166000">
        <ele>86.064</ele>
        <time>2020-01-28T18:39:22Z</time>
      </trkpt>
      <trkpt lat="39.949060" lon="3.167280">
        <ele>88.017</ele>
        <time>2020-01-28T18:39:42Z</time>
      </trkpt>
      <trkpt lat="39.949300" lon="3.168720">
        <ele>94.011</ele>
        <time>2020-01-28T18:40:02Z</time>
      </trkpt>
      <trkpt lat="39.949270" lon="3.169050">
        <ele>96.021</ele>
        <time>2020-01-28T18:40:22Z</time>
      </trkpt>
      <trkpt lat="39.949200" lon="3.169350">
        <ele>98.003</ele>
        <time>2020-01-28T18:40:42Z</time>
      </trkpt>
      <trkpt lat="39.949120" lon="3.169880">
        <ele>102.008</ele>
        <time>2020-01-28T18:41:02Z</time>
      </trkpt>
      <trkpt lat="39.949210" lon="3.170610">
        <ele>107.075</ele>
        <time>2020-01-28T18:41:22Z</time>
      </trkpt>
      <trkpt lat="39.949190" lon="3.170820">
        <ele>109.076</ele>
        <time>2020-01-28T18:41:42Z</time>
      </trkpt>
      <trkpt lat="39.949120" lon="3.171050">
        <ele>110.050</ele>
        <time>2020-01-28T18:42:02Z</time>
      </trkpt>
      <trkpt lat="39.949040" lon="3.171220">
        <ele>112.027</ele>
        <time>2020-01-28T18:42:22Z</time>
      </trkpt>
      <trkpt lat="39.948940" lon="3.171300">
        <ele>113.082</ele>
        <time>2020-01-28T18:42:42Z</time>
      </trkpt>
      <trkpt lat="39.948360" lon="3.171340">
        <ele>118.018</ele>
        <time>2020-01-28T18:43:02Z</time>
      </trkpt>
      <trkpt lat="39.948270" lon="3.171370">
        <ele>119.076</ele>
        <time>2020-01-28T18:43:22Z</time>
      </trkpt>
      <trkpt lat="39.948160" lon="3.171520">
        <ele>120.099</ele>
        <time>2020-01-28T18:43:42Z</time>
      </trkpt>
      <trkpt lat="39.948140" lon="3.171630">
        <ele>121.015</ele>
        <time>2020-01-28T18:44:02Z</time>
      </trkpt>
      <trkpt lat="39.948140" lon="3.171740">
        <ele>122.065</ele>
        <time>2020-01-28T18:44:22Z</time>
      </trkpt>
      <trkpt lat="39.948170" lon="3.171840">
        <ele>122.011</ele>
        <time>2020-01-28T18:44:42Z</time>
      </trkpt>
      <trkpt lat="39.948240" lon="3.171900">
        <ele>123.008</ele>
        <time>2020-01-28T18:45:02Z</time>
      </trkpt>
      <trkpt lat="39.948820" lon="3.172230">
        <ele>126.075</ele>
        <time>2020-01-28T18:45:22Z</time>
      </trkpt>
      <trkpt lat="39.948890" lon="3.172300">
        <ele>126.016</ele>
        <time>2020-01-28T18:45:42Z</time>
      </trkpt>
      <trkpt lat="39.948930" lon="3.172410">
        <ele>126.040</ele>
        <time>2020-01-28T18:46:02Z</time>
      </trkpt>
      <trkpt lat="39.948930" lon="3.172550">
        <ele>126.057</ele>
        <time>2020-01-28T18:46:22Z</time>
      </trkpt>
      <trkpt lat="39.948810" lon="3.173280">
        <ele>126.062</ele>
        <time>2020-01-28T18:46:42Z</time>
      </trkpt>
      <trkpt lat="39.948840" lon="3.173600">
        <ele>126.098</ele>
        <time>2020-01-28T18:47:02Z</time>
      </trkpt>
      <trkpt lat="39.949120" lon="3.174430">
        <ele>131.046</ele>
        <time>2020-01-28T18:47:22Z</time>
      </trkpt>
      <trkpt lat="39.949390" lon="3.175040">
        <ele>152.099</ele>
        <time>2020-01-28T18:47:42Z</time>
      </trkpt>
      <trkpt lat="39.949660" lon="3.176290">
        <ele>190.035</ele>
        <time>2020-01-28T18:48:02Z</time>
      </trkpt>
      <trkpt lat="39.949670" lon="3.176410">
        <ele>194.086</ele>
        <time>2020-01-28T18:48:22Z</time>
      </trkpt>
      <trkpt lat="39.949650" lon="3.176510">
        <ele>197.014</ele>
        <time>2020-01-28T18:48:42Z</time>
      </trkpt>
      <trkpt lat="39.949430" lon="3.177190">
        <ele>196.008</ele>
        <time>2020-01-28T18:49:02Z</time>
      </trkpt>
      <trkpt lat="39.949400" lon="3.177370">
        <ele>193.037</ele>
        <time>2020-01-28T18:49:22Z</time>
      </trkpt>
      <trkpt lat="39.949360" lon="3.178040">
        <ele>182.088</ele>
        <time>2020-01-28T18:49:42Z</time>
      </trkpt>
      <trkpt lat="39.949440" lon="3.178440">
        <ele>175.052</ele>
        <time>2020-01-28T18:50:02Z</time>
      </trkpt>
      <trkpt lat="39.949990" lon="3.180150">
        <ele>165.019</ele>
        <time>2020-01-28T18:50:22Z</time>
      </trkpt>
      <trkpt lat="39.950740" lon="3.183080">
        <ele>178.094</ele>
        <time>2020-01-28T18:50:42Z</time>
      </trkpt>
      <trkpt lat="39.951240" lon="3.184110">
        <ele>182.040</ele>
        <time>2020-01-28T18:51:02Z</time>
      </trkpt>
      <trkpt lat="39.951760" lon="3.184810">
        <ele>183.088</ele>
        <time>2020-01-28T18:51:22Z</time>
      </trkpt>
      <trkpt lat="39.951820" lon="3.184960">
        <ele>183.071</ele>
        <time>2020-01-28T18:51:42Z</time>
      </trkpt>
      <trkpt lat="39.951910" lon="3.185530">
        <ele>183.099</ele>
        <time>2020-01-28T18:52:02Z</time>
      </trkpt>
      <trkpt lat="39.952000" lon="3.185690">
        <ele>183.007</ele>
        <time>2020-01-28T18:52:22Z</time>
      </trkpt>
      <trkpt lat="39.952170" lon="3.185890">
        <ele>183.027</ele>
        <time>2020-01-28T18:52:42Z</time>
      </trkpt>
      <trkpt lat="39.952370" lon="3.186070">
        <ele>183.008</ele>
        <time>2020-01-28T18:53:02Z</time>
      </trkpt>
      <trkpt lat="39.952660" lon="3.186240">
        <ele>182.033</ele>
        <time>2020-01-28T18:53:22Z</time>
      </trkpt>
      <trkpt lat="39.952710" lon="3.186290">
        <ele>181.094</ele>
        <time>2020-01-28T18:53:42Z</time>
      </trkpt>
      <trkpt lat="39.952750" lon="3.186380">
        <ele>181.058</ele>
        <time>2020-01-28T18:54:02Z</time>
      </trkpt>
      <trkpt lat="39.952820" lon="3.187070">
        <ele>179.065</ele>
        <time>2020-01-28T18:54:22Z</time>
      </trkpt>
      <trkpt lat="39.952880" lon="3.187330">
        <ele>178.050</ele>
        <time>2020-01-28T18:54:42Z</time>
      </trkpt>
      <trkpt lat="39.953090" lon="3.187700">
        <ele>177.026</ele>
        <time>2020-01-28T18:55:02Z</time>
      </trkpt>
      <trkpt lat="39.953120" lon="3.187790">
        <ele>176.044</ele>
        <time>2020-01-28T18:55:22Z</time>
      </trkpt>
      <trkpt lat="39.953110" lon="3.187890">
        <ele>176.047</ele>
        <time>2020-01-28T18:55:42Z</time>
      </trkpt>
      <trkpt lat="39.953000" lon="3.188400">
        <ele>175.053</ele>
        <time>2020-01-28T18:56:02Z</time>
      </trkpt>
      <trkpt lat="39.952980" lon="3.188620">
        <ele>175.004</ele>
        <time>2020-01-28T18:56:22Z</time>
      </trkpt>
      <trkpt lat="39.952990" lon="3.188720">
        <ele>175.014</ele>
        <time>2020-01-28T18:56:42Z</time>
      </trkpt>
      <trkpt lat="39.953040" lon="3.188830">
        <ele>175.008</ele>
        <time>2020-01-28T18:57:02Z</time>
      </trkpt>
      <trkpt lat="39.953150" lon="3.188900">
        <ele>175.079</ele>
        <time>2020-01-28T18:57:22Z</time>
      </trkpt>
      <trkpt lat="39.953250" lon="3.188930">
        <ele>175.070</ele>
        <time>2020-01-28T18:57:42Z</time>
      </trkpt>
      <trkpt lat="39.953960" lon="3.189100">
        <ele>176.054</ele>
        <time>2020-01-28T18:58:02Z</time>
      </trkpt>
      <trkpt lat="39.954060" lon="3.189170">
        <ele>177.041</ele>
        <time>2020-01-28T18:58:22Z</time>
      </trkpt>
      <trkpt lat="39.954100" lon="3.189250">
        <ele>177.076</ele>
        <time>2020-01-28T18:58:42Z</time>
      </trkpt>
      <trkpt lat="39.954130" lon="3.189410">
        <ele>177.022</ele>
        <time>2020-01-28T18:59:02Z</time>
      </trkpt>
      <trkpt lat="39.954080" lon="3.189590">
        <ele>177.020</ele>
        <time>2020-01-28T18:59:22Z</time>
      </trkpt>
      <trkpt lat="39.953460" lon="3.190190">
        <ele>180.073</ele>
        <time>2020-01-28T18:59:42Z</time>
      </trkpt>
      <trkpt lat="39.953300" lon="3.190380">
        <ele>181.092</ele>
        <time>2020-01-28T19:00:02Z</time>
      </trkpt>
      <trkpt lat="39.952740" lon="3.191370">
        <ele>186.073</ele>
        <time>2020-01-28T19:00:22Z</time>
      </trkpt>
      <trkpt lat="39.952700" lon="3.191520">
        <ele>186.020</ele>
        <time>2020-01-28T19:00:42Z</time>
      </trkpt>
      <trkpt lat="39.952700" lon="3.191650">
        <ele>187.008</ele>
        <time>2020-01-28T19:01:02Z</time>
      </trkpt>
      <trkpt lat="39.952870" lon="3.192000">
        <ele>189.093</ele>
        <time>2020-01-28T19:01:22Z</time>
      </trkpt>
      <trkpt lat="39.952900" lon="3.192140">
        <ele>189.014</ele>
        <time>2020-01-28T19:01:42Z</time>
      </trkpt>
      <trkpt lat="39.952890" lon="3.192240">
        <ele>190.068</ele>
        <time>2020-01-28T19:02:02Z</time>
      </trkpt>
      <trkpt lat="39.952830" lon="3.192350">
        <ele>191.035</ele>
        <time>2020-01-28T19:02:22Z</time>
      </trkpt>
      <trkpt lat="39.952780" lon="3.192400">
        <ele>191.090</ele>
        <time>2020-01-28T19:02:42Z</time>
      </trkpt>
      <trkpt lat="39.952600" lon="3.192520">
        <ele>192.096</ele>
        <time>2020-01-28T19:03:02Z</time>
      </trkpt>
      <trkpt lat="39.951840" lon="3.192700">
        <ele>198.024</ele>
        <time>2020-01-28T19:03:22Z</time>
      </trkpt>
      <trkpt lat="39.951780" lon="3.192750">
        <ele>198.087</ele>
        <time>2020-01-28T19:03:42Z</time>
      </trkpt>
      <trkpt lat="39.951570" lon="3.193070">
        <ele>200.038</ele>
        <time>2020-01-28T19:04:02Z</time>
      </trkpt>
      <trkpt lat="39.951430" lon="3.193220">
        <ele>202.070</ele>
        <time>2020-01-28T19:04:22Z</time>
      </trkpt>
      <trkpt lat="39.951170" lon="3.193430">
        <ele>203.017</ele>
        <time>2020-01-28T19:04:42Z</time>
      </trkpt>
      <trkpt lat="39.951080" lon="3.193520">
        <ele>204.008</ele>
        <time>2020-01-28T19:05:02Z</time>
      </trkpt>
      <trkpt lat="39.951050" lon="3.193640">
        <ele>204.067</ele>
        <time>2020-01-28T19:05:22Z</time>
      </trkpt>
      <trkpt lat="39.951050" lon="3.193750">
        <ele>205.068</ele>
        <time>2020-01-28T19:05:42Z</time>
      </trkpt>
      <trkpt lat="39.951120" lon="3.193910">
        <ele>206.082</ele>
        <time>2020-01-28T19:06:02Z</time>
      </trkpt>
      <trkpt lat="39.951360" lon="3.194270">
        <ele>208.029</ele>
        <time>2020-01-28T19:06:22Z</time>
      </trkpt>
      <trkpt lat="39.951420" lon="3.194430">
        <ele>208.054</ele>
        <time>2020-01-28T19:06:42Z</time>
      </trkpt>
      <trkpt lat="39.951420" lon="3.194500">
        <ele>209.030</ele>
        <time>2020-01-28T19:07:02Z</time>
      </trkpt>
      <trkpt lat="39.951400" lon="3.194570">
        <ele>209.068</ele>
        <time>2020-01-28T19:07:22Z</time>
      </trkpt>
      <trkpt lat="39.951350" lon="3.194660">
        <ele>209.051</ele>
        <time>2020-01-28T19:07:42Z</time>
      </trkpt>
      <trkpt lat="39.951260" lon="3.194750">
        <ele>210.067</ele>
        <time>2020-01-28T19:08:02Z</time>
      </trkpt>
      <trkpt lat="39.950880" lon="3.194940">
        <ele>212.081</ele>
        <time>2020-01-28T19:08:22Z</time>
      </trkpt>
      <trkpt lat="39.950820" lon="3.195010">
        <ele>213.019</ele>
        <time>2020-01-28T19:08:42Z</time>
      </trkpt>
      <trkpt lat="39.950740" lon="3.195180">
        <ele>214.008</ele>
        <time>2020-01-28T19:09:02Z</time>
      </trkpt>
      <trkpt lat="39.950730" lon="3.195290">
        <ele>214.020</ele>
        <time>2020-01-28T19:09:22Z</time>
      </trkpt>
      <trkpt lat="39.950730" lon="3.195470">
        <ele>215.081</ele>
        <time>2020-01-28T19:09:42Z</time>
      </trkpt>
      <trkpt lat="39.950830" lon="3.196150">
        <ele>219.025</ele>
        <time>2020-01-28T19:10:02Z</time>
      </trkpt>
      <trkpt lat="39.950910" lon="3.196520">
        <ele>221.072</ele>
        <time>2020-01-28T19:10:22Z</time>
      </trkpt>
      <trkpt lat="39.950990" lon="3.196740">
        <ele>222.067</ele>
        <time>2020-01-28T19:10:42Z</time>
      </trkpt>
      <trkpt lat="39.951320" lon="3.197400">
        <ele>225.013</ele>
        <time>2020-01-28T19:11:02Z</time>
      </trkpt>
      <trkpt lat="39.951370" lon="3.197570">
        <ele>225.081</ele>
        <time>2020-01-28T19:11:22Z</time>
      </trkpt>
      <trkpt lat="39.951430" lon="3.197980">
        <ele>224.084</ele>
        <time>2020-01-28T19:11:42Z</time>
      </trkpt>
      <trkpt lat="39.951470" lon="3.198080">
        <ele>223.059</ele>
        <time>2020-01-28T19:12:02Z</time>
      </trkpt>
      <trkpt lat="39.951560" lon="3.198200">
        <ele>223.003</ele>
        <time>2020-01-28T19:12:22Z</time>
      </trkpt>
      <trkpt lat="39.951680" lon="3.198250">
        <ele>222.023</ele>
        <time>2020-01-28T19:12:42Z</time>
      </trkpt>
      <trkpt lat="39.952710" lon="3.198360">
        <ele>218.008</ele>
        <time>2020-01-28T19:13:02Z</time>
      </trkpt>
      <trkpt lat="39.952810" lon="3.198400">
        <ele>218.039</ele>
        <time>2020-01-28T19:13:22Z</time>
      </trkpt>
      <trkpt lat="39.952880" lon="3.198460">
        <ele>217.030</ele>
        <time>2020-01-28T19:13:42Z</time>
      </trkpt>
      <trkpt lat="39.952960" lon="3.198590">
        <ele>217.024</ele>
        <time>2020-01-28T19:14:02Z</time>
      </trkpt>
      <trkpt lat="39.953000" lon="3.198710">
        <ele>217.041</ele>
        <time>2020-01-28T19:14:22Z</time>
      </trkpt>
      <trkpt lat="39.953010" lon="3.198880">
        <ele>216.076</ele>
        <time>2020-01-28T19:14:42Z</time>
      </trkpt>
      <trkpt lat="39.952940" lon="3.199160">
        <ele>215.042</ele>
        <time>2020-01-28T19:15:02Z</time>
      </trkpt>
      <trkpt lat="39.952790" lon="3.199420">
        <ele>214.050</ele>
        <time>2020-01-28T19:15:22Z</time>
      </trkpt>
      <trkpt lat="39.952740" lon="3.199640">
        <ele>213.063</ele>
        <time>2020-01-28T19:15:42Z</time>
      </trkpt>
      <trkpt lat="39.952720" lon="3.199820">
        <ele>213.048</ele>
        <time>2020-01-28T19:16:02Z</time>
      </trkpt>
      <trkpt lat="39.952750" lon="3.200100">
        <ele>212.061</ele>
        <time>2020-01-28T19:16:22Z</time>
      </trkpt>
      <trkpt lat="39.953040" lon="3.200990">
        <ele>209.017</ele>
        <time>2020-01-28T19:16:42Z</time>
      </trkpt>
      <trkpt lat="39.953310" lon="3.201390">
        <ele>206.008</ele>
        <time>2020-01-28T19:17:02Z</time>
      </trkpt>
      <trkpt lat="39.953360" lon="3.201480">
        <ele>205.078</ele>
        <time>2020-01-28T19:17:22Z</time>
      </trkpt>
      <trkpt lat="39.953380" lon="3.201620">
        <ele>204.029</ele>
        <time>2020-01-28T19:17:42Z</time>
      </trkpt>
      <trkpt lat="39.953380" lon="3.202580">
        <ele>198.053</ele>
        <time>2020-01-28T19:18:02Z</time>
      </trkpt>
      <trkpt lat="39.953430" lon="3.202700">
        <ele>197.090</ele>
        <time>2020-01-28T19:18:22Z</time>
      </trkpt>
      <trkpt lat="39.953540" lon="3.202810">
        <ele>196.075</ele>
        <time>2020-01-28T19:18:42Z</time>
      </trkpt>
      <trkpt lat="39.953600" lon="3.202810">
        <ele>196.081</ele>
        <time>2020-01-28T19:19:02Z</time>
      </trkpt>
      <trkpt lat="39.953740" lon="3.202740">
        <ele>195.099</ele>
        <time>2020-01-28T19:19:22Z</time>
      </trkpt>
      <trkpt lat="39.953780" lon="3.202680">
        <ele>194.092</ele>
        <time>2020-01-28T19:19:42Z</time>
      </trkpt>
      <trkpt lat="39.953800" lon="3.202600">
        <ele>194.058</ele>
        <time>2020-01-28T19:20:02Z</time>
      </trkpt>
      <trkpt lat="39.953810" lon="3.202500">
        <ele>193.052</ele>
        <time>2020-01-28T19:20:22Z</time>
      </trkpt>
      <trkpt lat="39.953760" lon="3.202220">
        <ele>192.017</ele>
        <time>2020-01-28T19:20:42Z</time>
      </trkpt>
      <trkpt lat="39.953760" lon="3.202070">
        <ele>192.008</ele>
        <time>2020-01-28T19:21:02Z</time>
      </trkpt>
      <trkpt lat="39.953800" lon="3.201960">
        <ele>191.079</ele>
        <time>2020-01-28T19:21:22Z</time>
      </trkpt>
      <trkpt lat="39.953890" lon="3.201880">
        <ele>191.020</ele>
        <time>2020-01-28T19:21:42Z</time>
      </trkpt>
      <trkpt lat="39.953960" lon="3.201880">
        <ele>191.014</ele>
        <time>2020-01-28T19:22:02Z</time>
      </trkpt>
      <trkpt lat="39.954220" lon="3.201980">
        <ele>189.011</ele>
        <time>2020-01-28T19:22:22Z</time>
      </trkpt>
      <trkpt lat="39.954320" lon="3.201960">
        <ele>189.026</ele>
        <time>2020-01-28T19:22:42Z</time>
      </trkpt>
      <trkpt lat="39.954400" lon="3.201820">
        <ele>188.082</ele>
        <time>2020-01-28T19:23:02Z</time>
      </trkpt>
      <trkpt lat="39.954550" lon="3.201390">
        <ele>187.040</ele>
        <time>2020-01-28T19:23:22Z</time>
      </trkpt>
      <trkpt lat="39.954730" lon="3.201180">
        <ele>186.013</ele>
        <time>2020-01-28T19:23:42Z</time>
      </trkpt>
      <trkpt lat="39.955190" lon="3.200860">
        <ele>184.013</ele>
        <time>2020-01-28T19:24:02Z</time>
      </trkpt>
      <trkpt lat="39.955280" lon="3.200880">
        <ele>183.043</ele>
        <time>2020-01-28T19:24:22Z</time>
      </trkpt>
      <trkpt lat="39.955340" lon="3.200910">
        <ele>183.007</ele>
        <time>2020-01-28T19:24:42Z</time>
      </trkpt>
      <trkpt lat="39.955420" lon="3.201080">
        <ele>183.008</ele>
        <time>2020-01-28T19:25:02Z</time>
      </trkpt>
      <trkpt lat="39.955440" lon="3.201170">
        <ele>182.025</ele>
        <time>2020-01-28T19:25:22Z</time>
      </trkpt>
      <trkpt lat="39.955390" lon="3.201450">
        <ele>182.016</ele>
        <time>2020-01-28T19:25:42Z</time>
      </trkpt>
      <trkpt lat="39.955400" lon="3.201510">
        <ele>181.020</ele>
        <time>2020-01-28T19:26:02Z</time>
      </trkpt>
      <trkpt lat="39.955380" lon="3.201630">
        <ele>181.087</ele>
        <time>2020-01-28T19:26:22Z</time>
      </trkpt>
      <trkpt lat="39.955400" lon="3.201730">
        <ele>181.052</ele>
        <time>2020-01-28T19:26:42Z</time>
      </trkpt>
      <trkpt lat="39.955460" lon="3.202560">
        <ele>179.078</ele>
        <time>2020-01-28T19:27:02Z</time>
      </trkpt>
      <trkpt lat="39.955410" lon="3.202690">
        <ele>178.096</ele>
        <time>2020-01-28T19:27:22Z</time>
      </trkpt>
      <trkpt lat="39.955330" lon="3.202820">
        <ele>178.039</ele>
        <time>2020-01-28T19:27:42Z</time>
      </trkpt>
      <trkpt lat="39.954790" lon="3.203270">
        <ele>179.066</ele>
        <time>2020-01-28T19:28:02Z</time>
      </trkpt>
      <trkpt lat="39.954690" lon="3.203380">
        <ele>179.029</ele>
        <time>2020-01-28T19:28:22Z</time>
      </trkpt>
      <trkpt lat="39.954600" lon="3.203520">
        <ele>179.021</ele>
        <time>2020-01-28T19:28:42Z</time>
      </trkpt>
      <trkpt lat="39.954140" lon="3.204410">
        <ele>181.008</ele>
        <time>2020-01-28T19:29:02Z</time>
      </trkpt>
      <trkpt lat="39.954000" lon="3.204720">
        <ele>181.050</ele>
        <time>2020-01-28T19:29:22Z</time>
      </trkpt>
      <trkpt lat="39.953770" lon="3.205580">
        <ele>184.021</ele>
        <time>2020-01-28T19:29:42Z</time>
      </trkpt>
      <trkpt lat="39.953600" lon="3.205970">
        <ele>186.085</ele>
        <time>2020-01-28T19:30:02Z</time>
      </trkpt>
      <trkpt lat="39.953570" lon="3.206100">
        <ele>186.082</ele>
        <time>2020-01-28T19:30:22Z</time>
      </trkpt>
      <trkpt lat="39.953570" lon="3.206230">
        <ele>187.037</ele>
        <time>2020-01-28T19:30:42Z</time>
      </trkpt>
      <trkpt lat="39.953720" lon="3.207130">
        <ele>190.063</ele>
        <time>2020-01-28T19:31:02Z</time>
      </trkpt>
      <trkpt lat="39.953760" lon="3.207290">
        <ele>190.031</ele>
        <time>2020-01-28T19:31:22Z</time>
      </trkpt>
      <trkpt lat="39.953830" lon="3.207410">
        <ele>190.084</ele>
        <time>2020-01-28T19:31:42Z</time>
      </trkpt>
      <trkpt lat="39.954000" lon="3.207610">
        <ele>190.016</ele>
        <time>2020-01-28T19:32:02Z</time>
      </trkpt>
      <trkpt lat="39.954160" lon="3.207740">
        <ele>190.076</ele>
        <time>2020-01-28T19:32:22Z</time>
      </trkpt>
      <trkpt lat="39.955030" lon="3.208200">
        <ele>190.013</ele>
        <time>2020-01-28T19:32:42Z</time>
      </trkpt>
      <trkpt lat="39.955150" lon="3.208240">
        <ele>190.008</ele>
        <time>2020-01-28T19:33:02Z</time>
      </trkpt>
      <trkpt lat="39.955370" lon="3.208240">
        <ele>190.095</ele>
        <time>2020-01-28T19:33:22Z</time>
      </trkpt>
      <trkpt lat="39.956120" lon="3.208000">
        <ele>192.086</ele>
        <time>2020-01-28T19:33:42Z</time>
      </trkpt>
      <trkpt lat="39.956720" lon="3.208250">
        <ele>195.020</ele>
        <time>2020-01-28T19:34:02Z</time>
      </trkpt>
      <trkpt lat="39.956900" lon="3.208300">
        <ele>195.067</ele>
        <time>2020-01-28T19:34:22Z</time>
      </trkpt>
      <trkpt lat="39.957000" lon="3.208280">
        <ele>196.042</ele>
        <time>2020-01-28T19:34:42Z</time>
      </trkpt>
      <trkpt lat="39.957120" lon="3.208180">
        <ele>197.018</ele>
        <time>2020-01-28T19:35:02Z</time>
      </trkpt>
      <trkpt lat="39.957160" lon="3.208110">
        <ele>197.076</ele>
        <time>2020-01-28T19:35:22Z</time>
      </trkpt>
      <trkpt lat="39.957170" lon="3.208030">
        <ele>197.069</ele>
        <time>2020-01-28T19:35:42Z</time>
      </trkpt>
      <trkpt lat="39.957180" lon="3.207560">
        <ele>198.094</ele>
        <time>2020-01-28T19:36:02Z</time>
      </trkpt>
      <trkpt lat="39.957200" lon="3.207470">
        <ele>198.057</ele>
        <time>2020-01-28T19:36:22Z</time>
      </trkpt>
      <trkpt lat="39.957260" lon="3.207370">
        <ele>198.022</ele>
        <time>2020-01-28T19:36:42Z</time>
      </trkpt>
      <trkpt lat="39.957350" lon="3.207300">
        <ele>198.008</ele>
        <time>2020-01-28T19:37:02Z</time>
      </trkpt>
      <trkpt lat="39.957480" lon="3.207290">
        <ele>198.093</ele>
        <time>2020-01-28T19:37:22Z</time>
      </trkpt>
      <trkpt lat="39.957590" lon="3.207370">
        <ele>198.094</ele>
        <time>2020-01-28T19:37:42Z</time>
      </trkpt>
      <trkpt lat="39.957660" lon="3.207500">
        <ele>198.088</ele>
        <time>2020-01-28T19:38:02Z</time>
      </trkpt>
      <trkpt lat="39.957840" lon="3.207950">
        <ele>197.055</ele>
        <time>2020-01-28T19:38:22Z</time>
      </trkpt>
      <trkpt lat="39.957860" lon="3.208310">
        <ele>197.050</ele>
        <time>2020-01-28T19:38:42Z</time>
      </trkpt>
      <trkpt lat="39.957850" lon="3.208460">
        <ele>197.066</ele>
        <time>2020-01-28T19:39:02Z</time>
      </trkpt>
      <trkpt lat="39.957790" lon="3.208660">
        <ele>197.034</ele>
        <time>2020-01-28T19:39:22Z</time>
      </trkpt>
      <trkpt lat="39.957700" lon="3.208820">
        <ele>197.027</ele>
        <time>2020-01-28T19:39:42Z</time>
      </trkpt>
      <trkpt lat="39.957480" lon="3.209110">
        <ele>196.097</ele>
        <time>2020-01-28T19:40:02Z</time>
      </trkpt>
      <trkpt lat="39.957190" lon="3.209380">
        <ele>191.023</ele>
        <time>2020-01-28T19:40:22Z</time>
      </trkpt>
      <trkpt lat="39.956740" lon="3.210080">
        <ele>183.025</ele>
        <time>2020-01-28T19:40:42Z</time>
      </trkpt>
      <trkpt lat="39.956330" lon="3.210670">
        <ele>176.008</ele>
        <time>2020-01-28T19:41:02Z</time>
      </trkpt>
      <trkpt lat="39.956080" lon="3.210950">
        <ele>172.063</ele>
        <time>2020-01-28T19:41:22Z</time>
      </trkpt>
      <trkpt lat="39.955580" lon="3.211390">
        <ele>169.084</ele>
        <time>2020-01-28T19:41:42Z</time>
      </trkpt>
      <trkpt lat="39.955460" lon="3.211490">
        <ele>168.068</ele>
        <time>2020-01-28T19:42:02Z</time>
      </trkpt>
      <trkpt lat="39.955380" lon="3.211510">
        <ele>167.075</ele>
        <time>2020-01-28T19:42:22Z</time>
      </trkpt>
      <trkpt lat="39.955310" lon="3.211580">
        <ele>167.080</ele>
        <time>2020-01-28T19:42:42Z</time>
      </trkpt>
      <trkpt lat="39.955280" lon="3.211670">
        <ele>166.066</ele>
        <time>2020-01-28T19:43:02Z</time>
      </trkpt>
      <trkpt lat="39.955280" lon="3.211750">
        <ele>166.094</ele>
        <time>2020-01-28T19:43:22Z</time>
      </trkpt>
      <trkpt lat="39.955320" lon="3.211840">
        <ele>166.037</ele>
        <time>2020-01-28T19:43:42Z</time>
      </trkpt>
      <trkpt lat="39.955370" lon="3.211900">
        <ele>165.046</ele>
        <time>2020-01-28T19:44:02Z</time>
      </trkpt>
      <trkpt lat="39.955420" lon="3.211930">
        <ele>165.088</ele>
        <time>2020-01-28T19:44:22Z</time>
      </trkpt>
      <trkpt lat="39.955540" lon="3.211920">
        <ele>164.016</ele>
        <time>2020-01-28T19:44:42Z</time>
      </trkpt>
      <trkpt lat="39.956190" lon="3.211540">
        <ele>160.008</ele>
        <time>2020-01-28T19:45:02Z</time>
      </trkpt>
      <trkpt lat="39.956270" lon="3.211520">
        <ele>159.048</ele>
        <time>2020-01-28T19:45:22Z</time>
      </trkpt>
      <trkpt lat="39.956590" lon="3.211560">
        <ele>156.089</ele>
        <time>2020-01-28T19:45:42Z</time>
      </trkpt>
      <trkpt lat="39.956890" lon="3.211630">
        <ele>153.023</ele>
        <time>2020-01-28T19:46:02Z</time>
      </trkpt>
      <trkpt lat="39.956890" lon="3.211640">
        <ele>153.040</ele>
        <time>2020-01-28T19:46:22Z</time>
      </trkpt>
      <trkpt lat="39.957340" lon="3.211740">
        <ele>149.025</ele>
        <time>2020-01-28T19:46:42Z</time>
      </trkpt>
      <trkpt lat="39.957410" lon="3.211730">
        <ele>149.031</ele>
        <time>2020-01-28T19:47:02Z</time>
      </trkpt>
      <trkpt lat="39.957480" lon="3.211710">
        <ele>148.069</ele>
        <time>2020-01-28T19:47:22Z</time>
      </trkpt>
      <trkpt lat="39.958070" lon="3.211300">
        <ele>142.022</ele>
        <time>2020-01-28T19:47:42Z</time>
      </trkpt>
      <trkpt lat="39.958190" lon="3.211260">
        <ele>142.041</ele>
        <time>2020-01-28T19:48:02Z</time>
      </trkpt>
      <trkpt lat="39.958790" lon="3.211180">
        <ele>141.081</ele>
        <time>2020-01-28T19:48:22Z</time>
      </trkpt>
      <trkpt lat="39.958860" lon="3.211140">
        <ele>141.009</ele>
        <time>2020-01-28T19:48:42Z</time>
      </trkpt>
      <trkpt lat="39.958990" lon="3.210980">
        <ele>140.008</ele>
        <time>2020-01-28T19:49:02Z</time>
      </trkpt>
      <trkpt lat="39.959360" lon="3.210330">
        <ele>139.038</ele>
        <time>2020-01-28T19:49:22Z</time>
      </trkpt>
      <trkpt lat="39.959430" lon="3.210250">
        <ele>139.029</ele>
        <time>2020-01-28T19:49:42Z</time>
      </trkpt>
      <trkpt lat="39.959520" lon="3.210170">
        <ele>139.083</ele>
        <time>2020-01-28T19:50:02Z</time>
      </trkpt>
      <trkpt lat="39.959980" lon="3.209900">
        <ele>139.080</ele>
        <time>2020-01-28T19:50:22Z</time>
      </trkpt>
      <trkpt lat="39.960060" lon="3.209910">
        <ele>139.015</ele>
        <time>2020-01-28T19:50:42Z</time>
      </trkpt>
      <trkpt lat="39.960150" lon="3.209960">
        <ele>139.051</ele>
        <time>2020-01-28T19:51:02Z</time>
      </trkpt>
      <trkpt lat="39.960310" lon="3.210180">
        <ele>139.039</ele>
        <time>2020-01-28T19:51:22Z</time>
      </trkpt>
      <trkpt lat="39.960330" lon="3.210300">
        <ele>139.072</ele>
        <time>2020-01-28T19:51:42Z</time>
      </trkpt>
      <trkpt lat="39.960330" lon="3.210470">
        <ele>139.073</ele>
        <time>2020-01-28T19:52:02Z</time>
      </trkpt>
      <trkpt lat="39.960320" lon="3.210570">
        <ele>140.085</ele>
        <time>2020-01-28T19:52:22Z</time>
      </trkpt>
      <trkpt lat="39.960340" lon="3.210700">
        <ele>140.013</ele>
        <time>2020-01-28T19:52:42Z</time>
      </trkpt>
      <trkpt lat="39.960410" lon="3.210830">
        <ele>140.008</ele>
        <time>2020-01-28T19:53:02Z</time>
      </trkpt>
      <trkpt lat="39.960510" lon="3.210930">
        <ele>140.021</ele>
        <time>2020-01-28T19:53:22Z</time>
      </trkpt>
      <trkpt lat="39.960640" lon="3.211190">
        <ele>140.092</ele>
        <time>2020-01-28T19:53:42Z</time>
      </trkpt>
      <trkpt lat="39.960620" lon="3.211370">
        <ele>140.096</ele>
        <time>2020-01-28T19:54:02Z</time>
      </trkpt>
      <trkpt lat="39.960460" lon="3.211700">
        <ele>141.043</ele>
        <time>2020-01-28T19:54:22Z</time>
      </trkpt>
      <trkpt lat="39.960360" lon="3.211940">
        <ele>143.088</ele>
        <time>2020-01-28T19:54:42Z</time>
      </trkpt>
      <trkpt lat="39.960360" lon="3.212110">
        <ele>144.044</ele>
        <time>2020-01-28T19:55:02Z</time>
      </trkpt>
      <trkpt lat="39.960410" lon="3.212150">
        <ele>145.052</ele>
        <time>2020-01-28T19:55:22Z</time>
      </trkpt>
      <trkpt lat="39.960500" lon="3.212110">
        <ele>146.015</ele>
        <time>2020-01-28T19:55:42Z</time>
      </trkpt>
      <trkpt lat="39.960650" lon="3.211740">
        <ele>149.011</ele>
        <time>2020-01-28T19:56:02Z</time>
      </trkpt>
      <trkpt lat="39.960780" lon="3.211360">
        <ele>152.021</ele>
        <time>2020-01-28T19:56:22Z</time>
      </trkpt>
      <trkpt lat="39.960860" lon="3.211260">
        <ele>153.003</ele>
        <time>2020-01-28T19:56:42Z</time>
      </trkpt>
      <trkpt lat="39.960920" lon="3.211220">
        <ele>153.008</ele>
        <time>2020-01-28T19:57:02Z</time>
      </trkpt>
      <trkpt lat="39.960990" lon="3.211230">
        <ele>154.045</ele>
        <time>2020-01-28T19:57:22Z</time>
      </trkpt>
      <trkpt lat="39.961060" lon="3.211380">
        <ele>155.026</ele>
        <time>2020-01-28T19:57:42Z</time>
      </trkpt>
      <trkpt lat="39.961050" lon="3.211480">
        <ele>156.070</ele>
        <time>2020-01-28T19:58:02Z</time>
      </trkpt>
      <trkpt lat="39.960920" lon="3.211660">
        <ele>158.027</ele>
        <time>2020-01-28T19:58:22Z</time>
      </trkpt>
      <trkpt lat="39.960820" lon="3.211740">
        <ele>159.082</ele>
        <time>2020-01-28T19:58:42Z</time>
      </trkpt>
      <trkpt lat="39.960730" lon="3.211890">
        <ele>159.098</ele>
        <time>2020-01-28T19:59:02Z</time>
      </trkpt>
      <trkpt lat="39.960670" lon="3.212010">
        <ele>157.076</ele>
        <time>2020-01-28T19:59:22Z</time>
      </trkpt>
      <trkpt lat="39.960670" lon="3.212180">
        <ele>155.089</ele>
        <time>2020-01-28T19:59:42Z</time>
      </trkpt>
      <trkpt lat="39.960720" lon="3.212300">
        <ele>154.019</ele>
        <time>2020-01-28T20:00:02Z</time>
      </trkpt>
      <trkpt lat="39.960920" lon="3.212590">
        <ele>150.009</ele>
        <time>2020-01-28T20:00:22Z</time>
      </trkpt>
      <trkpt lat="39.961060" lon="3.212740">
        <ele>148.019</ele>
        <time>2020-01-28T20:00:42Z</time>
      </trkpt>
      <trkpt lat="39.961140" lon="3.212790">
        <ele>146.008</ele>
        <time>2020-01-28T20:01:02Z</time>
      </trkpt>
      <trkpt lat="39.961180" lon="3.212780">
        <ele>146.075</ele>
        <time>2020-01-28T20:01:22Z</time>
      </trkpt>
      <trkpt lat="39.961230" lon="3.212730">
        <ele>145.016</ele>
        <time>2020-01-28T20:01:42Z</time>
      </trkpt>
      <trkpt lat="39.961260" lon="3.212660">
        <ele>144.040</ele>
        <time>2020-01-28T20:02:02Z</time>
      </trkpt>
      <trkpt lat="39.960990" lon="3.212200">
        <ele>138.067</ele>
        <time>2020-01-28T20:02:22Z</time>
      </trkpt>
      <trkpt lat="39.961010" lon="3.212140">
        <ele>138.012</ele>
        <time>2020-01-28T20:02:42Z</time>
      </trkpt>
      <trkpt lat="39.961320" lon="3.211840">
        <ele>133.098</ele>
        <time>2020-01-28T20:03:02Z</time>
      </trkpt>
    </trkseg>
  </trk>
</gpx>
